<?xml version="1.0" encoding="UTF-8"?>
<gpx creator="StravaGPX" version="1.1" xmlns="http://www.topografix.com/GPX/1/1" xmlns:xsi="http://www.w3.org/2001/XMLSchema-instance" xsi:schemaLocation="http://www.topografix.com/GPX/1/1 http://www.topografix.com/GPX/1/1/gpx.xsd">
 <metadata>
  <time>2026-08-23T16:26:19Z</time>
 </metadata>
 <trk>
  <name>Morning Ride</name>
  <type>cycling</type>
  <trkseg>
   <trkpt lat="53.5292430" lon="-113.5103440">
    <ele>624.6</ele>
    <time>2026-08-23T16:26:19Z</time>
   </trkpt>
   <trkpt lat="53.5292430" lon="-113.5103440">
    <ele>624.6</ele>
    <time>2026-08-23T16:26:20Z</time>
   </trkpt>
   <trkpt lat="53.5292540" lon="-113.5103380">
    <ele>624.6</ele>
    <time>2026-08-23T16:26:21Z</time>
   </trkpt>
   <trkpt lat="53.5292530" lon="-113.5103090">
    <ele>624.6</ele>
    <time>2026-08-23T16:26:22Z</time>
   </trkpt>
   <trkpt lat="53.5292490" lon="-113.5102640">
    <ele>624.6</ele>
    <time>2026-08-23T16:26:23Z</time>
   </trkpt>
   <trkpt lat="53.5292420" lon="-113.5102240">
    <ele>624.6</ele>
    <time>2026-08-23T16:26:24Z</time>
   </trkpt>
   <trkpt lat="53.5292410" lon="-113.5101910">
    <ele>624.6</ele>
    <time>2026-08-23T16:26:25Z</time>
   </trkpt>
   <trkpt lat="53.5292370" lon="-113.5101520">
    <ele>624.6</ele>
    <time>2026-08-23T16:26:26Z</time>
   </trkpt>
   <trkpt lat="53.5292280" lon="-113.5101180">
    <ele>624.6</ele>
    <time>2026-08-23T16:26:27Z</time>
   </trkpt>
   <trkpt lat="53.5292220" lon="-113.5100850">
    <ele>624.6</ele>
    <time>2026-08-23T16:26:28Z</time>
   </trkpt>
   <trkpt lat="53.5292160" lon="-113.5100470">
    <ele>624.6</ele>
    <time>2026-08-23T16:26:29Z</time>
   </trkpt>
   <trkpt lat="53.5292100" lon="-113.5100160">
    <ele>624.6</ele>
    <time>2026-08-23T16:26:30Z</time>
   </trkpt>
   <trkpt lat="53.5292080" lon="-113.5099830">
    <ele>624.6</ele>
    <time>2026-08-23T16:26:31Z</time>
   </trkpt>
   <trkpt lat="53.5292080" lon="-113.5099460">
    <ele>624.6</ele>
    <time>2026-08-23T16:26:32Z</time>
   </trkpt>
   <trkpt lat="53.5292050" lon="-113.5099130">
    <ele>624.6</ele>
    <time>2026-08-23T16:26:33Z</time>
   </trkpt>
   <trkpt lat="53.5292010" lon="-113.5098780">
    <ele>624.6</ele>
    <time>2026-08-23T16:26:34Z</time>
   </trkpt>
   <trkpt lat="53.5292000" lon="-113.5098430">
    <ele>624.5</ele>
    <time>2026-08-23T16:26:35Z</time>
   </trkpt>
   <trkpt lat="53.5291970" lon="-113.5098110">
    <ele>624.5</ele>
    <time>2026-08-23T16:26:36Z</time>
   </trkpt>
   <trkpt lat="53.5291920" lon="-113.5097720">
    <ele>624.5</ele>
    <time>2026-08-23T16:26:37Z</time>
   </trkpt>
   <trkpt lat="53.5291870" lon="-113.5097290">
    <ele>624.5</ele>
    <time>2026-08-23T16:26:38Z</time>
   </trkpt>
   <trkpt lat="53.5291830" lon="-113.5096910">
    <ele>624.5</ele>
    <time>2026-08-23T16:26:39Z</time>
   </trkpt>
   <trkpt lat="53.5291800" lon="-113.5096540">
    <ele>624.5</ele>
    <time>2026-08-23T16:26:40Z</time>
   </trkpt>
   <trkpt lat="53.5291760" lon="-113.5096150">
    <ele>624.5</ele>
    <time>2026-08-23T16:26:41Z</time>
   </trkpt>
   <trkpt lat="53.5291700" lon="-113.5095750">
    <ele>624.5</ele>
    <time>2026-08-23T16:26:42Z</time>
   </trkpt>
   <trkpt lat="53.5291640" lon="-113.5095310">
    <ele>624.5</ele>
    <time>2026-08-23T16:26:43Z</time>
   </trkpt>
   <trkpt lat="53.5291610" lon="-113.5094880">
    <ele>624.5</ele>
    <time>2026-08-23T16:26:44Z</time>
   </trkpt>
   <trkpt lat="53.5291570" lon="-113.5094460">
    <ele>624.4</ele>
    <time>2026-08-23T16:26:45Z</time>
   </trkpt>
   <trkpt lat="53.5291530" lon="-113.5094080">
    <ele>624.4</ele>
    <time>2026-08-23T16:26:46Z</time>
   </trkpt>
   <trkpt lat="53.5291460" lon="-113.5093660">
    <ele>624.4</ele>
    <time>2026-08-23T16:26:47Z</time>
   </trkpt>
   <trkpt lat="53.5291400" lon="-113.5093270">
    <ele>624.4</ele>
    <time>2026-08-23T16:26:48Z</time>
   </trkpt>
   <trkpt lat="53.5291340" lon="-113.5092810">
    <ele>624.4</ele>
    <time>2026-08-23T16:26:49Z</time>
   </trkpt>
   <trkpt lat="53.5291380" lon="-113.5092290">
    <ele>624.3</ele>
    <time>2026-08-23T16:26:50Z</time>
   </trkpt>
   <trkpt lat="53.5291230" lon="-113.5092020">
    <ele>624.3</ele>
    <time>2026-08-23T16:26:51Z</time>
   </trkpt>
   <trkpt lat="53.5291190" lon="-113.5091620">
    <ele>624.3</ele>
    <time>2026-08-23T16:26:52Z</time>
   </trkpt>
   <trkpt lat="53.5291150" lon="-113.5091260">
    <ele>624.3</ele>
    <time>2026-08-23T16:26:53Z</time>
   </trkpt>
   <trkpt lat="53.5291190" lon="-113.5090830">
    <ele>624.3</ele>
    <time>2026-08-23T16:26:54Z</time>
   </trkpt>
   <trkpt lat="53.5291210" lon="-113.5090420">
    <ele>624.3</ele>
    <time>2026-08-23T16:26:55Z</time>
   </trkpt>
   <trkpt lat="53.5291190" lon="-113.5090010">
    <ele>624.2</ele>
    <time>2026-08-23T16:26:56Z</time>
   </trkpt>
   <trkpt lat="53.5291050" lon="-113.5089630">
    <ele>624.2</ele>
    <time>2026-08-23T16:26:57Z</time>
   </trkpt>
   <trkpt lat="53.5290920" lon="-113.5089260">
    <ele>624.2</ele>
    <time>2026-08-23T16:26:58Z</time>
   </trkpt>
   <trkpt lat="53.5290910" lon="-113.5088810">
    <ele>624.2</ele>
    <time>2026-08-23T16:26:59Z</time>
   </trkpt>
   <trkpt lat="53.5290870" lon="-113.5088340">
    <ele>624.2</ele>
    <time>2026-08-23T16:27:00Z</time>
   </trkpt>
   <trkpt lat="53.5290830" lon="-113.5087940">
    <ele>624.2</ele>
    <time>2026-08-23T16:27:01Z</time>
   </trkpt>
   <trkpt lat="53.5290810" lon="-113.5087560">
    <ele>624.1</ele>
    <time>2026-08-23T16:27:02Z</time>
   </trkpt>
   <trkpt lat="53.5290710" lon="-113.5087300">
    <ele>624.1</ele>
    <time>2026-08-23T16:27:03Z</time>
   </trkpt>
   <trkpt lat="53.5290640" lon="-113.5086900">
    <ele>624.1</ele>
    <time>2026-08-23T16:27:04Z</time>
   </trkpt>
   <trkpt lat="53.5290570" lon="-113.5086510">
    <ele>624.1</ele>
    <time>2026-08-23T16:27:05Z</time>
   </trkpt>
   <trkpt lat="53.5290570" lon="-113.5086000">
    <ele>624.1</ele>
    <time>2026-08-23T16:27:06Z</time>
   </trkpt>
   <trkpt lat="53.5290520" lon="-113.5085650">
    <ele>624.1</ele>
    <time>2026-08-23T16:27:07Z</time>
   </trkpt>
   <trkpt lat="53.5290490" lon="-113.5085210">
    <ele>624.1</ele>
    <time>2026-08-23T16:27:08Z</time>
   </trkpt>
   <trkpt lat="53.5290430" lon="-113.5084800">
    <ele>624.1</ele>
    <time>2026-08-23T16:27:09Z</time>
   </trkpt>
   <trkpt lat="53.5290390" lon="-113.5084390">
    <ele>624.0</ele>
    <time>2026-08-23T16:27:10Z</time>
   </trkpt>
   <trkpt lat="53.5290360" lon="-113.5083990">
    <ele>624.0</ele>
    <time>2026-08-23T16:27:11Z</time>
   </trkpt>
   <trkpt lat="53.5290330" lon="-113.5083590">
    <ele>624.0</ele>
    <time>2026-08-23T16:27:12Z</time>
   </trkpt>
   <trkpt lat="53.5290240" lon="-113.5083190">
    <ele>624.0</ele>
    <time>2026-08-23T16:27:13Z</time>
   </trkpt>
   <trkpt lat="53.5290200" lon="-113.5082750">
    <ele>624.0</ele>
    <time>2026-08-23T16:27:14Z</time>
   </trkpt>
   <trkpt lat="53.5290150" lon="-113.5082300">
    <ele>624.0</ele>
    <time>2026-08-23T16:27:15Z</time>
   </trkpt>
   <trkpt lat="53.5290060" lon="-113.5081870">
    <ele>623.9</ele>
    <time>2026-08-23T16:27:16Z</time>
   </trkpt>
   <trkpt lat="53.5290090" lon="-113.5081330">
    <ele>623.9</ele>
    <time>2026-08-23T16:27:17Z</time>
   </trkpt>
   <trkpt lat="53.5290050" lon="-113.5080920">
    <ele>623.9</ele>
    <time>2026-08-23T16:27:18Z</time>
   </trkpt>
   <trkpt lat="53.5289920" lon="-113.5080560">
    <ele>623.9</ele>
    <time>2026-08-23T16:27:19Z</time>
   </trkpt>
   <trkpt lat="53.5289810" lon="-113.5080040">
    <ele>623.9</ele>
    <time>2026-08-23T16:27:20Z</time>
   </trkpt>
   <trkpt lat="53.5289760" lon="-113.5079550">
    <ele>623.9</ele>
    <time>2026-08-23T16:27:21Z</time>
   </trkpt>
   <trkpt lat="53.5289750" lon="-113.5079030">
    <ele>623.9</ele>
    <time>2026-08-23T16:27:22Z</time>
   </trkpt>
   <trkpt lat="53.5289710" lon="-113.5078530">
    <ele>623.8</ele>
    <time>2026-08-23T16:27:23Z</time>
   </trkpt>
   <trkpt lat="53.5289690" lon="-113.5078020">
    <ele>623.8</ele>
    <time>2026-08-23T16:27:24Z</time>
   </trkpt>
   <trkpt lat="53.5289630" lon="-113.5077520">
    <ele>623.8</ele>
    <time>2026-08-23T16:27:25Z</time>
   </trkpt>
   <trkpt lat="53.5289590" lon="-113.5077010">
    <ele>623.8</ele>
    <time>2026-08-23T16:27:26Z</time>
   </trkpt>
   <trkpt lat="53.5289570" lon="-113.5076510">
    <ele>623.8</ele>
    <time>2026-08-23T16:27:27Z</time>
   </trkpt>
   <trkpt lat="53.5289570" lon="-113.5076060">
    <ele>623.8</ele>
    <time>2026-08-23T16:27:28Z</time>
   </trkpt>
   <trkpt lat="53.5289450" lon="-113.5075670">
    <ele>623.8</ele>
    <time>2026-08-23T16:27:29Z</time>
   </trkpt>
   <trkpt lat="53.5289400" lon="-113.5075200">
    <ele>623.8</ele>
    <time>2026-08-23T16:27:30Z</time>
   </trkpt>
   <trkpt lat="53.5289380" lon="-113.5074700">
    <ele>623.7</ele>
    <time>2026-08-23T16:27:31Z</time>
   </trkpt>
   <trkpt lat="53.5289320" lon="-113.5074210">
    <ele>623.7</ele>
    <time>2026-08-23T16:27:32Z</time>
   </trkpt>
   <trkpt lat="53.5289260" lon="-113.5073750">
    <ele>623.7</ele>
    <time>2026-08-23T16:27:33Z</time>
   </trkpt>
   <trkpt lat="53.5289190" lon="-113.5073380">
    <ele>623.7</ele>
    <time>2026-08-23T16:27:34Z</time>
   </trkpt>
   <trkpt lat="53.5289140" lon="-113.5072870">
    <ele>623.7</ele>
    <time>2026-08-23T16:27:35Z</time>
   </trkpt>
   <trkpt lat="53.5289040" lon="-113.5072390">
    <ele>623.6</ele>
    <time>2026-08-23T16:27:36Z</time>
   </trkpt>
   <trkpt lat="53.5288900" lon="-113.5072000">
    <ele>623.6</ele>
    <time>2026-08-23T16:27:37Z</time>
   </trkpt>
   <trkpt lat="53.5288790" lon="-113.5071520">
    <ele>623.6</ele>
    <time>2026-08-23T16:27:38Z</time>
   </trkpt>
   <trkpt lat="53.5288660" lon="-113.5070940">
    <ele>623.6</ele>
    <time>2026-08-23T16:27:39Z</time>
   </trkpt>
   <trkpt lat="53.5288480" lon="-113.5070450">
    <ele>623.6</ele>
    <time>2026-08-23T16:27:40Z</time>
   </trkpt>
   <trkpt lat="53.5288310" lon="-113.5070080">
    <ele>623.6</ele>
    <time>2026-08-23T16:27:41Z</time>
   </trkpt>
   <trkpt lat="53.5288200" lon="-113.5069630">
    <ele>623.5</ele>
    <time>2026-08-23T16:27:42Z</time>
   </trkpt>
   <trkpt lat="53.5287950" lon="-113.5069220">
    <ele>623.5</ele>
    <time>2026-08-23T16:27:43Z</time>
   </trkpt>
   <trkpt lat="53.5287710" lon="-113.5068870">
    <ele>623.5</ele>
    <time>2026-08-23T16:27:44Z</time>
   </trkpt>
   <trkpt lat="53.5287500" lon="-113.5068570">
    <ele>623.5</ele>
    <time>2026-08-23T16:27:45Z</time>
   </trkpt>
   <trkpt lat="53.5287360" lon="-113.5068050">
    <ele>623.5</ele>
    <time>2026-08-23T16:27:46Z</time>
   </trkpt>
   <trkpt lat="53.5287250" lon="-113.5067680">
    <ele>623.5</ele>
    <time>2026-08-23T16:27:47Z</time>
   </trkpt>
   <trkpt lat="53.5287100" lon="-113.5067510">
    <ele>623.5</ele>
    <time>2026-08-23T16:27:48Z</time>
   </trkpt>
   <trkpt lat="53.5286880" lon="-113.5067290">
    <ele>623.5</ele>
    <time>2026-08-23T16:27:49Z</time>
   </trkpt>
   <trkpt lat="53.5286620" lon="-113.5067170">
    <ele>623.4</ele>
    <time>2026-08-23T16:27:50Z</time>
   </trkpt>
   <trkpt lat="53.5286480" lon="-113.5066720">
    <ele>623.4</ele>
    <time>2026-08-23T16:27:51Z</time>
   </trkpt>
   <trkpt lat="53.5286270" lon="-113.5066560">
    <ele>623.4</ele>
    <time>2026-08-23T16:27:52Z</time>
   </trkpt>
   <trkpt lat="53.5286060" lon="-113.5065960">
    <ele>623.4</ele>
    <time>2026-08-23T16:27:53Z</time>
   </trkpt>
   <trkpt lat="53.5285760" lon="-113.5065420">
    <ele>623.4</ele>
    <time>2026-08-23T16:27:54Z</time>
   </trkpt>
   <trkpt lat="53.5285500" lon="-113.5065080">
    <ele>623.4</ele>
    <time>2026-08-23T16:27:55Z</time>
   </trkpt>
   <trkpt lat="53.5285220" lon="-113.5064780">
    <ele>623.4</ele>
    <time>2026-08-23T16:27:56Z</time>
   </trkpt>
   <trkpt lat="53.5284960" lon="-113.5064520">
    <ele>623.3</ele>
    <time>2026-08-23T16:27:57Z</time>
   </trkpt>
   <trkpt lat="53.5284680" lon="-113.5064270">
    <ele>623.3</ele>
    <time>2026-08-23T16:27:58Z</time>
   </trkpt>
   <trkpt lat="53.5284460" lon="-113.5064130">
    <ele>623.3</ele>
    <time>2026-08-23T16:27:59Z</time>
   </trkpt>
   <trkpt lat="53.5284070" lon="-113.5064010">
    <ele>623.3</ele>
    <time>2026-08-23T16:28:00Z</time>
   </trkpt>
   <trkpt lat="53.5283740" lon="-113.5063780">
    <ele>623.2</ele>
    <time>2026-08-23T16:28:01Z</time>
   </trkpt>
   <trkpt lat="53.5283450" lon="-113.5063770">
    <ele>623.2</ele>
    <time>2026-08-23T16:28:02Z</time>
   </trkpt>
   <trkpt lat="53.5283210" lon="-113.5063870">
    <ele>623.2</ele>
    <time>2026-08-23T16:28:03Z</time>
   </trkpt>
   <trkpt lat="53.5282850" lon="-113.5063980">
    <ele>623.2</ele>
    <time>2026-08-23T16:28:04Z</time>
   </trkpt>
   <trkpt lat="53.5282510" lon="-113.5064160">
    <ele>623.2</ele>
    <time>2026-08-23T16:28:05Z</time>
   </trkpt>
   <trkpt lat="53.5282340" lon="-113.5064090">
    <ele>623.2</ele>
    <time>2026-08-23T16:28:06Z</time>
   </trkpt>
   <trkpt lat="53.5282140" lon="-113.5064080">
    <ele>623.1</ele>
    <time>2026-08-23T16:28:07Z</time>
   </trkpt>
   <trkpt lat="53.5281940" lon="-113.5064080">
    <ele>623.1</ele>
    <time>2026-08-23T16:28:08Z</time>
   </trkpt>
   <trkpt lat="53.5281740" lon="-113.5064090">
    <ele>623.1</ele>
    <time>2026-08-23T16:28:09Z</time>
   </trkpt>
   <trkpt lat="53.5281520" lon="-113.5063940">
    <ele>623.1</ele>
    <time>2026-08-23T16:28:10Z</time>
   </trkpt>
   <trkpt lat="53.5281300" lon="-113.5063950">
    <ele>623.1</ele>
    <time>2026-08-23T16:28:11Z</time>
   </trkpt>
   <trkpt lat="53.5281050" lon="-113.5063930">
    <ele>623.1</ele>
    <time>2026-08-23T16:28:12Z</time>
   </trkpt>
   <trkpt lat="53.5280790" lon="-113.5064020">
    <ele>623.1</ele>
    <time>2026-08-23T16:28:13Z</time>
   </trkpt>
   <trkpt lat="53.5280550" lon="-113.5064110">
    <ele>623.1</ele>
    <time>2026-08-23T16:28:14Z</time>
   </trkpt>
   <trkpt lat="53.5280280" lon="-113.5064060">
    <ele>623.1</ele>
    <time>2026-08-23T16:28:15Z</time>
   </trkpt>
   <trkpt lat="53.5280010" lon="-113.5064070">
    <ele>623.1</ele>
    <time>2026-08-23T16:28:16Z</time>
   </trkpt>
   <trkpt lat="53.5279760" lon="-113.5063960">
    <ele>623.1</ele>
    <time>2026-08-23T16:28:17Z</time>
   </trkpt>
   <trkpt lat="53.5279470" lon="-113.5063930">
    <ele>623.1</ele>
    <time>2026-08-23T16:28:18Z</time>
   </trkpt>
   <trkpt lat="53.5279200" lon="-113.5063980">
    <ele>623.1</ele>
    <time>2026-08-23T16:28:19Z</time>
   </trkpt>
   <trkpt lat="53.5278900" lon="-113.5063780">
    <ele>623.1</ele>
    <time>2026-08-23T16:28:20Z</time>
   </trkpt>
   <trkpt lat="53.5278610" lon="-113.5063590">
    <ele>623.1</ele>
    <time>2026-08-23T16:28:21Z</time>
   </trkpt>
   <trkpt lat="53.5278320" lon="-113.5063530">
    <ele>623.1</ele>
    <time>2026-08-23T16:28:22Z</time>
   </trkpt>
   <trkpt lat="53.5278010" lon="-113.5063350">
    <ele>623.1</ele>
    <time>2026-08-23T16:28:23Z</time>
   </trkpt>
   <trkpt lat="53.5277710" lon="-113.5063040">
    <ele>623.1</ele>
    <time>2026-08-23T16:28:24Z</time>
   </trkpt>
   <trkpt lat="53.5277410" lon="-113.5062700">
    <ele>623.1</ele>
    <time>2026-08-23T16:28:25Z</time>
   </trkpt>
   <trkpt lat="53.5277160" lon="-113.5062370">
    <ele>623.1</ele>
    <time>2026-08-23T16:28:26Z</time>
   </trkpt>
   <trkpt lat="53.5276910" lon="-113.5062050">
    <ele>623.1</ele>
    <time>2026-08-23T16:28:27Z</time>
   </trkpt>
   <trkpt lat="53.5276700" lon="-113.5061720">
    <ele>623.1</ele>
    <time>2026-08-23T16:28:28Z</time>
   </trkpt>
   <trkpt lat="53.5276510" lon="-113.5061300">
    <ele>623.1</ele>
    <time>2026-08-23T16:28:29Z</time>
   </trkpt>
   <trkpt lat="53.5276340" lon="-113.5060890">
    <ele>623.1</ele>
    <time>2026-08-23T16:28:30Z</time>
   </trkpt>
   <trkpt lat="53.5276190" lon="-113.5060410">
    <ele>623.1</ele>
    <time>2026-08-23T16:28:31Z</time>
   </trkpt>
   <trkpt lat="53.5275980" lon="-113.5060020">
    <ele>623.1</ele>
    <time>2026-08-23T16:28:32Z</time>
   </trkpt>
   <trkpt lat="53.5275760" lon="-113.5059710">
    <ele>623.2</ele>
    <time>2026-08-23T16:28:33Z</time>
   </trkpt>
   <trkpt lat="53.5275650" lon="-113.5059240">
    <ele>623.2</ele>
    <time>2026-08-23T16:28:34Z</time>
   </trkpt>
   <trkpt lat="53.5275530" lon="-113.5058760">
    <ele>623.1</ele>
    <time>2026-08-23T16:28:35Z</time>
   </trkpt>
   <trkpt lat="53.5275420" lon="-113.5058280">
    <ele>623.1</ele>
    <time>2026-08-23T16:28:36Z</time>
   </trkpt>
   <trkpt lat="53.5275280" lon="-113.5057810">
    <ele>623.1</ele>
    <time>2026-08-23T16:28:37Z</time>
   </trkpt>
   <trkpt lat="53.5275150" lon="-113.5057350">
    <ele>623.1</ele>
    <time>2026-08-23T16:28:38Z</time>
   </trkpt>
   <trkpt lat="53.5275090" lon="-113.5056830">
    <ele>623.1</ele>
    <time>2026-08-23T16:28:39Z</time>
   </trkpt>
   <trkpt lat="53.5274970" lon="-113.5056350">
    <ele>623.1</ele>
    <time>2026-08-23T16:28:40Z</time>
   </trkpt>
   <trkpt lat="53.5274910" lon="-113.5055810">
    <ele>623.1</ele>
    <time>2026-08-23T16:28:41Z</time>
   </trkpt>
   <trkpt lat="53.5274800" lon="-113.5055320">
    <ele>623.0</ele>
    <time>2026-08-23T16:28:42Z</time>
   </trkpt>
   <trkpt lat="53.5274740" lon="-113.5054780">
    <ele>623.0</ele>
    <time>2026-08-23T16:28:43Z</time>
   </trkpt>
   <trkpt lat="53.5274670" lon="-113.5054270">
    <ele>623.0</ele>
    <time>2026-08-23T16:28:44Z</time>
   </trkpt>
   <trkpt lat="53.5274630" lon="-113.5053730">
    <ele>623.0</ele>
    <time>2026-08-23T16:28:45Z</time>
   </trkpt>
   <trkpt lat="53.5274520" lon="-113.5053290">
    <ele>623.0</ele>
    <time>2026-08-23T16:28:46Z</time>
   </trkpt>
   <trkpt lat="53.5274330" lon="-113.5052900">
    <ele>622.9</ele>
    <time>2026-08-23T16:28:47Z</time>
   </trkpt>
   <trkpt lat="53.5274230" lon="-113.5052410">
    <ele>622.9</ele>
    <time>2026-08-23T16:28:48Z</time>
   </trkpt>
   <trkpt lat="53.5274120" lon="-113.5051980">
    <ele>622.9</ele>
    <time>2026-08-23T16:28:49Z</time>
   </trkpt>
   <trkpt lat="53.5274030" lon="-113.5051490">
    <ele>622.9</ele>
    <time>2026-08-23T16:28:50Z</time>
   </trkpt>
   <trkpt lat="53.5273980" lon="-113.5050960">
    <ele>622.9</ele>
    <time>2026-08-23T16:28:51Z</time>
   </trkpt>
   <trkpt lat="53.5273890" lon="-113.5050490">
    <ele>622.9</ele>
    <time>2026-08-23T16:28:52Z</time>
   </trkpt>
   <trkpt lat="53.5273780" lon="-113.5050100">
    <ele>622.9</ele>
    <time>2026-08-23T16:28:53Z</time>
   </trkpt>
   <trkpt lat="53.5273680" lon="-113.5049680">
    <ele>622.9</ele>
    <time>2026-08-23T16:28:54Z</time>
   </trkpt>
   <trkpt lat="53.5273610" lon="-113.5049200">
    <ele>622.8</ele>
    <time>2026-08-23T16:28:55Z</time>
   </trkpt>
   <trkpt lat="53.5273530" lon="-113.5048710">
    <ele>622.8</ele>
    <time>2026-08-23T16:28:56Z</time>
   </trkpt>
   <trkpt lat="53.5273460" lon="-113.5048180">
    <ele>622.8</ele>
    <time>2026-08-23T16:28:57Z</time>
   </trkpt>
   <trkpt lat="53.5273340" lon="-113.5047710">
    <ele>622.8</ele>
    <time>2026-08-23T16:28:58Z</time>
   </trkpt>
   <trkpt lat="53.5273220" lon="-113.5047220">
    <ele>622.8</ele>
    <time>2026-08-23T16:28:59Z</time>
   </trkpt>
   <trkpt lat="53.5273110" lon="-113.5046700">
    <ele>622.8</ele>
    <time>2026-08-23T16:29:00Z</time>
   </trkpt>
   <trkpt lat="53.5273040" lon="-113.5046110">
    <ele>622.8</ele>
    <time>2026-08-23T16:29:01Z</time>
   </trkpt>
   <trkpt lat="53.5273010" lon="-113.5045470">
    <ele>622.8</ele>
    <time>2026-08-23T16:29:02Z</time>
   </trkpt>
   <trkpt lat="53.5272950" lon="-113.5044890">
    <ele>622.8</ele>
    <time>2026-08-23T16:29:03Z</time>
   </trkpt>
   <trkpt lat="53.5272850" lon="-113.5044370">
    <ele>622.8</ele>
    <time>2026-08-23T16:29:04Z</time>
   </trkpt>
   <trkpt lat="53.5272770" lon="-113.5043820">
    <ele>622.8</ele>
    <time>2026-08-23T16:29:05Z</time>
   </trkpt>
   <trkpt lat="53.5272700" lon="-113.5043270">
    <ele>622.8</ele>
    <time>2026-08-23T16:29:06Z</time>
   </trkpt>
   <trkpt lat="53.5272590" lon="-113.5042770">
    <ele>622.8</ele>
    <time>2026-08-23T16:29:07Z</time>
   </trkpt>
   <trkpt lat="53.5272480" lon="-113.5042260">
    <ele>622.8</ele>
    <time>2026-08-23T16:29:08Z</time>
   </trkpt>
   <trkpt lat="53.5272390" lon="-113.5041750">
    <ele>622.9</ele>
    <time>2026-08-23T16:29:09Z</time>
   </trkpt>
   <trkpt lat="53.5272250" lon="-113.5041280">
    <ele>622.9</ele>
    <time>2026-08-23T16:29:10Z</time>
   </trkpt>
   <trkpt lat="53.5272160" lon="-113.5040790">
    <ele>622.9</ele>
    <time>2026-08-23T16:29:11Z</time>
   </trkpt>
   <trkpt lat="53.5272090" lon="-113.5040300">
    <ele>622.9</ele>
    <time>2026-08-23T16:29:12Z</time>
   </trkpt>
   <trkpt lat="53.5272140" lon="-113.5039790">
    <ele>623.0</ele>
    <time>2026-08-23T16:29:13Z</time>
   </trkpt>
   <trkpt lat="53.5272190" lon="-113.5039180">
    <ele>623.0</ele>
    <time>2026-08-23T16:29:14Z</time>
   </trkpt>
   <trkpt lat="53.5272320" lon="-113.5038620">
    <ele>623.0</ele>
    <time>2026-08-23T16:29:15Z</time>
   </trkpt>
   <trkpt lat="53.5272560" lon="-113.5038040">
    <ele>623.1</ele>
    <time>2026-08-23T16:29:16Z</time>
   </trkpt>
   <trkpt lat="53.5272870" lon="-113.5037600">
    <ele>623.1</ele>
    <time>2026-08-23T16:29:17Z</time>
   </trkpt>
   <trkpt lat="53.5273080" lon="-113.5037190">
    <ele>623.0</ele>
    <time>2026-08-23T16:29:18Z</time>
   </trkpt>
   <trkpt lat="53.5273180" lon="-113.5036760">
    <ele>622.9</ele>
    <time>2026-08-23T16:29:19Z</time>
   </trkpt>
   <trkpt lat="53.5273230" lon="-113.5036330">
    <ele>622.9</ele>
    <time>2026-08-23T16:29:20Z</time>
   </trkpt>
   <trkpt lat="53.5273240" lon="-113.5035890">
    <ele>622.8</ele>
    <time>2026-08-23T16:29:21Z</time>
   </trkpt>
   <trkpt lat="53.5273300" lon="-113.5035500">
    <ele>622.8</ele>
    <time>2026-08-23T16:29:22Z</time>
   </trkpt>
   <trkpt lat="53.5273370" lon="-113.5035110">
    <ele>622.7</ele>
    <time>2026-08-23T16:29:23Z</time>
   </trkpt>
   <trkpt lat="53.5273420" lon="-113.5034610">
    <ele>622.7</ele>
    <time>2026-08-23T16:29:24Z</time>
   </trkpt>
   <trkpt lat="53.5273470" lon="-113.5034080">
    <ele>622.6</ele>
    <time>2026-08-23T16:29:25Z</time>
   </trkpt>
   <trkpt lat="53.5273520" lon="-113.5033540">
    <ele>622.5</ele>
    <time>2026-08-23T16:29:26Z</time>
   </trkpt>
   <trkpt lat="53.5273690" lon="-113.5032830">
    <ele>622.3</ele>
    <time>2026-08-23T16:29:27Z</time>
   </trkpt>
   <trkpt lat="53.5274010" lon="-113.5031750">
    <ele>622.0</ele>
    <time>2026-08-23T16:29:28Z</time>
   </trkpt>
   <trkpt lat="53.5274330" lon="-113.5030880">
    <ele>621.7</ele>
    <time>2026-08-23T16:29:29Z</time>
   </trkpt>
   <trkpt lat="53.5274680" lon="-113.5030130">
    <ele>621.5</ele>
    <time>2026-08-23T16:29:30Z</time>
   </trkpt>
   <trkpt lat="53.5274980" lon="-113.5029230">
    <ele>621.3</ele>
    <time>2026-08-23T16:29:31Z</time>
   </trkpt>
   <trkpt lat="53.5275250" lon="-113.5028390">
    <ele>621.1</ele>
    <time>2026-08-23T16:29:32Z</time>
   </trkpt>
   <trkpt lat="53.5275350" lon="-113.5027420">
    <ele>620.9</ele>
    <time>2026-08-23T16:29:33Z</time>
   </trkpt>
   <trkpt lat="53.5275110" lon="-113.5026380">
    <ele>620.6</ele>
    <time>2026-08-23T16:29:34Z</time>
   </trkpt>
   <trkpt lat="53.5274690" lon="-113.5025470">
    <ele>620.5</ele>
    <time>2026-08-23T16:29:35Z</time>
   </trkpt>
   <trkpt lat="53.5274450" lon="-113.5024670">
    <ele>620.4</ele>
    <time>2026-08-23T16:29:36Z</time>
   </trkpt>
   <trkpt lat="53.5274280" lon="-113.5023870">
    <ele>620.3</ele>
    <time>2026-08-23T16:29:37Z</time>
   </trkpt>
   <trkpt lat="53.5274160" lon="-113.5023170">
    <ele>620.3</ele>
    <time>2026-08-23T16:29:38Z</time>
   </trkpt>
   <trkpt lat="53.5274040" lon="-113.5022420">
    <ele>620.3</ele>
    <time>2026-08-23T16:29:39Z</time>
   </trkpt>
   <trkpt lat="53.5273970" lon="-113.5021720">
    <ele>620.3</ele>
    <time>2026-08-23T16:29:40Z</time>
   </trkpt>
   <trkpt lat="53.5273910" lon="-113.5020970">
    <ele>620.3</ele>
    <time>2026-08-23T16:29:41Z</time>
   </trkpt>
   <trkpt lat="53.5273790" lon="-113.5019850">
    <ele>620.3</ele>
    <time>2026-08-23T16:29:42Z</time>
   </trkpt>
   <trkpt lat="53.5273310" lon="-113.5019840">
    <ele>620.3</ele>
    <time>2026-08-23T16:29:43Z</time>
   </trkpt>
   <trkpt lat="53.5273010" lon="-113.5019170">
    <ele>620.3</ele>
    <time>2026-08-23T16:29:44Z</time>
   </trkpt>
   <trkpt lat="53.5272910" lon="-113.5018300">
    <ele>620.4</ele>
    <time>2026-08-23T16:29:45Z</time>
   </trkpt>
   <trkpt lat="53.5272810" lon="-113.5017210">
    <ele>620.5</ele>
    <time>2026-08-23T16:29:46Z</time>
   </trkpt>
   <trkpt lat="53.5272730" lon="-113.5016640">
    <ele>620.6</ele>
    <time>2026-08-23T16:29:47Z</time>
   </trkpt>
   <trkpt lat="53.5272310" lon="-113.5016020">
    <ele>620.7</ele>
    <time>2026-08-23T16:29:48Z</time>
   </trkpt>
   <trkpt lat="53.5272070" lon="-113.5015750">
    <ele>620.8</ele>
    <time>2026-08-23T16:29:49Z</time>
   </trkpt>
   <trkpt lat="53.5271970" lon="-113.5015400">
    <ele>620.9</ele>
    <time>2026-08-23T16:29:50Z</time>
   </trkpt>
   <trkpt lat="53.5271800" lon="-113.5015260">
    <ele>621.0</ele>
    <time>2026-08-23T16:29:51Z</time>
   </trkpt>
   <trkpt lat="53.5271690" lon="-113.5014980">
    <ele>621.1</ele>
    <time>2026-08-23T16:29:52Z</time>
   </trkpt>
   <trkpt lat="53.5271580" lon="-113.5014780">
    <ele>621.1</ele>
    <time>2026-08-23T16:29:53Z</time>
   </trkpt>
   <trkpt lat="53.5271470" lon="-113.5014640">
    <ele>621.2</ele>
    <time>2026-08-23T16:29:54Z</time>
   </trkpt>
   <trkpt lat="53.5271370" lon="-113.5014410">
    <ele>621.2</ele>
    <time>2026-08-23T16:29:55Z</time>
   </trkpt>
   <trkpt lat="53.5271260" lon="-113.5014210">
    <ele>621.3</ele>
    <time>2026-08-23T16:29:56Z</time>
   </trkpt>
   <trkpt lat="53.5271160" lon="-113.5014010">
    <ele>621.4</ele>
    <time>2026-08-23T16:29:57Z</time>
   </trkpt>
   <trkpt lat="53.5271020" lon="-113.5013810">
    <ele>621.4</ele>
    <time>2026-08-23T16:29:58Z</time>
   </trkpt>
   <trkpt lat="53.5270910" lon="-113.5013550">
    <ele>621.5</ele>
    <time>2026-08-23T16:29:59Z</time>
   </trkpt>
   <trkpt lat="53.5270830" lon="-113.5013320">
    <ele>621.6</ele>
    <time>2026-08-23T16:30:00Z</time>
   </trkpt>
   <trkpt lat="53.5270770" lon="-113.5013090">
    <ele>621.6</ele>
    <time>2026-08-23T16:30:01Z</time>
   </trkpt>
   <trkpt lat="53.5270720" lon="-113.5012990">
    <ele>621.7</ele>
    <time>2026-08-23T16:30:02Z</time>
   </trkpt>
   <trkpt lat="53.5270620" lon="-113.5012850">
    <ele>621.7</ele>
    <time>2026-08-23T16:30:03Z</time>
   </trkpt>
   <trkpt lat="53.5270490" lon="-113.5012720">
    <ele>621.8</ele>
    <time>2026-08-23T16:30:04Z</time>
   </trkpt>
   <trkpt lat="53.5270380" lon="-113.5012450">
    <ele>621.9</ele>
    <time>2026-08-23T16:30:05Z</time>
   </trkpt>
   <trkpt lat="53.5270240" lon="-113.5012110">
    <ele>622.0</ele>
    <time>2026-08-23T16:30:06Z</time>
   </trkpt>
   <trkpt lat="53.5270130" lon="-113.5012070">
    <ele>622.0</ele>
    <time>2026-08-23T16:30:07Z</time>
   </trkpt>
   <trkpt lat="53.5270030" lon="-113.5011780">
    <ele>622.1</ele>
    <time>2026-08-23T16:30:08Z</time>
   </trkpt>
   <trkpt lat="53.5270000" lon="-113.5011490">
    <ele>622.2</ele>
    <time>2026-08-23T16:30:09Z</time>
   </trkpt>
   <trkpt lat="53.5269980" lon="-113.5011290">
    <ele>622.3</ele>
    <time>2026-08-23T16:30:10Z</time>
   </trkpt>
   <trkpt lat="53.5269860" lon="-113.5011140">
    <ele>622.3</ele>
    <time>2026-08-23T16:30:11Z</time>
   </trkpt>
   <trkpt lat="53.5269770" lon="-113.5011000">
    <ele>622.4</ele>
    <time>2026-08-23T16:30:12Z</time>
   </trkpt>
   <trkpt lat="53.5269660" lon="-113.5010800">
    <ele>622.5</ele>
    <time>2026-08-23T16:30:13Z</time>
   </trkpt>
   <trkpt lat="53.5269540" lon="-113.5010800">
    <ele>622.5</ele>
    <time>2026-08-23T16:30:14Z</time>
   </trkpt>
   <trkpt lat="53.5269430" lon="-113.5010740">
    <ele>622.6</ele>
    <time>2026-08-23T16:30:15Z</time>
   </trkpt>
   <trkpt lat="53.5269360" lon="-113.5010540">
    <ele>622.6</ele>
    <time>2026-08-23T16:30:16Z</time>
   </trkpt>
   <trkpt lat="53.5269280" lon="-113.5010360">
    <ele>622.7</ele>
    <time>2026-08-23T16:30:17Z</time>
   </trkpt>
   <trkpt lat="53.5269200" lon="-113.5010130">
    <ele>622.8</ele>
    <time>2026-08-23T16:30:18Z</time>
   </trkpt>
   <trkpt lat="53.5269140" lon="-113.5009900">
    <ele>622.8</ele>
    <time>2026-08-23T16:30:19Z</time>
   </trkpt>
   <trkpt lat="53.5269060" lon="-113.5009710">
    <ele>622.9</ele>
    <time>2026-08-23T16:30:20Z</time>
   </trkpt>
   <trkpt lat="53.5268940" lon="-113.5009610">
    <ele>623.0</ele>
    <time>2026-08-23T16:30:21Z</time>
   </trkpt>
   <trkpt lat="53.5268840" lon="-113.5009470">
    <ele>623.0</ele>
    <time>2026-08-23T16:30:22Z</time>
   </trkpt>
   <trkpt lat="53.5268730" lon="-113.5009380">
    <ele>623.1</ele>
    <time>2026-08-23T16:30:23Z</time>
   </trkpt>
   <trkpt lat="53.5268640" lon="-113.5009160">
    <ele>623.1</ele>
    <time>2026-08-23T16:30:24Z</time>
   </trkpt>
   <trkpt lat="53.5268550" lon="-113.5009040">
    <ele>623.2</ele>
    <time>2026-08-23T16:30:25Z</time>
   </trkpt>
   <trkpt lat="53.5268430" lon="-113.5008860">
    <ele>623.2</ele>
    <time>2026-08-23T16:30:26Z</time>
   </trkpt>
   <trkpt lat="53.5268370" lon="-113.5008780">
    <ele>623.2</ele>
    <time>2026-08-23T16:30:27Z</time>
   </trkpt>
   <trkpt lat="53.5268310" lon="-113.5008480">
    <ele>623.3</ele>
    <time>2026-08-23T16:30:28Z</time>
   </trkpt>
   <trkpt lat="53.5268190" lon="-113.5008350">
    <ele>623.3</ele>
    <time>2026-08-23T16:30:29Z</time>
   </trkpt>
   <trkpt lat="53.5268140" lon="-113.5008230">
    <ele>623.4</ele>
    <time>2026-08-23T16:30:30Z</time>
   </trkpt>
   <trkpt lat="53.5268110" lon="-113.5008200">
    <ele>623.4</ele>
    <time>2026-08-23T16:30:31Z</time>
   </trkpt>
   <trkpt lat="53.5268080" lon="-113.5008080">
    <ele>623.4</ele>
    <time>2026-08-23T16:30:32Z</time>
   </trkpt>
   <trkpt lat="53.5268090" lon="-113.5008080">
    <ele>623.4</ele>
    <time>2026-08-23T16:30:33Z</time>
   </trkpt>
   <trkpt lat="53.5268140" lon="-113.5008080">
    <ele>623.4</ele>
    <time>2026-08-23T16:30:34Z</time>
   </trkpt>
   <trkpt lat="53.5268150" lon="-113.5008100">
    <ele>623.4</ele>
    <time>2026-08-23T16:30:36Z</time>
   </trkpt>
   <trkpt lat="53.5268150" lon="-113.5008130">
    <ele>623.4</ele>
    <time>2026-08-23T16:30:37Z</time>
   </trkpt>
   <trkpt lat="53.5268150" lon="-113.5008050">
    <ele>623.4</ele>
    <time>2026-08-23T16:30:38Z</time>
   </trkpt>
   <trkpt lat="53.5268150" lon="-113.5008050">
    <ele>623.4</ele>
    <time>2026-08-23T16:30:39Z</time>
   </trkpt>
   <trkpt lat="53.5268180" lon="-113.5008080">
    <ele>623.5</ele>
    <time>2026-08-23T16:30:40Z</time>
   </trkpt>
   <trkpt lat="53.5268180" lon="-113.5008090">
    <ele>623.5</ele>
    <time>2026-08-23T16:30:41Z</time>
   </trkpt>
   <trkpt lat="53.5268190" lon="-113.5008080">
    <ele>623.5</ele>
    <time>2026-08-23T16:30:42Z</time>
   </trkpt>
   <trkpt lat="53.5268190" lon="-113.5008090">
    <ele>623.5</ele>
    <time>2026-08-23T16:30:43Z</time>
   </trkpt>
   <trkpt lat="53.5268180" lon="-113.5008140">
    <ele>623.5</ele>
    <time>2026-08-23T16:30:44Z</time>
   </trkpt>
   <trkpt lat="53.5268160" lon="-113.5008130">
    <ele>623.5</ele>
    <time>2026-08-23T16:30:45Z</time>
   </trkpt>
   <trkpt lat="53.5268180" lon="-113.5008110">
    <ele>623.5</ele>
    <time>2026-08-23T16:30:46Z</time>
   </trkpt>
   <trkpt lat="53.5268180" lon="-113.5008110">
    <ele>623.5</ele>
    <time>2026-08-23T16:30:47Z</time>
   </trkpt>
   <trkpt lat="53.5268180" lon="-113.5008110">
    <ele>623.5</ele>
    <time>2026-08-23T16:30:48Z</time>
   </trkpt>
   <trkpt lat="53.5268190" lon="-113.5008100">
    <ele>623.5</ele>
    <time>2026-08-23T16:30:49Z</time>
   </trkpt>
   <trkpt lat="53.5268160" lon="-113.5008110">
    <ele>623.5</ele>
    <time>2026-08-23T16:30:50Z</time>
   </trkpt>
   <trkpt lat="53.5268170" lon="-113.5008110">
    <ele>623.5</ele>
    <time>2026-08-23T16:30:51Z</time>
   </trkpt>
   <trkpt lat="53.5268170" lon="-113.5008110">
    <ele>623.5</ele>
    <time>2026-08-23T16:30:52Z</time>
   </trkpt>
   <trkpt lat="53.5268170" lon="-113.5008140">
    <ele>623.5</ele>
    <time>2026-08-23T16:30:53Z</time>
   </trkpt>
   <trkpt lat="53.5268180" lon="-113.5008140">
    <ele>623.5</ele>
    <time>2026-08-23T16:30:54Z</time>
   </trkpt>
   <trkpt lat="53.5268180" lon="-113.5008160">
    <ele>623.5</ele>
    <time>2026-08-23T16:30:55Z</time>
   </trkpt>
   <trkpt lat="53.5268150" lon="-113.5008100">
    <ele>623.5</ele>
    <time>2026-08-23T16:30:56Z</time>
   </trkpt>
   <trkpt lat="53.5267970" lon="-113.5007930">
    <ele>623.6</ele>
    <time>2026-08-23T16:30:57Z</time>
   </trkpt>
   <trkpt lat="53.5267950" lon="-113.5007850">
    <ele>623.6</ele>
    <time>2026-08-23T16:30:58Z</time>
   </trkpt>
   <trkpt lat="53.5267850" lon="-113.5007680">
    <ele>623.7</ele>
    <time>2026-08-23T16:30:59Z</time>
   </trkpt>
   <trkpt lat="53.5267700" lon="-113.5007360">
    <ele>623.7</ele>
    <time>2026-08-23T16:31:00Z</time>
   </trkpt>
   <trkpt lat="53.5267540" lon="-113.5006960">
    <ele>623.8</ele>
    <time>2026-08-23T16:31:01Z</time>
   </trkpt>
   <trkpt lat="53.5267370" lon="-113.5006690">
    <ele>623.9</ele>
    <time>2026-08-23T16:31:02Z</time>
   </trkpt>
   <trkpt lat="53.5267200" lon="-113.5006420">
    <ele>623.9</ele>
    <time>2026-08-23T16:31:03Z</time>
   </trkpt>
   <trkpt lat="53.5267060" lon="-113.5006070">
    <ele>624.0</ele>
    <time>2026-08-23T16:31:04Z</time>
   </trkpt>
   <trkpt lat="53.5266890" lon="-113.5005800">
    <ele>624.0</ele>
    <time>2026-08-23T16:31:05Z</time>
   </trkpt>
   <trkpt lat="53.5266700" lon="-113.5005510">
    <ele>624.1</ele>
    <time>2026-08-23T16:31:06Z</time>
   </trkpt>
   <trkpt lat="53.5266530" lon="-113.5005250">
    <ele>624.2</ele>
    <time>2026-08-23T16:31:07Z</time>
   </trkpt>
   <trkpt lat="53.5266350" lon="-113.5004910">
    <ele>624.3</ele>
    <time>2026-08-23T16:31:08Z</time>
   </trkpt>
   <trkpt lat="53.5266210" lon="-113.5004590">
    <ele>624.4</ele>
    <time>2026-08-23T16:31:09Z</time>
   </trkpt>
   <trkpt lat="53.5266030" lon="-113.5004210">
    <ele>624.5</ele>
    <time>2026-08-23T16:31:10Z</time>
   </trkpt>
   <trkpt lat="53.5265890" lon="-113.5003860">
    <ele>624.6</ele>
    <time>2026-08-23T16:31:11Z</time>
   </trkpt>
   <trkpt lat="53.5265710" lon="-113.5003590">
    <ele>624.7</ele>
    <time>2026-08-23T16:31:12Z</time>
   </trkpt>
   <trkpt lat="53.5265520" lon="-113.5003220">
    <ele>624.8</ele>
    <time>2026-08-23T16:31:13Z</time>
   </trkpt>
   <trkpt lat="53.5265330" lon="-113.5003020">
    <ele>624.9</ele>
    <time>2026-08-23T16:31:14Z</time>
   </trkpt>
   <trkpt lat="53.5265150" lon="-113.5002810">
    <ele>625.1</ele>
    <time>2026-08-23T16:31:15Z</time>
   </trkpt>
   <trkpt lat="53.5265000" lon="-113.5002610">
    <ele>625.2</ele>
    <time>2026-08-23T16:31:16Z</time>
   </trkpt>
   <trkpt lat="53.5264830" lon="-113.5002360">
    <ele>625.3</ele>
    <time>2026-08-23T16:31:17Z</time>
   </trkpt>
   <trkpt lat="53.5264650" lon="-113.5002160">
    <ele>625.4</ele>
    <time>2026-08-23T16:31:18Z</time>
   </trkpt>
   <trkpt lat="53.5264480" lon="-113.5001950">
    <ele>625.5</ele>
    <time>2026-08-23T16:31:19Z</time>
   </trkpt>
   <trkpt lat="53.5264270" lon="-113.5001780">
    <ele>625.6</ele>
    <time>2026-08-23T16:31:20Z</time>
   </trkpt>
   <trkpt lat="53.5264080" lon="-113.5001560">
    <ele>625.8</ele>
    <time>2026-08-23T16:31:21Z</time>
   </trkpt>
   <trkpt lat="53.5263880" lon="-113.5001380">
    <ele>625.9</ele>
    <time>2026-08-23T16:31:22Z</time>
   </trkpt>
   <trkpt lat="53.5263690" lon="-113.5001260">
    <ele>626.0</ele>
    <time>2026-08-23T16:31:23Z</time>
   </trkpt>
   <trkpt lat="53.5263470" lon="-113.5001220">
    <ele>626.1</ele>
    <time>2026-08-23T16:31:24Z</time>
   </trkpt>
   <trkpt lat="53.5263240" lon="-113.5001100">
    <ele>626.3</ele>
    <time>2026-08-23T16:31:25Z</time>
   </trkpt>
   <trkpt lat="53.5263020" lon="-113.5001020">
    <ele>626.4</ele>
    <time>2026-08-23T16:31:26Z</time>
   </trkpt>
   <trkpt lat="53.5262810" lon="-113.5000980">
    <ele>626.5</ele>
    <time>2026-08-23T16:31:27Z</time>
   </trkpt>
   <trkpt lat="53.5262570" lon="-113.5001030">
    <ele>626.7</ele>
    <time>2026-08-23T16:31:28Z</time>
   </trkpt>
   <trkpt lat="53.5262350" lon="-113.5001020">
    <ele>626.7</ele>
    <time>2026-08-23T16:31:29Z</time>
   </trkpt>
   <trkpt lat="53.5262130" lon="-113.5001000">
    <ele>626.8</ele>
    <time>2026-08-23T16:31:30Z</time>
   </trkpt>
   <trkpt lat="53.5261930" lon="-113.5001100">
    <ele>626.9</ele>
    <time>2026-08-23T16:31:31Z</time>
   </trkpt>
   <trkpt lat="53.5261710" lon="-113.5001100">
    <ele>626.9</ele>
    <time>2026-08-23T16:31:32Z</time>
   </trkpt>
   <trkpt lat="53.5261480" lon="-113.5001040">
    <ele>627.0</ele>
    <time>2026-08-23T16:31:33Z</time>
   </trkpt>
   <trkpt lat="53.5261260" lon="-113.5001020">
    <ele>627.1</ele>
    <time>2026-08-23T16:31:34Z</time>
   </trkpt>
   <trkpt lat="53.5261040" lon="-113.5000930">
    <ele>627.1</ele>
    <time>2026-08-23T16:31:35Z</time>
   </trkpt>
   <trkpt lat="53.5260810" lon="-113.5000790">
    <ele>627.2</ele>
    <time>2026-08-23T16:31:36Z</time>
   </trkpt>
   <trkpt lat="53.5260610" lon="-113.5000660">
    <ele>627.2</ele>
    <time>2026-08-23T16:31:37Z</time>
   </trkpt>
   <trkpt lat="53.5260410" lon="-113.5000430">
    <ele>627.3</ele>
    <time>2026-08-23T16:31:38Z</time>
   </trkpt>
   <trkpt lat="53.5260220" lon="-113.5000270">
    <ele>627.3</ele>
    <time>2026-08-23T16:31:39Z</time>
   </trkpt>
   <trkpt lat="53.5260010" lon="-113.5000170">
    <ele>627.4</ele>
    <time>2026-08-23T16:31:40Z</time>
   </trkpt>
   <trkpt lat="53.5259800" lon="-113.5000010">
    <ele>627.4</ele>
    <time>2026-08-23T16:31:41Z</time>
   </trkpt>
   <trkpt lat="53.5259620" lon="-113.4999790">
    <ele>627.4</ele>
    <time>2026-08-23T16:31:42Z</time>
   </trkpt>
   <trkpt lat="53.5259440" lon="-113.4999640">
    <ele>627.4</ele>
    <time>2026-08-23T16:31:43Z</time>
   </trkpt>
   <trkpt lat="53.5259220" lon="-113.4999560">
    <ele>627.4</ele>
    <time>2026-08-23T16:31:44Z</time>
   </trkpt>
   <trkpt lat="53.5259040" lon="-113.4999340">
    <ele>627.5</ele>
    <time>2026-08-23T16:31:45Z</time>
   </trkpt>
   <trkpt lat="53.5258860" lon="-113.4999090">
    <ele>627.5</ele>
    <time>2026-08-23T16:31:46Z</time>
   </trkpt>
   <trkpt lat="53.5258660" lon="-113.4998900">
    <ele>627.6</ele>
    <time>2026-08-23T16:31:47Z</time>
   </trkpt>
   <trkpt lat="53.5258440" lon="-113.4998730">
    <ele>627.6</ele>
    <time>2026-08-23T16:31:48Z</time>
   </trkpt>
   <trkpt lat="53.5258210" lon="-113.4998590">
    <ele>627.7</ele>
    <time>2026-08-23T16:31:49Z</time>
   </trkpt>
   <trkpt lat="53.5258030" lon="-113.4998390">
    <ele>627.7</ele>
    <time>2026-08-23T16:31:50Z</time>
   </trkpt>
   <trkpt lat="53.5257820" lon="-113.4998270">
    <ele>627.8</ele>
    <time>2026-08-23T16:31:51Z</time>
   </trkpt>
   <trkpt lat="53.5257590" lon="-113.4998250">
    <ele>627.9</ele>
    <time>2026-08-23T16:31:52Z</time>
   </trkpt>
   <trkpt lat="53.5257380" lon="-113.4998150">
    <ele>627.9</ele>
    <time>2026-08-23T16:31:53Z</time>
   </trkpt>
   <trkpt lat="53.5257190" lon="-113.4998060">
    <ele>628.0</ele>
    <time>2026-08-23T16:31:54Z</time>
   </trkpt>
   <trkpt lat="53.5256990" lon="-113.4997990">
    <ele>628.1</ele>
    <time>2026-08-23T16:31:55Z</time>
   </trkpt>
   <trkpt lat="53.5256790" lon="-113.4998010">
    <ele>628.2</ele>
    <time>2026-08-23T16:31:56Z</time>
   </trkpt>
   <trkpt lat="53.5256590" lon="-113.4997910">
    <ele>628.3</ele>
    <time>2026-08-23T16:31:57Z</time>
   </trkpt>
   <trkpt lat="53.5256400" lon="-113.4997970">
    <ele>628.4</ele>
    <time>2026-08-23T16:31:58Z</time>
   </trkpt>
   <trkpt lat="53.5256210" lon="-113.4998040">
    <ele>628.5</ele>
    <time>2026-08-23T16:31:59Z</time>
   </trkpt>
   <trkpt lat="53.5256030" lon="-113.4998030">
    <ele>628.6</ele>
    <time>2026-08-23T16:32:00Z</time>
   </trkpt>
   <trkpt lat="53.5255850" lon="-113.4998050">
    <ele>628.7</ele>
    <time>2026-08-23T16:32:01Z</time>
   </trkpt>
   <trkpt lat="53.5255680" lon="-113.4998080">
    <ele>628.9</ele>
    <time>2026-08-23T16:32:02Z</time>
   </trkpt>
   <trkpt lat="53.5255510" lon="-113.4998030">
    <ele>629.0</ele>
    <time>2026-08-23T16:32:03Z</time>
   </trkpt>
   <trkpt lat="53.5255350" lon="-113.4997980">
    <ele>629.1</ele>
    <time>2026-08-23T16:32:04Z</time>
   </trkpt>
   <trkpt lat="53.5255180" lon="-113.4997970">
    <ele>629.2</ele>
    <time>2026-08-23T16:32:05Z</time>
   </trkpt>
   <trkpt lat="53.5255020" lon="-113.4997970">
    <ele>629.4</ele>
    <time>2026-08-23T16:32:06Z</time>
   </trkpt>
   <trkpt lat="53.5254890" lon="-113.4997870">
    <ele>629.5</ele>
    <time>2026-08-23T16:32:07Z</time>
   </trkpt>
   <trkpt lat="53.5254770" lon="-113.4997850">
    <ele>629.6</ele>
    <time>2026-08-23T16:32:08Z</time>
   </trkpt>
   <trkpt lat="53.5254640" lon="-113.4997840">
    <ele>629.7</ele>
    <time>2026-08-23T16:32:09Z</time>
   </trkpt>
   <trkpt lat="53.5254510" lon="-113.4997870">
    <ele>629.8</ele>
    <time>2026-08-23T16:32:10Z</time>
   </trkpt>
   <trkpt lat="53.5254370" lon="-113.4997920">
    <ele>629.9</ele>
    <time>2026-08-23T16:32:11Z</time>
   </trkpt>
   <trkpt lat="53.5254230" lon="-113.4997870">
    <ele>630.1</ele>
    <time>2026-08-23T16:32:12Z</time>
   </trkpt>
   <trkpt lat="53.5254090" lon="-113.4997900">
    <ele>630.2</ele>
    <time>2026-08-23T16:32:13Z</time>
   </trkpt>
   <trkpt lat="53.5253920" lon="-113.4997910">
    <ele>630.3</ele>
    <time>2026-08-23T16:32:14Z</time>
   </trkpt>
   <trkpt lat="53.5253780" lon="-113.4997920">
    <ele>630.4</ele>
    <time>2026-08-23T16:32:15Z</time>
   </trkpt>
   <trkpt lat="53.5253620" lon="-113.4997920">
    <ele>630.6</ele>
    <time>2026-08-23T16:32:16Z</time>
   </trkpt>
   <trkpt lat="53.5253470" lon="-113.4997860">
    <ele>630.7</ele>
    <time>2026-08-23T16:32:17Z</time>
   </trkpt>
   <trkpt lat="53.5253320" lon="-113.4997820">
    <ele>630.8</ele>
    <time>2026-08-23T16:32:18Z</time>
   </trkpt>
   <trkpt lat="53.5253190" lon="-113.4997770">
    <ele>630.9</ele>
    <time>2026-08-23T16:32:19Z</time>
   </trkpt>
   <trkpt lat="53.5253070" lon="-113.4997810">
    <ele>631.0</ele>
    <time>2026-08-23T16:32:20Z</time>
   </trkpt>
   <trkpt lat="53.5252960" lon="-113.4997790">
    <ele>631.1</ele>
    <time>2026-08-23T16:32:21Z</time>
   </trkpt>
   <trkpt lat="53.5252810" lon="-113.4997710">
    <ele>631.3</ele>
    <time>2026-08-23T16:32:22Z</time>
   </trkpt>
   <trkpt lat="53.5252670" lon="-113.4997600">
    <ele>631.4</ele>
    <time>2026-08-23T16:32:23Z</time>
   </trkpt>
   <trkpt lat="53.5252550" lon="-113.4997520">
    <ele>631.5</ele>
    <time>2026-08-23T16:32:24Z</time>
   </trkpt>
   <trkpt lat="53.5252430" lon="-113.4997400">
    <ele>631.6</ele>
    <time>2026-08-23T16:32:25Z</time>
   </trkpt>
   <trkpt lat="53.5252330" lon="-113.4997240">
    <ele>631.7</ele>
    <time>2026-08-23T16:32:26Z</time>
   </trkpt>
   <trkpt lat="53.5252220" lon="-113.4997030">
    <ele>631.8</ele>
    <time>2026-08-23T16:32:27Z</time>
   </trkpt>
   <trkpt lat="53.5252100" lon="-113.4996820">
    <ele>632.0</ele>
    <time>2026-08-23T16:32:28Z</time>
   </trkpt>
   <trkpt lat="53.5251980" lon="-113.4996650">
    <ele>632.1</ele>
    <time>2026-08-23T16:32:29Z</time>
   </trkpt>
   <trkpt lat="53.5251850" lon="-113.4996490">
    <ele>632.2</ele>
    <time>2026-08-23T16:32:30Z</time>
   </trkpt>
   <trkpt lat="53.5251760" lon="-113.4996260">
    <ele>632.4</ele>
    <time>2026-08-23T16:32:31Z</time>
   </trkpt>
   <trkpt lat="53.5251650" lon="-113.4996080">
    <ele>632.5</ele>
    <time>2026-08-23T16:32:32Z</time>
   </trkpt>
   <trkpt lat="53.5251600" lon="-113.4995810">
    <ele>632.6</ele>
    <time>2026-08-23T16:32:33Z</time>
   </trkpt>
   <trkpt lat="53.5251520" lon="-113.4995580">
    <ele>632.8</ele>
    <time>2026-08-23T16:32:34Z</time>
   </trkpt>
   <trkpt lat="53.5251440" lon="-113.4995340">
    <ele>632.9</ele>
    <time>2026-08-23T16:32:35Z</time>
   </trkpt>
   <trkpt lat="53.5251380" lon="-113.4995070">
    <ele>633.0</ele>
    <time>2026-08-23T16:32:36Z</time>
   </trkpt>
   <trkpt lat="53.5251240" lon="-113.4994790">
    <ele>633.2</ele>
    <time>2026-08-23T16:32:37Z</time>
   </trkpt>
   <trkpt lat="53.5251140" lon="-113.4994540">
    <ele>633.4</ele>
    <time>2026-08-23T16:32:38Z</time>
   </trkpt>
   <trkpt lat="53.5251110" lon="-113.4994300">
    <ele>633.5</ele>
    <time>2026-08-23T16:32:39Z</time>
   </trkpt>
   <trkpt lat="53.5251060" lon="-113.4993940">
    <ele>633.7</ele>
    <time>2026-08-23T16:32:40Z</time>
   </trkpt>
   <trkpt lat="53.5251010" lon="-113.4993620">
    <ele>633.8</ele>
    <time>2026-08-23T16:32:42Z</time>
   </trkpt>
   <trkpt lat="53.5250960" lon="-113.4993300">
    <ele>634.0</ele>
    <time>2026-08-23T16:32:43Z</time>
   </trkpt>
   <trkpt lat="53.5250900" lon="-113.4993020">
    <ele>634.1</ele>
    <time>2026-08-23T16:32:44Z</time>
   </trkpt>
   <trkpt lat="53.5250840" lon="-113.4992730">
    <ele>634.3</ele>
    <time>2026-08-23T16:32:45Z</time>
   </trkpt>
   <trkpt lat="53.5250820" lon="-113.4992440">
    <ele>634.4</ele>
    <time>2026-08-23T16:32:46Z</time>
   </trkpt>
   <trkpt lat="53.5250790" lon="-113.4992170">
    <ele>634.5</ele>
    <time>2026-08-23T16:32:47Z</time>
   </trkpt>
   <trkpt lat="53.5250750" lon="-113.4991870">
    <ele>634.6</ele>
    <time>2026-08-23T16:32:48Z</time>
   </trkpt>
   <trkpt lat="53.5250750" lon="-113.4991560">
    <ele>634.8</ele>
    <time>2026-08-23T16:32:49Z</time>
   </trkpt>
   <trkpt lat="53.5250790" lon="-113.4991230">
    <ele>634.9</ele>
    <time>2026-08-23T16:32:50Z</time>
   </trkpt>
   <trkpt lat="53.5250770" lon="-113.4990860">
    <ele>635.0</ele>
    <time>2026-08-23T16:32:51Z</time>
   </trkpt>
   <trkpt lat="53.5250740" lon="-113.4990590">
    <ele>635.1</ele>
    <time>2026-08-23T16:32:52Z</time>
   </trkpt>
   <trkpt lat="53.5250710" lon="-113.4990240">
    <ele>635.2</ele>
    <time>2026-08-23T16:32:53Z</time>
   </trkpt>
   <trkpt lat="53.5250680" lon="-113.4989940">
    <ele>635.3</ele>
    <time>2026-08-23T16:32:54Z</time>
   </trkpt>
   <trkpt lat="53.5250690" lon="-113.4989670">
    <ele>635.4</ele>
    <time>2026-08-23T16:32:55Z</time>
   </trkpt>
   <trkpt lat="53.5250680" lon="-113.4989370">
    <ele>635.4</ele>
    <time>2026-08-23T16:32:56Z</time>
   </trkpt>
   <trkpt lat="53.5250700" lon="-113.4989030">
    <ele>635.5</ele>
    <time>2026-08-23T16:32:57Z</time>
   </trkpt>
   <trkpt lat="53.5250650" lon="-113.4988770">
    <ele>635.6</ele>
    <time>2026-08-23T16:32:58Z</time>
   </trkpt>
   <trkpt lat="53.5250660" lon="-113.4988540">
    <ele>635.6</ele>
    <time>2026-08-23T16:32:59Z</time>
   </trkpt>
   <trkpt lat="53.5250600" lon="-113.4988260">
    <ele>635.7</ele>
    <time>2026-08-23T16:33:00Z</time>
   </trkpt>
   <trkpt lat="53.5250610" lon="-113.4987970">
    <ele>635.7</ele>
    <time>2026-08-23T16:33:01Z</time>
   </trkpt>
   <trkpt lat="53.5250560" lon="-113.4987730">
    <ele>635.8</ele>
    <time>2026-08-23T16:33:02Z</time>
   </trkpt>
   <trkpt lat="53.5250520" lon="-113.4987450">
    <ele>635.8</ele>
    <time>2026-08-23T16:33:03Z</time>
   </trkpt>
   <trkpt lat="53.5250440" lon="-113.4987060">
    <ele>635.9</ele>
    <time>2026-08-23T16:33:04Z</time>
   </trkpt>
   <trkpt lat="53.5250410" lon="-113.4986670">
    <ele>636.0</ele>
    <time>2026-08-23T16:33:05Z</time>
   </trkpt>
   <trkpt lat="53.5250330" lon="-113.4986240">
    <ele>636.0</ele>
    <time>2026-08-23T16:33:06Z</time>
   </trkpt>
   <trkpt lat="53.5250270" lon="-113.4985870">
    <ele>636.1</ele>
    <time>2026-08-23T16:33:07Z</time>
   </trkpt>
   <trkpt lat="53.5250220" lon="-113.4985470">
    <ele>636.2</ele>
    <time>2026-08-23T16:33:08Z</time>
   </trkpt>
   <trkpt lat="53.5250170" lon="-113.4985110">
    <ele>636.3</ele>
    <time>2026-08-23T16:33:09Z</time>
   </trkpt>
   <trkpt lat="53.5250150" lon="-113.4984650">
    <ele>636.4</ele>
    <time>2026-08-23T16:33:10Z</time>
   </trkpt>
   <trkpt lat="53.5250110" lon="-113.4984150">
    <ele>636.5</ele>
    <time>2026-08-23T16:33:11Z</time>
   </trkpt>
   <trkpt lat="53.5250140" lon="-113.4983820">
    <ele>636.6</ele>
    <time>2026-08-23T16:33:12Z</time>
   </trkpt>
   <trkpt lat="53.5250070" lon="-113.4983350">
    <ele>636.7</ele>
    <time>2026-08-23T16:33:13Z</time>
   </trkpt>
   <trkpt lat="53.5249970" lon="-113.4983010">
    <ele>636.8</ele>
    <time>2026-08-23T16:33:14Z</time>
   </trkpt>
   <trkpt lat="53.5249890" lon="-113.4982690">
    <ele>637.0</ele>
    <time>2026-08-23T16:33:15Z</time>
   </trkpt>
   <trkpt lat="53.5249810" lon="-113.4982100">
    <ele>637.2</ele>
    <time>2026-08-23T16:33:16Z</time>
   </trkpt>
   <trkpt lat="53.5249780" lon="-113.4981790">
    <ele>637.3</ele>
    <time>2026-08-23T16:33:17Z</time>
   </trkpt>
   <trkpt lat="53.5249820" lon="-113.4981440">
    <ele>637.5</ele>
    <time>2026-08-23T16:33:18Z</time>
   </trkpt>
   <trkpt lat="53.5249840" lon="-113.4981140">
    <ele>637.6</ele>
    <time>2026-08-23T16:33:19Z</time>
   </trkpt>
   <trkpt lat="53.5249790" lon="-113.4980830">
    <ele>637.8</ele>
    <time>2026-08-23T16:33:20Z</time>
   </trkpt>
   <trkpt lat="53.5249740" lon="-113.4980520">
    <ele>637.9</ele>
    <time>2026-08-23T16:33:21Z</time>
   </trkpt>
   <trkpt lat="53.5249670" lon="-113.4980220">
    <ele>638.1</ele>
    <time>2026-08-23T16:33:22Z</time>
   </trkpt>
   <trkpt lat="53.5249600" lon="-113.4979990">
    <ele>638.2</ele>
    <time>2026-08-23T16:33:23Z</time>
   </trkpt>
   <trkpt lat="53.5249600" lon="-113.4979710">
    <ele>638.4</ele>
    <time>2026-08-23T16:33:24Z</time>
   </trkpt>
   <trkpt lat="53.5249490" lon="-113.4979430">
    <ele>638.5</ele>
    <time>2026-08-23T16:33:25Z</time>
   </trkpt>
   <trkpt lat="53.5249420" lon="-113.4979140">
    <ele>638.7</ele>
    <time>2026-08-23T16:33:26Z</time>
   </trkpt>
   <trkpt lat="53.5249380" lon="-113.4978840">
    <ele>638.9</ele>
    <time>2026-08-23T16:33:27Z</time>
   </trkpt>
   <trkpt lat="53.5249290" lon="-113.4978670">
    <ele>639.0</ele>
    <time>2026-08-23T16:33:28Z</time>
   </trkpt>
   <trkpt lat="53.5249220" lon="-113.4978390">
    <ele>639.2</ele>
    <time>2026-08-23T16:33:29Z</time>
   </trkpt>
   <trkpt lat="53.5249150" lon="-113.4978140">
    <ele>639.3</ele>
    <time>2026-08-23T16:33:30Z</time>
   </trkpt>
   <trkpt lat="53.5249060" lon="-113.4977930">
    <ele>639.4</ele>
    <time>2026-08-23T16:33:31Z</time>
   </trkpt>
   <trkpt lat="53.5249040" lon="-113.4977660">
    <ele>639.6</ele>
    <time>2026-08-23T16:33:32Z</time>
   </trkpt>
   <trkpt lat="53.5248970" lon="-113.4977420">
    <ele>639.7</ele>
    <time>2026-08-23T16:33:33Z</time>
   </trkpt>
   <trkpt lat="53.5248890" lon="-113.4977190">
    <ele>639.9</ele>
    <time>2026-08-23T16:33:34Z</time>
   </trkpt>
   <trkpt lat="53.5248770" lon="-113.4977020">
    <ele>640.0</ele>
    <time>2026-08-23T16:33:35Z</time>
   </trkpt>
   <trkpt lat="53.5248680" lon="-113.4976800">
    <ele>640.2</ele>
    <time>2026-08-23T16:33:36Z</time>
   </trkpt>
   <trkpt lat="53.5248630" lon="-113.4976520">
    <ele>640.3</ele>
    <time>2026-08-23T16:33:37Z</time>
   </trkpt>
   <trkpt lat="53.5248550" lon="-113.4976300">
    <ele>640.4</ele>
    <time>2026-08-23T16:33:38Z</time>
   </trkpt>
   <trkpt lat="53.5248430" lon="-113.4976140">
    <ele>640.6</ele>
    <time>2026-08-23T16:33:39Z</time>
   </trkpt>
   <trkpt lat="53.5248310" lon="-113.4975960">
    <ele>640.7</ele>
    <time>2026-08-23T16:33:40Z</time>
   </trkpt>
   <trkpt lat="53.5248200" lon="-113.4975800">
    <ele>640.8</ele>
    <time>2026-08-23T16:33:41Z</time>
   </trkpt>
   <trkpt lat="53.5248130" lon="-113.4975560">
    <ele>641.0</ele>
    <time>2026-08-23T16:33:42Z</time>
   </trkpt>
   <trkpt lat="53.5248030" lon="-113.4975330">
    <ele>641.1</ele>
    <time>2026-08-23T16:33:43Z</time>
   </trkpt>
   <trkpt lat="53.5247920" lon="-113.4975120">
    <ele>641.3</ele>
    <time>2026-08-23T16:33:44Z</time>
   </trkpt>
   <trkpt lat="53.5247820" lon="-113.4974830">
    <ele>641.4</ele>
    <time>2026-08-23T16:33:45Z</time>
   </trkpt>
   <trkpt lat="53.5247750" lon="-113.4974670">
    <ele>641.5</ele>
    <time>2026-08-23T16:33:46Z</time>
   </trkpt>
   <trkpt lat="53.5247620" lon="-113.4974460">
    <ele>641.7</ele>
    <time>2026-08-23T16:33:47Z</time>
   </trkpt>
   <trkpt lat="53.5247550" lon="-113.4974280">
    <ele>641.8</ele>
    <time>2026-08-23T16:33:48Z</time>
   </trkpt>
   <trkpt lat="53.5247510" lon="-113.4973980">
    <ele>641.9</ele>
    <time>2026-08-23T16:33:49Z</time>
   </trkpt>
   <trkpt lat="53.5247480" lon="-113.4973660">
    <ele>642.1</ele>
    <time>2026-08-23T16:33:50Z</time>
   </trkpt>
   <trkpt lat="53.5247350" lon="-113.4973450">
    <ele>642.2</ele>
    <time>2026-08-23T16:33:51Z</time>
   </trkpt>
   <trkpt lat="53.5247270" lon="-113.4973210">
    <ele>642.4</ele>
    <time>2026-08-23T16:33:52Z</time>
   </trkpt>
   <trkpt lat="53.5247230" lon="-113.4972940">
    <ele>642.5</ele>
    <time>2026-08-23T16:33:53Z</time>
   </trkpt>
   <trkpt lat="53.5247220" lon="-113.4972630">
    <ele>642.6</ele>
    <time>2026-08-23T16:33:54Z</time>
   </trkpt>
   <trkpt lat="53.5247190" lon="-113.4972350">
    <ele>642.7</ele>
    <time>2026-08-23T16:33:55Z</time>
   </trkpt>
   <trkpt lat="53.5247240" lon="-113.4972010">
    <ele>642.9</ele>
    <time>2026-08-23T16:33:56Z</time>
   </trkpt>
   <trkpt lat="53.5247320" lon="-113.4971670">
    <ele>642.9</ele>
    <time>2026-08-23T16:33:57Z</time>
   </trkpt>
   <trkpt lat="53.5247360" lon="-113.4971340">
    <ele>642.8</ele>
    <time>2026-08-23T16:33:58Z</time>
   </trkpt>
   <trkpt lat="53.5247410" lon="-113.4970980">
    <ele>642.7</ele>
    <time>2026-08-23T16:33:59Z</time>
   </trkpt>
   <trkpt lat="53.5247580" lon="-113.4970680">
    <ele>642.6</ele>
    <time>2026-08-23T16:34:00Z</time>
   </trkpt>
   <trkpt lat="53.5247640" lon="-113.4970120">
    <ele>642.4</ele>
    <time>2026-08-23T16:34:01Z</time>
   </trkpt>
   <trkpt lat="53.5247890" lon="-113.4969320">
    <ele>642.1</ele>
    <time>2026-08-23T16:34:02Z</time>
   </trkpt>
   <trkpt lat="53.5248220" lon="-113.4968390">
    <ele>641.8</ele>
    <time>2026-08-23T16:34:03Z</time>
   </trkpt>
   <trkpt lat="53.5248640" lon="-113.4967480">
    <ele>641.4</ele>
    <time>2026-08-23T16:34:04Z</time>
   </trkpt>
   <trkpt lat="53.5249050" lon="-113.4966700">
    <ele>641.2</ele>
    <time>2026-08-23T16:34:05Z</time>
   </trkpt>
   <trkpt lat="53.5249420" lon="-113.4965860">
    <ele>641.0</ele>
    <time>2026-08-23T16:34:06Z</time>
   </trkpt>
   <trkpt lat="53.5249880" lon="-113.4964920">
    <ele>640.8</ele>
    <time>2026-08-23T16:34:07Z</time>
   </trkpt>
   <trkpt lat="53.5250230" lon="-113.4964030">
    <ele>640.6</ele>
    <time>2026-08-23T16:34:08Z</time>
   </trkpt>
   <trkpt lat="53.5250440" lon="-113.4963270">
    <ele>640.5</ele>
    <time>2026-08-23T16:34:09Z</time>
   </trkpt>
   <trkpt lat="53.5250770" lon="-113.4962490">
    <ele>640.3</ele>
    <time>2026-08-23T16:34:10Z</time>
   </trkpt>
   <trkpt lat="53.5251090" lon="-113.4961590">
    <ele>640.0</ele>
    <time>2026-08-23T16:34:11Z</time>
   </trkpt>
   <trkpt lat="53.5251430" lon="-113.4960650">
    <ele>639.7</ele>
    <time>2026-08-23T16:34:12Z</time>
   </trkpt>
   <trkpt lat="53.5251710" lon="-113.4959690">
    <ele>639.3</ele>
    <time>2026-08-23T16:34:13Z</time>
   </trkpt>
   <trkpt lat="53.5252020" lon="-113.4958650">
    <ele>638.8</ele>
    <time>2026-08-23T16:34:14Z</time>
   </trkpt>
   <trkpt lat="53.5252210" lon="-113.4957490">
    <ele>638.4</ele>
    <time>2026-08-23T16:34:15Z</time>
   </trkpt>
   <trkpt lat="53.5252540" lon="-113.4956390">
    <ele>637.9</ele>
    <time>2026-08-23T16:34:16Z</time>
   </trkpt>
   <trkpt lat="53.5252860" lon="-113.4955120">
    <ele>637.5</ele>
    <time>2026-08-23T16:34:17Z</time>
   </trkpt>
   <trkpt lat="53.5253200" lon="-113.4953910">
    <ele>637.2</ele>
    <time>2026-08-23T16:34:18Z</time>
   </trkpt>
   <trkpt lat="53.5253510" lon="-113.4952740">
    <ele>637.1</ele>
    <time>2026-08-23T16:34:19Z</time>
   </trkpt>
   <trkpt lat="53.5253780" lon="-113.4951560">
    <ele>637.1</ele>
    <time>2026-08-23T16:34:20Z</time>
   </trkpt>
   <trkpt lat="53.5254090" lon="-113.4950440">
    <ele>637.1</ele>
    <time>2026-08-23T16:34:21Z</time>
   </trkpt>
   <trkpt lat="53.5254390" lon="-113.4949420">
    <ele>637.1</ele>
    <time>2026-08-23T16:34:22Z</time>
   </trkpt>
   <trkpt lat="53.5254730" lon="-113.4948400">
    <ele>637.2</ele>
    <time>2026-08-23T16:34:23Z</time>
   </trkpt>
   <trkpt lat="53.5254980" lon="-113.4947440">
    <ele>637.3</ele>
    <time>2026-08-23T16:34:24Z</time>
   </trkpt>
   <trkpt lat="53.5255190" lon="-113.4946530">
    <ele>637.5</ele>
    <time>2026-08-23T16:34:25Z</time>
   </trkpt>
   <trkpt lat="53.5255430" lon="-113.4945880">
    <ele>637.5</ele>
    <time>2026-08-23T16:34:26Z</time>
   </trkpt>
   <trkpt lat="53.5255480" lon="-113.4945120">
    <ele>637.6</ele>
    <time>2026-08-23T16:34:27Z</time>
   </trkpt>
   <trkpt lat="53.5255640" lon="-113.4944400">
    <ele>637.7</ele>
    <time>2026-08-23T16:34:28Z</time>
   </trkpt>
   <trkpt lat="53.5255860" lon="-113.4943700">
    <ele>637.9</ele>
    <time>2026-08-23T16:34:29Z</time>
   </trkpt>
   <trkpt lat="53.5256000" lon="-113.4943020">
    <ele>638.0</ele>
    <time>2026-08-23T16:34:30Z</time>
   </trkpt>
   <trkpt lat="53.5256100" lon="-113.4942440">
    <ele>638.2</ele>
    <time>2026-08-23T16:34:31Z</time>
   </trkpt>
   <trkpt lat="53.5256190" lon="-113.4942070">
    <ele>638.3</ele>
    <time>2026-08-23T16:34:32Z</time>
   </trkpt>
   <trkpt lat="53.5256300" lon="-113.4941790">
    <ele>638.4</ele>
    <time>2026-08-23T16:34:33Z</time>
   </trkpt>
   <trkpt lat="53.5256270" lon="-113.4941390">
    <ele>638.5</ele>
    <time>2026-08-23T16:34:34Z</time>
   </trkpt>
   <trkpt lat="53.5256340" lon="-113.4941070">
    <ele>638.6</ele>
    <time>2026-08-23T16:34:35Z</time>
   </trkpt>
   <trkpt lat="53.5256410" lon="-113.4940680">
    <ele>638.8</ele>
    <time>2026-08-23T16:34:36Z</time>
   </trkpt>
   <trkpt lat="53.5256440" lon="-113.4940540">
    <ele>638.8</ele>
    <time>2026-08-23T16:34:37Z</time>
   </trkpt>
   <trkpt lat="53.5256570" lon="-113.4940200">
    <ele>639.0</ele>
    <time>2026-08-23T16:34:38Z</time>
   </trkpt>
   <trkpt lat="53.5256640" lon="-113.4939820">
    <ele>639.1</ele>
    <time>2026-08-23T16:34:39Z</time>
   </trkpt>
   <trkpt lat="53.5256700" lon="-113.4939610">
    <ele>639.2</ele>
    <time>2026-08-23T16:34:40Z</time>
   </trkpt>
   <trkpt lat="53.5256740" lon="-113.4939440">
    <ele>639.2</ele>
    <time>2026-08-23T16:34:41Z</time>
   </trkpt>
   <trkpt lat="53.5256720" lon="-113.4939210">
    <ele>639.3</ele>
    <time>2026-08-23T16:34:42Z</time>
   </trkpt>
   <trkpt lat="53.5256820" lon="-113.4938960">
    <ele>639.4</ele>
    <time>2026-08-23T16:34:43Z</time>
   </trkpt>
   <trkpt lat="53.5256810" lon="-113.4938740">
    <ele>639.5</ele>
    <time>2026-08-23T16:34:44Z</time>
   </trkpt>
   <trkpt lat="53.5256960" lon="-113.4938480">
    <ele>639.6</ele>
    <time>2026-08-23T16:34:45Z</time>
   </trkpt>
   <trkpt lat="53.5256980" lon="-113.4938280">
    <ele>639.7</ele>
    <time>2026-08-23T16:34:46Z</time>
   </trkpt>
   <trkpt lat="53.5257070" lon="-113.4938090">
    <ele>639.8</ele>
    <time>2026-08-23T16:34:48Z</time>
   </trkpt>
   <trkpt lat="53.5257150" lon="-113.4937840">
    <ele>639.8</ele>
    <time>2026-08-23T16:34:49Z</time>
   </trkpt>
   <trkpt lat="53.5257280" lon="-113.4937680">
    <ele>639.9</ele>
    <time>2026-08-23T16:34:50Z</time>
   </trkpt>
   <trkpt lat="53.5257290" lon="-113.4937460">
    <ele>640.0</ele>
    <time>2026-08-23T16:34:51Z</time>
   </trkpt>
   <trkpt lat="53.5257410" lon="-113.4937200">
    <ele>640.1</ele>
    <time>2026-08-23T16:34:52Z</time>
   </trkpt>
   <trkpt lat="53.5257460" lon="-113.4936960">
    <ele>640.1</ele>
    <time>2026-08-23T16:34:53Z</time>
   </trkpt>
   <trkpt lat="53.5257430" lon="-113.4936940">
    <ele>640.1</ele>
    <time>2026-08-23T16:34:54Z</time>
   </trkpt>
   <trkpt lat="53.5257570" lon="-113.4936710">
    <ele>640.2</ele>
    <time>2026-08-23T16:34:55Z</time>
   </trkpt>
   <trkpt lat="53.5257780" lon="-113.4936460">
    <ele>640.3</ele>
    <time>2026-08-23T16:34:56Z</time>
   </trkpt>
   <trkpt lat="53.5257990" lon="-113.4936120">
    <ele>640.4</ele>
    <time>2026-08-23T16:34:57Z</time>
   </trkpt>
   <trkpt lat="53.5258060" lon="-113.4935730">
    <ele>640.4</ele>
    <time>2026-08-23T16:34:58Z</time>
   </trkpt>
   <trkpt lat="53.5258260" lon="-113.4935550">
    <ele>640.5</ele>
    <time>2026-08-23T16:34:59Z</time>
   </trkpt>
   <trkpt lat="53.5258420" lon="-113.4935340">
    <ele>640.5</ele>
    <time>2026-08-23T16:35:00Z</time>
   </trkpt>
   <trkpt lat="53.5258520" lon="-113.4935120">
    <ele>640.5</ele>
    <time>2026-08-23T16:35:01Z</time>
   </trkpt>
   <trkpt lat="53.5258630" lon="-113.4934870">
    <ele>640.4</ele>
    <time>2026-08-23T16:35:02Z</time>
   </trkpt>
   <trkpt lat="53.5258730" lon="-113.4934590">
    <ele>640.3</ele>
    <time>2026-08-23T16:35:03Z</time>
   </trkpt>
   <trkpt lat="53.5258860" lon="-113.4934210">
    <ele>640.2</ele>
    <time>2026-08-23T16:35:04Z</time>
   </trkpt>
   <trkpt lat="53.5259030" lon="-113.4933920">
    <ele>640.1</ele>
    <time>2026-08-23T16:35:05Z</time>
   </trkpt>
   <trkpt lat="53.5259190" lon="-113.4933480">
    <ele>640.0</ele>
    <time>2026-08-23T16:35:06Z</time>
   </trkpt>
   <trkpt lat="53.5259410" lon="-113.4933030">
    <ele>639.8</ele>
    <time>2026-08-23T16:35:07Z</time>
   </trkpt>
   <trkpt lat="53.5259570" lon="-113.4932630">
    <ele>639.6</ele>
    <time>2026-08-23T16:35:08Z</time>
   </trkpt>
   <trkpt lat="53.5259710" lon="-113.4932170">
    <ele>639.5</ele>
    <time>2026-08-23T16:35:09Z</time>
   </trkpt>
   <trkpt lat="53.5259850" lon="-113.4931760">
    <ele>639.3</ele>
    <time>2026-08-23T16:35:10Z</time>
   </trkpt>
   <trkpt lat="53.5260100" lon="-113.4931080">
    <ele>639.0</ele>
    <time>2026-08-23T16:35:11Z</time>
   </trkpt>
   <trkpt lat="53.5260300" lon="-113.4930430">
    <ele>638.8</ele>
    <time>2026-08-23T16:35:12Z</time>
   </trkpt>
   <trkpt lat="53.5260630" lon="-113.4929750">
    <ele>638.6</ele>
    <time>2026-08-23T16:35:13Z</time>
   </trkpt>
   <trkpt lat="53.5260950" lon="-113.4929110">
    <ele>638.4</ele>
    <time>2026-08-23T16:35:14Z</time>
   </trkpt>
   <trkpt lat="53.5261240" lon="-113.4928510">
    <ele>638.3</ele>
    <time>2026-08-23T16:35:15Z</time>
   </trkpt>
   <trkpt lat="53.5261440" lon="-113.4927760">
    <ele>638.2</ele>
    <time>2026-08-23T16:35:16Z</time>
   </trkpt>
   <trkpt lat="53.5261620" lon="-113.4926950">
    <ele>638.1</ele>
    <time>2026-08-23T16:35:17Z</time>
   </trkpt>
   <trkpt lat="53.5261800" lon="-113.4926280">
    <ele>638.1</ele>
    <time>2026-08-23T16:35:18Z</time>
   </trkpt>
   <trkpt lat="53.5261910" lon="-113.4925670">
    <ele>638.1</ele>
    <time>2026-08-23T16:35:19Z</time>
   </trkpt>
   <trkpt lat="53.5262040" lon="-113.4925020">
    <ele>638.1</ele>
    <time>2026-08-23T16:35:20Z</time>
   </trkpt>
   <trkpt lat="53.5262130" lon="-113.4924590">
    <ele>638.1</ele>
    <time>2026-08-23T16:35:21Z</time>
   </trkpt>
   <trkpt lat="53.5262280" lon="-113.4924170">
    <ele>638.1</ele>
    <time>2026-08-23T16:35:22Z</time>
   </trkpt>
   <trkpt lat="53.5262440" lon="-113.4923880">
    <ele>638.2</ele>
    <time>2026-08-23T16:35:23Z</time>
   </trkpt>
   <trkpt lat="53.5262630" lon="-113.4923530">
    <ele>638.2</ele>
    <time>2026-08-23T16:35:24Z</time>
   </trkpt>
   <trkpt lat="53.5262880" lon="-113.4922910">
    <ele>638.3</ele>
    <time>2026-08-23T16:35:25Z</time>
   </trkpt>
   <trkpt lat="53.5262990" lon="-113.4922550">
    <ele>638.3</ele>
    <time>2026-08-23T16:35:26Z</time>
   </trkpt>
   <trkpt lat="53.5262980" lon="-113.4922140">
    <ele>638.4</ele>
    <time>2026-08-23T16:35:27Z</time>
   </trkpt>
   <trkpt lat="53.5263030" lon="-113.4921790">
    <ele>638.4</ele>
    <time>2026-08-23T16:35:28Z</time>
   </trkpt>
   <trkpt lat="53.5263020" lon="-113.4921380">
    <ele>638.5</ele>
    <time>2026-08-23T16:35:29Z</time>
   </trkpt>
   <trkpt lat="53.5262980" lon="-113.4921050">
    <ele>638.5</ele>
    <time>2026-08-23T16:35:30Z</time>
   </trkpt>
   <trkpt lat="53.5262990" lon="-113.4920710">
    <ele>638.5</ele>
    <time>2026-08-23T16:35:31Z</time>
   </trkpt>
   <trkpt lat="53.5263000" lon="-113.4920460">
    <ele>638.5</ele>
    <time>2026-08-23T16:35:32Z</time>
   </trkpt>
   <trkpt lat="53.5263060" lon="-113.4920200">
    <ele>638.5</ele>
    <time>2026-08-23T16:35:33Z</time>
   </trkpt>
   <trkpt lat="53.5263110" lon="-113.4920060">
    <ele>638.5</ele>
    <time>2026-08-23T16:35:34Z</time>
   </trkpt>
   <trkpt lat="53.5263180" lon="-113.4919890">
    <ele>638.4</ele>
    <time>2026-08-23T16:35:35Z</time>
   </trkpt>
   <trkpt lat="53.5263240" lon="-113.4919620">
    <ele>638.4</ele>
    <time>2026-08-23T16:35:36Z</time>
   </trkpt>
   <trkpt lat="53.5263290" lon="-113.4919480">
    <ele>638.4</ele>
    <time>2026-08-23T16:35:37Z</time>
   </trkpt>
   <trkpt lat="53.5263370" lon="-113.4919330">
    <ele>638.5</ele>
    <time>2026-08-23T16:35:38Z</time>
   </trkpt>
   <trkpt lat="53.5263440" lon="-113.4919200">
    <ele>638.5</ele>
    <time>2026-08-23T16:35:39Z</time>
   </trkpt>
   <trkpt lat="53.5263440" lon="-113.4919190">
    <ele>638.5</ele>
    <time>2026-08-23T16:35:40Z</time>
   </trkpt>
   <trkpt lat="53.5263380" lon="-113.4919270">
    <ele>638.6</ele>
    <time>2026-08-23T16:35:41Z</time>
   </trkpt>
   <trkpt lat="53.5263380" lon="-113.4919270">
    <ele>638.6</ele>
    <time>2026-08-23T16:35:42Z</time>
   </trkpt>
   <trkpt lat="53.5263380" lon="-113.4919270">
    <ele>638.6</ele>
    <time>2026-08-23T16:35:43Z</time>
   </trkpt>
   <trkpt lat="53.5263380" lon="-113.4919270">
    <ele>638.6</ele>
    <time>2026-08-23T16:35:44Z</time>
   </trkpt>
   <trkpt lat="53.5263380" lon="-113.4919270">
    <ele>638.6</ele>
    <time>2026-08-23T16:35:45Z</time>
   </trkpt>
   <trkpt lat="53.5263380" lon="-113.4919270">
    <ele>638.6</ele>
    <time>2026-08-23T16:35:46Z</time>
   </trkpt>
   <trkpt lat="53.5263350" lon="-113.4919410">
    <ele>638.6</ele>
    <time>2026-08-23T16:35:47Z</time>
   </trkpt>
   <trkpt lat="53.5263380" lon="-113.4919400">
    <ele>638.6</ele>
    <time>2026-08-23T16:35:48Z</time>
   </trkpt>
   <trkpt lat="53.5263380" lon="-113.4919500">
    <ele>638.6</ele>
    <time>2026-08-23T16:35:49Z</time>
   </trkpt>
   <trkpt lat="53.5263410" lon="-113.4919410">
    <ele>638.7</ele>
    <time>2026-08-23T16:35:50Z</time>
   </trkpt>
   <trkpt lat="53.5263310" lon="-113.4919240">
    <ele>638.7</ele>
    <time>2026-08-23T16:35:51Z</time>
   </trkpt>
   <trkpt lat="53.5263200" lon="-113.4919090">
    <ele>638.8</ele>
    <time>2026-08-23T16:35:52Z</time>
   </trkpt>
   <trkpt lat="53.5263030" lon="-113.4919010">
    <ele>638.9</ele>
    <time>2026-08-23T16:35:53Z</time>
   </trkpt>
   <trkpt lat="53.5262890" lon="-113.4919210">
    <ele>638.9</ele>
    <time>2026-08-23T16:35:54Z</time>
   </trkpt>
   <trkpt lat="53.5262770" lon="-113.4918960">
    <ele>639.0</ele>
    <time>2026-08-23T16:35:55Z</time>
   </trkpt>
   <trkpt lat="53.5262750" lon="-113.4918780">
    <ele>639.1</ele>
    <time>2026-08-23T16:35:56Z</time>
   </trkpt>
   <trkpt lat="53.5262730" lon="-113.4918740">
    <ele>639.1</ele>
    <time>2026-08-23T16:35:57Z</time>
   </trkpt>
   <trkpt lat="53.5262750" lon="-113.4918600">
    <ele>639.1</ele>
    <time>2026-08-23T16:35:58Z</time>
   </trkpt>
   <trkpt lat="53.5262730" lon="-113.4918570">
    <ele>639.1</ele>
    <time>2026-08-23T16:35:59Z</time>
   </trkpt>
   <trkpt lat="53.5262740" lon="-113.4918590">
    <ele>639.1</ele>
    <time>2026-08-23T16:36:00Z</time>
   </trkpt>
   <trkpt lat="53.5262770" lon="-113.4918550">
    <ele>639.1</ele>
    <time>2026-08-23T16:36:01Z</time>
   </trkpt>
   <trkpt lat="53.5262780" lon="-113.4918530">
    <ele>639.2</ele>
    <time>2026-08-23T16:36:02Z</time>
   </trkpt>
   <trkpt lat="53.5262770" lon="-113.4918560">
    <ele>639.2</ele>
    <time>2026-08-23T16:36:03Z</time>
   </trkpt>
   <trkpt lat="53.5262770" lon="-113.4918540">
    <ele>639.2</ele>
    <time>2026-08-23T16:36:04Z</time>
   </trkpt>
   <trkpt lat="53.5262780" lon="-113.4918540">
    <ele>639.2</ele>
    <time>2026-08-23T16:36:05Z</time>
   </trkpt>
   <trkpt lat="53.5262780" lon="-113.4918540">
    <ele>639.2</ele>
    <time>2026-08-23T16:36:06Z</time>
   </trkpt>
   <trkpt lat="53.5262760" lon="-113.4918520">
    <ele>639.2</ele>
    <time>2026-08-23T16:36:07Z</time>
   </trkpt>
   <trkpt lat="53.5262760" lon="-113.4918570">
    <ele>639.2</ele>
    <time>2026-08-23T16:36:08Z</time>
   </trkpt>
   <trkpt lat="53.5262770" lon="-113.4918540">
    <ele>639.2</ele>
    <time>2026-08-23T16:36:09Z</time>
   </trkpt>
   <trkpt lat="53.5262790" lon="-113.4918300">
    <ele>639.3</ele>
    <time>2026-08-23T16:36:10Z</time>
   </trkpt>
   <trkpt lat="53.5262720" lon="-113.4918200">
    <ele>639.3</ele>
    <time>2026-08-23T16:36:11Z</time>
   </trkpt>
   <trkpt lat="53.5262770" lon="-113.4918040">
    <ele>639.4</ele>
    <time>2026-08-23T16:36:12Z</time>
   </trkpt>
   <trkpt lat="53.5262790" lon="-113.4917830">
    <ele>639.4</ele>
    <time>2026-08-23T16:36:13Z</time>
   </trkpt>
   <trkpt lat="53.5262860" lon="-113.4917560">
    <ele>639.5</ele>
    <time>2026-08-23T16:36:14Z</time>
   </trkpt>
   <trkpt lat="53.5262880" lon="-113.4917260">
    <ele>639.6</ele>
    <time>2026-08-23T16:36:15Z</time>
   </trkpt>
   <trkpt lat="53.5262800" lon="-113.4917020">
    <ele>639.7</ele>
    <time>2026-08-23T16:36:16Z</time>
   </trkpt>
   <trkpt lat="53.5262760" lon="-113.4916720">
    <ele>639.8</ele>
    <time>2026-08-23T16:36:17Z</time>
   </trkpt>
   <trkpt lat="53.5262750" lon="-113.4916550">
    <ele>639.8</ele>
    <time>2026-08-23T16:36:18Z</time>
   </trkpt>
   <trkpt lat="53.5262750" lon="-113.4916480">
    <ele>639.9</ele>
    <time>2026-08-23T16:36:19Z</time>
   </trkpt>
   <trkpt lat="53.5262740" lon="-113.4916470">
    <ele>639.9</ele>
    <time>2026-08-23T16:36:20Z</time>
   </trkpt>
   <trkpt lat="53.5262730" lon="-113.4916590">
    <ele>639.9</ele>
    <time>2026-08-23T16:36:21Z</time>
   </trkpt>
   <trkpt lat="53.5262730" lon="-113.4916610">
    <ele>639.9</ele>
    <time>2026-08-23T16:36:22Z</time>
   </trkpt>
   <trkpt lat="53.5262700" lon="-113.4916600">
    <ele>639.9</ele>
    <time>2026-08-23T16:36:23Z</time>
   </trkpt>
   <trkpt lat="53.5262700" lon="-113.4916510">
    <ele>640.0</ele>
    <time>2026-08-23T16:36:24Z</time>
   </trkpt>
   <trkpt lat="53.5262660" lon="-113.4916290">
    <ele>640.0</ele>
    <time>2026-08-23T16:36:25Z</time>
   </trkpt>
   <trkpt lat="53.5262590" lon="-113.4915940">
    <ele>640.2</ele>
    <time>2026-08-23T16:36:26Z</time>
   </trkpt>
   <trkpt lat="53.5262620" lon="-113.4915530">
    <ele>640.3</ele>
    <time>2026-08-23T16:36:27Z</time>
   </trkpt>
   <trkpt lat="53.5262630" lon="-113.4915180">
    <ele>640.4</ele>
    <time>2026-08-23T16:36:28Z</time>
   </trkpt>
   <trkpt lat="53.5262690" lon="-113.4914710">
    <ele>640.6</ele>
    <time>2026-08-23T16:36:29Z</time>
   </trkpt>
   <trkpt lat="53.5262670" lon="-113.4914400">
    <ele>640.7</ele>
    <time>2026-08-23T16:36:30Z</time>
   </trkpt>
   <trkpt lat="53.5262690" lon="-113.4914060">
    <ele>640.8</ele>
    <time>2026-08-23T16:36:31Z</time>
   </trkpt>
   <trkpt lat="53.5262670" lon="-113.4913720">
    <ele>640.9</ele>
    <time>2026-08-23T16:36:32Z</time>
   </trkpt>
   <trkpt lat="53.5262650" lon="-113.4913540">
    <ele>640.9</ele>
    <time>2026-08-23T16:36:33Z</time>
   </trkpt>
   <trkpt lat="53.5262820" lon="-113.4913330">
    <ele>641.1</ele>
    <time>2026-08-23T16:36:34Z</time>
   </trkpt>
   <trkpt lat="53.5262830" lon="-113.4912900">
    <ele>641.2</ele>
    <time>2026-08-23T16:36:35Z</time>
   </trkpt>
   <trkpt lat="53.5262810" lon="-113.4912550">
    <ele>641.3</ele>
    <time>2026-08-23T16:36:36Z</time>
   </trkpt>
   <trkpt lat="53.5262800" lon="-113.4912180">
    <ele>641.4</ele>
    <time>2026-08-23T16:36:37Z</time>
   </trkpt>
   <trkpt lat="53.5262790" lon="-113.4911920">
    <ele>641.5</ele>
    <time>2026-08-23T16:36:38Z</time>
   </trkpt>
   <trkpt lat="53.5262760" lon="-113.4911710">
    <ele>641.6</ele>
    <time>2026-08-23T16:36:39Z</time>
   </trkpt>
   <trkpt lat="53.5262630" lon="-113.4911470">
    <ele>641.7</ele>
    <time>2026-08-23T16:36:40Z</time>
   </trkpt>
   <trkpt lat="53.5262580" lon="-113.4911340">
    <ele>641.8</ele>
    <time>2026-08-23T16:36:41Z</time>
   </trkpt>
   <trkpt lat="53.5262600" lon="-113.4911080">
    <ele>641.9</ele>
    <time>2026-08-23T16:36:42Z</time>
   </trkpt>
   <trkpt lat="53.5262610" lon="-113.4910730">
    <ele>642.0</ele>
    <time>2026-08-23T16:36:43Z</time>
   </trkpt>
   <trkpt lat="53.5262550" lon="-113.4910490">
    <ele>642.1</ele>
    <time>2026-08-23T16:36:44Z</time>
   </trkpt>
   <trkpt lat="53.5262490" lon="-113.4910170">
    <ele>642.2</ele>
    <time>2026-08-23T16:36:45Z</time>
   </trkpt>
   <trkpt lat="53.5262400" lon="-113.4909900">
    <ele>642.3</ele>
    <time>2026-08-23T16:36:46Z</time>
   </trkpt>
   <trkpt lat="53.5262360" lon="-113.4909620">
    <ele>642.3</ele>
    <time>2026-08-23T16:36:47Z</time>
   </trkpt>
   <trkpt lat="53.5262340" lon="-113.4909350">
    <ele>642.3</ele>
    <time>2026-08-23T16:36:48Z</time>
   </trkpt>
   <trkpt lat="53.5262310" lon="-113.4909050">
    <ele>642.2</ele>
    <time>2026-08-23T16:36:49Z</time>
   </trkpt>
   <trkpt lat="53.5262330" lon="-113.4908720">
    <ele>642.3</ele>
    <time>2026-08-23T16:36:50Z</time>
   </trkpt>
   <trkpt lat="53.5262300" lon="-113.4908430">
    <ele>642.5</ele>
    <time>2026-08-23T16:36:51Z</time>
   </trkpt>
   <trkpt lat="53.5262310" lon="-113.4908150">
    <ele>642.6</ele>
    <time>2026-08-23T16:36:52Z</time>
   </trkpt>
   <trkpt lat="53.5262310" lon="-113.4907900">
    <ele>642.8</ele>
    <time>2026-08-23T16:36:54Z</time>
   </trkpt>
   <trkpt lat="53.5262370" lon="-113.4907630">
    <ele>642.9</ele>
    <time>2026-08-23T16:36:55Z</time>
   </trkpt>
   <trkpt lat="53.5262370" lon="-113.4907410">
    <ele>643.0</ele>
    <time>2026-08-23T16:36:56Z</time>
   </trkpt>
   <trkpt lat="53.5262400" lon="-113.4907160">
    <ele>643.2</ele>
    <time>2026-08-23T16:36:57Z</time>
   </trkpt>
   <trkpt lat="53.5262390" lon="-113.4906930">
    <ele>643.3</ele>
    <time>2026-08-23T16:36:58Z</time>
   </trkpt>
   <trkpt lat="53.5262440" lon="-113.4906700">
    <ele>643.5</ele>
    <time>2026-08-23T16:36:59Z</time>
   </trkpt>
   <trkpt lat="53.5262440" lon="-113.4906440">
    <ele>643.6</ele>
    <time>2026-08-23T16:37:00Z</time>
   </trkpt>
   <trkpt lat="53.5262410" lon="-113.4906210">
    <ele>643.8</ele>
    <time>2026-08-23T16:37:01Z</time>
   </trkpt>
   <trkpt lat="53.5262400" lon="-113.4905960">
    <ele>643.9</ele>
    <time>2026-08-23T16:37:02Z</time>
   </trkpt>
   <trkpt lat="53.5262350" lon="-113.4905730">
    <ele>644.1</ele>
    <time>2026-08-23T16:37:03Z</time>
   </trkpt>
   <trkpt lat="53.5262290" lon="-113.4905510">
    <ele>644.3</ele>
    <time>2026-08-23T16:37:04Z</time>
   </trkpt>
   <trkpt lat="53.5262270" lon="-113.4905280">
    <ele>644.5</ele>
    <time>2026-08-23T16:37:05Z</time>
   </trkpt>
   <trkpt lat="53.5262230" lon="-113.4905070">
    <ele>644.6</ele>
    <time>2026-08-23T16:37:06Z</time>
   </trkpt>
   <trkpt lat="53.5262170" lon="-113.4904840">
    <ele>644.8</ele>
    <time>2026-08-23T16:37:07Z</time>
   </trkpt>
   <trkpt lat="53.5262140" lon="-113.4904600">
    <ele>645.0</ele>
    <time>2026-08-23T16:37:08Z</time>
   </trkpt>
   <trkpt lat="53.5262090" lon="-113.4904420">
    <ele>645.2</ele>
    <time>2026-08-23T16:37:09Z</time>
   </trkpt>
   <trkpt lat="53.5262010" lon="-113.4904230">
    <ele>645.4</ele>
    <time>2026-08-23T16:37:10Z</time>
   </trkpt>
   <trkpt lat="53.5262000" lon="-113.4903980">
    <ele>645.6</ele>
    <time>2026-08-23T16:37:11Z</time>
   </trkpt>
   <trkpt lat="53.5261970" lon="-113.4903760">
    <ele>645.8</ele>
    <time>2026-08-23T16:37:12Z</time>
   </trkpt>
   <trkpt lat="53.5262040" lon="-113.4903520">
    <ele>646.0</ele>
    <time>2026-08-23T16:37:13Z</time>
   </trkpt>
   <trkpt lat="53.5262150" lon="-113.4903280">
    <ele>646.2</ele>
    <time>2026-08-23T16:37:14Z</time>
   </trkpt>
   <trkpt lat="53.5262340" lon="-113.4903120">
    <ele>646.6</ele>
    <time>2026-08-23T16:37:15Z</time>
   </trkpt>
   <trkpt lat="53.5262460" lon="-113.4902940">
    <ele>646.8</ele>
    <time>2026-08-23T16:37:16Z</time>
   </trkpt>
   <trkpt lat="53.5262570" lon="-113.4902800">
    <ele>647.0</ele>
    <time>2026-08-23T16:37:17Z</time>
   </trkpt>
   <trkpt lat="53.5262530" lon="-113.4902470">
    <ele>647.3</ele>
    <time>2026-08-23T16:37:18Z</time>
   </trkpt>
   <trkpt lat="53.5262460" lon="-113.4902250">
    <ele>647.5</ele>
    <time>2026-08-23T16:37:19Z</time>
   </trkpt>
   <trkpt lat="53.5262380" lon="-113.4901870">
    <ele>647.9</ele>
    <time>2026-08-23T16:37:20Z</time>
   </trkpt>
   <trkpt lat="53.5262300" lon="-113.4901700">
    <ele>648.1</ele>
    <time>2026-08-23T16:37:21Z</time>
   </trkpt>
   <trkpt lat="53.5262310" lon="-113.4901500">
    <ele>648.2</ele>
    <time>2026-08-23T16:37:22Z</time>
   </trkpt>
   <trkpt lat="53.5262330" lon="-113.4901310">
    <ele>648.4</ele>
    <time>2026-08-23T16:37:23Z</time>
   </trkpt>
   <trkpt lat="53.5262280" lon="-113.4901130">
    <ele>648.6</ele>
    <time>2026-08-23T16:37:24Z</time>
   </trkpt>
   <trkpt lat="53.5262320" lon="-113.4900900">
    <ele>648.8</ele>
    <time>2026-08-23T16:37:25Z</time>
   </trkpt>
   <trkpt lat="53.5262290" lon="-113.4900700">
    <ele>649.0</ele>
    <time>2026-08-23T16:37:26Z</time>
   </trkpt>
   <trkpt lat="53.5262350" lon="-113.4900470">
    <ele>649.2</ele>
    <time>2026-08-23T16:37:27Z</time>
   </trkpt>
   <trkpt lat="53.5262370" lon="-113.4900270">
    <ele>649.4</ele>
    <time>2026-08-23T16:37:28Z</time>
   </trkpt>
   <trkpt lat="53.5262410" lon="-113.4900060">
    <ele>649.6</ele>
    <time>2026-08-23T16:37:29Z</time>
   </trkpt>
   <trkpt lat="53.5262430" lon="-113.4899830">
    <ele>649.8</ele>
    <time>2026-08-23T16:37:30Z</time>
   </trkpt>
   <trkpt lat="53.5262390" lon="-113.4899610">
    <ele>650.0</ele>
    <time>2026-08-23T16:37:31Z</time>
   </trkpt>
   <trkpt lat="53.5262400" lon="-113.4899440">
    <ele>650.2</ele>
    <time>2026-08-23T16:37:32Z</time>
   </trkpt>
   <trkpt lat="53.5262360" lon="-113.4899240">
    <ele>650.4</ele>
    <time>2026-08-23T16:37:33Z</time>
   </trkpt>
   <trkpt lat="53.5262390" lon="-113.4899040">
    <ele>650.5</ele>
    <time>2026-08-23T16:37:34Z</time>
   </trkpt>
   <trkpt lat="53.5262400" lon="-113.4898840">
    <ele>650.7</ele>
    <time>2026-08-23T16:37:35Z</time>
   </trkpt>
   <trkpt lat="53.5262420" lon="-113.4898630">
    <ele>650.9</ele>
    <time>2026-08-23T16:37:36Z</time>
   </trkpt>
   <trkpt lat="53.5262410" lon="-113.4898430">
    <ele>651.1</ele>
    <time>2026-08-23T16:37:37Z</time>
   </trkpt>
   <trkpt lat="53.5262380" lon="-113.4898220">
    <ele>651.3</ele>
    <time>2026-08-23T16:37:38Z</time>
   </trkpt>
   <trkpt lat="53.5262410" lon="-113.4898020">
    <ele>651.5</ele>
    <time>2026-08-23T16:37:39Z</time>
   </trkpt>
   <trkpt lat="53.5262430" lon="-113.4897850">
    <ele>651.6</ele>
    <time>2026-08-23T16:37:40Z</time>
   </trkpt>
   <trkpt lat="53.5262440" lon="-113.4897640">
    <ele>651.8</ele>
    <time>2026-08-23T16:37:41Z</time>
   </trkpt>
   <trkpt lat="53.5262360" lon="-113.4897530">
    <ele>652.0</ele>
    <time>2026-08-23T16:37:42Z</time>
   </trkpt>
   <trkpt lat="53.5262300" lon="-113.4897410">
    <ele>652.1</ele>
    <time>2026-08-23T16:37:43Z</time>
   </trkpt>
   <trkpt lat="53.5262260" lon="-113.4897300">
    <ele>652.3</ele>
    <time>2026-08-23T16:37:44Z</time>
   </trkpt>
   <trkpt lat="53.5262210" lon="-113.4897190">
    <ele>652.4</ele>
    <time>2026-08-23T16:37:45Z</time>
   </trkpt>
   <trkpt lat="53.5262140" lon="-113.4897130">
    <ele>652.5</ele>
    <time>2026-08-23T16:37:46Z</time>
   </trkpt>
   <trkpt lat="53.5262120" lon="-113.4896990">
    <ele>652.7</ele>
    <time>2026-08-23T16:37:47Z</time>
   </trkpt>
   <trkpt lat="53.5262090" lon="-113.4896780">
    <ele>652.9</ele>
    <time>2026-08-23T16:37:48Z</time>
   </trkpt>
   <trkpt lat="53.5262080" lon="-113.4896690">
    <ele>652.9</ele>
    <time>2026-08-23T16:37:49Z</time>
   </trkpt>
   <trkpt lat="53.5262030" lon="-113.4896560">
    <ele>653.1</ele>
    <time>2026-08-23T16:37:50Z</time>
   </trkpt>
   <trkpt lat="53.5262040" lon="-113.4896460">
    <ele>653.2</ele>
    <time>2026-08-23T16:37:51Z</time>
   </trkpt>
   <trkpt lat="53.5262050" lon="-113.4896250">
    <ele>653.4</ele>
    <time>2026-08-23T16:37:52Z</time>
   </trkpt>
   <trkpt lat="53.5262070" lon="-113.4896030">
    <ele>653.6</ele>
    <time>2026-08-23T16:37:53Z</time>
   </trkpt>
   <trkpt lat="53.5262040" lon="-113.4895920">
    <ele>653.7</ele>
    <time>2026-08-23T16:37:54Z</time>
   </trkpt>
   <trkpt lat="53.5262030" lon="-113.4895860">
    <ele>653.7</ele>
    <time>2026-08-23T16:37:55Z</time>
   </trkpt>
   <trkpt lat="53.5262020" lon="-113.4895720">
    <ele>653.9</ele>
    <time>2026-08-23T16:37:56Z</time>
   </trkpt>
   <trkpt lat="53.5262030" lon="-113.4895640">
    <ele>653.9</ele>
    <time>2026-08-23T16:37:57Z</time>
   </trkpt>
   <trkpt lat="53.5262010" lon="-113.4895430">
    <ele>654.1</ele>
    <time>2026-08-23T16:37:58Z</time>
   </trkpt>
   <trkpt lat="53.5262040" lon="-113.4895460">
    <ele>654.2</ele>
    <time>2026-08-23T16:37:59Z</time>
   </trkpt>
   <trkpt lat="53.5262050" lon="-113.4895460">
    <ele>654.2</ele>
    <time>2026-08-23T16:38:00Z</time>
   </trkpt>
   <trkpt lat="53.5262050" lon="-113.4895380">
    <ele>654.3</ele>
    <time>2026-08-23T16:38:01Z</time>
   </trkpt>
   <trkpt lat="53.5262100" lon="-113.4895250">
    <ele>654.4</ele>
    <time>2026-08-23T16:38:02Z</time>
   </trkpt>
   <trkpt lat="53.5262220" lon="-113.4895070">
    <ele>654.7</ele>
    <time>2026-08-23T16:38:03Z</time>
   </trkpt>
   <trkpt lat="53.5262260" lon="-113.4895000">
    <ele>654.8</ele>
    <time>2026-08-23T16:38:04Z</time>
   </trkpt>
   <trkpt lat="53.5262230" lon="-113.4894880">
    <ele>654.9</ele>
    <time>2026-08-23T16:38:05Z</time>
   </trkpt>
   <trkpt lat="53.5262180" lon="-113.4894930">
    <ele>655.0</ele>
    <time>2026-08-23T16:38:06Z</time>
   </trkpt>
   <trkpt lat="53.5262140" lon="-113.4894890">
    <ele>655.0</ele>
    <time>2026-08-23T16:38:07Z</time>
   </trkpt>
   <trkpt lat="53.5262160" lon="-113.4894730">
    <ele>655.2</ele>
    <time>2026-08-23T16:38:08Z</time>
   </trkpt>
   <trkpt lat="53.5262150" lon="-113.4894510">
    <ele>655.4</ele>
    <time>2026-08-23T16:38:09Z</time>
   </trkpt>
   <trkpt lat="53.5262190" lon="-113.4894360">
    <ele>655.5</ele>
    <time>2026-08-23T16:38:10Z</time>
   </trkpt>
   <trkpt lat="53.5262250" lon="-113.4894230">
    <ele>655.7</ele>
    <time>2026-08-23T16:38:11Z</time>
   </trkpt>
   <trkpt lat="53.5262260" lon="-113.4894060">
    <ele>655.8</ele>
    <time>2026-08-23T16:38:12Z</time>
   </trkpt>
   <trkpt lat="53.5262360" lon="-113.4893920">
    <ele>656.0</ele>
    <time>2026-08-23T16:38:13Z</time>
   </trkpt>
   <trkpt lat="53.5262540" lon="-113.4893810">
    <ele>656.3</ele>
    <time>2026-08-23T16:38:14Z</time>
   </trkpt>
   <trkpt lat="53.5262650" lon="-113.4893590">
    <ele>656.6</ele>
    <time>2026-08-23T16:38:15Z</time>
   </trkpt>
   <trkpt lat="53.5262670" lon="-113.4893400">
    <ele>656.8</ele>
    <time>2026-08-23T16:38:16Z</time>
   </trkpt>
   <trkpt lat="53.5262570" lon="-113.4893460">
    <ele>656.9</ele>
    <time>2026-08-23T16:38:17Z</time>
   </trkpt>
   <trkpt lat="53.5262480" lon="-113.4893420">
    <ele>657.1</ele>
    <time>2026-08-23T16:38:18Z</time>
   </trkpt>
   <trkpt lat="53.5262360" lon="-113.4893190">
    <ele>657.3</ele>
    <time>2026-08-23T16:38:19Z</time>
   </trkpt>
   <trkpt lat="53.5262250" lon="-113.4893160">
    <ele>657.5</ele>
    <time>2026-08-23T16:38:20Z</time>
   </trkpt>
   <trkpt lat="53.5262260" lon="-113.4892960">
    <ele>657.7</ele>
    <time>2026-08-23T16:38:21Z</time>
   </trkpt>
   <trkpt lat="53.5262330" lon="-113.4892820">
    <ele>657.8</ele>
    <time>2026-08-23T16:38:22Z</time>
   </trkpt>
   <trkpt lat="53.5262470" lon="-113.4892580">
    <ele>658.1</ele>
    <time>2026-08-23T16:38:23Z</time>
   </trkpt>
   <trkpt lat="53.5262600" lon="-113.4892480">
    <ele>658.4</ele>
    <time>2026-08-23T16:38:24Z</time>
   </trkpt>
   <trkpt lat="53.5262660" lon="-113.4892350">
    <ele>658.5</ele>
    <time>2026-08-23T16:38:25Z</time>
   </trkpt>
   <trkpt lat="53.5262570" lon="-113.4892210">
    <ele>658.7</ele>
    <time>2026-08-23T16:38:26Z</time>
   </trkpt>
   <trkpt lat="53.5262560" lon="-113.4892200">
    <ele>658.7</ele>
    <time>2026-08-23T16:38:27Z</time>
   </trkpt>
   <trkpt lat="53.5262460" lon="-113.4892120">
    <ele>658.9</ele>
    <time>2026-08-23T16:38:28Z</time>
   </trkpt>
   <trkpt lat="53.5262400" lon="-113.4891840">
    <ele>659.1</ele>
    <time>2026-08-23T16:38:29Z</time>
   </trkpt>
   <trkpt lat="53.5262400" lon="-113.4891800">
    <ele>659.2</ele>
    <time>2026-08-23T16:38:30Z</time>
   </trkpt>
   <trkpt lat="53.5262440" lon="-113.4891600">
    <ele>659.3</ele>
    <time>2026-08-23T16:38:31Z</time>
   </trkpt>
   <trkpt lat="53.5262550" lon="-113.4891510">
    <ele>659.5</ele>
    <time>2026-08-23T16:38:32Z</time>
   </trkpt>
   <trkpt lat="53.5262640" lon="-113.4891350">
    <ele>659.7</ele>
    <time>2026-08-23T16:38:33Z</time>
   </trkpt>
   <trkpt lat="53.5262750" lon="-113.4891230">
    <ele>659.9</ele>
    <time>2026-08-23T16:38:34Z</time>
   </trkpt>
   <trkpt lat="53.5262780" lon="-113.4891090">
    <ele>660.0</ele>
    <time>2026-08-23T16:38:35Z</time>
   </trkpt>
   <trkpt lat="53.5262870" lon="-113.4891010">
    <ele>660.2</ele>
    <time>2026-08-23T16:38:36Z</time>
   </trkpt>
   <trkpt lat="53.5262860" lon="-113.4891010">
    <ele>660.2</ele>
    <time>2026-08-23T16:38:37Z</time>
   </trkpt>
   <trkpt lat="53.5262860" lon="-113.4890920">
    <ele>660.2</ele>
    <time>2026-08-23T16:38:38Z</time>
   </trkpt>
   <trkpt lat="53.5262920" lon="-113.4890720">
    <ele>660.4</ele>
    <time>2026-08-23T16:38:39Z</time>
   </trkpt>
   <trkpt lat="53.5262830" lon="-113.4890630">
    <ele>660.6</ele>
    <time>2026-08-23T16:38:40Z</time>
   </trkpt>
   <trkpt lat="53.5262780" lon="-113.4890520">
    <ele>660.7</ele>
    <time>2026-08-23T16:38:41Z</time>
   </trkpt>
   <trkpt lat="53.5262800" lon="-113.4890340">
    <ele>660.8</ele>
    <time>2026-08-23T16:38:42Z</time>
   </trkpt>
   <trkpt lat="53.5262840" lon="-113.4890190">
    <ele>661.0</ele>
    <time>2026-08-23T16:38:43Z</time>
   </trkpt>
   <trkpt lat="53.5262860" lon="-113.4890100">
    <ele>661.1</ele>
    <time>2026-08-23T16:38:44Z</time>
   </trkpt>
   <trkpt lat="53.5262900" lon="-113.4889920">
    <ele>661.2</ele>
    <time>2026-08-23T16:38:45Z</time>
   </trkpt>
   <trkpt lat="53.5263000" lon="-113.4889730">
    <ele>661.4</ele>
    <time>2026-08-23T16:38:46Z</time>
   </trkpt>
   <trkpt lat="53.5263050" lon="-113.4889580">
    <ele>661.6</ele>
    <time>2026-08-23T16:38:47Z</time>
   </trkpt>
   <trkpt lat="53.5263050" lon="-113.4889370">
    <ele>661.7</ele>
    <time>2026-08-23T16:38:48Z</time>
   </trkpt>
   <trkpt lat="53.5263060" lon="-113.4889180">
    <ele>661.9</ele>
    <time>2026-08-23T16:38:49Z</time>
   </trkpt>
   <trkpt lat="53.5263080" lon="-113.4889090">
    <ele>661.9</ele>
    <time>2026-08-23T16:38:50Z</time>
   </trkpt>
   <trkpt lat="53.5263140" lon="-113.4888860">
    <ele>662.1</ele>
    <time>2026-08-23T16:38:51Z</time>
   </trkpt>
   <trkpt lat="53.5263190" lon="-113.4888660">
    <ele>662.3</ele>
    <time>2026-08-23T16:38:52Z</time>
   </trkpt>
   <trkpt lat="53.5263230" lon="-113.4888460">
    <ele>662.4</ele>
    <time>2026-08-23T16:38:53Z</time>
   </trkpt>
   <trkpt lat="53.5263190" lon="-113.4888610">
    <ele>662.6</ele>
    <time>2026-08-23T16:38:54Z</time>
   </trkpt>
   <trkpt lat="53.5263190" lon="-113.4888620">
    <ele>662.6</ele>
    <time>2026-08-23T16:38:55Z</time>
   </trkpt>
   <trkpt lat="53.5263220" lon="-113.4888570">
    <ele>662.6</ele>
    <time>2026-08-23T16:38:56Z</time>
   </trkpt>
   <trkpt lat="53.5263240" lon="-113.4888460">
    <ele>662.7</ele>
    <time>2026-08-23T16:38:57Z</time>
   </trkpt>
   <trkpt lat="53.5263300" lon="-113.4888340">
    <ele>662.8</ele>
    <time>2026-08-23T16:38:58Z</time>
   </trkpt>
   <trkpt lat="53.5263480" lon="-113.4888450">
    <ele>663.0</ele>
    <time>2026-08-23T16:39:00Z</time>
   </trkpt>
   <trkpt lat="53.5263460" lon="-113.4888190">
    <ele>663.2</ele>
    <time>2026-08-23T16:39:01Z</time>
   </trkpt>
   <trkpt lat="53.5263460" lon="-113.4888050">
    <ele>663.3</ele>
    <time>2026-08-23T16:39:02Z</time>
   </trkpt>
   <trkpt lat="53.5263410" lon="-113.4887910">
    <ele>663.4</ele>
    <time>2026-08-23T16:39:03Z</time>
   </trkpt>
   <trkpt lat="53.5263410" lon="-113.4887700">
    <ele>663.5</ele>
    <time>2026-08-23T16:39:04Z</time>
   </trkpt>
   <trkpt lat="53.5263360" lon="-113.4887630">
    <ele>663.6</ele>
    <time>2026-08-23T16:39:05Z</time>
   </trkpt>
   <trkpt lat="53.5263420" lon="-113.4887530">
    <ele>663.7</ele>
    <time>2026-08-23T16:39:06Z</time>
   </trkpt>
   <trkpt lat="53.5263410" lon="-113.4887320">
    <ele>663.8</ele>
    <time>2026-08-23T16:39:07Z</time>
   </trkpt>
   <trkpt lat="53.5263400" lon="-113.4887110">
    <ele>663.9</ele>
    <time>2026-08-23T16:39:08Z</time>
   </trkpt>
   <trkpt lat="53.5263420" lon="-113.4887010">
    <ele>664.0</ele>
    <time>2026-08-23T16:39:09Z</time>
   </trkpt>
   <trkpt lat="53.5263470" lon="-113.4886670">
    <ele>664.2</ele>
    <time>2026-08-23T16:39:10Z</time>
   </trkpt>
   <trkpt lat="53.5263490" lon="-113.4886450">
    <ele>664.3</ele>
    <time>2026-08-23T16:39:11Z</time>
   </trkpt>
   <trkpt lat="53.5263520" lon="-113.4886290">
    <ele>664.3</ele>
    <time>2026-08-23T16:39:12Z</time>
   </trkpt>
   <trkpt lat="53.5263580" lon="-113.4886080">
    <ele>664.3</ele>
    <time>2026-08-23T16:39:13Z</time>
   </trkpt>
   <trkpt lat="53.5263650" lon="-113.4885840">
    <ele>664.3</ele>
    <time>2026-08-23T16:39:14Z</time>
   </trkpt>
   <trkpt lat="53.5263740" lon="-113.4885580">
    <ele>664.3</ele>
    <time>2026-08-23T16:39:15Z</time>
   </trkpt>
   <trkpt lat="53.5263840" lon="-113.4885360">
    <ele>664.3</ele>
    <time>2026-08-23T16:39:16Z</time>
   </trkpt>
   <trkpt lat="53.5263920" lon="-113.4885180">
    <ele>664.3</ele>
    <time>2026-08-23T16:39:17Z</time>
   </trkpt>
   <trkpt lat="53.5264000" lon="-113.4885050">
    <ele>664.3</ele>
    <time>2026-08-23T16:39:18Z</time>
   </trkpt>
   <trkpt lat="53.5264160" lon="-113.4884910">
    <ele>664.3</ele>
    <time>2026-08-23T16:39:19Z</time>
   </trkpt>
   <trkpt lat="53.5264230" lon="-113.4884770">
    <ele>664.3</ele>
    <time>2026-08-23T16:39:20Z</time>
   </trkpt>
   <trkpt lat="53.5264440" lon="-113.4884310">
    <ele>664.3</ele>
    <time>2026-08-23T16:39:21Z</time>
   </trkpt>
   <trkpt lat="53.5264590" lon="-113.4884200">
    <ele>664.3</ele>
    <time>2026-08-23T16:39:22Z</time>
   </trkpt>
   <trkpt lat="53.5264770" lon="-113.4883780">
    <ele>664.3</ele>
    <time>2026-08-23T16:39:23Z</time>
   </trkpt>
   <trkpt lat="53.5264860" lon="-113.4883330">
    <ele>664.2</ele>
    <time>2026-08-23T16:39:24Z</time>
   </trkpt>
   <trkpt lat="53.5264970" lon="-113.4882960">
    <ele>664.2</ele>
    <time>2026-08-23T16:39:25Z</time>
   </trkpt>
   <trkpt lat="53.5265130" lon="-113.4882690">
    <ele>664.2</ele>
    <time>2026-08-23T16:39:26Z</time>
   </trkpt>
   <trkpt lat="53.5265160" lon="-113.4882330">
    <ele>664.2</ele>
    <time>2026-08-23T16:39:27Z</time>
   </trkpt>
   <trkpt lat="53.5265250" lon="-113.4881970">
    <ele>664.2</ele>
    <time>2026-08-23T16:39:28Z</time>
   </trkpt>
   <trkpt lat="53.5265410" lon="-113.4881610">
    <ele>664.2</ele>
    <time>2026-08-23T16:39:29Z</time>
   </trkpt>
   <trkpt lat="53.5265570" lon="-113.4881310">
    <ele>664.2</ele>
    <time>2026-08-23T16:39:30Z</time>
   </trkpt>
   <trkpt lat="53.5265670" lon="-113.4881210">
    <ele>664.2</ele>
    <time>2026-08-23T16:39:31Z</time>
   </trkpt>
   <trkpt lat="53.5265780" lon="-113.4880970">
    <ele>664.2</ele>
    <time>2026-08-23T16:39:32Z</time>
   </trkpt>
   <trkpt lat="53.5265900" lon="-113.4880770">
    <ele>664.2</ele>
    <time>2026-08-23T16:39:33Z</time>
   </trkpt>
   <trkpt lat="53.5266020" lon="-113.4880470">
    <ele>664.2</ele>
    <time>2026-08-23T16:39:34Z</time>
   </trkpt>
   <trkpt lat="53.5266110" lon="-113.4880290">
    <ele>664.2</ele>
    <time>2026-08-23T16:39:35Z</time>
   </trkpt>
   <trkpt lat="53.5266270" lon="-113.4879930">
    <ele>664.2</ele>
    <time>2026-08-23T16:39:36Z</time>
   </trkpt>
   <trkpt lat="53.5266370" lon="-113.4879750">
    <ele>664.2</ele>
    <time>2026-08-23T16:39:37Z</time>
   </trkpt>
   <trkpt lat="53.5266440" lon="-113.4879490">
    <ele>664.1</ele>
    <time>2026-08-23T16:39:38Z</time>
   </trkpt>
   <trkpt lat="53.5266610" lon="-113.4879180">
    <ele>664.1</ele>
    <time>2026-08-23T16:39:39Z</time>
   </trkpt>
   <trkpt lat="53.5266800" lon="-113.4878830">
    <ele>664.1</ele>
    <time>2026-08-23T16:39:40Z</time>
   </trkpt>
   <trkpt lat="53.5266930" lon="-113.4878470">
    <ele>664.1</ele>
    <time>2026-08-23T16:39:41Z</time>
   </trkpt>
   <trkpt lat="53.5267110" lon="-113.4878200">
    <ele>664.1</ele>
    <time>2026-08-23T16:39:42Z</time>
   </trkpt>
   <trkpt lat="53.5267280" lon="-113.4877900">
    <ele>664.1</ele>
    <time>2026-08-23T16:39:43Z</time>
   </trkpt>
   <trkpt lat="53.5267410" lon="-113.4877590">
    <ele>664.1</ele>
    <time>2026-08-23T16:39:44Z</time>
   </trkpt>
   <trkpt lat="53.5267620" lon="-113.4877310">
    <ele>664.1</ele>
    <time>2026-08-23T16:39:45Z</time>
   </trkpt>
   <trkpt lat="53.5267790" lon="-113.4877010">
    <ele>664.1</ele>
    <time>2026-08-23T16:39:46Z</time>
   </trkpt>
   <trkpt lat="53.5267880" lon="-113.4876630">
    <ele>664.1</ele>
    <time>2026-08-23T16:39:47Z</time>
   </trkpt>
   <trkpt lat="53.5267970" lon="-113.4876240">
    <ele>664.1</ele>
    <time>2026-08-23T16:39:48Z</time>
   </trkpt>
   <trkpt lat="53.5268120" lon="-113.4875970">
    <ele>664.1</ele>
    <time>2026-08-23T16:39:49Z</time>
   </trkpt>
   <trkpt lat="53.5268280" lon="-113.4875690">
    <ele>664.1</ele>
    <time>2026-08-23T16:39:50Z</time>
   </trkpt>
   <trkpt lat="53.5268400" lon="-113.4875300">
    <ele>664.1</ele>
    <time>2026-08-23T16:39:51Z</time>
   </trkpt>
   <trkpt lat="53.5268490" lon="-113.4874800">
    <ele>664.1</ele>
    <time>2026-08-23T16:39:52Z</time>
   </trkpt>
   <trkpt lat="53.5268550" lon="-113.4874390">
    <ele>664.1</ele>
    <time>2026-08-23T16:39:53Z</time>
   </trkpt>
   <trkpt lat="53.5268670" lon="-113.4874030">
    <ele>664.1</ele>
    <time>2026-08-23T16:39:54Z</time>
   </trkpt>
   <trkpt lat="53.5268760" lon="-113.4873590">
    <ele>664.1</ele>
    <time>2026-08-23T16:39:55Z</time>
   </trkpt>
   <trkpt lat="53.5268790" lon="-113.4873050">
    <ele>664.1</ele>
    <time>2026-08-23T16:39:56Z</time>
   </trkpt>
   <trkpt lat="53.5268910" lon="-113.4872670">
    <ele>664.1</ele>
    <time>2026-08-23T16:39:57Z</time>
   </trkpt>
   <trkpt lat="53.5268980" lon="-113.4872260">
    <ele>664.1</ele>
    <time>2026-08-23T16:39:58Z</time>
   </trkpt>
   <trkpt lat="53.5269130" lon="-113.4871910">
    <ele>664.1</ele>
    <time>2026-08-23T16:39:59Z</time>
   </trkpt>
   <trkpt lat="53.5269130" lon="-113.4871380">
    <ele>664.1</ele>
    <time>2026-08-23T16:40:00Z</time>
   </trkpt>
   <trkpt lat="53.5269250" lon="-113.4871000">
    <ele>664.1</ele>
    <time>2026-08-23T16:40:01Z</time>
   </trkpt>
   <trkpt lat="53.5269410" lon="-113.4870610">
    <ele>664.1</ele>
    <time>2026-08-23T16:40:02Z</time>
   </trkpt>
   <trkpt lat="53.5269520" lon="-113.4870230">
    <ele>664.2</ele>
    <time>2026-08-23T16:40:03Z</time>
   </trkpt>
   <trkpt lat="53.5269680" lon="-113.4869960">
    <ele>664.2</ele>
    <time>2026-08-23T16:40:04Z</time>
   </trkpt>
   <trkpt lat="53.5269860" lon="-113.4869880">
    <ele>664.2</ele>
    <time>2026-08-23T16:40:05Z</time>
   </trkpt>
   <trkpt lat="53.5269950" lon="-113.4869650">
    <ele>664.2</ele>
    <time>2026-08-23T16:40:06Z</time>
   </trkpt>
   <trkpt lat="53.5270070" lon="-113.4869440">
    <ele>664.2</ele>
    <time>2026-08-23T16:40:07Z</time>
   </trkpt>
   <trkpt lat="53.5270170" lon="-113.4869200">
    <ele>664.2</ele>
    <time>2026-08-23T16:40:08Z</time>
   </trkpt>
   <trkpt lat="53.5270330" lon="-113.4869030">
    <ele>664.2</ele>
    <time>2026-08-23T16:40:09Z</time>
   </trkpt>
   <trkpt lat="53.5270500" lon="-113.4868860">
    <ele>664.2</ele>
    <time>2026-08-23T16:40:10Z</time>
   </trkpt>
   <trkpt lat="53.5270660" lon="-113.4868690">
    <ele>664.2</ele>
    <time>2026-08-23T16:40:11Z</time>
   </trkpt>
   <trkpt lat="53.5270740" lon="-113.4868420">
    <ele>664.2</ele>
    <time>2026-08-23T16:40:12Z</time>
   </trkpt>
   <trkpt lat="53.5270840" lon="-113.4868140">
    <ele>664.2</ele>
    <time>2026-08-23T16:40:13Z</time>
   </trkpt>
   <trkpt lat="53.5270930" lon="-113.4867860">
    <ele>664.2</ele>
    <time>2026-08-23T16:40:14Z</time>
   </trkpt>
   <trkpt lat="53.5271020" lon="-113.4867560">
    <ele>664.2</ele>
    <time>2026-08-23T16:40:15Z</time>
   </trkpt>
   <trkpt lat="53.5271180" lon="-113.4867310">
    <ele>664.2</ele>
    <time>2026-08-23T16:40:16Z</time>
   </trkpt>
   <trkpt lat="53.5271350" lon="-113.4867110">
    <ele>664.2</ele>
    <time>2026-08-23T16:40:17Z</time>
   </trkpt>
   <trkpt lat="53.5271520" lon="-113.4866860">
    <ele>664.2</ele>
    <time>2026-08-23T16:40:18Z</time>
   </trkpt>
   <trkpt lat="53.5271670" lon="-113.4866640">
    <ele>664.2</ele>
    <time>2026-08-23T16:40:19Z</time>
   </trkpt>
   <trkpt lat="53.5271800" lon="-113.4866340">
    <ele>664.2</ele>
    <time>2026-08-23T16:40:20Z</time>
   </trkpt>
   <trkpt lat="53.5272050" lon="-113.4866000">
    <ele>664.2</ele>
    <time>2026-08-23T16:40:21Z</time>
   </trkpt>
   <trkpt lat="53.5272260" lon="-113.4865690">
    <ele>664.1</ele>
    <time>2026-08-23T16:40:22Z</time>
   </trkpt>
   <trkpt lat="53.5272470" lon="-113.4865430">
    <ele>664.1</ele>
    <time>2026-08-23T16:40:23Z</time>
   </trkpt>
   <trkpt lat="53.5272600" lon="-113.4865090">
    <ele>664.1</ele>
    <time>2026-08-23T16:40:24Z</time>
   </trkpt>
   <trkpt lat="53.5272720" lon="-113.4864860">
    <ele>664.1</ele>
    <time>2026-08-23T16:40:25Z</time>
   </trkpt>
   <trkpt lat="53.5272890" lon="-113.4864570">
    <ele>664.1</ele>
    <time>2026-08-23T16:40:26Z</time>
   </trkpt>
   <trkpt lat="53.5273100" lon="-113.4864230">
    <ele>664.1</ele>
    <time>2026-08-23T16:40:27Z</time>
   </trkpt>
   <trkpt lat="53.5273300" lon="-113.4863990">
    <ele>664.1</ele>
    <time>2026-08-23T16:40:28Z</time>
   </trkpt>
   <trkpt lat="53.5273520" lon="-113.4863720">
    <ele>664.1</ele>
    <time>2026-08-23T16:40:29Z</time>
   </trkpt>
   <trkpt lat="53.5273760" lon="-113.4863510">
    <ele>664.1</ele>
    <time>2026-08-23T16:40:30Z</time>
   </trkpt>
   <trkpt lat="53.5274040" lon="-113.4863250">
    <ele>664.0</ele>
    <time>2026-08-23T16:40:31Z</time>
   </trkpt>
   <trkpt lat="53.5274240" lon="-113.4862910">
    <ele>664.0</ele>
    <time>2026-08-23T16:40:32Z</time>
   </trkpt>
   <trkpt lat="53.5274280" lon="-113.4862770">
    <ele>664.0</ele>
    <time>2026-08-23T16:40:33Z</time>
   </trkpt>
   <trkpt lat="53.5274470" lon="-113.4862340">
    <ele>664.0</ele>
    <time>2026-08-23T16:40:34Z</time>
   </trkpt>
   <trkpt lat="53.5274600" lon="-113.4862190">
    <ele>664.0</ele>
    <time>2026-08-23T16:40:35Z</time>
   </trkpt>
   <trkpt lat="53.5274900" lon="-113.4861810">
    <ele>663.9</ele>
    <time>2026-08-23T16:40:36Z</time>
   </trkpt>
   <trkpt lat="53.5275130" lon="-113.4861550">
    <ele>663.9</ele>
    <time>2026-08-23T16:40:37Z</time>
   </trkpt>
   <trkpt lat="53.5275470" lon="-113.4861490">
    <ele>663.8</ele>
    <time>2026-08-23T16:40:38Z</time>
   </trkpt>
   <trkpt lat="53.5275690" lon="-113.4861340">
    <ele>663.8</ele>
    <time>2026-08-23T16:40:39Z</time>
   </trkpt>
   <trkpt lat="53.5275940" lon="-113.4861180">
    <ele>663.8</ele>
    <time>2026-08-23T16:40:40Z</time>
   </trkpt>
   <trkpt lat="53.5276200" lon="-113.4861080">
    <ele>663.7</ele>
    <time>2026-08-23T16:40:41Z</time>
   </trkpt>
   <trkpt lat="53.5276480" lon="-113.4860890">
    <ele>663.7</ele>
    <time>2026-08-23T16:40:42Z</time>
   </trkpt>
   <trkpt lat="53.5276780" lon="-113.4860700">
    <ele>663.6</ele>
    <time>2026-08-23T16:40:43Z</time>
   </trkpt>
   <trkpt lat="53.5277060" lon="-113.4860490">
    <ele>663.6</ele>
    <time>2026-08-23T16:40:44Z</time>
   </trkpt>
   <trkpt lat="53.5277330" lon="-113.4860390">
    <ele>663.5</ele>
    <time>2026-08-23T16:40:45Z</time>
   </trkpt>
   <trkpt lat="53.5277600" lon="-113.4860130">
    <ele>663.4</ele>
    <time>2026-08-23T16:40:46Z</time>
   </trkpt>
   <trkpt lat="53.5277820" lon="-113.4859930">
    <ele>663.4</ele>
    <time>2026-08-23T16:40:47Z</time>
   </trkpt>
   <trkpt lat="53.5278110" lon="-113.4859720">
    <ele>663.3</ele>
    <time>2026-08-23T16:40:48Z</time>
   </trkpt>
   <trkpt lat="53.5278360" lon="-113.4859630">
    <ele>663.3</ele>
    <time>2026-08-23T16:40:49Z</time>
   </trkpt>
   <trkpt lat="53.5278650" lon="-113.4859310">
    <ele>663.2</ele>
    <time>2026-08-23T16:40:50Z</time>
   </trkpt>
   <trkpt lat="53.5278920" lon="-113.4859050">
    <ele>663.2</ele>
    <time>2026-08-23T16:40:51Z</time>
   </trkpt>
   <trkpt lat="53.5279250" lon="-113.4858860">
    <ele>663.1</ele>
    <time>2026-08-23T16:40:52Z</time>
   </trkpt>
   <trkpt lat="53.5279560" lon="-113.4858620">
    <ele>663.0</ele>
    <time>2026-08-23T16:40:53Z</time>
   </trkpt>
   <trkpt lat="53.5279850" lon="-113.4858380">
    <ele>662.9</ele>
    <time>2026-08-23T16:40:54Z</time>
   </trkpt>
   <trkpt lat="53.5280170" lon="-113.4858100">
    <ele>662.9</ele>
    <time>2026-08-23T16:40:55Z</time>
   </trkpt>
   <trkpt lat="53.5280480" lon="-113.4857830">
    <ele>662.8</ele>
    <time>2026-08-23T16:40:56Z</time>
   </trkpt>
   <trkpt lat="53.5280810" lon="-113.4857640">
    <ele>662.7</ele>
    <time>2026-08-23T16:40:57Z</time>
   </trkpt>
   <trkpt lat="53.5281220" lon="-113.4857450">
    <ele>662.5</ele>
    <time>2026-08-23T16:40:58Z</time>
   </trkpt>
   <trkpt lat="53.5281580" lon="-113.4857250">
    <ele>662.4</ele>
    <time>2026-08-23T16:40:59Z</time>
   </trkpt>
   <trkpt lat="53.5281960" lon="-113.4857020">
    <ele>662.3</ele>
    <time>2026-08-23T16:41:00Z</time>
   </trkpt>
   <trkpt lat="53.5282360" lon="-113.4856820">
    <ele>662.1</ele>
    <time>2026-08-23T16:41:01Z</time>
   </trkpt>
   <trkpt lat="53.5282730" lon="-113.4856530">
    <ele>661.9</ele>
    <time>2026-08-23T16:41:02Z</time>
   </trkpt>
   <trkpt lat="53.5283150" lon="-113.4856260">
    <ele>661.8</ele>
    <time>2026-08-23T16:41:03Z</time>
   </trkpt>
   <trkpt lat="53.5283610" lon="-113.4856000">
    <ele>661.7</ele>
    <time>2026-08-23T16:41:04Z</time>
   </trkpt>
   <trkpt lat="53.5284090" lon="-113.4855740">
    <ele>661.4</ele>
    <time>2026-08-23T16:41:06Z</time>
   </trkpt>
   <trkpt lat="53.5284570" lon="-113.4855610">
    <ele>661.2</ele>
    <time>2026-08-23T16:41:07Z</time>
   </trkpt>
   <trkpt lat="53.5285080" lon="-113.4855410">
    <ele>660.9</ele>
    <time>2026-08-23T16:41:08Z</time>
   </trkpt>
   <trkpt lat="53.5285680" lon="-113.4855280">
    <ele>660.5</ele>
    <time>2026-08-23T16:41:09Z</time>
   </trkpt>
   <trkpt lat="53.5286280" lon="-113.4855050">
    <ele>660.1</ele>
    <time>2026-08-23T16:41:10Z</time>
   </trkpt>
   <trkpt lat="53.5286910" lon="-113.4854950">
    <ele>659.7</ele>
    <time>2026-08-23T16:41:11Z</time>
   </trkpt>
   <trkpt lat="53.5287540" lon="-113.4854760">
    <ele>659.2</ele>
    <time>2026-08-23T16:41:12Z</time>
   </trkpt>
   <trkpt lat="53.5288190" lon="-113.4854570">
    <ele>658.8</ele>
    <time>2026-08-23T16:41:13Z</time>
   </trkpt>
   <trkpt lat="53.5288790" lon="-113.4854470">
    <ele>658.3</ele>
    <time>2026-08-23T16:41:14Z</time>
   </trkpt>
   <trkpt lat="53.5289360" lon="-113.4854390">
    <ele>657.9</ele>
    <time>2026-08-23T16:41:15Z</time>
   </trkpt>
   <trkpt lat="53.5289990" lon="-113.4854350">
    <ele>657.4</ele>
    <time>2026-08-23T16:41:16Z</time>
   </trkpt>
   <trkpt lat="53.5290650" lon="-113.4854300">
    <ele>656.8</ele>
    <time>2026-08-23T16:41:17Z</time>
   </trkpt>
   <trkpt lat="53.5291360" lon="-113.4854300">
    <ele>656.3</ele>
    <time>2026-08-23T16:41:18Z</time>
   </trkpt>
   <trkpt lat="53.5292090" lon="-113.4854320">
    <ele>655.7</ele>
    <time>2026-08-23T16:41:19Z</time>
   </trkpt>
   <trkpt lat="53.5292790" lon="-113.4854370">
    <ele>655.1</ele>
    <time>2026-08-23T16:41:20Z</time>
   </trkpt>
   <trkpt lat="53.5293450" lon="-113.4854370">
    <ele>654.5</ele>
    <time>2026-08-23T16:41:21Z</time>
   </trkpt>
   <trkpt lat="53.5294100" lon="-113.4854350">
    <ele>654.0</ele>
    <time>2026-08-23T16:41:22Z</time>
   </trkpt>
   <trkpt lat="53.5294750" lon="-113.4854470">
    <ele>653.5</ele>
    <time>2026-08-23T16:41:23Z</time>
   </trkpt>
   <trkpt lat="53.5296010" lon="-113.4854780">
    <ele>652.4</ele>
    <time>2026-08-23T16:41:24Z</time>
   </trkpt>
   <trkpt lat="53.5296560" lon="-113.4854960">
    <ele>652.0</ele>
    <time>2026-08-23T16:41:25Z</time>
   </trkpt>
   <trkpt lat="53.5297110" lon="-113.4855190">
    <ele>651.5</ele>
    <time>2026-08-23T16:41:26Z</time>
   </trkpt>
   <trkpt lat="53.5297610" lon="-113.4855540">
    <ele>651.0</ele>
    <time>2026-08-23T16:41:27Z</time>
   </trkpt>
   <trkpt lat="53.5298100" lon="-113.4856090">
    <ele>650.5</ele>
    <time>2026-08-23T16:41:28Z</time>
   </trkpt>
   <trkpt lat="53.5298590" lon="-113.4856560">
    <ele>650.0</ele>
    <time>2026-08-23T16:41:29Z</time>
   </trkpt>
   <trkpt lat="53.5299090" lon="-113.4857320">
    <ele>649.3</ele>
    <time>2026-08-23T16:41:30Z</time>
   </trkpt>
   <trkpt lat="53.5299740" lon="-113.4857890">
    <ele>648.6</ele>
    <time>2026-08-23T16:41:31Z</time>
   </trkpt>
   <trkpt lat="53.5300520" lon="-113.4858120">
    <ele>648.0</ele>
    <time>2026-08-23T16:41:32Z</time>
   </trkpt>
   <trkpt lat="53.5301410" lon="-113.4858020">
    <ele>647.5</ele>
    <time>2026-08-23T16:41:33Z</time>
   </trkpt>
   <trkpt lat="53.5302220" lon="-113.4857720">
    <ele>647.0</ele>
    <time>2026-08-23T16:41:34Z</time>
   </trkpt>
   <trkpt lat="53.5302940" lon="-113.4857810">
    <ele>646.6</ele>
    <time>2026-08-23T16:41:35Z</time>
   </trkpt>
   <trkpt lat="53.5303500" lon="-113.4858230">
    <ele>646.3</ele>
    <time>2026-08-23T16:41:36Z</time>
   </trkpt>
   <trkpt lat="53.5303870" lon="-113.4858670">
    <ele>646.0</ele>
    <time>2026-08-23T16:41:37Z</time>
   </trkpt>
   <trkpt lat="53.5304160" lon="-113.4858900">
    <ele>645.8</ele>
    <time>2026-08-23T16:41:38Z</time>
   </trkpt>
   <trkpt lat="53.5304320" lon="-113.4859010">
    <ele>645.7</ele>
    <time>2026-08-23T16:41:39Z</time>
   </trkpt>
   <trkpt lat="53.5304450" lon="-113.4859210">
    <ele>645.6</ele>
    <time>2026-08-23T16:41:40Z</time>
   </trkpt>
   <trkpt lat="53.5304430" lon="-113.4859360">
    <ele>645.6</ele>
    <time>2026-08-23T16:41:41Z</time>
   </trkpt>
   <trkpt lat="53.5304390" lon="-113.4859560">
    <ele>645.5</ele>
    <time>2026-08-23T16:41:42Z</time>
   </trkpt>
   <trkpt lat="53.5304380" lon="-113.4859550">
    <ele>645.5</ele>
    <time>2026-08-23T16:41:43Z</time>
   </trkpt>
   <trkpt lat="53.5304350" lon="-113.4859550">
    <ele>645.4</ele>
    <time>2026-08-23T16:41:44Z</time>
   </trkpt>
   <trkpt lat="53.5304340" lon="-113.4859550">
    <ele>645.4</ele>
    <time>2026-08-23T16:41:45Z</time>
   </trkpt>
   <trkpt lat="53.5304340" lon="-113.4859550">
    <ele>645.4</ele>
    <time>2026-08-23T16:41:46Z</time>
   </trkpt>
   <trkpt lat="53.5304340" lon="-113.4859550">
    <ele>645.4</ele>
    <time>2026-08-23T16:41:47Z</time>
   </trkpt>
   <trkpt lat="53.5304340" lon="-113.4859550">
    <ele>645.4</ele>
    <time>2026-08-23T16:41:48Z</time>
   </trkpt>
   <trkpt lat="53.5304340" lon="-113.4859550">
    <ele>645.4</ele>
    <time>2026-08-23T16:41:49Z</time>
   </trkpt>
   <trkpt lat="53.5304260" lon="-113.4859810">
    <ele>645.3</ele>
    <time>2026-08-23T16:41:50Z</time>
   </trkpt>
   <trkpt lat="53.5304260" lon="-113.4860180">
    <ele>645.1</ele>
    <time>2026-08-23T16:41:51Z</time>
   </trkpt>
   <trkpt lat="53.5304200" lon="-113.4860590">
    <ele>644.9</ele>
    <time>2026-08-23T16:41:52Z</time>
   </trkpt>
   <trkpt lat="53.5304070" lon="-113.4860970">
    <ele>644.7</ele>
    <time>2026-08-23T16:41:53Z</time>
   </trkpt>
   <trkpt lat="53.5303910" lon="-113.4861500">
    <ele>644.4</ele>
    <time>2026-08-23T16:41:54Z</time>
   </trkpt>
   <trkpt lat="53.5303820" lon="-113.4862030">
    <ele>644.1</ele>
    <time>2026-08-23T16:41:55Z</time>
   </trkpt>
   <trkpt lat="53.5303740" lon="-113.4862560">
    <ele>643.9</ele>
    <time>2026-08-23T16:41:56Z</time>
   </trkpt>
   <trkpt lat="53.5303580" lon="-113.4863000">
    <ele>643.8</ele>
    <time>2026-08-23T16:41:57Z</time>
   </trkpt>
   <trkpt lat="53.5303400" lon="-113.4863230">
    <ele>643.6</ele>
    <time>2026-08-23T16:41:58Z</time>
   </trkpt>
   <trkpt lat="53.5303290" lon="-113.4863410">
    <ele>643.6</ele>
    <time>2026-08-23T16:41:59Z</time>
   </trkpt>
   <trkpt lat="53.5303210" lon="-113.4863490">
    <ele>643.5</ele>
    <time>2026-08-23T16:42:00Z</time>
   </trkpt>
   <trkpt lat="53.5303150" lon="-113.4863640">
    <ele>643.5</ele>
    <time>2026-08-23T16:42:01Z</time>
   </trkpt>
   <trkpt lat="53.5303110" lon="-113.4863850">
    <ele>643.4</ele>
    <time>2026-08-23T16:42:02Z</time>
   </trkpt>
   <trkpt lat="53.5303020" lon="-113.4863970">
    <ele>643.3</ele>
    <time>2026-08-23T16:42:03Z</time>
   </trkpt>
   <trkpt lat="53.5302940" lon="-113.4864110">
    <ele>643.3</ele>
    <time>2026-08-23T16:42:04Z</time>
   </trkpt>
   <trkpt lat="53.5303020" lon="-113.4864140">
    <ele>643.2</ele>
    <time>2026-08-23T16:42:05Z</time>
   </trkpt>
   <trkpt lat="53.5303340" lon="-113.4863970">
    <ele>643.1</ele>
    <time>2026-08-23T16:42:06Z</time>
   </trkpt>
   <trkpt lat="53.5303500" lon="-113.4863590">
    <ele>642.9</ele>
    <time>2026-08-23T16:42:07Z</time>
   </trkpt>
   <trkpt lat="53.5303660" lon="-113.4863460">
    <ele>642.9</ele>
    <time>2026-08-23T16:42:08Z</time>
   </trkpt>
   <trkpt lat="53.5303800" lon="-113.4863530">
    <ele>642.8</ele>
    <time>2026-08-23T16:42:09Z</time>
   </trkpt>
   <trkpt lat="53.5303950" lon="-113.4863700">
    <ele>642.7</ele>
    <time>2026-08-23T16:42:10Z</time>
   </trkpt>
   <trkpt lat="53.5303960" lon="-113.4863810">
    <ele>642.7</ele>
    <time>2026-08-23T16:42:11Z</time>
   </trkpt>
   <trkpt lat="53.5304110" lon="-113.4863930">
    <ele>642.6</ele>
    <time>2026-08-23T16:42:12Z</time>
   </trkpt>
   <trkpt lat="53.5304140" lon="-113.4863940">
    <ele>642.6</ele>
    <time>2026-08-23T16:42:13Z</time>
   </trkpt>
   <trkpt lat="53.5304060" lon="-113.4863780">
    <ele>642.6</ele>
    <time>2026-08-23T16:42:14Z</time>
   </trkpt>
   <trkpt lat="53.5304030" lon="-113.4863590">
    <ele>642.6</ele>
    <time>2026-08-23T16:42:15Z</time>
   </trkpt>
   <trkpt lat="53.5303900" lon="-113.4863510">
    <ele>642.6</ele>
    <time>2026-08-23T16:42:16Z</time>
   </trkpt>
   <trkpt lat="53.5303760" lon="-113.4863520">
    <ele>642.7</ele>
    <time>2026-08-23T16:42:17Z</time>
   </trkpt>
   <trkpt lat="53.5303530" lon="-113.4863560">
    <ele>642.7</ele>
    <time>2026-08-23T16:42:18Z</time>
   </trkpt>
   <trkpt lat="53.5303380" lon="-113.4863730">
    <ele>642.7</ele>
    <time>2026-08-23T16:42:19Z</time>
   </trkpt>
   <trkpt lat="53.5303230" lon="-113.4863910">
    <ele>642.8</ele>
    <time>2026-08-23T16:42:20Z</time>
   </trkpt>
   <trkpt lat="53.5303100" lon="-113.4864080">
    <ele>642.8</ele>
    <time>2026-08-23T16:42:21Z</time>
   </trkpt>
   <trkpt lat="53.5303110" lon="-113.4864230">
    <ele>642.8</ele>
    <time>2026-08-23T16:42:22Z</time>
   </trkpt>
   <trkpt lat="53.5303170" lon="-113.4864410">
    <ele>642.8</ele>
    <time>2026-08-23T16:42:23Z</time>
   </trkpt>
   <trkpt lat="53.5303260" lon="-113.4864490">
    <ele>642.8</ele>
    <time>2026-08-23T16:42:24Z</time>
   </trkpt>
   <trkpt lat="53.5303500" lon="-113.4864510">
    <ele>642.7</ele>
    <time>2026-08-23T16:42:25Z</time>
   </trkpt>
   <trkpt lat="53.5303680" lon="-113.4864440">
    <ele>642.7</ele>
    <time>2026-08-23T16:42:26Z</time>
   </trkpt>
   <trkpt lat="53.5303890" lon="-113.4864440">
    <ele>642.6</ele>
    <time>2026-08-23T16:42:27Z</time>
   </trkpt>
   <trkpt lat="53.5304110" lon="-113.4864430">
    <ele>642.5</ele>
    <time>2026-08-23T16:42:28Z</time>
   </trkpt>
   <trkpt lat="53.5304270" lon="-113.4864390">
    <ele>642.4</ele>
    <time>2026-08-23T16:42:29Z</time>
   </trkpt>
   <trkpt lat="53.5304530" lon="-113.4864390">
    <ele>642.3</ele>
    <time>2026-08-23T16:42:30Z</time>
   </trkpt>
   <trkpt lat="53.5304730" lon="-113.4864020">
    <ele>642.1</ele>
    <time>2026-08-23T16:42:31Z</time>
   </trkpt>
   <trkpt lat="53.5304990" lon="-113.4864190">
    <ele>642.0</ele>
    <time>2026-08-23T16:42:32Z</time>
   </trkpt>
   <trkpt lat="53.5305230" lon="-113.4864140">
    <ele>641.9</ele>
    <time>2026-08-23T16:42:33Z</time>
   </trkpt>
   <trkpt lat="53.5305510" lon="-113.4864340">
    <ele>641.7</ele>
    <time>2026-08-23T16:42:34Z</time>
   </trkpt>
   <trkpt lat="53.5305850" lon="-113.4864820">
    <ele>641.5</ele>
    <time>2026-08-23T16:42:35Z</time>
   </trkpt>
   <trkpt lat="53.5306230" lon="-113.4865200">
    <ele>641.3</ele>
    <time>2026-08-23T16:42:36Z</time>
   </trkpt>
   <trkpt lat="53.5306610" lon="-113.4865460">
    <ele>641.1</ele>
    <time>2026-08-23T16:42:37Z</time>
   </trkpt>
   <trkpt lat="53.5306910" lon="-113.4865790">
    <ele>640.9</ele>
    <time>2026-08-23T16:42:38Z</time>
   </trkpt>
   <trkpt lat="53.5307420" lon="-113.4866250">
    <ele>640.7</ele>
    <time>2026-08-23T16:42:39Z</time>
   </trkpt>
   <trkpt lat="53.5307740" lon="-113.4866660">
    <ele>640.5</ele>
    <time>2026-08-23T16:42:40Z</time>
   </trkpt>
   <trkpt lat="53.5308140" lon="-113.4866960">
    <ele>640.3</ele>
    <time>2026-08-23T16:42:41Z</time>
   </trkpt>
   <trkpt lat="53.5308620" lon="-113.4867140">
    <ele>640.1</ele>
    <time>2026-08-23T16:42:42Z</time>
   </trkpt>
   <trkpt lat="53.5309020" lon="-113.4867410">
    <ele>640.0</ele>
    <time>2026-08-23T16:42:43Z</time>
   </trkpt>
   <trkpt lat="53.5309520" lon="-113.4867560">
    <ele>639.9</ele>
    <time>2026-08-23T16:42:44Z</time>
   </trkpt>
   <trkpt lat="53.5310040" lon="-113.4868020">
    <ele>639.7</ele>
    <time>2026-08-23T16:42:45Z</time>
   </trkpt>
   <trkpt lat="53.5310490" lon="-113.4868390">
    <ele>639.6</ele>
    <time>2026-08-23T16:42:46Z</time>
   </trkpt>
   <trkpt lat="53.5310930" lon="-113.4868730">
    <ele>639.5</ele>
    <time>2026-08-23T16:42:47Z</time>
   </trkpt>
   <trkpt lat="53.5311370" lon="-113.4868940">
    <ele>639.5</ele>
    <time>2026-08-23T16:42:48Z</time>
   </trkpt>
   <trkpt lat="53.5311840" lon="-113.4869030">
    <ele>639.5</ele>
    <time>2026-08-23T16:42:49Z</time>
   </trkpt>
   <trkpt lat="53.5312280" lon="-113.4868960">
    <ele>639.4</ele>
    <time>2026-08-23T16:42:50Z</time>
   </trkpt>
   <trkpt lat="53.5312620" lon="-113.4868950">
    <ele>639.4</ele>
    <time>2026-08-23T16:42:51Z</time>
   </trkpt>
   <trkpt lat="53.5312890" lon="-113.4868860">
    <ele>639.4</ele>
    <time>2026-08-23T16:42:52Z</time>
   </trkpt>
   <trkpt lat="53.5313170" lon="-113.4868880">
    <ele>639.4</ele>
    <time>2026-08-23T16:42:53Z</time>
   </trkpt>
   <trkpt lat="53.5313430" lon="-113.4868830">
    <ele>639.4</ele>
    <time>2026-08-23T16:42:54Z</time>
   </trkpt>
   <trkpt lat="53.5313760" lon="-113.4869000">
    <ele>639.4</ele>
    <time>2026-08-23T16:42:55Z</time>
   </trkpt>
   <trkpt lat="53.5314210" lon="-113.4869170">
    <ele>639.5</ele>
    <time>2026-08-23T16:42:56Z</time>
   </trkpt>
   <trkpt lat="53.5314610" lon="-113.4869250">
    <ele>639.5</ele>
    <time>2026-08-23T16:42:57Z</time>
   </trkpt>
   <trkpt lat="53.5314940" lon="-113.4869340">
    <ele>639.5</ele>
    <time>2026-08-23T16:42:58Z</time>
   </trkpt>
   <trkpt lat="53.5315280" lon="-113.4869370">
    <ele>639.6</ele>
    <time>2026-08-23T16:42:59Z</time>
   </trkpt>
   <trkpt lat="53.5315580" lon="-113.4869360">
    <ele>639.6</ele>
    <time>2026-08-23T16:43:00Z</time>
   </trkpt>
   <trkpt lat="53.5315900" lon="-113.4869410">
    <ele>639.6</ele>
    <time>2026-08-23T16:43:01Z</time>
   </trkpt>
   <trkpt lat="53.5316130" lon="-113.4869420">
    <ele>639.7</ele>
    <time>2026-08-23T16:43:02Z</time>
   </trkpt>
   <trkpt lat="53.5316450" lon="-113.4869480">
    <ele>639.7</ele>
    <time>2026-08-23T16:43:03Z</time>
   </trkpt>
   <trkpt lat="53.5316710" lon="-113.4869570">
    <ele>639.7</ele>
    <time>2026-08-23T16:43:04Z</time>
   </trkpt>
   <trkpt lat="53.5316970" lon="-113.4869640">
    <ele>639.8</ele>
    <time>2026-08-23T16:43:05Z</time>
   </trkpt>
   <trkpt lat="53.5317190" lon="-113.4869650">
    <ele>639.8</ele>
    <time>2026-08-23T16:43:06Z</time>
   </trkpt>
   <trkpt lat="53.5317370" lon="-113.4869650">
    <ele>639.8</ele>
    <time>2026-08-23T16:43:07Z</time>
   </trkpt>
   <trkpt lat="53.5317590" lon="-113.4869560">
    <ele>639.9</ele>
    <time>2026-08-23T16:43:08Z</time>
   </trkpt>
   <trkpt lat="53.5317730" lon="-113.4869550">
    <ele>639.9</ele>
    <time>2026-08-23T16:43:09Z</time>
   </trkpt>
   <trkpt lat="53.5317940" lon="-113.4869530">
    <ele>639.9</ele>
    <time>2026-08-23T16:43:10Z</time>
   </trkpt>
   <trkpt lat="53.5318110" lon="-113.4869470">
    <ele>639.9</ele>
    <time>2026-08-23T16:43:11Z</time>
   </trkpt>
   <trkpt lat="53.5318290" lon="-113.4869530">
    <ele>640.0</ele>
    <time>2026-08-23T16:43:12Z</time>
   </trkpt>
   <trkpt lat="53.5318480" lon="-113.4869560">
    <ele>640.0</ele>
    <time>2026-08-23T16:43:13Z</time>
   </trkpt>
   <trkpt lat="53.5318660" lon="-113.4869570">
    <ele>640.0</ele>
    <time>2026-08-23T16:43:14Z</time>
   </trkpt>
   <trkpt lat="53.5318870" lon="-113.4869570">
    <ele>640.1</ele>
    <time>2026-08-23T16:43:15Z</time>
   </trkpt>
   <trkpt lat="53.5319060" lon="-113.4869560">
    <ele>640.1</ele>
    <time>2026-08-23T16:43:16Z</time>
   </trkpt>
   <trkpt lat="53.5319270" lon="-113.4869510">
    <ele>640.1</ele>
    <time>2026-08-23T16:43:17Z</time>
   </trkpt>
   <trkpt lat="53.5319440" lon="-113.4869390">
    <ele>640.1</ele>
    <time>2026-08-23T16:43:18Z</time>
   </trkpt>
   <trkpt lat="53.5319610" lon="-113.4869260">
    <ele>640.2</ele>
    <time>2026-08-23T16:43:19Z</time>
   </trkpt>
   <trkpt lat="53.5319810" lon="-113.4869350">
    <ele>640.2</ele>
    <time>2026-08-23T16:43:20Z</time>
   </trkpt>
   <trkpt lat="53.5320030" lon="-113.4869380">
    <ele>640.3</ele>
    <time>2026-08-23T16:43:21Z</time>
   </trkpt>
   <trkpt lat="53.5320220" lon="-113.4869430">
    <ele>640.3</ele>
    <time>2026-08-23T16:43:22Z</time>
   </trkpt>
   <trkpt lat="53.5320440" lon="-113.4869480">
    <ele>640.4</ele>
    <time>2026-08-23T16:43:23Z</time>
   </trkpt>
   <trkpt lat="53.5320660" lon="-113.4869510">
    <ele>640.4</ele>
    <time>2026-08-23T16:43:24Z</time>
   </trkpt>
   <trkpt lat="53.5320850" lon="-113.4869470">
    <ele>640.5</ele>
    <time>2026-08-23T16:43:25Z</time>
   </trkpt>
   <trkpt lat="53.5321060" lon="-113.4869500">
    <ele>640.5</ele>
    <time>2026-08-23T16:43:26Z</time>
   </trkpt>
   <trkpt lat="53.5321290" lon="-113.4869510">
    <ele>640.6</ele>
    <time>2026-08-23T16:43:27Z</time>
   </trkpt>
   <trkpt lat="53.5321500" lon="-113.4869570">
    <ele>640.7</ele>
    <time>2026-08-23T16:43:28Z</time>
   </trkpt>
   <trkpt lat="53.5321700" lon="-113.4869540">
    <ele>640.7</ele>
    <time>2026-08-23T16:43:29Z</time>
   </trkpt>
   <trkpt lat="53.5321930" lon="-113.4869450">
    <ele>640.8</ele>
    <time>2026-08-23T16:43:30Z</time>
   </trkpt>
   <trkpt lat="53.5322140" lon="-113.4869390">
    <ele>640.9</ele>
    <time>2026-08-23T16:43:31Z</time>
   </trkpt>
   <trkpt lat="53.5322310" lon="-113.4869400">
    <ele>641.0</ele>
    <time>2026-08-23T16:43:32Z</time>
   </trkpt>
   <trkpt lat="53.5322560" lon="-113.4869500">
    <ele>641.1</ele>
    <time>2026-08-23T16:43:33Z</time>
   </trkpt>
   <trkpt lat="53.5322770" lon="-113.4869470">
    <ele>641.2</ele>
    <time>2026-08-23T16:43:34Z</time>
   </trkpt>
   <trkpt lat="53.5322980" lon="-113.4869420">
    <ele>641.3</ele>
    <time>2026-08-23T16:43:35Z</time>
   </trkpt>
   <trkpt lat="53.5323190" lon="-113.4869390">
    <ele>641.4</ele>
    <time>2026-08-23T16:43:36Z</time>
   </trkpt>
   <trkpt lat="53.5323390" lon="-113.4869430">
    <ele>641.5</ele>
    <time>2026-08-23T16:43:37Z</time>
   </trkpt>
   <trkpt lat="53.5323590" lon="-113.4869380">
    <ele>641.6</ele>
    <time>2026-08-23T16:43:38Z</time>
   </trkpt>
   <trkpt lat="53.5323800" lon="-113.4869380">
    <ele>641.8</ele>
    <time>2026-08-23T16:43:39Z</time>
   </trkpt>
   <trkpt lat="53.5323970" lon="-113.4869260">
    <ele>641.9</ele>
    <time>2026-08-23T16:43:40Z</time>
   </trkpt>
   <trkpt lat="53.5324160" lon="-113.4869220">
    <ele>642.0</ele>
    <time>2026-08-23T16:43:41Z</time>
   </trkpt>
   <trkpt lat="53.5324360" lon="-113.4869250">
    <ele>642.1</ele>
    <time>2026-08-23T16:43:42Z</time>
   </trkpt>
   <trkpt lat="53.5324520" lon="-113.4869230">
    <ele>642.1</ele>
    <time>2026-08-23T16:43:43Z</time>
   </trkpt>
   <trkpt lat="53.5324710" lon="-113.4869200">
    <ele>642.2</ele>
    <time>2026-08-23T16:43:44Z</time>
   </trkpt>
   <trkpt lat="53.5324920" lon="-113.4869120">
    <ele>642.3</ele>
    <time>2026-08-23T16:43:45Z</time>
   </trkpt>
   <trkpt lat="53.5325220" lon="-113.4869000">
    <ele>642.4</ele>
    <time>2026-08-23T16:43:46Z</time>
   </trkpt>
   <trkpt lat="53.5325470" lon="-113.4868860">
    <ele>642.4</ele>
    <time>2026-08-23T16:43:47Z</time>
   </trkpt>
   <trkpt lat="53.5325690" lon="-113.4868760">
    <ele>642.5</ele>
    <time>2026-08-23T16:43:48Z</time>
   </trkpt>
   <trkpt lat="53.5326030" lon="-113.4868760">
    <ele>642.4</ele>
    <time>2026-08-23T16:43:49Z</time>
   </trkpt>
   <trkpt lat="53.5326240" lon="-113.4868490">
    <ele>642.4</ele>
    <time>2026-08-23T16:43:50Z</time>
   </trkpt>
   <trkpt lat="53.5326550" lon="-113.4868430">
    <ele>642.4</ele>
    <time>2026-08-23T16:43:51Z</time>
   </trkpt>
   <trkpt lat="53.5326890" lon="-113.4868440">
    <ele>642.3</ele>
    <time>2026-08-23T16:43:52Z</time>
   </trkpt>
   <trkpt lat="53.5327180" lon="-113.4868260">
    <ele>642.3</ele>
    <time>2026-08-23T16:43:53Z</time>
   </trkpt>
   <trkpt lat="53.5327510" lon="-113.4868240">
    <ele>642.2</ele>
    <time>2026-08-23T16:43:54Z</time>
   </trkpt>
   <trkpt lat="53.5327860" lon="-113.4868290">
    <ele>642.1</ele>
    <time>2026-08-23T16:43:55Z</time>
   </trkpt>
   <trkpt lat="53.5328300" lon="-113.4868500">
    <ele>642.1</ele>
    <time>2026-08-23T16:43:56Z</time>
   </trkpt>
   <trkpt lat="53.5328690" lon="-113.4868500">
    <ele>642.0</ele>
    <time>2026-08-23T16:43:57Z</time>
   </trkpt>
   <trkpt lat="53.5329120" lon="-113.4868590">
    <ele>641.9</ele>
    <time>2026-08-23T16:43:58Z</time>
   </trkpt>
   <trkpt lat="53.5329490" lon="-113.4868650">
    <ele>641.9</ele>
    <time>2026-08-23T16:43:59Z</time>
   </trkpt>
   <trkpt lat="53.5329890" lon="-113.4868720">
    <ele>641.8</ele>
    <time>2026-08-23T16:44:00Z</time>
   </trkpt>
   <trkpt lat="53.5330280" lon="-113.4868720">
    <ele>641.7</ele>
    <time>2026-08-23T16:44:01Z</time>
   </trkpt>
   <trkpt lat="53.5330640" lon="-113.4868610">
    <ele>641.6</ele>
    <time>2026-08-23T16:44:02Z</time>
   </trkpt>
   <trkpt lat="53.5331110" lon="-113.4868520">
    <ele>641.4</ele>
    <time>2026-08-23T16:44:03Z</time>
   </trkpt>
   <trkpt lat="53.5331550" lon="-113.4868360">
    <ele>641.2</ele>
    <time>2026-08-23T16:44:04Z</time>
   </trkpt>
   <trkpt lat="53.5332030" lon="-113.4868180">
    <ele>640.9</ele>
    <time>2026-08-23T16:44:05Z</time>
   </trkpt>
   <trkpt lat="53.5332540" lon="-113.4868190">
    <ele>640.6</ele>
    <time>2026-08-23T16:44:06Z</time>
   </trkpt>
   <trkpt lat="53.5333080" lon="-113.4868170">
    <ele>640.4</ele>
    <time>2026-08-23T16:44:07Z</time>
   </trkpt>
   <trkpt lat="53.5333680" lon="-113.4868070">
    <ele>640.0</ele>
    <time>2026-08-23T16:44:08Z</time>
   </trkpt>
   <trkpt lat="53.5334270" lon="-113.4867990">
    <ele>639.7</ele>
    <time>2026-08-23T16:44:09Z</time>
   </trkpt>
   <trkpt lat="53.5334820" lon="-113.4867960">
    <ele>639.5</ele>
    <time>2026-08-23T16:44:10Z</time>
   </trkpt>
   <trkpt lat="53.5335400" lon="-113.4867900">
    <ele>639.2</ele>
    <time>2026-08-23T16:44:11Z</time>
   </trkpt>
   <trkpt lat="53.5336050" lon="-113.4868020">
    <ele>638.9</ele>
    <time>2026-08-23T16:44:12Z</time>
   </trkpt>
   <trkpt lat="53.5336520" lon="-113.4867910">
    <ele>638.6</ele>
    <time>2026-08-23T16:44:13Z</time>
   </trkpt>
   <trkpt lat="53.5337010" lon="-113.4867690">
    <ele>638.3</ele>
    <time>2026-08-23T16:44:14Z</time>
   </trkpt>
   <trkpt lat="53.5337480" lon="-113.4867040">
    <ele>637.9</ele>
    <time>2026-08-23T16:44:15Z</time>
   </trkpt>
   <trkpt lat="53.5337710" lon="-113.4866000">
    <ele>637.5</ele>
    <time>2026-08-23T16:44:16Z</time>
   </trkpt>
   <trkpt lat="53.5337810" lon="-113.4864990">
    <ele>637.0</ele>
    <time>2026-08-23T16:44:17Z</time>
   </trkpt>
   <trkpt lat="53.5337830" lon="-113.4864050">
    <ele>636.5</ele>
    <time>2026-08-23T16:44:18Z</time>
   </trkpt>
   <trkpt lat="53.5338080" lon="-113.4863520">
    <ele>636.1</ele>
    <time>2026-08-23T16:44:19Z</time>
   </trkpt>
   <trkpt lat="53.5338490" lon="-113.4863390">
    <ele>635.6</ele>
    <time>2026-08-23T16:44:20Z</time>
   </trkpt>
   <trkpt lat="53.5338830" lon="-113.4863220">
    <ele>635.1</ele>
    <time>2026-08-23T16:44:21Z</time>
   </trkpt>
   <trkpt lat="53.5339140" lon="-113.4863460">
    <ele>634.7</ele>
    <time>2026-08-23T16:44:22Z</time>
   </trkpt>
   <trkpt lat="53.5339390" lon="-113.4863730">
    <ele>634.3</ele>
    <time>2026-08-23T16:44:23Z</time>
   </trkpt>
   <trkpt lat="53.5339640" lon="-113.4864050">
    <ele>633.8</ele>
    <time>2026-08-23T16:44:24Z</time>
   </trkpt>
   <trkpt lat="53.5339810" lon="-113.4864250">
    <ele>633.6</ele>
    <time>2026-08-23T16:44:25Z</time>
   </trkpt>
   <trkpt lat="53.5339950" lon="-113.4864540">
    <ele>633.2</ele>
    <time>2026-08-23T16:44:26Z</time>
   </trkpt>
   <trkpt lat="53.5340130" lon="-113.4864940">
    <ele>632.8</ele>
    <time>2026-08-23T16:44:27Z</time>
   </trkpt>
   <trkpt lat="53.5340200" lon="-113.4865260">
    <ele>632.6</ele>
    <time>2026-08-23T16:44:28Z</time>
   </trkpt>
   <trkpt lat="53.5340450" lon="-113.4865640">
    <ele>632.1</ele>
    <time>2026-08-23T16:44:29Z</time>
   </trkpt>
   <trkpt lat="53.5340650" lon="-113.4866140">
    <ele>631.6</ele>
    <time>2026-08-23T16:44:30Z</time>
   </trkpt>
   <trkpt lat="53.5340840" lon="-113.4866390">
    <ele>631.3</ele>
    <time>2026-08-23T16:44:31Z</time>
   </trkpt>
   <trkpt lat="53.5341290" lon="-113.4866960">
    <ele>630.6</ele>
    <time>2026-08-23T16:44:32Z</time>
   </trkpt>
   <trkpt lat="53.5341580" lon="-113.4866780">
    <ele>630.3</ele>
    <time>2026-08-23T16:44:33Z</time>
   </trkpt>
   <trkpt lat="53.5342040" lon="-113.4866920">
    <ele>629.9</ele>
    <time>2026-08-23T16:44:34Z</time>
   </trkpt>
   <trkpt lat="53.5342450" lon="-113.4866510">
    <ele>629.6</ele>
    <time>2026-08-23T16:44:35Z</time>
   </trkpt>
   <trkpt lat="53.5342810" lon="-113.4866180">
    <ele>629.4</ele>
    <time>2026-08-23T16:44:36Z</time>
   </trkpt>
   <trkpt lat="53.5343260" lon="-113.4865900">
    <ele>629.3</ele>
    <time>2026-08-23T16:44:37Z</time>
   </trkpt>
   <trkpt lat="53.5343500" lon="-113.4865380">
    <ele>629.3</ele>
    <time>2026-08-23T16:44:38Z</time>
   </trkpt>
   <trkpt lat="53.5343870" lon="-113.4865130">
    <ele>629.3</ele>
    <time>2026-08-23T16:44:39Z</time>
   </trkpt>
   <trkpt lat="53.5344220" lon="-113.4865070">
    <ele>629.3</ele>
    <time>2026-08-23T16:44:40Z</time>
   </trkpt>
   <trkpt lat="53.5344530" lon="-113.4865060">
    <ele>629.3</ele>
    <time>2026-08-23T16:44:41Z</time>
   </trkpt>
   <trkpt lat="53.5344850" lon="-113.4864980">
    <ele>629.3</ele>
    <time>2026-08-23T16:44:42Z</time>
   </trkpt>
   <trkpt lat="53.5345130" lon="-113.4864960">
    <ele>629.4</ele>
    <time>2026-08-23T16:44:43Z</time>
   </trkpt>
   <trkpt lat="53.5345420" lon="-113.4865030">
    <ele>629.4</ele>
    <time>2026-08-23T16:44:44Z</time>
   </trkpt>
   <trkpt lat="53.5345680" lon="-113.4864960">
    <ele>629.4</ele>
    <time>2026-08-23T16:44:45Z</time>
   </trkpt>
   <trkpt lat="53.5345900" lon="-113.4864910">
    <ele>629.4</ele>
    <time>2026-08-23T16:44:46Z</time>
   </trkpt>
   <trkpt lat="53.5346110" lon="-113.4864910">
    <ele>629.4</ele>
    <time>2026-08-23T16:44:47Z</time>
   </trkpt>
   <trkpt lat="53.5346310" lon="-113.4864890">
    <ele>629.4</ele>
    <time>2026-08-23T16:44:48Z</time>
   </trkpt>
   <trkpt lat="53.5346500" lon="-113.4864810">
    <ele>629.4</ele>
    <time>2026-08-23T16:44:49Z</time>
   </trkpt>
   <trkpt lat="53.5346710" lon="-113.4864800">
    <ele>629.3</ele>
    <time>2026-08-23T16:44:50Z</time>
   </trkpt>
   <trkpt lat="53.5346890" lon="-113.4864800">
    <ele>629.3</ele>
    <time>2026-08-23T16:44:51Z</time>
   </trkpt>
   <trkpt lat="53.5347110" lon="-113.4864820">
    <ele>629.3</ele>
    <time>2026-08-23T16:44:52Z</time>
   </trkpt>
   <trkpt lat="53.5347330" lon="-113.4864840">
    <ele>629.3</ele>
    <time>2026-08-23T16:44:53Z</time>
   </trkpt>
   <trkpt lat="53.5347520" lon="-113.4864850">
    <ele>629.3</ele>
    <time>2026-08-23T16:44:54Z</time>
   </trkpt>
   <trkpt lat="53.5347710" lon="-113.4864840">
    <ele>629.3</ele>
    <time>2026-08-23T16:44:55Z</time>
   </trkpt>
   <trkpt lat="53.5347900" lon="-113.4864850">
    <ele>629.2</ele>
    <time>2026-08-23T16:44:56Z</time>
   </trkpt>
   <trkpt lat="53.5348050" lon="-113.4864700">
    <ele>629.2</ele>
    <time>2026-08-23T16:44:57Z</time>
   </trkpt>
   <trkpt lat="53.5348270" lon="-113.4864590">
    <ele>629.2</ele>
    <time>2026-08-23T16:44:58Z</time>
   </trkpt>
   <trkpt lat="53.5348520" lon="-113.4864600">
    <ele>629.1</ele>
    <time>2026-08-23T16:44:59Z</time>
   </trkpt>
   <trkpt lat="53.5348730" lon="-113.4864570">
    <ele>629.1</ele>
    <time>2026-08-23T16:45:00Z</time>
   </trkpt>
   <trkpt lat="53.5348940" lon="-113.4864560">
    <ele>629.0</ele>
    <time>2026-08-23T16:45:01Z</time>
   </trkpt>
   <trkpt lat="53.5349110" lon="-113.4864300">
    <ele>629.0</ele>
    <time>2026-08-23T16:45:02Z</time>
   </trkpt>
   <trkpt lat="53.5349290" lon="-113.4864440">
    <ele>628.9</ele>
    <time>2026-08-23T16:45:03Z</time>
   </trkpt>
   <trkpt lat="53.5349520" lon="-113.4864440">
    <ele>628.8</ele>
    <time>2026-08-23T16:45:04Z</time>
   </trkpt>
   <trkpt lat="53.5349700" lon="-113.4864380">
    <ele>628.8</ele>
    <time>2026-08-23T16:45:05Z</time>
   </trkpt>
   <trkpt lat="53.5349890" lon="-113.4864370">
    <ele>628.7</ele>
    <time>2026-08-23T16:45:06Z</time>
   </trkpt>
   <trkpt lat="53.5350010" lon="-113.4864340">
    <ele>628.6</ele>
    <time>2026-08-23T16:45:07Z</time>
   </trkpt>
   <trkpt lat="53.5350200" lon="-113.4864360">
    <ele>628.5</ele>
    <time>2026-08-23T16:45:08Z</time>
   </trkpt>
   <trkpt lat="53.5350350" lon="-113.4864380">
    <ele>628.4</ele>
    <time>2026-08-23T16:45:09Z</time>
   </trkpt>
   <trkpt lat="53.5350490" lon="-113.4864330">
    <ele>628.3</ele>
    <time>2026-08-23T16:45:10Z</time>
   </trkpt>
   <trkpt lat="53.5350630" lon="-113.4864210">
    <ele>628.2</ele>
    <time>2026-08-23T16:45:11Z</time>
   </trkpt>
   <trkpt lat="53.5350820" lon="-113.4864050">
    <ele>628.1</ele>
    <time>2026-08-23T16:45:12Z</time>
   </trkpt>
   <trkpt lat="53.5351030" lon="-113.4863960">
    <ele>627.9</ele>
    <time>2026-08-23T16:45:13Z</time>
   </trkpt>
   <trkpt lat="53.5351170" lon="-113.4863940">
    <ele>627.8</ele>
    <time>2026-08-23T16:45:14Z</time>
   </trkpt>
   <trkpt lat="53.5351370" lon="-113.4863990">
    <ele>627.7</ele>
    <time>2026-08-23T16:45:15Z</time>
   </trkpt>
   <trkpt lat="53.5351540" lon="-113.4863980">
    <ele>627.6</ele>
    <time>2026-08-23T16:45:16Z</time>
   </trkpt>
   <trkpt lat="53.5351760" lon="-113.4863870">
    <ele>627.4</ele>
    <time>2026-08-23T16:45:17Z</time>
   </trkpt>
   <trkpt lat="53.5351950" lon="-113.4863760">
    <ele>627.3</ele>
    <time>2026-08-23T16:45:18Z</time>
   </trkpt>
   <trkpt lat="53.5352070" lon="-113.4863570">
    <ele>627.2</ele>
    <time>2026-08-23T16:45:19Z</time>
   </trkpt>
   <trkpt lat="53.5352260" lon="-113.4863480">
    <ele>627.0</ele>
    <time>2026-08-23T16:45:20Z</time>
   </trkpt>
   <trkpt lat="53.5352330" lon="-113.4863340">
    <ele>626.9</ele>
    <time>2026-08-23T16:45:21Z</time>
   </trkpt>
   <trkpt lat="53.5352450" lon="-113.4863290">
    <ele>626.9</ele>
    <time>2026-08-23T16:45:22Z</time>
   </trkpt>
   <trkpt lat="53.5352600" lon="-113.4863210">
    <ele>626.7</ele>
    <time>2026-08-23T16:45:23Z</time>
   </trkpt>
   <trkpt lat="53.5352780" lon="-113.4863160">
    <ele>626.6</ele>
    <time>2026-08-23T16:45:24Z</time>
   </trkpt>
   <trkpt lat="53.5353030" lon="-113.4863210">
    <ele>626.4</ele>
    <time>2026-08-23T16:45:25Z</time>
   </trkpt>
   <trkpt lat="53.5353280" lon="-113.4863180">
    <ele>626.2</ele>
    <time>2026-08-23T16:45:26Z</time>
   </trkpt>
   <trkpt lat="53.5353520" lon="-113.4863170">
    <ele>626.1</ele>
    <time>2026-08-23T16:45:27Z</time>
   </trkpt>
   <trkpt lat="53.5353760" lon="-113.4863070">
    <ele>625.9</ele>
    <time>2026-08-23T16:45:28Z</time>
   </trkpt>
   <trkpt lat="53.5354010" lon="-113.4863000">
    <ele>625.7</ele>
    <time>2026-08-23T16:45:29Z</time>
   </trkpt>
   <trkpt lat="53.5354340" lon="-113.4862930">
    <ele>625.4</ele>
    <time>2026-08-23T16:45:30Z</time>
   </trkpt>
   <trkpt lat="53.5354700" lon="-113.4862850">
    <ele>625.2</ele>
    <time>2026-08-23T16:45:31Z</time>
   </trkpt>
   <trkpt lat="53.5355090" lon="-113.4862690">
    <ele>624.9</ele>
    <time>2026-08-23T16:45:32Z</time>
   </trkpt>
   <trkpt lat="53.5355400" lon="-113.4862620">
    <ele>624.7</ele>
    <time>2026-08-23T16:45:33Z</time>
   </trkpt>
   <trkpt lat="53.5355800" lon="-113.4862640">
    <ele>624.5</ele>
    <time>2026-08-23T16:45:34Z</time>
   </trkpt>
   <trkpt lat="53.5356240" lon="-113.4862510">
    <ele>624.3</ele>
    <time>2026-08-23T16:45:35Z</time>
   </trkpt>
   <trkpt lat="53.5356760" lon="-113.4862390">
    <ele>624.1</ele>
    <time>2026-08-23T16:45:36Z</time>
   </trkpt>
   <trkpt lat="53.5357200" lon="-113.4862350">
    <ele>623.9</ele>
    <time>2026-08-23T16:45:37Z</time>
   </trkpt>
   <trkpt lat="53.5357520" lon="-113.4861960">
    <ele>624.0</ele>
    <time>2026-08-23T16:45:38Z</time>
   </trkpt>
   <trkpt lat="53.5357710" lon="-113.4861380">
    <ele>624.1</ele>
    <time>2026-08-23T16:45:39Z</time>
   </trkpt>
   <trkpt lat="53.5357980" lon="-113.4861120">
    <ele>624.2</ele>
    <time>2026-08-23T16:45:40Z</time>
   </trkpt>
   <trkpt lat="53.5358260" lon="-113.4861330">
    <ele>624.0</ele>
    <time>2026-08-23T16:45:41Z</time>
   </trkpt>
   <trkpt lat="53.5358460" lon="-113.4861560">
    <ele>623.9</ele>
    <time>2026-08-23T16:45:42Z</time>
   </trkpt>
   <trkpt lat="53.5358630" lon="-113.4861660">
    <ele>623.9</ele>
    <time>2026-08-23T16:45:43Z</time>
   </trkpt>
   <trkpt lat="53.5358750" lon="-113.4861680">
    <ele>623.8</ele>
    <time>2026-08-23T16:45:44Z</time>
   </trkpt>
   <trkpt lat="53.5358950" lon="-113.4861650">
    <ele>623.8</ele>
    <time>2026-08-23T16:45:45Z</time>
   </trkpt>
   <trkpt lat="53.5359060" lon="-113.4861570">
    <ele>623.7</ele>
    <time>2026-08-23T16:45:46Z</time>
   </trkpt>
   <trkpt lat="53.5359230" lon="-113.4861560">
    <ele>623.7</ele>
    <time>2026-08-23T16:45:47Z</time>
   </trkpt>
   <trkpt lat="53.5359410" lon="-113.4861590">
    <ele>623.6</ele>
    <time>2026-08-23T16:45:48Z</time>
   </trkpt>
   <trkpt lat="53.5359560" lon="-113.4861680">
    <ele>623.6</ele>
    <time>2026-08-23T16:45:49Z</time>
   </trkpt>
   <trkpt lat="53.5359700" lon="-113.4861720">
    <ele>623.6</ele>
    <time>2026-08-23T16:45:50Z</time>
   </trkpt>
   <trkpt lat="53.5359820" lon="-113.4861720">
    <ele>623.5</ele>
    <time>2026-08-23T16:45:51Z</time>
   </trkpt>
   <trkpt lat="53.5359970" lon="-113.4861680">
    <ele>623.5</ele>
    <time>2026-08-23T16:45:52Z</time>
   </trkpt>
   <trkpt lat="53.5359920" lon="-113.4861660">
    <ele>623.5</ele>
    <time>2026-08-23T16:45:53Z</time>
   </trkpt>
   <trkpt lat="53.5359920" lon="-113.4861660">
    <ele>623.5</ele>
    <time>2026-08-23T16:45:54Z</time>
   </trkpt>
   <trkpt lat="53.5359920" lon="-113.4861660">
    <ele>623.5</ele>
    <time>2026-08-23T16:45:55Z</time>
   </trkpt>
   <trkpt lat="53.5359920" lon="-113.4861660">
    <ele>623.5</ele>
    <time>2026-08-23T16:45:56Z</time>
   </trkpt>
   <trkpt lat="53.5360220" lon="-113.4861470">
    <ele>623.4</ele>
    <time>2026-08-23T16:45:57Z</time>
   </trkpt>
   <trkpt lat="53.5360360" lon="-113.4861420">
    <ele>623.4</ele>
    <time>2026-08-23T16:45:58Z</time>
   </trkpt>
   <trkpt lat="53.5360710" lon="-113.4861190">
    <ele>623.3</ele>
    <time>2026-08-23T16:45:59Z</time>
   </trkpt>
   <trkpt lat="53.5361220" lon="-113.4861060">
    <ele>623.2</ele>
    <time>2026-08-23T16:46:00Z</time>
   </trkpt>
   <trkpt lat="53.5361530" lon="-113.4860700">
    <ele>623.2</ele>
    <time>2026-08-23T16:46:01Z</time>
   </trkpt>
   <trkpt lat="53.5361760" lon="-113.4860920">
    <ele>623.1</ele>
    <time>2026-08-23T16:46:02Z</time>
   </trkpt>
   <trkpt lat="53.5362000" lon="-113.4860900">
    <ele>623.1</ele>
    <time>2026-08-23T16:46:03Z</time>
   </trkpt>
   <trkpt lat="53.5362130" lon="-113.4860480">
    <ele>623.1</ele>
    <time>2026-08-23T16:46:04Z</time>
   </trkpt>
   <trkpt lat="53.5361950" lon="-113.4860130">
    <ele>623.1</ele>
    <time>2026-08-23T16:46:05Z</time>
   </trkpt>
   <trkpt lat="53.5361690" lon="-113.4859780">
    <ele>623.1</ele>
    <time>2026-08-23T16:46:06Z</time>
   </trkpt>
   <trkpt lat="53.5362230" lon="-113.4859750">
    <ele>623.1</ele>
    <time>2026-08-23T16:46:07Z</time>
   </trkpt>
   <trkpt lat="53.5362690" lon="-113.4859890">
    <ele>623.1</ele>
    <time>2026-08-23T16:46:08Z</time>
   </trkpt>
   <trkpt lat="53.5363200" lon="-113.4859980">
    <ele>623.2</ele>
    <time>2026-08-23T16:46:09Z</time>
   </trkpt>
   <trkpt lat="53.5363470" lon="-113.4859950">
    <ele>623.2</ele>
    <time>2026-08-23T16:46:10Z</time>
   </trkpt>
   <trkpt lat="53.5363830" lon="-113.4859860">
    <ele>623.3</ele>
    <time>2026-08-23T16:46:11Z</time>
   </trkpt>
   <trkpt lat="53.5364110" lon="-113.4859730">
    <ele>623.3</ele>
    <time>2026-08-23T16:46:12Z</time>
   </trkpt>
   <trkpt lat="53.5364350" lon="-113.4859530">
    <ele>623.4</ele>
    <time>2026-08-23T16:46:13Z</time>
   </trkpt>
   <trkpt lat="53.5364500" lon="-113.4859190">
    <ele>623.5</ele>
    <time>2026-08-23T16:46:14Z</time>
   </trkpt>
   <trkpt lat="53.5364720" lon="-113.4858870">
    <ele>623.5</ele>
    <time>2026-08-23T16:46:15Z</time>
   </trkpt>
   <trkpt lat="53.5364840" lon="-113.4858690">
    <ele>623.6</ele>
    <time>2026-08-23T16:46:16Z</time>
   </trkpt>
   <trkpt lat="53.5365080" lon="-113.4858590">
    <ele>623.6</ele>
    <time>2026-08-23T16:46:17Z</time>
   </trkpt>
   <trkpt lat="53.5365230" lon="-113.4858370">
    <ele>623.7</ele>
    <time>2026-08-23T16:46:18Z</time>
   </trkpt>
   <trkpt lat="53.5365390" lon="-113.4858070">
    <ele>623.7</ele>
    <time>2026-08-23T16:46:19Z</time>
   </trkpt>
   <trkpt lat="53.5365550" lon="-113.4857810">
    <ele>623.8</ele>
    <time>2026-08-23T16:46:20Z</time>
   </trkpt>
   <trkpt lat="53.5365700" lon="-113.4857480">
    <ele>623.9</ele>
    <time>2026-08-23T16:46:21Z</time>
   </trkpt>
   <trkpt lat="53.5365850" lon="-113.4857170">
    <ele>624.0</ele>
    <time>2026-08-23T16:46:22Z</time>
   </trkpt>
   <trkpt lat="53.5366010" lon="-113.4856820">
    <ele>624.0</ele>
    <time>2026-08-23T16:46:23Z</time>
   </trkpt>
   <trkpt lat="53.5366190" lon="-113.4856500">
    <ele>624.1</ele>
    <time>2026-08-23T16:46:24Z</time>
   </trkpt>
   <trkpt lat="53.5366360" lon="-113.4856210">
    <ele>624.2</ele>
    <time>2026-08-23T16:46:25Z</time>
   </trkpt>
   <trkpt lat="53.5366510" lon="-113.4855880">
    <ele>624.2</ele>
    <time>2026-08-23T16:46:26Z</time>
   </trkpt>
   <trkpt lat="53.5366760" lon="-113.4855660">
    <ele>624.3</ele>
    <time>2026-08-23T16:46:27Z</time>
   </trkpt>
   <trkpt lat="53.5367040" lon="-113.4855490">
    <ele>624.3</ele>
    <time>2026-08-23T16:46:28Z</time>
   </trkpt>
   <trkpt lat="53.5367330" lon="-113.4855600">
    <ele>624.3</ele>
    <time>2026-08-23T16:46:29Z</time>
   </trkpt>
   <trkpt lat="53.5367530" lon="-113.4855770">
    <ele>624.2</ele>
    <time>2026-08-23T16:46:30Z</time>
   </trkpt>
   <trkpt lat="53.5367650" lon="-113.4856050">
    <ele>624.2</ele>
    <time>2026-08-23T16:46:31Z</time>
   </trkpt>
   <trkpt lat="53.5367760" lon="-113.4856360">
    <ele>624.1</ele>
    <time>2026-08-23T16:46:32Z</time>
   </trkpt>
   <trkpt lat="53.5367880" lon="-113.4856570">
    <ele>624.1</ele>
    <time>2026-08-23T16:46:33Z</time>
   </trkpt>
   <trkpt lat="53.5368110" lon="-113.4856620">
    <ele>624.1</ele>
    <time>2026-08-23T16:46:34Z</time>
   </trkpt>
   <trkpt lat="53.5368350" lon="-113.4856610">
    <ele>624.0</ele>
    <time>2026-08-23T16:46:35Z</time>
   </trkpt>
   <trkpt lat="53.5368550" lon="-113.4856530">
    <ele>624.0</ele>
    <time>2026-08-23T16:46:36Z</time>
   </trkpt>
   <trkpt lat="53.5368770" lon="-113.4856480">
    <ele>624.0</ele>
    <time>2026-08-23T16:46:37Z</time>
   </trkpt>
   <trkpt lat="53.5368970" lon="-113.4856410">
    <ele>623.9</ele>
    <time>2026-08-23T16:46:38Z</time>
   </trkpt>
   <trkpt lat="53.5369110" lon="-113.4856270">
    <ele>623.9</ele>
    <time>2026-08-23T16:46:39Z</time>
   </trkpt>
   <trkpt lat="53.5369270" lon="-113.4856220">
    <ele>623.9</ele>
    <time>2026-08-23T16:46:40Z</time>
   </trkpt>
   <trkpt lat="53.5369400" lon="-113.4856050">
    <ele>623.9</ele>
    <time>2026-08-23T16:46:41Z</time>
   </trkpt>
   <trkpt lat="53.5369550" lon="-113.4855920">
    <ele>623.8</ele>
    <time>2026-08-23T16:46:42Z</time>
   </trkpt>
   <trkpt lat="53.5369710" lon="-113.4855800">
    <ele>623.8</ele>
    <time>2026-08-23T16:46:43Z</time>
   </trkpt>
   <trkpt lat="53.5369900" lon="-113.4855590">
    <ele>623.7</ele>
    <time>2026-08-23T16:46:44Z</time>
   </trkpt>
   <trkpt lat="53.5370330" lon="-113.4855570">
    <ele>623.6</ele>
    <time>2026-08-23T16:46:45Z</time>
   </trkpt>
   <trkpt lat="53.5370680" lon="-113.4855500">
    <ele>623.4</ele>
    <time>2026-08-23T16:46:46Z</time>
   </trkpt>
   <trkpt lat="53.5371100" lon="-113.4855560">
    <ele>623.2</ele>
    <time>2026-08-23T16:46:47Z</time>
   </trkpt>
   <trkpt lat="53.5371450" lon="-113.4855330">
    <ele>623.0</ele>
    <time>2026-08-23T16:46:48Z</time>
   </trkpt>
   <trkpt lat="53.5371840" lon="-113.4855210">
    <ele>622.8</ele>
    <time>2026-08-23T16:46:49Z</time>
   </trkpt>
   <trkpt lat="53.5372190" lon="-113.4855120">
    <ele>622.5</ele>
    <time>2026-08-23T16:46:50Z</time>
   </trkpt>
   <trkpt lat="53.5372570" lon="-113.4855110">
    <ele>622.2</ele>
    <time>2026-08-23T16:46:51Z</time>
   </trkpt>
   <trkpt lat="53.5372970" lon="-113.4855090">
    <ele>621.9</ele>
    <time>2026-08-23T16:46:52Z</time>
   </trkpt>
   <trkpt lat="53.5373420" lon="-113.4855040">
    <ele>621.6</ele>
    <time>2026-08-23T16:46:53Z</time>
   </trkpt>
   <trkpt lat="53.5373900" lon="-113.4854730">
    <ele>621.1</ele>
    <time>2026-08-23T16:46:54Z</time>
   </trkpt>
   <trkpt lat="53.5374460" lon="-113.4854190">
    <ele>621.1</ele>
    <time>2026-08-23T16:46:55Z</time>
   </trkpt>
   <trkpt lat="53.5375050" lon="-113.4853740">
    <ele>621.1</ele>
    <time>2026-08-23T16:46:56Z</time>
   </trkpt>
   <trkpt lat="53.5375540" lon="-113.4853180">
    <ele>621.2</ele>
    <time>2026-08-23T16:46:57Z</time>
   </trkpt>
   <trkpt lat="53.5376010" lon="-113.4852640">
    <ele>621.4</ele>
    <time>2026-08-23T16:46:58Z</time>
   </trkpt>
   <trkpt lat="53.5376470" lon="-113.4851980">
    <ele>621.8</ele>
    <time>2026-08-23T16:46:59Z</time>
   </trkpt>
   <trkpt lat="53.5376660" lon="-113.4851810">
    <ele>621.9</ele>
    <time>2026-08-23T16:47:00Z</time>
   </trkpt>
   <trkpt lat="53.5376570" lon="-113.4851540">
    <ele>622.0</ele>
    <time>2026-08-23T16:47:01Z</time>
   </trkpt>
   <trkpt lat="53.5376660" lon="-113.4851330">
    <ele>622.1</ele>
    <time>2026-08-23T16:47:02Z</time>
   </trkpt>
   <trkpt lat="53.5376690" lon="-113.4851110">
    <ele>622.2</ele>
    <time>2026-08-23T16:47:03Z</time>
   </trkpt>
   <trkpt lat="53.5376740" lon="-113.4851030">
    <ele>622.2</ele>
    <time>2026-08-23T16:47:04Z</time>
   </trkpt>
   <trkpt lat="53.5376900" lon="-113.4850840">
    <ele>622.3</ele>
    <time>2026-08-23T16:47:05Z</time>
   </trkpt>
   <trkpt lat="53.5376990" lon="-113.4850780">
    <ele>622.3</ele>
    <time>2026-08-23T16:47:06Z</time>
   </trkpt>
   <trkpt lat="53.5377130" lon="-113.4850460">
    <ele>622.4</ele>
    <time>2026-08-23T16:47:07Z</time>
   </trkpt>
   <trkpt lat="53.5377270" lon="-113.4850250">
    <ele>622.5</ele>
    <time>2026-08-23T16:47:08Z</time>
   </trkpt>
   <trkpt lat="53.5377300" lon="-113.4850100">
    <ele>622.5</ele>
    <time>2026-08-23T16:47:09Z</time>
   </trkpt>
   <trkpt lat="53.5377320" lon="-113.4849920">
    <ele>622.6</ele>
    <time>2026-08-23T16:47:10Z</time>
   </trkpt>
   <trkpt lat="53.5377410" lon="-113.4849750">
    <ele>622.6</ele>
    <time>2026-08-23T16:47:11Z</time>
   </trkpt>
   <trkpt lat="53.5377510" lon="-113.4849570">
    <ele>622.7</ele>
    <time>2026-08-23T16:47:12Z</time>
   </trkpt>
   <trkpt lat="53.5377680" lon="-113.4849540">
    <ele>622.8</ele>
    <time>2026-08-23T16:47:13Z</time>
   </trkpt>
   <trkpt lat="53.5377820" lon="-113.4849450">
    <ele>622.8</ele>
    <time>2026-08-23T16:47:14Z</time>
   </trkpt>
   <trkpt lat="53.5377940" lon="-113.4849320">
    <ele>622.8</ele>
    <time>2026-08-23T16:47:15Z</time>
   </trkpt>
   <trkpt lat="53.5377990" lon="-113.4849260">
    <ele>622.8</ele>
    <time>2026-08-23T16:47:16Z</time>
   </trkpt>
   <trkpt lat="53.5378070" lon="-113.4849130">
    <ele>622.8</ele>
    <time>2026-08-23T16:47:17Z</time>
   </trkpt>
   <trkpt lat="53.5378170" lon="-113.4849010">
    <ele>622.8</ele>
    <time>2026-08-23T16:47:18Z</time>
   </trkpt>
   <trkpt lat="53.5378250" lon="-113.4848830">
    <ele>622.8</ele>
    <time>2026-08-23T16:47:19Z</time>
   </trkpt>
   <trkpt lat="53.5378330" lon="-113.4848720">
    <ele>622.8</ele>
    <time>2026-08-23T16:47:20Z</time>
   </trkpt>
   <trkpt lat="53.5378460" lon="-113.4848650">
    <ele>622.8</ele>
    <time>2026-08-23T16:47:21Z</time>
   </trkpt>
   <trkpt lat="53.5378590" lon="-113.4848540">
    <ele>622.8</ele>
    <time>2026-08-23T16:47:22Z</time>
   </trkpt>
   <trkpt lat="53.5378670" lon="-113.4848440">
    <ele>622.8</ele>
    <time>2026-08-23T16:47:24Z</time>
   </trkpt>
   <trkpt lat="53.5378830" lon="-113.4848360">
    <ele>622.8</ele>
    <time>2026-08-23T16:47:25Z</time>
   </trkpt>
   <trkpt lat="53.5378950" lon="-113.4848250">
    <ele>622.8</ele>
    <time>2026-08-23T16:47:26Z</time>
   </trkpt>
   <trkpt lat="53.5379030" lon="-113.4848020">
    <ele>622.8</ele>
    <time>2026-08-23T16:47:27Z</time>
   </trkpt>
   <trkpt lat="53.5379220" lon="-113.4847930">
    <ele>622.8</ele>
    <time>2026-08-23T16:47:28Z</time>
   </trkpt>
   <trkpt lat="53.5379290" lon="-113.4847690">
    <ele>622.8</ele>
    <time>2026-08-23T16:47:29Z</time>
   </trkpt>
   <trkpt lat="53.5379390" lon="-113.4847520">
    <ele>622.8</ele>
    <time>2026-08-23T16:47:30Z</time>
   </trkpt>
   <trkpt lat="53.5379470" lon="-113.4847240">
    <ele>622.8</ele>
    <time>2026-08-23T16:47:31Z</time>
   </trkpt>
   <trkpt lat="53.5379570" lon="-113.4847000">
    <ele>622.8</ele>
    <time>2026-08-23T16:47:32Z</time>
   </trkpt>
   <trkpt lat="53.5379660" lon="-113.4846810">
    <ele>622.8</ele>
    <time>2026-08-23T16:47:33Z</time>
   </trkpt>
   <trkpt lat="53.5379770" lon="-113.4846590">
    <ele>622.7</ele>
    <time>2026-08-23T16:47:34Z</time>
   </trkpt>
   <trkpt lat="53.5379930" lon="-113.4846360">
    <ele>622.7</ele>
    <time>2026-08-23T16:47:35Z</time>
   </trkpt>
   <trkpt lat="53.5380030" lon="-113.4846100">
    <ele>622.7</ele>
    <time>2026-08-23T16:47:36Z</time>
   </trkpt>
   <trkpt lat="53.5380270" lon="-113.4845940">
    <ele>622.7</ele>
    <time>2026-08-23T16:47:37Z</time>
   </trkpt>
   <trkpt lat="53.5380470" lon="-113.4845730">
    <ele>622.7</ele>
    <time>2026-08-23T16:47:38Z</time>
   </trkpt>
   <trkpt lat="53.5380570" lon="-113.4845430">
    <ele>622.7</ele>
    <time>2026-08-23T16:47:39Z</time>
   </trkpt>
   <trkpt lat="53.5380730" lon="-113.4845160">
    <ele>622.7</ele>
    <time>2026-08-23T16:47:40Z</time>
   </trkpt>
   <trkpt lat="53.5380840" lon="-113.4844810">
    <ele>622.6</ele>
    <time>2026-08-23T16:47:41Z</time>
   </trkpt>
   <trkpt lat="53.5381000" lon="-113.4844610">
    <ele>622.6</ele>
    <time>2026-08-23T16:47:42Z</time>
   </trkpt>
   <trkpt lat="53.5381110" lon="-113.4844340">
    <ele>622.6</ele>
    <time>2026-08-23T16:47:43Z</time>
   </trkpt>
   <trkpt lat="53.5381170" lon="-113.4844050">
    <ele>622.6</ele>
    <time>2026-08-23T16:47:44Z</time>
   </trkpt>
   <trkpt lat="53.5381320" lon="-113.4843510">
    <ele>622.6</ele>
    <time>2026-08-23T16:47:45Z</time>
   </trkpt>
   <trkpt lat="53.5381540" lon="-113.4843050">
    <ele>622.6</ele>
    <time>2026-08-23T16:47:46Z</time>
   </trkpt>
   <trkpt lat="53.5381770" lon="-113.4842650">
    <ele>622.6</ele>
    <time>2026-08-23T16:47:47Z</time>
   </trkpt>
   <trkpt lat="53.5382220" lon="-113.4842000">
    <ele>622.6</ele>
    <time>2026-08-23T16:47:48Z</time>
   </trkpt>
   <trkpt lat="53.5382510" lon="-113.4841470">
    <ele>622.6</ele>
    <time>2026-08-23T16:47:49Z</time>
   </trkpt>
   <trkpt lat="53.5382810" lon="-113.4841020">
    <ele>622.5</ele>
    <time>2026-08-23T16:47:50Z</time>
   </trkpt>
   <trkpt lat="53.5383070" lon="-113.4840510">
    <ele>622.5</ele>
    <time>2026-08-23T16:47:51Z</time>
   </trkpt>
   <trkpt lat="53.5383000" lon="-113.4840450">
    <ele>622.5</ele>
    <time>2026-08-23T16:47:52Z</time>
   </trkpt>
   <trkpt lat="53.5383080" lon="-113.4839890">
    <ele>622.5</ele>
    <time>2026-08-23T16:47:53Z</time>
   </trkpt>
   <trkpt lat="53.5383180" lon="-113.4839560">
    <ele>622.5</ele>
    <time>2026-08-23T16:47:54Z</time>
   </trkpt>
   <trkpt lat="53.5383350" lon="-113.4839200">
    <ele>622.5</ele>
    <time>2026-08-23T16:47:55Z</time>
   </trkpt>
   <trkpt lat="53.5383470" lon="-113.4838800">
    <ele>622.5</ele>
    <time>2026-08-23T16:47:56Z</time>
   </trkpt>
   <trkpt lat="53.5383590" lon="-113.4838430">
    <ele>622.5</ele>
    <time>2026-08-23T16:47:57Z</time>
   </trkpt>
   <trkpt lat="53.5383680" lon="-113.4838030">
    <ele>622.5</ele>
    <time>2026-08-23T16:47:58Z</time>
   </trkpt>
   <trkpt lat="53.5383940" lon="-113.4837290">
    <ele>622.5</ele>
    <time>2026-08-23T16:47:59Z</time>
   </trkpt>
   <trkpt lat="53.5384090" lon="-113.4836980">
    <ele>622.5</ele>
    <time>2026-08-23T16:48:00Z</time>
   </trkpt>
   <trkpt lat="53.5384190" lon="-113.4836620">
    <ele>622.5</ele>
    <time>2026-08-23T16:48:01Z</time>
   </trkpt>
   <trkpt lat="53.5384320" lon="-113.4836310">
    <ele>622.5</ele>
    <time>2026-08-23T16:48:02Z</time>
   </trkpt>
   <trkpt lat="53.5384420" lon="-113.4835980">
    <ele>622.5</ele>
    <time>2026-08-23T16:48:03Z</time>
   </trkpt>
   <trkpt lat="53.5384550" lon="-113.4835480">
    <ele>622.5</ele>
    <time>2026-08-23T16:48:04Z</time>
   </trkpt>
   <trkpt lat="53.5384690" lon="-113.4835050">
    <ele>622.5</ele>
    <time>2026-08-23T16:48:05Z</time>
   </trkpt>
   <trkpt lat="53.5384920" lon="-113.4834590">
    <ele>622.5</ele>
    <time>2026-08-23T16:48:06Z</time>
   </trkpt>
   <trkpt lat="53.5385070" lon="-113.4834210">
    <ele>622.4</ele>
    <time>2026-08-23T16:48:07Z</time>
   </trkpt>
   <trkpt lat="53.5385160" lon="-113.4833730">
    <ele>622.4</ele>
    <time>2026-08-23T16:48:08Z</time>
   </trkpt>
   <trkpt lat="53.5385270" lon="-113.4833240">
    <ele>622.4</ele>
    <time>2026-08-23T16:48:09Z</time>
   </trkpt>
   <trkpt lat="53.5385380" lon="-113.4832700">
    <ele>622.4</ele>
    <time>2026-08-23T16:48:10Z</time>
   </trkpt>
   <trkpt lat="53.5385540" lon="-113.4832300">
    <ele>622.4</ele>
    <time>2026-08-23T16:48:11Z</time>
   </trkpt>
   <trkpt lat="53.5385700" lon="-113.4831850">
    <ele>622.4</ele>
    <time>2026-08-23T16:48:12Z</time>
   </trkpt>
   <trkpt lat="53.5385800" lon="-113.4831370">
    <ele>622.4</ele>
    <time>2026-08-23T16:48:13Z</time>
   </trkpt>
   <trkpt lat="53.5385940" lon="-113.4830900">
    <ele>622.4</ele>
    <time>2026-08-23T16:48:14Z</time>
   </trkpt>
   <trkpt lat="53.5386080" lon="-113.4830470">
    <ele>622.4</ele>
    <time>2026-08-23T16:48:15Z</time>
   </trkpt>
   <trkpt lat="53.5386200" lon="-113.4829990">
    <ele>622.4</ele>
    <time>2026-08-23T16:48:16Z</time>
   </trkpt>
   <trkpt lat="53.5386320" lon="-113.4829500">
    <ele>622.4</ele>
    <time>2026-08-23T16:48:17Z</time>
   </trkpt>
   <trkpt lat="53.5386460" lon="-113.4829070">
    <ele>622.4</ele>
    <time>2026-08-23T16:48:18Z</time>
   </trkpt>
   <trkpt lat="53.5386630" lon="-113.4828720">
    <ele>622.3</ele>
    <time>2026-08-23T16:48:19Z</time>
   </trkpt>
   <trkpt lat="53.5386670" lon="-113.4828320">
    <ele>622.3</ele>
    <time>2026-08-23T16:48:20Z</time>
   </trkpt>
   <trkpt lat="53.5386680" lon="-113.4827770">
    <ele>622.3</ele>
    <time>2026-08-23T16:48:21Z</time>
   </trkpt>
   <trkpt lat="53.5386660" lon="-113.4827410">
    <ele>622.3</ele>
    <time>2026-08-23T16:48:22Z</time>
   </trkpt>
   <trkpt lat="53.5386710" lon="-113.4827000">
    <ele>622.3</ele>
    <time>2026-08-23T16:48:23Z</time>
   </trkpt>
   <trkpt lat="53.5386780" lon="-113.4826480">
    <ele>622.3</ele>
    <time>2026-08-23T16:48:24Z</time>
   </trkpt>
   <trkpt lat="53.5386870" lon="-113.4826020">
    <ele>622.3</ele>
    <time>2026-08-23T16:48:25Z</time>
   </trkpt>
   <trkpt lat="53.5387120" lon="-113.4825630">
    <ele>622.3</ele>
    <time>2026-08-23T16:48:26Z</time>
   </trkpt>
   <trkpt lat="53.5387280" lon="-113.4825240">
    <ele>622.2</ele>
    <time>2026-08-23T16:48:27Z</time>
   </trkpt>
   <trkpt lat="53.5387410" lon="-113.4824850">
    <ele>622.2</ele>
    <time>2026-08-23T16:48:28Z</time>
   </trkpt>
   <trkpt lat="53.5387550" lon="-113.4824390">
    <ele>622.2</ele>
    <time>2026-08-23T16:48:29Z</time>
   </trkpt>
   <trkpt lat="53.5387650" lon="-113.4823970">
    <ele>622.2</ele>
    <time>2026-08-23T16:48:30Z</time>
   </trkpt>
   <trkpt lat="53.5387800" lon="-113.4823590">
    <ele>622.2</ele>
    <time>2026-08-23T16:48:31Z</time>
   </trkpt>
   <trkpt lat="53.5387950" lon="-113.4823200">
    <ele>622.2</ele>
    <time>2026-08-23T16:48:32Z</time>
   </trkpt>
   <trkpt lat="53.5388130" lon="-113.4822760">
    <ele>622.1</ele>
    <time>2026-08-23T16:48:33Z</time>
   </trkpt>
   <trkpt lat="53.5388230" lon="-113.4822390">
    <ele>622.1</ele>
    <time>2026-08-23T16:48:34Z</time>
   </trkpt>
   <trkpt lat="53.5388400" lon="-113.4822020">
    <ele>622.1</ele>
    <time>2026-08-23T16:48:35Z</time>
   </trkpt>
   <trkpt lat="53.5388590" lon="-113.4821650">
    <ele>622.1</ele>
    <time>2026-08-23T16:48:36Z</time>
   </trkpt>
   <trkpt lat="53.5388810" lon="-113.4821280">
    <ele>622.1</ele>
    <time>2026-08-23T16:48:37Z</time>
   </trkpt>
   <trkpt lat="53.5389120" lon="-113.4820960">
    <ele>622.0</ele>
    <time>2026-08-23T16:48:38Z</time>
   </trkpt>
   <trkpt lat="53.5389380" lon="-113.4820650">
    <ele>622.0</ele>
    <time>2026-08-23T16:48:39Z</time>
   </trkpt>
   <trkpt lat="53.5389620" lon="-113.4820410">
    <ele>622.0</ele>
    <time>2026-08-23T16:48:40Z</time>
   </trkpt>
   <trkpt lat="53.5389840" lon="-113.4820100">
    <ele>622.0</ele>
    <time>2026-08-23T16:48:41Z</time>
   </trkpt>
   <trkpt lat="53.5390060" lon="-113.4819790">
    <ele>622.0</ele>
    <time>2026-08-23T16:48:42Z</time>
   </trkpt>
   <trkpt lat="53.5390290" lon="-113.4819580">
    <ele>621.9</ele>
    <time>2026-08-23T16:48:43Z</time>
   </trkpt>
   <trkpt lat="53.5390510" lon="-113.4819460">
    <ele>621.9</ele>
    <time>2026-08-23T16:48:44Z</time>
   </trkpt>
   <trkpt lat="53.5390590" lon="-113.4819180">
    <ele>621.9</ele>
    <time>2026-08-23T16:48:45Z</time>
   </trkpt>
   <trkpt lat="53.5390770" lon="-113.4818910">
    <ele>621.9</ele>
    <time>2026-08-23T16:48:46Z</time>
   </trkpt>
   <trkpt lat="53.5390850" lon="-113.4818540">
    <ele>621.9</ele>
    <time>2026-08-23T16:48:47Z</time>
   </trkpt>
   <trkpt lat="53.5390930" lon="-113.4818210">
    <ele>621.8</ele>
    <time>2026-08-23T16:48:48Z</time>
   </trkpt>
   <trkpt lat="53.5390980" lon="-113.4817870">
    <ele>621.8</ele>
    <time>2026-08-23T16:48:49Z</time>
   </trkpt>
   <trkpt lat="53.5391110" lon="-113.4817470">
    <ele>621.8</ele>
    <time>2026-08-23T16:48:50Z</time>
   </trkpt>
   <trkpt lat="53.5391170" lon="-113.4817030">
    <ele>621.7</ele>
    <time>2026-08-23T16:48:51Z</time>
   </trkpt>
   <trkpt lat="53.5391360" lon="-113.4816830">
    <ele>621.7</ele>
    <time>2026-08-23T16:48:52Z</time>
   </trkpt>
   <trkpt lat="53.5391390" lon="-113.4816270">
    <ele>621.6</ele>
    <time>2026-08-23T16:48:53Z</time>
   </trkpt>
   <trkpt lat="53.5391350" lon="-113.4815770">
    <ele>621.5</ele>
    <time>2026-08-23T16:48:54Z</time>
   </trkpt>
   <trkpt lat="53.5391440" lon="-113.4815130">
    <ele>621.5</ele>
    <time>2026-08-23T16:48:55Z</time>
   </trkpt>
   <trkpt lat="53.5391520" lon="-113.4814340">
    <ele>621.4</ele>
    <time>2026-08-23T16:48:56Z</time>
   </trkpt>
   <trkpt lat="53.5391650" lon="-113.4813530">
    <ele>621.4</ele>
    <time>2026-08-23T16:48:57Z</time>
   </trkpt>
   <trkpt lat="53.5391760" lon="-113.4812830">
    <ele>621.4</ele>
    <time>2026-08-23T16:48:58Z</time>
   </trkpt>
   <trkpt lat="53.5391900" lon="-113.4812290">
    <ele>621.4</ele>
    <time>2026-08-23T16:48:59Z</time>
   </trkpt>
   <trkpt lat="53.5392050" lon="-113.4811810">
    <ele>621.4</ele>
    <time>2026-08-23T16:49:00Z</time>
   </trkpt>
   <trkpt lat="53.5392280" lon="-113.4811460">
    <ele>621.4</ele>
    <time>2026-08-23T16:49:01Z</time>
   </trkpt>
   <trkpt lat="53.5392540" lon="-113.4811190">
    <ele>621.4</ele>
    <time>2026-08-23T16:49:02Z</time>
   </trkpt>
   <trkpt lat="53.5392770" lon="-113.4811010">
    <ele>621.3</ele>
    <time>2026-08-23T16:49:03Z</time>
   </trkpt>
   <trkpt lat="53.5392890" lon="-113.4810690">
    <ele>621.3</ele>
    <time>2026-08-23T16:49:04Z</time>
   </trkpt>
   <trkpt lat="53.5393000" lon="-113.4810410">
    <ele>621.3</ele>
    <time>2026-08-23T16:49:05Z</time>
   </trkpt>
   <trkpt lat="53.5393060" lon="-113.4810010">
    <ele>621.3</ele>
    <time>2026-08-23T16:49:06Z</time>
   </trkpt>
   <trkpt lat="53.5393190" lon="-113.4809680">
    <ele>621.3</ele>
    <time>2026-08-23T16:49:07Z</time>
   </trkpt>
   <trkpt lat="53.5393170" lon="-113.4809300">
    <ele>621.3</ele>
    <time>2026-08-23T16:49:08Z</time>
   </trkpt>
   <trkpt lat="53.5393090" lon="-113.4809010">
    <ele>621.2</ele>
    <time>2026-08-23T16:49:09Z</time>
   </trkpt>
   <trkpt lat="53.5393070" lon="-113.4808860">
    <ele>621.2</ele>
    <time>2026-08-23T16:49:10Z</time>
   </trkpt>
   <trkpt lat="53.5393080" lon="-113.4808520">
    <ele>621.2</ele>
    <time>2026-08-23T16:49:11Z</time>
   </trkpt>
   <trkpt lat="53.5393110" lon="-113.4808230">
    <ele>621.2</ele>
    <time>2026-08-23T16:49:12Z</time>
   </trkpt>
   <trkpt lat="53.5393180" lon="-113.4807780">
    <ele>621.1</ele>
    <time>2026-08-23T16:49:13Z</time>
   </trkpt>
   <trkpt lat="53.5393210" lon="-113.4807300">
    <ele>621.1</ele>
    <time>2026-08-23T16:49:14Z</time>
   </trkpt>
   <trkpt lat="53.5393240" lon="-113.4806890">
    <ele>621.1</ele>
    <time>2026-08-23T16:49:15Z</time>
   </trkpt>
   <trkpt lat="53.5393290" lon="-113.4806400">
    <ele>621.0</ele>
    <time>2026-08-23T16:49:16Z</time>
   </trkpt>
   <trkpt lat="53.5393320" lon="-113.4806000">
    <ele>621.0</ele>
    <time>2026-08-23T16:49:17Z</time>
   </trkpt>
   <trkpt lat="53.5393370" lon="-113.4805670">
    <ele>620.9</ele>
    <time>2026-08-23T16:49:18Z</time>
   </trkpt>
   <trkpt lat="53.5393390" lon="-113.4805180">
    <ele>620.9</ele>
    <time>2026-08-23T16:49:19Z</time>
   </trkpt>
   <trkpt lat="53.5393440" lon="-113.4804820">
    <ele>620.8</ele>
    <time>2026-08-23T16:49:20Z</time>
   </trkpt>
   <trkpt lat="53.5393520" lon="-113.4804350">
    <ele>620.8</ele>
    <time>2026-08-23T16:49:21Z</time>
   </trkpt>
   <trkpt lat="53.5393530" lon="-113.4803880">
    <ele>620.7</ele>
    <time>2026-08-23T16:49:22Z</time>
   </trkpt>
   <trkpt lat="53.5393530" lon="-113.4803370">
    <ele>620.6</ele>
    <time>2026-08-23T16:49:23Z</time>
   </trkpt>
   <trkpt lat="53.5393590" lon="-113.4802760">
    <ele>620.5</ele>
    <time>2026-08-23T16:49:24Z</time>
   </trkpt>
   <trkpt lat="53.5393640" lon="-113.4802300">
    <ele>620.3</ele>
    <time>2026-08-23T16:49:25Z</time>
   </trkpt>
   <trkpt lat="53.5393760" lon="-113.4801780">
    <ele>620.0</ele>
    <time>2026-08-23T16:49:26Z</time>
   </trkpt>
   <trkpt lat="53.5393800" lon="-113.4801160">
    <ele>619.7</ele>
    <time>2026-08-23T16:49:27Z</time>
   </trkpt>
   <trkpt lat="53.5393920" lon="-113.4800550">
    <ele>619.3</ele>
    <time>2026-08-23T16:49:28Z</time>
   </trkpt>
   <trkpt lat="53.5394000" lon="-113.4799520">
    <ele>618.8</ele>
    <time>2026-08-23T16:49:30Z</time>
   </trkpt>
   <trkpt lat="53.5393940" lon="-113.4798660">
    <ele>618.4</ele>
    <time>2026-08-23T16:49:31Z</time>
   </trkpt>
   <trkpt lat="53.5393570" lon="-113.4797980">
    <ele>618.1</ele>
    <time>2026-08-23T16:49:32Z</time>
   </trkpt>
   <trkpt lat="53.5393160" lon="-113.4796940">
    <ele>617.8</ele>
    <time>2026-08-23T16:49:33Z</time>
   </trkpt>
   <trkpt lat="53.5392750" lon="-113.4796350">
    <ele>617.8</ele>
    <time>2026-08-23T16:49:34Z</time>
   </trkpt>
   <trkpt lat="53.5392490" lon="-113.4795810">
    <ele>617.8</ele>
    <time>2026-08-23T16:49:35Z</time>
   </trkpt>
   <trkpt lat="53.5392330" lon="-113.4795440">
    <ele>617.8</ele>
    <time>2026-08-23T16:49:36Z</time>
   </trkpt>
   <trkpt lat="53.5392170" lon="-113.4794980">
    <ele>617.9</ele>
    <time>2026-08-23T16:49:37Z</time>
   </trkpt>
   <trkpt lat="53.5392040" lon="-113.4794310">
    <ele>617.9</ele>
    <time>2026-08-23T16:49:38Z</time>
   </trkpt>
   <trkpt lat="53.5391810" lon="-113.4794020">
    <ele>617.9</ele>
    <time>2026-08-23T16:49:39Z</time>
   </trkpt>
   <trkpt lat="53.5391800" lon="-113.4793250">
    <ele>617.9</ele>
    <time>2026-08-23T16:49:40Z</time>
   </trkpt>
   <trkpt lat="53.5391890" lon="-113.4792480">
    <ele>617.9</ele>
    <time>2026-08-23T16:49:41Z</time>
   </trkpt>
   <trkpt lat="53.5392040" lon="-113.4791910">
    <ele>617.9</ele>
    <time>2026-08-23T16:49:42Z</time>
   </trkpt>
   <trkpt lat="53.5392250" lon="-113.4791130">
    <ele>617.8</ele>
    <time>2026-08-23T16:49:43Z</time>
   </trkpt>
   <trkpt lat="53.5392430" lon="-113.4790480">
    <ele>617.8</ele>
    <time>2026-08-23T16:49:44Z</time>
   </trkpt>
   <trkpt lat="53.5392620" lon="-113.4790080">
    <ele>617.8</ele>
    <time>2026-08-23T16:49:45Z</time>
   </trkpt>
   <trkpt lat="53.5392790" lon="-113.4789740">
    <ele>617.7</ele>
    <time>2026-08-23T16:49:46Z</time>
   </trkpt>
   <trkpt lat="53.5392980" lon="-113.4789220">
    <ele>617.7</ele>
    <time>2026-08-23T16:49:47Z</time>
   </trkpt>
   <trkpt lat="53.5393190" lon="-113.4788690">
    <ele>617.7</ele>
    <time>2026-08-23T16:49:48Z</time>
   </trkpt>
   <trkpt lat="53.5393350" lon="-113.4788140">
    <ele>617.7</ele>
    <time>2026-08-23T16:49:49Z</time>
   </trkpt>
   <trkpt lat="53.5393610" lon="-113.4787600">
    <ele>617.7</ele>
    <time>2026-08-23T16:49:50Z</time>
   </trkpt>
   <trkpt lat="53.5393800" lon="-113.4786930">
    <ele>617.7</ele>
    <time>2026-08-23T16:49:51Z</time>
   </trkpt>
   <trkpt lat="53.5393770" lon="-113.4786400">
    <ele>617.7</ele>
    <time>2026-08-23T16:49:52Z</time>
   </trkpt>
   <trkpt lat="53.5393790" lon="-113.4785820">
    <ele>617.7</ele>
    <time>2026-08-23T16:49:53Z</time>
   </trkpt>
   <trkpt lat="53.5393690" lon="-113.4785320">
    <ele>617.7</ele>
    <time>2026-08-23T16:49:54Z</time>
   </trkpt>
   <trkpt lat="53.5393690" lon="-113.4784790">
    <ele>617.8</ele>
    <time>2026-08-23T16:49:55Z</time>
   </trkpt>
   <trkpt lat="53.5393630" lon="-113.4784370">
    <ele>617.8</ele>
    <time>2026-08-23T16:49:56Z</time>
   </trkpt>
   <trkpt lat="53.5393620" lon="-113.4783860">
    <ele>617.8</ele>
    <time>2026-08-23T16:49:57Z</time>
   </trkpt>
   <trkpt lat="53.5393490" lon="-113.4783600">
    <ele>617.9</ele>
    <time>2026-08-23T16:49:58Z</time>
   </trkpt>
   <trkpt lat="53.5393480" lon="-113.4783160">
    <ele>617.9</ele>
    <time>2026-08-23T16:49:59Z</time>
   </trkpt>
   <trkpt lat="53.5393600" lon="-113.4782670">
    <ele>618.0</ele>
    <time>2026-08-23T16:50:00Z</time>
   </trkpt>
   <trkpt lat="53.5393750" lon="-113.4782240">
    <ele>618.0</ele>
    <time>2026-08-23T16:50:01Z</time>
   </trkpt>
   <trkpt lat="53.5393890" lon="-113.4781750">
    <ele>618.1</ele>
    <time>2026-08-23T16:50:02Z</time>
   </trkpt>
   <trkpt lat="53.5394010" lon="-113.4781170">
    <ele>618.2</ele>
    <time>2026-08-23T16:50:03Z</time>
   </trkpt>
   <trkpt lat="53.5394060" lon="-113.4780740">
    <ele>618.2</ele>
    <time>2026-08-23T16:50:04Z</time>
   </trkpt>
   <trkpt lat="53.5394070" lon="-113.4780340">
    <ele>618.3</ele>
    <time>2026-08-23T16:50:05Z</time>
   </trkpt>
   <trkpt lat="53.5394120" lon="-113.4779830">
    <ele>618.4</ele>
    <time>2026-08-23T16:50:06Z</time>
   </trkpt>
   <trkpt lat="53.5393970" lon="-113.4779450">
    <ele>618.4</ele>
    <time>2026-08-23T16:50:07Z</time>
   </trkpt>
   <trkpt lat="53.5393730" lon="-113.4779410">
    <ele>618.5</ele>
    <time>2026-08-23T16:50:08Z</time>
   </trkpt>
   <trkpt lat="53.5393600" lon="-113.4779090">
    <ele>618.6</ele>
    <time>2026-08-23T16:50:09Z</time>
   </trkpt>
   <trkpt lat="53.5393470" lon="-113.4779020">
    <ele>618.6</ele>
    <time>2026-08-23T16:50:10Z</time>
   </trkpt>
   <trkpt lat="53.5393220" lon="-113.4778790">
    <ele>618.7</ele>
    <time>2026-08-23T16:50:11Z</time>
   </trkpt>
   <trkpt lat="53.5393060" lon="-113.4778590">
    <ele>618.9</ele>
    <time>2026-08-23T16:50:12Z</time>
   </trkpt>
   <trkpt lat="53.5392970" lon="-113.4778220">
    <ele>619.0</ele>
    <time>2026-08-23T16:50:13Z</time>
   </trkpt>
   <trkpt lat="53.5392790" lon="-113.4777900">
    <ele>619.2</ele>
    <time>2026-08-23T16:50:14Z</time>
   </trkpt>
   <trkpt lat="53.5392670" lon="-113.4777650">
    <ele>619.4</ele>
    <time>2026-08-23T16:50:15Z</time>
   </trkpt>
   <trkpt lat="53.5392510" lon="-113.4777500">
    <ele>619.5</ele>
    <time>2026-08-23T16:50:16Z</time>
   </trkpt>
   <trkpt lat="53.5392380" lon="-113.4777500">
    <ele>619.6</ele>
    <time>2026-08-23T16:50:17Z</time>
   </trkpt>
   <trkpt lat="53.5392300" lon="-113.4777200">
    <ele>619.7</ele>
    <time>2026-08-23T16:50:18Z</time>
   </trkpt>
   <trkpt lat="53.5392090" lon="-113.4777220">
    <ele>619.9</ele>
    <time>2026-08-23T16:50:19Z</time>
   </trkpt>
   <trkpt lat="53.5391960" lon="-113.4776980">
    <ele>620.0</ele>
    <time>2026-08-23T16:50:20Z</time>
   </trkpt>
   <trkpt lat="53.5391760" lon="-113.4776900">
    <ele>620.2</ele>
    <time>2026-08-23T16:50:21Z</time>
   </trkpt>
   <trkpt lat="53.5391580" lon="-113.4776740">
    <ele>620.3</ele>
    <time>2026-08-23T16:50:22Z</time>
   </trkpt>
   <trkpt lat="53.5391350" lon="-113.4776740">
    <ele>620.5</ele>
    <time>2026-08-23T16:50:23Z</time>
   </trkpt>
   <trkpt lat="53.5391170" lon="-113.4776650">
    <ele>620.6</ele>
    <time>2026-08-23T16:50:24Z</time>
   </trkpt>
   <trkpt lat="53.5390980" lon="-113.4776640">
    <ele>620.8</ele>
    <time>2026-08-23T16:50:25Z</time>
   </trkpt>
   <trkpt lat="53.5390790" lon="-113.4776670">
    <ele>620.9</ele>
    <time>2026-08-23T16:50:26Z</time>
   </trkpt>
   <trkpt lat="53.5390570" lon="-113.4776620">
    <ele>621.1</ele>
    <time>2026-08-23T16:50:27Z</time>
   </trkpt>
   <trkpt lat="53.5390380" lon="-113.4776500">
    <ele>621.2</ele>
    <time>2026-08-23T16:50:28Z</time>
   </trkpt>
   <trkpt lat="53.5390230" lon="-113.4776390">
    <ele>621.3</ele>
    <time>2026-08-23T16:50:29Z</time>
   </trkpt>
   <trkpt lat="53.5390090" lon="-113.4776240">
    <ele>621.4</ele>
    <time>2026-08-23T16:50:30Z</time>
   </trkpt>
   <trkpt lat="53.5389930" lon="-113.4776080">
    <ele>621.5</ele>
    <time>2026-08-23T16:50:31Z</time>
   </trkpt>
   <trkpt lat="53.5389750" lon="-113.4775840">
    <ele>621.7</ele>
    <time>2026-08-23T16:50:32Z</time>
   </trkpt>
   <trkpt lat="53.5389620" lon="-113.4775570">
    <ele>621.8</ele>
    <time>2026-08-23T16:50:33Z</time>
   </trkpt>
   <trkpt lat="53.5389450" lon="-113.4775400">
    <ele>621.9</ele>
    <time>2026-08-23T16:50:34Z</time>
   </trkpt>
   <trkpt lat="53.5389300" lon="-113.4775150">
    <ele>622.1</ele>
    <time>2026-08-23T16:50:35Z</time>
   </trkpt>
   <trkpt lat="53.5389110" lon="-113.4774980">
    <ele>622.2</ele>
    <time>2026-08-23T16:50:36Z</time>
   </trkpt>
   <trkpt lat="53.5388960" lon="-113.4774800">
    <ele>622.3</ele>
    <time>2026-08-23T16:50:37Z</time>
   </trkpt>
   <trkpt lat="53.5388840" lon="-113.4774590">
    <ele>622.4</ele>
    <time>2026-08-23T16:50:38Z</time>
   </trkpt>
   <trkpt lat="53.5388770" lon="-113.4774230">
    <ele>622.5</ele>
    <time>2026-08-23T16:50:39Z</time>
   </trkpt>
   <trkpt lat="53.5388670" lon="-113.4773890">
    <ele>622.6</ele>
    <time>2026-08-23T16:50:40Z</time>
   </trkpt>
   <trkpt lat="53.5388620" lon="-113.4773670">
    <ele>622.7</ele>
    <time>2026-08-23T16:50:41Z</time>
   </trkpt>
   <trkpt lat="53.5388570" lon="-113.4773490">
    <ele>622.7</ele>
    <time>2026-08-23T16:50:42Z</time>
   </trkpt>
   <trkpt lat="53.5388530" lon="-113.4773290">
    <ele>622.7</ele>
    <time>2026-08-23T16:50:43Z</time>
   </trkpt>
   <trkpt lat="53.5388470" lon="-113.4773120">
    <ele>622.7</ele>
    <time>2026-08-23T16:50:44Z</time>
   </trkpt>
   <trkpt lat="53.5388390" lon="-113.4772940">
    <ele>622.6</ele>
    <time>2026-08-23T16:50:45Z</time>
   </trkpt>
   <trkpt lat="53.5388290" lon="-113.4772810">
    <ele>622.6</ele>
    <time>2026-08-23T16:50:46Z</time>
   </trkpt>
   <trkpt lat="53.5388180" lon="-113.4772800">
    <ele>622.6</ele>
    <time>2026-08-23T16:50:47Z</time>
   </trkpt>
   <trkpt lat="53.5388060" lon="-113.4772800">
    <ele>622.6</ele>
    <time>2026-08-23T16:50:48Z</time>
   </trkpt>
   <trkpt lat="53.5387880" lon="-113.4772700">
    <ele>622.6</ele>
    <time>2026-08-23T16:50:49Z</time>
   </trkpt>
   <trkpt lat="53.5387880" lon="-113.4772530">
    <ele>622.6</ele>
    <time>2026-08-23T16:50:50Z</time>
   </trkpt>
   <trkpt lat="53.5387840" lon="-113.4772160">
    <ele>622.6</ele>
    <time>2026-08-23T16:50:51Z</time>
   </trkpt>
   <trkpt lat="53.5387890" lon="-113.4771920">
    <ele>622.5</ele>
    <time>2026-08-23T16:50:52Z</time>
   </trkpt>
   <trkpt lat="53.5387910" lon="-113.4771530">
    <ele>622.5</ele>
    <time>2026-08-23T16:50:53Z</time>
   </trkpt>
   <trkpt lat="53.5387850" lon="-113.4771260">
    <ele>622.5</ele>
    <time>2026-08-23T16:50:54Z</time>
   </trkpt>
   <trkpt lat="53.5387820" lon="-113.4770950">
    <ele>622.5</ele>
    <time>2026-08-23T16:50:55Z</time>
   </trkpt>
   <trkpt lat="53.5387820" lon="-113.4770500">
    <ele>622.4</ele>
    <time>2026-08-23T16:50:56Z</time>
   </trkpt>
   <trkpt lat="53.5387860" lon="-113.4770230">
    <ele>622.4</ele>
    <time>2026-08-23T16:50:57Z</time>
   </trkpt>
   <trkpt lat="53.5387980" lon="-113.4769600">
    <ele>622.3</ele>
    <time>2026-08-23T16:50:58Z</time>
   </trkpt>
   <trkpt lat="53.5388120" lon="-113.4769150">
    <ele>622.3</ele>
    <time>2026-08-23T16:50:59Z</time>
   </trkpt>
   <trkpt lat="53.5388250" lon="-113.4768710">
    <ele>622.2</ele>
    <time>2026-08-23T16:51:00Z</time>
   </trkpt>
   <trkpt lat="53.5388450" lon="-113.4768360">
    <ele>622.1</ele>
    <time>2026-08-23T16:51:01Z</time>
   </trkpt>
   <trkpt lat="53.5388590" lon="-113.4767960">
    <ele>622.1</ele>
    <time>2026-08-23T16:51:02Z</time>
   </trkpt>
   <trkpt lat="53.5388750" lon="-113.4767570">
    <ele>622.0</ele>
    <time>2026-08-23T16:51:03Z</time>
   </trkpt>
   <trkpt lat="53.5388900" lon="-113.4767130">
    <ele>622.0</ele>
    <time>2026-08-23T16:51:04Z</time>
   </trkpt>
   <trkpt lat="53.5388940" lon="-113.4766640">
    <ele>621.9</ele>
    <time>2026-08-23T16:51:05Z</time>
   </trkpt>
   <trkpt lat="53.5388960" lon="-113.4765980">
    <ele>621.8</ele>
    <time>2026-08-23T16:51:06Z</time>
   </trkpt>
   <trkpt lat="53.5389020" lon="-113.4765400">
    <ele>621.7</ele>
    <time>2026-08-23T16:51:07Z</time>
   </trkpt>
   <trkpt lat="53.5388920" lon="-113.4764740">
    <ele>621.6</ele>
    <time>2026-08-23T16:51:08Z</time>
   </trkpt>
   <trkpt lat="53.5388890" lon="-113.4763970">
    <ele>621.6</ele>
    <time>2026-08-23T16:51:09Z</time>
   </trkpt>
   <trkpt lat="53.5388850" lon="-113.4763350">
    <ele>621.5</ele>
    <time>2026-08-23T16:51:10Z</time>
   </trkpt>
   <trkpt lat="53.5388800" lon="-113.4762730">
    <ele>621.5</ele>
    <time>2026-08-23T16:51:11Z</time>
   </trkpt>
   <trkpt lat="53.5388760" lon="-113.4762150">
    <ele>621.5</ele>
    <time>2026-08-23T16:51:12Z</time>
   </trkpt>
   <trkpt lat="53.5388740" lon="-113.4761560">
    <ele>621.4</ele>
    <time>2026-08-23T16:51:13Z</time>
   </trkpt>
   <trkpt lat="53.5388670" lon="-113.4760890">
    <ele>621.3</ele>
    <time>2026-08-23T16:51:14Z</time>
   </trkpt>
   <trkpt lat="53.5388600" lon="-113.4760260">
    <ele>621.2</ele>
    <time>2026-08-23T16:51:15Z</time>
   </trkpt>
   <trkpt lat="53.5388620" lon="-113.4759620">
    <ele>621.2</ele>
    <time>2026-08-23T16:51:16Z</time>
   </trkpt>
   <trkpt lat="53.5388670" lon="-113.4759000">
    <ele>621.1</ele>
    <time>2026-08-23T16:51:17Z</time>
   </trkpt>
   <trkpt lat="53.5388670" lon="-113.4758410">
    <ele>621.0</ele>
    <time>2026-08-23T16:51:18Z</time>
   </trkpt>
   <trkpt lat="53.5388630" lon="-113.4757950">
    <ele>620.9</ele>
    <time>2026-08-23T16:51:19Z</time>
   </trkpt>
   <trkpt lat="53.5388660" lon="-113.4757360">
    <ele>620.9</ele>
    <time>2026-08-23T16:51:20Z</time>
   </trkpt>
   <trkpt lat="53.5388840" lon="-113.4756920">
    <ele>620.8</ele>
    <time>2026-08-23T16:51:21Z</time>
   </trkpt>
   <trkpt lat="53.5388970" lon="-113.4756570">
    <ele>620.7</ele>
    <time>2026-08-23T16:51:22Z</time>
   </trkpt>
   <trkpt lat="53.5388970" lon="-113.4756000">
    <ele>620.7</ele>
    <time>2026-08-23T16:51:23Z</time>
   </trkpt>
   <trkpt lat="53.5389080" lon="-113.4755570">
    <ele>620.6</ele>
    <time>2026-08-23T16:51:24Z</time>
   </trkpt>
   <trkpt lat="53.5389170" lon="-113.4755060">
    <ele>620.5</ele>
    <time>2026-08-23T16:51:25Z</time>
   </trkpt>
   <trkpt lat="53.5389200" lon="-113.4754560">
    <ele>620.5</ele>
    <time>2026-08-23T16:51:26Z</time>
   </trkpt>
   <trkpt lat="53.5389460" lon="-113.4754170">
    <ele>620.4</ele>
    <time>2026-08-23T16:51:27Z</time>
   </trkpt>
   <trkpt lat="53.5389580" lon="-113.4753790">
    <ele>620.3</ele>
    <time>2026-08-23T16:51:28Z</time>
   </trkpt>
   <trkpt lat="53.5389630" lon="-113.4753510">
    <ele>620.3</ele>
    <time>2026-08-23T16:51:29Z</time>
   </trkpt>
   <trkpt lat="53.5389750" lon="-113.4753080">
    <ele>620.2</ele>
    <time>2026-08-23T16:51:30Z</time>
   </trkpt>
   <trkpt lat="53.5389830" lon="-113.4752720">
    <ele>620.2</ele>
    <time>2026-08-23T16:51:31Z</time>
   </trkpt>
   <trkpt lat="53.5389950" lon="-113.4752210">
    <ele>620.1</ele>
    <time>2026-08-23T16:51:32Z</time>
   </trkpt>
   <trkpt lat="53.5389920" lon="-113.4751890">
    <ele>620.1</ele>
    <time>2026-08-23T16:51:33Z</time>
   </trkpt>
   <trkpt lat="53.5389980" lon="-113.4751490">
    <ele>620.1</ele>
    <time>2026-08-23T16:51:34Z</time>
   </trkpt>
   <trkpt lat="53.5390130" lon="-113.4750970">
    <ele>620.1</ele>
    <time>2026-08-23T16:51:36Z</time>
   </trkpt>
   <trkpt lat="53.5390150" lon="-113.4750640">
    <ele>620.0</ele>
    <time>2026-08-23T16:51:37Z</time>
   </trkpt>
   <trkpt lat="53.5390270" lon="-113.4750400">
    <ele>620.0</ele>
    <time>2026-08-23T16:51:38Z</time>
   </trkpt>
   <trkpt lat="53.5390340" lon="-113.4749990">
    <ele>620.0</ele>
    <time>2026-08-23T16:51:39Z</time>
   </trkpt>
   <trkpt lat="53.5390360" lon="-113.4749540">
    <ele>620.0</ele>
    <time>2026-08-23T16:51:40Z</time>
   </trkpt>
   <trkpt lat="53.5390410" lon="-113.4749290">
    <ele>620.0</ele>
    <time>2026-08-23T16:51:41Z</time>
   </trkpt>
   <trkpt lat="53.5390560" lon="-113.4748910">
    <ele>620.0</ele>
    <time>2026-08-23T16:51:42Z</time>
   </trkpt>
   <trkpt lat="53.5390650" lon="-113.4748540">
    <ele>620.0</ele>
    <time>2026-08-23T16:51:43Z</time>
   </trkpt>
   <trkpt lat="53.5390710" lon="-113.4748040">
    <ele>620.0</ele>
    <time>2026-08-23T16:51:44Z</time>
   </trkpt>
   <trkpt lat="53.5390550" lon="-113.4747730">
    <ele>620.0</ele>
    <time>2026-08-23T16:51:45Z</time>
   </trkpt>
   <trkpt lat="53.5390550" lon="-113.4747200">
    <ele>620.0</ele>
    <time>2026-08-23T16:51:46Z</time>
   </trkpt>
   <trkpt lat="53.5390440" lon="-113.4747070">
    <ele>620.0</ele>
    <time>2026-08-23T16:51:47Z</time>
   </trkpt>
   <trkpt lat="53.5390440" lon="-113.4746650">
    <ele>620.0</ele>
    <time>2026-08-23T16:51:48Z</time>
   </trkpt>
   <trkpt lat="53.5390520" lon="-113.4746150">
    <ele>620.0</ele>
    <time>2026-08-23T16:51:49Z</time>
   </trkpt>
   <trkpt lat="53.5390530" lon="-113.4745710">
    <ele>620.0</ele>
    <time>2026-08-23T16:51:50Z</time>
   </trkpt>
   <trkpt lat="53.5390580" lon="-113.4745310">
    <ele>620.0</ele>
    <time>2026-08-23T16:51:51Z</time>
   </trkpt>
   <trkpt lat="53.5390580" lon="-113.4744960">
    <ele>620.0</ele>
    <time>2026-08-23T16:51:52Z</time>
   </trkpt>
   <trkpt lat="53.5390520" lon="-113.4744490">
    <ele>620.0</ele>
    <time>2026-08-23T16:51:53Z</time>
   </trkpt>
   <trkpt lat="53.5390580" lon="-113.4744170">
    <ele>620.0</ele>
    <time>2026-08-23T16:51:54Z</time>
   </trkpt>
   <trkpt lat="53.5390570" lon="-113.4743850">
    <ele>620.0</ele>
    <time>2026-08-23T16:51:55Z</time>
   </trkpt>
   <trkpt lat="53.5390580" lon="-113.4743450">
    <ele>620.0</ele>
    <time>2026-08-23T16:51:56Z</time>
   </trkpt>
   <trkpt lat="53.5390490" lon="-113.4743200">
    <ele>620.0</ele>
    <time>2026-08-23T16:51:57Z</time>
   </trkpt>
   <trkpt lat="53.5390420" lon="-113.4742820">
    <ele>620.0</ele>
    <time>2026-08-23T16:51:58Z</time>
   </trkpt>
   <trkpt lat="53.5390410" lon="-113.4742420">
    <ele>620.0</ele>
    <time>2026-08-23T16:51:59Z</time>
   </trkpt>
   <trkpt lat="53.5390300" lon="-113.4742080">
    <ele>620.0</ele>
    <time>2026-08-23T16:52:00Z</time>
   </trkpt>
   <trkpt lat="53.5390270" lon="-113.4741640">
    <ele>620.0</ele>
    <time>2026-08-23T16:52:01Z</time>
   </trkpt>
   <trkpt lat="53.5390200" lon="-113.4741230">
    <ele>620.0</ele>
    <time>2026-08-23T16:52:02Z</time>
   </trkpt>
   <trkpt lat="53.5390160" lon="-113.4740760">
    <ele>620.0</ele>
    <time>2026-08-23T16:52:03Z</time>
   </trkpt>
   <trkpt lat="53.5390160" lon="-113.4740270">
    <ele>620.0</ele>
    <time>2026-08-23T16:52:04Z</time>
   </trkpt>
   <trkpt lat="53.5390120" lon="-113.4739840">
    <ele>620.1</ele>
    <time>2026-08-23T16:52:05Z</time>
   </trkpt>
   <trkpt lat="53.5390050" lon="-113.4739430">
    <ele>620.1</ele>
    <time>2026-08-23T16:52:06Z</time>
   </trkpt>
   <trkpt lat="53.5390000" lon="-113.4738830">
    <ele>620.1</ele>
    <time>2026-08-23T16:52:07Z</time>
   </trkpt>
   <trkpt lat="53.5389860" lon="-113.4738420">
    <ele>620.2</ele>
    <time>2026-08-23T16:52:08Z</time>
   </trkpt>
   <trkpt lat="53.5389700" lon="-113.4738100">
    <ele>620.2</ele>
    <time>2026-08-23T16:52:09Z</time>
   </trkpt>
   <trkpt lat="53.5389600" lon="-113.4737690">
    <ele>620.2</ele>
    <time>2026-08-23T16:52:10Z</time>
   </trkpt>
   <trkpt lat="53.5389480" lon="-113.4737260">
    <ele>620.3</ele>
    <time>2026-08-23T16:52:11Z</time>
   </trkpt>
   <trkpt lat="53.5389350" lon="-113.4736840">
    <ele>620.3</ele>
    <time>2026-08-23T16:52:12Z</time>
   </trkpt>
   <trkpt lat="53.5389210" lon="-113.4736460">
    <ele>620.4</ele>
    <time>2026-08-23T16:52:13Z</time>
   </trkpt>
   <trkpt lat="53.5388790" lon="-113.4736020">
    <ele>620.4</ele>
    <time>2026-08-23T16:52:14Z</time>
   </trkpt>
   <trkpt lat="53.5388680" lon="-113.4735690">
    <ele>620.5</ele>
    <time>2026-08-23T16:52:15Z</time>
   </trkpt>
   <trkpt lat="53.5388510" lon="-113.4735400">
    <ele>620.5</ele>
    <time>2026-08-23T16:52:16Z</time>
   </trkpt>
   <trkpt lat="53.5388360" lon="-113.4735080">
    <ele>620.5</ele>
    <time>2026-08-23T16:52:17Z</time>
   </trkpt>
   <trkpt lat="53.5388100" lon="-113.4734980">
    <ele>620.6</ele>
    <time>2026-08-23T16:52:18Z</time>
   </trkpt>
   <trkpt lat="53.5387950" lon="-113.4734670">
    <ele>620.6</ele>
    <time>2026-08-23T16:52:19Z</time>
   </trkpt>
   <trkpt lat="53.5387740" lon="-113.4734460">
    <ele>620.6</ele>
    <time>2026-08-23T16:52:20Z</time>
   </trkpt>
   <trkpt lat="53.5387580" lon="-113.4734220">
    <ele>620.6</ele>
    <time>2026-08-23T16:52:21Z</time>
   </trkpt>
   <trkpt lat="53.5387380" lon="-113.4733930">
    <ele>620.6</ele>
    <time>2026-08-23T16:52:22Z</time>
   </trkpt>
   <trkpt lat="53.5387170" lon="-113.4733650">
    <ele>620.7</ele>
    <time>2026-08-23T16:52:23Z</time>
   </trkpt>
   <trkpt lat="53.5386970" lon="-113.4733450">
    <ele>620.7</ele>
    <time>2026-08-23T16:52:24Z</time>
   </trkpt>
   <trkpt lat="53.5386750" lon="-113.4733160">
    <ele>620.7</ele>
    <time>2026-08-23T16:52:25Z</time>
   </trkpt>
   <trkpt lat="53.5386580" lon="-113.4732710">
    <ele>620.7</ele>
    <time>2026-08-23T16:52:26Z</time>
   </trkpt>
   <trkpt lat="53.5386500" lon="-113.4732190">
    <ele>620.7</ele>
    <time>2026-08-23T16:52:27Z</time>
   </trkpt>
   <trkpt lat="53.5386480" lon="-113.4731630">
    <ele>620.8</ele>
    <time>2026-08-23T16:52:28Z</time>
   </trkpt>
   <trkpt lat="53.5386510" lon="-113.4731030">
    <ele>620.8</ele>
    <time>2026-08-23T16:52:29Z</time>
   </trkpt>
   <trkpt lat="53.5386490" lon="-113.4730540">
    <ele>620.8</ele>
    <time>2026-08-23T16:52:30Z</time>
   </trkpt>
   <trkpt lat="53.5386520" lon="-113.4730080">
    <ele>620.8</ele>
    <time>2026-08-23T16:52:31Z</time>
   </trkpt>
   <trkpt lat="53.5386560" lon="-113.4729640">
    <ele>620.8</ele>
    <time>2026-08-23T16:52:32Z</time>
   </trkpt>
   <trkpt lat="53.5386610" lon="-113.4729280">
    <ele>620.7</ele>
    <time>2026-08-23T16:52:33Z</time>
   </trkpt>
   <trkpt lat="53.5386700" lon="-113.4728910">
    <ele>620.7</ele>
    <time>2026-08-23T16:52:34Z</time>
   </trkpt>
   <trkpt lat="53.5386810" lon="-113.4728550">
    <ele>620.7</ele>
    <time>2026-08-23T16:52:35Z</time>
   </trkpt>
   <trkpt lat="53.5387000" lon="-113.4728240">
    <ele>620.7</ele>
    <time>2026-08-23T16:52:36Z</time>
   </trkpt>
   <trkpt lat="53.5387040" lon="-113.4727850">
    <ele>620.7</ele>
    <time>2026-08-23T16:52:37Z</time>
   </trkpt>
   <trkpt lat="53.5387030" lon="-113.4727520">
    <ele>620.7</ele>
    <time>2026-08-23T16:52:38Z</time>
   </trkpt>
   <trkpt lat="53.5387050" lon="-113.4727140">
    <ele>620.7</ele>
    <time>2026-08-23T16:52:39Z</time>
   </trkpt>
   <trkpt lat="53.5387140" lon="-113.4726850">
    <ele>620.7</ele>
    <time>2026-08-23T16:52:40Z</time>
   </trkpt>
   <trkpt lat="53.5387070" lon="-113.4726530">
    <ele>620.7</ele>
    <time>2026-08-23T16:52:41Z</time>
   </trkpt>
   <trkpt lat="53.5387080" lon="-113.4726130">
    <ele>620.7</ele>
    <time>2026-08-23T16:52:42Z</time>
   </trkpt>
   <trkpt lat="53.5387090" lon="-113.4725720">
    <ele>620.7</ele>
    <time>2026-08-23T16:52:43Z</time>
   </trkpt>
   <trkpt lat="53.5387040" lon="-113.4725350">
    <ele>620.7</ele>
    <time>2026-08-23T16:52:44Z</time>
   </trkpt>
   <trkpt lat="53.5386920" lon="-113.4724970">
    <ele>620.7</ele>
    <time>2026-08-23T16:52:45Z</time>
   </trkpt>
   <trkpt lat="53.5386810" lon="-113.4724630">
    <ele>620.7</ele>
    <time>2026-08-23T16:52:46Z</time>
   </trkpt>
   <trkpt lat="53.5386690" lon="-113.4724370">
    <ele>620.7</ele>
    <time>2026-08-23T16:52:47Z</time>
   </trkpt>
   <trkpt lat="53.5386590" lon="-113.4724040">
    <ele>620.7</ele>
    <time>2026-08-23T16:52:48Z</time>
   </trkpt>
   <trkpt lat="53.5386450" lon="-113.4723730">
    <ele>620.7</ele>
    <time>2026-08-23T16:52:49Z</time>
   </trkpt>
   <trkpt lat="53.5386270" lon="-113.4723480">
    <ele>620.7</ele>
    <time>2026-08-23T16:52:50Z</time>
   </trkpt>
   <trkpt lat="53.5386040" lon="-113.4723200">
    <ele>620.7</ele>
    <time>2026-08-23T16:52:51Z</time>
   </trkpt>
   <trkpt lat="53.5385860" lon="-113.4723230">
    <ele>620.7</ele>
    <time>2026-08-23T16:52:52Z</time>
   </trkpt>
   <trkpt lat="53.5385710" lon="-113.4723020">
    <ele>620.7</ele>
    <time>2026-08-23T16:52:53Z</time>
   </trkpt>
   <trkpt lat="53.5385540" lon="-113.4722820">
    <ele>620.6</ele>
    <time>2026-08-23T16:52:54Z</time>
   </trkpt>
   <trkpt lat="53.5385360" lon="-113.4722410">
    <ele>620.6</ele>
    <time>2026-08-23T16:52:55Z</time>
   </trkpt>
   <trkpt lat="53.5385250" lon="-113.4722050">
    <ele>620.6</ele>
    <time>2026-08-23T16:52:56Z</time>
   </trkpt>
   <trkpt lat="53.5385190" lon="-113.4721680">
    <ele>620.6</ele>
    <time>2026-08-23T16:52:57Z</time>
   </trkpt>
   <trkpt lat="53.5385100" lon="-113.4721430">
    <ele>620.6</ele>
    <time>2026-08-23T16:52:58Z</time>
   </trkpt>
   <trkpt lat="53.5385020" lon="-113.4721060">
    <ele>620.6</ele>
    <time>2026-08-23T16:52:59Z</time>
   </trkpt>
   <trkpt lat="53.5385010" lon="-113.4720580">
    <ele>620.6</ele>
    <time>2026-08-23T16:53:00Z</time>
   </trkpt>
   <trkpt lat="53.5384910" lon="-113.4720080">
    <ele>620.6</ele>
    <time>2026-08-23T16:53:01Z</time>
   </trkpt>
   <trkpt lat="53.5384950" lon="-113.4719580">
    <ele>620.6</ele>
    <time>2026-08-23T16:53:02Z</time>
   </trkpt>
   <trkpt lat="53.5384970" lon="-113.4719230">
    <ele>620.6</ele>
    <time>2026-08-23T16:53:03Z</time>
   </trkpt>
   <trkpt lat="53.5384930" lon="-113.4718830">
    <ele>620.6</ele>
    <time>2026-08-23T16:53:04Z</time>
   </trkpt>
   <trkpt lat="53.5384920" lon="-113.4718310">
    <ele>620.6</ele>
    <time>2026-08-23T16:53:05Z</time>
   </trkpt>
   <trkpt lat="53.5384940" lon="-113.4717810">
    <ele>620.6</ele>
    <time>2026-08-23T16:53:06Z</time>
   </trkpt>
   <trkpt lat="53.5384890" lon="-113.4717430">
    <ele>620.6</ele>
    <time>2026-08-23T16:53:07Z</time>
   </trkpt>
   <trkpt lat="53.5384930" lon="-113.4717000">
    <ele>620.6</ele>
    <time>2026-08-23T16:53:08Z</time>
   </trkpt>
   <trkpt lat="53.5384860" lon="-113.4716640">
    <ele>620.6</ele>
    <time>2026-08-23T16:53:09Z</time>
   </trkpt>
   <trkpt lat="53.5384860" lon="-113.4716370">
    <ele>620.6</ele>
    <time>2026-08-23T16:53:10Z</time>
   </trkpt>
   <trkpt lat="53.5384890" lon="-113.4715940">
    <ele>620.6</ele>
    <time>2026-08-23T16:53:11Z</time>
   </trkpt>
   <trkpt lat="53.5384810" lon="-113.4715660">
    <ele>620.6</ele>
    <time>2026-08-23T16:53:12Z</time>
   </trkpt>
   <trkpt lat="53.5384690" lon="-113.4715280">
    <ele>620.5</ele>
    <time>2026-08-23T16:53:13Z</time>
   </trkpt>
   <trkpt lat="53.5384540" lon="-113.4714930">
    <ele>620.5</ele>
    <time>2026-08-23T16:53:14Z</time>
   </trkpt>
   <trkpt lat="53.5384440" lon="-113.4714550">
    <ele>620.5</ele>
    <time>2026-08-23T16:53:15Z</time>
   </trkpt>
   <trkpt lat="53.5384450" lon="-113.4714100">
    <ele>620.5</ele>
    <time>2026-08-23T16:53:16Z</time>
   </trkpt>
   <trkpt lat="53.5384360" lon="-113.4713740">
    <ele>620.5</ele>
    <time>2026-08-23T16:53:17Z</time>
   </trkpt>
   <trkpt lat="53.5384330" lon="-113.4713330">
    <ele>620.5</ele>
    <time>2026-08-23T16:53:18Z</time>
   </trkpt>
   <trkpt lat="53.5384320" lon="-113.4712950">
    <ele>620.4</ele>
    <time>2026-08-23T16:53:19Z</time>
   </trkpt>
   <trkpt lat="53.5384350" lon="-113.4712490">
    <ele>620.4</ele>
    <time>2026-08-23T16:53:20Z</time>
   </trkpt>
   <trkpt lat="53.5384320" lon="-113.4712120">
    <ele>620.4</ele>
    <time>2026-08-23T16:53:21Z</time>
   </trkpt>
   <trkpt lat="53.5384330" lon="-113.4711740">
    <ele>620.4</ele>
    <time>2026-08-23T16:53:22Z</time>
   </trkpt>
   <trkpt lat="53.5384360" lon="-113.4711420">
    <ele>620.4</ele>
    <time>2026-08-23T16:53:23Z</time>
   </trkpt>
   <trkpt lat="53.5384340" lon="-113.4711100">
    <ele>620.4</ele>
    <time>2026-08-23T16:53:24Z</time>
   </trkpt>
   <trkpt lat="53.5384350" lon="-113.4710790">
    <ele>620.4</ele>
    <time>2026-08-23T16:53:25Z</time>
   </trkpt>
   <trkpt lat="53.5384300" lon="-113.4710390">
    <ele>620.4</ele>
    <time>2026-08-23T16:53:26Z</time>
   </trkpt>
   <trkpt lat="53.5384320" lon="-113.4709950">
    <ele>620.4</ele>
    <time>2026-08-23T16:53:27Z</time>
   </trkpt>
   <trkpt lat="53.5384360" lon="-113.4709670">
    <ele>620.4</ele>
    <time>2026-08-23T16:53:28Z</time>
   </trkpt>
   <trkpt lat="53.5384350" lon="-113.4709360">
    <ele>620.3</ele>
    <time>2026-08-23T16:53:29Z</time>
   </trkpt>
   <trkpt lat="53.5384400" lon="-113.4708780">
    <ele>620.3</ele>
    <time>2026-08-23T16:53:30Z</time>
   </trkpt>
   <trkpt lat="53.5384430" lon="-113.4708370">
    <ele>620.3</ele>
    <time>2026-08-23T16:53:31Z</time>
   </trkpt>
   <trkpt lat="53.5384510" lon="-113.4707950">
    <ele>620.3</ele>
    <time>2026-08-23T16:53:32Z</time>
   </trkpt>
   <trkpt lat="53.5384470" lon="-113.4707620">
    <ele>620.3</ele>
    <time>2026-08-23T16:53:33Z</time>
   </trkpt>
   <trkpt lat="53.5384560" lon="-113.4707130">
    <ele>620.3</ele>
    <time>2026-08-23T16:53:34Z</time>
   </trkpt>
   <trkpt lat="53.5384460" lon="-113.4706850">
    <ele>620.3</ele>
    <time>2026-08-23T16:53:35Z</time>
   </trkpt>
   <trkpt lat="53.5384540" lon="-113.4706330">
    <ele>620.2</ele>
    <time>2026-08-23T16:53:36Z</time>
   </trkpt>
   <trkpt lat="53.5384510" lon="-113.4706000">
    <ele>620.2</ele>
    <time>2026-08-23T16:53:37Z</time>
   </trkpt>
   <trkpt lat="53.5384480" lon="-113.4705710">
    <ele>620.2</ele>
    <time>2026-08-23T16:53:38Z</time>
   </trkpt>
   <trkpt lat="53.5384460" lon="-113.4705630">
    <ele>620.2</ele>
    <time>2026-08-23T16:53:39Z</time>
   </trkpt>
   <trkpt lat="53.5384440" lon="-113.4705320">
    <ele>620.2</ele>
    <time>2026-08-23T16:53:40Z</time>
   </trkpt>
   <trkpt lat="53.5384440" lon="-113.4705030">
    <ele>620.2</ele>
    <time>2026-08-23T16:53:42Z</time>
   </trkpt>
   <trkpt lat="53.5384440" lon="-113.4704580">
    <ele>620.2</ele>
    <time>2026-08-23T16:53:43Z</time>
   </trkpt>
   <trkpt lat="53.5384380" lon="-113.4704310">
    <ele>620.2</ele>
    <time>2026-08-23T16:53:44Z</time>
   </trkpt>
   <trkpt lat="53.5384280" lon="-113.4704050">
    <ele>620.2</ele>
    <time>2026-08-23T16:53:45Z</time>
   </trkpt>
   <trkpt lat="53.5384310" lon="-113.4703830">
    <ele>620.2</ele>
    <time>2026-08-23T16:53:46Z</time>
   </trkpt>
   <trkpt lat="53.5384260" lon="-113.4703570">
    <ele>620.2</ele>
    <time>2026-08-23T16:53:47Z</time>
   </trkpt>
   <trkpt lat="53.5384280" lon="-113.4703120">
    <ele>620.2</ele>
    <time>2026-08-23T16:53:48Z</time>
   </trkpt>
   <trkpt lat="53.5384270" lon="-113.4702720">
    <ele>620.2</ele>
    <time>2026-08-23T16:53:49Z</time>
   </trkpt>
   <trkpt lat="53.5384150" lon="-113.4702390">
    <ele>620.2</ele>
    <time>2026-08-23T16:53:50Z</time>
   </trkpt>
   <trkpt lat="53.5384130" lon="-113.4701980">
    <ele>620.2</ele>
    <time>2026-08-23T16:53:51Z</time>
   </trkpt>
   <trkpt lat="53.5384110" lon="-113.4701580">
    <ele>620.2</ele>
    <time>2026-08-23T16:53:52Z</time>
   </trkpt>
   <trkpt lat="53.5384120" lon="-113.4701200">
    <ele>620.2</ele>
    <time>2026-08-23T16:53:53Z</time>
   </trkpt>
   <trkpt lat="53.5384010" lon="-113.4700860">
    <ele>620.2</ele>
    <time>2026-08-23T16:53:54Z</time>
   </trkpt>
   <trkpt lat="53.5383970" lon="-113.4700570">
    <ele>620.2</ele>
    <time>2026-08-23T16:53:55Z</time>
   </trkpt>
   <trkpt lat="53.5383910" lon="-113.4700200">
    <ele>620.2</ele>
    <time>2026-08-23T16:53:56Z</time>
   </trkpt>
   <trkpt lat="53.5383880" lon="-113.4699810">
    <ele>620.2</ele>
    <time>2026-08-23T16:53:57Z</time>
   </trkpt>
   <trkpt lat="53.5383810" lon="-113.4699360">
    <ele>620.2</ele>
    <time>2026-08-23T16:53:58Z</time>
   </trkpt>
   <trkpt lat="53.5383740" lon="-113.4699070">
    <ele>620.2</ele>
    <time>2026-08-23T16:53:59Z</time>
   </trkpt>
   <trkpt lat="53.5383730" lon="-113.4698700">
    <ele>620.2</ele>
    <time>2026-08-23T16:54:00Z</time>
   </trkpt>
   <trkpt lat="53.5383670" lon="-113.4698350">
    <ele>620.2</ele>
    <time>2026-08-23T16:54:01Z</time>
   </trkpt>
   <trkpt lat="53.5383590" lon="-113.4697820">
    <ele>620.2</ele>
    <time>2026-08-23T16:54:02Z</time>
   </trkpt>
   <trkpt lat="53.5383520" lon="-113.4697370">
    <ele>620.2</ele>
    <time>2026-08-23T16:54:03Z</time>
   </trkpt>
   <trkpt lat="53.5383430" lon="-113.4696990">
    <ele>620.2</ele>
    <time>2026-08-23T16:54:04Z</time>
   </trkpt>
   <trkpt lat="53.5383440" lon="-113.4696500">
    <ele>620.1</ele>
    <time>2026-08-23T16:54:05Z</time>
   </trkpt>
   <trkpt lat="53.5383400" lon="-113.4696190">
    <ele>620.1</ele>
    <time>2026-08-23T16:54:06Z</time>
   </trkpt>
   <trkpt lat="53.5383310" lon="-113.4695900">
    <ele>620.1</ele>
    <time>2026-08-23T16:54:07Z</time>
   </trkpt>
   <trkpt lat="53.5383180" lon="-113.4695590">
    <ele>620.1</ele>
    <time>2026-08-23T16:54:08Z</time>
   </trkpt>
   <trkpt lat="53.5383100" lon="-113.4695270">
    <ele>620.1</ele>
    <time>2026-08-23T16:54:09Z</time>
   </trkpt>
   <trkpt lat="53.5383050" lon="-113.4694960">
    <ele>620.1</ele>
    <time>2026-08-23T16:54:10Z</time>
   </trkpt>
   <trkpt lat="53.5383060" lon="-113.4694710">
    <ele>620.1</ele>
    <time>2026-08-23T16:54:11Z</time>
   </trkpt>
   <trkpt lat="53.5383140" lon="-113.4694400">
    <ele>620.1</ele>
    <time>2026-08-23T16:54:12Z</time>
   </trkpt>
   <trkpt lat="53.5383080" lon="-113.4694140">
    <ele>620.1</ele>
    <time>2026-08-23T16:54:13Z</time>
   </trkpt>
   <trkpt lat="53.5383180" lon="-113.4693800">
    <ele>620.1</ele>
    <time>2026-08-23T16:54:14Z</time>
   </trkpt>
   <trkpt lat="53.5383180" lon="-113.4693250">
    <ele>620.1</ele>
    <time>2026-08-23T16:54:15Z</time>
   </trkpt>
   <trkpt lat="53.5383230" lon="-113.4692830">
    <ele>620.1</ele>
    <time>2026-08-23T16:54:16Z</time>
   </trkpt>
   <trkpt lat="53.5383250" lon="-113.4692520">
    <ele>620.1</ele>
    <time>2026-08-23T16:54:17Z</time>
   </trkpt>
   <trkpt lat="53.5383370" lon="-113.4691870">
    <ele>620.1</ele>
    <time>2026-08-23T16:54:18Z</time>
   </trkpt>
   <trkpt lat="53.5383410" lon="-113.4691530">
    <ele>620.0</ele>
    <time>2026-08-23T16:54:19Z</time>
   </trkpt>
   <trkpt lat="53.5383460" lon="-113.4691140">
    <ele>620.0</ele>
    <time>2026-08-23T16:54:20Z</time>
   </trkpt>
   <trkpt lat="53.5383450" lon="-113.4690740">
    <ele>620.0</ele>
    <time>2026-08-23T16:54:21Z</time>
   </trkpt>
   <trkpt lat="53.5383490" lon="-113.4690430">
    <ele>620.0</ele>
    <time>2026-08-23T16:54:22Z</time>
   </trkpt>
   <trkpt lat="53.5383520" lon="-113.4690150">
    <ele>620.0</ele>
    <time>2026-08-23T16:54:23Z</time>
   </trkpt>
   <trkpt lat="53.5383450" lon="-113.4689830">
    <ele>620.0</ele>
    <time>2026-08-23T16:54:24Z</time>
   </trkpt>
   <trkpt lat="53.5383480" lon="-113.4689530">
    <ele>620.0</ele>
    <time>2026-08-23T16:54:25Z</time>
   </trkpt>
   <trkpt lat="53.5383530" lon="-113.4689360">
    <ele>620.0</ele>
    <time>2026-08-23T16:54:26Z</time>
   </trkpt>
   <trkpt lat="53.5383570" lon="-113.4689010">
    <ele>620.0</ele>
    <time>2026-08-23T16:54:27Z</time>
   </trkpt>
   <trkpt lat="53.5383530" lon="-113.4688770">
    <ele>619.9</ele>
    <time>2026-08-23T16:54:28Z</time>
   </trkpt>
   <trkpt lat="53.5383620" lon="-113.4688520">
    <ele>619.9</ele>
    <time>2026-08-23T16:54:29Z</time>
   </trkpt>
   <trkpt lat="53.5383610" lon="-113.4688260">
    <ele>619.9</ele>
    <time>2026-08-23T16:54:30Z</time>
   </trkpt>
   <trkpt lat="53.5383660" lon="-113.4687890">
    <ele>619.9</ele>
    <time>2026-08-23T16:54:31Z</time>
   </trkpt>
   <trkpt lat="53.5383630" lon="-113.4687500">
    <ele>619.8</ele>
    <time>2026-08-23T16:54:32Z</time>
   </trkpt>
   <trkpt lat="53.5383720" lon="-113.4687150">
    <ele>619.8</ele>
    <time>2026-08-23T16:54:33Z</time>
   </trkpt>
   <trkpt lat="53.5383800" lon="-113.4686900">
    <ele>619.8</ele>
    <time>2026-08-23T16:54:34Z</time>
   </trkpt>
   <trkpt lat="53.5383800" lon="-113.4686580">
    <ele>619.8</ele>
    <time>2026-08-23T16:54:35Z</time>
   </trkpt>
   <trkpt lat="53.5383800" lon="-113.4686260">
    <ele>619.8</ele>
    <time>2026-08-23T16:54:36Z</time>
   </trkpt>
   <trkpt lat="53.5383800" lon="-113.4685990">
    <ele>619.7</ele>
    <time>2026-08-23T16:54:37Z</time>
   </trkpt>
   <trkpt lat="53.5383840" lon="-113.4685610">
    <ele>619.6</ele>
    <time>2026-08-23T16:54:38Z</time>
   </trkpt>
   <trkpt lat="53.5383940" lon="-113.4685240">
    <ele>619.5</ele>
    <time>2026-08-23T16:54:39Z</time>
   </trkpt>
   <trkpt lat="53.5384030" lon="-113.4684730">
    <ele>619.3</ele>
    <time>2026-08-23T16:54:40Z</time>
   </trkpt>
   <trkpt lat="53.5384100" lon="-113.4684150">
    <ele>619.1</ele>
    <time>2026-08-23T16:54:41Z</time>
   </trkpt>
   <trkpt lat="53.5384180" lon="-113.4683730">
    <ele>619.0</ele>
    <time>2026-08-23T16:54:42Z</time>
   </trkpt>
   <trkpt lat="53.5384250" lon="-113.4683250">
    <ele>618.8</ele>
    <time>2026-08-23T16:54:43Z</time>
   </trkpt>
   <trkpt lat="53.5384320" lon="-113.4682760">
    <ele>618.6</ele>
    <time>2026-08-23T16:54:44Z</time>
   </trkpt>
   <trkpt lat="53.5384410" lon="-113.4682360">
    <ele>618.5</ele>
    <time>2026-08-23T16:54:45Z</time>
   </trkpt>
   <trkpt lat="53.5384470" lon="-113.4681800">
    <ele>618.3</ele>
    <time>2026-08-23T16:54:46Z</time>
   </trkpt>
   <trkpt lat="53.5384530" lon="-113.4681250">
    <ele>618.1</ele>
    <time>2026-08-23T16:54:47Z</time>
   </trkpt>
   <trkpt lat="53.5384580" lon="-113.4680660">
    <ele>617.9</ele>
    <time>2026-08-23T16:54:48Z</time>
   </trkpt>
   <trkpt lat="53.5384540" lon="-113.4680050">
    <ele>617.7</ele>
    <time>2026-08-23T16:54:49Z</time>
   </trkpt>
   <trkpt lat="53.5384760" lon="-113.4679610">
    <ele>617.6</ele>
    <time>2026-08-23T16:54:50Z</time>
   </trkpt>
   <trkpt lat="53.5384690" lon="-113.4679110">
    <ele>617.5</ele>
    <time>2026-08-23T16:54:51Z</time>
   </trkpt>
   <trkpt lat="53.5384620" lon="-113.4678580">
    <ele>617.3</ele>
    <time>2026-08-23T16:54:52Z</time>
   </trkpt>
   <trkpt lat="53.5384480" lon="-113.4678060">
    <ele>617.2</ele>
    <time>2026-08-23T16:54:53Z</time>
   </trkpt>
   <trkpt lat="53.5384350" lon="-113.4677560">
    <ele>617.2</ele>
    <time>2026-08-23T16:54:54Z</time>
   </trkpt>
   <trkpt lat="53.5384270" lon="-113.4676980">
    <ele>617.1</ele>
    <time>2026-08-23T16:54:55Z</time>
   </trkpt>
   <trkpt lat="53.5384260" lon="-113.4676560">
    <ele>617.0</ele>
    <time>2026-08-23T16:54:56Z</time>
   </trkpt>
   <trkpt lat="53.5384210" lon="-113.4676380">
    <ele>617.0</ele>
    <time>2026-08-23T16:54:57Z</time>
   </trkpt>
   <trkpt lat="53.5384270" lon="-113.4675960">
    <ele>617.0</ele>
    <time>2026-08-23T16:54:58Z</time>
   </trkpt>
   <trkpt lat="53.5384310" lon="-113.4675430">
    <ele>616.9</ele>
    <time>2026-08-23T16:54:59Z</time>
   </trkpt>
   <trkpt lat="53.5384370" lon="-113.4674790">
    <ele>616.9</ele>
    <time>2026-08-23T16:55:00Z</time>
   </trkpt>
   <trkpt lat="53.5384290" lon="-113.4674210">
    <ele>616.9</ele>
    <time>2026-08-23T16:55:01Z</time>
   </trkpt>
   <trkpt lat="53.5384240" lon="-113.4673520">
    <ele>616.8</ele>
    <time>2026-08-23T16:55:02Z</time>
   </trkpt>
   <trkpt lat="53.5384300" lon="-113.4672900">
    <ele>616.8</ele>
    <time>2026-08-23T16:55:03Z</time>
   </trkpt>
   <trkpt lat="53.5384310" lon="-113.4672210">
    <ele>616.8</ele>
    <time>2026-08-23T16:55:04Z</time>
   </trkpt>
   <trkpt lat="53.5384280" lon="-113.4671580">
    <ele>616.8</ele>
    <time>2026-08-23T16:55:05Z</time>
   </trkpt>
   <trkpt lat="53.5384300" lon="-113.4670970">
    <ele>616.8</ele>
    <time>2026-08-23T16:55:06Z</time>
   </trkpt>
   <trkpt lat="53.5384220" lon="-113.4670250">
    <ele>616.8</ele>
    <time>2026-08-23T16:55:07Z</time>
   </trkpt>
   <trkpt lat="53.5384230" lon="-113.4669650">
    <ele>616.8</ele>
    <time>2026-08-23T16:55:08Z</time>
   </trkpt>
   <trkpt lat="53.5384270" lon="-113.4669120">
    <ele>616.8</ele>
    <time>2026-08-23T16:55:09Z</time>
   </trkpt>
   <trkpt lat="53.5384360" lon="-113.4668580">
    <ele>616.8</ele>
    <time>2026-08-23T16:55:10Z</time>
   </trkpt>
   <trkpt lat="53.5384480" lon="-113.4668030">
    <ele>616.9</ele>
    <time>2026-08-23T16:55:11Z</time>
   </trkpt>
   <trkpt lat="53.5384520" lon="-113.4667460">
    <ele>616.9</ele>
    <time>2026-08-23T16:55:12Z</time>
   </trkpt>
   <trkpt lat="53.5384540" lon="-113.4666840">
    <ele>616.9</ele>
    <time>2026-08-23T16:55:13Z</time>
   </trkpt>
   <trkpt lat="53.5384380" lon="-113.4667200">
    <ele>616.9</ele>
    <time>2026-08-23T16:55:14Z</time>
   </trkpt>
   <trkpt lat="53.5384330" lon="-113.4666680">
    <ele>616.9</ele>
    <time>2026-08-23T16:55:15Z</time>
   </trkpt>
   <trkpt lat="53.5384260" lon="-113.4666490">
    <ele>616.9</ele>
    <time>2026-08-23T16:55:16Z</time>
   </trkpt>
   <trkpt lat="53.5384230" lon="-113.4665800">
    <ele>616.9</ele>
    <time>2026-08-23T16:55:17Z</time>
   </trkpt>
   <trkpt lat="53.5384370" lon="-113.4665580">
    <ele>616.9</ele>
    <time>2026-08-23T16:55:18Z</time>
   </trkpt>
   <trkpt lat="53.5384370" lon="-113.4664990">
    <ele>617.0</ele>
    <time>2026-08-23T16:55:19Z</time>
   </trkpt>
   <trkpt lat="53.5384450" lon="-113.4664720">
    <ele>617.0</ele>
    <time>2026-08-23T16:55:20Z</time>
   </trkpt>
   <trkpt lat="53.5384430" lon="-113.4663960">
    <ele>617.0</ele>
    <time>2026-08-23T16:55:21Z</time>
   </trkpt>
   <trkpt lat="53.5384480" lon="-113.4663590">
    <ele>617.0</ele>
    <time>2026-08-23T16:55:22Z</time>
   </trkpt>
   <trkpt lat="53.5384470" lon="-113.4663150">
    <ele>617.0</ele>
    <time>2026-08-23T16:55:23Z</time>
   </trkpt>
   <trkpt lat="53.5384530" lon="-113.4662720">
    <ele>617.0</ele>
    <time>2026-08-23T16:55:24Z</time>
   </trkpt>
   <trkpt lat="53.5384510" lon="-113.4662270">
    <ele>617.0</ele>
    <time>2026-08-23T16:55:25Z</time>
   </trkpt>
   <trkpt lat="53.5384600" lon="-113.4661780">
    <ele>617.0</ele>
    <time>2026-08-23T16:55:26Z</time>
   </trkpt>
   <trkpt lat="53.5384600" lon="-113.4661330">
    <ele>617.1</ele>
    <time>2026-08-23T16:55:27Z</time>
   </trkpt>
   <trkpt lat="53.5384600" lon="-113.4660880">
    <ele>617.1</ele>
    <time>2026-08-23T16:55:28Z</time>
   </trkpt>
   <trkpt lat="53.5384540" lon="-113.4660470">
    <ele>617.1</ele>
    <time>2026-08-23T16:55:29Z</time>
   </trkpt>
   <trkpt lat="53.5384510" lon="-113.4660040">
    <ele>617.1</ele>
    <time>2026-08-23T16:55:30Z</time>
   </trkpt>
   <trkpt lat="53.5384460" lon="-113.4659640">
    <ele>617.1</ele>
    <time>2026-08-23T16:55:31Z</time>
   </trkpt>
   <trkpt lat="53.5384540" lon="-113.4659200">
    <ele>617.1</ele>
    <time>2026-08-23T16:55:32Z</time>
   </trkpt>
   <trkpt lat="53.5384580" lon="-113.4658700">
    <ele>617.1</ele>
    <time>2026-08-23T16:55:33Z</time>
   </trkpt>
   <trkpt lat="53.5384650" lon="-113.4658160">
    <ele>617.1</ele>
    <time>2026-08-23T16:55:34Z</time>
   </trkpt>
   <trkpt lat="53.5384670" lon="-113.4657730">
    <ele>617.2</ele>
    <time>2026-08-23T16:55:35Z</time>
   </trkpt>
   <trkpt lat="53.5384620" lon="-113.4657220">
    <ele>617.2</ele>
    <time>2026-08-23T16:55:36Z</time>
   </trkpt>
   <trkpt lat="53.5384670" lon="-113.4656740">
    <ele>617.2</ele>
    <time>2026-08-23T16:55:37Z</time>
   </trkpt>
   <trkpt lat="53.5384640" lon="-113.4656300">
    <ele>617.2</ele>
    <time>2026-08-23T16:55:38Z</time>
   </trkpt>
   <trkpt lat="53.5384640" lon="-113.4655870">
    <ele>617.3</ele>
    <time>2026-08-23T16:55:39Z</time>
   </trkpt>
   <trkpt lat="53.5384560" lon="-113.4655530">
    <ele>617.3</ele>
    <time>2026-08-23T16:55:40Z</time>
   </trkpt>
   <trkpt lat="53.5384680" lon="-113.4655100">
    <ele>617.3</ele>
    <time>2026-08-23T16:55:41Z</time>
   </trkpt>
   <trkpt lat="53.5384810" lon="-113.4654680">
    <ele>617.3</ele>
    <time>2026-08-23T16:55:42Z</time>
   </trkpt>
   <trkpt lat="53.5384730" lon="-113.4654290">
    <ele>617.4</ele>
    <time>2026-08-23T16:55:43Z</time>
   </trkpt>
   <trkpt lat="53.5384720" lon="-113.4653910">
    <ele>617.4</ele>
    <time>2026-08-23T16:55:44Z</time>
   </trkpt>
   <trkpt lat="53.5384790" lon="-113.4653480">
    <ele>617.4</ele>
    <time>2026-08-23T16:55:45Z</time>
   </trkpt>
   <trkpt lat="53.5384780" lon="-113.4653090">
    <ele>617.5</ele>
    <time>2026-08-23T16:55:46Z</time>
   </trkpt>
   <trkpt lat="53.5385010" lon="-113.4652610">
    <ele>617.5</ele>
    <time>2026-08-23T16:55:48Z</time>
   </trkpt>
   <trkpt lat="53.5384960" lon="-113.4652190">
    <ele>617.6</ele>
    <time>2026-08-23T16:55:49Z</time>
   </trkpt>
   <trkpt lat="53.5385000" lon="-113.4651770">
    <ele>617.6</ele>
    <time>2026-08-23T16:55:50Z</time>
   </trkpt>
   <trkpt lat="53.5384900" lon="-113.4651410">
    <ele>617.7</ele>
    <time>2026-08-23T16:55:51Z</time>
   </trkpt>
   <trkpt lat="53.5385010" lon="-113.4650690">
    <ele>617.7</ele>
    <time>2026-08-23T16:55:52Z</time>
   </trkpt>
   <trkpt lat="53.5385080" lon="-113.4650440">
    <ele>617.8</ele>
    <time>2026-08-23T16:55:53Z</time>
   </trkpt>
   <trkpt lat="53.5385100" lon="-113.4649880">
    <ele>617.8</ele>
    <time>2026-08-23T16:55:54Z</time>
   </trkpt>
   <trkpt lat="53.5385170" lon="-113.4649540">
    <ele>617.9</ele>
    <time>2026-08-23T16:55:55Z</time>
   </trkpt>
   <trkpt lat="53.5385260" lon="-113.4649080">
    <ele>618.0</ele>
    <time>2026-08-23T16:55:56Z</time>
   </trkpt>
   <trkpt lat="53.5385340" lon="-113.4648660">
    <ele>618.0</ele>
    <time>2026-08-23T16:55:57Z</time>
   </trkpt>
   <trkpt lat="53.5385420" lon="-113.4648190">
    <ele>618.1</ele>
    <time>2026-08-23T16:55:58Z</time>
   </trkpt>
   <trkpt lat="53.5385520" lon="-113.4647890">
    <ele>618.1</ele>
    <time>2026-08-23T16:55:59Z</time>
   </trkpt>
   <trkpt lat="53.5385600" lon="-113.4647580">
    <ele>618.2</ele>
    <time>2026-08-23T16:56:00Z</time>
   </trkpt>
   <trkpt lat="53.5385610" lon="-113.4647230">
    <ele>618.3</ele>
    <time>2026-08-23T16:56:01Z</time>
   </trkpt>
   <trkpt lat="53.5385590" lon="-113.4646890">
    <ele>618.3</ele>
    <time>2026-08-23T16:56:02Z</time>
   </trkpt>
   <trkpt lat="53.5385600" lon="-113.4646580">
    <ele>618.4</ele>
    <time>2026-08-23T16:56:03Z</time>
   </trkpt>
   <trkpt lat="53.5385650" lon="-113.4646250">
    <ele>618.4</ele>
    <time>2026-08-23T16:56:04Z</time>
   </trkpt>
   <trkpt lat="53.5385810" lon="-113.4645890">
    <ele>618.4</ele>
    <time>2026-08-23T16:56:05Z</time>
   </trkpt>
   <trkpt lat="53.5385830" lon="-113.4645770">
    <ele>618.5</ele>
    <time>2026-08-23T16:56:06Z</time>
   </trkpt>
   <trkpt lat="53.5386030" lon="-113.4645460">
    <ele>618.5</ele>
    <time>2026-08-23T16:56:07Z</time>
   </trkpt>
   <trkpt lat="53.5386130" lon="-113.4645410">
    <ele>618.5</ele>
    <time>2026-08-23T16:56:08Z</time>
   </trkpt>
   <trkpt lat="53.5386140" lon="-113.4645410">
    <ele>618.5</ele>
    <time>2026-08-23T16:56:09Z</time>
   </trkpt>
   <trkpt lat="53.5386200" lon="-113.4645310">
    <ele>618.5</ele>
    <time>2026-08-23T16:56:10Z</time>
   </trkpt>
   <trkpt lat="53.5386180" lon="-113.4645340">
    <ele>618.5</ele>
    <time>2026-08-23T16:56:11Z</time>
   </trkpt>
   <trkpt lat="53.5386280" lon="-113.4645250">
    <ele>618.5</ele>
    <time>2026-08-23T16:56:12Z</time>
   </trkpt>
   <trkpt lat="53.5386280" lon="-113.4645250">
    <ele>618.5</ele>
    <time>2026-08-23T16:56:13Z</time>
   </trkpt>
   <trkpt lat="53.5386370" lon="-113.4645300">
    <ele>618.6</ele>
    <time>2026-08-23T16:56:14Z</time>
   </trkpt>
   <trkpt lat="53.5386370" lon="-113.4645300">
    <ele>618.6</ele>
    <time>2026-08-23T16:56:15Z</time>
   </trkpt>
   <trkpt lat="53.5386420" lon="-113.4645220">
    <ele>618.6</ele>
    <time>2026-08-23T16:56:16Z</time>
   </trkpt>
   <trkpt lat="53.5386450" lon="-113.4645170">
    <ele>618.6</ele>
    <time>2026-08-23T16:56:17Z</time>
   </trkpt>
   <trkpt lat="53.5386460" lon="-113.4645130">
    <ele>618.6</ele>
    <time>2026-08-23T16:56:18Z</time>
   </trkpt>
   <trkpt lat="53.5386480" lon="-113.4645100">
    <ele>618.6</ele>
    <time>2026-08-23T16:56:19Z</time>
   </trkpt>
   <trkpt lat="53.5386430" lon="-113.4645020">
    <ele>618.6</ele>
    <time>2026-08-23T16:56:20Z</time>
   </trkpt>
   <trkpt lat="53.5386450" lon="-113.4644750">
    <ele>618.6</ele>
    <time>2026-08-23T16:56:21Z</time>
   </trkpt>
   <trkpt lat="53.5386500" lon="-113.4644660">
    <ele>618.6</ele>
    <time>2026-08-23T16:56:22Z</time>
   </trkpt>
   <trkpt lat="53.5386480" lon="-113.4644470">
    <ele>618.6</ele>
    <time>2026-08-23T16:56:23Z</time>
   </trkpt>
   <trkpt lat="53.5386510" lon="-113.4644140">
    <ele>618.7</ele>
    <time>2026-08-23T16:56:24Z</time>
   </trkpt>
   <trkpt lat="53.5386540" lon="-113.4643840">
    <ele>618.7</ele>
    <time>2026-08-23T16:56:25Z</time>
   </trkpt>
   <trkpt lat="53.5386700" lon="-113.4643440">
    <ele>618.7</ele>
    <time>2026-08-23T16:56:26Z</time>
   </trkpt>
   <trkpt lat="53.5386810" lon="-113.4643030">
    <ele>618.7</ele>
    <time>2026-08-23T16:56:27Z</time>
   </trkpt>
   <trkpt lat="53.5386960" lon="-113.4642650">
    <ele>618.8</ele>
    <time>2026-08-23T16:56:28Z</time>
   </trkpt>
   <trkpt lat="53.5387070" lon="-113.4642210">
    <ele>618.9</ele>
    <time>2026-08-23T16:56:29Z</time>
   </trkpt>
   <trkpt lat="53.5387180" lon="-113.4641850">
    <ele>619.1</ele>
    <time>2026-08-23T16:56:30Z</time>
   </trkpt>
   <trkpt lat="53.5387360" lon="-113.4641600">
    <ele>619.2</ele>
    <time>2026-08-23T16:56:31Z</time>
   </trkpt>
   <trkpt lat="53.5387430" lon="-113.4641280">
    <ele>619.3</ele>
    <time>2026-08-23T16:56:32Z</time>
   </trkpt>
   <trkpt lat="53.5387500" lon="-113.4640900">
    <ele>619.5</ele>
    <time>2026-08-23T16:56:33Z</time>
   </trkpt>
   <trkpt lat="53.5387590" lon="-113.4640620">
    <ele>619.6</ele>
    <time>2026-08-23T16:56:34Z</time>
   </trkpt>
   <trkpt lat="53.5387740" lon="-113.4640250">
    <ele>619.8</ele>
    <time>2026-08-23T16:56:35Z</time>
   </trkpt>
   <trkpt lat="53.5387840" lon="-113.4639840">
    <ele>619.9</ele>
    <time>2026-08-23T16:56:36Z</time>
   </trkpt>
   <trkpt lat="53.5387910" lon="-113.4639570">
    <ele>620.1</ele>
    <time>2026-08-23T16:56:37Z</time>
   </trkpt>
   <trkpt lat="53.5388090" lon="-113.4639320">
    <ele>620.2</ele>
    <time>2026-08-23T16:56:38Z</time>
   </trkpt>
   <trkpt lat="53.5388010" lon="-113.4638990">
    <ele>620.4</ele>
    <time>2026-08-23T16:56:39Z</time>
   </trkpt>
   <trkpt lat="53.5388080" lon="-113.4638680">
    <ele>620.5</ele>
    <time>2026-08-23T16:56:40Z</time>
   </trkpt>
   <trkpt lat="53.5388150" lon="-113.4638430">
    <ele>620.7</ele>
    <time>2026-08-23T16:56:41Z</time>
   </trkpt>
   <trkpt lat="53.5388220" lon="-113.4638130">
    <ele>620.8</ele>
    <time>2026-08-23T16:56:42Z</time>
   </trkpt>
   <trkpt lat="53.5388250" lon="-113.4637840">
    <ele>621.0</ele>
    <time>2026-08-23T16:56:43Z</time>
   </trkpt>
   <trkpt lat="53.5388250" lon="-113.4637650">
    <ele>621.1</ele>
    <time>2026-08-23T16:56:44Z</time>
   </trkpt>
   <trkpt lat="53.5388280" lon="-113.4637370">
    <ele>621.2</ele>
    <time>2026-08-23T16:56:45Z</time>
   </trkpt>
   <trkpt lat="53.5388310" lon="-113.4637010">
    <ele>621.5</ele>
    <time>2026-08-23T16:56:46Z</time>
   </trkpt>
   <trkpt lat="53.5388360" lon="-113.4636770">
    <ele>621.6</ele>
    <time>2026-08-23T16:56:47Z</time>
   </trkpt>
   <trkpt lat="53.5388390" lon="-113.4636540">
    <ele>621.8</ele>
    <time>2026-08-23T16:56:48Z</time>
   </trkpt>
   <trkpt lat="53.5388410" lon="-113.4636300">
    <ele>621.9</ele>
    <time>2026-08-23T16:56:49Z</time>
   </trkpt>
   <trkpt lat="53.5388440" lon="-113.4635920">
    <ele>622.2</ele>
    <time>2026-08-23T16:56:50Z</time>
   </trkpt>
   <trkpt lat="53.5388430" lon="-113.4635690">
    <ele>622.4</ele>
    <time>2026-08-23T16:56:51Z</time>
   </trkpt>
   <trkpt lat="53.5388420" lon="-113.4635430">
    <ele>622.6</ele>
    <time>2026-08-23T16:56:52Z</time>
   </trkpt>
   <trkpt lat="53.5388440" lon="-113.4635260">
    <ele>622.7</ele>
    <time>2026-08-23T16:56:53Z</time>
   </trkpt>
   <trkpt lat="53.5388430" lon="-113.4635000">
    <ele>622.9</ele>
    <time>2026-08-23T16:56:54Z</time>
   </trkpt>
   <trkpt lat="53.5388480" lon="-113.4634790">
    <ele>623.1</ele>
    <time>2026-08-23T16:56:55Z</time>
   </trkpt>
   <trkpt lat="53.5388440" lon="-113.4634490">
    <ele>623.3</ele>
    <time>2026-08-23T16:56:56Z</time>
   </trkpt>
   <trkpt lat="53.5388480" lon="-113.4634290">
    <ele>623.5</ele>
    <time>2026-08-23T16:56:57Z</time>
   </trkpt>
   <trkpt lat="53.5388500" lon="-113.4634160">
    <ele>623.6</ele>
    <time>2026-08-23T16:56:58Z</time>
   </trkpt>
   <trkpt lat="53.5388570" lon="-113.4633910">
    <ele>623.9</ele>
    <time>2026-08-23T16:56:59Z</time>
   </trkpt>
   <trkpt lat="53.5388580" lon="-113.4633690">
    <ele>624.1</ele>
    <time>2026-08-23T16:57:00Z</time>
   </trkpt>
   <trkpt lat="53.5388570" lon="-113.4633540">
    <ele>624.2</ele>
    <time>2026-08-23T16:57:01Z</time>
   </trkpt>
   <trkpt lat="53.5388580" lon="-113.4633320">
    <ele>624.4</ele>
    <time>2026-08-23T16:57:02Z</time>
   </trkpt>
   <trkpt lat="53.5388560" lon="-113.4633060">
    <ele>624.6</ele>
    <time>2026-08-23T16:57:03Z</time>
   </trkpt>
   <trkpt lat="53.5388570" lon="-113.4632800">
    <ele>624.9</ele>
    <time>2026-08-23T16:57:04Z</time>
   </trkpt>
   <trkpt lat="53.5388640" lon="-113.4632510">
    <ele>625.1</ele>
    <time>2026-08-23T16:57:05Z</time>
   </trkpt>
   <trkpt lat="53.5388700" lon="-113.4632220">
    <ele>625.4</ele>
    <time>2026-08-23T16:57:06Z</time>
   </trkpt>
   <trkpt lat="53.5388710" lon="-113.4632090">
    <ele>625.5</ele>
    <time>2026-08-23T16:57:07Z</time>
   </trkpt>
   <trkpt lat="53.5388650" lon="-113.4631960">
    <ele>625.7</ele>
    <time>2026-08-23T16:57:08Z</time>
   </trkpt>
   <trkpt lat="53.5388700" lon="-113.4631830">
    <ele>625.8</ele>
    <time>2026-08-23T16:57:09Z</time>
   </trkpt>
   <trkpt lat="53.5388760" lon="-113.4631740">
    <ele>625.9</ele>
    <time>2026-08-23T16:57:10Z</time>
   </trkpt>
   <trkpt lat="53.5388860" lon="-113.4631600">
    <ele>626.1</ele>
    <time>2026-08-23T16:57:11Z</time>
   </trkpt>
   <trkpt lat="53.5388930" lon="-113.4631480">
    <ele>626.3</ele>
    <time>2026-08-23T16:57:12Z</time>
   </trkpt>
   <trkpt lat="53.5388950" lon="-113.4631300">
    <ele>626.4</ele>
    <time>2026-08-23T16:57:13Z</time>
   </trkpt>
   <trkpt lat="53.5389000" lon="-113.4631280">
    <ele>626.5</ele>
    <time>2026-08-23T16:57:14Z</time>
   </trkpt>
   <trkpt lat="53.5388900" lon="-113.4631210">
    <ele>626.6</ele>
    <time>2026-08-23T16:57:15Z</time>
   </trkpt>
   <trkpt lat="53.5388880" lon="-113.4631240">
    <ele>626.7</ele>
    <time>2026-08-23T16:57:16Z</time>
   </trkpt>
   <trkpt lat="53.5389060" lon="-113.4630860">
    <ele>627.1</ele>
    <time>2026-08-23T16:57:17Z</time>
   </trkpt>
   <trkpt lat="53.5389130" lon="-113.4630690">
    <ele>627.3</ele>
    <time>2026-08-23T16:57:18Z</time>
   </trkpt>
   <trkpt lat="53.5389210" lon="-113.4630510">
    <ele>627.4</ele>
    <time>2026-08-23T16:57:19Z</time>
   </trkpt>
   <trkpt lat="53.5389260" lon="-113.4630450">
    <ele>627.5</ele>
    <time>2026-08-23T16:57:20Z</time>
   </trkpt>
   <trkpt lat="53.5389360" lon="-113.4630290">
    <ele>627.7</ele>
    <time>2026-08-23T16:57:21Z</time>
   </trkpt>
   <trkpt lat="53.5389440" lon="-113.4630240">
    <ele>627.8</ele>
    <time>2026-08-23T16:57:22Z</time>
   </trkpt>
   <trkpt lat="53.5389520" lon="-113.4630090">
    <ele>628.0</ele>
    <time>2026-08-23T16:57:23Z</time>
   </trkpt>
   <trkpt lat="53.5389600" lon="-113.4629980">
    <ele>628.1</ele>
    <time>2026-08-23T16:57:24Z</time>
   </trkpt>
   <trkpt lat="53.5389640" lon="-113.4629880">
    <ele>628.2</ele>
    <time>2026-08-23T16:57:25Z</time>
   </trkpt>
   <trkpt lat="53.5389620" lon="-113.4629740">
    <ele>628.3</ele>
    <time>2026-08-23T16:57:26Z</time>
   </trkpt>
   <trkpt lat="53.5389630" lon="-113.4629740">
    <ele>628.4</ele>
    <time>2026-08-23T16:57:27Z</time>
   </trkpt>
   <trkpt lat="53.5389730" lon="-113.4629570">
    <ele>628.5</ele>
    <time>2026-08-23T16:57:28Z</time>
   </trkpt>
   <trkpt lat="53.5389770" lon="-113.4629500">
    <ele>628.6</ele>
    <time>2026-08-23T16:57:29Z</time>
   </trkpt>
   <trkpt lat="53.5389820" lon="-113.4629370">
    <ele>628.7</ele>
    <time>2026-08-23T16:57:30Z</time>
   </trkpt>
   <trkpt lat="53.5389860" lon="-113.4629300">
    <ele>628.8</ele>
    <time>2026-08-23T16:57:31Z</time>
   </trkpt>
   <trkpt lat="53.5389970" lon="-113.4629230">
    <ele>629.0</ele>
    <time>2026-08-23T16:57:32Z</time>
   </trkpt>
   <trkpt lat="53.5390050" lon="-113.4629040">
    <ele>629.1</ele>
    <time>2026-08-23T16:57:33Z</time>
   </trkpt>
   <trkpt lat="53.5390130" lon="-113.4628920">
    <ele>629.3</ele>
    <time>2026-08-23T16:57:34Z</time>
   </trkpt>
   <trkpt lat="53.5390200" lon="-113.4628830">
    <ele>629.4</ele>
    <time>2026-08-23T16:57:35Z</time>
   </trkpt>
   <trkpt lat="53.5390240" lon="-113.4628730">
    <ele>629.4</ele>
    <time>2026-08-23T16:57:36Z</time>
   </trkpt>
   <trkpt lat="53.5390190" lon="-113.4628750">
    <ele>629.5</ele>
    <time>2026-08-23T16:57:37Z</time>
   </trkpt>
   <trkpt lat="53.5390110" lon="-113.4628800">
    <ele>629.6</ele>
    <time>2026-08-23T16:57:38Z</time>
   </trkpt>
   <trkpt lat="53.5390130" lon="-113.4628770">
    <ele>629.6</ele>
    <time>2026-08-23T16:57:39Z</time>
   </trkpt>
   <trkpt lat="53.5390160" lon="-113.4628820">
    <ele>629.7</ele>
    <time>2026-08-23T16:57:40Z</time>
   </trkpt>
   <trkpt lat="53.5390230" lon="-113.4628780">
    <ele>629.8</ele>
    <time>2026-08-23T16:57:41Z</time>
   </trkpt>
   <trkpt lat="53.5390250" lon="-113.4628870">
    <ele>629.8</ele>
    <time>2026-08-23T16:57:42Z</time>
   </trkpt>
   <trkpt lat="53.5390250" lon="-113.4628870">
    <ele>629.8</ele>
    <time>2026-08-23T16:57:43Z</time>
   </trkpt>
   <trkpt lat="53.5390110" lon="-113.4629200">
    <ele>630.1</ele>
    <time>2026-08-23T16:57:44Z</time>
   </trkpt>
   <trkpt lat="53.5390140" lon="-113.4629170">
    <ele>630.2</ele>
    <time>2026-08-23T16:57:45Z</time>
   </trkpt>
   <trkpt lat="53.5390180" lon="-113.4629150">
    <ele>630.2</ele>
    <time>2026-08-23T16:57:46Z</time>
   </trkpt>
   <trkpt lat="53.5390260" lon="-113.4629040">
    <ele>630.3</ele>
    <time>2026-08-23T16:57:47Z</time>
   </trkpt>
   <trkpt lat="53.5390220" lon="-113.4629090">
    <ele>630.3</ele>
    <time>2026-08-23T16:57:48Z</time>
   </trkpt>
   <trkpt lat="53.5390310" lon="-113.4628890">
    <ele>630.5</ele>
    <time>2026-08-23T16:57:49Z</time>
   </trkpt>
   <trkpt lat="53.5390400" lon="-113.4628670">
    <ele>630.6</ele>
    <time>2026-08-23T16:57:50Z</time>
   </trkpt>
   <trkpt lat="53.5390520" lon="-113.4628420">
    <ele>630.8</ele>
    <time>2026-08-23T16:57:51Z</time>
   </trkpt>
   <trkpt lat="53.5390610" lon="-113.4628190">
    <ele>630.9</ele>
    <time>2026-08-23T16:57:52Z</time>
   </trkpt>
   <trkpt lat="53.5390720" lon="-113.4627820">
    <ele>631.1</ele>
    <time>2026-08-23T16:57:54Z</time>
   </trkpt>
   <trkpt lat="53.5390860" lon="-113.4627710">
    <ele>631.2</ele>
    <time>2026-08-23T16:57:55Z</time>
   </trkpt>
   <trkpt lat="53.5391020" lon="-113.4627470">
    <ele>631.4</ele>
    <time>2026-08-23T16:57:56Z</time>
   </trkpt>
   <trkpt lat="53.5390990" lon="-113.4627170">
    <ele>631.5</ele>
    <time>2026-08-23T16:57:57Z</time>
   </trkpt>
   <trkpt lat="53.5391160" lon="-113.4626870">
    <ele>631.7</ele>
    <time>2026-08-23T16:57:58Z</time>
   </trkpt>
   <trkpt lat="53.5391220" lon="-113.4626700">
    <ele>631.8</ele>
    <time>2026-08-23T16:57:59Z</time>
   </trkpt>
   <trkpt lat="53.5391370" lon="-113.4626540">
    <ele>631.9</ele>
    <time>2026-08-23T16:58:00Z</time>
   </trkpt>
   <trkpt lat="53.5391490" lon="-113.4626370">
    <ele>632.0</ele>
    <time>2026-08-23T16:58:01Z</time>
   </trkpt>
   <trkpt lat="53.5391580" lon="-113.4626190">
    <ele>632.1</ele>
    <time>2026-08-23T16:58:02Z</time>
   </trkpt>
   <trkpt lat="53.5391640" lon="-113.4626000">
    <ele>632.1</ele>
    <time>2026-08-23T16:58:03Z</time>
   </trkpt>
   <trkpt lat="53.5391800" lon="-113.4625750">
    <ele>632.2</ele>
    <time>2026-08-23T16:58:04Z</time>
   </trkpt>
   <trkpt lat="53.5391860" lon="-113.4625640">
    <ele>632.3</ele>
    <time>2026-08-23T16:58:05Z</time>
   </trkpt>
   <trkpt lat="53.5391900" lon="-113.4625480">
    <ele>632.3</ele>
    <time>2026-08-23T16:58:06Z</time>
   </trkpt>
   <trkpt lat="53.5391980" lon="-113.4625420">
    <ele>632.4</ele>
    <time>2026-08-23T16:58:07Z</time>
   </trkpt>
   <trkpt lat="53.5392060" lon="-113.4625220">
    <ele>632.4</ele>
    <time>2026-08-23T16:58:08Z</time>
   </trkpt>
   <trkpt lat="53.5392230" lon="-113.4624950">
    <ele>632.5</ele>
    <time>2026-08-23T16:58:09Z</time>
   </trkpt>
   <trkpt lat="53.5392360" lon="-113.4624760">
    <ele>632.6</ele>
    <time>2026-08-23T16:58:10Z</time>
   </trkpt>
   <trkpt lat="53.5392520" lon="-113.4624560">
    <ele>632.7</ele>
    <time>2026-08-23T16:58:11Z</time>
   </trkpt>
   <trkpt lat="53.5392820" lon="-113.4624100">
    <ele>632.8</ele>
    <time>2026-08-23T16:58:12Z</time>
   </trkpt>
   <trkpt lat="53.5392930" lon="-113.4623960">
    <ele>632.8</ele>
    <time>2026-08-23T16:58:13Z</time>
   </trkpt>
   <trkpt lat="53.5392990" lon="-113.4623700">
    <ele>632.9</ele>
    <time>2026-08-23T16:58:14Z</time>
   </trkpt>
   <trkpt lat="53.5393040" lon="-113.4623400">
    <ele>632.9</ele>
    <time>2026-08-23T16:58:15Z</time>
   </trkpt>
   <trkpt lat="53.5393140" lon="-113.4623250">
    <ele>632.9</ele>
    <time>2026-08-23T16:58:16Z</time>
   </trkpt>
   <trkpt lat="53.5393090" lon="-113.4623350">
    <ele>633.0</ele>
    <time>2026-08-23T16:58:17Z</time>
   </trkpt>
   <trkpt lat="53.5393190" lon="-113.4622970">
    <ele>633.0</ele>
    <time>2026-08-23T16:58:18Z</time>
   </trkpt>
   <trkpt lat="53.5393230" lon="-113.4622870">
    <ele>633.1</ele>
    <time>2026-08-23T16:58:19Z</time>
   </trkpt>
   <trkpt lat="53.5393460" lon="-113.4622540">
    <ele>633.1</ele>
    <time>2026-08-23T16:58:20Z</time>
   </trkpt>
   <trkpt lat="53.5393530" lon="-113.4622170">
    <ele>633.2</ele>
    <time>2026-08-23T16:58:21Z</time>
   </trkpt>
   <trkpt lat="53.5393680" lon="-113.4621960">
    <ele>633.3</ele>
    <time>2026-08-23T16:58:22Z</time>
   </trkpt>
   <trkpt lat="53.5393790" lon="-113.4621660">
    <ele>633.3</ele>
    <time>2026-08-23T16:58:23Z</time>
   </trkpt>
   <trkpt lat="53.5393830" lon="-113.4621430">
    <ele>633.4</ele>
    <time>2026-08-23T16:58:24Z</time>
   </trkpt>
   <trkpt lat="53.5393830" lon="-113.4621270">
    <ele>633.4</ele>
    <time>2026-08-23T16:58:25Z</time>
   </trkpt>
   <trkpt lat="53.5393910" lon="-113.4620940">
    <ele>633.5</ele>
    <time>2026-08-23T16:58:26Z</time>
   </trkpt>
   <trkpt lat="53.5394000" lon="-113.4620780">
    <ele>633.6</ele>
    <time>2026-08-23T16:58:27Z</time>
   </trkpt>
   <trkpt lat="53.5394130" lon="-113.4620760">
    <ele>633.6</ele>
    <time>2026-08-23T16:58:28Z</time>
   </trkpt>
   <trkpt lat="53.5394300" lon="-113.4620550">
    <ele>633.7</ele>
    <time>2026-08-23T16:58:29Z</time>
   </trkpt>
   <trkpt lat="53.5394510" lon="-113.4620270">
    <ele>633.8</ele>
    <time>2026-08-23T16:58:30Z</time>
   </trkpt>
   <trkpt lat="53.5394470" lon="-113.4620060">
    <ele>633.9</ele>
    <time>2026-08-23T16:58:31Z</time>
   </trkpt>
   <trkpt lat="53.5394410" lon="-113.4619870">
    <ele>633.9</ele>
    <time>2026-08-23T16:58:32Z</time>
   </trkpt>
   <trkpt lat="53.5394530" lon="-113.4619630">
    <ele>634.0</ele>
    <time>2026-08-23T16:58:33Z</time>
   </trkpt>
   <trkpt lat="53.5394540" lon="-113.4619420">
    <ele>634.1</ele>
    <time>2026-08-23T16:58:34Z</time>
   </trkpt>
   <trkpt lat="53.5394690" lon="-113.4619090">
    <ele>634.3</ele>
    <time>2026-08-23T16:58:35Z</time>
   </trkpt>
   <trkpt lat="53.5394910" lon="-113.4618800">
    <ele>634.4</ele>
    <time>2026-08-23T16:58:36Z</time>
   </trkpt>
   <trkpt lat="53.5395010" lon="-113.4618580">
    <ele>634.5</ele>
    <time>2026-08-23T16:58:37Z</time>
   </trkpt>
   <trkpt lat="53.5395020" lon="-113.4618270">
    <ele>634.6</ele>
    <time>2026-08-23T16:58:38Z</time>
   </trkpt>
   <trkpt lat="53.5395100" lon="-113.4618050">
    <ele>634.7</ele>
    <time>2026-08-23T16:58:39Z</time>
   </trkpt>
   <trkpt lat="53.5395230" lon="-113.4617830">
    <ele>634.8</ele>
    <time>2026-08-23T16:58:40Z</time>
   </trkpt>
   <trkpt lat="53.5395430" lon="-113.4617410">
    <ele>635.0</ele>
    <time>2026-08-23T16:58:41Z</time>
   </trkpt>
   <trkpt lat="53.5395680" lon="-113.4617180">
    <ele>635.1</ele>
    <time>2026-08-23T16:58:42Z</time>
   </trkpt>
   <trkpt lat="53.5395900" lon="-113.4616970">
    <ele>635.3</ele>
    <time>2026-08-23T16:58:43Z</time>
   </trkpt>
   <trkpt lat="53.5396050" lon="-113.4616750">
    <ele>635.4</ele>
    <time>2026-08-23T16:58:44Z</time>
   </trkpt>
   <trkpt lat="53.5396140" lon="-113.4616540">
    <ele>635.5</ele>
    <time>2026-08-23T16:58:45Z</time>
   </trkpt>
   <trkpt lat="53.5396180" lon="-113.4616310">
    <ele>635.6</ele>
    <time>2026-08-23T16:58:46Z</time>
   </trkpt>
   <trkpt lat="53.5396300" lon="-113.4616050">
    <ele>635.7</ele>
    <time>2026-08-23T16:58:47Z</time>
   </trkpt>
   <trkpt lat="53.5396430" lon="-113.4615820">
    <ele>635.8</ele>
    <time>2026-08-23T16:58:48Z</time>
   </trkpt>
   <trkpt lat="53.5396560" lon="-113.4615590">
    <ele>635.9</ele>
    <time>2026-08-23T16:58:49Z</time>
   </trkpt>
   <trkpt lat="53.5396680" lon="-113.4615400">
    <ele>636.0</ele>
    <time>2026-08-23T16:58:50Z</time>
   </trkpt>
   <trkpt lat="53.5396770" lon="-113.4615170">
    <ele>636.1</ele>
    <time>2026-08-23T16:58:51Z</time>
   </trkpt>
   <trkpt lat="53.5396880" lon="-113.4614920">
    <ele>636.2</ele>
    <time>2026-08-23T16:58:52Z</time>
   </trkpt>
   <trkpt lat="53.5397020" lon="-113.4614680">
    <ele>636.3</ele>
    <time>2026-08-23T16:58:53Z</time>
   </trkpt>
   <trkpt lat="53.5397060" lon="-113.4614520">
    <ele>636.4</ele>
    <time>2026-08-23T16:58:54Z</time>
   </trkpt>
   <trkpt lat="53.5397190" lon="-113.4614410">
    <ele>636.5</ele>
    <time>2026-08-23T16:58:55Z</time>
   </trkpt>
   <trkpt lat="53.5397280" lon="-113.4614250">
    <ele>636.5</ele>
    <time>2026-08-23T16:58:56Z</time>
   </trkpt>
   <trkpt lat="53.5397330" lon="-113.4614000">
    <ele>636.6</ele>
    <time>2026-08-23T16:58:57Z</time>
   </trkpt>
   <trkpt lat="53.5397360" lon="-113.4613740">
    <ele>636.7</ele>
    <time>2026-08-23T16:58:58Z</time>
   </trkpt>
   <trkpt lat="53.5397370" lon="-113.4613530">
    <ele>636.8</ele>
    <time>2026-08-23T16:58:59Z</time>
   </trkpt>
   <trkpt lat="53.5397410" lon="-113.4613200">
    <ele>636.9</ele>
    <time>2026-08-23T16:59:00Z</time>
   </trkpt>
   <trkpt lat="53.5397500" lon="-113.4612860">
    <ele>637.0</ele>
    <time>2026-08-23T16:59:01Z</time>
   </trkpt>
   <trkpt lat="53.5397650" lon="-113.4612550">
    <ele>637.1</ele>
    <time>2026-08-23T16:59:02Z</time>
   </trkpt>
   <trkpt lat="53.5397640" lon="-113.4612210">
    <ele>637.2</ele>
    <time>2026-08-23T16:59:03Z</time>
   </trkpt>
   <trkpt lat="53.5397660" lon="-113.4612030">
    <ele>637.2</ele>
    <time>2026-08-23T16:59:04Z</time>
   </trkpt>
   <trkpt lat="53.5397800" lon="-113.4612070">
    <ele>637.3</ele>
    <time>2026-08-23T16:59:05Z</time>
   </trkpt>
   <trkpt lat="53.5397790" lon="-113.4611780">
    <ele>637.3</ele>
    <time>2026-08-23T16:59:06Z</time>
   </trkpt>
   <trkpt lat="53.5397930" lon="-113.4611500">
    <ele>637.4</ele>
    <time>2026-08-23T16:59:07Z</time>
   </trkpt>
   <trkpt lat="53.5398040" lon="-113.4611220">
    <ele>637.5</ele>
    <time>2026-08-23T16:59:08Z</time>
   </trkpt>
   <trkpt lat="53.5398090" lon="-113.4610880">
    <ele>637.6</ele>
    <time>2026-08-23T16:59:09Z</time>
   </trkpt>
   <trkpt lat="53.5398200" lon="-113.4610810">
    <ele>637.7</ele>
    <time>2026-08-23T16:59:10Z</time>
   </trkpt>
   <trkpt lat="53.5398290" lon="-113.4610650">
    <ele>637.9</ele>
    <time>2026-08-23T16:59:11Z</time>
   </trkpt>
   <trkpt lat="53.5398470" lon="-113.4610570">
    <ele>638.1</ele>
    <time>2026-08-23T16:59:12Z</time>
   </trkpt>
   <trkpt lat="53.5398680" lon="-113.4610390">
    <ele>638.3</ele>
    <time>2026-08-23T16:59:13Z</time>
   </trkpt>
   <trkpt lat="53.5398730" lon="-113.4610150">
    <ele>638.5</ele>
    <time>2026-08-23T16:59:14Z</time>
   </trkpt>
   <trkpt lat="53.5398840" lon="-113.4610000">
    <ele>638.7</ele>
    <time>2026-08-23T16:59:15Z</time>
   </trkpt>
   <trkpt lat="53.5398970" lon="-113.4609850">
    <ele>638.8</ele>
    <time>2026-08-23T16:59:16Z</time>
   </trkpt>
   <trkpt lat="53.5399100" lon="-113.4609700">
    <ele>639.0</ele>
    <time>2026-08-23T16:59:17Z</time>
   </trkpt>
   <trkpt lat="53.5399220" lon="-113.4609610">
    <ele>639.1</ele>
    <time>2026-08-23T16:59:18Z</time>
   </trkpt>
   <trkpt lat="53.5399270" lon="-113.4609430">
    <ele>639.3</ele>
    <time>2026-08-23T16:59:19Z</time>
   </trkpt>
   <trkpt lat="53.5399480" lon="-113.4609280">
    <ele>639.5</ele>
    <time>2026-08-23T16:59:20Z</time>
   </trkpt>
   <trkpt lat="53.5399570" lon="-113.4609050">
    <ele>639.7</ele>
    <time>2026-08-23T16:59:21Z</time>
   </trkpt>
   <trkpt lat="53.5399670" lon="-113.4608890">
    <ele>639.9</ele>
    <time>2026-08-23T16:59:22Z</time>
   </trkpt>
   <trkpt lat="53.5399790" lon="-113.4608690">
    <ele>640.0</ele>
    <time>2026-08-23T16:59:23Z</time>
   </trkpt>
   <trkpt lat="53.5399870" lon="-113.4608670">
    <ele>640.1</ele>
    <time>2026-08-23T16:59:24Z</time>
   </trkpt>
   <trkpt lat="53.5400000" lon="-113.4608460">
    <ele>640.3</ele>
    <time>2026-08-23T16:59:25Z</time>
   </trkpt>
   <trkpt lat="53.5400140" lon="-113.4608240">
    <ele>640.5</ele>
    <time>2026-08-23T16:59:26Z</time>
   </trkpt>
   <trkpt lat="53.5400200" lon="-113.4608140">
    <ele>640.6</ele>
    <time>2026-08-23T16:59:27Z</time>
   </trkpt>
   <trkpt lat="53.5400320" lon="-113.4607960">
    <ele>640.8</ele>
    <time>2026-08-23T16:59:28Z</time>
   </trkpt>
   <trkpt lat="53.5400450" lon="-113.4607780">
    <ele>641.0</ele>
    <time>2026-08-23T16:59:29Z</time>
   </trkpt>
   <trkpt lat="53.5400580" lon="-113.4607660">
    <ele>641.2</ele>
    <time>2026-08-23T16:59:30Z</time>
   </trkpt>
   <trkpt lat="53.5400700" lon="-113.4607480">
    <ele>641.4</ele>
    <time>2026-08-23T16:59:31Z</time>
   </trkpt>
   <trkpt lat="53.5400870" lon="-113.4607330">
    <ele>641.6</ele>
    <time>2026-08-23T16:59:32Z</time>
   </trkpt>
   <trkpt lat="53.5401040" lon="-113.4607160">
    <ele>641.8</ele>
    <time>2026-08-23T16:59:33Z</time>
   </trkpt>
   <trkpt lat="53.5401200" lon="-113.4606960">
    <ele>642.0</ele>
    <time>2026-08-23T16:59:34Z</time>
   </trkpt>
   <trkpt lat="53.5401280" lon="-113.4606850">
    <ele>642.2</ele>
    <time>2026-08-23T16:59:35Z</time>
   </trkpt>
   <trkpt lat="53.5401420" lon="-113.4606790">
    <ele>642.3</ele>
    <time>2026-08-23T16:59:36Z</time>
   </trkpt>
   <trkpt lat="53.5401500" lon="-113.4606480">
    <ele>642.6</ele>
    <time>2026-08-23T16:59:37Z</time>
   </trkpt>
   <trkpt lat="53.5401630" lon="-113.4606510">
    <ele>642.7</ele>
    <time>2026-08-23T16:59:38Z</time>
   </trkpt>
   <trkpt lat="53.5401730" lon="-113.4606400">
    <ele>642.9</ele>
    <time>2026-08-23T16:59:39Z</time>
   </trkpt>
   <trkpt lat="53.5401890" lon="-113.4606160">
    <ele>643.1</ele>
    <time>2026-08-23T16:59:40Z</time>
   </trkpt>
   <trkpt lat="53.5402010" lon="-113.4605960">
    <ele>643.3</ele>
    <time>2026-08-23T16:59:41Z</time>
   </trkpt>
   <trkpt lat="53.5402180" lon="-113.4605790">
    <ele>643.5</ele>
    <time>2026-08-23T16:59:42Z</time>
   </trkpt>
   <trkpt lat="53.5402320" lon="-113.4605570">
    <ele>643.8</ele>
    <time>2026-08-23T16:59:43Z</time>
   </trkpt>
   <trkpt lat="53.5402510" lon="-113.4605420">
    <ele>644.0</ele>
    <time>2026-08-23T16:59:44Z</time>
   </trkpt>
   <trkpt lat="53.5402690" lon="-113.4605140">
    <ele>644.3</ele>
    <time>2026-08-23T16:59:45Z</time>
   </trkpt>
   <trkpt lat="53.5402780" lon="-113.4604930">
    <ele>644.4</ele>
    <time>2026-08-23T16:59:46Z</time>
   </trkpt>
   <trkpt lat="53.5402990" lon="-113.4604890">
    <ele>644.7</ele>
    <time>2026-08-23T16:59:47Z</time>
   </trkpt>
   <trkpt lat="53.5403110" lon="-113.4604660">
    <ele>644.9</ele>
    <time>2026-08-23T16:59:48Z</time>
   </trkpt>
   <trkpt lat="53.5403240" lon="-113.4604470">
    <ele>645.1</ele>
    <time>2026-08-23T16:59:49Z</time>
   </trkpt>
   <trkpt lat="53.5403360" lon="-113.4604540">
    <ele>645.2</ele>
    <time>2026-08-23T16:59:50Z</time>
   </trkpt>
   <trkpt lat="53.5403460" lon="-113.4604500">
    <ele>645.3</ele>
    <time>2026-08-23T16:59:51Z</time>
   </trkpt>
   <trkpt lat="53.5403680" lon="-113.4604520">
    <ele>645.5</ele>
    <time>2026-08-23T16:59:52Z</time>
   </trkpt>
   <trkpt lat="53.5403730" lon="-113.4604140">
    <ele>645.8</ele>
    <time>2026-08-23T16:59:53Z</time>
   </trkpt>
   <trkpt lat="53.5403770" lon="-113.4604100">
    <ele>645.8</ele>
    <time>2026-08-23T16:59:54Z</time>
   </trkpt>
   <trkpt lat="53.5403920" lon="-113.4604030">
    <ele>646.0</ele>
    <time>2026-08-23T16:59:55Z</time>
   </trkpt>
   <trkpt lat="53.5404060" lon="-113.4603990">
    <ele>646.1</ele>
    <time>2026-08-23T16:59:56Z</time>
   </trkpt>
   <trkpt lat="53.5404220" lon="-113.4603830">
    <ele>646.3</ele>
    <time>2026-08-23T16:59:57Z</time>
   </trkpt>
   <trkpt lat="53.5404310" lon="-113.4603730">
    <ele>646.4</ele>
    <time>2026-08-23T16:59:58Z</time>
   </trkpt>
   <trkpt lat="53.5404470" lon="-113.4603640">
    <ele>646.6</ele>
    <time>2026-08-23T16:59:59Z</time>
   </trkpt>
   <trkpt lat="53.5404670" lon="-113.4603630">
    <ele>646.8</ele>
    <time>2026-08-23T17:00:00Z</time>
   </trkpt>
   <trkpt lat="53.5404860" lon="-113.4603470">
    <ele>647.0</ele>
    <time>2026-08-23T17:00:01Z</time>
   </trkpt>
   <trkpt lat="53.5405080" lon="-113.4603290">
    <ele>647.2</ele>
    <time>2026-08-23T17:00:02Z</time>
   </trkpt>
   <trkpt lat="53.5405310" lon="-113.4603170">
    <ele>647.5</ele>
    <time>2026-08-23T17:00:03Z</time>
   </trkpt>
   <trkpt lat="53.5405440" lon="-113.4603000">
    <ele>647.6</ele>
    <time>2026-08-23T17:00:04Z</time>
   </trkpt>
   <trkpt lat="53.5405600" lon="-113.4602880">
    <ele>647.8</ele>
    <time>2026-08-23T17:00:05Z</time>
   </trkpt>
   <trkpt lat="53.5405790" lon="-113.4602710">
    <ele>648.0</ele>
    <time>2026-08-23T17:00:06Z</time>
   </trkpt>
   <trkpt lat="53.5405910" lon="-113.4602470">
    <ele>648.2</ele>
    <time>2026-08-23T17:00:07Z</time>
   </trkpt>
   <trkpt lat="53.5406020" lon="-113.4602150">
    <ele>648.4</ele>
    <time>2026-08-23T17:00:08Z</time>
   </trkpt>
   <trkpt lat="53.5406160" lon="-113.4601960">
    <ele>648.6</ele>
    <time>2026-08-23T17:00:09Z</time>
   </trkpt>
   <trkpt lat="53.5406350" lon="-113.4601900">
    <ele>648.8</ele>
    <time>2026-08-23T17:00:10Z</time>
   </trkpt>
   <trkpt lat="53.5406490" lon="-113.4601990">
    <ele>648.9</ele>
    <time>2026-08-23T17:00:11Z</time>
   </trkpt>
   <trkpt lat="53.5406600" lon="-113.4601750">
    <ele>649.1</ele>
    <time>2026-08-23T17:00:12Z</time>
   </trkpt>
   <trkpt lat="53.5406810" lon="-113.4601490">
    <ele>649.3</ele>
    <time>2026-08-23T17:00:13Z</time>
   </trkpt>
   <trkpt lat="53.5406870" lon="-113.4601410">
    <ele>649.4</ele>
    <time>2026-08-23T17:00:14Z</time>
   </trkpt>
   <trkpt lat="53.5407020" lon="-113.4601240">
    <ele>649.6</ele>
    <time>2026-08-23T17:00:15Z</time>
   </trkpt>
   <trkpt lat="53.5407160" lon="-113.4601210">
    <ele>649.7</ele>
    <time>2026-08-23T17:00:16Z</time>
   </trkpt>
   <trkpt lat="53.5407280" lon="-113.4601040">
    <ele>649.8</ele>
    <time>2026-08-23T17:00:17Z</time>
   </trkpt>
   <trkpt lat="53.5407400" lon="-113.4600800">
    <ele>650.0</ele>
    <time>2026-08-23T17:00:18Z</time>
   </trkpt>
   <trkpt lat="53.5407540" lon="-113.4600690">
    <ele>650.2</ele>
    <time>2026-08-23T17:00:19Z</time>
   </trkpt>
   <trkpt lat="53.5407650" lon="-113.4600500">
    <ele>650.3</ele>
    <time>2026-08-23T17:00:20Z</time>
   </trkpt>
   <trkpt lat="53.5407790" lon="-113.4600230">
    <ele>650.5</ele>
    <time>2026-08-23T17:00:21Z</time>
   </trkpt>
   <trkpt lat="53.5407870" lon="-113.4600060">
    <ele>650.6</ele>
    <time>2026-08-23T17:00:22Z</time>
   </trkpt>
   <trkpt lat="53.5408060" lon="-113.4599970">
    <ele>650.8</ele>
    <time>2026-08-23T17:00:23Z</time>
   </trkpt>
   <trkpt lat="53.5408120" lon="-113.4599800">
    <ele>650.9</ele>
    <time>2026-08-23T17:00:24Z</time>
   </trkpt>
   <trkpt lat="53.5408280" lon="-113.4599610">
    <ele>651.1</ele>
    <time>2026-08-23T17:00:25Z</time>
   </trkpt>
   <trkpt lat="53.5408420" lon="-113.4599340">
    <ele>651.3</ele>
    <time>2026-08-23T17:00:26Z</time>
   </trkpt>
   <trkpt lat="53.5408540" lon="-113.4599240">
    <ele>651.4</ele>
    <time>2026-08-23T17:00:27Z</time>
   </trkpt>
   <trkpt lat="53.5408670" lon="-113.4599070">
    <ele>651.6</ele>
    <time>2026-08-23T17:00:28Z</time>
   </trkpt>
   <trkpt lat="53.5408790" lon="-113.4598900">
    <ele>651.7</ele>
    <time>2026-08-23T17:00:29Z</time>
   </trkpt>
   <trkpt lat="53.5408870" lon="-113.4598640">
    <ele>651.9</ele>
    <time>2026-08-23T17:00:30Z</time>
   </trkpt>
   <trkpt lat="53.5408970" lon="-113.4598470">
    <ele>652.0</ele>
    <time>2026-08-23T17:00:31Z</time>
   </trkpt>
   <trkpt lat="53.5409060" lon="-113.4598340">
    <ele>652.1</ele>
    <time>2026-08-23T17:00:32Z</time>
   </trkpt>
   <trkpt lat="53.5409140" lon="-113.4598070">
    <ele>652.3</ele>
    <time>2026-08-23T17:00:33Z</time>
   </trkpt>
   <trkpt lat="53.5409220" lon="-113.4597950">
    <ele>652.4</ele>
    <time>2026-08-23T17:00:34Z</time>
   </trkpt>
   <trkpt lat="53.5409390" lon="-113.4597840">
    <ele>652.6</ele>
    <time>2026-08-23T17:00:35Z</time>
   </trkpt>
   <trkpt lat="53.5409530" lon="-113.4597710">
    <ele>652.7</ele>
    <time>2026-08-23T17:00:36Z</time>
   </trkpt>
   <trkpt lat="53.5409600" lon="-113.4597420">
    <ele>652.9</ele>
    <time>2026-08-23T17:00:37Z</time>
   </trkpt>
   <trkpt lat="53.5409650" lon="-113.4597150">
    <ele>653.0</ele>
    <time>2026-08-23T17:00:38Z</time>
   </trkpt>
   <trkpt lat="53.5409740" lon="-113.4597130">
    <ele>653.1</ele>
    <time>2026-08-23T17:00:39Z</time>
   </trkpt>
   <trkpt lat="53.5409800" lon="-113.4597070">
    <ele>653.2</ele>
    <time>2026-08-23T17:00:40Z</time>
   </trkpt>
   <trkpt lat="53.5409820" lon="-113.4597400">
    <ele>653.4</ele>
    <time>2026-08-23T17:00:41Z</time>
   </trkpt>
   <trkpt lat="53.5409890" lon="-113.4597500">
    <ele>653.5</ele>
    <time>2026-08-23T17:00:42Z</time>
   </trkpt>
   <trkpt lat="53.5409890" lon="-113.4597370">
    <ele>653.5</ele>
    <time>2026-08-23T17:00:43Z</time>
   </trkpt>
   <trkpt lat="53.5409830" lon="-113.4597350">
    <ele>653.6</ele>
    <time>2026-08-23T17:00:44Z</time>
   </trkpt>
   <trkpt lat="53.5409740" lon="-113.4597210">
    <ele>653.7</ele>
    <time>2026-08-23T17:00:45Z</time>
   </trkpt>
   <trkpt lat="53.5409760" lon="-113.4597150">
    <ele>653.7</ele>
    <time>2026-08-23T17:00:46Z</time>
   </trkpt>
   <trkpt lat="53.5409890" lon="-113.4597080">
    <ele>653.9</ele>
    <time>2026-08-23T17:00:47Z</time>
   </trkpt>
   <trkpt lat="53.5409960" lon="-113.4597060">
    <ele>653.9</ele>
    <time>2026-08-23T17:00:48Z</time>
   </trkpt>
   <trkpt lat="53.5410050" lon="-113.4596970">
    <ele>654.0</ele>
    <time>2026-08-23T17:00:49Z</time>
   </trkpt>
   <trkpt lat="53.5410090" lon="-113.4597020">
    <ele>654.1</ele>
    <time>2026-08-23T17:00:50Z</time>
   </trkpt>
   <trkpt lat="53.5410170" lon="-113.4596880">
    <ele>654.2</ele>
    <time>2026-08-23T17:00:51Z</time>
   </trkpt>
   <trkpt lat="53.5410220" lon="-113.4596730">
    <ele>654.3</ele>
    <time>2026-08-23T17:00:52Z</time>
   </trkpt>
   <trkpt lat="53.5410280" lon="-113.4596520">
    <ele>654.4</ele>
    <time>2026-08-23T17:00:53Z</time>
   </trkpt>
   <trkpt lat="53.5410270" lon="-113.4596480">
    <ele>654.4</ele>
    <time>2026-08-23T17:00:54Z</time>
   </trkpt>
   <trkpt lat="53.5410400" lon="-113.4596320">
    <ele>654.6</ele>
    <time>2026-08-23T17:00:55Z</time>
   </trkpt>
   <trkpt lat="53.5410380" lon="-113.4596250">
    <ele>654.6</ele>
    <time>2026-08-23T17:00:56Z</time>
   </trkpt>
   <trkpt lat="53.5410380" lon="-113.4596170">
    <ele>654.7</ele>
    <time>2026-08-23T17:00:57Z</time>
   </trkpt>
   <trkpt lat="53.5410350" lon="-113.4596170">
    <ele>654.7</ele>
    <time>2026-08-23T17:00:58Z</time>
   </trkpt>
   <trkpt lat="53.5410390" lon="-113.4596070">
    <ele>654.8</ele>
    <time>2026-08-23T17:00:59Z</time>
   </trkpt>
   <trkpt lat="53.5410500" lon="-113.4595980">
    <ele>654.9</ele>
    <time>2026-08-23T17:01:00Z</time>
   </trkpt>
   <trkpt lat="53.5410640" lon="-113.4595770">
    <ele>655.0</ele>
    <time>2026-08-23T17:01:01Z</time>
   </trkpt>
   <trkpt lat="53.5410640" lon="-113.4595720">
    <ele>655.1</ele>
    <time>2026-08-23T17:01:02Z</time>
   </trkpt>
   <trkpt lat="53.5410730" lon="-113.4595600">
    <ele>655.2</ele>
    <time>2026-08-23T17:01:03Z</time>
   </trkpt>
   <trkpt lat="53.5410760" lon="-113.4595620">
    <ele>655.2</ele>
    <time>2026-08-23T17:01:04Z</time>
   </trkpt>
   <trkpt lat="53.5410850" lon="-113.4595510">
    <ele>655.3</ele>
    <time>2026-08-23T17:01:05Z</time>
   </trkpt>
   <trkpt lat="53.5410880" lon="-113.4595300">
    <ele>655.4</ele>
    <time>2026-08-23T17:01:06Z</time>
   </trkpt>
   <trkpt lat="53.5410900" lon="-113.4595180">
    <ele>655.5</ele>
    <time>2026-08-23T17:01:07Z</time>
   </trkpt>
   <trkpt lat="53.5410930" lon="-113.4595040">
    <ele>655.6</ele>
    <time>2026-08-23T17:01:08Z</time>
   </trkpt>
   <trkpt lat="53.5411060" lon="-113.4594840">
    <ele>655.7</ele>
    <time>2026-08-23T17:01:09Z</time>
   </trkpt>
   <trkpt lat="53.5411190" lon="-113.4594560">
    <ele>655.9</ele>
    <time>2026-08-23T17:01:10Z</time>
   </trkpt>
   <trkpt lat="53.5411370" lon="-113.4594380">
    <ele>656.1</ele>
    <time>2026-08-23T17:01:11Z</time>
   </trkpt>
   <trkpt lat="53.5411470" lon="-113.4594130">
    <ele>656.2</ele>
    <time>2026-08-23T17:01:12Z</time>
   </trkpt>
   <trkpt lat="53.5411440" lon="-113.4593870">
    <ele>656.4</ele>
    <time>2026-08-23T17:01:13Z</time>
   </trkpt>
   <trkpt lat="53.5411470" lon="-113.4593600">
    <ele>656.5</ele>
    <time>2026-08-23T17:01:14Z</time>
   </trkpt>
   <trkpt lat="53.5411490" lon="-113.4593390">
    <ele>656.6</ele>
    <time>2026-08-23T17:01:15Z</time>
   </trkpt>
   <trkpt lat="53.5411660" lon="-113.4592860">
    <ele>656.9</ele>
    <time>2026-08-23T17:01:16Z</time>
   </trkpt>
   <trkpt lat="53.5411750" lon="-113.4592490">
    <ele>657.1</ele>
    <time>2026-08-23T17:01:17Z</time>
   </trkpt>
   <trkpt lat="53.5411880" lon="-113.4592020">
    <ele>657.4</ele>
    <time>2026-08-23T17:01:18Z</time>
   </trkpt>
   <trkpt lat="53.5411840" lon="-113.4591700">
    <ele>657.5</ele>
    <time>2026-08-23T17:01:19Z</time>
   </trkpt>
   <trkpt lat="53.5411880" lon="-113.4590790">
    <ele>657.9</ele>
    <time>2026-08-23T17:01:20Z</time>
   </trkpt>
   <trkpt lat="53.5411870" lon="-113.4590660">
    <ele>658.0</ele>
    <time>2026-08-23T17:01:21Z</time>
   </trkpt>
   <trkpt lat="53.5411870" lon="-113.4590600">
    <ele>658.0</ele>
    <time>2026-08-23T17:01:22Z</time>
   </trkpt>
   <trkpt lat="53.5411820" lon="-113.4590510">
    <ele>658.1</ele>
    <time>2026-08-23T17:01:23Z</time>
   </trkpt>
   <trkpt lat="53.5411790" lon="-113.4590300">
    <ele>658.2</ele>
    <time>2026-08-23T17:01:24Z</time>
   </trkpt>
   <trkpt lat="53.5411930" lon="-113.4589840">
    <ele>658.5</ele>
    <time>2026-08-23T17:01:25Z</time>
   </trkpt>
   <trkpt lat="53.5412050" lon="-113.4589590">
    <ele>658.6</ele>
    <time>2026-08-23T17:01:26Z</time>
   </trkpt>
   <trkpt lat="53.5412300" lon="-113.4589200">
    <ele>658.9</ele>
    <time>2026-08-23T17:01:27Z</time>
   </trkpt>
   <trkpt lat="53.5412450" lon="-113.4589130">
    <ele>658.9</ele>
    <time>2026-08-23T17:01:28Z</time>
   </trkpt>
   <trkpt lat="53.5412730" lon="-113.4588900">
    <ele>659.0</ele>
    <time>2026-08-23T17:01:29Z</time>
   </trkpt>
   <trkpt lat="53.5412940" lon="-113.4588740">
    <ele>659.1</ele>
    <time>2026-08-23T17:01:30Z</time>
   </trkpt>
   <trkpt lat="53.5413210" lon="-113.4588870">
    <ele>659.1</ele>
    <time>2026-08-23T17:01:31Z</time>
   </trkpt>
   <trkpt lat="53.5413510" lon="-113.4588900">
    <ele>659.2</ele>
    <time>2026-08-23T17:01:32Z</time>
   </trkpt>
   <trkpt lat="53.5413640" lon="-113.4588810">
    <ele>659.2</ele>
    <time>2026-08-23T17:01:33Z</time>
   </trkpt>
   <trkpt lat="53.5413750" lon="-113.4588920">
    <ele>659.2</ele>
    <time>2026-08-23T17:01:34Z</time>
   </trkpt>
   <trkpt lat="53.5413860" lon="-113.4589080">
    <ele>659.3</ele>
    <time>2026-08-23T17:01:35Z</time>
   </trkpt>
   <trkpt lat="53.5413990" lon="-113.4589270">
    <ele>659.3</ele>
    <time>2026-08-23T17:01:36Z</time>
   </trkpt>
   <trkpt lat="53.5414130" lon="-113.4589330">
    <ele>659.3</ele>
    <time>2026-08-23T17:01:37Z</time>
   </trkpt>
   <trkpt lat="53.5414270" lon="-113.4589390">
    <ele>659.3</ele>
    <time>2026-08-23T17:01:38Z</time>
   </trkpt>
   <trkpt lat="53.5414400" lon="-113.4589470">
    <ele>659.3</ele>
    <time>2026-08-23T17:01:39Z</time>
   </trkpt>
   <trkpt lat="53.5414530" lon="-113.4589640">
    <ele>659.4</ele>
    <time>2026-08-23T17:01:40Z</time>
   </trkpt>
   <trkpt lat="53.5414690" lon="-113.4589660">
    <ele>659.4</ele>
    <time>2026-08-23T17:01:41Z</time>
   </trkpt>
   <trkpt lat="53.5414820" lon="-113.4589730">
    <ele>659.4</ele>
    <time>2026-08-23T17:01:42Z</time>
   </trkpt>
   <trkpt lat="53.5414970" lon="-113.4589800">
    <ele>659.4</ele>
    <time>2026-08-23T17:01:43Z</time>
   </trkpt>
   <trkpt lat="53.5415120" lon="-113.4589860">
    <ele>659.4</ele>
    <time>2026-08-23T17:01:44Z</time>
   </trkpt>
   <trkpt lat="53.5415300" lon="-113.4589950">
    <ele>659.4</ele>
    <time>2026-08-23T17:01:45Z</time>
   </trkpt>
   <trkpt lat="53.5415510" lon="-113.4590070">
    <ele>659.5</ele>
    <time>2026-08-23T17:01:46Z</time>
   </trkpt>
   <trkpt lat="53.5415700" lon="-113.4590210">
    <ele>659.5</ele>
    <time>2026-08-23T17:01:47Z</time>
   </trkpt>
   <trkpt lat="53.5415860" lon="-113.4590400">
    <ele>659.5</ele>
    <time>2026-08-23T17:01:48Z</time>
   </trkpt>
   <trkpt lat="53.5416010" lon="-113.4590580">
    <ele>659.5</ele>
    <time>2026-08-23T17:01:49Z</time>
   </trkpt>
   <trkpt lat="53.5416180" lon="-113.4590600">
    <ele>659.5</ele>
    <time>2026-08-23T17:01:50Z</time>
   </trkpt>
   <trkpt lat="53.5416380" lon="-113.4590620">
    <ele>659.5</ele>
    <time>2026-08-23T17:01:51Z</time>
   </trkpt>
   <trkpt lat="53.5416570" lon="-113.4590650">
    <ele>659.5</ele>
    <time>2026-08-23T17:01:52Z</time>
   </trkpt>
   <trkpt lat="53.5416790" lon="-113.4590620">
    <ele>659.5</ele>
    <time>2026-08-23T17:01:53Z</time>
   </trkpt>
   <trkpt lat="53.5417040" lon="-113.4590740">
    <ele>659.5</ele>
    <time>2026-08-23T17:01:54Z</time>
   </trkpt>
   <trkpt lat="53.5417270" lon="-113.4590830">
    <ele>659.5</ele>
    <time>2026-08-23T17:01:55Z</time>
   </trkpt>
   <trkpt lat="53.5417490" lon="-113.4590830">
    <ele>659.5</ele>
    <time>2026-08-23T17:01:56Z</time>
   </trkpt>
   <trkpt lat="53.5417670" lon="-113.4590840">
    <ele>659.5</ele>
    <time>2026-08-23T17:01:57Z</time>
   </trkpt>
   <trkpt lat="53.5417890" lon="-113.4590910">
    <ele>659.5</ele>
    <time>2026-08-23T17:01:58Z</time>
   </trkpt>
   <trkpt lat="53.5418140" lon="-113.4590920">
    <ele>659.5</ele>
    <time>2026-08-23T17:01:59Z</time>
   </trkpt>
   <trkpt lat="53.5418380" lon="-113.4590930">
    <ele>659.5</ele>
    <time>2026-08-23T17:02:00Z</time>
   </trkpt>
   <trkpt lat="53.5418510" lon="-113.4590840">
    <ele>659.5</ele>
    <time>2026-08-23T17:02:01Z</time>
   </trkpt>
   <trkpt lat="53.5418730" lon="-113.4590880">
    <ele>659.5</ele>
    <time>2026-08-23T17:02:02Z</time>
   </trkpt>
   <trkpt lat="53.5418930" lon="-113.4590760">
    <ele>659.5</ele>
    <time>2026-08-23T17:02:03Z</time>
   </trkpt>
   <trkpt lat="53.5419120" lon="-113.4590730">
    <ele>659.5</ele>
    <time>2026-08-23T17:02:04Z</time>
   </trkpt>
   <trkpt lat="53.5419330" lon="-113.4590670">
    <ele>659.5</ele>
    <time>2026-08-23T17:02:05Z</time>
   </trkpt>
   <trkpt lat="53.5419540" lon="-113.4590580">
    <ele>659.5</ele>
    <time>2026-08-23T17:02:06Z</time>
   </trkpt>
   <trkpt lat="53.5419750" lon="-113.4590490">
    <ele>659.5</ele>
    <time>2026-08-23T17:02:07Z</time>
   </trkpt>
   <trkpt lat="53.5419960" lon="-113.4590420">
    <ele>659.4</ele>
    <time>2026-08-23T17:02:08Z</time>
   </trkpt>
   <trkpt lat="53.5420180" lon="-113.4590360">
    <ele>659.4</ele>
    <time>2026-08-23T17:02:09Z</time>
   </trkpt>
   <trkpt lat="53.5420360" lon="-113.4590210">
    <ele>659.4</ele>
    <time>2026-08-23T17:02:10Z</time>
   </trkpt>
   <trkpt lat="53.5420620" lon="-113.4590130">
    <ele>659.4</ele>
    <time>2026-08-23T17:02:11Z</time>
   </trkpt>
   <trkpt lat="53.5420900" lon="-113.4590060">
    <ele>659.4</ele>
    <time>2026-08-23T17:02:12Z</time>
   </trkpt>
   <trkpt lat="53.5421140" lon="-113.4590030">
    <ele>659.4</ele>
    <time>2026-08-23T17:02:13Z</time>
   </trkpt>
   <trkpt lat="53.5421310" lon="-113.4589980">
    <ele>659.4</ele>
    <time>2026-08-23T17:02:14Z</time>
   </trkpt>
   <trkpt lat="53.5421500" lon="-113.4589830">
    <ele>659.4</ele>
    <time>2026-08-23T17:02:15Z</time>
   </trkpt>
   <trkpt lat="53.5421690" lon="-113.4589660">
    <ele>659.4</ele>
    <time>2026-08-23T17:02:16Z</time>
   </trkpt>
   <trkpt lat="53.5421890" lon="-113.4589580">
    <ele>659.4</ele>
    <time>2026-08-23T17:02:17Z</time>
   </trkpt>
   <trkpt lat="53.5422110" lon="-113.4589350">
    <ele>659.4</ele>
    <time>2026-08-23T17:02:18Z</time>
   </trkpt>
   <trkpt lat="53.5422290" lon="-113.4589250">
    <ele>659.4</ele>
    <time>2026-08-23T17:02:19Z</time>
   </trkpt>
   <trkpt lat="53.5422490" lon="-113.4589190">
    <ele>659.4</ele>
    <time>2026-08-23T17:02:20Z</time>
   </trkpt>
   <trkpt lat="53.5422710" lon="-113.4589250">
    <ele>659.4</ele>
    <time>2026-08-23T17:02:21Z</time>
   </trkpt>
   <trkpt lat="53.5422950" lon="-113.4589220">
    <ele>659.4</ele>
    <time>2026-08-23T17:02:22Z</time>
   </trkpt>
   <trkpt lat="53.5423190" lon="-113.4589300">
    <ele>659.4</ele>
    <time>2026-08-23T17:02:23Z</time>
   </trkpt>
   <trkpt lat="53.5423380" lon="-113.4589280">
    <ele>659.4</ele>
    <time>2026-08-23T17:02:24Z</time>
   </trkpt>
   <trkpt lat="53.5423580" lon="-113.4589300">
    <ele>659.5</ele>
    <time>2026-08-23T17:02:25Z</time>
   </trkpt>
   <trkpt lat="53.5423740" lon="-113.4589280">
    <ele>659.5</ele>
    <time>2026-08-23T17:02:26Z</time>
   </trkpt>
   <trkpt lat="53.5423950" lon="-113.4589220">
    <ele>659.5</ele>
    <time>2026-08-23T17:02:27Z</time>
   </trkpt>
   <trkpt lat="53.5424160" lon="-113.4589220">
    <ele>659.5</ele>
    <time>2026-08-23T17:02:28Z</time>
   </trkpt>
   <trkpt lat="53.5424320" lon="-113.4588920">
    <ele>659.5</ele>
    <time>2026-08-23T17:02:29Z</time>
   </trkpt>
   <trkpt lat="53.5424530" lon="-113.4589010">
    <ele>659.5</ele>
    <time>2026-08-23T17:02:30Z</time>
   </trkpt>
   <trkpt lat="53.5424710" lon="-113.4589070">
    <ele>659.5</ele>
    <time>2026-08-23T17:02:31Z</time>
   </trkpt>
   <trkpt lat="53.5424870" lon="-113.4589100">
    <ele>659.5</ele>
    <time>2026-08-23T17:02:32Z</time>
   </trkpt>
   <trkpt lat="53.5425030" lon="-113.4589050">
    <ele>659.5</ele>
    <time>2026-08-23T17:02:33Z</time>
   </trkpt>
   <trkpt lat="53.5425210" lon="-113.4588930">
    <ele>659.5</ele>
    <time>2026-08-23T17:02:34Z</time>
   </trkpt>
   <trkpt lat="53.5425360" lon="-113.4588800">
    <ele>659.5</ele>
    <time>2026-08-23T17:02:35Z</time>
   </trkpt>
   <trkpt lat="53.5425540" lon="-113.4588700">
    <ele>659.5</ele>
    <time>2026-08-23T17:02:36Z</time>
   </trkpt>
   <trkpt lat="53.5425720" lon="-113.4588540">
    <ele>659.5</ele>
    <time>2026-08-23T17:02:37Z</time>
   </trkpt>
   <trkpt lat="53.5425930" lon="-113.4588490">
    <ele>659.6</ele>
    <time>2026-08-23T17:02:38Z</time>
   </trkpt>
   <trkpt lat="53.5426120" lon="-113.4588340">
    <ele>659.6</ele>
    <time>2026-08-23T17:02:39Z</time>
   </trkpt>
   <trkpt lat="53.5426290" lon="-113.4588230">
    <ele>659.6</ele>
    <time>2026-08-23T17:02:40Z</time>
   </trkpt>
   <trkpt lat="53.5426470" lon="-113.4588110">
    <ele>659.6</ele>
    <time>2026-08-23T17:02:41Z</time>
   </trkpt>
   <trkpt lat="53.5426680" lon="-113.4588040">
    <ele>659.6</ele>
    <time>2026-08-23T17:02:42Z</time>
   </trkpt>
   <trkpt lat="53.5426840" lon="-113.4587880">
    <ele>659.6</ele>
    <time>2026-08-23T17:02:43Z</time>
   </trkpt>
   <trkpt lat="53.5427010" lon="-113.4587710">
    <ele>659.6</ele>
    <time>2026-08-23T17:02:44Z</time>
   </trkpt>
   <trkpt lat="53.5427170" lon="-113.4587540">
    <ele>659.7</ele>
    <time>2026-08-23T17:02:45Z</time>
   </trkpt>
   <trkpt lat="53.5427230" lon="-113.4587420">
    <ele>659.7</ele>
    <time>2026-08-23T17:02:46Z</time>
   </trkpt>
   <trkpt lat="53.5427420" lon="-113.4587180">
    <ele>659.7</ele>
    <time>2026-08-23T17:02:47Z</time>
   </trkpt>
   <trkpt lat="53.5427550" lon="-113.4586970">
    <ele>659.7</ele>
    <time>2026-08-23T17:02:48Z</time>
   </trkpt>
   <trkpt lat="53.5427680" lon="-113.4586760">
    <ele>659.7</ele>
    <time>2026-08-23T17:02:49Z</time>
   </trkpt>
   <trkpt lat="53.5427840" lon="-113.4586570">
    <ele>659.7</ele>
    <time>2026-08-23T17:02:50Z</time>
   </trkpt>
   <trkpt lat="53.5428060" lon="-113.4586490">
    <ele>659.7</ele>
    <time>2026-08-23T17:02:51Z</time>
   </trkpt>
   <trkpt lat="53.5428220" lon="-113.4586360">
    <ele>659.7</ele>
    <time>2026-08-23T17:02:52Z</time>
   </trkpt>
   <trkpt lat="53.5428380" lon="-113.4586240">
    <ele>659.7</ele>
    <time>2026-08-23T17:02:53Z</time>
   </trkpt>
   <trkpt lat="53.5428520" lon="-113.4586080">
    <ele>659.7</ele>
    <time>2026-08-23T17:02:54Z</time>
   </trkpt>
   <trkpt lat="53.5428650" lon="-113.4585980">
    <ele>659.7</ele>
    <time>2026-08-23T17:02:55Z</time>
   </trkpt>
   <trkpt lat="53.5428830" lon="-113.4585930">
    <ele>659.8</ele>
    <time>2026-08-23T17:02:56Z</time>
   </trkpt>
   <trkpt lat="53.5428990" lon="-113.4585800">
    <ele>659.8</ele>
    <time>2026-08-23T17:02:57Z</time>
   </trkpt>
   <trkpt lat="53.5429170" lon="-113.4585750">
    <ele>659.8</ele>
    <time>2026-08-23T17:02:58Z</time>
   </trkpt>
   <trkpt lat="53.5429340" lon="-113.4585670">
    <ele>659.8</ele>
    <time>2026-08-23T17:02:59Z</time>
   </trkpt>
   <trkpt lat="53.5429530" lon="-113.4585700">
    <ele>659.8</ele>
    <time>2026-08-23T17:03:00Z</time>
   </trkpt>
   <trkpt lat="53.5429720" lon="-113.4585720">
    <ele>659.8</ele>
    <time>2026-08-23T17:03:01Z</time>
   </trkpt>
   <trkpt lat="53.5429900" lon="-113.4585690">
    <ele>659.8</ele>
    <time>2026-08-23T17:03:02Z</time>
   </trkpt>
   <trkpt lat="53.5430060" lon="-113.4585600">
    <ele>659.8</ele>
    <time>2026-08-23T17:03:03Z</time>
   </trkpt>
   <trkpt lat="53.5430240" lon="-113.4585540">
    <ele>659.8</ele>
    <time>2026-08-23T17:03:04Z</time>
   </trkpt>
   <trkpt lat="53.5430430" lon="-113.4585580">
    <ele>659.8</ele>
    <time>2026-08-23T17:03:05Z</time>
   </trkpt>
   <trkpt lat="53.5430610" lon="-113.4585590">
    <ele>659.8</ele>
    <time>2026-08-23T17:03:06Z</time>
   </trkpt>
   <trkpt lat="53.5430760" lon="-113.4585650">
    <ele>659.8</ele>
    <time>2026-08-23T17:03:07Z</time>
   </trkpt>
   <trkpt lat="53.5430930" lon="-113.4585620">
    <ele>659.8</ele>
    <time>2026-08-23T17:03:08Z</time>
   </trkpt>
   <trkpt lat="53.5431110" lon="-113.4585600">
    <ele>659.8</ele>
    <time>2026-08-23T17:03:09Z</time>
   </trkpt>
   <trkpt lat="53.5431330" lon="-113.4585610">
    <ele>659.8</ele>
    <time>2026-08-23T17:03:10Z</time>
   </trkpt>
   <trkpt lat="53.5431550" lon="-113.4585740">
    <ele>659.8</ele>
    <time>2026-08-23T17:03:11Z</time>
   </trkpt>
   <trkpt lat="53.5431750" lon="-113.4585880">
    <ele>659.8</ele>
    <time>2026-08-23T17:03:12Z</time>
   </trkpt>
   <trkpt lat="53.5431920" lon="-113.4585960">
    <ele>659.8</ele>
    <time>2026-08-23T17:03:13Z</time>
   </trkpt>
   <trkpt lat="53.5432110" lon="-113.4586030">
    <ele>659.8</ele>
    <time>2026-08-23T17:03:14Z</time>
   </trkpt>
   <trkpt lat="53.5432270" lon="-113.4586080">
    <ele>659.8</ele>
    <time>2026-08-23T17:03:15Z</time>
   </trkpt>
   <trkpt lat="53.5432450" lon="-113.4586120">
    <ele>659.8</ele>
    <time>2026-08-23T17:03:16Z</time>
   </trkpt>
   <trkpt lat="53.5432670" lon="-113.4586140">
    <ele>659.8</ele>
    <time>2026-08-23T17:03:17Z</time>
   </trkpt>
   <trkpt lat="53.5432860" lon="-113.4586180">
    <ele>659.8</ele>
    <time>2026-08-23T17:03:18Z</time>
   </trkpt>
   <trkpt lat="53.5433040" lon="-113.4586200">
    <ele>659.8</ele>
    <time>2026-08-23T17:03:19Z</time>
   </trkpt>
   <trkpt lat="53.5433240" lon="-113.4586290">
    <ele>659.8</ele>
    <time>2026-08-23T17:03:20Z</time>
   </trkpt>
   <trkpt lat="53.5433450" lon="-113.4586350">
    <ele>659.8</ele>
    <time>2026-08-23T17:03:21Z</time>
   </trkpt>
   <trkpt lat="53.5433640" lon="-113.4586360">
    <ele>659.8</ele>
    <time>2026-08-23T17:03:22Z</time>
   </trkpt>
   <trkpt lat="53.5433830" lon="-113.4586430">
    <ele>659.8</ele>
    <time>2026-08-23T17:03:23Z</time>
   </trkpt>
   <trkpt lat="53.5434010" lon="-113.4586450">
    <ele>659.8</ele>
    <time>2026-08-23T17:03:24Z</time>
   </trkpt>
   <trkpt lat="53.5434190" lon="-113.4586460">
    <ele>659.8</ele>
    <time>2026-08-23T17:03:25Z</time>
   </trkpt>
   <trkpt lat="53.5434370" lon="-113.4586560">
    <ele>659.8</ele>
    <time>2026-08-23T17:03:26Z</time>
   </trkpt>
   <trkpt lat="53.5434500" lon="-113.4586760">
    <ele>659.8</ele>
    <time>2026-08-23T17:03:27Z</time>
   </trkpt>
   <trkpt lat="53.5434680" lon="-113.4586900">
    <ele>659.8</ele>
    <time>2026-08-23T17:03:28Z</time>
   </trkpt>
   <trkpt lat="53.5434890" lon="-113.4587020">
    <ele>659.8</ele>
    <time>2026-08-23T17:03:29Z</time>
   </trkpt>
   <trkpt lat="53.5435130" lon="-113.4587180">
    <ele>659.8</ele>
    <time>2026-08-23T17:03:30Z</time>
   </trkpt>
   <trkpt lat="53.5435370" lon="-113.4587440">
    <ele>659.8</ele>
    <time>2026-08-23T17:03:31Z</time>
   </trkpt>
   <trkpt lat="53.5435590" lon="-113.4587530">
    <ele>659.8</ele>
    <time>2026-08-23T17:03:32Z</time>
   </trkpt>
   <trkpt lat="53.5435810" lon="-113.4587710">
    <ele>659.8</ele>
    <time>2026-08-23T17:03:33Z</time>
   </trkpt>
   <trkpt lat="53.5436070" lon="-113.4587810">
    <ele>659.8</ele>
    <time>2026-08-23T17:03:34Z</time>
   </trkpt>
   <trkpt lat="53.5436300" lon="-113.4587910">
    <ele>659.8</ele>
    <time>2026-08-23T17:03:35Z</time>
   </trkpt>
   <trkpt lat="53.5436540" lon="-113.4587970">
    <ele>659.8</ele>
    <time>2026-08-23T17:03:36Z</time>
   </trkpt>
   <trkpt lat="53.5436750" lon="-113.4588180">
    <ele>659.8</ele>
    <time>2026-08-23T17:03:37Z</time>
   </trkpt>
   <trkpt lat="53.5436930" lon="-113.4588210">
    <ele>659.8</ele>
    <time>2026-08-23T17:03:38Z</time>
   </trkpt>
   <trkpt lat="53.5437170" lon="-113.4588220">
    <ele>659.8</ele>
    <time>2026-08-23T17:03:39Z</time>
   </trkpt>
   <trkpt lat="53.5437390" lon="-113.4588150">
    <ele>659.8</ele>
    <time>2026-08-23T17:03:40Z</time>
   </trkpt>
   <trkpt lat="53.5437600" lon="-113.4588250">
    <ele>659.8</ele>
    <time>2026-08-23T17:03:41Z</time>
   </trkpt>
   <trkpt lat="53.5437810" lon="-113.4588340">
    <ele>659.8</ele>
    <time>2026-08-23T17:03:42Z</time>
   </trkpt>
   <trkpt lat="53.5438020" lon="-113.4588480">
    <ele>659.8</ele>
    <time>2026-08-23T17:03:43Z</time>
   </trkpt>
   <trkpt lat="53.5438220" lon="-113.4588590">
    <ele>659.8</ele>
    <time>2026-08-23T17:03:44Z</time>
   </trkpt>
   <trkpt lat="53.5438420" lon="-113.4588700">
    <ele>659.8</ele>
    <time>2026-08-23T17:03:45Z</time>
   </trkpt>
   <trkpt lat="53.5438610" lon="-113.4588790">
    <ele>659.8</ele>
    <time>2026-08-23T17:03:46Z</time>
   </trkpt>
   <trkpt lat="53.5438800" lon="-113.4588860">
    <ele>659.8</ele>
    <time>2026-08-23T17:03:47Z</time>
   </trkpt>
   <trkpt lat="53.5438940" lon="-113.4588850">
    <ele>659.8</ele>
    <time>2026-08-23T17:03:48Z</time>
   </trkpt>
   <trkpt lat="53.5439090" lon="-113.4588890">
    <ele>659.9</ele>
    <time>2026-08-23T17:03:49Z</time>
   </trkpt>
   <trkpt lat="53.5439220" lon="-113.4589010">
    <ele>659.9</ele>
    <time>2026-08-23T17:03:50Z</time>
   </trkpt>
   <trkpt lat="53.5439360" lon="-113.4588920">
    <ele>659.9</ele>
    <time>2026-08-23T17:03:51Z</time>
   </trkpt>
   <trkpt lat="53.5439550" lon="-113.4589050">
    <ele>659.9</ele>
    <time>2026-08-23T17:03:52Z</time>
   </trkpt>
   <trkpt lat="53.5439700" lon="-113.4589320">
    <ele>659.9</ele>
    <time>2026-08-23T17:03:53Z</time>
   </trkpt>
   <trkpt lat="53.5439870" lon="-113.4589410">
    <ele>660.0</ele>
    <time>2026-08-23T17:03:54Z</time>
   </trkpt>
   <trkpt lat="53.5440020" lon="-113.4589410">
    <ele>660.0</ele>
    <time>2026-08-23T17:03:55Z</time>
   </trkpt>
   <trkpt lat="53.5440160" lon="-113.4589330">
    <ele>660.0</ele>
    <time>2026-08-23T17:03:56Z</time>
   </trkpt>
   <trkpt lat="53.5440270" lon="-113.4589260">
    <ele>660.0</ele>
    <time>2026-08-23T17:03:57Z</time>
   </trkpt>
   <trkpt lat="53.5440440" lon="-113.4589240">
    <ele>660.0</ele>
    <time>2026-08-23T17:03:58Z</time>
   </trkpt>
   <trkpt lat="53.5440540" lon="-113.4589190">
    <ele>660.1</ele>
    <time>2026-08-23T17:03:59Z</time>
   </trkpt>
   <trkpt lat="53.5440670" lon="-113.4589110">
    <ele>660.1</ele>
    <time>2026-08-23T17:04:00Z</time>
   </trkpt>
   <trkpt lat="53.5440850" lon="-113.4589110">
    <ele>660.1</ele>
    <time>2026-08-23T17:04:01Z</time>
   </trkpt>
   <trkpt lat="53.5441030" lon="-113.4589200">
    <ele>660.2</ele>
    <time>2026-08-23T17:04:02Z</time>
   </trkpt>
   <trkpt lat="53.5441200" lon="-113.4589240">
    <ele>660.2</ele>
    <time>2026-08-23T17:04:03Z</time>
   </trkpt>
   <trkpt lat="53.5441420" lon="-113.4589370">
    <ele>660.3</ele>
    <time>2026-08-23T17:04:04Z</time>
   </trkpt>
   <trkpt lat="53.5441590" lon="-113.4589370">
    <ele>660.3</ele>
    <time>2026-08-23T17:04:05Z</time>
   </trkpt>
   <trkpt lat="53.5441730" lon="-113.4589320">
    <ele>660.3</ele>
    <time>2026-08-23T17:04:06Z</time>
   </trkpt>
   <trkpt lat="53.5441880" lon="-113.4589280">
    <ele>660.3</ele>
    <time>2026-08-23T17:04:07Z</time>
   </trkpt>
   <trkpt lat="53.5441980" lon="-113.4589350">
    <ele>660.4</ele>
    <time>2026-08-23T17:04:08Z</time>
   </trkpt>
   <trkpt lat="53.5442080" lon="-113.4589380">
    <ele>660.4</ele>
    <time>2026-08-23T17:04:09Z</time>
   </trkpt>
   <trkpt lat="53.5442240" lon="-113.4589540">
    <ele>660.4</ele>
    <time>2026-08-23T17:04:10Z</time>
   </trkpt>
   <trkpt lat="53.5442430" lon="-113.4589320">
    <ele>660.4</ele>
    <time>2026-08-23T17:04:11Z</time>
   </trkpt>
   <trkpt lat="53.5442650" lon="-113.4589320">
    <ele>660.5</ele>
    <time>2026-08-23T17:04:12Z</time>
   </trkpt>
   <trkpt lat="53.5442960" lon="-113.4589520">
    <ele>660.5</ele>
    <time>2026-08-23T17:04:13Z</time>
   </trkpt>
   <trkpt lat="53.5443230" lon="-113.4589330">
    <ele>660.5</ele>
    <time>2026-08-23T17:04:14Z</time>
   </trkpt>
   <trkpt lat="53.5443440" lon="-113.4589150">
    <ele>660.6</ele>
    <time>2026-08-23T17:04:15Z</time>
   </trkpt>
   <trkpt lat="53.5443680" lon="-113.4588970">
    <ele>660.6</ele>
    <time>2026-08-23T17:04:16Z</time>
   </trkpt>
   <trkpt lat="53.5443900" lon="-113.4588980">
    <ele>660.6</ele>
    <time>2026-08-23T17:04:17Z</time>
   </trkpt>
   <trkpt lat="53.5444210" lon="-113.4589170">
    <ele>660.6</ele>
    <time>2026-08-23T17:04:18Z</time>
   </trkpt>
   <trkpt lat="53.5444470" lon="-113.4589250">
    <ele>660.7</ele>
    <time>2026-08-23T17:04:19Z</time>
   </trkpt>
   <trkpt lat="53.5444640" lon="-113.4588970">
    <ele>660.7</ele>
    <time>2026-08-23T17:04:20Z</time>
   </trkpt>
   <trkpt lat="53.5444970" lon="-113.4588920">
    <ele>660.7</ele>
    <time>2026-08-23T17:04:21Z</time>
   </trkpt>
   <trkpt lat="53.5445250" lon="-113.4588900">
    <ele>660.8</ele>
    <time>2026-08-23T17:04:22Z</time>
   </trkpt>
   <trkpt lat="53.5445520" lon="-113.4588990">
    <ele>660.8</ele>
    <time>2026-08-23T17:04:23Z</time>
   </trkpt>
   <trkpt lat="53.5445710" lon="-113.4588860">
    <ele>660.8</ele>
    <time>2026-08-23T17:04:24Z</time>
   </trkpt>
   <trkpt lat="53.5445750" lon="-113.4588650">
    <ele>660.8</ele>
    <time>2026-08-23T17:04:25Z</time>
   </trkpt>
   <trkpt lat="53.5446040" lon="-113.4588960">
    <ele>660.8</ele>
    <time>2026-08-23T17:04:26Z</time>
   </trkpt>
   <trkpt lat="53.5446320" lon="-113.4589300">
    <ele>660.8</ele>
    <time>2026-08-23T17:04:27Z</time>
   </trkpt>
   <trkpt lat="53.5446770" lon="-113.4589690">
    <ele>660.8</ele>
    <time>2026-08-23T17:04:28Z</time>
   </trkpt>
   <trkpt lat="53.5447120" lon="-113.4590100">
    <ele>660.8</ele>
    <time>2026-08-23T17:04:29Z</time>
   </trkpt>
   <trkpt lat="53.5447420" lon="-113.4590400">
    <ele>660.7</ele>
    <time>2026-08-23T17:04:30Z</time>
   </trkpt>
   <trkpt lat="53.5447770" lon="-113.4591050">
    <ele>660.6</ele>
    <time>2026-08-23T17:04:31Z</time>
   </trkpt>
   <trkpt lat="53.5447730" lon="-113.4590980">
    <ele>660.6</ele>
    <time>2026-08-23T17:04:32Z</time>
   </trkpt>
   <trkpt lat="53.5448000" lon="-113.4591130">
    <ele>660.5</ele>
    <time>2026-08-23T17:04:33Z</time>
   </trkpt>
   <trkpt lat="53.5448220" lon="-113.4591340">
    <ele>660.5</ele>
    <time>2026-08-23T17:04:34Z</time>
   </trkpt>
   <trkpt lat="53.5448420" lon="-113.4591550">
    <ele>660.4</ele>
    <time>2026-08-23T17:04:35Z</time>
   </trkpt>
   <trkpt lat="53.5448710" lon="-113.4591950">
    <ele>660.3</ele>
    <time>2026-08-23T17:04:36Z</time>
   </trkpt>
   <trkpt lat="53.5449020" lon="-113.4592390">
    <ele>660.2</ele>
    <time>2026-08-23T17:04:37Z</time>
   </trkpt>
   <trkpt lat="53.5449340" lon="-113.4592860">
    <ele>660.1</ele>
    <time>2026-08-23T17:04:38Z</time>
   </trkpt>
   <trkpt lat="53.5449710" lon="-113.4592950">
    <ele>660.0</ele>
    <time>2026-08-23T17:04:39Z</time>
   </trkpt>
   <trkpt lat="53.5450260" lon="-113.4593110">
    <ele>659.9</ele>
    <time>2026-08-23T17:04:40Z</time>
   </trkpt>
   <trkpt lat="53.5450740" lon="-113.4593220">
    <ele>659.8</ele>
    <time>2026-08-23T17:04:41Z</time>
   </trkpt>
   <trkpt lat="53.5451440" lon="-113.4593970">
    <ele>659.6</ele>
    <time>2026-08-23T17:04:42Z</time>
   </trkpt>
   <trkpt lat="53.5452090" lon="-113.4594550">
    <ele>659.5</ele>
    <time>2026-08-23T17:04:43Z</time>
   </trkpt>
   <trkpt lat="53.5452460" lon="-113.4594510">
    <ele>659.5</ele>
    <time>2026-08-23T17:04:44Z</time>
   </trkpt>
   <trkpt lat="53.5452860" lon="-113.4594500">
    <ele>659.5</ele>
    <time>2026-08-23T17:04:45Z</time>
   </trkpt>
   <trkpt lat="53.5453450" lon="-113.4594850">
    <ele>659.4</ele>
    <time>2026-08-23T17:04:46Z</time>
   </trkpt>
   <trkpt lat="53.5453890" lon="-113.4595050">
    <ele>659.4</ele>
    <time>2026-08-23T17:04:47Z</time>
   </trkpt>
   <trkpt lat="53.5454310" lon="-113.4595040">
    <ele>659.4</ele>
    <time>2026-08-23T17:04:48Z</time>
   </trkpt>
   <trkpt lat="53.5454730" lon="-113.4595140">
    <ele>659.4</ele>
    <time>2026-08-23T17:04:49Z</time>
   </trkpt>
   <trkpt lat="53.5455120" lon="-113.4595000">
    <ele>659.4</ele>
    <time>2026-08-23T17:04:50Z</time>
   </trkpt>
   <trkpt lat="53.5455390" lon="-113.4595020">
    <ele>659.4</ele>
    <time>2026-08-23T17:04:51Z</time>
   </trkpt>
   <trkpt lat="53.5455690" lon="-113.4595210">
    <ele>659.4</ele>
    <time>2026-08-23T17:04:52Z</time>
   </trkpt>
   <trkpt lat="53.5456030" lon="-113.4595570">
    <ele>659.4</ele>
    <time>2026-08-23T17:04:53Z</time>
   </trkpt>
   <trkpt lat="53.5456310" lon="-113.4595870">
    <ele>659.4</ele>
    <time>2026-08-23T17:04:54Z</time>
   </trkpt>
   <trkpt lat="53.5456600" lon="-113.4596040">
    <ele>659.4</ele>
    <time>2026-08-23T17:04:55Z</time>
   </trkpt>
   <trkpt lat="53.5456850" lon="-113.4596270">
    <ele>659.5</ele>
    <time>2026-08-23T17:04:56Z</time>
   </trkpt>
   <trkpt lat="53.5457050" lon="-113.4596520">
    <ele>659.5</ele>
    <time>2026-08-23T17:04:57Z</time>
   </trkpt>
   <trkpt lat="53.5457290" lon="-113.4596720">
    <ele>659.5</ele>
    <time>2026-08-23T17:04:58Z</time>
   </trkpt>
   <trkpt lat="53.5457520" lon="-113.4596990">
    <ele>659.5</ele>
    <time>2026-08-23T17:04:59Z</time>
   </trkpt>
   <trkpt lat="53.5457800" lon="-113.4597240">
    <ele>659.5</ele>
    <time>2026-08-23T17:05:00Z</time>
   </trkpt>
   <trkpt lat="53.5458090" lon="-113.4597590">
    <ele>659.5</ele>
    <time>2026-08-23T17:05:01Z</time>
   </trkpt>
   <trkpt lat="53.5458310" lon="-113.4598040">
    <ele>659.5</ele>
    <time>2026-08-23T17:05:02Z</time>
   </trkpt>
   <trkpt lat="53.5458580" lon="-113.4598090">
    <ele>659.5</ele>
    <time>2026-08-23T17:05:03Z</time>
   </trkpt>
   <trkpt lat="53.5458890" lon="-113.4598280">
    <ele>659.5</ele>
    <time>2026-08-23T17:05:04Z</time>
   </trkpt>
   <trkpt lat="53.5459010" lon="-113.4598470">
    <ele>659.5</ele>
    <time>2026-08-23T17:05:05Z</time>
   </trkpt>
   <trkpt lat="53.5459350" lon="-113.4598910">
    <ele>659.5</ele>
    <time>2026-08-23T17:05:06Z</time>
   </trkpt>
   <trkpt lat="53.5459600" lon="-113.4599220">
    <ele>659.5</ele>
    <time>2026-08-23T17:05:07Z</time>
   </trkpt>
   <trkpt lat="53.5459820" lon="-113.4599530">
    <ele>659.5</ele>
    <time>2026-08-23T17:05:08Z</time>
   </trkpt>
   <trkpt lat="53.5460070" lon="-113.4599740">
    <ele>659.5</ele>
    <time>2026-08-23T17:05:09Z</time>
   </trkpt>
   <trkpt lat="53.5460300" lon="-113.4599870">
    <ele>659.5</ele>
    <time>2026-08-23T17:05:10Z</time>
   </trkpt>
   <trkpt lat="53.5460530" lon="-113.4599910">
    <ele>659.5</ele>
    <time>2026-08-23T17:05:11Z</time>
   </trkpt>
   <trkpt lat="53.5460790" lon="-113.4599970">
    <ele>659.5</ele>
    <time>2026-08-23T17:05:12Z</time>
   </trkpt>
   <trkpt lat="53.5461050" lon="-113.4600000">
    <ele>659.5</ele>
    <time>2026-08-23T17:05:13Z</time>
   </trkpt>
   <trkpt lat="53.5461250" lon="-113.4600020">
    <ele>659.6</ele>
    <time>2026-08-23T17:05:14Z</time>
   </trkpt>
   <trkpt lat="53.5461520" lon="-113.4600040">
    <ele>659.6</ele>
    <time>2026-08-23T17:05:15Z</time>
   </trkpt>
   <trkpt lat="53.5461820" lon="-113.4600100">
    <ele>659.6</ele>
    <time>2026-08-23T17:05:16Z</time>
   </trkpt>
   <trkpt lat="53.5462130" lon="-113.4600230">
    <ele>659.7</ele>
    <time>2026-08-23T17:05:17Z</time>
   </trkpt>
   <trkpt lat="53.5462430" lon="-113.4600350">
    <ele>659.7</ele>
    <time>2026-08-23T17:05:18Z</time>
   </trkpt>
   <trkpt lat="53.5462810" lon="-113.4600500">
    <ele>659.7</ele>
    <time>2026-08-23T17:05:19Z</time>
   </trkpt>
   <trkpt lat="53.5463180" lon="-113.4600530">
    <ele>659.8</ele>
    <time>2026-08-23T17:05:20Z</time>
   </trkpt>
   <trkpt lat="53.5463550" lon="-113.4600620">
    <ele>659.8</ele>
    <time>2026-08-23T17:05:21Z</time>
   </trkpt>
   <trkpt lat="53.5463980" lon="-113.4600740">
    <ele>659.8</ele>
    <time>2026-08-23T17:05:22Z</time>
   </trkpt>
   <trkpt lat="53.5464320" lon="-113.4600970">
    <ele>659.9</ele>
    <time>2026-08-23T17:05:23Z</time>
   </trkpt>
   <trkpt lat="53.5464710" lon="-113.4601230">
    <ele>659.9</ele>
    <time>2026-08-23T17:05:24Z</time>
   </trkpt>
   <trkpt lat="53.5465070" lon="-113.4601500">
    <ele>659.9</ele>
    <time>2026-08-23T17:05:25Z</time>
   </trkpt>
   <trkpt lat="53.5465410" lon="-113.4601780">
    <ele>660.0</ele>
    <time>2026-08-23T17:05:26Z</time>
   </trkpt>
   <trkpt lat="53.5465770" lon="-113.4602040">
    <ele>660.0</ele>
    <time>2026-08-23T17:05:27Z</time>
   </trkpt>
   <trkpt lat="53.5466100" lon="-113.4602260">
    <ele>660.0</ele>
    <time>2026-08-23T17:05:28Z</time>
   </trkpt>
   <trkpt lat="53.5466390" lon="-113.4602560">
    <ele>660.0</ele>
    <time>2026-08-23T17:05:29Z</time>
   </trkpt>
   <trkpt lat="53.5466670" lon="-113.4602980">
    <ele>660.1</ele>
    <time>2026-08-23T17:05:30Z</time>
   </trkpt>
   <trkpt lat="53.5466900" lon="-113.4603330">
    <ele>660.1</ele>
    <time>2026-08-23T17:05:31Z</time>
   </trkpt>
   <trkpt lat="53.5467100" lon="-113.4603640">
    <ele>660.1</ele>
    <time>2026-08-23T17:05:32Z</time>
   </trkpt>
   <trkpt lat="53.5467290" lon="-113.4604060">
    <ele>660.1</ele>
    <time>2026-08-23T17:05:33Z</time>
   </trkpt>
   <trkpt lat="53.5467460" lon="-113.4604270">
    <ele>660.1</ele>
    <time>2026-08-23T17:05:34Z</time>
   </trkpt>
   <trkpt lat="53.5467710" lon="-113.4604590">
    <ele>660.1</ele>
    <time>2026-08-23T17:05:35Z</time>
   </trkpt>
   <trkpt lat="53.5467930" lon="-113.4604850">
    <ele>660.1</ele>
    <time>2026-08-23T17:05:36Z</time>
   </trkpt>
   <trkpt lat="53.5468130" lon="-113.4605180">
    <ele>660.2</ele>
    <time>2026-08-23T17:05:37Z</time>
   </trkpt>
   <trkpt lat="53.5468190" lon="-113.4605190">
    <ele>660.2</ele>
    <time>2026-08-23T17:05:38Z</time>
   </trkpt>
   <trkpt lat="53.5468410" lon="-113.4605420">
    <ele>660.2</ele>
    <time>2026-08-23T17:05:39Z</time>
   </trkpt>
   <trkpt lat="53.5468600" lon="-113.4605590">
    <ele>660.2</ele>
    <time>2026-08-23T17:05:40Z</time>
   </trkpt>
   <trkpt lat="53.5468840" lon="-113.4606060">
    <ele>660.2</ele>
    <time>2026-08-23T17:05:41Z</time>
   </trkpt>
   <trkpt lat="53.5468930" lon="-113.4606340">
    <ele>660.2</ele>
    <time>2026-08-23T17:05:42Z</time>
   </trkpt>
   <trkpt lat="53.5469230" lon="-113.4606660">
    <ele>660.2</ele>
    <time>2026-08-23T17:05:43Z</time>
   </trkpt>
   <trkpt lat="53.5469480" lon="-113.4606890">
    <ele>660.2</ele>
    <time>2026-08-23T17:05:44Z</time>
   </trkpt>
   <trkpt lat="53.5469630" lon="-113.4607140">
    <ele>660.2</ele>
    <time>2026-08-23T17:05:45Z</time>
   </trkpt>
   <trkpt lat="53.5470060" lon="-113.4607400">
    <ele>660.1</ele>
    <time>2026-08-23T17:05:46Z</time>
   </trkpt>
   <trkpt lat="53.5470370" lon="-113.4607690">
    <ele>660.1</ele>
    <time>2026-08-23T17:05:47Z</time>
   </trkpt>
   <trkpt lat="53.5470730" lon="-113.4608000">
    <ele>660.1</ele>
    <time>2026-08-23T17:05:48Z</time>
   </trkpt>
   <trkpt lat="53.5471150" lon="-113.4608400">
    <ele>660.0</ele>
    <time>2026-08-23T17:05:49Z</time>
   </trkpt>
   <trkpt lat="53.5471510" lon="-113.4608560">
    <ele>660.0</ele>
    <time>2026-08-23T17:05:50Z</time>
   </trkpt>
   <trkpt lat="53.5471880" lon="-113.4608640">
    <ele>660.0</ele>
    <time>2026-08-23T17:05:51Z</time>
   </trkpt>
   <trkpt lat="53.5472270" lon="-113.4608710">
    <ele>660.0</ele>
    <time>2026-08-23T17:05:52Z</time>
   </trkpt>
   <trkpt lat="53.5472630" lon="-113.4608730">
    <ele>660.0</ele>
    <time>2026-08-23T17:05:53Z</time>
   </trkpt>
   <trkpt lat="53.5472990" lon="-113.4608830">
    <ele>660.0</ele>
    <time>2026-08-23T17:05:54Z</time>
   </trkpt>
   <trkpt lat="53.5473320" lon="-113.4608920">
    <ele>659.9</ele>
    <time>2026-08-23T17:05:55Z</time>
   </trkpt>
   <trkpt lat="53.5473490" lon="-113.4608920">
    <ele>659.9</ele>
    <time>2026-08-23T17:05:56Z</time>
   </trkpt>
   <trkpt lat="53.5473840" lon="-113.4608890">
    <ele>659.9</ele>
    <time>2026-08-23T17:05:57Z</time>
   </trkpt>
   <trkpt lat="53.5474020" lon="-113.4609040">
    <ele>659.9</ele>
    <time>2026-08-23T17:05:58Z</time>
   </trkpt>
   <trkpt lat="53.5474340" lon="-113.4609020">
    <ele>659.9</ele>
    <time>2026-08-23T17:05:59Z</time>
   </trkpt>
   <trkpt lat="53.5474580" lon="-113.4609000">
    <ele>659.9</ele>
    <time>2026-08-23T17:06:00Z</time>
   </trkpt>
   <trkpt lat="53.5474840" lon="-113.4609080">
    <ele>659.8</ele>
    <time>2026-08-23T17:06:01Z</time>
   </trkpt>
   <trkpt lat="53.5475370" lon="-113.4609060">
    <ele>659.8</ele>
    <time>2026-08-23T17:06:02Z</time>
   </trkpt>
   <trkpt lat="53.5475920" lon="-113.4609240">
    <ele>659.7</ele>
    <time>2026-08-23T17:06:03Z</time>
   </trkpt>
   <trkpt lat="53.5476300" lon="-113.4609630">
    <ele>659.6</ele>
    <time>2026-08-23T17:06:04Z</time>
   </trkpt>
   <trkpt lat="53.5476700" lon="-113.4609890">
    <ele>659.5</ele>
    <time>2026-08-23T17:06:05Z</time>
   </trkpt>
   <trkpt lat="53.5477100" lon="-113.4610040">
    <ele>659.5</ele>
    <time>2026-08-23T17:06:06Z</time>
   </trkpt>
   <trkpt lat="53.5477470" lon="-113.4610250">
    <ele>659.5</ele>
    <time>2026-08-23T17:06:07Z</time>
   </trkpt>
   <trkpt lat="53.5477820" lon="-113.4610570">
    <ele>659.4</ele>
    <time>2026-08-23T17:06:08Z</time>
   </trkpt>
   <trkpt lat="53.5478110" lon="-113.4611020">
    <ele>659.4</ele>
    <time>2026-08-23T17:06:09Z</time>
   </trkpt>
   <trkpt lat="53.5478310" lon="-113.4611690">
    <ele>659.4</ele>
    <time>2026-08-23T17:06:10Z</time>
   </trkpt>
   <trkpt lat="53.5478550" lon="-113.4612150">
    <ele>659.4</ele>
    <time>2026-08-23T17:06:11Z</time>
   </trkpt>
   <trkpt lat="53.5478730" lon="-113.4612640">
    <ele>659.3</ele>
    <time>2026-08-23T17:06:12Z</time>
   </trkpt>
   <trkpt lat="53.5478930" lon="-113.4613110">
    <ele>659.3</ele>
    <time>2026-08-23T17:06:13Z</time>
   </trkpt>
   <trkpt lat="53.5479050" lon="-113.4613770">
    <ele>659.3</ele>
    <time>2026-08-23T17:06:14Z</time>
   </trkpt>
   <trkpt lat="53.5479130" lon="-113.4614350">
    <ele>659.2</ele>
    <time>2026-08-23T17:06:15Z</time>
   </trkpt>
   <trkpt lat="53.5479190" lon="-113.4614930">
    <ele>659.2</ele>
    <time>2026-08-23T17:06:16Z</time>
   </trkpt>
   <trkpt lat="53.5479270" lon="-113.4615530">
    <ele>659.1</ele>
    <time>2026-08-23T17:06:17Z</time>
   </trkpt>
   <trkpt lat="53.5479290" lon="-113.4616070">
    <ele>659.1</ele>
    <time>2026-08-23T17:06:18Z</time>
   </trkpt>
   <trkpt lat="53.5479210" lon="-113.4616640">
    <ele>659.1</ele>
    <time>2026-08-23T17:06:19Z</time>
   </trkpt>
   <trkpt lat="53.5479220" lon="-113.4617190">
    <ele>659.0</ele>
    <time>2026-08-23T17:06:20Z</time>
   </trkpt>
   <trkpt lat="53.5479220" lon="-113.4617770">
    <ele>659.0</ele>
    <time>2026-08-23T17:06:21Z</time>
   </trkpt>
   <trkpt lat="53.5479270" lon="-113.4618370">
    <ele>659.0</ele>
    <time>2026-08-23T17:06:22Z</time>
   </trkpt>
   <trkpt lat="53.5479420" lon="-113.4618840">
    <ele>658.9</ele>
    <time>2026-08-23T17:06:23Z</time>
   </trkpt>
   <trkpt lat="53.5479430" lon="-113.4619420">
    <ele>658.9</ele>
    <time>2026-08-23T17:06:24Z</time>
   </trkpt>
   <trkpt lat="53.5479590" lon="-113.4619980">
    <ele>658.9</ele>
    <time>2026-08-23T17:06:25Z</time>
   </trkpt>
   <trkpt lat="53.5479880" lon="-113.4620460">
    <ele>658.9</ele>
    <time>2026-08-23T17:06:26Z</time>
   </trkpt>
   <trkpt lat="53.5480080" lon="-113.4620910">
    <ele>658.9</ele>
    <time>2026-08-23T17:06:27Z</time>
   </trkpt>
   <trkpt lat="53.5480270" lon="-113.4621270">
    <ele>658.8</ele>
    <time>2026-08-23T17:06:28Z</time>
   </trkpt>
   <trkpt lat="53.5480640" lon="-113.4621420">
    <ele>658.8</ele>
    <time>2026-08-23T17:06:29Z</time>
   </trkpt>
   <trkpt lat="53.5480960" lon="-113.4621700">
    <ele>658.8</ele>
    <time>2026-08-23T17:06:30Z</time>
   </trkpt>
   <trkpt lat="53.5481260" lon="-113.4622000">
    <ele>658.8</ele>
    <time>2026-08-23T17:06:31Z</time>
   </trkpt>
   <trkpt lat="53.5481540" lon="-113.4622320">
    <ele>658.8</ele>
    <time>2026-08-23T17:06:32Z</time>
   </trkpt>
   <trkpt lat="53.5481910" lon="-113.4622360">
    <ele>658.7</ele>
    <time>2026-08-23T17:06:33Z</time>
   </trkpt>
   <trkpt lat="53.5482250" lon="-113.4622510">
    <ele>658.7</ele>
    <time>2026-08-23T17:06:34Z</time>
   </trkpt>
   <trkpt lat="53.5482590" lon="-113.4622700">
    <ele>658.7</ele>
    <time>2026-08-23T17:06:35Z</time>
   </trkpt>
   <trkpt lat="53.5482920" lon="-113.4622910">
    <ele>658.6</ele>
    <time>2026-08-23T17:06:36Z</time>
   </trkpt>
   <trkpt lat="53.5483150" lon="-113.4622930">
    <ele>658.6</ele>
    <time>2026-08-23T17:06:37Z</time>
   </trkpt>
   <trkpt lat="53.5483430" lon="-113.4623000">
    <ele>658.6</ele>
    <time>2026-08-23T17:06:38Z</time>
   </trkpt>
   <trkpt lat="53.5483710" lon="-113.4622920">
    <ele>658.6</ele>
    <time>2026-08-23T17:06:39Z</time>
   </trkpt>
   <trkpt lat="53.5484030" lon="-113.4623000">
    <ele>658.6</ele>
    <time>2026-08-23T17:06:40Z</time>
   </trkpt>
   <trkpt lat="53.5484340" lon="-113.4623020">
    <ele>658.6</ele>
    <time>2026-08-23T17:06:41Z</time>
   </trkpt>
   <trkpt lat="53.5484640" lon="-113.4622980">
    <ele>658.5</ele>
    <time>2026-08-23T17:06:42Z</time>
   </trkpt>
   <trkpt lat="53.5485050" lon="-113.4623000">
    <ele>658.5</ele>
    <time>2026-08-23T17:06:43Z</time>
   </trkpt>
   <trkpt lat="53.5485400" lon="-113.4622950">
    <ele>658.5</ele>
    <time>2026-08-23T17:06:44Z</time>
   </trkpt>
   <trkpt lat="53.5485700" lon="-113.4622840">
    <ele>658.5</ele>
    <time>2026-08-23T17:06:45Z</time>
   </trkpt>
   <trkpt lat="53.5486050" lon="-113.4622750">
    <ele>658.5</ele>
    <time>2026-08-23T17:06:46Z</time>
   </trkpt>
   <trkpt lat="53.5486350" lon="-113.4622520">
    <ele>658.5</ele>
    <time>2026-08-23T17:06:47Z</time>
   </trkpt>
   <trkpt lat="53.5486630" lon="-113.4622250">
    <ele>658.5</ele>
    <time>2026-08-23T17:06:48Z</time>
   </trkpt>
   <trkpt lat="53.5486950" lon="-113.4622020">
    <ele>658.5</ele>
    <time>2026-08-23T17:06:49Z</time>
   </trkpt>
   <trkpt lat="53.5487200" lon="-113.4621770">
    <ele>658.4</ele>
    <time>2026-08-23T17:06:50Z</time>
   </trkpt>
   <trkpt lat="53.5487460" lon="-113.4621540">
    <ele>658.4</ele>
    <time>2026-08-23T17:06:51Z</time>
   </trkpt>
   <trkpt lat="53.5487730" lon="-113.4621290">
    <ele>658.4</ele>
    <time>2026-08-23T17:06:52Z</time>
   </trkpt>
   <trkpt lat="53.5487990" lon="-113.4620990">
    <ele>658.4</ele>
    <time>2026-08-23T17:06:53Z</time>
   </trkpt>
   <trkpt lat="53.5488220" lon="-113.4620680">
    <ele>658.4</ele>
    <time>2026-08-23T17:06:54Z</time>
   </trkpt>
   <trkpt lat="53.5488440" lon="-113.4620380">
    <ele>658.4</ele>
    <time>2026-08-23T17:06:55Z</time>
   </trkpt>
   <trkpt lat="53.5488640" lon="-113.4620030">
    <ele>658.4</ele>
    <time>2026-08-23T17:06:56Z</time>
   </trkpt>
   <trkpt lat="53.5488840" lon="-113.4619650">
    <ele>658.4</ele>
    <time>2026-08-23T17:06:57Z</time>
   </trkpt>
   <trkpt lat="53.5488990" lon="-113.4619330">
    <ele>658.4</ele>
    <time>2026-08-23T17:06:58Z</time>
   </trkpt>
   <trkpt lat="53.5489160" lon="-113.4619000">
    <ele>658.4</ele>
    <time>2026-08-23T17:06:59Z</time>
   </trkpt>
   <trkpt lat="53.5489350" lon="-113.4618640">
    <ele>658.4</ele>
    <time>2026-08-23T17:07:00Z</time>
   </trkpt>
   <trkpt lat="53.5489470" lon="-113.4618300">
    <ele>658.4</ele>
    <time>2026-08-23T17:07:01Z</time>
   </trkpt>
   <trkpt lat="53.5489570" lon="-113.4617940">
    <ele>658.4</ele>
    <time>2026-08-23T17:07:02Z</time>
   </trkpt>
   <trkpt lat="53.5489840" lon="-113.4617560">
    <ele>658.4</ele>
    <time>2026-08-23T17:07:03Z</time>
   </trkpt>
   <trkpt lat="53.5489960" lon="-113.4617250">
    <ele>658.4</ele>
    <time>2026-08-23T17:07:04Z</time>
   </trkpt>
   <trkpt lat="53.5490170" lon="-113.4616840">
    <ele>658.4</ele>
    <time>2026-08-23T17:07:05Z</time>
   </trkpt>
   <trkpt lat="53.5490360" lon="-113.4616400">
    <ele>658.4</ele>
    <time>2026-08-23T17:07:06Z</time>
   </trkpt>
   <trkpt lat="53.5490520" lon="-113.4616020">
    <ele>658.4</ele>
    <time>2026-08-23T17:07:07Z</time>
   </trkpt>
   <trkpt lat="53.5490680" lon="-113.4615570">
    <ele>658.4</ele>
    <time>2026-08-23T17:07:08Z</time>
   </trkpt>
   <trkpt lat="53.5490890" lon="-113.4615120">
    <ele>658.4</ele>
    <time>2026-08-23T17:07:09Z</time>
   </trkpt>
   <trkpt lat="53.5490990" lon="-113.4614730">
    <ele>658.4</ele>
    <time>2026-08-23T17:07:10Z</time>
   </trkpt>
   <trkpt lat="53.5491140" lon="-113.4614300">
    <ele>658.4</ele>
    <time>2026-08-23T17:07:11Z</time>
   </trkpt>
   <trkpt lat="53.5491330" lon="-113.4613830">
    <ele>658.4</ele>
    <time>2026-08-23T17:07:12Z</time>
   </trkpt>
   <trkpt lat="53.5491440" lon="-113.4613360">
    <ele>658.4</ele>
    <time>2026-08-23T17:07:13Z</time>
   </trkpt>
   <trkpt lat="53.5491530" lon="-113.4612860">
    <ele>658.4</ele>
    <time>2026-08-23T17:07:14Z</time>
   </trkpt>
   <trkpt lat="53.5491630" lon="-113.4612390">
    <ele>658.5</ele>
    <time>2026-08-23T17:07:15Z</time>
   </trkpt>
   <trkpt lat="53.5491680" lon="-113.4611910">
    <ele>658.5</ele>
    <time>2026-08-23T17:07:16Z</time>
   </trkpt>
   <trkpt lat="53.5491730" lon="-113.4611500">
    <ele>658.5</ele>
    <time>2026-08-23T17:07:17Z</time>
   </trkpt>
   <trkpt lat="53.5491730" lon="-113.4611210">
    <ele>658.5</ele>
    <time>2026-08-23T17:07:18Z</time>
   </trkpt>
   <trkpt lat="53.5491650" lon="-113.4610860">
    <ele>658.5</ele>
    <time>2026-08-23T17:07:19Z</time>
   </trkpt>
   <trkpt lat="53.5491730" lon="-113.4610470">
    <ele>658.5</ele>
    <time>2026-08-23T17:07:20Z</time>
   </trkpt>
   <trkpt lat="53.5491930" lon="-113.4610090">
    <ele>658.5</ele>
    <time>2026-08-23T17:07:21Z</time>
   </trkpt>
   <trkpt lat="53.5492030" lon="-113.4609700">
    <ele>658.5</ele>
    <time>2026-08-23T17:07:22Z</time>
   </trkpt>
   <trkpt lat="53.5492130" lon="-113.4609320">
    <ele>658.5</ele>
    <time>2026-08-23T17:07:23Z</time>
   </trkpt>
   <trkpt lat="53.5492230" lon="-113.4608900">
    <ele>658.5</ele>
    <time>2026-08-23T17:07:24Z</time>
   </trkpt>
   <trkpt lat="53.5492430" lon="-113.4608620">
    <ele>658.5</ele>
    <time>2026-08-23T17:07:25Z</time>
   </trkpt>
   <trkpt lat="53.5492670" lon="-113.4608320">
    <ele>658.5</ele>
    <time>2026-08-23T17:07:26Z</time>
   </trkpt>
   <trkpt lat="53.5492810" lon="-113.4607990">
    <ele>658.5</ele>
    <time>2026-08-23T17:07:27Z</time>
   </trkpt>
   <trkpt lat="53.5493000" lon="-113.4607630">
    <ele>658.5</ele>
    <time>2026-08-23T17:07:28Z</time>
   </trkpt>
   <trkpt lat="53.5493350" lon="-113.4607080">
    <ele>658.5</ele>
    <time>2026-08-23T17:07:29Z</time>
   </trkpt>
   <trkpt lat="53.5493480" lon="-113.4606580">
    <ele>658.5</ele>
    <time>2026-08-23T17:07:30Z</time>
   </trkpt>
   <trkpt lat="53.5493740" lon="-113.4606250">
    <ele>658.5</ele>
    <time>2026-08-23T17:07:31Z</time>
   </trkpt>
   <trkpt lat="53.5493900" lon="-113.4605860">
    <ele>658.5</ele>
    <time>2026-08-23T17:07:32Z</time>
   </trkpt>
   <trkpt lat="53.5494040" lon="-113.4605400">
    <ele>658.5</ele>
    <time>2026-08-23T17:07:33Z</time>
   </trkpt>
   <trkpt lat="53.5494090" lon="-113.4604970">
    <ele>658.5</ele>
    <time>2026-08-23T17:07:34Z</time>
   </trkpt>
   <trkpt lat="53.5494200" lon="-113.4604520">
    <ele>658.5</ele>
    <time>2026-08-23T17:07:35Z</time>
   </trkpt>
   <trkpt lat="53.5494280" lon="-113.4604140">
    <ele>658.5</ele>
    <time>2026-08-23T17:07:36Z</time>
   </trkpt>
   <trkpt lat="53.5494350" lon="-113.4603690">
    <ele>658.5</ele>
    <time>2026-08-23T17:07:37Z</time>
   </trkpt>
   <trkpt lat="53.5494420" lon="-113.4603350">
    <ele>658.5</ele>
    <time>2026-08-23T17:07:38Z</time>
   </trkpt>
   <trkpt lat="53.5494480" lon="-113.4602990">
    <ele>658.5</ele>
    <time>2026-08-23T17:07:39Z</time>
   </trkpt>
   <trkpt lat="53.5494560" lon="-113.4602610">
    <ele>658.5</ele>
    <time>2026-08-23T17:07:40Z</time>
   </trkpt>
   <trkpt lat="53.5494590" lon="-113.4602230">
    <ele>658.5</ele>
    <time>2026-08-23T17:07:41Z</time>
   </trkpt>
   <trkpt lat="53.5494570" lon="-113.4601810">
    <ele>658.5</ele>
    <time>2026-08-23T17:07:42Z</time>
   </trkpt>
   <trkpt lat="53.5494660" lon="-113.4601470">
    <ele>658.5</ele>
    <time>2026-08-23T17:07:43Z</time>
   </trkpt>
   <trkpt lat="53.5494710" lon="-113.4601160">
    <ele>658.6</ele>
    <time>2026-08-23T17:07:44Z</time>
   </trkpt>
   <trkpt lat="53.5494730" lon="-113.4600770">
    <ele>658.6</ele>
    <time>2026-08-23T17:07:45Z</time>
   </trkpt>
   <trkpt lat="53.5494730" lon="-113.4600280">
    <ele>658.6</ele>
    <time>2026-08-23T17:07:46Z</time>
   </trkpt>
   <trkpt lat="53.5494840" lon="-113.4599850">
    <ele>658.6</ele>
    <time>2026-08-23T17:07:47Z</time>
   </trkpt>
   <trkpt lat="53.5494970" lon="-113.4599400">
    <ele>658.6</ele>
    <time>2026-08-23T17:07:48Z</time>
   </trkpt>
   <trkpt lat="53.5495050" lon="-113.4598940">
    <ele>658.6</ele>
    <time>2026-08-23T17:07:49Z</time>
   </trkpt>
   <trkpt lat="53.5495120" lon="-113.4598440">
    <ele>658.6</ele>
    <time>2026-08-23T17:07:50Z</time>
   </trkpt>
   <trkpt lat="53.5495150" lon="-113.4597940">
    <ele>658.6</ele>
    <time>2026-08-23T17:07:51Z</time>
   </trkpt>
   <trkpt lat="53.5495180" lon="-113.4597400">
    <ele>658.6</ele>
    <time>2026-08-23T17:07:52Z</time>
   </trkpt>
   <trkpt lat="53.5495160" lon="-113.4596900">
    <ele>658.6</ele>
    <time>2026-08-23T17:07:53Z</time>
   </trkpt>
   <trkpt lat="53.5495170" lon="-113.4596340">
    <ele>658.7</ele>
    <time>2026-08-23T17:07:54Z</time>
   </trkpt>
   <trkpt lat="53.5495200" lon="-113.4595820">
    <ele>658.7</ele>
    <time>2026-08-23T17:07:55Z</time>
   </trkpt>
   <trkpt lat="53.5495310" lon="-113.4595380">
    <ele>658.7</ele>
    <time>2026-08-23T17:07:56Z</time>
   </trkpt>
   <trkpt lat="53.5495410" lon="-113.4594920">
    <ele>658.8</ele>
    <time>2026-08-23T17:07:57Z</time>
   </trkpt>
   <trkpt lat="53.5495510" lon="-113.4594500">
    <ele>658.8</ele>
    <time>2026-08-23T17:07:58Z</time>
   </trkpt>
   <trkpt lat="53.5495580" lon="-113.4594060">
    <ele>658.9</ele>
    <time>2026-08-23T17:07:59Z</time>
   </trkpt>
   <trkpt lat="53.5495660" lon="-113.4593660">
    <ele>659.0</ele>
    <time>2026-08-23T17:08:00Z</time>
   </trkpt>
   <trkpt lat="53.5495770" lon="-113.4593250">
    <ele>659.0</ele>
    <time>2026-08-23T17:08:01Z</time>
   </trkpt>
   <trkpt lat="53.5495870" lon="-113.4592930">
    <ele>659.1</ele>
    <time>2026-08-23T17:08:02Z</time>
   </trkpt>
   <trkpt lat="53.5495970" lon="-113.4592660">
    <ele>659.2</ele>
    <time>2026-08-23T17:08:03Z</time>
   </trkpt>
   <trkpt lat="53.5496070" lon="-113.4592430">
    <ele>659.2</ele>
    <time>2026-08-23T17:08:04Z</time>
   </trkpt>
   <trkpt lat="53.5496110" lon="-113.4592100">
    <ele>659.3</ele>
    <time>2026-08-23T17:08:05Z</time>
   </trkpt>
   <trkpt lat="53.5496170" lon="-113.4591840">
    <ele>659.4</ele>
    <time>2026-08-23T17:08:06Z</time>
   </trkpt>
   <trkpt lat="53.5496230" lon="-113.4591540">
    <ele>659.4</ele>
    <time>2026-08-23T17:08:07Z</time>
   </trkpt>
   <trkpt lat="53.5496320" lon="-113.4591210">
    <ele>659.5</ele>
    <time>2026-08-23T17:08:08Z</time>
   </trkpt>
   <trkpt lat="53.5496370" lon="-113.4590960">
    <ele>659.6</ele>
    <time>2026-08-23T17:08:09Z</time>
   </trkpt>
   <trkpt lat="53.5496460" lon="-113.4590570">
    <ele>659.7</ele>
    <time>2026-08-23T17:08:10Z</time>
   </trkpt>
   <trkpt lat="53.5496580" lon="-113.4590320">
    <ele>659.7</ele>
    <time>2026-08-23T17:08:11Z</time>
   </trkpt>
   <trkpt lat="53.5496750" lon="-113.4590110">
    <ele>659.8</ele>
    <time>2026-08-23T17:08:12Z</time>
   </trkpt>
   <trkpt lat="53.5496940" lon="-113.4589900">
    <ele>659.9</ele>
    <time>2026-08-23T17:08:13Z</time>
   </trkpt>
   <trkpt lat="53.5497060" lon="-113.4589680">
    <ele>660.0</ele>
    <time>2026-08-23T17:08:14Z</time>
   </trkpt>
   <trkpt lat="53.5497140" lon="-113.4589420">
    <ele>660.0</ele>
    <time>2026-08-23T17:08:15Z</time>
   </trkpt>
   <trkpt lat="53.5497250" lon="-113.4589170">
    <ele>660.1</ele>
    <time>2026-08-23T17:08:16Z</time>
   </trkpt>
   <trkpt lat="53.5497300" lon="-113.4588990">
    <ele>660.1</ele>
    <time>2026-08-23T17:08:17Z</time>
   </trkpt>
   <trkpt lat="53.5497320" lon="-113.4588720">
    <ele>660.2</ele>
    <time>2026-08-23T17:08:18Z</time>
   </trkpt>
   <trkpt lat="53.5497400" lon="-113.4588410">
    <ele>660.3</ele>
    <time>2026-08-23T17:08:19Z</time>
   </trkpt>
   <trkpt lat="53.5497570" lon="-113.4588110">
    <ele>660.5</ele>
    <time>2026-08-23T17:08:20Z</time>
   </trkpt>
   <trkpt lat="53.5497630" lon="-113.4587780">
    <ele>660.6</ele>
    <time>2026-08-23T17:08:21Z</time>
   </trkpt>
   <trkpt lat="53.5497690" lon="-113.4587460">
    <ele>660.7</ele>
    <time>2026-08-23T17:08:22Z</time>
   </trkpt>
   <trkpt lat="53.5497800" lon="-113.4587170">
    <ele>660.9</ele>
    <time>2026-08-23T17:08:23Z</time>
   </trkpt>
   <trkpt lat="53.5497900" lon="-113.4586900">
    <ele>661.0</ele>
    <time>2026-08-23T17:08:24Z</time>
   </trkpt>
   <trkpt lat="53.5498000" lon="-113.4586630">
    <ele>661.1</ele>
    <time>2026-08-23T17:08:25Z</time>
   </trkpt>
   <trkpt lat="53.5498150" lon="-113.4586270">
    <ele>661.3</ele>
    <time>2026-08-23T17:08:26Z</time>
   </trkpt>
   <trkpt lat="53.5498270" lon="-113.4586010">
    <ele>661.4</ele>
    <time>2026-08-23T17:08:27Z</time>
   </trkpt>
   <trkpt lat="53.5498350" lon="-113.4585770">
    <ele>661.5</ele>
    <time>2026-08-23T17:08:28Z</time>
   </trkpt>
   <trkpt lat="53.5498530" lon="-113.4585570">
    <ele>661.7</ele>
    <time>2026-08-23T17:08:29Z</time>
   </trkpt>
   <trkpt lat="53.5498610" lon="-113.4585230">
    <ele>661.8</ele>
    <time>2026-08-23T17:08:30Z</time>
   </trkpt>
   <trkpt lat="53.5498730" lon="-113.4584970">
    <ele>661.9</ele>
    <time>2026-08-23T17:08:31Z</time>
   </trkpt>
   <trkpt lat="53.5498820" lon="-113.4584710">
    <ele>662.0</ele>
    <time>2026-08-23T17:08:32Z</time>
   </trkpt>
   <trkpt lat="53.5498860" lon="-113.4584460">
    <ele>662.1</ele>
    <time>2026-08-23T17:08:33Z</time>
   </trkpt>
   <trkpt lat="53.5498950" lon="-113.4584270">
    <ele>662.2</ele>
    <time>2026-08-23T17:08:34Z</time>
   </trkpt>
   <trkpt lat="53.5499080" lon="-113.4584110">
    <ele>662.3</ele>
    <time>2026-08-23T17:08:35Z</time>
   </trkpt>
   <trkpt lat="53.5499160" lon="-113.4583850">
    <ele>662.3</ele>
    <time>2026-08-23T17:08:36Z</time>
   </trkpt>
   <trkpt lat="53.5499240" lon="-113.4583620">
    <ele>662.4</ele>
    <time>2026-08-23T17:08:37Z</time>
   </trkpt>
   <trkpt lat="53.5499350" lon="-113.4583410">
    <ele>662.5</ele>
    <time>2026-08-23T17:08:38Z</time>
   </trkpt>
   <trkpt lat="53.5499400" lon="-113.4583110">
    <ele>662.5</ele>
    <time>2026-08-23T17:08:39Z</time>
   </trkpt>
   <trkpt lat="53.5499480" lon="-113.4582900">
    <ele>662.6</ele>
    <time>2026-08-23T17:08:40Z</time>
   </trkpt>
   <trkpt lat="53.5499600" lon="-113.4582590">
    <ele>662.6</ele>
    <time>2026-08-23T17:08:41Z</time>
   </trkpt>
   <trkpt lat="53.5499770" lon="-113.4582350">
    <ele>662.6</ele>
    <time>2026-08-23T17:08:42Z</time>
   </trkpt>
   <trkpt lat="53.5499880" lon="-113.4582040">
    <ele>662.6</ele>
    <time>2026-08-23T17:08:43Z</time>
   </trkpt>
   <trkpt lat="53.5499960" lon="-113.4581730">
    <ele>662.6</ele>
    <time>2026-08-23T17:08:44Z</time>
   </trkpt>
   <trkpt lat="53.5500110" lon="-113.4581400">
    <ele>662.5</ele>
    <time>2026-08-23T17:08:45Z</time>
   </trkpt>
   <trkpt lat="53.5500280" lon="-113.4581030">
    <ele>662.5</ele>
    <time>2026-08-23T17:08:46Z</time>
   </trkpt>
   <trkpt lat="53.5500420" lon="-113.4580710">
    <ele>662.4</ele>
    <time>2026-08-23T17:08:47Z</time>
   </trkpt>
   <trkpt lat="53.5500530" lon="-113.4580330">
    <ele>662.3</ele>
    <time>2026-08-23T17:08:48Z</time>
   </trkpt>
   <trkpt lat="53.5500630" lon="-113.4579960">
    <ele>662.1</ele>
    <time>2026-08-23T17:08:49Z</time>
   </trkpt>
   <trkpt lat="53.5500680" lon="-113.4579430">
    <ele>661.9</ele>
    <time>2026-08-23T17:08:50Z</time>
   </trkpt>
   <trkpt lat="53.5500710" lon="-113.4579060">
    <ele>661.8</ele>
    <time>2026-08-23T17:08:51Z</time>
   </trkpt>
   <trkpt lat="53.5500730" lon="-113.4578320">
    <ele>661.5</ele>
    <time>2026-08-23T17:08:52Z</time>
   </trkpt>
   <trkpt lat="53.5500760" lon="-113.4577910">
    <ele>661.3</ele>
    <time>2026-08-23T17:08:53Z</time>
   </trkpt>
   <trkpt lat="53.5500760" lon="-113.4577200">
    <ele>661.1</ele>
    <time>2026-08-23T17:08:54Z</time>
   </trkpt>
   <trkpt lat="53.5500630" lon="-113.4576870">
    <ele>661.0</ele>
    <time>2026-08-23T17:08:55Z</time>
   </trkpt>
   <trkpt lat="53.5500390" lon="-113.4576260">
    <ele>660.8</ele>
    <time>2026-08-23T17:08:56Z</time>
   </trkpt>
   <trkpt lat="53.5500130" lon="-113.4575650">
    <ele>660.6</ele>
    <time>2026-08-23T17:08:57Z</time>
   </trkpt>
   <trkpt lat="53.5499830" lon="-113.4575290">
    <ele>660.4</ele>
    <time>2026-08-23T17:08:58Z</time>
   </trkpt>
   <trkpt lat="53.5499450" lon="-113.4575110">
    <ele>660.2</ele>
    <time>2026-08-23T17:08:59Z</time>
   </trkpt>
   <trkpt lat="53.5499040" lon="-113.4575240">
    <ele>660.0</ele>
    <time>2026-08-23T17:09:00Z</time>
   </trkpt>
   <trkpt lat="53.5498660" lon="-113.4575430">
    <ele>659.9</ele>
    <time>2026-08-23T17:09:01Z</time>
   </trkpt>
   <trkpt lat="53.5498350" lon="-113.4575590">
    <ele>659.8</ele>
    <time>2026-08-23T17:09:02Z</time>
   </trkpt>
   <trkpt lat="53.5498180" lon="-113.4576080">
    <ele>659.7</ele>
    <time>2026-08-23T17:09:03Z</time>
   </trkpt>
   <trkpt lat="53.5498050" lon="-113.4576590">
    <ele>659.5</ele>
    <time>2026-08-23T17:09:04Z</time>
   </trkpt>
   <trkpt lat="53.5498090" lon="-113.4577140">
    <ele>659.3</ele>
    <time>2026-08-23T17:09:05Z</time>
   </trkpt>
   <trkpt lat="53.5498170" lon="-113.4577660">
    <ele>659.1</ele>
    <time>2026-08-23T17:09:06Z</time>
   </trkpt>
   <trkpt lat="53.5498340" lon="-113.4578140">
    <ele>658.9</ele>
    <time>2026-08-23T17:09:07Z</time>
   </trkpt>
   <trkpt lat="53.5498580" lon="-113.4578500">
    <ele>658.8</ele>
    <time>2026-08-23T17:09:08Z</time>
   </trkpt>
   <trkpt lat="53.5498760" lon="-113.4578940">
    <ele>658.6</ele>
    <time>2026-08-23T17:09:09Z</time>
   </trkpt>
   <trkpt lat="53.5498770" lon="-113.4579310">
    <ele>658.5</ele>
    <time>2026-08-23T17:09:10Z</time>
   </trkpt>
   <trkpt lat="53.5498910" lon="-113.4579790">
    <ele>658.3</ele>
    <time>2026-08-23T17:09:11Z</time>
   </trkpt>
   <trkpt lat="53.5499040" lon="-113.4580230">
    <ele>658.2</ele>
    <time>2026-08-23T17:09:12Z</time>
   </trkpt>
   <trkpt lat="53.5499200" lon="-113.4580680">
    <ele>658.0</ele>
    <time>2026-08-23T17:09:13Z</time>
   </trkpt>
   <trkpt lat="53.5499390" lon="-113.4581150">
    <ele>657.8</ele>
    <time>2026-08-23T17:09:14Z</time>
   </trkpt>
   <trkpt lat="53.5499420" lon="-113.4581340">
    <ele>657.7</ele>
    <time>2026-08-23T17:09:15Z</time>
   </trkpt>
   <trkpt lat="53.5499620" lon="-113.4581710">
    <ele>657.5</ele>
    <time>2026-08-23T17:09:16Z</time>
   </trkpt>
   <trkpt lat="53.5499800" lon="-113.4582090">
    <ele>657.3</ele>
    <time>2026-08-23T17:09:17Z</time>
   </trkpt>
   <trkpt lat="53.5500020" lon="-113.4582630">
    <ele>657.0</ele>
    <time>2026-08-23T17:09:18Z</time>
   </trkpt>
   <trkpt lat="53.5500200" lon="-113.4582920">
    <ele>656.8</ele>
    <time>2026-08-23T17:09:19Z</time>
   </trkpt>
   <trkpt lat="53.5500390" lon="-113.4583350">
    <ele>656.4</ele>
    <time>2026-08-23T17:09:20Z</time>
   </trkpt>
   <trkpt lat="53.5500430" lon="-113.4583830">
    <ele>656.2</ele>
    <time>2026-08-23T17:09:21Z</time>
   </trkpt>
   <trkpt lat="53.5500540" lon="-113.4584480">
    <ele>655.8</ele>
    <time>2026-08-23T17:09:22Z</time>
   </trkpt>
   <trkpt lat="53.5500620" lon="-113.4585050">
    <ele>655.4</ele>
    <time>2026-08-23T17:09:23Z</time>
   </trkpt>
   <trkpt lat="53.5500640" lon="-113.4585700">
    <ele>655.3</ele>
    <time>2026-08-23T17:09:24Z</time>
   </trkpt>
   <trkpt lat="53.5500660" lon="-113.4586230">
    <ele>655.2</ele>
    <time>2026-08-23T17:09:25Z</time>
   </trkpt>
   <trkpt lat="53.5500680" lon="-113.4586850">
    <ele>655.1</ele>
    <time>2026-08-23T17:09:26Z</time>
   </trkpt>
   <trkpt lat="53.5500690" lon="-113.4587400">
    <ele>654.8</ele>
    <time>2026-08-23T17:09:27Z</time>
   </trkpt>
   <trkpt lat="53.5500770" lon="-113.4587930">
    <ele>654.6</ele>
    <time>2026-08-23T17:09:28Z</time>
   </trkpt>
   <trkpt lat="53.5500830" lon="-113.4588430">
    <ele>654.4</ele>
    <time>2026-08-23T17:09:29Z</time>
   </trkpt>
   <trkpt lat="53.5500790" lon="-113.4588700">
    <ele>654.3</ele>
    <time>2026-08-23T17:09:30Z</time>
   </trkpt>
   <trkpt lat="53.5500840" lon="-113.4588980">
    <ele>654.1</ele>
    <time>2026-08-23T17:09:31Z</time>
   </trkpt>
   <trkpt lat="53.5500870" lon="-113.4589320">
    <ele>654.0</ele>
    <time>2026-08-23T17:09:32Z</time>
   </trkpt>
   <trkpt lat="53.5500940" lon="-113.4589570">
    <ele>653.9</ele>
    <time>2026-08-23T17:09:33Z</time>
   </trkpt>
   <trkpt lat="53.5500980" lon="-113.4589880">
    <ele>653.7</ele>
    <time>2026-08-23T17:09:34Z</time>
   </trkpt>
   <trkpt lat="53.5501110" lon="-113.4590260">
    <ele>653.5</ele>
    <time>2026-08-23T17:09:35Z</time>
   </trkpt>
   <trkpt lat="53.5501090" lon="-113.4590650">
    <ele>653.3</ele>
    <time>2026-08-23T17:09:36Z</time>
   </trkpt>
   <trkpt lat="53.5501060" lon="-113.4590970">
    <ele>653.2</ele>
    <time>2026-08-23T17:09:37Z</time>
   </trkpt>
   <trkpt lat="53.5501110" lon="-113.4591320">
    <ele>653.0</ele>
    <time>2026-08-23T17:09:38Z</time>
   </trkpt>
   <trkpt lat="53.5501210" lon="-113.4591660">
    <ele>652.9</ele>
    <time>2026-08-23T17:09:39Z</time>
   </trkpt>
   <trkpt lat="53.5501190" lon="-113.4591950">
    <ele>652.7</ele>
    <time>2026-08-23T17:09:40Z</time>
   </trkpt>
   <trkpt lat="53.5501200" lon="-113.4592200">
    <ele>652.6</ele>
    <time>2026-08-23T17:09:41Z</time>
   </trkpt>
   <trkpt lat="53.5501230" lon="-113.4592530">
    <ele>652.5</ele>
    <time>2026-08-23T17:09:42Z</time>
   </trkpt>
   <trkpt lat="53.5501280" lon="-113.4592900">
    <ele>652.3</ele>
    <time>2026-08-23T17:09:43Z</time>
   </trkpt>
   <trkpt lat="53.5501320" lon="-113.4593260">
    <ele>652.1</ele>
    <time>2026-08-23T17:09:44Z</time>
   </trkpt>
   <trkpt lat="53.5501320" lon="-113.4593690">
    <ele>651.9</ele>
    <time>2026-08-23T17:09:45Z</time>
   </trkpt>
   <trkpt lat="53.5501300" lon="-113.4594220">
    <ele>651.7</ele>
    <time>2026-08-23T17:09:46Z</time>
   </trkpt>
   <trkpt lat="53.5501310" lon="-113.4594640">
    <ele>651.5</ele>
    <time>2026-08-23T17:09:47Z</time>
   </trkpt>
   <trkpt lat="53.5501360" lon="-113.4595060">
    <ele>651.3</ele>
    <time>2026-08-23T17:09:48Z</time>
   </trkpt>
   <trkpt lat="53.5501350" lon="-113.4595490">
    <ele>651.1</ele>
    <time>2026-08-23T17:09:49Z</time>
   </trkpt>
   <trkpt lat="53.5501290" lon="-113.4595840">
    <ele>650.9</ele>
    <time>2026-08-23T17:09:50Z</time>
   </trkpt>
   <trkpt lat="53.5501310" lon="-113.4596140">
    <ele>650.8</ele>
    <time>2026-08-23T17:09:51Z</time>
   </trkpt>
   <trkpt lat="53.5501310" lon="-113.4596450">
    <ele>650.6</ele>
    <time>2026-08-23T17:09:52Z</time>
   </trkpt>
   <trkpt lat="53.5501240" lon="-113.4596830">
    <ele>650.4</ele>
    <time>2026-08-23T17:09:53Z</time>
   </trkpt>
   <trkpt lat="53.5501170" lon="-113.4597280">
    <ele>650.2</ele>
    <time>2026-08-23T17:09:54Z</time>
   </trkpt>
   <trkpt lat="53.5501140" lon="-113.4597720">
    <ele>650.0</ele>
    <time>2026-08-23T17:09:55Z</time>
   </trkpt>
   <trkpt lat="53.5501140" lon="-113.4598160">
    <ele>649.8</ele>
    <time>2026-08-23T17:09:56Z</time>
   </trkpt>
   <trkpt lat="53.5501120" lon="-113.4598600">
    <ele>649.6</ele>
    <time>2026-08-23T17:09:57Z</time>
   </trkpt>
   <trkpt lat="53.5501090" lon="-113.4598980">
    <ele>649.4</ele>
    <time>2026-08-23T17:09:58Z</time>
   </trkpt>
   <trkpt lat="53.5501020" lon="-113.4599370">
    <ele>649.2</ele>
    <time>2026-08-23T17:09:59Z</time>
   </trkpt>
   <trkpt lat="53.5500970" lon="-113.4599750">
    <ele>649.0</ele>
    <time>2026-08-23T17:10:00Z</time>
   </trkpt>
   <trkpt lat="53.5500980" lon="-113.4600130">
    <ele>648.8</ele>
    <time>2026-08-23T17:10:01Z</time>
   </trkpt>
   <trkpt lat="53.5500890" lon="-113.4600590">
    <ele>648.6</ele>
    <time>2026-08-23T17:10:02Z</time>
   </trkpt>
   <trkpt lat="53.5500890" lon="-113.4600950">
    <ele>648.4</ele>
    <time>2026-08-23T17:10:03Z</time>
   </trkpt>
   <trkpt lat="53.5500870" lon="-113.4601340">
    <ele>648.2</ele>
    <time>2026-08-23T17:10:04Z</time>
   </trkpt>
   <trkpt lat="53.5500810" lon="-113.4601780">
    <ele>648.0</ele>
    <time>2026-08-23T17:10:05Z</time>
   </trkpt>
   <trkpt lat="53.5500820" lon="-113.4602240">
    <ele>647.8</ele>
    <time>2026-08-23T17:10:06Z</time>
   </trkpt>
   <trkpt lat="53.5500750" lon="-113.4602760">
    <ele>647.5</ele>
    <time>2026-08-23T17:10:07Z</time>
   </trkpt>
   <trkpt lat="53.5500640" lon="-113.4603230">
    <ele>647.3</ele>
    <time>2026-08-23T17:10:08Z</time>
   </trkpt>
   <trkpt lat="53.5500640" lon="-113.4603750">
    <ele>647.0</ele>
    <time>2026-08-23T17:10:09Z</time>
   </trkpt>
   <trkpt lat="53.5500560" lon="-113.4604250">
    <ele>646.8</ele>
    <time>2026-08-23T17:10:10Z</time>
   </trkpt>
   <trkpt lat="53.5500430" lon="-113.4604730">
    <ele>646.5</ele>
    <time>2026-08-23T17:10:11Z</time>
   </trkpt>
   <trkpt lat="53.5500300" lon="-113.4605220">
    <ele>646.2</ele>
    <time>2026-08-23T17:10:12Z</time>
   </trkpt>
   <trkpt lat="53.5500200" lon="-113.4605780">
    <ele>645.9</ele>
    <time>2026-08-23T17:10:13Z</time>
   </trkpt>
   <trkpt lat="53.5500070" lon="-113.4606330">
    <ele>645.7</ele>
    <time>2026-08-23T17:10:14Z</time>
   </trkpt>
   <trkpt lat="53.5499880" lon="-113.4606860">
    <ele>645.3</ele>
    <time>2026-08-23T17:10:15Z</time>
   </trkpt>
   <trkpt lat="53.5499810" lon="-113.4607420">
    <ele>645.1</ele>
    <time>2026-08-23T17:10:16Z</time>
   </trkpt>
   <trkpt lat="53.5499700" lon="-113.4607980">
    <ele>644.8</ele>
    <time>2026-08-23T17:10:17Z</time>
   </trkpt>
   <trkpt lat="53.5499620" lon="-113.4608530">
    <ele>644.5</ele>
    <time>2026-08-23T17:10:18Z</time>
   </trkpt>
   <trkpt lat="53.5499460" lon="-113.4608910">
    <ele>644.3</ele>
    <time>2026-08-23T17:10:19Z</time>
   </trkpt>
   <trkpt lat="53.5499340" lon="-113.4609430">
    <ele>644.0</ele>
    <time>2026-08-23T17:10:20Z</time>
   </trkpt>
   <trkpt lat="53.5499400" lon="-113.4610000">
    <ele>643.7</ele>
    <time>2026-08-23T17:10:21Z</time>
   </trkpt>
   <trkpt lat="53.5499270" lon="-113.4610530">
    <ele>643.4</ele>
    <time>2026-08-23T17:10:22Z</time>
   </trkpt>
   <trkpt lat="53.5499130" lon="-113.4611040">
    <ele>643.2</ele>
    <time>2026-08-23T17:10:23Z</time>
   </trkpt>
   <trkpt lat="53.5499030" lon="-113.4611580">
    <ele>642.9</ele>
    <time>2026-08-23T17:10:24Z</time>
   </trkpt>
   <trkpt lat="53.5498910" lon="-113.4612180">
    <ele>642.6</ele>
    <time>2026-08-23T17:10:25Z</time>
   </trkpt>
   <trkpt lat="53.5498750" lon="-113.4612720">
    <ele>642.3</ele>
    <time>2026-08-23T17:10:26Z</time>
   </trkpt>
   <trkpt lat="53.5498570" lon="-113.4613280">
    <ele>642.0</ele>
    <time>2026-08-23T17:10:27Z</time>
   </trkpt>
   <trkpt lat="53.5498460" lon="-113.4613870">
    <ele>641.7</ele>
    <time>2026-08-23T17:10:28Z</time>
   </trkpt>
   <trkpt lat="53.5498320" lon="-113.4614510">
    <ele>641.4</ele>
    <time>2026-08-23T17:10:29Z</time>
   </trkpt>
   <trkpt lat="53.5498120" lon="-113.4615150">
    <ele>641.0</ele>
    <time>2026-08-23T17:10:30Z</time>
   </trkpt>
   <trkpt lat="53.5497960" lon="-113.4615830">
    <ele>640.7</ele>
    <time>2026-08-23T17:10:31Z</time>
   </trkpt>
   <trkpt lat="53.5497880" lon="-113.4616480">
    <ele>640.3</ele>
    <time>2026-08-23T17:10:32Z</time>
   </trkpt>
   <trkpt lat="53.5497760" lon="-113.4617150">
    <ele>640.0</ele>
    <time>2026-08-23T17:10:33Z</time>
   </trkpt>
   <trkpt lat="53.5497620" lon="-113.4617830">
    <ele>639.7</ele>
    <time>2026-08-23T17:10:34Z</time>
   </trkpt>
   <trkpt lat="53.5497470" lon="-113.4618560">
    <ele>639.3</ele>
    <time>2026-08-23T17:10:35Z</time>
   </trkpt>
   <trkpt lat="53.5497350" lon="-113.4619320">
    <ele>638.9</ele>
    <time>2026-08-23T17:10:36Z</time>
   </trkpt>
   <trkpt lat="53.5497200" lon="-113.4620010">
    <ele>638.6</ele>
    <time>2026-08-23T17:10:37Z</time>
   </trkpt>
   <trkpt lat="53.5497100" lon="-113.4620690">
    <ele>638.2</ele>
    <time>2026-08-23T17:10:38Z</time>
   </trkpt>
   <trkpt lat="53.5496990" lon="-113.4621310">
    <ele>637.9</ele>
    <time>2026-08-23T17:10:39Z</time>
   </trkpt>
   <trkpt lat="53.5496900" lon="-113.4621940">
    <ele>637.6</ele>
    <time>2026-08-23T17:10:40Z</time>
   </trkpt>
   <trkpt lat="53.5496800" lon="-113.4622550">
    <ele>637.3</ele>
    <time>2026-08-23T17:10:41Z</time>
   </trkpt>
   <trkpt lat="53.5496750" lon="-113.4623160">
    <ele>637.0</ele>
    <time>2026-08-23T17:10:42Z</time>
   </trkpt>
   <trkpt lat="53.5496670" lon="-113.4623770">
    <ele>636.6</ele>
    <time>2026-08-23T17:10:43Z</time>
   </trkpt>
   <trkpt lat="53.5496570" lon="-113.4624340">
    <ele>636.3</ele>
    <time>2026-08-23T17:10:44Z</time>
   </trkpt>
   <trkpt lat="53.5496440" lon="-113.4624890">
    <ele>636.0</ele>
    <time>2026-08-23T17:10:45Z</time>
   </trkpt>
   <trkpt lat="53.5496360" lon="-113.4625410">
    <ele>635.8</ele>
    <time>2026-08-23T17:10:46Z</time>
   </trkpt>
   <trkpt lat="53.5496320" lon="-113.4625940">
    <ele>635.5</ele>
    <time>2026-08-23T17:10:47Z</time>
   </trkpt>
   <trkpt lat="53.5496250" lon="-113.4626410">
    <ele>635.3</ele>
    <time>2026-08-23T17:10:48Z</time>
   </trkpt>
   <trkpt lat="53.5496190" lon="-113.4626920">
    <ele>635.0</ele>
    <time>2026-08-23T17:10:49Z</time>
   </trkpt>
   <trkpt lat="53.5496110" lon="-113.4627440">
    <ele>634.8</ele>
    <time>2026-08-23T17:10:50Z</time>
   </trkpt>
   <trkpt lat="53.5496060" lon="-113.4627960">
    <ele>634.5</ele>
    <time>2026-08-23T17:10:51Z</time>
   </trkpt>
   <trkpt lat="53.5496020" lon="-113.4628490">
    <ele>634.3</ele>
    <time>2026-08-23T17:10:52Z</time>
   </trkpt>
   <trkpt lat="53.5495960" lon="-113.4629040">
    <ele>634.0</ele>
    <time>2026-08-23T17:10:53Z</time>
   </trkpt>
   <trkpt lat="53.5495890" lon="-113.4629560">
    <ele>633.8</ele>
    <time>2026-08-23T17:10:54Z</time>
   </trkpt>
   <trkpt lat="53.5495840" lon="-113.4630080">
    <ele>633.5</ele>
    <time>2026-08-23T17:10:55Z</time>
   </trkpt>
   <trkpt lat="53.5495770" lon="-113.4630620">
    <ele>633.3</ele>
    <time>2026-08-23T17:10:56Z</time>
   </trkpt>
   <trkpt lat="53.5495720" lon="-113.4631190">
    <ele>633.0</ele>
    <time>2026-08-23T17:10:57Z</time>
   </trkpt>
   <trkpt lat="53.5495650" lon="-113.4631760">
    <ele>632.8</ele>
    <time>2026-08-23T17:10:58Z</time>
   </trkpt>
   <trkpt lat="53.5495540" lon="-113.4632350">
    <ele>632.5</ele>
    <time>2026-08-23T17:10:59Z</time>
   </trkpt>
   <trkpt lat="53.5495480" lon="-113.4632990">
    <ele>632.2</ele>
    <time>2026-08-23T17:11:00Z</time>
   </trkpt>
   <trkpt lat="53.5495410" lon="-113.4633630">
    <ele>631.9</ele>
    <time>2026-08-23T17:11:01Z</time>
   </trkpt>
   <trkpt lat="53.5495320" lon="-113.4634290">
    <ele>631.6</ele>
    <time>2026-08-23T17:11:02Z</time>
   </trkpt>
   <trkpt lat="53.5495250" lon="-113.4634920">
    <ele>631.3</ele>
    <time>2026-08-23T17:11:03Z</time>
   </trkpt>
   <trkpt lat="53.5495160" lon="-113.4635540">
    <ele>631.1</ele>
    <time>2026-08-23T17:11:04Z</time>
   </trkpt>
   <trkpt lat="53.5495070" lon="-113.4636180">
    <ele>630.8</ele>
    <time>2026-08-23T17:11:05Z</time>
   </trkpt>
   <trkpt lat="53.5494990" lon="-113.4636870">
    <ele>630.5</ele>
    <time>2026-08-23T17:11:06Z</time>
   </trkpt>
   <trkpt lat="53.5494870" lon="-113.4637660">
    <ele>630.2</ele>
    <time>2026-08-23T17:11:07Z</time>
   </trkpt>
   <trkpt lat="53.5494760" lon="-113.4638350">
    <ele>629.9</ele>
    <time>2026-08-23T17:11:08Z</time>
   </trkpt>
   <trkpt lat="53.5494720" lon="-113.4638850">
    <ele>629.7</ele>
    <time>2026-08-23T17:11:09Z</time>
   </trkpt>
   <trkpt lat="53.5494700" lon="-113.4639320">
    <ele>629.5</ele>
    <time>2026-08-23T17:11:10Z</time>
   </trkpt>
   <trkpt lat="53.5494720" lon="-113.4639650">
    <ele>629.5</ele>
    <time>2026-08-23T17:11:11Z</time>
   </trkpt>
   <trkpt lat="53.5494630" lon="-113.4639980">
    <ele>629.5</ele>
    <time>2026-08-23T17:11:12Z</time>
   </trkpt>
   <trkpt lat="53.5494620" lon="-113.4640080">
    <ele>629.5</ele>
    <time>2026-08-23T17:11:13Z</time>
   </trkpt>
   <trkpt lat="53.5494450" lon="-113.4640160">
    <ele>629.5</ele>
    <time>2026-08-23T17:11:14Z</time>
   </trkpt>
   <trkpt lat="53.5494490" lon="-113.4640100">
    <ele>629.5</ele>
    <time>2026-08-23T17:11:15Z</time>
   </trkpt>
   <trkpt lat="53.5494440" lon="-113.4640100">
    <ele>629.5</ele>
    <time>2026-08-23T17:11:16Z</time>
   </trkpt>
   <trkpt lat="53.5494290" lon="-113.4640160">
    <ele>629.5</ele>
    <time>2026-08-23T17:11:17Z</time>
   </trkpt>
   <trkpt lat="53.5494120" lon="-113.4640140">
    <ele>629.5</ele>
    <time>2026-08-23T17:11:18Z</time>
   </trkpt>
   <trkpt lat="53.5493990" lon="-113.4640090">
    <ele>629.6</ele>
    <time>2026-08-23T17:11:19Z</time>
   </trkpt>
   <trkpt lat="53.5493830" lon="-113.4640190">
    <ele>629.6</ele>
    <time>2026-08-23T17:11:20Z</time>
   </trkpt>
   <trkpt lat="53.5493670" lon="-113.4640180">
    <ele>629.6</ele>
    <time>2026-08-23T17:11:21Z</time>
   </trkpt>
   <trkpt lat="53.5493500" lon="-113.4640180">
    <ele>629.6</ele>
    <time>2026-08-23T17:11:22Z</time>
   </trkpt>
   <trkpt lat="53.5493300" lon="-113.4640120">
    <ele>629.5</ele>
    <time>2026-08-23T17:11:23Z</time>
   </trkpt>
   <trkpt lat="53.5493060" lon="-113.4640060">
    <ele>629.4</ele>
    <time>2026-08-23T17:11:24Z</time>
   </trkpt>
   <trkpt lat="53.5492820" lon="-113.4640070">
    <ele>629.3</ele>
    <time>2026-08-23T17:11:25Z</time>
   </trkpt>
   <trkpt lat="53.5492610" lon="-113.4640120">
    <ele>629.2</ele>
    <time>2026-08-23T17:11:26Z</time>
   </trkpt>
   <trkpt lat="53.5492430" lon="-113.4640110">
    <ele>629.1</ele>
    <time>2026-08-23T17:11:27Z</time>
   </trkpt>
   <trkpt lat="53.5492230" lon="-113.4640320">
    <ele>628.9</ele>
    <time>2026-08-23T17:11:28Z</time>
   </trkpt>
   <trkpt lat="53.5492210" lon="-113.4640640">
    <ele>628.8</ele>
    <time>2026-08-23T17:11:29Z</time>
   </trkpt>
   <trkpt lat="53.5492180" lon="-113.4640980">
    <ele>628.7</ele>
    <time>2026-08-23T17:11:30Z</time>
   </trkpt>
   <trkpt lat="53.5492170" lon="-113.4641420">
    <ele>628.6</ele>
    <time>2026-08-23T17:11:31Z</time>
   </trkpt>
   <trkpt lat="53.5492070" lon="-113.4641850">
    <ele>628.5</ele>
    <time>2026-08-23T17:11:32Z</time>
   </trkpt>
   <trkpt lat="53.5492070" lon="-113.4642380">
    <ele>628.3</ele>
    <time>2026-08-23T17:11:33Z</time>
   </trkpt>
   <trkpt lat="53.5491990" lon="-113.4643000">
    <ele>628.2</ele>
    <time>2026-08-23T17:11:34Z</time>
   </trkpt>
   <trkpt lat="53.5491920" lon="-113.4643590">
    <ele>628.0</ele>
    <time>2026-08-23T17:11:35Z</time>
   </trkpt>
   <trkpt lat="53.5491840" lon="-113.4644160">
    <ele>627.9</ele>
    <time>2026-08-23T17:11:36Z</time>
   </trkpt>
   <trkpt lat="53.5491810" lon="-113.4644700">
    <ele>627.8</ele>
    <time>2026-08-23T17:11:37Z</time>
   </trkpt>
   <trkpt lat="53.5491730" lon="-113.4645190">
    <ele>627.7</ele>
    <time>2026-08-23T17:11:38Z</time>
   </trkpt>
   <trkpt lat="53.5491680" lon="-113.4645760">
    <ele>627.6</ele>
    <time>2026-08-23T17:11:39Z</time>
   </trkpt>
   <trkpt lat="53.5491630" lon="-113.4646360">
    <ele>627.5</ele>
    <time>2026-08-23T17:11:40Z</time>
   </trkpt>
   <trkpt lat="53.5491610" lon="-113.4646940">
    <ele>627.4</ele>
    <time>2026-08-23T17:11:41Z</time>
   </trkpt>
   <trkpt lat="53.5491540" lon="-113.4647490">
    <ele>627.4</ele>
    <time>2026-08-23T17:11:42Z</time>
   </trkpt>
   <trkpt lat="53.5491500" lon="-113.4647970">
    <ele>627.3</ele>
    <time>2026-08-23T17:11:43Z</time>
   </trkpt>
   <trkpt lat="53.5491430" lon="-113.4648400">
    <ele>627.3</ele>
    <time>2026-08-23T17:11:44Z</time>
   </trkpt>
   <trkpt lat="53.5491350" lon="-113.4648890">
    <ele>627.2</ele>
    <time>2026-08-23T17:11:45Z</time>
   </trkpt>
   <trkpt lat="53.5491310" lon="-113.4649350">
    <ele>627.2</ele>
    <time>2026-08-23T17:11:46Z</time>
   </trkpt>
   <trkpt lat="53.5491310" lon="-113.4649840">
    <ele>627.2</ele>
    <time>2026-08-23T17:11:47Z</time>
   </trkpt>
   <trkpt lat="53.5491270" lon="-113.4650350">
    <ele>627.1</ele>
    <time>2026-08-23T17:11:48Z</time>
   </trkpt>
   <trkpt lat="53.5491300" lon="-113.4650830">
    <ele>627.1</ele>
    <time>2026-08-23T17:11:49Z</time>
   </trkpt>
   <trkpt lat="53.5491260" lon="-113.4651300">
    <ele>627.1</ele>
    <time>2026-08-23T17:11:50Z</time>
   </trkpt>
   <trkpt lat="53.5491260" lon="-113.4651780">
    <ele>627.1</ele>
    <time>2026-08-23T17:11:51Z</time>
   </trkpt>
   <trkpt lat="53.5491180" lon="-113.4652230">
    <ele>627.1</ele>
    <time>2026-08-23T17:11:52Z</time>
   </trkpt>
   <trkpt lat="53.5491110" lon="-113.4652640">
    <ele>627.1</ele>
    <time>2026-08-23T17:11:53Z</time>
   </trkpt>
   <trkpt lat="53.5491110" lon="-113.4653090">
    <ele>627.1</ele>
    <time>2026-08-23T17:11:54Z</time>
   </trkpt>
   <trkpt lat="53.5491060" lon="-113.4653580">
    <ele>627.1</ele>
    <time>2026-08-23T17:11:55Z</time>
   </trkpt>
   <trkpt lat="53.5491000" lon="-113.4654050">
    <ele>627.1</ele>
    <time>2026-08-23T17:11:56Z</time>
   </trkpt>
   <trkpt lat="53.5490770" lon="-113.4654470">
    <ele>627.1</ele>
    <time>2026-08-23T17:11:57Z</time>
   </trkpt>
   <trkpt lat="53.5490690" lon="-113.4654860">
    <ele>627.1</ele>
    <time>2026-08-23T17:11:58Z</time>
   </trkpt>
   <trkpt lat="53.5490590" lon="-113.4655250">
    <ele>627.1</ele>
    <time>2026-08-23T17:11:59Z</time>
   </trkpt>
   <trkpt lat="53.5490450" lon="-113.4655600">
    <ele>627.1</ele>
    <time>2026-08-23T17:12:00Z</time>
   </trkpt>
   <trkpt lat="53.5490440" lon="-113.4655880">
    <ele>627.1</ele>
    <time>2026-08-23T17:12:01Z</time>
   </trkpt>
   <trkpt lat="53.5490520" lon="-113.4656190">
    <ele>627.1</ele>
    <time>2026-08-23T17:12:02Z</time>
   </trkpt>
   <trkpt lat="53.5490610" lon="-113.4656580">
    <ele>627.1</ele>
    <time>2026-08-23T17:12:03Z</time>
   </trkpt>
   <trkpt lat="53.5490560" lon="-113.4656920">
    <ele>627.1</ele>
    <time>2026-08-23T17:12:04Z</time>
   </trkpt>
   <trkpt lat="53.5490610" lon="-113.4657440">
    <ele>627.1</ele>
    <time>2026-08-23T17:12:05Z</time>
   </trkpt>
   <trkpt lat="53.5490560" lon="-113.4657740">
    <ele>627.1</ele>
    <time>2026-08-23T17:12:06Z</time>
   </trkpt>
   <trkpt lat="53.5490440" lon="-113.4657790">
    <ele>627.1</ele>
    <time>2026-08-23T17:12:07Z</time>
   </trkpt>
   <trkpt lat="53.5490360" lon="-113.4658160">
    <ele>627.1</ele>
    <time>2026-08-23T17:12:08Z</time>
   </trkpt>
   <trkpt lat="53.5490360" lon="-113.4658480">
    <ele>627.1</ele>
    <time>2026-08-23T17:12:09Z</time>
   </trkpt>
   <trkpt lat="53.5490230" lon="-113.4658990">
    <ele>627.1</ele>
    <time>2026-08-23T17:12:10Z</time>
   </trkpt>
   <trkpt lat="53.5490070" lon="-113.4659430">
    <ele>627.1</ele>
    <time>2026-08-23T17:12:11Z</time>
   </trkpt>
   <trkpt lat="53.5490020" lon="-113.4659780">
    <ele>627.1</ele>
    <time>2026-08-23T17:12:12Z</time>
   </trkpt>
   <trkpt lat="53.5489880" lon="-113.4660170">
    <ele>627.1</ele>
    <time>2026-08-23T17:12:13Z</time>
   </trkpt>
   <trkpt lat="53.5489770" lon="-113.4660500">
    <ele>627.1</ele>
    <time>2026-08-23T17:12:14Z</time>
   </trkpt>
   <trkpt lat="53.5489730" lon="-113.4660830">
    <ele>627.1</ele>
    <time>2026-08-23T17:12:15Z</time>
   </trkpt>
   <trkpt lat="53.5489760" lon="-113.4661130">
    <ele>627.1</ele>
    <time>2026-08-23T17:12:16Z</time>
   </trkpt>
   <trkpt lat="53.5489720" lon="-113.4661490">
    <ele>627.1</ele>
    <time>2026-08-23T17:12:17Z</time>
   </trkpt>
   <trkpt lat="53.5489650" lon="-113.4661850">
    <ele>627.1</ele>
    <time>2026-08-23T17:12:18Z</time>
   </trkpt>
   <trkpt lat="53.5489570" lon="-113.4662240">
    <ele>627.1</ele>
    <time>2026-08-23T17:12:19Z</time>
   </trkpt>
   <trkpt lat="53.5489440" lon="-113.4662630">
    <ele>627.0</ele>
    <time>2026-08-23T17:12:20Z</time>
   </trkpt>
   <trkpt lat="53.5489310" lon="-113.4663000">
    <ele>627.0</ele>
    <time>2026-08-23T17:12:21Z</time>
   </trkpt>
   <trkpt lat="53.5489210" lon="-113.4663410">
    <ele>627.0</ele>
    <time>2026-08-23T17:12:22Z</time>
   </trkpt>
   <trkpt lat="53.5489100" lon="-113.4663830">
    <ele>627.0</ele>
    <time>2026-08-23T17:12:23Z</time>
   </trkpt>
   <trkpt lat="53.5489040" lon="-113.4664270">
    <ele>627.0</ele>
    <time>2026-08-23T17:12:24Z</time>
   </trkpt>
   <trkpt lat="53.5488910" lon="-113.4664680">
    <ele>627.0</ele>
    <time>2026-08-23T17:12:25Z</time>
   </trkpt>
   <trkpt lat="53.5488780" lon="-113.4665040">
    <ele>627.0</ele>
    <time>2026-08-23T17:12:26Z</time>
   </trkpt>
   <trkpt lat="53.5488650" lon="-113.4665410">
    <ele>627.0</ele>
    <time>2026-08-23T17:12:27Z</time>
   </trkpt>
   <trkpt lat="53.5488570" lon="-113.4665820">
    <ele>626.9</ele>
    <time>2026-08-23T17:12:28Z</time>
   </trkpt>
   <trkpt lat="53.5488490" lon="-113.4666290">
    <ele>626.9</ele>
    <time>2026-08-23T17:12:29Z</time>
   </trkpt>
   <trkpt lat="53.5488420" lon="-113.4666700">
    <ele>626.9</ele>
    <time>2026-08-23T17:12:30Z</time>
   </trkpt>
   <trkpt lat="53.5488320" lon="-113.4667060">
    <ele>626.9</ele>
    <time>2026-08-23T17:12:31Z</time>
   </trkpt>
   <trkpt lat="53.5488140" lon="-113.4667470">
    <ele>626.9</ele>
    <time>2026-08-23T17:12:32Z</time>
   </trkpt>
   <trkpt lat="53.5487960" lon="-113.4667790">
    <ele>626.8</ele>
    <time>2026-08-23T17:12:33Z</time>
   </trkpt>
   <trkpt lat="53.5487850" lon="-113.4668150">
    <ele>626.8</ele>
    <time>2026-08-23T17:12:34Z</time>
   </trkpt>
   <trkpt lat="53.5487840" lon="-113.4668570">
    <ele>626.8</ele>
    <time>2026-08-23T17:12:35Z</time>
   </trkpt>
   <trkpt lat="53.5487740" lon="-113.4668960">
    <ele>626.7</ele>
    <time>2026-08-23T17:12:36Z</time>
   </trkpt>
   <trkpt lat="53.5487640" lon="-113.4669420">
    <ele>626.7</ele>
    <time>2026-08-23T17:12:37Z</time>
   </trkpt>
   <trkpt lat="53.5487550" lon="-113.4669810">
    <ele>626.6</ele>
    <time>2026-08-23T17:12:38Z</time>
   </trkpt>
   <trkpt lat="53.5487490" lon="-113.4670200">
    <ele>626.6</ele>
    <time>2026-08-23T17:12:39Z</time>
   </trkpt>
   <trkpt lat="53.5487390" lon="-113.4670520">
    <ele>626.5</ele>
    <time>2026-08-23T17:12:40Z</time>
   </trkpt>
   <trkpt lat="53.5487290" lon="-113.4670820">
    <ele>626.5</ele>
    <time>2026-08-23T17:12:41Z</time>
   </trkpt>
   <trkpt lat="53.5487320" lon="-113.4671180">
    <ele>626.4</ele>
    <time>2026-08-23T17:12:42Z</time>
   </trkpt>
   <trkpt lat="53.5487300" lon="-113.4671540">
    <ele>626.4</ele>
    <time>2026-08-23T17:12:43Z</time>
   </trkpt>
   <trkpt lat="53.5487260" lon="-113.4671920">
    <ele>626.3</ele>
    <time>2026-08-23T17:12:44Z</time>
   </trkpt>
   <trkpt lat="53.5487150" lon="-113.4672380">
    <ele>626.2</ele>
    <time>2026-08-23T17:12:45Z</time>
   </trkpt>
   <trkpt lat="53.5487070" lon="-113.4672820">
    <ele>626.1</ele>
    <time>2026-08-23T17:12:46Z</time>
   </trkpt>
   <trkpt lat="53.5486980" lon="-113.4673240">
    <ele>626.1</ele>
    <time>2026-08-23T17:12:47Z</time>
   </trkpt>
   <trkpt lat="53.5487010" lon="-113.4673850">
    <ele>625.9</ele>
    <time>2026-08-23T17:12:48Z</time>
   </trkpt>
   <trkpt lat="53.5486770" lon="-113.4674640">
    <ele>625.8</ele>
    <time>2026-08-23T17:12:49Z</time>
   </trkpt>
   <trkpt lat="53.5486560" lon="-113.4675360">
    <ele>625.6</ele>
    <time>2026-08-23T17:12:50Z</time>
   </trkpt>
   <trkpt lat="53.5486470" lon="-113.4675980">
    <ele>625.4</ele>
    <time>2026-08-23T17:12:51Z</time>
   </trkpt>
   <trkpt lat="53.5486220" lon="-113.4676350">
    <ele>625.3</ele>
    <time>2026-08-23T17:12:52Z</time>
   </trkpt>
   <trkpt lat="53.5486170" lon="-113.4676820">
    <ele>625.2</ele>
    <time>2026-08-23T17:12:53Z</time>
   </trkpt>
   <trkpt lat="53.5486000" lon="-113.4677370">
    <ele>625.1</ele>
    <time>2026-08-23T17:12:54Z</time>
   </trkpt>
   <trkpt lat="53.5485920" lon="-113.4677930">
    <ele>624.9</ele>
    <time>2026-08-23T17:12:55Z</time>
   </trkpt>
   <trkpt lat="53.5485700" lon="-113.4678520">
    <ele>624.8</ele>
    <time>2026-08-23T17:12:56Z</time>
   </trkpt>
   <trkpt lat="53.5485640" lon="-113.4679030">
    <ele>624.7</ele>
    <time>2026-08-23T17:12:57Z</time>
   </trkpt>
   <trkpt lat="53.5485520" lon="-113.4679650">
    <ele>624.5</ele>
    <time>2026-08-23T17:12:58Z</time>
   </trkpt>
   <trkpt lat="53.5485300" lon="-113.4680330">
    <ele>624.4</ele>
    <time>2026-08-23T17:12:59Z</time>
   </trkpt>
   <trkpt lat="53.5485100" lon="-113.4681000">
    <ele>624.2</ele>
    <time>2026-08-23T17:13:00Z</time>
   </trkpt>
   <trkpt lat="53.5484940" lon="-113.4681690">
    <ele>624.0</ele>
    <time>2026-08-23T17:13:01Z</time>
   </trkpt>
   <trkpt lat="53.5484750" lon="-113.4682380">
    <ele>623.9</ele>
    <time>2026-08-23T17:13:02Z</time>
   </trkpt>
   <trkpt lat="53.5484730" lon="-113.4682990">
    <ele>623.7</ele>
    <time>2026-08-23T17:13:03Z</time>
   </trkpt>
   <trkpt lat="53.5484670" lon="-113.4683580">
    <ele>623.6</ele>
    <time>2026-08-23T17:13:04Z</time>
   </trkpt>
   <trkpt lat="53.5484400" lon="-113.4684300">
    <ele>623.4</ele>
    <time>2026-08-23T17:13:05Z</time>
   </trkpt>
   <trkpt lat="53.5484240" lon="-113.4685030">
    <ele>623.3</ele>
    <time>2026-08-23T17:13:07Z</time>
   </trkpt>
   <trkpt lat="53.5484050" lon="-113.4685740">
    <ele>623.1</ele>
    <time>2026-08-23T17:13:08Z</time>
   </trkpt>
   <trkpt lat="53.5483920" lon="-113.4686470">
    <ele>623.0</ele>
    <time>2026-08-23T17:13:09Z</time>
   </trkpt>
   <trkpt lat="53.5483740" lon="-113.4687360">
    <ele>622.8</ele>
    <time>2026-08-23T17:13:10Z</time>
   </trkpt>
   <trkpt lat="53.5483350" lon="-113.4688010">
    <ele>622.6</ele>
    <time>2026-08-23T17:13:11Z</time>
   </trkpt>
   <trkpt lat="53.5483130" lon="-113.4688780">
    <ele>622.5</ele>
    <time>2026-08-23T17:13:12Z</time>
   </trkpt>
   <trkpt lat="53.5483110" lon="-113.4689650">
    <ele>622.4</ele>
    <time>2026-08-23T17:13:13Z</time>
   </trkpt>
   <trkpt lat="53.5482970" lon="-113.4690500">
    <ele>622.3</ele>
    <time>2026-08-23T17:13:14Z</time>
   </trkpt>
   <trkpt lat="53.5482800" lon="-113.4691210">
    <ele>622.2</ele>
    <time>2026-08-23T17:13:15Z</time>
   </trkpt>
   <trkpt lat="53.5482680" lon="-113.4691850">
    <ele>622.2</ele>
    <time>2026-08-23T17:13:16Z</time>
   </trkpt>
   <trkpt lat="53.5482490" lon="-113.4692440">
    <ele>622.1</ele>
    <time>2026-08-23T17:13:17Z</time>
   </trkpt>
   <trkpt lat="53.5482330" lon="-113.4692960">
    <ele>622.0</ele>
    <time>2026-08-23T17:13:18Z</time>
   </trkpt>
   <trkpt lat="53.5482180" lon="-113.4693390">
    <ele>622.0</ele>
    <time>2026-08-23T17:13:19Z</time>
   </trkpt>
   <trkpt lat="53.5482050" lon="-113.4693850">
    <ele>621.9</ele>
    <time>2026-08-23T17:13:20Z</time>
   </trkpt>
   <trkpt lat="53.5481660" lon="-113.4694020">
    <ele>621.8</ele>
    <time>2026-08-23T17:13:21Z</time>
   </trkpt>
   <trkpt lat="53.5481350" lon="-113.4693950">
    <ele>621.7</ele>
    <time>2026-08-23T17:13:22Z</time>
   </trkpt>
   <trkpt lat="53.5481130" lon="-113.4693800">
    <ele>621.7</ele>
    <time>2026-08-23T17:13:23Z</time>
   </trkpt>
   <trkpt lat="53.5480850" lon="-113.4693700">
    <ele>621.6</ele>
    <time>2026-08-23T17:13:24Z</time>
   </trkpt>
   <trkpt lat="53.5480730" lon="-113.4693560">
    <ele>621.5</ele>
    <time>2026-08-23T17:13:25Z</time>
   </trkpt>
   <trkpt lat="53.5480550" lon="-113.4693440">
    <ele>621.4</ele>
    <time>2026-08-23T17:13:26Z</time>
   </trkpt>
   <trkpt lat="53.5480410" lon="-113.4693460">
    <ele>621.4</ele>
    <time>2026-08-23T17:13:27Z</time>
   </trkpt>
   <trkpt lat="53.5480270" lon="-113.4693460">
    <ele>621.3</ele>
    <time>2026-08-23T17:13:28Z</time>
   </trkpt>
   <trkpt lat="53.5480100" lon="-113.4693370">
    <ele>621.3</ele>
    <time>2026-08-23T17:13:29Z</time>
   </trkpt>
   <trkpt lat="53.5480060" lon="-113.4693270">
    <ele>621.3</ele>
    <time>2026-08-23T17:13:30Z</time>
   </trkpt>
   <trkpt lat="53.5480140" lon="-113.4693000">
    <ele>621.2</ele>
    <time>2026-08-23T17:13:31Z</time>
   </trkpt>
   <trkpt lat="53.5480270" lon="-113.4692750">
    <ele>621.1</ele>
    <time>2026-08-23T17:13:32Z</time>
   </trkpt>
   <trkpt lat="53.5480330" lon="-113.4692830">
    <ele>621.1</ele>
    <time>2026-08-23T17:13:33Z</time>
   </trkpt>
   <trkpt lat="53.5480340" lon="-113.4693030">
    <ele>621.1</ele>
    <time>2026-08-23T17:13:34Z</time>
   </trkpt>
   <trkpt lat="53.5480360" lon="-113.4693140">
    <ele>621.0</ele>
    <time>2026-08-23T17:13:35Z</time>
   </trkpt>
   <trkpt lat="53.5480360" lon="-113.4693330">
    <ele>621.0</ele>
    <time>2026-08-23T17:13:36Z</time>
   </trkpt>
   <trkpt lat="53.5480310" lon="-113.4693390">
    <ele>621.0</ele>
    <time>2026-08-23T17:13:37Z</time>
   </trkpt>
   <trkpt lat="53.5480080" lon="-113.4693310">
    <ele>620.9</ele>
    <time>2026-08-23T17:13:38Z</time>
   </trkpt>
   <trkpt lat="53.5479970" lon="-113.4693330">
    <ele>620.9</ele>
    <time>2026-08-23T17:13:39Z</time>
   </trkpt>
   <trkpt lat="53.5479840" lon="-113.4693050">
    <ele>620.8</ele>
    <time>2026-08-23T17:13:40Z</time>
   </trkpt>
   <trkpt lat="53.5479750" lon="-113.4692900">
    <ele>620.8</ele>
    <time>2026-08-23T17:13:41Z</time>
   </trkpt>
   <trkpt lat="53.5479570" lon="-113.4692890">
    <ele>620.8</ele>
    <time>2026-08-23T17:13:42Z</time>
   </trkpt>
   <trkpt lat="53.5479430" lon="-113.4692910">
    <ele>620.7</ele>
    <time>2026-08-23T17:13:43Z</time>
   </trkpt>
   <trkpt lat="53.5479300" lon="-113.4692860">
    <ele>620.7</ele>
    <time>2026-08-23T17:13:44Z</time>
   </trkpt>
   <trkpt lat="53.5479090" lon="-113.4692780">
    <ele>620.6</ele>
    <time>2026-08-23T17:13:45Z</time>
   </trkpt>
   <trkpt lat="53.5478880" lon="-113.4692940">
    <ele>620.6</ele>
    <time>2026-08-23T17:13:46Z</time>
   </trkpt>
   <trkpt lat="53.5478670" lon="-113.4692710">
    <ele>620.5</ele>
    <time>2026-08-23T17:13:47Z</time>
   </trkpt>
   <trkpt lat="53.5478490" lon="-113.4692480">
    <ele>620.5</ele>
    <time>2026-08-23T17:13:48Z</time>
   </trkpt>
   <trkpt lat="53.5478300" lon="-113.4692170">
    <ele>620.4</ele>
    <time>2026-08-23T17:13:49Z</time>
   </trkpt>
   <trkpt lat="53.5478060" lon="-113.4692040">
    <ele>620.4</ele>
    <time>2026-08-23T17:13:50Z</time>
   </trkpt>
   <trkpt lat="53.5477890" lon="-113.4691830">
    <ele>620.3</ele>
    <time>2026-08-23T17:13:51Z</time>
   </trkpt>
   <trkpt lat="53.5477660" lon="-113.4691650">
    <ele>620.3</ele>
    <time>2026-08-23T17:13:52Z</time>
   </trkpt>
   <trkpt lat="53.5477450" lon="-113.4691530">
    <ele>620.3</ele>
    <time>2026-08-23T17:13:53Z</time>
   </trkpt>
   <trkpt lat="53.5477130" lon="-113.4691320">
    <ele>620.2</ele>
    <time>2026-08-23T17:13:54Z</time>
   </trkpt>
   <trkpt lat="53.5476830" lon="-113.4691140">
    <ele>620.2</ele>
    <time>2026-08-23T17:13:55Z</time>
   </trkpt>
   <trkpt lat="53.5476470" lon="-113.4691010">
    <ele>620.2</ele>
    <time>2026-08-23T17:13:56Z</time>
   </trkpt>
   <trkpt lat="53.5476180" lon="-113.4690820">
    <ele>620.1</ele>
    <time>2026-08-23T17:13:57Z</time>
   </trkpt>
   <trkpt lat="53.5475900" lon="-113.4690600">
    <ele>620.1</ele>
    <time>2026-08-23T17:13:58Z</time>
   </trkpt>
   <trkpt lat="53.5475710" lon="-113.4690490">
    <ele>620.1</ele>
    <time>2026-08-23T17:13:59Z</time>
   </trkpt>
   <trkpt lat="53.5475520" lon="-113.4690290">
    <ele>620.1</ele>
    <time>2026-08-23T17:14:00Z</time>
   </trkpt>
   <trkpt lat="53.5475270" lon="-113.4690270">
    <ele>620.1</ele>
    <time>2026-08-23T17:14:01Z</time>
   </trkpt>
   <trkpt lat="53.5475030" lon="-113.4690020">
    <ele>620.0</ele>
    <time>2026-08-23T17:14:02Z</time>
   </trkpt>
   <trkpt lat="53.5474760" lon="-113.4689970">
    <ele>620.0</ele>
    <time>2026-08-23T17:14:03Z</time>
   </trkpt>
   <trkpt lat="53.5474510" lon="-113.4689830">
    <ele>620.0</ele>
    <time>2026-08-23T17:14:04Z</time>
   </trkpt>
   <trkpt lat="53.5474320" lon="-113.4689590">
    <ele>620.0</ele>
    <time>2026-08-23T17:14:05Z</time>
   </trkpt>
   <trkpt lat="53.5474100" lon="-113.4689650">
    <ele>620.0</ele>
    <time>2026-08-23T17:14:06Z</time>
   </trkpt>
   <trkpt lat="53.5473850" lon="-113.4689740">
    <ele>620.0</ele>
    <time>2026-08-23T17:14:07Z</time>
   </trkpt>
   <trkpt lat="53.5473630" lon="-113.4689830">
    <ele>620.0</ele>
    <time>2026-08-23T17:14:08Z</time>
   </trkpt>
   <trkpt lat="53.5473390" lon="-113.4689810">
    <ele>620.0</ele>
    <time>2026-08-23T17:14:09Z</time>
   </trkpt>
   <trkpt lat="53.5473200" lon="-113.4689620">
    <ele>620.0</ele>
    <time>2026-08-23T17:14:10Z</time>
   </trkpt>
   <trkpt lat="53.5473060" lon="-113.4689440">
    <ele>620.0</ele>
    <time>2026-08-23T17:14:11Z</time>
   </trkpt>
   <trkpt lat="53.5472850" lon="-113.4689260">
    <ele>620.0</ele>
    <time>2026-08-23T17:14:12Z</time>
   </trkpt>
   <trkpt lat="53.5472620" lon="-113.4689120">
    <ele>620.0</ele>
    <time>2026-08-23T17:14:13Z</time>
   </trkpt>
   <trkpt lat="53.5472490" lon="-113.4689040">
    <ele>620.0</ele>
    <time>2026-08-23T17:14:14Z</time>
   </trkpt>
   <trkpt lat="53.5472330" lon="-113.4688920">
    <ele>620.0</ele>
    <time>2026-08-23T17:14:15Z</time>
   </trkpt>
   <trkpt lat="53.5472150" lon="-113.4688750">
    <ele>620.0</ele>
    <time>2026-08-23T17:14:16Z</time>
   </trkpt>
   <trkpt lat="53.5471940" lon="-113.4689000">
    <ele>620.0</ele>
    <time>2026-08-23T17:14:17Z</time>
   </trkpt>
   <trkpt lat="53.5471800" lon="-113.4688660">
    <ele>620.0</ele>
    <time>2026-08-23T17:14:18Z</time>
   </trkpt>
   <trkpt lat="53.5471600" lon="-113.4688380">
    <ele>620.0</ele>
    <time>2026-08-23T17:14:19Z</time>
   </trkpt>
   <trkpt lat="53.5471440" lon="-113.4688290">
    <ele>620.0</ele>
    <time>2026-08-23T17:14:20Z</time>
   </trkpt>
   <trkpt lat="53.5471260" lon="-113.4688170">
    <ele>620.0</ele>
    <time>2026-08-23T17:14:21Z</time>
   </trkpt>
   <trkpt lat="53.5471140" lon="-113.4688000">
    <ele>620.0</ele>
    <time>2026-08-23T17:14:22Z</time>
   </trkpt>
   <trkpt lat="53.5471000" lon="-113.4687800">
    <ele>620.0</ele>
    <time>2026-08-23T17:14:23Z</time>
   </trkpt>
   <trkpt lat="53.5470890" lon="-113.4687730">
    <ele>620.0</ele>
    <time>2026-08-23T17:14:24Z</time>
   </trkpt>
   <trkpt lat="53.5470780" lon="-113.4687810">
    <ele>620.0</ele>
    <time>2026-08-23T17:14:25Z</time>
   </trkpt>
   <trkpt lat="53.5470610" lon="-113.4687730">
    <ele>620.0</ele>
    <time>2026-08-23T17:14:26Z</time>
   </trkpt>
   <trkpt lat="53.5470460" lon="-113.4687730">
    <ele>620.0</ele>
    <time>2026-08-23T17:14:27Z</time>
   </trkpt>
   <trkpt lat="53.5470230" lon="-113.4687850">
    <ele>620.0</ele>
    <time>2026-08-23T17:14:28Z</time>
   </trkpt>
   <trkpt lat="53.5470100" lon="-113.4687580">
    <ele>620.1</ele>
    <time>2026-08-23T17:14:29Z</time>
   </trkpt>
   <trkpt lat="53.5469910" lon="-113.4687400">
    <ele>620.1</ele>
    <time>2026-08-23T17:14:30Z</time>
   </trkpt>
   <trkpt lat="53.5469690" lon="-113.4687200">
    <ele>620.1</ele>
    <time>2026-08-23T17:14:31Z</time>
   </trkpt>
   <trkpt lat="53.5469560" lon="-113.4687070">
    <ele>620.1</ele>
    <time>2026-08-23T17:14:32Z</time>
   </trkpt>
   <trkpt lat="53.5469420" lon="-113.4686940">
    <ele>620.1</ele>
    <time>2026-08-23T17:14:33Z</time>
   </trkpt>
   <trkpt lat="53.5469180" lon="-113.4686680">
    <ele>620.1</ele>
    <time>2026-08-23T17:14:34Z</time>
   </trkpt>
   <trkpt lat="53.5468960" lon="-113.4686520">
    <ele>620.1</ele>
    <time>2026-08-23T17:14:35Z</time>
   </trkpt>
   <trkpt lat="53.5468760" lon="-113.4686230">
    <ele>620.1</ele>
    <time>2026-08-23T17:14:36Z</time>
   </trkpt>
   <trkpt lat="53.5468550" lon="-113.4686020">
    <ele>620.1</ele>
    <time>2026-08-23T17:14:37Z</time>
   </trkpt>
   <trkpt lat="53.5468350" lon="-113.4685990">
    <ele>620.1</ele>
    <time>2026-08-23T17:14:38Z</time>
   </trkpt>
   <trkpt lat="53.5468090" lon="-113.4685850">
    <ele>620.1</ele>
    <time>2026-08-23T17:14:39Z</time>
   </trkpt>
   <trkpt lat="53.5467840" lon="-113.4685660">
    <ele>620.1</ele>
    <time>2026-08-23T17:14:40Z</time>
   </trkpt>
   <trkpt lat="53.5467460" lon="-113.4685350">
    <ele>620.2</ele>
    <time>2026-08-23T17:14:41Z</time>
   </trkpt>
   <trkpt lat="53.5467200" lon="-113.4685190">
    <ele>620.2</ele>
    <time>2026-08-23T17:14:42Z</time>
   </trkpt>
   <trkpt lat="53.5466940" lon="-113.4685060">
    <ele>620.2</ele>
    <time>2026-08-23T17:14:43Z</time>
   </trkpt>
   <trkpt lat="53.5466700" lon="-113.4684920">
    <ele>620.2</ele>
    <time>2026-08-23T17:14:44Z</time>
   </trkpt>
   <trkpt lat="53.5466480" lon="-113.4684830">
    <ele>620.1</ele>
    <time>2026-08-23T17:14:45Z</time>
   </trkpt>
   <trkpt lat="53.5466210" lon="-113.4684560">
    <ele>620.1</ele>
    <time>2026-08-23T17:14:46Z</time>
   </trkpt>
   <trkpt lat="53.5465960" lon="-113.4684310">
    <ele>620.1</ele>
    <time>2026-08-23T17:14:47Z</time>
   </trkpt>
   <trkpt lat="53.5465760" lon="-113.4684150">
    <ele>620.1</ele>
    <time>2026-08-23T17:14:48Z</time>
   </trkpt>
   <trkpt lat="53.5465520" lon="-113.4683970">
    <ele>620.1</ele>
    <time>2026-08-23T17:14:49Z</time>
   </trkpt>
   <trkpt lat="53.5465310" lon="-113.4683800">
    <ele>620.1</ele>
    <time>2026-08-23T17:14:50Z</time>
   </trkpt>
   <trkpt lat="53.5465070" lon="-113.4683560">
    <ele>620.1</ele>
    <time>2026-08-23T17:14:51Z</time>
   </trkpt>
   <trkpt lat="53.5464790" lon="-113.4683380">
    <ele>620.1</ele>
    <time>2026-08-23T17:14:52Z</time>
   </trkpt>
   <trkpt lat="53.5464510" lon="-113.4683390">
    <ele>620.1</ele>
    <time>2026-08-23T17:14:53Z</time>
   </trkpt>
   <trkpt lat="53.5464300" lon="-113.4683230">
    <ele>620.1</ele>
    <time>2026-08-23T17:14:54Z</time>
   </trkpt>
   <trkpt lat="53.5464010" lon="-113.4682960">
    <ele>620.1</ele>
    <time>2026-08-23T17:14:55Z</time>
   </trkpt>
   <trkpt lat="53.5463760" lon="-113.4682750">
    <ele>620.1</ele>
    <time>2026-08-23T17:14:56Z</time>
   </trkpt>
   <trkpt lat="53.5463630" lon="-113.4682670">
    <ele>620.1</ele>
    <time>2026-08-23T17:14:57Z</time>
   </trkpt>
   <trkpt lat="53.5463350" lon="-113.4682650">
    <ele>620.1</ele>
    <time>2026-08-23T17:14:58Z</time>
   </trkpt>
   <trkpt lat="53.5463050" lon="-113.4682460">
    <ele>620.2</ele>
    <time>2026-08-23T17:14:59Z</time>
   </trkpt>
   <trkpt lat="53.5462780" lon="-113.4682340">
    <ele>620.2</ele>
    <time>2026-08-23T17:15:00Z</time>
   </trkpt>
   <trkpt lat="53.5462520" lon="-113.4682210">
    <ele>620.2</ele>
    <time>2026-08-23T17:15:01Z</time>
   </trkpt>
   <trkpt lat="53.5462300" lon="-113.4682170">
    <ele>620.2</ele>
    <time>2026-08-23T17:15:02Z</time>
   </trkpt>
   <trkpt lat="53.5462080" lon="-113.4681930">
    <ele>620.2</ele>
    <time>2026-08-23T17:15:03Z</time>
   </trkpt>
   <trkpt lat="53.5461860" lon="-113.4681650">
    <ele>620.2</ele>
    <time>2026-08-23T17:15:04Z</time>
   </trkpt>
   <trkpt lat="53.5461660" lon="-113.4681650">
    <ele>620.3</ele>
    <time>2026-08-23T17:15:05Z</time>
   </trkpt>
   <trkpt lat="53.5461350" lon="-113.4681500">
    <ele>620.3</ele>
    <time>2026-08-23T17:15:06Z</time>
   </trkpt>
   <trkpt lat="53.5461040" lon="-113.4681380">
    <ele>620.3</ele>
    <time>2026-08-23T17:15:07Z</time>
   </trkpt>
   <trkpt lat="53.5460750" lon="-113.4681100">
    <ele>620.3</ele>
    <time>2026-08-23T17:15:08Z</time>
   </trkpt>
   <trkpt lat="53.5460450" lon="-113.4680880">
    <ele>620.3</ele>
    <time>2026-08-23T17:15:09Z</time>
   </trkpt>
   <trkpt lat="53.5460190" lon="-113.4680580">
    <ele>620.3</ele>
    <time>2026-08-23T17:15:10Z</time>
   </trkpt>
   <trkpt lat="53.5459820" lon="-113.4680610">
    <ele>620.4</ele>
    <time>2026-08-23T17:15:11Z</time>
   </trkpt>
   <trkpt lat="53.5459600" lon="-113.4680430">
    <ele>620.4</ele>
    <time>2026-08-23T17:15:12Z</time>
   </trkpt>
   <trkpt lat="53.5459160" lon="-113.4680420">
    <ele>620.4</ele>
    <time>2026-08-23T17:15:13Z</time>
   </trkpt>
   <trkpt lat="53.5458920" lon="-113.4680080">
    <ele>620.4</ele>
    <time>2026-08-23T17:15:14Z</time>
   </trkpt>
   <trkpt lat="53.5458710" lon="-113.4679780">
    <ele>620.4</ele>
    <time>2026-08-23T17:15:15Z</time>
   </trkpt>
   <trkpt lat="53.5458440" lon="-113.4679530">
    <ele>620.4</ele>
    <time>2026-08-23T17:15:16Z</time>
   </trkpt>
   <trkpt lat="53.5458330" lon="-113.4679410">
    <ele>620.4</ele>
    <time>2026-08-23T17:15:17Z</time>
   </trkpt>
   <trkpt lat="53.5458140" lon="-113.4679350">
    <ele>620.5</ele>
    <time>2026-08-23T17:15:18Z</time>
   </trkpt>
   <trkpt lat="53.5457910" lon="-113.4679280">
    <ele>620.5</ele>
    <time>2026-08-23T17:15:19Z</time>
   </trkpt>
   <trkpt lat="53.5457680" lon="-113.4679320">
    <ele>620.5</ele>
    <time>2026-08-23T17:15:20Z</time>
   </trkpt>
   <trkpt lat="53.5457450" lon="-113.4679120">
    <ele>620.5</ele>
    <time>2026-08-23T17:15:22Z</time>
   </trkpt>
   <trkpt lat="53.5457220" lon="-113.4679050">
    <ele>620.5</ele>
    <time>2026-08-23T17:15:23Z</time>
   </trkpt>
   <trkpt lat="53.5457020" lon="-113.4678780">
    <ele>620.5</ele>
    <time>2026-08-23T17:15:24Z</time>
   </trkpt>
   <trkpt lat="53.5456840" lon="-113.4678590">
    <ele>620.5</ele>
    <time>2026-08-23T17:15:25Z</time>
   </trkpt>
   <trkpt lat="53.5456580" lon="-113.4678700">
    <ele>620.6</ele>
    <time>2026-08-23T17:15:26Z</time>
   </trkpt>
   <trkpt lat="53.5456370" lon="-113.4678740">
    <ele>620.6</ele>
    <time>2026-08-23T17:15:27Z</time>
   </trkpt>
   <trkpt lat="53.5456020" lon="-113.4678420">
    <ele>620.6</ele>
    <time>2026-08-23T17:15:28Z</time>
   </trkpt>
   <trkpt lat="53.5455870" lon="-113.4678420">
    <ele>620.6</ele>
    <time>2026-08-23T17:15:29Z</time>
   </trkpt>
   <trkpt lat="53.5455580" lon="-113.4678220">
    <ele>620.7</ele>
    <time>2026-08-23T17:15:30Z</time>
   </trkpt>
   <trkpt lat="53.5455370" lon="-113.4677920">
    <ele>620.7</ele>
    <time>2026-08-23T17:15:31Z</time>
   </trkpt>
   <trkpt lat="53.5454990" lon="-113.4677660">
    <ele>620.7</ele>
    <time>2026-08-23T17:15:32Z</time>
   </trkpt>
   <trkpt lat="53.5454660" lon="-113.4677340">
    <ele>620.8</ele>
    <time>2026-08-23T17:15:33Z</time>
   </trkpt>
   <trkpt lat="53.5454360" lon="-113.4677140">
    <ele>620.8</ele>
    <time>2026-08-23T17:15:34Z</time>
   </trkpt>
   <trkpt lat="53.5454110" lon="-113.4676760">
    <ele>620.9</ele>
    <time>2026-08-23T17:15:35Z</time>
   </trkpt>
   <trkpt lat="53.5453840" lon="-113.4676720">
    <ele>620.9</ele>
    <time>2026-08-23T17:15:36Z</time>
   </trkpt>
   <trkpt lat="53.5453650" lon="-113.4676630">
    <ele>621.0</ele>
    <time>2026-08-23T17:15:37Z</time>
   </trkpt>
   <trkpt lat="53.5453450" lon="-113.4676540">
    <ele>621.0</ele>
    <time>2026-08-23T17:15:38Z</time>
   </trkpt>
   <trkpt lat="53.5453230" lon="-113.4676360">
    <ele>620.9</ele>
    <time>2026-08-23T17:15:39Z</time>
   </trkpt>
   <trkpt lat="53.5452990" lon="-113.4676090">
    <ele>621.0</ele>
    <time>2026-08-23T17:15:40Z</time>
   </trkpt>
   <trkpt lat="53.5452770" lon="-113.4675800">
    <ele>621.0</ele>
    <time>2026-08-23T17:15:41Z</time>
   </trkpt>
   <trkpt lat="53.5452520" lon="-113.4675640">
    <ele>621.0</ele>
    <time>2026-08-23T17:15:42Z</time>
   </trkpt>
   <trkpt lat="53.5452200" lon="-113.4675440">
    <ele>620.9</ele>
    <time>2026-08-23T17:15:43Z</time>
   </trkpt>
   <trkpt lat="53.5451900" lon="-113.4675420">
    <ele>620.9</ele>
    <time>2026-08-23T17:15:44Z</time>
   </trkpt>
   <trkpt lat="53.5451650" lon="-113.4675150">
    <ele>620.9</ele>
    <time>2026-08-23T17:15:45Z</time>
   </trkpt>
   <trkpt lat="53.5451440" lon="-113.4675100">
    <ele>620.9</ele>
    <time>2026-08-23T17:15:46Z</time>
   </trkpt>
   <trkpt lat="53.5451170" lon="-113.4674930">
    <ele>620.9</ele>
    <time>2026-08-23T17:15:47Z</time>
   </trkpt>
   <trkpt lat="53.5450910" lon="-113.4674730">
    <ele>620.8</ele>
    <time>2026-08-23T17:15:48Z</time>
   </trkpt>
   <trkpt lat="53.5450770" lon="-113.4674820">
    <ele>620.8</ele>
    <time>2026-08-23T17:15:49Z</time>
   </trkpt>
   <trkpt lat="53.5450600" lon="-113.4674570">
    <ele>620.8</ele>
    <time>2026-08-23T17:15:50Z</time>
   </trkpt>
   <trkpt lat="53.5450400" lon="-113.4674450">
    <ele>620.8</ele>
    <time>2026-08-23T17:15:51Z</time>
   </trkpt>
   <trkpt lat="53.5450210" lon="-113.4674390">
    <ele>620.8</ele>
    <time>2026-08-23T17:15:52Z</time>
   </trkpt>
   <trkpt lat="53.5450020" lon="-113.4674280">
    <ele>620.8</ele>
    <time>2026-08-23T17:15:53Z</time>
   </trkpt>
   <trkpt lat="53.5449810" lon="-113.4674100">
    <ele>620.7</ele>
    <time>2026-08-23T17:15:54Z</time>
   </trkpt>
   <trkpt lat="53.5449610" lon="-113.4673860">
    <ele>620.7</ele>
    <time>2026-08-23T17:15:55Z</time>
   </trkpt>
   <trkpt lat="53.5449390" lon="-113.4673730">
    <ele>620.7</ele>
    <time>2026-08-23T17:15:56Z</time>
   </trkpt>
   <trkpt lat="53.5449110" lon="-113.4673740">
    <ele>620.7</ele>
    <time>2026-08-23T17:15:57Z</time>
   </trkpt>
   <trkpt lat="53.5448880" lon="-113.4673660">
    <ele>620.7</ele>
    <time>2026-08-23T17:15:58Z</time>
   </trkpt>
   <trkpt lat="53.5448640" lon="-113.4673570">
    <ele>620.7</ele>
    <time>2026-08-23T17:15:59Z</time>
   </trkpt>
   <trkpt lat="53.5448430" lon="-113.4673470">
    <ele>620.7</ele>
    <time>2026-08-23T17:16:00Z</time>
   </trkpt>
   <trkpt lat="53.5448130" lon="-113.4673230">
    <ele>620.7</ele>
    <time>2026-08-23T17:16:01Z</time>
   </trkpt>
   <trkpt lat="53.5447820" lon="-113.4672940">
    <ele>620.6</ele>
    <time>2026-08-23T17:16:02Z</time>
   </trkpt>
   <trkpt lat="53.5447400" lon="-113.4672730">
    <ele>620.6</ele>
    <time>2026-08-23T17:16:03Z</time>
   </trkpt>
   <trkpt lat="53.5447110" lon="-113.4672500">
    <ele>620.6</ele>
    <time>2026-08-23T17:16:04Z</time>
   </trkpt>
   <trkpt lat="53.5446740" lon="-113.4672190">
    <ele>620.6</ele>
    <time>2026-08-23T17:16:05Z</time>
   </trkpt>
   <trkpt lat="53.5446450" lon="-113.4671920">
    <ele>620.6</ele>
    <time>2026-08-23T17:16:06Z</time>
   </trkpt>
   <trkpt lat="53.5446180" lon="-113.4671810">
    <ele>620.6</ele>
    <time>2026-08-23T17:16:07Z</time>
   </trkpt>
   <trkpt lat="53.5445920" lon="-113.4671810">
    <ele>620.6</ele>
    <time>2026-08-23T17:16:08Z</time>
   </trkpt>
   <trkpt lat="53.5445580" lon="-113.4671540">
    <ele>620.6</ele>
    <time>2026-08-23T17:16:09Z</time>
   </trkpt>
   <trkpt lat="53.5445240" lon="-113.4671340">
    <ele>620.6</ele>
    <time>2026-08-23T17:16:10Z</time>
   </trkpt>
   <trkpt lat="53.5444980" lon="-113.4671230">
    <ele>620.6</ele>
    <time>2026-08-23T17:16:11Z</time>
   </trkpt>
   <trkpt lat="53.5444680" lon="-113.4671000">
    <ele>620.6</ele>
    <time>2026-08-23T17:16:12Z</time>
   </trkpt>
   <trkpt lat="53.5444370" lon="-113.4670720">
    <ele>620.6</ele>
    <time>2026-08-23T17:16:13Z</time>
   </trkpt>
   <trkpt lat="53.5443980" lon="-113.4670550">
    <ele>620.6</ele>
    <time>2026-08-23T17:16:14Z</time>
   </trkpt>
   <trkpt lat="53.5443810" lon="-113.4670360">
    <ele>620.6</ele>
    <time>2026-08-23T17:16:15Z</time>
   </trkpt>
   <trkpt lat="53.5443340" lon="-113.4670060">
    <ele>620.6</ele>
    <time>2026-08-23T17:16:16Z</time>
   </trkpt>
   <trkpt lat="53.5443030" lon="-113.4669940">
    <ele>620.6</ele>
    <time>2026-08-23T17:16:17Z</time>
   </trkpt>
   <trkpt lat="53.5442770" lon="-113.4669680">
    <ele>620.6</ele>
    <time>2026-08-23T17:16:18Z</time>
   </trkpt>
   <trkpt lat="53.5442550" lon="-113.4669450">
    <ele>620.6</ele>
    <time>2026-08-23T17:16:19Z</time>
   </trkpt>
   <trkpt lat="53.5442250" lon="-113.4669330">
    <ele>620.7</ele>
    <time>2026-08-23T17:16:20Z</time>
   </trkpt>
   <trkpt lat="53.5441920" lon="-113.4669100">
    <ele>620.7</ele>
    <time>2026-08-23T17:16:21Z</time>
   </trkpt>
   <trkpt lat="53.5441730" lon="-113.4668860">
    <ele>620.7</ele>
    <time>2026-08-23T17:16:22Z</time>
   </trkpt>
   <trkpt lat="53.5441380" lon="-113.4668560">
    <ele>620.7</ele>
    <time>2026-08-23T17:16:23Z</time>
   </trkpt>
   <trkpt lat="53.5441090" lon="-113.4668430">
    <ele>620.7</ele>
    <time>2026-08-23T17:16:24Z</time>
   </trkpt>
   <trkpt lat="53.5440820" lon="-113.4668360">
    <ele>620.8</ele>
    <time>2026-08-23T17:16:25Z</time>
   </trkpt>
   <trkpt lat="53.5440630" lon="-113.4668150">
    <ele>620.8</ele>
    <time>2026-08-23T17:16:26Z</time>
   </trkpt>
   <trkpt lat="53.5440500" lon="-113.4668110">
    <ele>620.8</ele>
    <time>2026-08-23T17:16:27Z</time>
   </trkpt>
   <trkpt lat="53.5440310" lon="-113.4668080">
    <ele>620.8</ele>
    <time>2026-08-23T17:16:28Z</time>
   </trkpt>
   <trkpt lat="53.5440090" lon="-113.4668050">
    <ele>620.9</ele>
    <time>2026-08-23T17:16:29Z</time>
   </trkpt>
   <trkpt lat="53.5439920" lon="-113.4667720">
    <ele>620.9</ele>
    <time>2026-08-23T17:16:30Z</time>
   </trkpt>
   <trkpt lat="53.5439720" lon="-113.4667700">
    <ele>620.9</ele>
    <time>2026-08-23T17:16:31Z</time>
   </trkpt>
   <trkpt lat="53.5439510" lon="-113.4667620">
    <ele>620.9</ele>
    <time>2026-08-23T17:16:32Z</time>
   </trkpt>
   <trkpt lat="53.5439330" lon="-113.4667380">
    <ele>621.0</ele>
    <time>2026-08-23T17:16:33Z</time>
   </trkpt>
   <trkpt lat="53.5439100" lon="-113.4667310">
    <ele>621.0</ele>
    <time>2026-08-23T17:16:34Z</time>
   </trkpt>
   <trkpt lat="53.5438800" lon="-113.4667420">
    <ele>621.1</ele>
    <time>2026-08-23T17:16:35Z</time>
   </trkpt>
   <trkpt lat="53.5438600" lon="-113.4667380">
    <ele>621.1</ele>
    <time>2026-08-23T17:16:36Z</time>
   </trkpt>
   <trkpt lat="53.5438380" lon="-113.4667340">
    <ele>621.1</ele>
    <time>2026-08-23T17:16:37Z</time>
   </trkpt>
   <trkpt lat="53.5438100" lon="-113.4667340">
    <ele>621.2</ele>
    <time>2026-08-23T17:16:38Z</time>
   </trkpt>
   <trkpt lat="53.5437860" lon="-113.4667480">
    <ele>621.3</ele>
    <time>2026-08-23T17:16:39Z</time>
   </trkpt>
   <trkpt lat="53.5437730" lon="-113.4667820">
    <ele>621.5</ele>
    <time>2026-08-23T17:16:40Z</time>
   </trkpt>
   <trkpt lat="53.5437760" lon="-113.4668490">
    <ele>621.5</ele>
    <time>2026-08-23T17:16:41Z</time>
   </trkpt>
   <trkpt lat="53.5437720" lon="-113.4668830">
    <ele>621.6</ele>
    <time>2026-08-23T17:16:42Z</time>
   </trkpt>
   <trkpt lat="53.5437670" lon="-113.4669210">
    <ele>621.6</ele>
    <time>2026-08-23T17:16:43Z</time>
   </trkpt>
   <trkpt lat="53.5437670" lon="-113.4669700">
    <ele>621.6</ele>
    <time>2026-08-23T17:16:44Z</time>
   </trkpt>
   <trkpt lat="53.5437620" lon="-113.4670170">
    <ele>621.6</ele>
    <time>2026-08-23T17:16:45Z</time>
   </trkpt>
   <trkpt lat="53.5437530" lon="-113.4670540">
    <ele>621.6</ele>
    <time>2026-08-23T17:16:46Z</time>
   </trkpt>
   <trkpt lat="53.5437570" lon="-113.4671050">
    <ele>621.7</ele>
    <time>2026-08-23T17:16:47Z</time>
   </trkpt>
   <trkpt lat="53.5437490" lon="-113.4671470">
    <ele>621.7</ele>
    <time>2026-08-23T17:16:48Z</time>
   </trkpt>
   <trkpt lat="53.5437330" lon="-113.4671900">
    <ele>621.7</ele>
    <time>2026-08-23T17:16:49Z</time>
   </trkpt>
   <trkpt lat="53.5437400" lon="-113.4672290">
    <ele>621.7</ele>
    <time>2026-08-23T17:16:50Z</time>
   </trkpt>
   <trkpt lat="53.5437370" lon="-113.4672710">
    <ele>621.7</ele>
    <time>2026-08-23T17:16:51Z</time>
   </trkpt>
   <trkpt lat="53.5437370" lon="-113.4673110">
    <ele>621.8</ele>
    <time>2026-08-23T17:16:52Z</time>
   </trkpt>
   <trkpt lat="53.5437350" lon="-113.4673620">
    <ele>621.8</ele>
    <time>2026-08-23T17:16:53Z</time>
   </trkpt>
   <trkpt lat="53.5437400" lon="-113.4674020">
    <ele>621.8</ele>
    <time>2026-08-23T17:16:54Z</time>
   </trkpt>
   <trkpt lat="53.5437510" lon="-113.4674530">
    <ele>621.8</ele>
    <time>2026-08-23T17:16:55Z</time>
   </trkpt>
   <trkpt lat="53.5437550" lon="-113.4674980">
    <ele>621.9</ele>
    <time>2026-08-23T17:16:56Z</time>
   </trkpt>
   <trkpt lat="53.5437510" lon="-113.4675530">
    <ele>621.9</ele>
    <time>2026-08-23T17:16:57Z</time>
   </trkpt>
   <trkpt lat="53.5437560" lon="-113.4675940">
    <ele>621.9</ele>
    <time>2026-08-23T17:16:58Z</time>
   </trkpt>
   <trkpt lat="53.5437640" lon="-113.4676350">
    <ele>621.9</ele>
    <time>2026-08-23T17:16:59Z</time>
   </trkpt>
   <trkpt lat="53.5437630" lon="-113.4676790">
    <ele>621.9</ele>
    <time>2026-08-23T17:17:00Z</time>
   </trkpt>
   <trkpt lat="53.5437730" lon="-113.4677180">
    <ele>622.0</ele>
    <time>2026-08-23T17:17:01Z</time>
   </trkpt>
   <trkpt lat="53.5437710" lon="-113.4677660">
    <ele>622.0</ele>
    <time>2026-08-23T17:17:02Z</time>
   </trkpt>
   <trkpt lat="53.5437710" lon="-113.4677730">
    <ele>622.0</ele>
    <time>2026-08-23T17:17:03Z</time>
   </trkpt>
   <trkpt lat="53.5437690" lon="-113.4678140">
    <ele>622.0</ele>
    <time>2026-08-23T17:17:04Z</time>
   </trkpt>
   <trkpt lat="53.5437620" lon="-113.4678470">
    <ele>622.1</ele>
    <time>2026-08-23T17:17:05Z</time>
   </trkpt>
   <trkpt lat="53.5437610" lon="-113.4678910">
    <ele>622.1</ele>
    <time>2026-08-23T17:17:06Z</time>
   </trkpt>
   <trkpt lat="53.5437550" lon="-113.4679230">
    <ele>622.1</ele>
    <time>2026-08-23T17:17:07Z</time>
   </trkpt>
   <trkpt lat="53.5437580" lon="-113.4679620">
    <ele>622.1</ele>
    <time>2026-08-23T17:17:08Z</time>
   </trkpt>
   <trkpt lat="53.5437560" lon="-113.4679960">
    <ele>622.2</ele>
    <time>2026-08-23T17:17:09Z</time>
   </trkpt>
   <trkpt lat="53.5437530" lon="-113.4680330">
    <ele>622.2</ele>
    <time>2026-08-23T17:17:10Z</time>
   </trkpt>
   <trkpt lat="53.5437440" lon="-113.4680760">
    <ele>622.2</ele>
    <time>2026-08-23T17:17:11Z</time>
   </trkpt>
   <trkpt lat="53.5437460" lon="-113.4681130">
    <ele>622.2</ele>
    <time>2026-08-23T17:17:12Z</time>
   </trkpt>
   <trkpt lat="53.5437470" lon="-113.4681510">
    <ele>622.2</ele>
    <time>2026-08-23T17:17:13Z</time>
   </trkpt>
   <trkpt lat="53.5437400" lon="-113.4681900">
    <ele>622.2</ele>
    <time>2026-08-23T17:17:14Z</time>
   </trkpt>
   <trkpt lat="53.5437350" lon="-113.4682270">
    <ele>622.2</ele>
    <time>2026-08-23T17:17:15Z</time>
   </trkpt>
   <trkpt lat="53.5437330" lon="-113.4682710">
    <ele>622.2</ele>
    <time>2026-08-23T17:17:16Z</time>
   </trkpt>
   <trkpt lat="53.5437290" lon="-113.4683100">
    <ele>622.2</ele>
    <time>2026-08-23T17:17:17Z</time>
   </trkpt>
   <trkpt lat="53.5437260" lon="-113.4683530">
    <ele>622.2</ele>
    <time>2026-08-23T17:17:18Z</time>
   </trkpt>
   <trkpt lat="53.5437220" lon="-113.4683920">
    <ele>622.2</ele>
    <time>2026-08-23T17:17:19Z</time>
   </trkpt>
   <trkpt lat="53.5437270" lon="-113.4684320">
    <ele>622.2</ele>
    <time>2026-08-23T17:17:20Z</time>
   </trkpt>
   <trkpt lat="53.5437130" lon="-113.4684750">
    <ele>622.1</ele>
    <time>2026-08-23T17:17:21Z</time>
   </trkpt>
   <trkpt lat="53.5437200" lon="-113.4685230">
    <ele>622.1</ele>
    <time>2026-08-23T17:17:22Z</time>
   </trkpt>
   <trkpt lat="53.5437200" lon="-113.4685680">
    <ele>622.1</ele>
    <time>2026-08-23T17:17:23Z</time>
   </trkpt>
   <trkpt lat="53.5437290" lon="-113.4686110">
    <ele>622.1</ele>
    <time>2026-08-23T17:17:24Z</time>
   </trkpt>
   <trkpt lat="53.5437400" lon="-113.4686940">
    <ele>622.1</ele>
    <time>2026-08-23T17:17:25Z</time>
   </trkpt>
   <trkpt lat="53.5437330" lon="-113.4687610">
    <ele>622.1</ele>
    <time>2026-08-23T17:17:26Z</time>
   </trkpt>
   <trkpt lat="53.5437280" lon="-113.4688150">
    <ele>622.1</ele>
    <time>2026-08-23T17:17:27Z</time>
   </trkpt>
   <trkpt lat="53.5437380" lon="-113.4688660">
    <ele>622.1</ele>
    <time>2026-08-23T17:17:28Z</time>
   </trkpt>
   <trkpt lat="53.5437420" lon="-113.4689140">
    <ele>622.1</ele>
    <time>2026-08-23T17:17:29Z</time>
   </trkpt>
   <trkpt lat="53.5437410" lon="-113.4689560">
    <ele>622.1</ele>
    <time>2026-08-23T17:17:30Z</time>
   </trkpt>
   <trkpt lat="53.5437570" lon="-113.4690020">
    <ele>622.1</ele>
    <time>2026-08-23T17:17:31Z</time>
   </trkpt>
   <trkpt lat="53.5437770" lon="-113.4690360">
    <ele>622.2</ele>
    <time>2026-08-23T17:17:32Z</time>
   </trkpt>
   <trkpt lat="53.5437740" lon="-113.4690830">
    <ele>622.2</ele>
    <time>2026-08-23T17:17:33Z</time>
   </trkpt>
   <trkpt lat="53.5437740" lon="-113.4691330">
    <ele>622.2</ele>
    <time>2026-08-23T17:17:34Z</time>
   </trkpt>
   <trkpt lat="53.5437670" lon="-113.4691820">
    <ele>622.2</ele>
    <time>2026-08-23T17:17:35Z</time>
   </trkpt>
   <trkpt lat="53.5437630" lon="-113.4692330">
    <ele>622.2</ele>
    <time>2026-08-23T17:17:36Z</time>
   </trkpt>
   <trkpt lat="53.5437650" lon="-113.4692860">
    <ele>622.3</ele>
    <time>2026-08-23T17:17:37Z</time>
   </trkpt>
   <trkpt lat="53.5437680" lon="-113.4693340">
    <ele>622.3</ele>
    <time>2026-08-23T17:17:38Z</time>
   </trkpt>
   <trkpt lat="53.5437720" lon="-113.4693800">
    <ele>622.3</ele>
    <time>2026-08-23T17:17:39Z</time>
   </trkpt>
   <trkpt lat="53.5437780" lon="-113.4694330">
    <ele>622.3</ele>
    <time>2026-08-23T17:17:40Z</time>
   </trkpt>
   <trkpt lat="53.5437690" lon="-113.4694810">
    <ele>622.3</ele>
    <time>2026-08-23T17:17:41Z</time>
   </trkpt>
   <trkpt lat="53.5437610" lon="-113.4695360">
    <ele>622.4</ele>
    <time>2026-08-23T17:17:42Z</time>
   </trkpt>
   <trkpt lat="53.5437510" lon="-113.4695860">
    <ele>622.4</ele>
    <time>2026-08-23T17:17:43Z</time>
   </trkpt>
   <trkpt lat="53.5437540" lon="-113.4696330">
    <ele>622.4</ele>
    <time>2026-08-23T17:17:44Z</time>
   </trkpt>
   <trkpt lat="53.5437450" lon="-113.4696830">
    <ele>622.4</ele>
    <time>2026-08-23T17:17:45Z</time>
   </trkpt>
   <trkpt lat="53.5437510" lon="-113.4697260">
    <ele>622.4</ele>
    <time>2026-08-23T17:17:46Z</time>
   </trkpt>
   <trkpt lat="53.5437560" lon="-113.4697730">
    <ele>622.4</ele>
    <time>2026-08-23T17:17:47Z</time>
   </trkpt>
   <trkpt lat="53.5437530" lon="-113.4698260">
    <ele>622.4</ele>
    <time>2026-08-23T17:17:48Z</time>
   </trkpt>
   <trkpt lat="53.5437500" lon="-113.4698750">
    <ele>622.5</ele>
    <time>2026-08-23T17:17:49Z</time>
   </trkpt>
   <trkpt lat="53.5437440" lon="-113.4699280">
    <ele>622.5</ele>
    <time>2026-08-23T17:17:50Z</time>
   </trkpt>
   <trkpt lat="53.5437560" lon="-113.4699760">
    <ele>622.5</ele>
    <time>2026-08-23T17:17:51Z</time>
   </trkpt>
   <trkpt lat="53.5437580" lon="-113.4700240">
    <ele>622.5</ele>
    <time>2026-08-23T17:17:52Z</time>
   </trkpt>
   <trkpt lat="53.5437590" lon="-113.4700720">
    <ele>622.5</ele>
    <time>2026-08-23T17:17:53Z</time>
   </trkpt>
   <trkpt lat="53.5437560" lon="-113.4701170">
    <ele>622.6</ele>
    <time>2026-08-23T17:17:54Z</time>
   </trkpt>
   <trkpt lat="53.5437350" lon="-113.4701600">
    <ele>622.6</ele>
    <time>2026-08-23T17:17:55Z</time>
   </trkpt>
   <trkpt lat="53.5437020" lon="-113.4701920">
    <ele>622.6</ele>
    <time>2026-08-23T17:17:56Z</time>
   </trkpt>
   <trkpt lat="53.5436780" lon="-113.4701860">
    <ele>622.6</ele>
    <time>2026-08-23T17:17:57Z</time>
   </trkpt>
   <trkpt lat="53.5436350" lon="-113.4701910">
    <ele>622.6</ele>
    <time>2026-08-23T17:17:58Z</time>
   </trkpt>
   <trkpt lat="53.5436200" lon="-113.4701810">
    <ele>622.6</ele>
    <time>2026-08-23T17:17:59Z</time>
   </trkpt>
   <trkpt lat="53.5435780" lon="-113.4701660">
    <ele>622.6</ele>
    <time>2026-08-23T17:18:00Z</time>
   </trkpt>
   <trkpt lat="53.5435680" lon="-113.4701650">
    <ele>622.6</ele>
    <time>2026-08-23T17:18:01Z</time>
   </trkpt>
   <trkpt lat="53.5435380" lon="-113.4701460">
    <ele>622.6</ele>
    <time>2026-08-23T17:18:02Z</time>
   </trkpt>
   <trkpt lat="53.5435180" lon="-113.4701480">
    <ele>622.6</ele>
    <time>2026-08-23T17:18:03Z</time>
   </trkpt>
   <trkpt lat="53.5434890" lon="-113.4701450">
    <ele>622.6</ele>
    <time>2026-08-23T17:18:04Z</time>
   </trkpt>
   <trkpt lat="53.5434660" lon="-113.4701370">
    <ele>622.6</ele>
    <time>2026-08-23T17:18:05Z</time>
   </trkpt>
   <trkpt lat="53.5434490" lon="-113.4701400">
    <ele>622.6</ele>
    <time>2026-08-23T17:18:06Z</time>
   </trkpt>
   <trkpt lat="53.5434270" lon="-113.4701390">
    <ele>622.6</ele>
    <time>2026-08-23T17:18:07Z</time>
   </trkpt>
   <trkpt lat="53.5433780" lon="-113.4701060">
    <ele>622.6</ele>
    <time>2026-08-23T17:18:08Z</time>
   </trkpt>
   <trkpt lat="53.5433690" lon="-113.4700930">
    <ele>622.6</ele>
    <time>2026-08-23T17:18:09Z</time>
   </trkpt>
   <trkpt lat="53.5433290" lon="-113.4700770">
    <ele>622.6</ele>
    <time>2026-08-23T17:18:10Z</time>
   </trkpt>
   <trkpt lat="53.5433190" lon="-113.4700510">
    <ele>622.6</ele>
    <time>2026-08-23T17:18:11Z</time>
   </trkpt>
   <trkpt lat="53.5432890" lon="-113.4700150">
    <ele>622.6</ele>
    <time>2026-08-23T17:18:12Z</time>
   </trkpt>
   <trkpt lat="53.5432750" lon="-113.4700200">
    <ele>622.6</ele>
    <time>2026-08-23T17:18:13Z</time>
   </trkpt>
   <trkpt lat="53.5432470" lon="-113.4700040">
    <ele>622.6</ele>
    <time>2026-08-23T17:18:14Z</time>
   </trkpt>
   <trkpt lat="53.5432320" lon="-113.4700050">
    <ele>622.6</ele>
    <time>2026-08-23T17:18:15Z</time>
   </trkpt>
   <trkpt lat="53.5431960" lon="-113.4699930">
    <ele>622.5</ele>
    <time>2026-08-23T17:18:16Z</time>
   </trkpt>
   <trkpt lat="53.5431810" lon="-113.4699890">
    <ele>622.5</ele>
    <time>2026-08-23T17:18:17Z</time>
   </trkpt>
   <trkpt lat="53.5431570" lon="-113.4699850">
    <ele>622.5</ele>
    <time>2026-08-23T17:18:18Z</time>
   </trkpt>
   <trkpt lat="53.5431320" lon="-113.4699810">
    <ele>622.5</ele>
    <time>2026-08-23T17:18:19Z</time>
   </trkpt>
   <trkpt lat="53.5431130" lon="-113.4699770">
    <ele>622.5</ele>
    <time>2026-08-23T17:18:20Z</time>
   </trkpt>
   <trkpt lat="53.5430860" lon="-113.4699550">
    <ele>622.5</ele>
    <time>2026-08-23T17:18:21Z</time>
   </trkpt>
   <trkpt lat="53.5430710" lon="-113.4699610">
    <ele>622.5</ele>
    <time>2026-08-23T17:18:22Z</time>
   </trkpt>
   <trkpt lat="53.5430430" lon="-113.4699580">
    <ele>622.5</ele>
    <time>2026-08-23T17:18:23Z</time>
   </trkpt>
   <trkpt lat="53.5430170" lon="-113.4699470">
    <ele>622.5</ele>
    <time>2026-08-23T17:18:24Z</time>
   </trkpt>
   <trkpt lat="53.5429890" lon="-113.4699350">
    <ele>622.5</ele>
    <time>2026-08-23T17:18:25Z</time>
   </trkpt>
   <trkpt lat="53.5429770" lon="-113.4699280">
    <ele>622.5</ele>
    <time>2026-08-23T17:18:26Z</time>
   </trkpt>
   <trkpt lat="53.5429560" lon="-113.4699100">
    <ele>622.6</ele>
    <time>2026-08-23T17:18:27Z</time>
   </trkpt>
   <trkpt lat="53.5429290" lon="-113.4698980">
    <ele>622.6</ele>
    <time>2026-08-23T17:18:28Z</time>
   </trkpt>
   <trkpt lat="53.5428890" lon="-113.4698780">
    <ele>622.6</ele>
    <time>2026-08-23T17:18:29Z</time>
   </trkpt>
   <trkpt lat="53.5428750" lon="-113.4698820">
    <ele>622.6</ele>
    <time>2026-08-23T17:18:30Z</time>
   </trkpt>
   <trkpt lat="53.5428380" lon="-113.4698640">
    <ele>622.6</ele>
    <time>2026-08-23T17:18:31Z</time>
   </trkpt>
   <trkpt lat="53.5428140" lon="-113.4698650">
    <ele>622.6</ele>
    <time>2026-08-23T17:18:32Z</time>
   </trkpt>
   <trkpt lat="53.5427830" lon="-113.4698550">
    <ele>622.6</ele>
    <time>2026-08-23T17:18:33Z</time>
   </trkpt>
   <trkpt lat="53.5427540" lon="-113.4698470">
    <ele>622.7</ele>
    <time>2026-08-23T17:18:34Z</time>
   </trkpt>
   <trkpt lat="53.5427040" lon="-113.4698250">
    <ele>622.7</ele>
    <time>2026-08-23T17:18:35Z</time>
   </trkpt>
   <trkpt lat="53.5426870" lon="-113.4697950">
    <ele>622.7</ele>
    <time>2026-08-23T17:18:36Z</time>
   </trkpt>
   <trkpt lat="53.5426420" lon="-113.4697720">
    <ele>622.7</ele>
    <time>2026-08-23T17:18:37Z</time>
   </trkpt>
   <trkpt lat="53.5426190" lon="-113.4697570">
    <ele>622.7</ele>
    <time>2026-08-23T17:18:38Z</time>
   </trkpt>
   <trkpt lat="53.5425850" lon="-113.4697330">
    <ele>622.7</ele>
    <time>2026-08-23T17:18:39Z</time>
   </trkpt>
   <trkpt lat="53.5425510" lon="-113.4697090">
    <ele>622.8</ele>
    <time>2026-08-23T17:18:40Z</time>
   </trkpt>
   <trkpt lat="53.5425280" lon="-113.4697110">
    <ele>622.7</ele>
    <time>2026-08-23T17:18:41Z</time>
   </trkpt>
   <trkpt lat="53.5424860" lon="-113.4696910">
    <ele>622.7</ele>
    <time>2026-08-23T17:18:42Z</time>
   </trkpt>
   <trkpt lat="53.5424580" lon="-113.4696720">
    <ele>622.7</ele>
    <time>2026-08-23T17:18:43Z</time>
   </trkpt>
   <trkpt lat="53.5424210" lon="-113.4696740">
    <ele>622.7</ele>
    <time>2026-08-23T17:18:44Z</time>
   </trkpt>
   <trkpt lat="53.5423960" lon="-113.4696320">
    <ele>622.7</ele>
    <time>2026-08-23T17:18:45Z</time>
   </trkpt>
   <trkpt lat="53.5423700" lon="-113.4696050">
    <ele>622.7</ele>
    <time>2026-08-23T17:18:46Z</time>
   </trkpt>
   <trkpt lat="53.5423490" lon="-113.4695730">
    <ele>622.7</ele>
    <time>2026-08-23T17:18:47Z</time>
   </trkpt>
   <trkpt lat="53.5423270" lon="-113.4695600">
    <ele>622.7</ele>
    <time>2026-08-23T17:18:48Z</time>
   </trkpt>
   <trkpt lat="53.5423040" lon="-113.4695550">
    <ele>622.7</ele>
    <time>2026-08-23T17:18:49Z</time>
   </trkpt>
   <trkpt lat="53.5422810" lon="-113.4695390">
    <ele>622.7</ele>
    <time>2026-08-23T17:18:50Z</time>
   </trkpt>
   <trkpt lat="53.5422560" lon="-113.4695190">
    <ele>622.7</ele>
    <time>2026-08-23T17:18:51Z</time>
   </trkpt>
   <trkpt lat="53.5422350" lon="-113.4695000">
    <ele>622.7</ele>
    <time>2026-08-23T17:18:52Z</time>
   </trkpt>
   <trkpt lat="53.5422180" lon="-113.4694820">
    <ele>622.7</ele>
    <time>2026-08-23T17:18:53Z</time>
   </trkpt>
   <trkpt lat="53.5421990" lon="-113.4694600">
    <ele>622.7</ele>
    <time>2026-08-23T17:18:54Z</time>
   </trkpt>
   <trkpt lat="53.5421760" lon="-113.4694430">
    <ele>622.7</ele>
    <time>2026-08-23T17:18:55Z</time>
   </trkpt>
   <trkpt lat="53.5421560" lon="-113.4694200">
    <ele>622.7</ele>
    <time>2026-08-23T17:18:56Z</time>
   </trkpt>
   <trkpt lat="53.5421440" lon="-113.4694190">
    <ele>622.7</ele>
    <time>2026-08-23T17:18:57Z</time>
   </trkpt>
   <trkpt lat="53.5421260" lon="-113.4693980">
    <ele>622.7</ele>
    <time>2026-08-23T17:18:58Z</time>
   </trkpt>
   <trkpt lat="53.5421120" lon="-113.4693820">
    <ele>622.7</ele>
    <time>2026-08-23T17:18:59Z</time>
   </trkpt>
   <trkpt lat="53.5421050" lon="-113.4693670">
    <ele>622.7</ele>
    <time>2026-08-23T17:19:00Z</time>
   </trkpt>
   <trkpt lat="53.5420890" lon="-113.4693640">
    <ele>622.7</ele>
    <time>2026-08-23T17:19:01Z</time>
   </trkpt>
   <trkpt lat="53.5420790" lon="-113.4693680">
    <ele>622.7</ele>
    <time>2026-08-23T17:19:02Z</time>
   </trkpt>
   <trkpt lat="53.5420780" lon="-113.4693750">
    <ele>622.7</ele>
    <time>2026-08-23T17:19:03Z</time>
   </trkpt>
   <trkpt lat="53.5420850" lon="-113.4693780">
    <ele>622.7</ele>
    <time>2026-08-23T17:19:04Z</time>
   </trkpt>
   <trkpt lat="53.5420780" lon="-113.4693640">
    <ele>622.7</ele>
    <time>2026-08-23T17:19:05Z</time>
   </trkpt>
   <trkpt lat="53.5420760" lon="-113.4693680">
    <ele>622.7</ele>
    <time>2026-08-23T17:19:06Z</time>
   </trkpt>
   <trkpt lat="53.5420760" lon="-113.4693650">
    <ele>622.7</ele>
    <time>2026-08-23T17:19:07Z</time>
   </trkpt>
   <trkpt lat="53.5420770" lon="-113.4693830">
    <ele>622.7</ele>
    <time>2026-08-23T17:19:08Z</time>
   </trkpt>
   <trkpt lat="53.5420780" lon="-113.4693800">
    <ele>622.7</ele>
    <time>2026-08-23T17:19:09Z</time>
   </trkpt>
   <trkpt lat="53.5420620" lon="-113.4693850">
    <ele>622.7</ele>
    <time>2026-08-23T17:19:10Z</time>
   </trkpt>
   <trkpt lat="53.5420770" lon="-113.4694130">
    <ele>622.7</ele>
    <time>2026-08-23T17:19:11Z</time>
   </trkpt>
   <trkpt lat="53.5420760" lon="-113.4694290">
    <ele>622.8</ele>
    <time>2026-08-23T17:19:12Z</time>
   </trkpt>
   <trkpt lat="53.5420680" lon="-113.4694570">
    <ele>622.8</ele>
    <time>2026-08-23T17:19:13Z</time>
   </trkpt>
   <trkpt lat="53.5420580" lon="-113.4694700">
    <ele>622.8</ele>
    <time>2026-08-23T17:19:14Z</time>
   </trkpt>
   <trkpt lat="53.5420400" lon="-113.4694910">
    <ele>622.8</ele>
    <time>2026-08-23T17:19:15Z</time>
   </trkpt>
   <trkpt lat="53.5420180" lon="-113.4695000">
    <ele>622.8</ele>
    <time>2026-08-23T17:19:16Z</time>
   </trkpt>
   <trkpt lat="53.5420210" lon="-113.4695240">
    <ele>622.8</ele>
    <time>2026-08-23T17:19:17Z</time>
   </trkpt>
   <trkpt lat="53.5420140" lon="-113.4695280">
    <ele>622.8</ele>
    <time>2026-08-23T17:19:18Z</time>
   </trkpt>
   <trkpt lat="53.5420070" lon="-113.4695130">
    <ele>622.8</ele>
    <time>2026-08-23T17:19:19Z</time>
   </trkpt>
   <trkpt lat="53.5420120" lon="-113.4695010">
    <ele>622.8</ele>
    <time>2026-08-23T17:19:20Z</time>
   </trkpt>
   <trkpt lat="53.5420010" lon="-113.4694990">
    <ele>622.8</ele>
    <time>2026-08-23T17:19:21Z</time>
   </trkpt>
   <trkpt lat="53.5419900" lon="-113.4695150">
    <ele>622.8</ele>
    <time>2026-08-23T17:19:22Z</time>
   </trkpt>
   <trkpt lat="53.5419800" lon="-113.4695240">
    <ele>622.8</ele>
    <time>2026-08-23T17:19:23Z</time>
   </trkpt>
   <trkpt lat="53.5419850" lon="-113.4695060">
    <ele>622.8</ele>
    <time>2026-08-23T17:19:24Z</time>
   </trkpt>
   <trkpt lat="53.5419990" lon="-113.4694860">
    <ele>622.8</ele>
    <time>2026-08-23T17:19:25Z</time>
   </trkpt>
   <trkpt lat="53.5419950" lon="-113.4694770">
    <ele>622.8</ele>
    <time>2026-08-23T17:19:26Z</time>
   </trkpt>
   <trkpt lat="53.5419960" lon="-113.4694780">
    <ele>622.8</ele>
    <time>2026-08-23T17:19:27Z</time>
   </trkpt>
   <trkpt lat="53.5419910" lon="-113.4694660">
    <ele>622.8</ele>
    <time>2026-08-23T17:19:28Z</time>
   </trkpt>
   <trkpt lat="53.5419910" lon="-113.4694660">
    <ele>622.8</ele>
    <time>2026-08-23T17:19:29Z</time>
   </trkpt>
   <trkpt lat="53.5419910" lon="-113.4694660">
    <ele>622.8</ele>
    <time>2026-08-23T17:19:30Z</time>
   </trkpt>
   <trkpt lat="53.5419910" lon="-113.4694660">
    <ele>622.8</ele>
    <time>2026-08-23T17:19:31Z</time>
   </trkpt>
   <trkpt lat="53.5419910" lon="-113.4694660">
    <ele>622.8</ele>
    <time>2026-08-23T17:19:32Z</time>
   </trkpt>
   <trkpt lat="53.5419860" lon="-113.4694540">
    <ele>622.8</ele>
    <time>2026-08-23T17:19:33Z</time>
   </trkpt>
   <trkpt lat="53.5419840" lon="-113.4694510">
    <ele>622.8</ele>
    <time>2026-08-23T17:19:34Z</time>
   </trkpt>
   <trkpt lat="53.5419800" lon="-113.4694550">
    <ele>622.8</ele>
    <time>2026-08-23T17:19:35Z</time>
   </trkpt>
   <trkpt lat="53.5419810" lon="-113.4694520">
    <ele>622.8</ele>
    <time>2026-08-23T17:19:36Z</time>
   </trkpt>
   <trkpt lat="53.5419810" lon="-113.4694520">
    <ele>622.8</ele>
    <time>2026-08-23T17:19:37Z</time>
   </trkpt>
   <trkpt lat="53.5419810" lon="-113.4694520">
    <ele>622.8</ele>
    <time>2026-08-23T17:19:38Z</time>
   </trkpt>
   <trkpt lat="53.5419810" lon="-113.4694520">
    <ele>622.8</ele>
    <time>2026-08-23T17:19:39Z</time>
   </trkpt>
   <trkpt lat="53.5419810" lon="-113.4694520">
    <ele>622.8</ele>
    <time>2026-08-23T17:19:40Z</time>
   </trkpt>
   <trkpt lat="53.5419810" lon="-113.4694520">
    <ele>622.8</ele>
    <time>2026-08-23T17:19:41Z</time>
   </trkpt>
   <trkpt lat="53.5419810" lon="-113.4694520">
    <ele>622.8</ele>
    <time>2026-08-23T17:19:42Z</time>
   </trkpt>
   <trkpt lat="53.5419680" lon="-113.4694610">
    <ele>622.8</ele>
    <time>2026-08-23T17:19:43Z</time>
   </trkpt>
   <trkpt lat="53.5419710" lon="-113.4694560">
    <ele>622.8</ele>
    <time>2026-08-23T17:19:44Z</time>
   </trkpt>
   <trkpt lat="53.5419690" lon="-113.4694570">
    <ele>622.8</ele>
    <time>2026-08-23T17:19:45Z</time>
   </trkpt>
   <trkpt lat="53.5419700" lon="-113.4694600">
    <ele>622.8</ele>
    <time>2026-08-23T17:19:46Z</time>
   </trkpt>
   <trkpt lat="53.5419680" lon="-113.4694600">
    <ele>622.8</ele>
    <time>2026-08-23T17:19:47Z</time>
   </trkpt>
   <trkpt lat="53.5419660" lon="-113.4694590">
    <ele>622.8</ele>
    <time>2026-08-23T17:19:48Z</time>
   </trkpt>
   <trkpt lat="53.5419660" lon="-113.4694590">
    <ele>622.8</ele>
    <time>2026-08-23T17:19:49Z</time>
   </trkpt>
   <trkpt lat="53.5419590" lon="-113.4694550">
    <ele>622.8</ele>
    <time>2026-08-23T17:19:50Z</time>
   </trkpt>
   <trkpt lat="53.5419610" lon="-113.4694540">
    <ele>622.8</ele>
    <time>2026-08-23T17:19:51Z</time>
   </trkpt>
   <trkpt lat="53.5419580" lon="-113.4694490">
    <ele>622.8</ele>
    <time>2026-08-23T17:19:52Z</time>
   </trkpt>
   <trkpt lat="53.5419580" lon="-113.4694490">
    <ele>622.8</ele>
    <time>2026-08-23T17:19:53Z</time>
   </trkpt>
   <trkpt lat="53.5419600" lon="-113.4694530">
    <ele>622.8</ele>
    <time>2026-08-23T17:19:54Z</time>
   </trkpt>
   <trkpt lat="53.5419520" lon="-113.4694590">
    <ele>622.8</ele>
    <time>2026-08-23T17:19:55Z</time>
   </trkpt>
   <trkpt lat="53.5419440" lon="-113.4694720">
    <ele>622.8</ele>
    <time>2026-08-23T17:19:56Z</time>
   </trkpt>
   <trkpt lat="53.5419390" lon="-113.4694910">
    <ele>622.8</ele>
    <time>2026-08-23T17:19:57Z</time>
   </trkpt>
   <trkpt lat="53.5419410" lon="-113.4695010">
    <ele>622.8</ele>
    <time>2026-08-23T17:19:58Z</time>
   </trkpt>
   <trkpt lat="53.5419480" lon="-113.4695040">
    <ele>622.8</ele>
    <time>2026-08-23T17:19:59Z</time>
   </trkpt>
   <trkpt lat="53.5419460" lon="-113.4695160">
    <ele>622.8</ele>
    <time>2026-08-23T17:20:00Z</time>
   </trkpt>
   <trkpt lat="53.5419550" lon="-113.4695030">
    <ele>622.8</ele>
    <time>2026-08-23T17:20:01Z</time>
   </trkpt>
   <trkpt lat="53.5419560" lon="-113.4695060">
    <ele>622.8</ele>
    <time>2026-08-23T17:20:02Z</time>
   </trkpt>
   <trkpt lat="53.5419600" lon="-113.4694970">
    <ele>622.8</ele>
    <time>2026-08-23T17:20:03Z</time>
   </trkpt>
   <trkpt lat="53.5419620" lon="-113.4694950">
    <ele>622.8</ele>
    <time>2026-08-23T17:20:04Z</time>
   </trkpt>
   <trkpt lat="53.5419620" lon="-113.4694940">
    <ele>622.8</ele>
    <time>2026-08-23T17:20:05Z</time>
   </trkpt>
   <trkpt lat="53.5419630" lon="-113.4694920">
    <ele>622.8</ele>
    <time>2026-08-23T17:20:06Z</time>
   </trkpt>
   <trkpt lat="53.5419630" lon="-113.4694980">
    <ele>622.8</ele>
    <time>2026-08-23T17:20:07Z</time>
   </trkpt>
   <trkpt lat="53.5419680" lon="-113.4694930">
    <ele>622.8</ele>
    <time>2026-08-23T17:20:08Z</time>
   </trkpt>
   <trkpt lat="53.5419610" lon="-113.4695020">
    <ele>622.8</ele>
    <time>2026-08-23T17:20:09Z</time>
   </trkpt>
   <trkpt lat="53.5419610" lon="-113.4695020">
    <ele>622.8</ele>
    <time>2026-08-23T17:20:10Z</time>
   </trkpt>
   <trkpt lat="53.5419610" lon="-113.4695020">
    <ele>622.8</ele>
    <time>2026-08-23T17:20:11Z</time>
   </trkpt>
   <trkpt lat="53.5419610" lon="-113.4695020">
    <ele>622.8</ele>
    <time>2026-08-23T17:20:12Z</time>
   </trkpt>
   <trkpt lat="53.5419700" lon="-113.4695040">
    <ele>622.8</ele>
    <time>2026-08-23T17:20:13Z</time>
   </trkpt>
   <trkpt lat="53.5419710" lon="-113.4695000">
    <ele>622.8</ele>
    <time>2026-08-23T17:20:14Z</time>
   </trkpt>
   <trkpt lat="53.5419680" lon="-113.4695010">
    <ele>622.8</ele>
    <time>2026-08-23T17:20:15Z</time>
   </trkpt>
   <trkpt lat="53.5419660" lon="-113.4695070">
    <ele>622.8</ele>
    <time>2026-08-23T17:20:16Z</time>
   </trkpt>
   <trkpt lat="53.5419720" lon="-113.4695050">
    <ele>622.8</ele>
    <time>2026-08-23T17:20:17Z</time>
   </trkpt>
   <trkpt lat="53.5419700" lon="-113.4695030">
    <ele>622.8</ele>
    <time>2026-08-23T17:20:18Z</time>
   </trkpt>
   <trkpt lat="53.5419700" lon="-113.4694960">
    <ele>622.8</ele>
    <time>2026-08-23T17:20:19Z</time>
   </trkpt>
   <trkpt lat="53.5419680" lon="-113.4694980">
    <ele>622.8</ele>
    <time>2026-08-23T17:20:20Z</time>
   </trkpt>
   <trkpt lat="53.5419690" lon="-113.4694960">
    <ele>622.8</ele>
    <time>2026-08-23T17:20:21Z</time>
   </trkpt>
   <trkpt lat="53.5419680" lon="-113.4694930">
    <ele>622.8</ele>
    <time>2026-08-23T17:20:22Z</time>
   </trkpt>
   <trkpt lat="53.5419770" lon="-113.4694820">
    <ele>622.8</ele>
    <time>2026-08-23T17:20:23Z</time>
   </trkpt>
   <trkpt lat="53.5419800" lon="-113.4694760">
    <ele>622.8</ele>
    <time>2026-08-23T17:20:24Z</time>
   </trkpt>
   <trkpt lat="53.5419790" lon="-113.4694800">
    <ele>622.8</ele>
    <time>2026-08-23T17:20:25Z</time>
   </trkpt>
   <trkpt lat="53.5419850" lon="-113.4694790">
    <ele>622.8</ele>
    <time>2026-08-23T17:20:26Z</time>
   </trkpt>
   <trkpt lat="53.5419840" lon="-113.4694770">
    <ele>622.8</ele>
    <time>2026-08-23T17:20:27Z</time>
   </trkpt>
   <trkpt lat="53.5419910" lon="-113.4694730">
    <ele>622.8</ele>
    <time>2026-08-23T17:20:28Z</time>
   </trkpt>
   <trkpt lat="53.5419910" lon="-113.4694660">
    <ele>622.8</ele>
    <time>2026-08-23T17:20:29Z</time>
   </trkpt>
   <trkpt lat="53.5419920" lon="-113.4694720">
    <ele>622.8</ele>
    <time>2026-08-23T17:20:30Z</time>
   </trkpt>
   <trkpt lat="53.5419870" lon="-113.4694700">
    <ele>622.8</ele>
    <time>2026-08-23T17:20:31Z</time>
   </trkpt>
   <trkpt lat="53.5419920" lon="-113.4694800">
    <ele>622.8</ele>
    <time>2026-08-23T17:20:32Z</time>
   </trkpt>
   <trkpt lat="53.5420000" lon="-113.4694990">
    <ele>622.8</ele>
    <time>2026-08-23T17:20:33Z</time>
   </trkpt>
   <trkpt lat="53.5420010" lon="-113.4695180">
    <ele>622.8</ele>
    <time>2026-08-23T17:20:34Z</time>
   </trkpt>
   <trkpt lat="53.5420100" lon="-113.4695540">
    <ele>622.8</ele>
    <time>2026-08-23T17:20:35Z</time>
   </trkpt>
   <trkpt lat="53.5420160" lon="-113.4695750">
    <ele>622.8</ele>
    <time>2026-08-23T17:20:36Z</time>
   </trkpt>
   <trkpt lat="53.5420220" lon="-113.4695820">
    <ele>622.8</ele>
    <time>2026-08-23T17:20:37Z</time>
   </trkpt>
   <trkpt lat="53.5420230" lon="-113.4696050">
    <ele>622.8</ele>
    <time>2026-08-23T17:20:38Z</time>
   </trkpt>
   <trkpt lat="53.5420320" lon="-113.4696200">
    <ele>622.8</ele>
    <time>2026-08-23T17:20:39Z</time>
   </trkpt>
   <trkpt lat="53.5420360" lon="-113.4696410">
    <ele>622.8</ele>
    <time>2026-08-23T17:20:40Z</time>
   </trkpt>
   <trkpt lat="53.5420450" lon="-113.4696510">
    <ele>622.8</ele>
    <time>2026-08-23T17:20:41Z</time>
   </trkpt>
   <trkpt lat="53.5420470" lon="-113.4696690">
    <ele>622.8</ele>
    <time>2026-08-23T17:20:42Z</time>
   </trkpt>
   <trkpt lat="53.5420610" lon="-113.4696940">
    <ele>622.8</ele>
    <time>2026-08-23T17:20:43Z</time>
   </trkpt>
   <trkpt lat="53.5420910" lon="-113.4697100">
    <ele>622.8</ele>
    <time>2026-08-23T17:20:44Z</time>
   </trkpt>
   <trkpt lat="53.5420990" lon="-113.4697000">
    <ele>622.8</ele>
    <time>2026-08-23T17:20:45Z</time>
   </trkpt>
   <trkpt lat="53.5421090" lon="-113.4697200">
    <ele>622.8</ele>
    <time>2026-08-23T17:20:46Z</time>
   </trkpt>
   <trkpt lat="53.5421060" lon="-113.4697170">
    <ele>622.8</ele>
    <time>2026-08-23T17:20:47Z</time>
   </trkpt>
   <trkpt lat="53.5421040" lon="-113.4697010">
    <ele>622.8</ele>
    <time>2026-08-23T17:20:48Z</time>
   </trkpt>
   <trkpt lat="53.5421100" lon="-113.4696770">
    <ele>622.8</ele>
    <time>2026-08-23T17:20:49Z</time>
   </trkpt>
   <trkpt lat="53.5421160" lon="-113.4696650">
    <ele>622.8</ele>
    <time>2026-08-23T17:20:50Z</time>
   </trkpt>
   <trkpt lat="53.5421280" lon="-113.4696680">
    <ele>622.8</ele>
    <time>2026-08-23T17:20:51Z</time>
   </trkpt>
   <trkpt lat="53.5421370" lon="-113.4696640">
    <ele>622.8</ele>
    <time>2026-08-23T17:20:52Z</time>
   </trkpt>
   <trkpt lat="53.5421300" lon="-113.4696420">
    <ele>622.8</ele>
    <time>2026-08-23T17:20:53Z</time>
   </trkpt>
   <trkpt lat="53.5421240" lon="-113.4696270">
    <ele>622.8</ele>
    <time>2026-08-23T17:20:54Z</time>
   </trkpt>
   <trkpt lat="53.5421240" lon="-113.4696220">
    <ele>622.8</ele>
    <time>2026-08-23T17:20:55Z</time>
   </trkpt>
   <trkpt lat="53.5421500" lon="-113.4696350">
    <ele>622.8</ele>
    <time>2026-08-23T17:20:56Z</time>
   </trkpt>
   <trkpt lat="53.5421510" lon="-113.4696340">
    <ele>622.8</ele>
    <time>2026-08-23T17:20:57Z</time>
   </trkpt>
   <trkpt lat="53.5421270" lon="-113.4696260">
    <ele>622.8</ele>
    <time>2026-08-23T17:20:58Z</time>
   </trkpt>
   <trkpt lat="53.5421250" lon="-113.4696350">
    <ele>622.8</ele>
    <time>2026-08-23T17:20:59Z</time>
   </trkpt>
   <trkpt lat="53.5421210" lon="-113.4696450">
    <ele>622.8</ele>
    <time>2026-08-23T17:21:00Z</time>
   </trkpt>
   <trkpt lat="53.5421120" lon="-113.4696450">
    <ele>622.8</ele>
    <time>2026-08-23T17:21:01Z</time>
   </trkpt>
   <trkpt lat="53.5421120" lon="-113.4696440">
    <ele>622.8</ele>
    <time>2026-08-23T17:21:02Z</time>
   </trkpt>
   <trkpt lat="53.5421120" lon="-113.4696440">
    <ele>622.8</ele>
    <time>2026-08-23T17:21:03Z</time>
   </trkpt>
   <trkpt lat="53.5421120" lon="-113.4696440">
    <ele>622.8</ele>
    <time>2026-08-23T17:21:04Z</time>
   </trkpt>
   <trkpt lat="53.5421070" lon="-113.4696420">
    <ele>622.8</ele>
    <time>2026-08-23T17:21:05Z</time>
   </trkpt>
   <trkpt lat="53.5421070" lon="-113.4696410">
    <ele>622.8</ele>
    <time>2026-08-23T17:21:06Z</time>
   </trkpt>
   <trkpt lat="53.5421100" lon="-113.4696350">
    <ele>622.8</ele>
    <time>2026-08-23T17:21:07Z</time>
   </trkpt>
   <trkpt lat="53.5421290" lon="-113.4696450">
    <ele>622.8</ele>
    <time>2026-08-23T17:21:08Z</time>
   </trkpt>
   <trkpt lat="53.5421270" lon="-113.4696420">
    <ele>622.8</ele>
    <time>2026-08-23T17:21:09Z</time>
   </trkpt>
   <trkpt lat="53.5421150" lon="-113.4696470">
    <ele>622.8</ele>
    <time>2026-08-23T17:21:10Z</time>
   </trkpt>
   <trkpt lat="53.5421120" lon="-113.4696440">
    <ele>622.8</ele>
    <time>2026-08-23T17:21:11Z</time>
   </trkpt>
   <trkpt lat="53.5421170" lon="-113.4696440">
    <ele>622.8</ele>
    <time>2026-08-23T17:21:12Z</time>
   </trkpt>
   <trkpt lat="53.5421170" lon="-113.4696440">
    <ele>622.8</ele>
    <time>2026-08-23T17:21:13Z</time>
   </trkpt>
   <trkpt lat="53.5421170" lon="-113.4696440">
    <ele>622.8</ele>
    <time>2026-08-23T17:21:14Z</time>
   </trkpt>
   <trkpt lat="53.5421170" lon="-113.4696440">
    <ele>622.8</ele>
    <time>2026-08-23T17:21:15Z</time>
   </trkpt>
   <trkpt lat="53.5421170" lon="-113.4696440">
    <ele>622.8</ele>
    <time>2026-08-23T17:21:16Z</time>
   </trkpt>
   <trkpt lat="53.5421170" lon="-113.4696440">
    <ele>622.8</ele>
    <time>2026-08-23T17:21:17Z</time>
   </trkpt>
   <trkpt lat="53.5421170" lon="-113.4696440">
    <ele>622.8</ele>
    <time>2026-08-23T17:21:18Z</time>
   </trkpt>
   <trkpt lat="53.5421170" lon="-113.4696440">
    <ele>622.8</ele>
    <time>2026-08-23T17:21:19Z</time>
   </trkpt>
   <trkpt lat="53.5421240" lon="-113.4696200">
    <ele>622.8</ele>
    <time>2026-08-23T17:21:20Z</time>
   </trkpt>
   <trkpt lat="53.5421260" lon="-113.4696190">
    <ele>622.8</ele>
    <time>2026-08-23T17:21:21Z</time>
   </trkpt>
   <trkpt lat="53.5421230" lon="-113.4696190">
    <ele>622.8</ele>
    <time>2026-08-23T17:21:22Z</time>
   </trkpt>
   <trkpt lat="53.5421230" lon="-113.4696190">
    <ele>622.8</ele>
    <time>2026-08-23T17:21:23Z</time>
   </trkpt>
   <trkpt lat="53.5421230" lon="-113.4696190">
    <ele>622.8</ele>
    <time>2026-08-23T17:21:24Z</time>
   </trkpt>
   <trkpt lat="53.5421230" lon="-113.4696190">
    <ele>622.8</ele>
    <time>2026-08-23T17:21:25Z</time>
   </trkpt>
   <trkpt lat="53.5421230" lon="-113.4696190">
    <ele>622.8</ele>
    <time>2026-08-23T17:21:26Z</time>
   </trkpt>
   <trkpt lat="53.5421230" lon="-113.4696190">
    <ele>622.8</ele>
    <time>2026-08-23T17:21:27Z</time>
   </trkpt>
   <trkpt lat="53.5421300" lon="-113.4696040">
    <ele>622.8</ele>
    <time>2026-08-23T17:21:28Z</time>
   </trkpt>
   <trkpt lat="53.5421300" lon="-113.4696040">
    <ele>622.8</ele>
    <time>2026-08-23T17:21:29Z</time>
   </trkpt>
   <trkpt lat="53.5421440" lon="-113.4696170">
    <ele>622.8</ele>
    <time>2026-08-23T17:21:30Z</time>
   </trkpt>
   <trkpt lat="53.5421490" lon="-113.4696190">
    <ele>622.8</ele>
    <time>2026-08-23T17:21:31Z</time>
   </trkpt>
   <trkpt lat="53.5421460" lon="-113.4696260">
    <ele>622.8</ele>
    <time>2026-08-23T17:21:32Z</time>
   </trkpt>
   <trkpt lat="53.5421500" lon="-113.4696320">
    <ele>622.8</ele>
    <time>2026-08-23T17:21:33Z</time>
   </trkpt>
   <trkpt lat="53.5421490" lon="-113.4696270">
    <ele>622.8</ele>
    <time>2026-08-23T17:21:34Z</time>
   </trkpt>
   <trkpt lat="53.5421590" lon="-113.4696260">
    <ele>622.8</ele>
    <time>2026-08-23T17:21:35Z</time>
   </trkpt>
   <trkpt lat="53.5421590" lon="-113.4696260">
    <ele>622.8</ele>
    <time>2026-08-23T17:21:36Z</time>
   </trkpt>
   <trkpt lat="53.5421590" lon="-113.4696260">
    <ele>622.8</ele>
    <time>2026-08-23T17:21:37Z</time>
   </trkpt>
   <trkpt lat="53.5421590" lon="-113.4696260">
    <ele>622.8</ele>
    <time>2026-08-23T17:21:38Z</time>
   </trkpt>
   <trkpt lat="53.5421460" lon="-113.4696490">
    <ele>622.8</ele>
    <time>2026-08-23T17:21:39Z</time>
   </trkpt>
   <trkpt lat="53.5421540" lon="-113.4696420">
    <ele>622.8</ele>
    <time>2026-08-23T17:21:40Z</time>
   </trkpt>
   <trkpt lat="53.5421540" lon="-113.4696410">
    <ele>622.8</ele>
    <time>2026-08-23T17:21:41Z</time>
   </trkpt>
   <trkpt lat="53.5421590" lon="-113.4696350">
    <ele>622.8</ele>
    <time>2026-08-23T17:21:42Z</time>
   </trkpt>
   <trkpt lat="53.5421650" lon="-113.4696310">
    <ele>622.8</ele>
    <time>2026-08-23T17:21:43Z</time>
   </trkpt>
   <trkpt lat="53.5421660" lon="-113.4696310">
    <ele>622.8</ele>
    <time>2026-08-23T17:21:44Z</time>
   </trkpt>
   <trkpt lat="53.5421690" lon="-113.4696290">
    <ele>622.8</ele>
    <time>2026-08-23T17:21:45Z</time>
   </trkpt>
   <trkpt lat="53.5421710" lon="-113.4696180">
    <ele>622.8</ele>
    <time>2026-08-23T17:21:46Z</time>
   </trkpt>
   <trkpt lat="53.5421710" lon="-113.4696180">
    <ele>622.8</ele>
    <time>2026-08-23T17:21:47Z</time>
   </trkpt>
   <trkpt lat="53.5421710" lon="-113.4696180">
    <ele>622.8</ele>
    <time>2026-08-23T17:21:48Z</time>
   </trkpt>
   <trkpt lat="53.5421850" lon="-113.4696130">
    <ele>622.8</ele>
    <time>2026-08-23T17:21:49Z</time>
   </trkpt>
   <trkpt lat="53.5421870" lon="-113.4696130">
    <ele>622.8</ele>
    <time>2026-08-23T17:21:50Z</time>
   </trkpt>
   <trkpt lat="53.5421760" lon="-113.4696080">
    <ele>622.8</ele>
    <time>2026-08-23T17:21:51Z</time>
   </trkpt>
   <trkpt lat="53.5421760" lon="-113.4696250">
    <ele>622.8</ele>
    <time>2026-08-23T17:21:52Z</time>
   </trkpt>
   <trkpt lat="53.5421630" lon="-113.4696550">
    <ele>622.8</ele>
    <time>2026-08-23T17:21:53Z</time>
   </trkpt>
   <trkpt lat="53.5421630" lon="-113.4696550">
    <ele>622.8</ele>
    <time>2026-08-23T17:21:54Z</time>
   </trkpt>
   <trkpt lat="53.5421630" lon="-113.4696550">
    <ele>622.8</ele>
    <time>2026-08-23T17:21:55Z</time>
   </trkpt>
   <trkpt lat="53.5421630" lon="-113.4696550">
    <ele>622.8</ele>
    <time>2026-08-23T17:21:56Z</time>
   </trkpt>
   <trkpt lat="53.5421630" lon="-113.4696550">
    <ele>622.8</ele>
    <time>2026-08-23T17:21:57Z</time>
   </trkpt>
   <trkpt lat="53.5421630" lon="-113.4696550">
    <ele>622.8</ele>
    <time>2026-08-23T17:21:58Z</time>
   </trkpt>
   <trkpt lat="53.5421630" lon="-113.4696550">
    <ele>622.8</ele>
    <time>2026-08-23T17:21:59Z</time>
   </trkpt>
   <trkpt lat="53.5421630" lon="-113.4696550">
    <ele>622.8</ele>
    <time>2026-08-23T17:22:00Z</time>
   </trkpt>
   <trkpt lat="53.5421630" lon="-113.4696550">
    <ele>622.8</ele>
    <time>2026-08-23T17:22:01Z</time>
   </trkpt>
   <trkpt lat="53.5421630" lon="-113.4696550">
    <ele>622.8</ele>
    <time>2026-08-23T17:22:02Z</time>
   </trkpt>
   <trkpt lat="53.5421630" lon="-113.4696550">
    <ele>622.8</ele>
    <time>2026-08-23T17:22:03Z</time>
   </trkpt>
   <trkpt lat="53.5421570" lon="-113.4696340">
    <ele>622.8</ele>
    <time>2026-08-23T17:22:04Z</time>
   </trkpt>
   <trkpt lat="53.5421570" lon="-113.4696340">
    <ele>622.8</ele>
    <time>2026-08-23T17:22:05Z</time>
   </trkpt>
   <trkpt lat="53.5421570" lon="-113.4696340">
    <ele>622.8</ele>
    <time>2026-08-23T17:22:06Z</time>
   </trkpt>
   <trkpt lat="53.5421570" lon="-113.4696340">
    <ele>622.8</ele>
    <time>2026-08-23T17:22:07Z</time>
   </trkpt>
   <trkpt lat="53.5421570" lon="-113.4696340">
    <ele>622.8</ele>
    <time>2026-08-23T17:22:08Z</time>
   </trkpt>
   <trkpt lat="53.5421570" lon="-113.4696340">
    <ele>622.8</ele>
    <time>2026-08-23T17:22:09Z</time>
   </trkpt>
   <trkpt lat="53.5421570" lon="-113.4696340">
    <ele>622.8</ele>
    <time>2026-08-23T17:22:10Z</time>
   </trkpt>
   <trkpt lat="53.5421570" lon="-113.4696340">
    <ele>622.8</ele>
    <time>2026-08-23T17:22:11Z</time>
   </trkpt>
   <trkpt lat="53.5421570" lon="-113.4696340">
    <ele>622.8</ele>
    <time>2026-08-23T17:22:12Z</time>
   </trkpt>
   <trkpt lat="53.5421570" lon="-113.4696340">
    <ele>622.8</ele>
    <time>2026-08-23T17:22:13Z</time>
   </trkpt>
   <trkpt lat="53.5421570" lon="-113.4696340">
    <ele>622.8</ele>
    <time>2026-08-23T17:22:14Z</time>
   </trkpt>
   <trkpt lat="53.5421570" lon="-113.4696340">
    <ele>622.8</ele>
    <time>2026-08-23T17:22:15Z</time>
   </trkpt>
   <trkpt lat="53.5421570" lon="-113.4696340">
    <ele>622.8</ele>
    <time>2026-08-23T17:22:16Z</time>
   </trkpt>
   <trkpt lat="53.5421570" lon="-113.4696340">
    <ele>622.8</ele>
    <time>2026-08-23T17:22:17Z</time>
   </trkpt>
   <trkpt lat="53.5421570" lon="-113.4696340">
    <ele>622.8</ele>
    <time>2026-08-23T17:22:18Z</time>
   </trkpt>
   <trkpt lat="53.5421570" lon="-113.4696340">
    <ele>622.8</ele>
    <time>2026-08-23T17:22:19Z</time>
   </trkpt>
   <trkpt lat="53.5421570" lon="-113.4696340">
    <ele>622.8</ele>
    <time>2026-08-23T17:22:20Z</time>
   </trkpt>
   <trkpt lat="53.5421570" lon="-113.4696340">
    <ele>622.8</ele>
    <time>2026-08-23T17:22:21Z</time>
   </trkpt>
   <trkpt lat="53.5421570" lon="-113.4696340">
    <ele>622.8</ele>
    <time>2026-08-23T17:22:22Z</time>
   </trkpt>
   <trkpt lat="53.5421570" lon="-113.4696340">
    <ele>622.8</ele>
    <time>2026-08-23T17:22:23Z</time>
   </trkpt>
   <trkpt lat="53.5421570" lon="-113.4696340">
    <ele>622.8</ele>
    <time>2026-08-23T17:22:24Z</time>
   </trkpt>
   <trkpt lat="53.5421570" lon="-113.4696340">
    <ele>622.8</ele>
    <time>2026-08-23T17:22:25Z</time>
   </trkpt>
   <trkpt lat="53.5421570" lon="-113.4696340">
    <ele>622.8</ele>
    <time>2026-08-23T17:22:26Z</time>
   </trkpt>
   <trkpt lat="53.5421570" lon="-113.4696340">
    <ele>622.8</ele>
    <time>2026-08-23T17:22:27Z</time>
   </trkpt>
   <trkpt lat="53.5421570" lon="-113.4696340">
    <ele>622.8</ele>
    <time>2026-08-23T17:22:28Z</time>
   </trkpt>
   <trkpt lat="53.5421570" lon="-113.4696340">
    <ele>622.8</ele>
    <time>2026-08-23T17:22:29Z</time>
   </trkpt>
   <trkpt lat="53.5421570" lon="-113.4696340">
    <ele>622.8</ele>
    <time>2026-08-23T17:22:30Z</time>
   </trkpt>
   <trkpt lat="53.5421570" lon="-113.4696340">
    <ele>622.8</ele>
    <time>2026-08-23T17:22:31Z</time>
   </trkpt>
   <trkpt lat="53.5421570" lon="-113.4696340">
    <ele>622.8</ele>
    <time>2026-08-23T17:22:32Z</time>
   </trkpt>
   <trkpt lat="53.5421570" lon="-113.4696340">
    <ele>622.8</ele>
    <time>2026-08-23T17:22:33Z</time>
   </trkpt>
   <trkpt lat="53.5421570" lon="-113.4696340">
    <ele>622.8</ele>
    <time>2026-08-23T17:22:34Z</time>
   </trkpt>
   <trkpt lat="53.5421570" lon="-113.4696340">
    <ele>622.8</ele>
    <time>2026-08-23T17:22:35Z</time>
   </trkpt>
   <trkpt lat="53.5421570" lon="-113.4696340">
    <ele>622.8</ele>
    <time>2026-08-23T17:22:36Z</time>
   </trkpt>
   <trkpt lat="53.5421570" lon="-113.4696340">
    <ele>622.8</ele>
    <time>2026-08-23T17:22:37Z</time>
   </trkpt>
   <trkpt lat="53.5421570" lon="-113.4696340">
    <ele>622.8</ele>
    <time>2026-08-23T17:22:38Z</time>
   </trkpt>
   <trkpt lat="53.5421570" lon="-113.4696340">
    <ele>622.8</ele>
    <time>2026-08-23T17:22:39Z</time>
   </trkpt>
   <trkpt lat="53.5421570" lon="-113.4696340">
    <ele>622.8</ele>
    <time>2026-08-23T17:22:40Z</time>
   </trkpt>
   <trkpt lat="53.5421570" lon="-113.4696340">
    <ele>622.8</ele>
    <time>2026-08-23T17:22:41Z</time>
   </trkpt>
   <trkpt lat="53.5421570" lon="-113.4696340">
    <ele>622.8</ele>
    <time>2026-08-23T17:22:42Z</time>
   </trkpt>
   <trkpt lat="53.5421570" lon="-113.4696340">
    <ele>622.8</ele>
    <time>2026-08-23T17:22:43Z</time>
   </trkpt>
   <trkpt lat="53.5421570" lon="-113.4696340">
    <ele>622.8</ele>
    <time>2026-08-23T17:22:44Z</time>
   </trkpt>
   <trkpt lat="53.5421570" lon="-113.4696340">
    <ele>622.8</ele>
    <time>2026-08-23T17:22:45Z</time>
   </trkpt>
   <trkpt lat="53.5421570" lon="-113.4696340">
    <ele>622.8</ele>
    <time>2026-08-23T17:22:46Z</time>
   </trkpt>
   <trkpt lat="53.5421590" lon="-113.4696490">
    <ele>622.8</ele>
    <time>2026-08-23T17:22:47Z</time>
   </trkpt>
   <trkpt lat="53.5421610" lon="-113.4696460">
    <ele>622.8</ele>
    <time>2026-08-23T17:22:48Z</time>
   </trkpt>
   <trkpt lat="53.5421610" lon="-113.4696460">
    <ele>622.8</ele>
    <time>2026-08-23T17:22:49Z</time>
   </trkpt>
   <trkpt lat="53.5421610" lon="-113.4696460">
    <ele>622.8</ele>
    <time>2026-08-23T17:22:50Z</time>
   </trkpt>
   <trkpt lat="53.5421610" lon="-113.4696460">
    <ele>622.8</ele>
    <time>2026-08-23T17:22:51Z</time>
   </trkpt>
   <trkpt lat="53.5421610" lon="-113.4696460">
    <ele>622.8</ele>
    <time>2026-08-23T17:22:52Z</time>
   </trkpt>
   <trkpt lat="53.5421610" lon="-113.4696460">
    <ele>622.8</ele>
    <time>2026-08-23T17:22:53Z</time>
   </trkpt>
   <trkpt lat="53.5421610" lon="-113.4696460">
    <ele>622.8</ele>
    <time>2026-08-23T17:22:54Z</time>
   </trkpt>
   <trkpt lat="53.5421610" lon="-113.4696460">
    <ele>622.8</ele>
    <time>2026-08-23T17:22:55Z</time>
   </trkpt>
   <trkpt lat="53.5421610" lon="-113.4696460">
    <ele>622.8</ele>
    <time>2026-08-23T17:22:56Z</time>
   </trkpt>
   <trkpt lat="53.5421610" lon="-113.4696460">
    <ele>622.8</ele>
    <time>2026-08-23T17:22:57Z</time>
   </trkpt>
   <trkpt lat="53.5421610" lon="-113.4696460">
    <ele>622.8</ele>
    <time>2026-08-23T17:22:58Z</time>
   </trkpt>
   <trkpt lat="53.5421610" lon="-113.4696460">
    <ele>622.8</ele>
    <time>2026-08-23T17:22:59Z</time>
   </trkpt>
   <trkpt lat="53.5421610" lon="-113.4696460">
    <ele>622.8</ele>
    <time>2026-08-23T17:23:00Z</time>
   </trkpt>
   <trkpt lat="53.5421560" lon="-113.4696290">
    <ele>622.8</ele>
    <time>2026-08-23T17:23:01Z</time>
   </trkpt>
   <trkpt lat="53.5421550" lon="-113.4696290">
    <ele>622.8</ele>
    <time>2026-08-23T17:23:02Z</time>
   </trkpt>
   <trkpt lat="53.5421550" lon="-113.4696290">
    <ele>622.8</ele>
    <time>2026-08-23T17:23:03Z</time>
   </trkpt>
   <trkpt lat="53.5421550" lon="-113.4696290">
    <ele>622.8</ele>
    <time>2026-08-23T17:23:04Z</time>
   </trkpt>
   <trkpt lat="53.5421550" lon="-113.4696290">
    <ele>622.8</ele>
    <time>2026-08-23T17:23:06Z</time>
   </trkpt>
   <trkpt lat="53.5421550" lon="-113.4696290">
    <ele>622.8</ele>
    <time>2026-08-23T17:23:07Z</time>
   </trkpt>
   <trkpt lat="53.5421550" lon="-113.4696290">
    <ele>622.8</ele>
    <time>2026-08-23T17:23:08Z</time>
   </trkpt>
   <trkpt lat="53.5421550" lon="-113.4696290">
    <ele>622.8</ele>
    <time>2026-08-23T17:23:09Z</time>
   </trkpt>
   <trkpt lat="53.5421550" lon="-113.4696290">
    <ele>622.8</ele>
    <time>2026-08-23T17:23:10Z</time>
   </trkpt>
   <trkpt lat="53.5421550" lon="-113.4696290">
    <ele>622.8</ele>
    <time>2026-08-23T17:23:11Z</time>
   </trkpt>
   <trkpt lat="53.5421550" lon="-113.4696290">
    <ele>622.8</ele>
    <time>2026-08-23T17:23:12Z</time>
   </trkpt>
   <trkpt lat="53.5421550" lon="-113.4696290">
    <ele>622.8</ele>
    <time>2026-08-23T17:23:13Z</time>
   </trkpt>
   <trkpt lat="53.5421550" lon="-113.4696290">
    <ele>622.8</ele>
    <time>2026-08-23T17:23:14Z</time>
   </trkpt>
   <trkpt lat="53.5421570" lon="-113.4696240">
    <ele>622.8</ele>
    <time>2026-08-23T17:23:15Z</time>
   </trkpt>
   <trkpt lat="53.5421560" lon="-113.4696230">
    <ele>622.8</ele>
    <time>2026-08-23T17:23:16Z</time>
   </trkpt>
   <trkpt lat="53.5421560" lon="-113.4696230">
    <ele>622.8</ele>
    <time>2026-08-23T17:23:17Z</time>
   </trkpt>
   <trkpt lat="53.5421560" lon="-113.4696230">
    <ele>622.8</ele>
    <time>2026-08-23T17:23:18Z</time>
   </trkpt>
   <trkpt lat="53.5421560" lon="-113.4696230">
    <ele>622.8</ele>
    <time>2026-08-23T17:23:19Z</time>
   </trkpt>
   <trkpt lat="53.5421560" lon="-113.4696230">
    <ele>622.8</ele>
    <time>2026-08-23T17:23:20Z</time>
   </trkpt>
   <trkpt lat="53.5421560" lon="-113.4696230">
    <ele>622.8</ele>
    <time>2026-08-23T17:23:21Z</time>
   </trkpt>
   <trkpt lat="53.5421560" lon="-113.4696230">
    <ele>622.8</ele>
    <time>2026-08-23T17:23:22Z</time>
   </trkpt>
   <trkpt lat="53.5421560" lon="-113.4696230">
    <ele>622.8</ele>
    <time>2026-08-23T17:23:23Z</time>
   </trkpt>
   <trkpt lat="53.5421560" lon="-113.4696230">
    <ele>622.8</ele>
    <time>2026-08-23T17:23:24Z</time>
   </trkpt>
   <trkpt lat="53.5421560" lon="-113.4696230">
    <ele>622.8</ele>
    <time>2026-08-23T17:23:25Z</time>
   </trkpt>
   <trkpt lat="53.5421560" lon="-113.4696230">
    <ele>622.8</ele>
    <time>2026-08-23T17:23:26Z</time>
   </trkpt>
   <trkpt lat="53.5421630" lon="-113.4696360">
    <ele>622.8</ele>
    <time>2026-08-23T17:23:27Z</time>
   </trkpt>
   <trkpt lat="53.5421670" lon="-113.4696430">
    <ele>622.8</ele>
    <time>2026-08-23T17:23:28Z</time>
   </trkpt>
   <trkpt lat="53.5421680" lon="-113.4696390">
    <ele>622.8</ele>
    <time>2026-08-23T17:23:29Z</time>
   </trkpt>
   <trkpt lat="53.5421680" lon="-113.4696390">
    <ele>622.8</ele>
    <time>2026-08-23T17:23:30Z</time>
   </trkpt>
   <trkpt lat="53.5421680" lon="-113.4696390">
    <ele>622.8</ele>
    <time>2026-08-23T17:23:31Z</time>
   </trkpt>
   <trkpt lat="53.5421690" lon="-113.4696410">
    <ele>622.8</ele>
    <time>2026-08-23T17:23:32Z</time>
   </trkpt>
   <trkpt lat="53.5421690" lon="-113.4696410">
    <ele>622.8</ele>
    <time>2026-08-23T17:23:33Z</time>
   </trkpt>
   <trkpt lat="53.5421690" lon="-113.4696410">
    <ele>622.8</ele>
    <time>2026-08-23T17:23:34Z</time>
   </trkpt>
   <trkpt lat="53.5421690" lon="-113.4696410">
    <ele>622.8</ele>
    <time>2026-08-23T17:23:35Z</time>
   </trkpt>
   <trkpt lat="53.5421690" lon="-113.4696410">
    <ele>622.8</ele>
    <time>2026-08-23T17:23:36Z</time>
   </trkpt>
   <trkpt lat="53.5421690" lon="-113.4696410">
    <ele>622.8</ele>
    <time>2026-08-23T17:23:37Z</time>
   </trkpt>
   <trkpt lat="53.5421690" lon="-113.4696410">
    <ele>622.8</ele>
    <time>2026-08-23T17:23:38Z</time>
   </trkpt>
   <trkpt lat="53.5421690" lon="-113.4696410">
    <ele>622.8</ele>
    <time>2026-08-23T17:23:39Z</time>
   </trkpt>
   <trkpt lat="53.5421740" lon="-113.4696290">
    <ele>622.8</ele>
    <time>2026-08-23T17:23:40Z</time>
   </trkpt>
   <trkpt lat="53.5421740" lon="-113.4696290">
    <ele>622.8</ele>
    <time>2026-08-23T17:23:41Z</time>
   </trkpt>
   <trkpt lat="53.5421730" lon="-113.4696340">
    <ele>622.8</ele>
    <time>2026-08-23T17:23:42Z</time>
   </trkpt>
   <trkpt lat="53.5421720" lon="-113.4696330">
    <ele>622.8</ele>
    <time>2026-08-23T17:23:43Z</time>
   </trkpt>
   <trkpt lat="53.5421720" lon="-113.4696330">
    <ele>622.8</ele>
    <time>2026-08-23T17:23:44Z</time>
   </trkpt>
   <trkpt lat="53.5421720" lon="-113.4696330">
    <ele>622.8</ele>
    <time>2026-08-23T17:23:45Z</time>
   </trkpt>
   <trkpt lat="53.5421720" lon="-113.4696330">
    <ele>622.8</ele>
    <time>2026-08-23T17:23:46Z</time>
   </trkpt>
   <trkpt lat="53.5421890" lon="-113.4696360">
    <ele>622.8</ele>
    <time>2026-08-23T17:23:47Z</time>
   </trkpt>
   <trkpt lat="53.5421890" lon="-113.4696370">
    <ele>622.8</ele>
    <time>2026-08-23T17:23:48Z</time>
   </trkpt>
   <trkpt lat="53.5421840" lon="-113.4696300">
    <ele>622.8</ele>
    <time>2026-08-23T17:23:49Z</time>
   </trkpt>
   <trkpt lat="53.5421840" lon="-113.4696300">
    <ele>622.8</ele>
    <time>2026-08-23T17:23:50Z</time>
   </trkpt>
   <trkpt lat="53.5421840" lon="-113.4696300">
    <ele>622.8</ele>
    <time>2026-08-23T17:23:51Z</time>
   </trkpt>
   <trkpt lat="53.5421840" lon="-113.4696300">
    <ele>622.8</ele>
    <time>2026-08-23T17:23:52Z</time>
   </trkpt>
   <trkpt lat="53.5421550" lon="-113.4696630">
    <ele>622.8</ele>
    <time>2026-08-23T17:23:53Z</time>
   </trkpt>
   <trkpt lat="53.5421690" lon="-113.4696600">
    <ele>622.8</ele>
    <time>2026-08-23T17:23:54Z</time>
   </trkpt>
   <trkpt lat="53.5421640" lon="-113.4696420">
    <ele>622.8</ele>
    <time>2026-08-23T17:23:55Z</time>
   </trkpt>
   <trkpt lat="53.5421630" lon="-113.4696360">
    <ele>622.8</ele>
    <time>2026-08-23T17:23:56Z</time>
   </trkpt>
   <trkpt lat="53.5421640" lon="-113.4696300">
    <ele>622.8</ele>
    <time>2026-08-23T17:23:57Z</time>
   </trkpt>
   <trkpt lat="53.5421650" lon="-113.4696340">
    <ele>622.8</ele>
    <time>2026-08-23T17:23:58Z</time>
   </trkpt>
   <trkpt lat="53.5421700" lon="-113.4696510">
    <ele>622.8</ele>
    <time>2026-08-23T17:23:59Z</time>
   </trkpt>
   <trkpt lat="53.5421700" lon="-113.4696510">
    <ele>622.8</ele>
    <time>2026-08-23T17:24:00Z</time>
   </trkpt>
   <trkpt lat="53.5421720" lon="-113.4696610">
    <ele>622.8</ele>
    <time>2026-08-23T17:24:01Z</time>
   </trkpt>
   <trkpt lat="53.5421730" lon="-113.4696490">
    <ele>622.8</ele>
    <time>2026-08-23T17:24:02Z</time>
   </trkpt>
   <trkpt lat="53.5421700" lon="-113.4696640">
    <ele>622.8</ele>
    <time>2026-08-23T17:24:03Z</time>
   </trkpt>
   <trkpt lat="53.5421710" lon="-113.4696690">
    <ele>622.8</ele>
    <time>2026-08-23T17:24:04Z</time>
   </trkpt>
   <trkpt lat="53.5421670" lon="-113.4696570">
    <ele>622.8</ele>
    <time>2026-08-23T17:24:05Z</time>
   </trkpt>
   <trkpt lat="53.5421630" lon="-113.4696520">
    <ele>622.8</ele>
    <time>2026-08-23T17:24:06Z</time>
   </trkpt>
   <trkpt lat="53.5421520" lon="-113.4696450">
    <ele>622.8</ele>
    <time>2026-08-23T17:24:07Z</time>
   </trkpt>
   <trkpt lat="53.5421430" lon="-113.4696490">
    <ele>622.8</ele>
    <time>2026-08-23T17:24:08Z</time>
   </trkpt>
   <trkpt lat="53.5421440" lon="-113.4696400">
    <ele>622.8</ele>
    <time>2026-08-23T17:24:09Z</time>
   </trkpt>
   <trkpt lat="53.5421360" lon="-113.4696360">
    <ele>622.8</ele>
    <time>2026-08-23T17:24:10Z</time>
   </trkpt>
   <trkpt lat="53.5421300" lon="-113.4696440">
    <ele>622.8</ele>
    <time>2026-08-23T17:24:11Z</time>
   </trkpt>
   <trkpt lat="53.5421300" lon="-113.4696440">
    <ele>622.8</ele>
    <time>2026-08-23T17:24:12Z</time>
   </trkpt>
   <trkpt lat="53.5421300" lon="-113.4696440">
    <ele>622.8</ele>
    <time>2026-08-23T17:24:13Z</time>
   </trkpt>
   <trkpt lat="53.5421300" lon="-113.4696440">
    <ele>622.8</ele>
    <time>2026-08-23T17:24:14Z</time>
   </trkpt>
   <trkpt lat="53.5421330" lon="-113.4696440">
    <ele>622.8</ele>
    <time>2026-08-23T17:24:15Z</time>
   </trkpt>
   <trkpt lat="53.5421390" lon="-113.4696500">
    <ele>622.8</ele>
    <time>2026-08-23T17:24:16Z</time>
   </trkpt>
   <trkpt lat="53.5421620" lon="-113.4696350">
    <ele>622.8</ele>
    <time>2026-08-23T17:24:17Z</time>
   </trkpt>
   <trkpt lat="53.5421620" lon="-113.4696420">
    <ele>622.8</ele>
    <time>2026-08-23T17:24:18Z</time>
   </trkpt>
   <trkpt lat="53.5421660" lon="-113.4696550">
    <ele>622.8</ele>
    <time>2026-08-23T17:24:19Z</time>
   </trkpt>
   <trkpt lat="53.5421710" lon="-113.4696800">
    <ele>622.8</ele>
    <time>2026-08-23T17:24:20Z</time>
   </trkpt>
   <trkpt lat="53.5421730" lon="-113.4696720">
    <ele>622.8</ele>
    <time>2026-08-23T17:24:21Z</time>
   </trkpt>
   <trkpt lat="53.5421760" lon="-113.4696720">
    <ele>622.8</ele>
    <time>2026-08-23T17:24:22Z</time>
   </trkpt>
   <trkpt lat="53.5421930" lon="-113.4696860">
    <ele>622.8</ele>
    <time>2026-08-23T17:24:23Z</time>
   </trkpt>
   <trkpt lat="53.5421920" lon="-113.4696830">
    <ele>622.8</ele>
    <time>2026-08-23T17:24:24Z</time>
   </trkpt>
   <trkpt lat="53.5421920" lon="-113.4696830">
    <ele>622.8</ele>
    <time>2026-08-23T17:24:25Z</time>
   </trkpt>
   <trkpt lat="53.5421920" lon="-113.4696830">
    <ele>622.8</ele>
    <time>2026-08-23T17:24:26Z</time>
   </trkpt>
   <trkpt lat="53.5421920" lon="-113.4696830">
    <ele>622.8</ele>
    <time>2026-08-23T17:24:27Z</time>
   </trkpt>
   <trkpt lat="53.5421920" lon="-113.4696830">
    <ele>622.8</ele>
    <time>2026-08-23T17:24:28Z</time>
   </trkpt>
   <trkpt lat="53.5421920" lon="-113.4696830">
    <ele>622.8</ele>
    <time>2026-08-23T17:24:29Z</time>
   </trkpt>
   <trkpt lat="53.5421920" lon="-113.4696830">
    <ele>622.8</ele>
    <time>2026-08-23T17:24:30Z</time>
   </trkpt>
   <trkpt lat="53.5421920" lon="-113.4696830">
    <ele>622.8</ele>
    <time>2026-08-23T17:24:31Z</time>
   </trkpt>
   <trkpt lat="53.5421920" lon="-113.4696830">
    <ele>622.8</ele>
    <time>2026-08-23T17:24:32Z</time>
   </trkpt>
   <trkpt lat="53.5421920" lon="-113.4696830">
    <ele>622.8</ele>
    <time>2026-08-23T17:24:33Z</time>
   </trkpt>
   <trkpt lat="53.5421920" lon="-113.4696830">
    <ele>622.8</ele>
    <time>2026-08-23T17:24:34Z</time>
   </trkpt>
   <trkpt lat="53.5421840" lon="-113.4696700">
    <ele>622.8</ele>
    <time>2026-08-23T17:24:35Z</time>
   </trkpt>
   <trkpt lat="53.5421800" lon="-113.4696710">
    <ele>622.8</ele>
    <time>2026-08-23T17:24:36Z</time>
   </trkpt>
   <trkpt lat="53.5421830" lon="-113.4696720">
    <ele>622.8</ele>
    <time>2026-08-23T17:24:37Z</time>
   </trkpt>
   <trkpt lat="53.5421780" lon="-113.4696670">
    <ele>622.8</ele>
    <time>2026-08-23T17:24:38Z</time>
   </trkpt>
   <trkpt lat="53.5421580" lon="-113.4696480">
    <ele>622.8</ele>
    <time>2026-08-23T17:24:39Z</time>
   </trkpt>
   <trkpt lat="53.5419590" lon="-113.4690520">
    <ele>622.9</ele>
    <time>2026-08-23T17:50:56Z</time>
   </trkpt>
   <trkpt lat="53.5419590" lon="-113.4690520">
    <ele>622.9</ele>
    <time>2026-08-23T17:50:57Z</time>
   </trkpt>
   <trkpt lat="53.5419440" lon="-113.4690720">
    <ele>622.9</ele>
    <time>2026-08-23T17:50:58Z</time>
   </trkpt>
   <trkpt lat="53.5419250" lon="-113.4690740">
    <ele>622.9</ele>
    <time>2026-08-23T17:50:59Z</time>
   </trkpt>
   <trkpt lat="53.5419110" lon="-113.4690280">
    <ele>622.9</ele>
    <time>2026-08-23T17:51:00Z</time>
   </trkpt>
   <trkpt lat="53.5419620" lon="-113.4689870">
    <ele>623.0</ele>
    <time>2026-08-23T17:51:01Z</time>
   </trkpt>
   <trkpt lat="53.5419480" lon="-113.4689870">
    <ele>623.0</ele>
    <time>2026-08-23T17:51:02Z</time>
   </trkpt>
   <trkpt lat="53.5419610" lon="-113.4689530">
    <ele>623.0</ele>
    <time>2026-08-23T17:51:03Z</time>
   </trkpt>
   <trkpt lat="53.5419240" lon="-113.4689190">
    <ele>623.0</ele>
    <time>2026-08-23T17:51:04Z</time>
   </trkpt>
   <trkpt lat="53.5419430" lon="-113.4688580">
    <ele>623.0</ele>
    <time>2026-08-23T17:51:05Z</time>
   </trkpt>
   <trkpt lat="53.5419390" lon="-113.4688240">
    <ele>623.0</ele>
    <time>2026-08-23T17:51:06Z</time>
   </trkpt>
   <trkpt lat="53.5419420" lon="-113.4687800">
    <ele>623.0</ele>
    <time>2026-08-23T17:51:07Z</time>
   </trkpt>
   <trkpt lat="53.5419630" lon="-113.4687430">
    <ele>623.0</ele>
    <time>2026-08-23T17:51:08Z</time>
   </trkpt>
   <trkpt lat="53.5419790" lon="-113.4686960">
    <ele>623.0</ele>
    <time>2026-08-23T17:51:09Z</time>
   </trkpt>
   <trkpt lat="53.5419840" lon="-113.4686760">
    <ele>623.0</ele>
    <time>2026-08-23T17:51:10Z</time>
   </trkpt>
   <trkpt lat="53.5419950" lon="-113.4686490">
    <ele>623.0</ele>
    <time>2026-08-23T17:51:11Z</time>
   </trkpt>
   <trkpt lat="53.5420120" lon="-113.4686400">
    <ele>623.1</ele>
    <time>2026-08-23T17:51:12Z</time>
   </trkpt>
   <trkpt lat="53.5420090" lon="-113.4686130">
    <ele>623.1</ele>
    <time>2026-08-23T17:51:13Z</time>
   </trkpt>
   <trkpt lat="53.5420160" lon="-113.4685650">
    <ele>623.1</ele>
    <time>2026-08-23T17:51:14Z</time>
   </trkpt>
   <trkpt lat="53.5420260" lon="-113.4684900">
    <ele>623.1</ele>
    <time>2026-08-23T17:51:15Z</time>
   </trkpt>
   <trkpt lat="53.5420330" lon="-113.4684320">
    <ele>623.1</ele>
    <time>2026-08-23T17:51:16Z</time>
   </trkpt>
   <trkpt lat="53.5420410" lon="-113.4683870">
    <ele>623.1</ele>
    <time>2026-08-23T17:51:17Z</time>
   </trkpt>
   <trkpt lat="53.5420510" lon="-113.4683360">
    <ele>623.1</ele>
    <time>2026-08-23T17:51:18Z</time>
   </trkpt>
   <trkpt lat="53.5420600" lon="-113.4682880">
    <ele>623.1</ele>
    <time>2026-08-23T17:51:19Z</time>
   </trkpt>
   <trkpt lat="53.5420680" lon="-113.4682340">
    <ele>623.1</ele>
    <time>2026-08-23T17:51:20Z</time>
   </trkpt>
   <trkpt lat="53.5420760" lon="-113.4681940">
    <ele>623.1</ele>
    <time>2026-08-23T17:51:21Z</time>
   </trkpt>
   <trkpt lat="53.5420760" lon="-113.4681920">
    <ele>623.1</ele>
    <time>2026-08-23T17:51:22Z</time>
   </trkpt>
   <trkpt lat="53.5420720" lon="-113.4681980">
    <ele>623.1</ele>
    <time>2026-08-23T17:51:23Z</time>
   </trkpt>
   <trkpt lat="53.5420710" lon="-113.4681840">
    <ele>623.1</ele>
    <time>2026-08-23T17:51:24Z</time>
   </trkpt>
   <trkpt lat="53.5420710" lon="-113.4681730">
    <ele>623.1</ele>
    <time>2026-08-23T17:51:25Z</time>
   </trkpt>
   <trkpt lat="53.5420780" lon="-113.4681390">
    <ele>623.1</ele>
    <time>2026-08-23T17:51:26Z</time>
   </trkpt>
   <trkpt lat="53.5420980" lon="-113.4681100">
    <ele>623.1</ele>
    <time>2026-08-23T17:51:27Z</time>
   </trkpt>
   <trkpt lat="53.5421090" lon="-113.4680750">
    <ele>623.1</ele>
    <time>2026-08-23T17:51:28Z</time>
   </trkpt>
   <trkpt lat="53.5421070" lon="-113.4680480">
    <ele>623.1</ele>
    <time>2026-08-23T17:51:29Z</time>
   </trkpt>
   <trkpt lat="53.5421120" lon="-113.4680490">
    <ele>623.1</ele>
    <time>2026-08-23T17:51:30Z</time>
   </trkpt>
   <trkpt lat="53.5421100" lon="-113.4680100">
    <ele>623.1</ele>
    <time>2026-08-23T17:51:31Z</time>
   </trkpt>
   <trkpt lat="53.5421060" lon="-113.4679500">
    <ele>623.1</ele>
    <time>2026-08-23T17:51:32Z</time>
   </trkpt>
   <trkpt lat="53.5421120" lon="-113.4679210">
    <ele>623.1</ele>
    <time>2026-08-23T17:51:33Z</time>
   </trkpt>
   <trkpt lat="53.5421210" lon="-113.4678920">
    <ele>623.1</ele>
    <time>2026-08-23T17:51:34Z</time>
   </trkpt>
   <trkpt lat="53.5421270" lon="-113.4678700">
    <ele>623.1</ele>
    <time>2026-08-23T17:51:35Z</time>
   </trkpt>
   <trkpt lat="53.5421370" lon="-113.4678300">
    <ele>623.1</ele>
    <time>2026-08-23T17:51:36Z</time>
   </trkpt>
   <trkpt lat="53.5421480" lon="-113.4678020">
    <ele>623.1</ele>
    <time>2026-08-23T17:51:37Z</time>
   </trkpt>
   <trkpt lat="53.5421590" lon="-113.4677730">
    <ele>623.1</ele>
    <time>2026-08-23T17:51:38Z</time>
   </trkpt>
   <trkpt lat="53.5421640" lon="-113.4677270">
    <ele>623.1</ele>
    <time>2026-08-23T17:51:39Z</time>
   </trkpt>
   <trkpt lat="53.5421600" lon="-113.4676870">
    <ele>623.1</ele>
    <time>2026-08-23T17:51:40Z</time>
   </trkpt>
   <trkpt lat="53.5421690" lon="-113.4676510">
    <ele>623.1</ele>
    <time>2026-08-23T17:51:41Z</time>
   </trkpt>
   <trkpt lat="53.5421740" lon="-113.4676110">
    <ele>623.1</ele>
    <time>2026-08-23T17:51:42Z</time>
   </trkpt>
   <trkpt lat="53.5421770" lon="-113.4675760">
    <ele>623.1</ele>
    <time>2026-08-23T17:51:43Z</time>
   </trkpt>
   <trkpt lat="53.5421800" lon="-113.4675400">
    <ele>623.1</ele>
    <time>2026-08-23T17:51:44Z</time>
   </trkpt>
   <trkpt lat="53.5421880" lon="-113.4675140">
    <ele>623.1</ele>
    <time>2026-08-23T17:51:45Z</time>
   </trkpt>
   <trkpt lat="53.5421920" lon="-113.4674760">
    <ele>623.0</ele>
    <time>2026-08-23T17:51:46Z</time>
   </trkpt>
   <trkpt lat="53.5421960" lon="-113.4674030">
    <ele>623.0</ele>
    <time>2026-08-23T17:51:47Z</time>
   </trkpt>
   <trkpt lat="53.5422000" lon="-113.4673770">
    <ele>623.0</ele>
    <time>2026-08-23T17:51:48Z</time>
   </trkpt>
   <trkpt lat="53.5422050" lon="-113.4673410">
    <ele>623.0</ele>
    <time>2026-08-23T17:51:49Z</time>
   </trkpt>
   <trkpt lat="53.5422120" lon="-113.4673040">
    <ele>623.0</ele>
    <time>2026-08-23T17:51:50Z</time>
   </trkpt>
   <trkpt lat="53.5422260" lon="-113.4672730">
    <ele>623.0</ele>
    <time>2026-08-23T17:51:51Z</time>
   </trkpt>
   <trkpt lat="53.5422320" lon="-113.4672310">
    <ele>623.0</ele>
    <time>2026-08-23T17:51:52Z</time>
   </trkpt>
   <trkpt lat="53.5422460" lon="-113.4672020">
    <ele>623.0</ele>
    <time>2026-08-23T17:51:53Z</time>
   </trkpt>
   <trkpt lat="53.5422440" lon="-113.4671640">
    <ele>623.0</ele>
    <time>2026-08-23T17:51:54Z</time>
   </trkpt>
   <trkpt lat="53.5422450" lon="-113.4671160">
    <ele>623.0</ele>
    <time>2026-08-23T17:51:55Z</time>
   </trkpt>
   <trkpt lat="53.5422460" lon="-113.4670730">
    <ele>622.9</ele>
    <time>2026-08-23T17:51:56Z</time>
   </trkpt>
   <trkpt lat="53.5422580" lon="-113.4670310">
    <ele>622.9</ele>
    <time>2026-08-23T17:51:57Z</time>
   </trkpt>
   <trkpt lat="53.5422570" lon="-113.4669860">
    <ele>622.9</ele>
    <time>2026-08-23T17:51:58Z</time>
   </trkpt>
   <trkpt lat="53.5422400" lon="-113.4669480">
    <ele>622.9</ele>
    <time>2026-08-23T17:51:59Z</time>
   </trkpt>
   <trkpt lat="53.5422200" lon="-113.4669090">
    <ele>622.9</ele>
    <time>2026-08-23T17:52:00Z</time>
   </trkpt>
   <trkpt lat="53.5422170" lon="-113.4668790">
    <ele>622.9</ele>
    <time>2026-08-23T17:52:01Z</time>
   </trkpt>
   <trkpt lat="53.5422170" lon="-113.4668490">
    <ele>622.9</ele>
    <time>2026-08-23T17:52:02Z</time>
   </trkpt>
   <trkpt lat="53.5422130" lon="-113.4668190">
    <ele>622.8</ele>
    <time>2026-08-23T17:52:03Z</time>
   </trkpt>
   <trkpt lat="53.5422020" lon="-113.4668040">
    <ele>622.8</ele>
    <time>2026-08-23T17:52:04Z</time>
   </trkpt>
   <trkpt lat="53.5421930" lon="-113.4667900">
    <ele>622.8</ele>
    <time>2026-08-23T17:52:05Z</time>
   </trkpt>
   <trkpt lat="53.5421700" lon="-113.4667400">
    <ele>622.8</ele>
    <time>2026-08-23T17:52:06Z</time>
   </trkpt>
   <trkpt lat="53.5421500" lon="-113.4667420">
    <ele>622.8</ele>
    <time>2026-08-23T17:52:07Z</time>
   </trkpt>
   <trkpt lat="53.5421270" lon="-113.4667270">
    <ele>622.8</ele>
    <time>2026-08-23T17:52:08Z</time>
   </trkpt>
   <trkpt lat="53.5421160" lon="-113.4667230">
    <ele>622.8</ele>
    <time>2026-08-23T17:52:09Z</time>
   </trkpt>
   <trkpt lat="53.5421100" lon="-113.4667130">
    <ele>622.8</ele>
    <time>2026-08-23T17:52:10Z</time>
   </trkpt>
   <trkpt lat="53.5421230" lon="-113.4667100">
    <ele>622.8</ele>
    <time>2026-08-23T17:52:11Z</time>
   </trkpt>
   <trkpt lat="53.5421320" lon="-113.4667340">
    <ele>622.8</ele>
    <time>2026-08-23T17:52:12Z</time>
   </trkpt>
   <trkpt lat="53.5421290" lon="-113.4667600">
    <ele>622.8</ele>
    <time>2026-08-23T17:52:13Z</time>
   </trkpt>
   <trkpt lat="53.5421300" lon="-113.4667800">
    <ele>622.8</ele>
    <time>2026-08-23T17:52:14Z</time>
   </trkpt>
   <trkpt lat="53.5421220" lon="-113.4668050">
    <ele>622.8</ele>
    <time>2026-08-23T17:52:15Z</time>
   </trkpt>
   <trkpt lat="53.5421100" lon="-113.4668110">
    <ele>622.8</ele>
    <time>2026-08-23T17:52:16Z</time>
   </trkpt>
   <trkpt lat="53.5420900" lon="-113.4667790">
    <ele>622.8</ele>
    <time>2026-08-23T17:52:17Z</time>
   </trkpt>
   <trkpt lat="53.5420750" lon="-113.4667510">
    <ele>622.8</ele>
    <time>2026-08-23T17:52:18Z</time>
   </trkpt>
   <trkpt lat="53.5420540" lon="-113.4667390">
    <ele>622.8</ele>
    <time>2026-08-23T17:52:19Z</time>
   </trkpt>
   <trkpt lat="53.5420260" lon="-113.4667160">
    <ele>622.8</ele>
    <time>2026-08-23T17:52:20Z</time>
   </trkpt>
   <trkpt lat="53.5419960" lon="-113.4666730">
    <ele>622.8</ele>
    <time>2026-08-23T17:52:21Z</time>
   </trkpt>
   <trkpt lat="53.5419660" lon="-113.4666370">
    <ele>622.7</ele>
    <time>2026-08-23T17:52:22Z</time>
   </trkpt>
   <trkpt lat="53.5419620" lon="-113.4666050">
    <ele>622.7</ele>
    <time>2026-08-23T17:52:23Z</time>
   </trkpt>
   <trkpt lat="53.5419330" lon="-113.4665900">
    <ele>622.7</ele>
    <time>2026-08-23T17:52:24Z</time>
   </trkpt>
   <trkpt lat="53.5419130" lon="-113.4665700">
    <ele>622.7</ele>
    <time>2026-08-23T17:52:25Z</time>
   </trkpt>
   <trkpt lat="53.5418840" lon="-113.4665490">
    <ele>622.7</ele>
    <time>2026-08-23T17:52:26Z</time>
   </trkpt>
   <trkpt lat="53.5418680" lon="-113.4665400">
    <ele>622.7</ele>
    <time>2026-08-23T17:52:27Z</time>
   </trkpt>
   <trkpt lat="53.5418600" lon="-113.4665530">
    <ele>622.7</ele>
    <time>2026-08-23T17:52:28Z</time>
   </trkpt>
   <trkpt lat="53.5418310" lon="-113.4665430">
    <ele>622.7</ele>
    <time>2026-08-23T17:52:29Z</time>
   </trkpt>
   <trkpt lat="53.5418020" lon="-113.4665240">
    <ele>622.7</ele>
    <time>2026-08-23T17:52:30Z</time>
   </trkpt>
   <trkpt lat="53.5417670" lon="-113.4664960">
    <ele>622.7</ele>
    <time>2026-08-23T17:52:31Z</time>
   </trkpt>
   <trkpt lat="53.5417660" lon="-113.4664800">
    <ele>622.7</ele>
    <time>2026-08-23T17:52:32Z</time>
   </trkpt>
   <trkpt lat="53.5417370" lon="-113.4664980">
    <ele>622.7</ele>
    <time>2026-08-23T17:52:33Z</time>
   </trkpt>
   <trkpt lat="53.5417150" lon="-113.4665040">
    <ele>622.7</ele>
    <time>2026-08-23T17:52:34Z</time>
   </trkpt>
   <trkpt lat="53.5416730" lon="-113.4664800">
    <ele>622.7</ele>
    <time>2026-08-23T17:52:35Z</time>
   </trkpt>
   <trkpt lat="53.5416680" lon="-113.4664720">
    <ele>622.6</ele>
    <time>2026-08-23T17:52:36Z</time>
   </trkpt>
   <trkpt lat="53.5416420" lon="-113.4664290">
    <ele>622.6</ele>
    <time>2026-08-23T17:52:37Z</time>
   </trkpt>
   <trkpt lat="53.5416040" lon="-113.4664020">
    <ele>622.6</ele>
    <time>2026-08-23T17:52:38Z</time>
   </trkpt>
   <trkpt lat="53.5415910" lon="-113.4664250">
    <ele>622.6</ele>
    <time>2026-08-23T17:52:39Z</time>
   </trkpt>
   <trkpt lat="53.5415520" lon="-113.4664080">
    <ele>622.6</ele>
    <time>2026-08-23T17:52:40Z</time>
   </trkpt>
   <trkpt lat="53.5414990" lon="-113.4663590">
    <ele>622.5</ele>
    <time>2026-08-23T17:52:41Z</time>
   </trkpt>
   <trkpt lat="53.5414490" lon="-113.4663330">
    <ele>622.5</ele>
    <time>2026-08-23T17:52:42Z</time>
   </trkpt>
   <trkpt lat="53.5414040" lon="-113.4663000">
    <ele>622.5</ele>
    <time>2026-08-23T17:52:43Z</time>
   </trkpt>
   <trkpt lat="53.5413660" lon="-113.4662550">
    <ele>622.5</ele>
    <time>2026-08-23T17:52:44Z</time>
   </trkpt>
   <trkpt lat="53.5413270" lon="-113.4662360">
    <ele>622.4</ele>
    <time>2026-08-23T17:52:45Z</time>
   </trkpt>
   <trkpt lat="53.5413050" lon="-113.4662360">
    <ele>622.4</ele>
    <time>2026-08-23T17:52:46Z</time>
   </trkpt>
   <trkpt lat="53.5412790" lon="-113.4662080">
    <ele>622.4</ele>
    <time>2026-08-23T17:52:47Z</time>
   </trkpt>
   <trkpt lat="53.5412620" lon="-113.4661690">
    <ele>622.4</ele>
    <time>2026-08-23T17:52:48Z</time>
   </trkpt>
   <trkpt lat="53.5412490" lon="-113.4661130">
    <ele>622.3</ele>
    <time>2026-08-23T17:52:49Z</time>
   </trkpt>
   <trkpt lat="53.5412440" lon="-113.4660420">
    <ele>622.2</ele>
    <time>2026-08-23T17:52:50Z</time>
   </trkpt>
   <trkpt lat="53.5412430" lon="-113.4659900">
    <ele>622.2</ele>
    <time>2026-08-23T17:52:51Z</time>
   </trkpt>
   <trkpt lat="53.5412560" lon="-113.4659320">
    <ele>622.1</ele>
    <time>2026-08-23T17:52:52Z</time>
   </trkpt>
   <trkpt lat="53.5412680" lon="-113.4658830">
    <ele>622.1</ele>
    <time>2026-08-23T17:52:53Z</time>
   </trkpt>
   <trkpt lat="53.5412810" lon="-113.4658380">
    <ele>622.0</ele>
    <time>2026-08-23T17:52:54Z</time>
   </trkpt>
   <trkpt lat="53.5412830" lon="-113.4657820">
    <ele>622.0</ele>
    <time>2026-08-23T17:52:55Z</time>
   </trkpt>
   <trkpt lat="53.5412670" lon="-113.4657220">
    <ele>621.9</ele>
    <time>2026-08-23T17:52:56Z</time>
   </trkpt>
   <trkpt lat="53.5412400" lon="-113.4656720">
    <ele>621.8</ele>
    <time>2026-08-23T17:52:57Z</time>
   </trkpt>
   <trkpt lat="53.5412400" lon="-113.4656320">
    <ele>621.8</ele>
    <time>2026-08-23T17:52:58Z</time>
   </trkpt>
   <trkpt lat="53.5412340" lon="-113.4655920">
    <ele>621.8</ele>
    <time>2026-08-23T17:52:59Z</time>
   </trkpt>
   <trkpt lat="53.5412510" lon="-113.4655420">
    <ele>621.8</ele>
    <time>2026-08-23T17:53:00Z</time>
   </trkpt>
   <trkpt lat="53.5412670" lon="-113.4654910">
    <ele>621.7</ele>
    <time>2026-08-23T17:53:01Z</time>
   </trkpt>
   <trkpt lat="53.5412770" lon="-113.4654390">
    <ele>621.7</ele>
    <time>2026-08-23T17:53:02Z</time>
   </trkpt>
   <trkpt lat="53.5412900" lon="-113.4654000">
    <ele>621.7</ele>
    <time>2026-08-23T17:53:03Z</time>
   </trkpt>
   <trkpt lat="53.5413130" lon="-113.4653600">
    <ele>621.6</ele>
    <time>2026-08-23T17:53:04Z</time>
   </trkpt>
   <trkpt lat="53.5413360" lon="-113.4653160">
    <ele>621.6</ele>
    <time>2026-08-23T17:53:05Z</time>
   </trkpt>
   <trkpt lat="53.5413660" lon="-113.4652950">
    <ele>621.6</ele>
    <time>2026-08-23T17:53:06Z</time>
   </trkpt>
   <trkpt lat="53.5413950" lon="-113.4652740">
    <ele>621.6</ele>
    <time>2026-08-23T17:53:07Z</time>
   </trkpt>
   <trkpt lat="53.5414220" lon="-113.4652240">
    <ele>621.6</ele>
    <time>2026-08-23T17:53:08Z</time>
   </trkpt>
   <trkpt lat="53.5414010" lon="-113.4651840">
    <ele>621.5</ele>
    <time>2026-08-23T17:53:09Z</time>
   </trkpt>
   <trkpt lat="53.5413740" lon="-113.4651640">
    <ele>621.5</ele>
    <time>2026-08-23T17:53:10Z</time>
   </trkpt>
   <trkpt lat="53.5413530" lon="-113.4651590">
    <ele>621.6</ele>
    <time>2026-08-23T17:53:11Z</time>
   </trkpt>
   <trkpt lat="53.5413410" lon="-113.4651550">
    <ele>621.6</ele>
    <time>2026-08-23T17:53:12Z</time>
   </trkpt>
   <trkpt lat="53.5413210" lon="-113.4651690">
    <ele>621.6</ele>
    <time>2026-08-23T17:53:13Z</time>
   </trkpt>
   <trkpt lat="53.5413030" lon="-113.4651660">
    <ele>621.6</ele>
    <time>2026-08-23T17:53:14Z</time>
   </trkpt>
   <trkpt lat="53.5412860" lon="-113.4651530">
    <ele>621.7</ele>
    <time>2026-08-23T17:53:15Z</time>
   </trkpt>
   <trkpt lat="53.5412650" lon="-113.4651440">
    <ele>621.7</ele>
    <time>2026-08-23T17:53:16Z</time>
   </trkpt>
   <trkpt lat="53.5412380" lon="-113.4651380">
    <ele>621.7</ele>
    <time>2026-08-23T17:53:17Z</time>
   </trkpt>
   <trkpt lat="53.5412130" lon="-113.4651370">
    <ele>621.8</ele>
    <time>2026-08-23T17:53:18Z</time>
   </trkpt>
   <trkpt lat="53.5412110" lon="-113.4651330">
    <ele>621.8</ele>
    <time>2026-08-23T17:53:19Z</time>
   </trkpt>
   <trkpt lat="53.5411990" lon="-113.4651220">
    <ele>621.8</ele>
    <time>2026-08-23T17:53:20Z</time>
   </trkpt>
   <trkpt lat="53.5411830" lon="-113.4651090">
    <ele>621.9</ele>
    <time>2026-08-23T17:53:21Z</time>
   </trkpt>
   <trkpt lat="53.5411570" lon="-113.4650910">
    <ele>621.9</ele>
    <time>2026-08-23T17:53:22Z</time>
   </trkpt>
   <trkpt lat="53.5411290" lon="-113.4650790">
    <ele>622.0</ele>
    <time>2026-08-23T17:53:23Z</time>
   </trkpt>
   <trkpt lat="53.5411000" lon="-113.4650770">
    <ele>622.1</ele>
    <time>2026-08-23T17:53:24Z</time>
   </trkpt>
   <trkpt lat="53.5410900" lon="-113.4650610">
    <ele>622.1</ele>
    <time>2026-08-23T17:53:25Z</time>
   </trkpt>
   <trkpt lat="53.5410690" lon="-113.4650470">
    <ele>622.2</ele>
    <time>2026-08-23T17:53:26Z</time>
   </trkpt>
   <trkpt lat="53.5410490" lon="-113.4650410">
    <ele>622.3</ele>
    <time>2026-08-23T17:53:27Z</time>
   </trkpt>
   <trkpt lat="53.5410290" lon="-113.4650330">
    <ele>622.3</ele>
    <time>2026-08-23T17:53:28Z</time>
   </trkpt>
   <trkpt lat="53.5410080" lon="-113.4650350">
    <ele>622.4</ele>
    <time>2026-08-23T17:53:29Z</time>
   </trkpt>
   <trkpt lat="53.5409830" lon="-113.4650350">
    <ele>622.6</ele>
    <time>2026-08-23T17:53:30Z</time>
   </trkpt>
   <trkpt lat="53.5409550" lon="-113.4650680">
    <ele>622.7</ele>
    <time>2026-08-23T17:53:31Z</time>
   </trkpt>
   <trkpt lat="53.5409520" lon="-113.4651080">
    <ele>622.8</ele>
    <time>2026-08-23T17:53:32Z</time>
   </trkpt>
   <trkpt lat="53.5409540" lon="-113.4651500">
    <ele>622.9</ele>
    <time>2026-08-23T17:53:33Z</time>
   </trkpt>
   <trkpt lat="53.5409500" lon="-113.4651830">
    <ele>623.0</ele>
    <time>2026-08-23T17:53:34Z</time>
   </trkpt>
   <trkpt lat="53.5409460" lon="-113.4652110">
    <ele>623.1</ele>
    <time>2026-08-23T17:53:35Z</time>
   </trkpt>
   <trkpt lat="53.5409340" lon="-113.4652500">
    <ele>623.2</ele>
    <time>2026-08-23T17:53:36Z</time>
   </trkpt>
   <trkpt lat="53.5409110" lon="-113.4652810">
    <ele>623.3</ele>
    <time>2026-08-23T17:53:37Z</time>
   </trkpt>
   <trkpt lat="53.5409080" lon="-113.4653210">
    <ele>623.4</ele>
    <time>2026-08-23T17:53:38Z</time>
   </trkpt>
   <trkpt lat="53.5408910" lon="-113.4653550">
    <ele>623.5</ele>
    <time>2026-08-23T17:53:39Z</time>
   </trkpt>
   <trkpt lat="53.5408760" lon="-113.4653950">
    <ele>623.5</ele>
    <time>2026-08-23T17:53:40Z</time>
   </trkpt>
   <trkpt lat="53.5408440" lon="-113.4654230">
    <ele>623.6</ele>
    <time>2026-08-23T17:53:41Z</time>
   </trkpt>
   <trkpt lat="53.5408230" lon="-113.4654820">
    <ele>623.7</ele>
    <time>2026-08-23T17:53:42Z</time>
   </trkpt>
   <trkpt lat="53.5408060" lon="-113.4655320">
    <ele>623.7</ele>
    <time>2026-08-23T17:53:43Z</time>
   </trkpt>
   <trkpt lat="53.5407900" lon="-113.4656030">
    <ele>623.7</ele>
    <time>2026-08-23T17:53:44Z</time>
   </trkpt>
   <trkpt lat="53.5407900" lon="-113.4656620">
    <ele>623.7</ele>
    <time>2026-08-23T17:53:45Z</time>
   </trkpt>
   <trkpt lat="53.5407920" lon="-113.4657050">
    <ele>623.7</ele>
    <time>2026-08-23T17:53:46Z</time>
   </trkpt>
   <trkpt lat="53.5407860" lon="-113.4657520">
    <ele>623.7</ele>
    <time>2026-08-23T17:53:47Z</time>
   </trkpt>
   <trkpt lat="53.5407780" lon="-113.4657930">
    <ele>623.6</ele>
    <time>2026-08-23T17:53:48Z</time>
   </trkpt>
   <trkpt lat="53.5407720" lon="-113.4658190">
    <ele>623.6</ele>
    <time>2026-08-23T17:53:49Z</time>
   </trkpt>
   <trkpt lat="53.5407560" lon="-113.4658440">
    <ele>623.6</ele>
    <time>2026-08-23T17:53:50Z</time>
   </trkpt>
   <trkpt lat="53.5407480" lon="-113.4658670">
    <ele>623.6</ele>
    <time>2026-08-23T17:53:51Z</time>
   </trkpt>
   <trkpt lat="53.5407390" lon="-113.4658910">
    <ele>623.6</ele>
    <time>2026-08-23T17:53:52Z</time>
   </trkpt>
   <trkpt lat="53.5407350" lon="-113.4659080">
    <ele>623.6</ele>
    <time>2026-08-23T17:53:53Z</time>
   </trkpt>
   <trkpt lat="53.5407300" lon="-113.4659380">
    <ele>623.6</ele>
    <time>2026-08-23T17:53:54Z</time>
   </trkpt>
   <trkpt lat="53.5407190" lon="-113.4659840">
    <ele>623.6</ele>
    <time>2026-08-23T17:53:55Z</time>
   </trkpt>
   <trkpt lat="53.5407010" lon="-113.4660400">
    <ele>623.5</ele>
    <time>2026-08-23T17:53:56Z</time>
   </trkpt>
   <trkpt lat="53.5406990" lon="-113.4660680">
    <ele>623.5</ele>
    <time>2026-08-23T17:53:57Z</time>
   </trkpt>
   <trkpt lat="53.5406880" lon="-113.4661170">
    <ele>623.5</ele>
    <time>2026-08-23T17:53:58Z</time>
   </trkpt>
   <trkpt lat="53.5406810" lon="-113.4661430">
    <ele>623.5</ele>
    <time>2026-08-23T17:53:59Z</time>
   </trkpt>
   <trkpt lat="53.5406770" lon="-113.4661810">
    <ele>623.5</ele>
    <time>2026-08-23T17:54:00Z</time>
   </trkpt>
   <trkpt lat="53.5406690" lon="-113.4662180">
    <ele>623.5</ele>
    <time>2026-08-23T17:54:01Z</time>
   </trkpt>
   <trkpt lat="53.5406600" lon="-113.4662630">
    <ele>623.5</ele>
    <time>2026-08-23T17:54:02Z</time>
   </trkpt>
   <trkpt lat="53.5406510" lon="-113.4663130">
    <ele>623.5</ele>
    <time>2026-08-23T17:54:03Z</time>
   </trkpt>
   <trkpt lat="53.5406520" lon="-113.4663590">
    <ele>623.4</ele>
    <time>2026-08-23T17:54:04Z</time>
   </trkpt>
   <trkpt lat="53.5406420" lon="-113.4664170">
    <ele>623.4</ele>
    <time>2026-08-23T17:54:05Z</time>
   </trkpt>
   <trkpt lat="53.5406360" lon="-113.4664660">
    <ele>623.4</ele>
    <time>2026-08-23T17:54:06Z</time>
   </trkpt>
   <trkpt lat="53.5406250" lon="-113.4665110">
    <ele>623.4</ele>
    <time>2026-08-23T17:54:07Z</time>
   </trkpt>
   <trkpt lat="53.5406140" lon="-113.4665570">
    <ele>623.4</ele>
    <time>2026-08-23T17:54:08Z</time>
   </trkpt>
   <trkpt lat="53.5406080" lon="-113.4666050">
    <ele>623.3</ele>
    <time>2026-08-23T17:54:09Z</time>
   </trkpt>
   <trkpt lat="53.5406100" lon="-113.4666480">
    <ele>623.3</ele>
    <time>2026-08-23T17:54:10Z</time>
   </trkpt>
   <trkpt lat="53.5406080" lon="-113.4666910">
    <ele>623.3</ele>
    <time>2026-08-23T17:54:11Z</time>
   </trkpt>
   <trkpt lat="53.5406060" lon="-113.4667300">
    <ele>623.3</ele>
    <time>2026-08-23T17:54:12Z</time>
   </trkpt>
   <trkpt lat="53.5406000" lon="-113.4667820">
    <ele>623.2</ele>
    <time>2026-08-23T17:54:13Z</time>
   </trkpt>
   <trkpt lat="53.5405980" lon="-113.4668270">
    <ele>623.2</ele>
    <time>2026-08-23T17:54:14Z</time>
   </trkpt>
   <trkpt lat="53.5405980" lon="-113.4668680">
    <ele>623.2</ele>
    <time>2026-08-23T17:54:15Z</time>
   </trkpt>
   <trkpt lat="53.5405960" lon="-113.4669180">
    <ele>623.1</ele>
    <time>2026-08-23T17:54:16Z</time>
   </trkpt>
   <trkpt lat="53.5405930" lon="-113.4669740">
    <ele>623.1</ele>
    <time>2026-08-23T17:54:17Z</time>
   </trkpt>
   <trkpt lat="53.5405870" lon="-113.4670260">
    <ele>623.1</ele>
    <time>2026-08-23T17:54:18Z</time>
   </trkpt>
   <trkpt lat="53.5405830" lon="-113.4670700">
    <ele>623.0</ele>
    <time>2026-08-23T17:54:19Z</time>
   </trkpt>
   <trkpt lat="53.5405800" lon="-113.4671180">
    <ele>623.0</ele>
    <time>2026-08-23T17:54:20Z</time>
   </trkpt>
   <trkpt lat="53.5405800" lon="-113.4671670">
    <ele>623.0</ele>
    <time>2026-08-23T17:54:21Z</time>
   </trkpt>
   <trkpt lat="53.5405820" lon="-113.4672200">
    <ele>623.0</ele>
    <time>2026-08-23T17:54:22Z</time>
   </trkpt>
   <trkpt lat="53.5405820" lon="-113.4672620">
    <ele>623.0</ele>
    <time>2026-08-23T17:54:23Z</time>
   </trkpt>
   <trkpt lat="53.5405810" lon="-113.4673070">
    <ele>622.9</ele>
    <time>2026-08-23T17:54:24Z</time>
   </trkpt>
   <trkpt lat="53.5405810" lon="-113.4673500">
    <ele>622.9</ele>
    <time>2026-08-23T17:54:25Z</time>
   </trkpt>
   <trkpt lat="53.5405760" lon="-113.4673920">
    <ele>622.9</ele>
    <time>2026-08-23T17:54:26Z</time>
   </trkpt>
   <trkpt lat="53.5405770" lon="-113.4674410">
    <ele>622.9</ele>
    <time>2026-08-23T17:54:27Z</time>
   </trkpt>
   <trkpt lat="53.5405790" lon="-113.4674850">
    <ele>622.9</ele>
    <time>2026-08-23T17:54:28Z</time>
   </trkpt>
   <trkpt lat="53.5405790" lon="-113.4675290">
    <ele>622.9</ele>
    <time>2026-08-23T17:54:29Z</time>
   </trkpt>
   <trkpt lat="53.5405820" lon="-113.4675830">
    <ele>622.9</ele>
    <time>2026-08-23T17:54:30Z</time>
   </trkpt>
   <trkpt lat="53.5405850" lon="-113.4676410">
    <ele>622.8</ele>
    <time>2026-08-23T17:54:31Z</time>
   </trkpt>
   <trkpt lat="53.5405980" lon="-113.4677040">
    <ele>622.8</ele>
    <time>2026-08-23T17:54:32Z</time>
   </trkpt>
   <trkpt lat="53.5406000" lon="-113.4677620">
    <ele>622.8</ele>
    <time>2026-08-23T17:54:33Z</time>
   </trkpt>
   <trkpt lat="53.5405990" lon="-113.4678180">
    <ele>622.8</ele>
    <time>2026-08-23T17:54:34Z</time>
   </trkpt>
   <trkpt lat="53.5406030" lon="-113.4678790">
    <ele>622.8</ele>
    <time>2026-08-23T17:54:35Z</time>
   </trkpt>
   <trkpt lat="53.5406090" lon="-113.4679310">
    <ele>622.8</ele>
    <time>2026-08-23T17:54:36Z</time>
   </trkpt>
   <trkpt lat="53.5406160" lon="-113.4679900">
    <ele>622.8</ele>
    <time>2026-08-23T17:54:37Z</time>
   </trkpt>
   <trkpt lat="53.5406270" lon="-113.4680470">
    <ele>622.9</ele>
    <time>2026-08-23T17:54:38Z</time>
   </trkpt>
   <trkpt lat="53.5406350" lon="-113.4681020">
    <ele>622.9</ele>
    <time>2026-08-23T17:54:39Z</time>
   </trkpt>
   <trkpt lat="53.5406410" lon="-113.4681550">
    <ele>622.9</ele>
    <time>2026-08-23T17:54:40Z</time>
   </trkpt>
   <trkpt lat="53.5406460" lon="-113.4682150">
    <ele>623.0</ele>
    <time>2026-08-23T17:54:41Z</time>
   </trkpt>
   <trkpt lat="53.5406530" lon="-113.4682750">
    <ele>623.0</ele>
    <time>2026-08-23T17:54:42Z</time>
   </trkpt>
   <trkpt lat="53.5406680" lon="-113.4683350">
    <ele>623.1</ele>
    <time>2026-08-23T17:54:43Z</time>
   </trkpt>
   <trkpt lat="53.5406760" lon="-113.4683900">
    <ele>623.1</ele>
    <time>2026-08-23T17:54:44Z</time>
   </trkpt>
   <trkpt lat="53.5406770" lon="-113.4684310">
    <ele>623.2</ele>
    <time>2026-08-23T17:54:45Z</time>
   </trkpt>
   <trkpt lat="53.5406810" lon="-113.4684650">
    <ele>623.2</ele>
    <time>2026-08-23T17:54:46Z</time>
   </trkpt>
   <trkpt lat="53.5406930" lon="-113.4685010">
    <ele>623.2</ele>
    <time>2026-08-23T17:54:47Z</time>
   </trkpt>
   <trkpt lat="53.5406990" lon="-113.4685470">
    <ele>623.2</ele>
    <time>2026-08-23T17:54:48Z</time>
   </trkpt>
   <trkpt lat="53.5407030" lon="-113.4685930">
    <ele>623.2</ele>
    <time>2026-08-23T17:54:49Z</time>
   </trkpt>
   <trkpt lat="53.5407060" lon="-113.4686290">
    <ele>623.3</ele>
    <time>2026-08-23T17:54:50Z</time>
   </trkpt>
   <trkpt lat="53.5407120" lon="-113.4686600">
    <ele>623.3</ele>
    <time>2026-08-23T17:54:51Z</time>
   </trkpt>
   <trkpt lat="53.5407130" lon="-113.4687090">
    <ele>623.3</ele>
    <time>2026-08-23T17:54:52Z</time>
   </trkpt>
   <trkpt lat="53.5407160" lon="-113.4687620">
    <ele>623.3</ele>
    <time>2026-08-23T17:54:53Z</time>
   </trkpt>
   <trkpt lat="53.5407210" lon="-113.4687960">
    <ele>623.3</ele>
    <time>2026-08-23T17:54:54Z</time>
   </trkpt>
   <trkpt lat="53.5407250" lon="-113.4688360">
    <ele>623.3</ele>
    <time>2026-08-23T17:54:55Z</time>
   </trkpt>
   <trkpt lat="53.5407320" lon="-113.4688780">
    <ele>623.3</ele>
    <time>2026-08-23T17:54:56Z</time>
   </trkpt>
   <trkpt lat="53.5407350" lon="-113.4689130">
    <ele>623.3</ele>
    <time>2026-08-23T17:54:57Z</time>
   </trkpt>
   <trkpt lat="53.5407430" lon="-113.4689530">
    <ele>623.3</ele>
    <time>2026-08-23T17:54:58Z</time>
   </trkpt>
   <trkpt lat="53.5407560" lon="-113.4689820">
    <ele>623.2</ele>
    <time>2026-08-23T17:54:59Z</time>
   </trkpt>
   <trkpt lat="53.5407570" lon="-113.4690320">
    <ele>623.2</ele>
    <time>2026-08-23T17:55:00Z</time>
   </trkpt>
   <trkpt lat="53.5407610" lon="-113.4690830">
    <ele>623.2</ele>
    <time>2026-08-23T17:55:01Z</time>
   </trkpt>
   <trkpt lat="53.5407690" lon="-113.4691280">
    <ele>623.2</ele>
    <time>2026-08-23T17:55:02Z</time>
   </trkpt>
   <trkpt lat="53.5407720" lon="-113.4691890">
    <ele>623.2</ele>
    <time>2026-08-23T17:55:03Z</time>
   </trkpt>
   <trkpt lat="53.5407790" lon="-113.4692800">
    <ele>623.2</ele>
    <time>2026-08-23T17:55:04Z</time>
   </trkpt>
   <trkpt lat="53.5407810" lon="-113.4693470">
    <ele>623.2</ele>
    <time>2026-08-23T17:55:05Z</time>
   </trkpt>
   <trkpt lat="53.5407900" lon="-113.4694120">
    <ele>623.2</ele>
    <time>2026-08-23T17:55:06Z</time>
   </trkpt>
   <trkpt lat="53.5407980" lon="-113.4694870">
    <ele>623.2</ele>
    <time>2026-08-23T17:55:07Z</time>
   </trkpt>
   <trkpt lat="53.5408080" lon="-113.4695540">
    <ele>623.2</ele>
    <time>2026-08-23T17:55:08Z</time>
   </trkpt>
   <trkpt lat="53.5408060" lon="-113.4696100">
    <ele>623.2</ele>
    <time>2026-08-23T17:55:09Z</time>
   </trkpt>
   <trkpt lat="53.5408020" lon="-113.4696640">
    <ele>623.2</ele>
    <time>2026-08-23T17:55:10Z</time>
   </trkpt>
   <trkpt lat="53.5408040" lon="-113.4697140">
    <ele>623.2</ele>
    <time>2026-08-23T17:55:11Z</time>
   </trkpt>
   <trkpt lat="53.5408070" lon="-113.4697650">
    <ele>623.2</ele>
    <time>2026-08-23T17:55:12Z</time>
   </trkpt>
   <trkpt lat="53.5408070" lon="-113.4698180">
    <ele>623.2</ele>
    <time>2026-08-23T17:55:13Z</time>
   </trkpt>
   <trkpt lat="53.5408100" lon="-113.4698690">
    <ele>623.2</ele>
    <time>2026-08-23T17:55:14Z</time>
   </trkpt>
   <trkpt lat="53.5408190" lon="-113.4699200">
    <ele>623.1</ele>
    <time>2026-08-23T17:55:15Z</time>
   </trkpt>
   <trkpt lat="53.5408310" lon="-113.4699760">
    <ele>623.1</ele>
    <time>2026-08-23T17:55:16Z</time>
   </trkpt>
   <trkpt lat="53.5408430" lon="-113.4700350">
    <ele>623.1</ele>
    <time>2026-08-23T17:55:17Z</time>
   </trkpt>
   <trkpt lat="53.5408570" lon="-113.4700900">
    <ele>623.0</ele>
    <time>2026-08-23T17:55:18Z</time>
   </trkpt>
   <trkpt lat="53.5408750" lon="-113.4701460">
    <ele>623.0</ele>
    <time>2026-08-23T17:55:19Z</time>
   </trkpt>
   <trkpt lat="53.5408940" lon="-113.4701980">
    <ele>622.9</ele>
    <time>2026-08-23T17:55:20Z</time>
   </trkpt>
   <trkpt lat="53.5409040" lon="-113.4702530">
    <ele>622.8</ele>
    <time>2026-08-23T17:55:21Z</time>
   </trkpt>
   <trkpt lat="53.5409160" lon="-113.4703190">
    <ele>622.7</ele>
    <time>2026-08-23T17:55:22Z</time>
   </trkpt>
   <trkpt lat="53.5409200" lon="-113.4703920">
    <ele>622.6</ele>
    <time>2026-08-23T17:55:23Z</time>
   </trkpt>
   <trkpt lat="53.5409220" lon="-113.4704670">
    <ele>622.5</ele>
    <time>2026-08-23T17:55:24Z</time>
   </trkpt>
   <trkpt lat="53.5409210" lon="-113.4705400">
    <ele>622.4</ele>
    <time>2026-08-23T17:55:25Z</time>
   </trkpt>
   <trkpt lat="53.5409100" lon="-113.4706070">
    <ele>622.4</ele>
    <time>2026-08-23T17:55:26Z</time>
   </trkpt>
   <trkpt lat="53.5408920" lon="-113.4706700">
    <ele>622.5</ele>
    <time>2026-08-23T17:55:27Z</time>
   </trkpt>
   <trkpt lat="53.5408770" lon="-113.4707260">
    <ele>622.5</ele>
    <time>2026-08-23T17:55:28Z</time>
   </trkpt>
   <trkpt lat="53.5408680" lon="-113.4707800">
    <ele>622.5</ele>
    <time>2026-08-23T17:55:29Z</time>
   </trkpt>
   <trkpt lat="53.5408650" lon="-113.4708460">
    <ele>622.6</ele>
    <time>2026-08-23T17:55:30Z</time>
   </trkpt>
   <trkpt lat="53.5408650" lon="-113.4709000">
    <ele>622.6</ele>
    <time>2026-08-23T17:55:31Z</time>
   </trkpt>
   <trkpt lat="53.5408690" lon="-113.4709560">
    <ele>622.6</ele>
    <time>2026-08-23T17:55:32Z</time>
   </trkpt>
   <trkpt lat="53.5408750" lon="-113.4710110">
    <ele>622.7</ele>
    <time>2026-08-23T17:55:33Z</time>
   </trkpt>
   <trkpt lat="53.5408880" lon="-113.4710630">
    <ele>622.7</ele>
    <time>2026-08-23T17:55:34Z</time>
   </trkpt>
   <trkpt lat="53.5409010" lon="-113.4711090">
    <ele>622.8</ele>
    <time>2026-08-23T17:55:35Z</time>
   </trkpt>
   <trkpt lat="53.5409090" lon="-113.4711600">
    <ele>622.9</ele>
    <time>2026-08-23T17:55:36Z</time>
   </trkpt>
   <trkpt lat="53.5409200" lon="-113.4712010">
    <ele>623.0</ele>
    <time>2026-08-23T17:55:37Z</time>
   </trkpt>
   <trkpt lat="53.5409240" lon="-113.4712510">
    <ele>623.1</ele>
    <time>2026-08-23T17:55:38Z</time>
   </trkpt>
   <trkpt lat="53.5409280" lon="-113.4713020">
    <ele>623.2</ele>
    <time>2026-08-23T17:55:39Z</time>
   </trkpt>
   <trkpt lat="53.5409340" lon="-113.4713480">
    <ele>623.3</ele>
    <time>2026-08-23T17:55:40Z</time>
   </trkpt>
   <trkpt lat="53.5409390" lon="-113.4713950">
    <ele>623.5</ele>
    <time>2026-08-23T17:55:41Z</time>
   </trkpt>
   <trkpt lat="53.5409400" lon="-113.4714420">
    <ele>623.6</ele>
    <time>2026-08-23T17:55:42Z</time>
   </trkpt>
   <trkpt lat="53.5409400" lon="-113.4714950">
    <ele>623.9</ele>
    <time>2026-08-23T17:55:43Z</time>
   </trkpt>
   <trkpt lat="53.5409460" lon="-113.4715340">
    <ele>624.0</ele>
    <time>2026-08-23T17:55:44Z</time>
   </trkpt>
   <trkpt lat="53.5409400" lon="-113.4715700">
    <ele>624.2</ele>
    <time>2026-08-23T17:55:45Z</time>
   </trkpt>
   <trkpt lat="53.5409350" lon="-113.4716060">
    <ele>624.3</ele>
    <time>2026-08-23T17:55:46Z</time>
   </trkpt>
   <trkpt lat="53.5409340" lon="-113.4716350">
    <ele>624.4</ele>
    <time>2026-08-23T17:55:47Z</time>
   </trkpt>
   <trkpt lat="53.5409360" lon="-113.4716850">
    <ele>624.6</ele>
    <time>2026-08-23T17:55:48Z</time>
   </trkpt>
   <trkpt lat="53.5409410" lon="-113.4717160">
    <ele>624.7</ele>
    <time>2026-08-23T17:55:49Z</time>
   </trkpt>
   <trkpt lat="53.5409480" lon="-113.4717560">
    <ele>624.9</ele>
    <time>2026-08-23T17:55:50Z</time>
   </trkpt>
   <trkpt lat="53.5409460" lon="-113.4718030">
    <ele>625.0</ele>
    <time>2026-08-23T17:55:51Z</time>
   </trkpt>
   <trkpt lat="53.5409390" lon="-113.4718510">
    <ele>625.1</ele>
    <time>2026-08-23T17:55:52Z</time>
   </trkpt>
   <trkpt lat="53.5409590" lon="-113.4718960">
    <ele>625.2</ele>
    <time>2026-08-23T17:55:53Z</time>
   </trkpt>
   <trkpt lat="53.5409640" lon="-113.4719400">
    <ele>625.3</ele>
    <time>2026-08-23T17:55:54Z</time>
   </trkpt>
   <trkpt lat="53.5409640" lon="-113.4719850">
    <ele>625.3</ele>
    <time>2026-08-23T17:55:55Z</time>
   </trkpt>
   <trkpt lat="53.5409670" lon="-113.4720370">
    <ele>625.4</ele>
    <time>2026-08-23T17:55:56Z</time>
   </trkpt>
   <trkpt lat="53.5409710" lon="-113.4720980">
    <ele>625.4</ele>
    <time>2026-08-23T17:55:57Z</time>
   </trkpt>
   <trkpt lat="53.5409820" lon="-113.4721840">
    <ele>625.4</ele>
    <time>2026-08-23T17:55:58Z</time>
   </trkpt>
   <trkpt lat="53.5409830" lon="-113.4721950">
    <ele>625.4</ele>
    <time>2026-08-23T17:55:59Z</time>
   </trkpt>
   <trkpt lat="53.5409840" lon="-113.4722340">
    <ele>625.5</ele>
    <time>2026-08-23T17:56:00Z</time>
   </trkpt>
   <trkpt lat="53.5409840" lon="-113.4722530">
    <ele>625.5</ele>
    <time>2026-08-23T17:56:01Z</time>
   </trkpt>
   <trkpt lat="53.5409860" lon="-113.4722900">
    <ele>625.5</ele>
    <time>2026-08-23T17:56:02Z</time>
   </trkpt>
   <trkpt lat="53.5410010" lon="-113.4723410">
    <ele>625.5</ele>
    <time>2026-08-23T17:56:03Z</time>
   </trkpt>
   <trkpt lat="53.5410110" lon="-113.4723810">
    <ele>625.6</ele>
    <time>2026-08-23T17:56:04Z</time>
   </trkpt>
   <trkpt lat="53.5410120" lon="-113.4724150">
    <ele>625.6</ele>
    <time>2026-08-23T17:56:05Z</time>
   </trkpt>
   <trkpt lat="53.5410120" lon="-113.4724650">
    <ele>625.6</ele>
    <time>2026-08-23T17:56:06Z</time>
   </trkpt>
   <trkpt lat="53.5410100" lon="-113.4725280">
    <ele>625.7</ele>
    <time>2026-08-23T17:56:07Z</time>
   </trkpt>
   <trkpt lat="53.5410130" lon="-113.4726100">
    <ele>625.8</ele>
    <time>2026-08-23T17:56:08Z</time>
   </trkpt>
   <trkpt lat="53.5410330" lon="-113.4726980">
    <ele>625.8</ele>
    <time>2026-08-23T17:56:09Z</time>
   </trkpt>
   <trkpt lat="53.5410490" lon="-113.4727760">
    <ele>625.8</ele>
    <time>2026-08-23T17:56:10Z</time>
   </trkpt>
   <trkpt lat="53.5410570" lon="-113.4728530">
    <ele>625.9</ele>
    <time>2026-08-23T17:56:11Z</time>
   </trkpt>
   <trkpt lat="53.5410620" lon="-113.4729330">
    <ele>625.9</ele>
    <time>2026-08-23T17:56:12Z</time>
   </trkpt>
   <trkpt lat="53.5410720" lon="-113.4730090">
    <ele>626.0</ele>
    <time>2026-08-23T17:56:13Z</time>
   </trkpt>
   <trkpt lat="53.5410940" lon="-113.4730660">
    <ele>626.0</ele>
    <time>2026-08-23T17:56:14Z</time>
   </trkpt>
   <trkpt lat="53.5411040" lon="-113.4731310">
    <ele>626.1</ele>
    <time>2026-08-23T17:56:15Z</time>
   </trkpt>
   <trkpt lat="53.5411130" lon="-113.4731850">
    <ele>626.1</ele>
    <time>2026-08-23T17:56:16Z</time>
   </trkpt>
   <trkpt lat="53.5411220" lon="-113.4732400">
    <ele>626.2</ele>
    <time>2026-08-23T17:56:17Z</time>
   </trkpt>
   <trkpt lat="53.5411200" lon="-113.4732810">
    <ele>626.3</ele>
    <time>2026-08-23T17:56:18Z</time>
   </trkpt>
   <trkpt lat="53.5411270" lon="-113.4733270">
    <ele>626.3</ele>
    <time>2026-08-23T17:56:19Z</time>
   </trkpt>
   <trkpt lat="53.5411310" lon="-113.4733610">
    <ele>626.4</ele>
    <time>2026-08-23T17:56:20Z</time>
   </trkpt>
   <trkpt lat="53.5411360" lon="-113.4733940">
    <ele>626.5</ele>
    <time>2026-08-23T17:56:21Z</time>
   </trkpt>
   <trkpt lat="53.5411340" lon="-113.4734160">
    <ele>626.5</ele>
    <time>2026-08-23T17:56:22Z</time>
   </trkpt>
   <trkpt lat="53.5411350" lon="-113.4734510">
    <ele>626.6</ele>
    <time>2026-08-23T17:56:23Z</time>
   </trkpt>
   <trkpt lat="53.5411360" lon="-113.4734950">
    <ele>626.7</ele>
    <time>2026-08-23T17:56:24Z</time>
   </trkpt>
   <trkpt lat="53.5411330" lon="-113.4735510">
    <ele>626.8</ele>
    <time>2026-08-23T17:56:25Z</time>
   </trkpt>
   <trkpt lat="53.5411350" lon="-113.4736080">
    <ele>627.0</ele>
    <time>2026-08-23T17:56:26Z</time>
   </trkpt>
   <trkpt lat="53.5411400" lon="-113.4736690">
    <ele>627.1</ele>
    <time>2026-08-23T17:56:27Z</time>
   </trkpt>
   <trkpt lat="53.5411510" lon="-113.4737340">
    <ele>627.4</ele>
    <time>2026-08-23T17:56:28Z</time>
   </trkpt>
   <trkpt lat="53.5411580" lon="-113.4737960">
    <ele>627.6</ele>
    <time>2026-08-23T17:56:29Z</time>
   </trkpt>
   <trkpt lat="53.5411750" lon="-113.4738620">
    <ele>628.0</ele>
    <time>2026-08-23T17:56:30Z</time>
   </trkpt>
   <trkpt lat="53.5411870" lon="-113.4739430">
    <ele>628.4</ele>
    <time>2026-08-23T17:56:31Z</time>
   </trkpt>
   <trkpt lat="53.5412000" lon="-113.4739940">
    <ele>628.6</ele>
    <time>2026-08-23T17:56:32Z</time>
   </trkpt>
   <trkpt lat="53.5412020" lon="-113.4740340">
    <ele>628.8</ele>
    <time>2026-08-23T17:56:33Z</time>
   </trkpt>
   <trkpt lat="53.5411890" lon="-113.4740360">
    <ele>628.9</ele>
    <time>2026-08-23T17:56:34Z</time>
   </trkpt>
   <trkpt lat="53.5411890" lon="-113.4740450">
    <ele>629.0</ele>
    <time>2026-08-23T17:56:35Z</time>
   </trkpt>
   <trkpt lat="53.5411940" lon="-113.4740650">
    <ele>629.1</ele>
    <time>2026-08-23T17:56:36Z</time>
   </trkpt>
   <trkpt lat="53.5412020" lon="-113.4740740">
    <ele>629.2</ele>
    <time>2026-08-23T17:56:37Z</time>
   </trkpt>
   <trkpt lat="53.5412130" lon="-113.4740930">
    <ele>629.3</ele>
    <time>2026-08-23T17:56:38Z</time>
   </trkpt>
   <trkpt lat="53.5412140" lon="-113.4741060">
    <ele>629.3</ele>
    <time>2026-08-23T17:56:39Z</time>
   </trkpt>
   <trkpt lat="53.5412160" lon="-113.4741330">
    <ele>629.5</ele>
    <time>2026-08-23T17:56:40Z</time>
   </trkpt>
   <trkpt lat="53.5412230" lon="-113.4741560">
    <ele>629.6</ele>
    <time>2026-08-23T17:56:41Z</time>
   </trkpt>
   <trkpt lat="53.5412280" lon="-113.4741810">
    <ele>629.7</ele>
    <time>2026-08-23T17:56:42Z</time>
   </trkpt>
   <trkpt lat="53.5412270" lon="-113.4742030">
    <ele>629.8</ele>
    <time>2026-08-23T17:56:43Z</time>
   </trkpt>
   <trkpt lat="53.5412160" lon="-113.4742040">
    <ele>629.9</ele>
    <time>2026-08-23T17:56:44Z</time>
   </trkpt>
   <trkpt lat="53.5412080" lon="-113.4742030">
    <ele>630.0</ele>
    <time>2026-08-23T17:56:45Z</time>
   </trkpt>
   <trkpt lat="53.5411990" lon="-113.4742170">
    <ele>630.1</ele>
    <time>2026-08-23T17:56:46Z</time>
   </trkpt>
   <trkpt lat="53.5412040" lon="-113.4742320">
    <ele>630.2</ele>
    <time>2026-08-23T17:56:47Z</time>
   </trkpt>
   <trkpt lat="53.5412090" lon="-113.4742490">
    <ele>630.2</ele>
    <time>2026-08-23T17:56:48Z</time>
   </trkpt>
   <trkpt lat="53.5412070" lon="-113.4742790">
    <ele>630.4</ele>
    <time>2026-08-23T17:56:49Z</time>
   </trkpt>
   <trkpt lat="53.5412000" lon="-113.4742990">
    <ele>630.5</ele>
    <time>2026-08-23T17:56:50Z</time>
   </trkpt>
   <trkpt lat="53.5412020" lon="-113.4743030">
    <ele>630.5</ele>
    <time>2026-08-23T17:56:51Z</time>
   </trkpt>
   <trkpt lat="53.5412010" lon="-113.4743030">
    <ele>630.5</ele>
    <time>2026-08-23T17:56:52Z</time>
   </trkpt>
   <trkpt lat="53.5411970" lon="-113.4743280">
    <ele>630.6</ele>
    <time>2026-08-23T17:56:53Z</time>
   </trkpt>
   <trkpt lat="53.5411940" lon="-113.4743630">
    <ele>630.7</ele>
    <time>2026-08-23T17:56:54Z</time>
   </trkpt>
   <trkpt lat="53.5411940" lon="-113.4744000">
    <ele>630.8</ele>
    <time>2026-08-23T17:56:55Z</time>
   </trkpt>
   <trkpt lat="53.5411970" lon="-113.4744440">
    <ele>630.9</ele>
    <time>2026-08-23T17:56:56Z</time>
   </trkpt>
   <trkpt lat="53.5411930" lon="-113.4744760">
    <ele>631.0</ele>
    <time>2026-08-23T17:56:57Z</time>
   </trkpt>
   <trkpt lat="53.5411820" lon="-113.4744890">
    <ele>631.1</ele>
    <time>2026-08-23T17:56:58Z</time>
   </trkpt>
   <trkpt lat="53.5411750" lon="-113.4745080">
    <ele>631.1</ele>
    <time>2026-08-23T17:56:59Z</time>
   </trkpt>
   <trkpt lat="53.5411770" lon="-113.4745230">
    <ele>631.1</ele>
    <time>2026-08-23T17:57:00Z</time>
   </trkpt>
   <trkpt lat="53.5411810" lon="-113.4745330">
    <ele>631.1</ele>
    <time>2026-08-23T17:57:01Z</time>
   </trkpt>
   <trkpt lat="53.5411870" lon="-113.4745350">
    <ele>631.2</ele>
    <time>2026-08-23T17:57:02Z</time>
   </trkpt>
   <trkpt lat="53.5411850" lon="-113.4745370">
    <ele>631.2</ele>
    <time>2026-08-23T17:57:03Z</time>
   </trkpt>
   <trkpt lat="53.5411810" lon="-113.4745510">
    <ele>631.2</ele>
    <time>2026-08-23T17:57:04Z</time>
   </trkpt>
   <trkpt lat="53.5411720" lon="-113.4745770">
    <ele>631.2</ele>
    <time>2026-08-23T17:57:05Z</time>
   </trkpt>
   <trkpt lat="53.5411750" lon="-113.4745930">
    <ele>631.2</ele>
    <time>2026-08-23T17:57:06Z</time>
   </trkpt>
   <trkpt lat="53.5411740" lon="-113.4746010">
    <ele>631.2</ele>
    <time>2026-08-23T17:57:07Z</time>
   </trkpt>
   <trkpt lat="53.5411690" lon="-113.4746100">
    <ele>631.2</ele>
    <time>2026-08-23T17:57:08Z</time>
   </trkpt>
   <trkpt lat="53.5411610" lon="-113.4746350">
    <ele>631.2</ele>
    <time>2026-08-23T17:57:09Z</time>
   </trkpt>
   <trkpt lat="53.5411610" lon="-113.4746570">
    <ele>631.2</ele>
    <time>2026-08-23T17:57:10Z</time>
   </trkpt>
   <trkpt lat="53.5411610" lon="-113.4746760">
    <ele>631.2</ele>
    <time>2026-08-23T17:57:11Z</time>
   </trkpt>
   <trkpt lat="53.5411630" lon="-113.4747110">
    <ele>631.2</ele>
    <time>2026-08-23T17:57:12Z</time>
   </trkpt>
   <trkpt lat="53.5411630" lon="-113.4747430">
    <ele>631.2</ele>
    <time>2026-08-23T17:57:13Z</time>
   </trkpt>
   <trkpt lat="53.5411670" lon="-113.4747760">
    <ele>631.2</ele>
    <time>2026-08-23T17:57:14Z</time>
   </trkpt>
   <trkpt lat="53.5411700" lon="-113.4748160">
    <ele>631.1</ele>
    <time>2026-08-23T17:57:15Z</time>
   </trkpt>
   <trkpt lat="53.5411730" lon="-113.4748500">
    <ele>631.1</ele>
    <time>2026-08-23T17:57:16Z</time>
   </trkpt>
   <trkpt lat="53.5411810" lon="-113.4748870">
    <ele>631.0</ele>
    <time>2026-08-23T17:57:17Z</time>
   </trkpt>
   <trkpt lat="53.5411890" lon="-113.4749360">
    <ele>631.0</ele>
    <time>2026-08-23T17:57:18Z</time>
   </trkpt>
   <trkpt lat="53.5411960" lon="-113.4749900">
    <ele>630.9</ele>
    <time>2026-08-23T17:57:19Z</time>
   </trkpt>
   <trkpt lat="53.5412050" lon="-113.4750370">
    <ele>630.9</ele>
    <time>2026-08-23T17:57:20Z</time>
   </trkpt>
   <trkpt lat="53.5412170" lon="-113.4750850">
    <ele>630.8</ele>
    <time>2026-08-23T17:57:21Z</time>
   </trkpt>
   <trkpt lat="53.5412270" lon="-113.4751290">
    <ele>630.8</ele>
    <time>2026-08-23T17:57:22Z</time>
   </trkpt>
   <trkpt lat="53.5412340" lon="-113.4751750">
    <ele>630.8</ele>
    <time>2026-08-23T17:57:23Z</time>
   </trkpt>
   <trkpt lat="53.5412400" lon="-113.4752230">
    <ele>630.8</ele>
    <time>2026-08-23T17:57:24Z</time>
   </trkpt>
   <trkpt lat="53.5412500" lon="-113.4752670">
    <ele>630.8</ele>
    <time>2026-08-23T17:57:25Z</time>
   </trkpt>
   <trkpt lat="53.5412590" lon="-113.4753100">
    <ele>630.8</ele>
    <time>2026-08-23T17:57:26Z</time>
   </trkpt>
   <trkpt lat="53.5412720" lon="-113.4753600">
    <ele>630.8</ele>
    <time>2026-08-23T17:57:27Z</time>
   </trkpt>
   <trkpt lat="53.5412760" lon="-113.4754030">
    <ele>630.9</ele>
    <time>2026-08-23T17:57:28Z</time>
   </trkpt>
   <trkpt lat="53.5412820" lon="-113.4754480">
    <ele>630.9</ele>
    <time>2026-08-23T17:57:29Z</time>
   </trkpt>
   <trkpt lat="53.5412910" lon="-113.4754910">
    <ele>631.0</ele>
    <time>2026-08-23T17:57:30Z</time>
   </trkpt>
   <trkpt lat="53.5412970" lon="-113.4755340">
    <ele>631.0</ele>
    <time>2026-08-23T17:57:31Z</time>
   </trkpt>
   <trkpt lat="53.5413050" lon="-113.4755740">
    <ele>631.1</ele>
    <time>2026-08-23T17:57:32Z</time>
   </trkpt>
   <trkpt lat="53.5413100" lon="-113.4756080">
    <ele>631.1</ele>
    <time>2026-08-23T17:57:33Z</time>
   </trkpt>
   <trkpt lat="53.5413160" lon="-113.4756460">
    <ele>631.2</ele>
    <time>2026-08-23T17:57:34Z</time>
   </trkpt>
   <trkpt lat="53.5413230" lon="-113.4756850">
    <ele>631.3</ele>
    <time>2026-08-23T17:57:35Z</time>
   </trkpt>
   <trkpt lat="53.5413280" lon="-113.4757210">
    <ele>631.3</ele>
    <time>2026-08-23T17:57:36Z</time>
   </trkpt>
   <trkpt lat="53.5413330" lon="-113.4757580">
    <ele>631.3</ele>
    <time>2026-08-23T17:57:37Z</time>
   </trkpt>
   <trkpt lat="53.5413380" lon="-113.4757980">
    <ele>631.2</ele>
    <time>2026-08-23T17:57:38Z</time>
   </trkpt>
   <trkpt lat="53.5413430" lon="-113.4758300">
    <ele>631.1</ele>
    <time>2026-08-23T17:57:39Z</time>
   </trkpt>
   <trkpt lat="53.5413390" lon="-113.4758620">
    <ele>631.0</ele>
    <time>2026-08-23T17:57:40Z</time>
   </trkpt>
   <trkpt lat="53.5413370" lon="-113.4758940">
    <ele>630.9</ele>
    <time>2026-08-23T17:57:41Z</time>
   </trkpt>
   <trkpt lat="53.5413320" lon="-113.4759210">
    <ele>630.8</ele>
    <time>2026-08-23T17:57:42Z</time>
   </trkpt>
   <trkpt lat="53.5413270" lon="-113.4759550">
    <ele>630.7</ele>
    <time>2026-08-23T17:57:43Z</time>
   </trkpt>
   <trkpt lat="53.5413210" lon="-113.4759930">
    <ele>630.6</ele>
    <time>2026-08-23T17:57:44Z</time>
   </trkpt>
   <trkpt lat="53.5413180" lon="-113.4760400">
    <ele>630.3</ele>
    <time>2026-08-23T17:57:45Z</time>
   </trkpt>
   <trkpt lat="53.5413190" lon="-113.4760920">
    <ele>630.1</ele>
    <time>2026-08-23T17:57:46Z</time>
   </trkpt>
   <trkpt lat="53.5413150" lon="-113.4761840">
    <ele>629.7</ele>
    <time>2026-08-23T17:57:47Z</time>
   </trkpt>
   <trkpt lat="53.5413050" lon="-113.4762140">
    <ele>629.5</ele>
    <time>2026-08-23T17:57:48Z</time>
   </trkpt>
   <trkpt lat="53.5413010" lon="-113.4763200">
    <ele>629.0</ele>
    <time>2026-08-23T17:57:49Z</time>
   </trkpt>
   <trkpt lat="53.5412980" lon="-113.4764130">
    <ele>628.6</ele>
    <time>2026-08-23T17:57:50Z</time>
   </trkpt>
   <trkpt lat="53.5412850" lon="-113.4765170">
    <ele>628.1</ele>
    <time>2026-08-23T17:57:51Z</time>
   </trkpt>
   <trkpt lat="53.5412700" lon="-113.4766170">
    <ele>627.8</ele>
    <time>2026-08-23T17:57:52Z</time>
   </trkpt>
   <trkpt lat="53.5412590" lon="-113.4767150">
    <ele>627.5</ele>
    <time>2026-08-23T17:57:53Z</time>
   </trkpt>
   <trkpt lat="53.5412470" lon="-113.4768090">
    <ele>627.3</ele>
    <time>2026-08-23T17:57:54Z</time>
   </trkpt>
   <trkpt lat="53.5412340" lon="-113.4768990">
    <ele>627.2</ele>
    <time>2026-08-23T17:57:55Z</time>
   </trkpt>
   <trkpt lat="53.5412230" lon="-113.4769820">
    <ele>627.1</ele>
    <time>2026-08-23T17:57:56Z</time>
   </trkpt>
   <trkpt lat="53.5412110" lon="-113.4770620">
    <ele>627.0</ele>
    <time>2026-08-23T17:57:57Z</time>
   </trkpt>
   <trkpt lat="53.5412030" lon="-113.4771430">
    <ele>626.9</ele>
    <time>2026-08-23T17:57:58Z</time>
   </trkpt>
   <trkpt lat="53.5412010" lon="-113.4772150">
    <ele>626.9</ele>
    <time>2026-08-23T17:57:59Z</time>
   </trkpt>
   <trkpt lat="53.5412050" lon="-113.4772890">
    <ele>627.0</ele>
    <time>2026-08-23T17:58:00Z</time>
   </trkpt>
   <trkpt lat="53.5412000" lon="-113.4773510">
    <ele>627.0</ele>
    <time>2026-08-23T17:58:01Z</time>
   </trkpt>
   <trkpt lat="53.5411970" lon="-113.4774150">
    <ele>627.0</ele>
    <time>2026-08-23T17:58:02Z</time>
   </trkpt>
   <trkpt lat="53.5411940" lon="-113.4774670">
    <ele>627.0</ele>
    <time>2026-08-23T17:58:03Z</time>
   </trkpt>
   <trkpt lat="53.5411940" lon="-113.4775170">
    <ele>627.0</ele>
    <time>2026-08-23T17:58:04Z</time>
   </trkpt>
   <trkpt lat="53.5411870" lon="-113.4775640">
    <ele>627.0</ele>
    <time>2026-08-23T17:58:05Z</time>
   </trkpt>
   <trkpt lat="53.5411850" lon="-113.4776220">
    <ele>627.0</ele>
    <time>2026-08-23T17:58:06Z</time>
   </trkpt>
   <trkpt lat="53.5411780" lon="-113.4776710">
    <ele>627.0</ele>
    <time>2026-08-23T17:58:07Z</time>
   </trkpt>
   <trkpt lat="53.5411740" lon="-113.4777200">
    <ele>627.0</ele>
    <time>2026-08-23T17:58:08Z</time>
   </trkpt>
   <trkpt lat="53.5411670" lon="-113.4777710">
    <ele>627.0</ele>
    <time>2026-08-23T17:58:09Z</time>
   </trkpt>
   <trkpt lat="53.5411650" lon="-113.4777990">
    <ele>627.0</ele>
    <time>2026-08-23T17:58:10Z</time>
   </trkpt>
   <trkpt lat="53.5411570" lon="-113.4778430">
    <ele>627.0</ele>
    <time>2026-08-23T17:58:11Z</time>
   </trkpt>
   <trkpt lat="53.5411510" lon="-113.4778900">
    <ele>627.0</ele>
    <time>2026-08-23T17:58:12Z</time>
   </trkpt>
   <trkpt lat="53.5411420" lon="-113.4779390">
    <ele>626.9</ele>
    <time>2026-08-23T17:58:13Z</time>
   </trkpt>
   <trkpt lat="53.5411340" lon="-113.4779920">
    <ele>626.9</ele>
    <time>2026-08-23T17:58:14Z</time>
   </trkpt>
   <trkpt lat="53.5411260" lon="-113.4780490">
    <ele>626.9</ele>
    <time>2026-08-23T17:58:15Z</time>
   </trkpt>
   <trkpt lat="53.5411220" lon="-113.4781050">
    <ele>626.8</ele>
    <time>2026-08-23T17:58:16Z</time>
   </trkpt>
   <trkpt lat="53.5411150" lon="-113.4781550">
    <ele>626.8</ele>
    <time>2026-08-23T17:58:17Z</time>
   </trkpt>
   <trkpt lat="53.5411100" lon="-113.4782020">
    <ele>626.8</ele>
    <time>2026-08-23T17:58:18Z</time>
   </trkpt>
   <trkpt lat="53.5411020" lon="-113.4782420">
    <ele>626.7</ele>
    <time>2026-08-23T17:58:19Z</time>
   </trkpt>
   <trkpt lat="53.5410960" lon="-113.4782830">
    <ele>626.7</ele>
    <time>2026-08-23T17:58:20Z</time>
   </trkpt>
   <trkpt lat="53.5410890" lon="-113.4783230">
    <ele>626.6</ele>
    <time>2026-08-23T17:58:21Z</time>
   </trkpt>
   <trkpt lat="53.5410760" lon="-113.4783630">
    <ele>626.6</ele>
    <time>2026-08-23T17:58:22Z</time>
   </trkpt>
   <trkpt lat="53.5410710" lon="-113.4784110">
    <ele>626.5</ele>
    <time>2026-08-23T17:58:23Z</time>
   </trkpt>
   <trkpt lat="53.5410630" lon="-113.4784640">
    <ele>626.4</ele>
    <time>2026-08-23T17:58:24Z</time>
   </trkpt>
   <trkpt lat="53.5410540" lon="-113.4785220">
    <ele>626.2</ele>
    <time>2026-08-23T17:58:25Z</time>
   </trkpt>
   <trkpt lat="53.5410400" lon="-113.4785810">
    <ele>626.0</ele>
    <time>2026-08-23T17:58:26Z</time>
   </trkpt>
   <trkpt lat="53.5410240" lon="-113.4786430">
    <ele>625.8</ele>
    <time>2026-08-23T17:58:27Z</time>
   </trkpt>
   <trkpt lat="53.5410140" lon="-113.4787100">
    <ele>625.5</ele>
    <time>2026-08-23T17:58:28Z</time>
   </trkpt>
   <trkpt lat="53.5410050" lon="-113.4787680">
    <ele>625.3</ele>
    <time>2026-08-23T17:58:29Z</time>
   </trkpt>
   <trkpt lat="53.5409960" lon="-113.4788290">
    <ele>625.1</ele>
    <time>2026-08-23T17:58:30Z</time>
   </trkpt>
   <trkpt lat="53.5409840" lon="-113.4788920">
    <ele>624.9</ele>
    <time>2026-08-23T17:58:31Z</time>
   </trkpt>
   <trkpt lat="53.5409710" lon="-113.4789560">
    <ele>624.7</ele>
    <time>2026-08-23T17:58:32Z</time>
   </trkpt>
   <trkpt lat="53.5409620" lon="-113.4790150">
    <ele>624.5</ele>
    <time>2026-08-23T17:58:33Z</time>
   </trkpt>
   <trkpt lat="53.5409520" lon="-113.4790730">
    <ele>624.2</ele>
    <time>2026-08-23T17:58:34Z</time>
   </trkpt>
   <trkpt lat="53.5409430" lon="-113.4791290">
    <ele>624.0</ele>
    <time>2026-08-23T17:58:35Z</time>
   </trkpt>
   <trkpt lat="53.5409280" lon="-113.4791860">
    <ele>623.8</ele>
    <time>2026-08-23T17:58:36Z</time>
   </trkpt>
   <trkpt lat="53.5409130" lon="-113.4792430">
    <ele>623.6</ele>
    <time>2026-08-23T17:58:37Z</time>
   </trkpt>
   <trkpt lat="53.5409020" lon="-113.4793000">
    <ele>623.5</ele>
    <time>2026-08-23T17:58:38Z</time>
   </trkpt>
   <trkpt lat="53.5408880" lon="-113.4793590">
    <ele>623.3</ele>
    <time>2026-08-23T17:58:39Z</time>
   </trkpt>
   <trkpt lat="53.5408750" lon="-113.4794140">
    <ele>623.1</ele>
    <time>2026-08-23T17:58:40Z</time>
   </trkpt>
   <trkpt lat="53.5408680" lon="-113.4794720">
    <ele>623.0</ele>
    <time>2026-08-23T17:58:41Z</time>
   </trkpt>
   <trkpt lat="53.5408580" lon="-113.4795310">
    <ele>623.0</ele>
    <time>2026-08-23T17:58:42Z</time>
   </trkpt>
   <trkpt lat="53.5408430" lon="-113.4795960">
    <ele>622.9</ele>
    <time>2026-08-23T17:58:43Z</time>
   </trkpt>
   <trkpt lat="53.5408280" lon="-113.4796550">
    <ele>622.8</ele>
    <time>2026-08-23T17:58:44Z</time>
   </trkpt>
   <trkpt lat="53.5408250" lon="-113.4797280">
    <ele>622.7</ele>
    <time>2026-08-23T17:58:45Z</time>
   </trkpt>
   <trkpt lat="53.5408300" lon="-113.4797990">
    <ele>622.7</ele>
    <time>2026-08-23T17:58:46Z</time>
   </trkpt>
   <trkpt lat="53.5408370" lon="-113.4798630">
    <ele>622.6</ele>
    <time>2026-08-23T17:58:47Z</time>
   </trkpt>
   <trkpt lat="53.5408400" lon="-113.4799260">
    <ele>622.6</ele>
    <time>2026-08-23T17:58:48Z</time>
   </trkpt>
   <trkpt lat="53.5408340" lon="-113.4799860">
    <ele>622.6</ele>
    <time>2026-08-23T17:58:49Z</time>
   </trkpt>
   <trkpt lat="53.5408330" lon="-113.4800360">
    <ele>622.6</ele>
    <time>2026-08-23T17:58:50Z</time>
   </trkpt>
   <trkpt lat="53.5408310" lon="-113.4800730">
    <ele>622.6</ele>
    <time>2026-08-23T17:58:51Z</time>
   </trkpt>
   <trkpt lat="53.5408300" lon="-113.4800980">
    <ele>622.6</ele>
    <time>2026-08-23T17:58:52Z</time>
   </trkpt>
   <trkpt lat="53.5408260" lon="-113.4801260">
    <ele>622.6</ele>
    <time>2026-08-23T17:58:53Z</time>
   </trkpt>
   <trkpt lat="53.5408230" lon="-113.4801630">
    <ele>622.5</ele>
    <time>2026-08-23T17:58:54Z</time>
   </trkpt>
   <trkpt lat="53.5408170" lon="-113.4801990">
    <ele>622.5</ele>
    <time>2026-08-23T17:58:55Z</time>
   </trkpt>
   <trkpt lat="53.5408130" lon="-113.4802400">
    <ele>622.5</ele>
    <time>2026-08-23T17:58:56Z</time>
   </trkpt>
   <trkpt lat="53.5408110" lon="-113.4802730">
    <ele>622.5</ele>
    <time>2026-08-23T17:58:57Z</time>
   </trkpt>
   <trkpt lat="53.5408110" lon="-113.4803070">
    <ele>622.5</ele>
    <time>2026-08-23T17:58:58Z</time>
   </trkpt>
   <trkpt lat="53.5408000" lon="-113.4803470">
    <ele>622.5</ele>
    <time>2026-08-23T17:58:59Z</time>
   </trkpt>
   <trkpt lat="53.5407940" lon="-113.4803880">
    <ele>622.5</ele>
    <time>2026-08-23T17:59:00Z</time>
   </trkpt>
   <trkpt lat="53.5407840" lon="-113.4804400">
    <ele>622.5</ele>
    <time>2026-08-23T17:59:01Z</time>
   </trkpt>
   <trkpt lat="53.5407770" lon="-113.4804830">
    <ele>622.5</ele>
    <time>2026-08-23T17:59:02Z</time>
   </trkpt>
   <trkpt lat="53.5407750" lon="-113.4805080">
    <ele>622.5</ele>
    <time>2026-08-23T17:59:03Z</time>
   </trkpt>
   <trkpt lat="53.5407740" lon="-113.4805250">
    <ele>622.5</ele>
    <time>2026-08-23T17:59:04Z</time>
   </trkpt>
   <trkpt lat="53.5407680" lon="-113.4805720">
    <ele>622.4</ele>
    <time>2026-08-23T17:59:05Z</time>
   </trkpt>
   <trkpt lat="53.5407610" lon="-113.4806250">
    <ele>622.4</ele>
    <time>2026-08-23T17:59:06Z</time>
   </trkpt>
   <trkpt lat="53.5407550" lon="-113.4807050">
    <ele>622.4</ele>
    <time>2026-08-23T17:59:07Z</time>
   </trkpt>
   <trkpt lat="53.5407590" lon="-113.4808010">
    <ele>622.4</ele>
    <time>2026-08-23T17:59:08Z</time>
   </trkpt>
   <trkpt lat="53.5407650" lon="-113.4809050">
    <ele>622.4</ele>
    <time>2026-08-23T17:59:09Z</time>
   </trkpt>
   <trkpt lat="53.5407600" lon="-113.4809930">
    <ele>622.4</ele>
    <time>2026-08-23T17:59:10Z</time>
   </trkpt>
   <trkpt lat="53.5407490" lon="-113.4810750">
    <ele>622.5</ele>
    <time>2026-08-23T17:59:11Z</time>
   </trkpt>
   <trkpt lat="53.5407530" lon="-113.4811550">
    <ele>622.5</ele>
    <time>2026-08-23T17:59:12Z</time>
   </trkpt>
   <trkpt lat="53.5407540" lon="-113.4812250">
    <ele>622.6</ele>
    <time>2026-08-23T17:59:13Z</time>
   </trkpt>
   <trkpt lat="53.5407480" lon="-113.4812830">
    <ele>622.7</ele>
    <time>2026-08-23T17:59:14Z</time>
   </trkpt>
   <trkpt lat="53.5407420" lon="-113.4813430">
    <ele>622.7</ele>
    <time>2026-08-23T17:59:15Z</time>
   </trkpt>
   <trkpt lat="53.5407400" lon="-113.4813960">
    <ele>622.8</ele>
    <time>2026-08-23T17:59:16Z</time>
   </trkpt>
   <trkpt lat="53.5407390" lon="-113.4814280">
    <ele>622.8</ele>
    <time>2026-08-23T17:59:17Z</time>
   </trkpt>
   <trkpt lat="53.5407410" lon="-113.4814300">
    <ele>622.8</ele>
    <time>2026-08-23T17:59:18Z</time>
   </trkpt>
   <trkpt lat="53.5407370" lon="-113.4814490">
    <ele>622.9</ele>
    <time>2026-08-23T17:59:19Z</time>
   </trkpt>
   <trkpt lat="53.5407370" lon="-113.4814620">
    <ele>622.9</ele>
    <time>2026-08-23T17:59:20Z</time>
   </trkpt>
   <trkpt lat="53.5407370" lon="-113.4814900">
    <ele>622.9</ele>
    <time>2026-08-23T17:59:21Z</time>
   </trkpt>
   <trkpt lat="53.5407350" lon="-113.4815330">
    <ele>622.9</ele>
    <time>2026-08-23T17:59:22Z</time>
   </trkpt>
   <trkpt lat="53.5407310" lon="-113.4815810">
    <ele>623.0</ele>
    <time>2026-08-23T17:59:23Z</time>
   </trkpt>
   <trkpt lat="53.5407290" lon="-113.4816060">
    <ele>623.0</ele>
    <time>2026-08-23T17:59:24Z</time>
   </trkpt>
   <trkpt lat="53.5407250" lon="-113.4816270">
    <ele>623.1</ele>
    <time>2026-08-23T17:59:25Z</time>
   </trkpt>
   <trkpt lat="53.5407200" lon="-113.4816730">
    <ele>623.1</ele>
    <time>2026-08-23T17:59:26Z</time>
   </trkpt>
   <trkpt lat="53.5407200" lon="-113.4817120">
    <ele>623.1</ele>
    <time>2026-08-23T17:59:27Z</time>
   </trkpt>
   <trkpt lat="53.5407130" lon="-113.4817480">
    <ele>623.2</ele>
    <time>2026-08-23T17:59:28Z</time>
   </trkpt>
   <trkpt lat="53.5407170" lon="-113.4817890">
    <ele>623.2</ele>
    <time>2026-08-23T17:59:29Z</time>
   </trkpt>
   <trkpt lat="53.5407070" lon="-113.4818400">
    <ele>623.2</ele>
    <time>2026-08-23T17:59:30Z</time>
   </trkpt>
   <trkpt lat="53.5407000" lon="-113.4818700">
    <ele>623.2</ele>
    <time>2026-08-23T17:59:31Z</time>
   </trkpt>
   <trkpt lat="53.5406950" lon="-113.4818960">
    <ele>623.3</ele>
    <time>2026-08-23T17:59:32Z</time>
   </trkpt>
   <trkpt lat="53.5406840" lon="-113.4819280">
    <ele>623.3</ele>
    <time>2026-08-23T17:59:33Z</time>
   </trkpt>
   <trkpt lat="53.5406800" lon="-113.4819580">
    <ele>623.3</ele>
    <time>2026-08-23T17:59:34Z</time>
   </trkpt>
   <trkpt lat="53.5406740" lon="-113.4819890">
    <ele>623.3</ele>
    <time>2026-08-23T17:59:35Z</time>
   </trkpt>
   <trkpt lat="53.5406710" lon="-113.4820250">
    <ele>623.3</ele>
    <time>2026-08-23T17:59:36Z</time>
   </trkpt>
   <trkpt lat="53.5406730" lon="-113.4820580">
    <ele>623.3</ele>
    <time>2026-08-23T17:59:37Z</time>
   </trkpt>
   <trkpt lat="53.5406710" lon="-113.4820890">
    <ele>623.3</ele>
    <time>2026-08-23T17:59:38Z</time>
   </trkpt>
   <trkpt lat="53.5406650" lon="-113.4821190">
    <ele>623.4</ele>
    <time>2026-08-23T17:59:39Z</time>
   </trkpt>
   <trkpt lat="53.5406550" lon="-113.4821670">
    <ele>623.4</ele>
    <time>2026-08-23T17:59:40Z</time>
   </trkpt>
   <trkpt lat="53.5406550" lon="-113.4822190">
    <ele>623.4</ele>
    <time>2026-08-23T17:59:41Z</time>
   </trkpt>
   <trkpt lat="53.5406590" lon="-113.4822650">
    <ele>623.4</ele>
    <time>2026-08-23T17:59:42Z</time>
   </trkpt>
   <trkpt lat="53.5406590" lon="-113.4823060">
    <ele>623.4</ele>
    <time>2026-08-23T17:59:43Z</time>
   </trkpt>
   <trkpt lat="53.5406550" lon="-113.4823470">
    <ele>623.4</ele>
    <time>2026-08-23T17:59:44Z</time>
   </trkpt>
   <trkpt lat="53.5406510" lon="-113.4823870">
    <ele>623.4</ele>
    <time>2026-08-23T17:59:45Z</time>
   </trkpt>
   <trkpt lat="53.5406460" lon="-113.4824270">
    <ele>623.4</ele>
    <time>2026-08-23T17:59:46Z</time>
   </trkpt>
   <trkpt lat="53.5406410" lon="-113.4824680">
    <ele>623.5</ele>
    <time>2026-08-23T17:59:47Z</time>
   </trkpt>
   <trkpt lat="53.5406390" lon="-113.4825010">
    <ele>623.5</ele>
    <time>2026-08-23T17:59:48Z</time>
   </trkpt>
   <trkpt lat="53.5406350" lon="-113.4825360">
    <ele>623.5</ele>
    <time>2026-08-23T17:59:49Z</time>
   </trkpt>
   <trkpt lat="53.5406320" lon="-113.4825700">
    <ele>623.5</ele>
    <time>2026-08-23T17:59:50Z</time>
   </trkpt>
   <trkpt lat="53.5406250" lon="-113.4826070">
    <ele>623.5</ele>
    <time>2026-08-23T17:59:51Z</time>
   </trkpt>
   <trkpt lat="53.5406110" lon="-113.4826320">
    <ele>623.5</ele>
    <time>2026-08-23T17:59:52Z</time>
   </trkpt>
   <trkpt lat="53.5405970" lon="-113.4826600">
    <ele>623.6</ele>
    <time>2026-08-23T17:59:53Z</time>
   </trkpt>
   <trkpt lat="53.5405920" lon="-113.4826930">
    <ele>623.6</ele>
    <time>2026-08-23T17:59:54Z</time>
   </trkpt>
   <trkpt lat="53.5405930" lon="-113.4827340">
    <ele>623.6</ele>
    <time>2026-08-23T17:59:55Z</time>
   </trkpt>
   <trkpt lat="53.5405920" lon="-113.4827660">
    <ele>623.6</ele>
    <time>2026-08-23T17:59:56Z</time>
   </trkpt>
   <trkpt lat="53.5405890" lon="-113.4828070">
    <ele>623.6</ele>
    <time>2026-08-23T17:59:57Z</time>
   </trkpt>
   <trkpt lat="53.5405860" lon="-113.4828470">
    <ele>623.6</ele>
    <time>2026-08-23T17:59:58Z</time>
   </trkpt>
   <trkpt lat="53.5405810" lon="-113.4828840">
    <ele>623.6</ele>
    <time>2026-08-23T17:59:59Z</time>
   </trkpt>
   <trkpt lat="53.5405750" lon="-113.4829170">
    <ele>623.6</ele>
    <time>2026-08-23T18:00:00Z</time>
   </trkpt>
   <trkpt lat="53.5405710" lon="-113.4829530">
    <ele>623.5</ele>
    <time>2026-08-23T18:00:01Z</time>
   </trkpt>
   <trkpt lat="53.5405690" lon="-113.4829960">
    <ele>623.5</ele>
    <time>2026-08-23T18:00:02Z</time>
   </trkpt>
   <trkpt lat="53.5405650" lon="-113.4830340">
    <ele>623.5</ele>
    <time>2026-08-23T18:00:03Z</time>
   </trkpt>
   <trkpt lat="53.5405570" lon="-113.4830710">
    <ele>623.4</ele>
    <time>2026-08-23T18:00:04Z</time>
   </trkpt>
   <trkpt lat="53.5405490" lon="-113.4831040">
    <ele>623.4</ele>
    <time>2026-08-23T18:00:05Z</time>
   </trkpt>
   <trkpt lat="53.5405420" lon="-113.4831420">
    <ele>623.4</ele>
    <time>2026-08-23T18:00:06Z</time>
   </trkpt>
   <trkpt lat="53.5405360" lon="-113.4831850">
    <ele>623.4</ele>
    <time>2026-08-23T18:00:07Z</time>
   </trkpt>
   <trkpt lat="53.5405300" lon="-113.4832250">
    <ele>623.4</ele>
    <time>2026-08-23T18:00:08Z</time>
   </trkpt>
   <trkpt lat="53.5405250" lon="-113.4832630">
    <ele>623.4</ele>
    <time>2026-08-23T18:00:09Z</time>
   </trkpt>
   <trkpt lat="53.5405210" lon="-113.4833020">
    <ele>623.4</ele>
    <time>2026-08-23T18:00:10Z</time>
   </trkpt>
   <trkpt lat="53.5405190" lon="-113.4833450">
    <ele>623.4</ele>
    <time>2026-08-23T18:00:11Z</time>
   </trkpt>
   <trkpt lat="53.5405180" lon="-113.4833830">
    <ele>623.4</ele>
    <time>2026-08-23T18:00:12Z</time>
   </trkpt>
   <trkpt lat="53.5405150" lon="-113.4834270">
    <ele>623.4</ele>
    <time>2026-08-23T18:00:13Z</time>
   </trkpt>
   <trkpt lat="53.5405140" lon="-113.4834680">
    <ele>623.5</ele>
    <time>2026-08-23T18:00:14Z</time>
   </trkpt>
   <trkpt lat="53.5405210" lon="-113.4835080">
    <ele>623.5</ele>
    <time>2026-08-23T18:00:15Z</time>
   </trkpt>
   <trkpt lat="53.5405340" lon="-113.4835460">
    <ele>623.5</ele>
    <time>2026-08-23T18:00:16Z</time>
   </trkpt>
   <trkpt lat="53.5405520" lon="-113.4835740">
    <ele>623.5</ele>
    <time>2026-08-23T18:00:17Z</time>
   </trkpt>
   <trkpt lat="53.5405680" lon="-113.4836010">
    <ele>623.5</ele>
    <time>2026-08-23T18:00:18Z</time>
   </trkpt>
   <trkpt lat="53.5405910" lon="-113.4835900">
    <ele>623.7</ele>
    <time>2026-08-23T18:00:19Z</time>
   </trkpt>
   <trkpt lat="53.5406130" lon="-113.4836040">
    <ele>623.9</ele>
    <time>2026-08-23T18:00:20Z</time>
   </trkpt>
   <trkpt lat="53.5406400" lon="-113.4836000">
    <ele>624.2</ele>
    <time>2026-08-23T18:00:21Z</time>
   </trkpt>
   <trkpt lat="53.5406640" lon="-113.4835880">
    <ele>624.4</ele>
    <time>2026-08-23T18:00:22Z</time>
   </trkpt>
   <trkpt lat="53.5406930" lon="-113.4835820">
    <ele>624.6</ele>
    <time>2026-08-23T18:00:23Z</time>
   </trkpt>
   <trkpt lat="53.5407160" lon="-113.4835850">
    <ele>624.7</ele>
    <time>2026-08-23T18:00:24Z</time>
   </trkpt>
   <trkpt lat="53.5407340" lon="-113.4835950">
    <ele>624.7</ele>
    <time>2026-08-23T18:00:25Z</time>
   </trkpt>
   <trkpt lat="53.5407430" lon="-113.4836230">
    <ele>624.7</ele>
    <time>2026-08-23T18:00:26Z</time>
   </trkpt>
   <trkpt lat="53.5407530" lon="-113.4836440">
    <ele>624.7</ele>
    <time>2026-08-23T18:00:27Z</time>
   </trkpt>
   <trkpt lat="53.5407520" lon="-113.4836690">
    <ele>624.7</ele>
    <time>2026-08-23T18:00:28Z</time>
   </trkpt>
   <trkpt lat="53.5407480" lon="-113.4837050">
    <ele>624.8</ele>
    <time>2026-08-23T18:00:29Z</time>
   </trkpt>
   <trkpt lat="53.5407390" lon="-113.4837380">
    <ele>624.8</ele>
    <time>2026-08-23T18:00:30Z</time>
   </trkpt>
   <trkpt lat="53.5407260" lon="-113.4837650">
    <ele>624.8</ele>
    <time>2026-08-23T18:00:31Z</time>
   </trkpt>
   <trkpt lat="53.5406990" lon="-113.4837760">
    <ele>624.8</ele>
    <time>2026-08-23T18:00:32Z</time>
   </trkpt>
   <trkpt lat="53.5406670" lon="-113.4837600">
    <ele>624.8</ele>
    <time>2026-08-23T18:00:33Z</time>
   </trkpt>
   <trkpt lat="53.5406390" lon="-113.4837380">
    <ele>624.8</ele>
    <time>2026-08-23T18:00:34Z</time>
   </trkpt>
   <trkpt lat="53.5406160" lon="-113.4837250">
    <ele>624.8</ele>
    <time>2026-08-23T18:00:35Z</time>
   </trkpt>
   <trkpt lat="53.5406070" lon="-113.4837260">
    <ele>624.8</ele>
    <time>2026-08-23T18:00:36Z</time>
   </trkpt>
   <trkpt lat="53.5406160" lon="-113.4837360">
    <ele>624.9</ele>
    <time>2026-08-23T18:00:37Z</time>
   </trkpt>
   <trkpt lat="53.5406140" lon="-113.4837440">
    <ele>624.9</ele>
    <time>2026-08-23T18:00:38Z</time>
   </trkpt>
   <trkpt lat="53.5406080" lon="-113.4837400">
    <ele>624.9</ele>
    <time>2026-08-23T18:00:39Z</time>
   </trkpt>
   <trkpt lat="53.5406060" lon="-113.4837430">
    <ele>624.9</ele>
    <time>2026-08-23T18:00:40Z</time>
   </trkpt>
   <trkpt lat="53.5406030" lon="-113.4837430">
    <ele>624.9</ele>
    <time>2026-08-23T18:00:41Z</time>
   </trkpt>
   <trkpt lat="53.5406030" lon="-113.4837430">
    <ele>624.9</ele>
    <time>2026-08-23T18:00:42Z</time>
   </trkpt>
   <trkpt lat="53.5406030" lon="-113.4837430">
    <ele>624.9</ele>
    <time>2026-08-23T18:00:43Z</time>
   </trkpt>
   <trkpt lat="53.5406030" lon="-113.4837430">
    <ele>624.9</ele>
    <time>2026-08-23T18:00:44Z</time>
   </trkpt>
   <trkpt lat="53.5406030" lon="-113.4837430">
    <ele>624.9</ele>
    <time>2026-08-23T18:00:45Z</time>
   </trkpt>
   <trkpt lat="53.5406030" lon="-113.4837430">
    <ele>624.9</ele>
    <time>2026-08-23T18:00:46Z</time>
   </trkpt>
   <trkpt lat="53.5406030" lon="-113.4837430">
    <ele>624.9</ele>
    <time>2026-08-23T18:00:47Z</time>
   </trkpt>
   <trkpt lat="53.5406030" lon="-113.4837430">
    <ele>624.9</ele>
    <time>2026-08-23T18:00:48Z</time>
   </trkpt>
   <trkpt lat="53.5406030" lon="-113.4837430">
    <ele>624.9</ele>
    <time>2026-08-23T18:00:49Z</time>
   </trkpt>
   <trkpt lat="53.5406030" lon="-113.4837430">
    <ele>624.9</ele>
    <time>2026-08-23T18:00:50Z</time>
   </trkpt>
   <trkpt lat="53.5406030" lon="-113.4837430">
    <ele>624.9</ele>
    <time>2026-08-23T18:00:51Z</time>
   </trkpt>
   <trkpt lat="53.5406030" lon="-113.4837430">
    <ele>624.9</ele>
    <time>2026-08-23T18:00:52Z</time>
   </trkpt>
   <trkpt lat="53.5406030" lon="-113.4837430">
    <ele>624.9</ele>
    <time>2026-08-23T18:00:53Z</time>
   </trkpt>
   <trkpt lat="53.5405810" lon="-113.4837590">
    <ele>624.9</ele>
    <time>2026-08-23T18:00:54Z</time>
   </trkpt>
   <trkpt lat="53.5405810" lon="-113.4837590">
    <ele>624.9</ele>
    <time>2026-08-23T18:00:55Z</time>
   </trkpt>
   <trkpt lat="53.5405810" lon="-113.4837590">
    <ele>624.9</ele>
    <time>2026-08-23T18:00:56Z</time>
   </trkpt>
   <trkpt lat="53.5405790" lon="-113.4837580">
    <ele>624.9</ele>
    <time>2026-08-23T18:00:57Z</time>
   </trkpt>
   <trkpt lat="53.5405800" lon="-113.4837550">
    <ele>624.9</ele>
    <time>2026-08-23T18:00:58Z</time>
   </trkpt>
   <trkpt lat="53.5405800" lon="-113.4837550">
    <ele>624.9</ele>
    <time>2026-08-23T18:00:59Z</time>
   </trkpt>
   <trkpt lat="53.5405800" lon="-113.4837550">
    <ele>624.9</ele>
    <time>2026-08-23T18:01:00Z</time>
   </trkpt>
   <trkpt lat="53.5405800" lon="-113.4837550">
    <ele>624.9</ele>
    <time>2026-08-23T18:01:01Z</time>
   </trkpt>
   <trkpt lat="53.5405800" lon="-113.4837550">
    <ele>624.9</ele>
    <time>2026-08-23T18:01:02Z</time>
   </trkpt>
   <trkpt lat="53.5405800" lon="-113.4837550">
    <ele>624.9</ele>
    <time>2026-08-23T18:01:03Z</time>
   </trkpt>
   <trkpt lat="53.5405800" lon="-113.4837550">
    <ele>624.9</ele>
    <time>2026-08-23T18:01:04Z</time>
   </trkpt>
   <trkpt lat="53.5405800" lon="-113.4837550">
    <ele>624.9</ele>
    <time>2026-08-23T18:01:05Z</time>
   </trkpt>
   <trkpt lat="53.5405800" lon="-113.4837550">
    <ele>624.9</ele>
    <time>2026-08-23T18:01:06Z</time>
   </trkpt>
   <trkpt lat="53.5405800" lon="-113.4837550">
    <ele>624.9</ele>
    <time>2026-08-23T18:01:07Z</time>
   </trkpt>
   <trkpt lat="53.5405800" lon="-113.4837550">
    <ele>624.9</ele>
    <time>2026-08-23T18:01:08Z</time>
   </trkpt>
   <trkpt lat="53.5405800" lon="-113.4837550">
    <ele>624.9</ele>
    <time>2026-08-23T18:01:09Z</time>
   </trkpt>
   <trkpt lat="53.5405800" lon="-113.4837550">
    <ele>624.9</ele>
    <time>2026-08-23T18:01:10Z</time>
   </trkpt>
   <trkpt lat="53.5405800" lon="-113.4837550">
    <ele>624.9</ele>
    <time>2026-08-23T18:01:11Z</time>
   </trkpt>
   <trkpt lat="53.5405800" lon="-113.4837550">
    <ele>624.9</ele>
    <time>2026-08-23T18:01:12Z</time>
   </trkpt>
   <trkpt lat="53.5405800" lon="-113.4837550">
    <ele>624.9</ele>
    <time>2026-08-23T18:01:13Z</time>
   </trkpt>
   <trkpt lat="53.5405800" lon="-113.4837550">
    <ele>624.9</ele>
    <time>2026-08-23T18:01:14Z</time>
   </trkpt>
   <trkpt lat="53.5405800" lon="-113.4837550">
    <ele>624.9</ele>
    <time>2026-08-23T18:01:15Z</time>
   </trkpt>
   <trkpt lat="53.5405800" lon="-113.4837550">
    <ele>624.9</ele>
    <time>2026-08-23T18:01:16Z</time>
   </trkpt>
   <trkpt lat="53.5405800" lon="-113.4837550">
    <ele>624.9</ele>
    <time>2026-08-23T18:01:17Z</time>
   </trkpt>
   <trkpt lat="53.5405800" lon="-113.4837550">
    <ele>624.9</ele>
    <time>2026-08-23T18:01:18Z</time>
   </trkpt>
   <trkpt lat="53.5406030" lon="-113.4837380">
    <ele>624.9</ele>
    <time>2026-08-23T18:01:19Z</time>
   </trkpt>
   <trkpt lat="53.5406040" lon="-113.4837380">
    <ele>624.9</ele>
    <time>2026-08-23T18:01:20Z</time>
   </trkpt>
   <trkpt lat="53.5406030" lon="-113.4837360">
    <ele>624.9</ele>
    <time>2026-08-23T18:01:21Z</time>
   </trkpt>
   <trkpt lat="53.5406030" lon="-113.4837360">
    <ele>624.9</ele>
    <time>2026-08-23T18:01:22Z</time>
   </trkpt>
   <trkpt lat="53.5406030" lon="-113.4837360">
    <ele>624.9</ele>
    <time>2026-08-23T18:01:23Z</time>
   </trkpt>
   <trkpt lat="53.5406030" lon="-113.4837360">
    <ele>624.9</ele>
    <time>2026-08-23T18:01:24Z</time>
   </trkpt>
   <trkpt lat="53.5406030" lon="-113.4837360">
    <ele>624.9</ele>
    <time>2026-08-23T18:01:25Z</time>
   </trkpt>
   <trkpt lat="53.5406030" lon="-113.4837360">
    <ele>624.9</ele>
    <time>2026-08-23T18:01:26Z</time>
   </trkpt>
   <trkpt lat="53.5406030" lon="-113.4837360">
    <ele>624.9</ele>
    <time>2026-08-23T18:01:27Z</time>
   </trkpt>
   <trkpt lat="53.5406030" lon="-113.4837360">
    <ele>624.9</ele>
    <time>2026-08-23T18:01:28Z</time>
   </trkpt>
   <trkpt lat="53.5406030" lon="-113.4837360">
    <ele>624.9</ele>
    <time>2026-08-23T18:01:29Z</time>
   </trkpt>
   <trkpt lat="53.5406030" lon="-113.4837360">
    <ele>624.9</ele>
    <time>2026-08-23T18:01:30Z</time>
   </trkpt>
   <trkpt lat="53.5406030" lon="-113.4837360">
    <ele>624.9</ele>
    <time>2026-08-23T18:01:31Z</time>
   </trkpt>
   <trkpt lat="53.5406090" lon="-113.4837430">
    <ele>624.9</ele>
    <time>2026-08-23T18:01:32Z</time>
   </trkpt>
   <trkpt lat="53.5406090" lon="-113.4837390">
    <ele>624.9</ele>
    <time>2026-08-23T18:01:33Z</time>
   </trkpt>
   <trkpt lat="53.5406100" lon="-113.4837380">
    <ele>624.9</ele>
    <time>2026-08-23T18:01:34Z</time>
   </trkpt>
   <trkpt lat="53.5406100" lon="-113.4837380">
    <ele>624.9</ele>
    <time>2026-08-23T18:01:35Z</time>
   </trkpt>
   <trkpt lat="53.5406100" lon="-113.4837380">
    <ele>624.9</ele>
    <time>2026-08-23T18:01:36Z</time>
   </trkpt>
   <trkpt lat="53.5406100" lon="-113.4837380">
    <ele>624.9</ele>
    <time>2026-08-23T18:01:37Z</time>
   </trkpt>
   <trkpt lat="53.5406100" lon="-113.4837380">
    <ele>624.9</ele>
    <time>2026-08-23T18:01:38Z</time>
   </trkpt>
   <trkpt lat="53.5406060" lon="-113.4837490">
    <ele>624.9</ele>
    <time>2026-08-23T18:01:39Z</time>
   </trkpt>
   <trkpt lat="53.5406040" lon="-113.4837490">
    <ele>624.9</ele>
    <time>2026-08-23T18:01:40Z</time>
   </trkpt>
   <trkpt lat="53.5406050" lon="-113.4837520">
    <ele>624.9</ele>
    <time>2026-08-23T18:01:41Z</time>
   </trkpt>
   <trkpt lat="53.5406030" lon="-113.4837630">
    <ele>624.9</ele>
    <time>2026-08-23T18:01:42Z</time>
   </trkpt>
   <trkpt lat="53.5406040" lon="-113.4837760">
    <ele>624.9</ele>
    <time>2026-08-23T18:01:43Z</time>
   </trkpt>
   <trkpt lat="53.5406050" lon="-113.4837960">
    <ele>624.9</ele>
    <time>2026-08-23T18:01:44Z</time>
   </trkpt>
   <trkpt lat="53.5406220" lon="-113.4837940">
    <ele>624.9</ele>
    <time>2026-08-23T18:01:45Z</time>
   </trkpt>
   <trkpt lat="53.5406370" lon="-113.4837790">
    <ele>624.9</ele>
    <time>2026-08-23T18:01:46Z</time>
   </trkpt>
   <trkpt lat="53.5406490" lon="-113.4837610">
    <ele>624.9</ele>
    <time>2026-08-23T18:01:47Z</time>
   </trkpt>
   <trkpt lat="53.5406650" lon="-113.4837440">
    <ele>624.9</ele>
    <time>2026-08-23T18:01:48Z</time>
   </trkpt>
   <trkpt lat="53.5406790" lon="-113.4837340">
    <ele>625.0</ele>
    <time>2026-08-23T18:01:49Z</time>
   </trkpt>
   <trkpt lat="53.5406760" lon="-113.4837540">
    <ele>624.9</ele>
    <time>2026-08-23T18:01:50Z</time>
   </trkpt>
   <trkpt lat="53.5406720" lon="-113.4837790">
    <ele>624.9</ele>
    <time>2026-08-23T18:01:51Z</time>
   </trkpt>
   <trkpt lat="53.5406700" lon="-113.4837930">
    <ele>624.9</ele>
    <time>2026-08-23T18:01:52Z</time>
   </trkpt>
   <trkpt lat="53.5406640" lon="-113.4838030">
    <ele>624.9</ele>
    <time>2026-08-23T18:01:53Z</time>
   </trkpt>
   <trkpt lat="53.5406600" lon="-113.4838040">
    <ele>624.9</ele>
    <time>2026-08-23T18:01:54Z</time>
   </trkpt>
   <trkpt lat="53.5406550" lon="-113.4838220">
    <ele>624.9</ele>
    <time>2026-08-23T18:01:55Z</time>
   </trkpt>
   <trkpt lat="53.5406570" lon="-113.4838750">
    <ele>624.9</ele>
    <time>2026-08-23T18:01:56Z</time>
   </trkpt>
   <trkpt lat="53.5406700" lon="-113.4839390">
    <ele>624.9</ele>
    <time>2026-08-23T18:01:57Z</time>
   </trkpt>
   <trkpt lat="53.5406700" lon="-113.4840150">
    <ele>624.8</ele>
    <time>2026-08-23T18:01:58Z</time>
   </trkpt>
   <trkpt lat="53.5406650" lon="-113.4840830">
    <ele>624.8</ele>
    <time>2026-08-23T18:01:59Z</time>
   </trkpt>
   <trkpt lat="53.5406530" lon="-113.4841750">
    <ele>624.7</ele>
    <time>2026-08-23T18:02:00Z</time>
   </trkpt>
   <trkpt lat="53.5406360" lon="-113.4842730">
    <ele>624.7</ele>
    <time>2026-08-23T18:02:01Z</time>
   </trkpt>
   <trkpt lat="53.5406070" lon="-113.4843610">
    <ele>624.6</ele>
    <time>2026-08-23T18:02:02Z</time>
   </trkpt>
   <trkpt lat="53.5405580" lon="-113.4844660">
    <ele>624.5</ele>
    <time>2026-08-23T18:02:03Z</time>
   </trkpt>
   <trkpt lat="53.5405150" lon="-113.4845760">
    <ele>624.4</ele>
    <time>2026-08-23T18:02:04Z</time>
   </trkpt>
   <trkpt lat="53.5404760" lon="-113.4846760">
    <ele>624.2</ele>
    <time>2026-08-23T18:02:05Z</time>
   </trkpt>
   <trkpt lat="53.5404210" lon="-113.4847660">
    <ele>624.0</ele>
    <time>2026-08-23T18:02:06Z</time>
   </trkpt>
   <trkpt lat="53.5403730" lon="-113.4848660">
    <ele>623.8</ele>
    <time>2026-08-23T18:02:07Z</time>
   </trkpt>
   <trkpt lat="53.5403080" lon="-113.4849490">
    <ele>623.6</ele>
    <time>2026-08-23T18:02:08Z</time>
   </trkpt>
   <trkpt lat="53.5402640" lon="-113.4850590">
    <ele>623.3</ele>
    <time>2026-08-23T18:02:09Z</time>
   </trkpt>
   <trkpt lat="53.5401950" lon="-113.4851460">
    <ele>623.0</ele>
    <time>2026-08-23T18:02:10Z</time>
   </trkpt>
   <trkpt lat="53.5401400" lon="-113.4852570">
    <ele>622.6</ele>
    <time>2026-08-23T18:02:11Z</time>
   </trkpt>
   <trkpt lat="53.5400810" lon="-113.4853610">
    <ele>622.1</ele>
    <time>2026-08-23T18:02:12Z</time>
   </trkpt>
   <trkpt lat="53.5400170" lon="-113.4854670">
    <ele>621.6</ele>
    <time>2026-08-23T18:02:13Z</time>
   </trkpt>
   <trkpt lat="53.5399480" lon="-113.4855710">
    <ele>621.1</ele>
    <time>2026-08-23T18:02:14Z</time>
   </trkpt>
   <trkpt lat="53.5398810" lon="-113.4856810">
    <ele>620.7</ele>
    <time>2026-08-23T18:02:15Z</time>
   </trkpt>
   <trkpt lat="53.5398120" lon="-113.4857880">
    <ele>620.2</ele>
    <time>2026-08-23T18:02:16Z</time>
   </trkpt>
   <trkpt lat="53.5397420" lon="-113.4858960">
    <ele>619.8</ele>
    <time>2026-08-23T18:02:17Z</time>
   </trkpt>
   <trkpt lat="53.5396690" lon="-113.4860030">
    <ele>619.5</ele>
    <time>2026-08-23T18:02:18Z</time>
   </trkpt>
   <trkpt lat="53.5395920" lon="-113.4861020">
    <ele>619.7</ele>
    <time>2026-08-23T18:02:19Z</time>
   </trkpt>
   <trkpt lat="53.5395500" lon="-113.4862400">
    <ele>619.9</ele>
    <time>2026-08-23T18:02:20Z</time>
   </trkpt>
   <trkpt lat="53.5395280" lon="-113.4864060">
    <ele>620.2</ele>
    <time>2026-08-23T18:02:21Z</time>
   </trkpt>
   <trkpt lat="53.5394870" lon="-113.4865350">
    <ele>620.5</ele>
    <time>2026-08-23T18:02:22Z</time>
   </trkpt>
   <trkpt lat="53.5394350" lon="-113.4866480">
    <ele>620.8</ele>
    <time>2026-08-23T18:02:23Z</time>
   </trkpt>
   <trkpt lat="53.5393850" lon="-113.4867630">
    <ele>621.0</ele>
    <time>2026-08-23T18:02:24Z</time>
   </trkpt>
   <trkpt lat="53.5393360" lon="-113.4868560">
    <ele>621.2</ele>
    <time>2026-08-23T18:02:25Z</time>
   </trkpt>
   <trkpt lat="53.5392800" lon="-113.4869360">
    <ele>621.3</ele>
    <time>2026-08-23T18:02:26Z</time>
   </trkpt>
   <trkpt lat="53.5392310" lon="-113.4870240">
    <ele>621.4</ele>
    <time>2026-08-23T18:02:27Z</time>
   </trkpt>
   <trkpt lat="53.5392010" lon="-113.4871310">
    <ele>621.5</ele>
    <time>2026-08-23T18:02:28Z</time>
   </trkpt>
   <trkpt lat="53.5391570" lon="-113.4872170">
    <ele>621.6</ele>
    <time>2026-08-23T18:02:29Z</time>
   </trkpt>
   <trkpt lat="53.5391200" lon="-113.4873040">
    <ele>621.7</ele>
    <time>2026-08-23T18:02:30Z</time>
   </trkpt>
   <trkpt lat="53.5390810" lon="-113.4873890">
    <ele>621.8</ele>
    <time>2026-08-23T18:02:31Z</time>
   </trkpt>
   <trkpt lat="53.5390460" lon="-113.4874460">
    <ele>621.9</ele>
    <time>2026-08-23T18:02:32Z</time>
   </trkpt>
   <trkpt lat="53.5390210" lon="-113.4875130">
    <ele>622.0</ele>
    <time>2026-08-23T18:02:33Z</time>
   </trkpt>
   <trkpt lat="53.5389930" lon="-113.4875580">
    <ele>622.1</ele>
    <time>2026-08-23T18:02:34Z</time>
   </trkpt>
   <trkpt lat="53.5389690" lon="-113.4875960">
    <ele>622.1</ele>
    <time>2026-08-23T18:02:35Z</time>
   </trkpt>
   <trkpt lat="53.5389460" lon="-113.4876270">
    <ele>622.1</ele>
    <time>2026-08-23T18:02:36Z</time>
   </trkpt>
   <trkpt lat="53.5389140" lon="-113.4876540">
    <ele>622.1</ele>
    <time>2026-08-23T18:02:37Z</time>
   </trkpt>
   <trkpt lat="53.5388890" lon="-113.4876810">
    <ele>622.1</ele>
    <time>2026-08-23T18:02:38Z</time>
   </trkpt>
   <trkpt lat="53.5388710" lon="-113.4876920">
    <ele>622.1</ele>
    <time>2026-08-23T18:02:39Z</time>
   </trkpt>
   <trkpt lat="53.5388510" lon="-113.4876880">
    <ele>622.1</ele>
    <time>2026-08-23T18:02:40Z</time>
   </trkpt>
   <trkpt lat="53.5388510" lon="-113.4876990">
    <ele>622.1</ele>
    <time>2026-08-23T18:02:41Z</time>
   </trkpt>
   <trkpt lat="53.5388450" lon="-113.4877110">
    <ele>622.1</ele>
    <time>2026-08-23T18:02:42Z</time>
   </trkpt>
   <trkpt lat="53.5388370" lon="-113.4877200">
    <ele>622.1</ele>
    <time>2026-08-23T18:02:43Z</time>
   </trkpt>
   <trkpt lat="53.5388220" lon="-113.4877260">
    <ele>622.1</ele>
    <time>2026-08-23T18:02:44Z</time>
   </trkpt>
   <trkpt lat="53.5388100" lon="-113.4877420">
    <ele>622.1</ele>
    <time>2026-08-23T18:02:45Z</time>
   </trkpt>
   <trkpt lat="53.5387920" lon="-113.4877640">
    <ele>622.1</ele>
    <time>2026-08-23T18:02:46Z</time>
   </trkpt>
   <trkpt lat="53.5387820" lon="-113.4877950">
    <ele>622.1</ele>
    <time>2026-08-23T18:02:47Z</time>
   </trkpt>
   <trkpt lat="53.5387840" lon="-113.4878200">
    <ele>622.0</ele>
    <time>2026-08-23T18:02:48Z</time>
   </trkpt>
   <trkpt lat="53.5387820" lon="-113.4878380">
    <ele>622.0</ele>
    <time>2026-08-23T18:02:49Z</time>
   </trkpt>
   <trkpt lat="53.5387600" lon="-113.4878610">
    <ele>622.0</ele>
    <time>2026-08-23T18:02:50Z</time>
   </trkpt>
   <trkpt lat="53.5387390" lon="-113.4878740">
    <ele>621.9</ele>
    <time>2026-08-23T18:02:51Z</time>
   </trkpt>
   <trkpt lat="53.5387290" lon="-113.4878780">
    <ele>621.9</ele>
    <time>2026-08-23T18:02:52Z</time>
   </trkpt>
   <trkpt lat="53.5387120" lon="-113.4878870">
    <ele>621.8</ele>
    <time>2026-08-23T18:02:53Z</time>
   </trkpt>
   <trkpt lat="53.5386870" lon="-113.4879100">
    <ele>621.8</ele>
    <time>2026-08-23T18:02:54Z</time>
   </trkpt>
   <trkpt lat="53.5386570" lon="-113.4879260">
    <ele>621.7</ele>
    <time>2026-08-23T18:02:55Z</time>
   </trkpt>
   <trkpt lat="53.5386240" lon="-113.4879330">
    <ele>621.6</ele>
    <time>2026-08-23T18:02:56Z</time>
   </trkpt>
   <trkpt lat="53.5385960" lon="-113.4879520">
    <ele>621.5</ele>
    <time>2026-08-23T18:02:57Z</time>
   </trkpt>
   <trkpt lat="53.5385630" lon="-113.4879590">
    <ele>621.4</ele>
    <time>2026-08-23T18:02:58Z</time>
   </trkpt>
   <trkpt lat="53.5385270" lon="-113.4879450">
    <ele>621.2</ele>
    <time>2026-08-23T18:02:59Z</time>
   </trkpt>
   <trkpt lat="53.5384910" lon="-113.4879510">
    <ele>621.1</ele>
    <time>2026-08-23T18:03:00Z</time>
   </trkpt>
   <trkpt lat="53.5384580" lon="-113.4879580">
    <ele>620.9</ele>
    <time>2026-08-23T18:03:01Z</time>
   </trkpt>
   <trkpt lat="53.5384160" lon="-113.4879700">
    <ele>620.8</ele>
    <time>2026-08-23T18:03:02Z</time>
   </trkpt>
   <trkpt lat="53.5383960" lon="-113.4879870">
    <ele>620.7</ele>
    <time>2026-08-23T18:03:03Z</time>
   </trkpt>
   <trkpt lat="53.5383750" lon="-113.4880030">
    <ele>620.6</ele>
    <time>2026-08-23T18:03:04Z</time>
   </trkpt>
   <trkpt lat="53.5383600" lon="-113.4880720">
    <ele>620.5</ele>
    <time>2026-08-23T18:03:05Z</time>
   </trkpt>
   <trkpt lat="53.5383340" lon="-113.4881230">
    <ele>620.4</ele>
    <time>2026-08-23T18:03:06Z</time>
   </trkpt>
   <trkpt lat="53.5383100" lon="-113.4881500">
    <ele>620.4</ele>
    <time>2026-08-23T18:03:07Z</time>
   </trkpt>
   <trkpt lat="53.5382920" lon="-113.4881790">
    <ele>620.4</ele>
    <time>2026-08-23T18:03:08Z</time>
   </trkpt>
   <trkpt lat="53.5382710" lon="-113.4882120">
    <ele>620.4</ele>
    <time>2026-08-23T18:03:09Z</time>
   </trkpt>
   <trkpt lat="53.5382550" lon="-113.4882310">
    <ele>620.4</ele>
    <time>2026-08-23T18:03:10Z</time>
   </trkpt>
   <trkpt lat="53.5382400" lon="-113.4882670">
    <ele>620.4</ele>
    <time>2026-08-23T18:03:11Z</time>
   </trkpt>
   <trkpt lat="53.5382380" lon="-113.4882870">
    <ele>620.4</ele>
    <time>2026-08-23T18:03:12Z</time>
   </trkpt>
   <trkpt lat="53.5382380" lon="-113.4883180">
    <ele>620.4</ele>
    <time>2026-08-23T18:03:13Z</time>
   </trkpt>
   <trkpt lat="53.5382340" lon="-113.4883400">
    <ele>620.5</ele>
    <time>2026-08-23T18:03:14Z</time>
   </trkpt>
   <trkpt lat="53.5382330" lon="-113.4883550">
    <ele>620.5</ele>
    <time>2026-08-23T18:03:15Z</time>
   </trkpt>
   <trkpt lat="53.5382290" lon="-113.4883890">
    <ele>620.5</ele>
    <time>2026-08-23T18:03:16Z</time>
   </trkpt>
   <trkpt lat="53.5382150" lon="-113.4884200">
    <ele>620.6</ele>
    <time>2026-08-23T18:03:17Z</time>
   </trkpt>
   <trkpt lat="53.5382050" lon="-113.4884510">
    <ele>620.6</ele>
    <time>2026-08-23T18:03:18Z</time>
   </trkpt>
   <trkpt lat="53.5381900" lon="-113.4884720">
    <ele>620.7</ele>
    <time>2026-08-23T18:03:19Z</time>
   </trkpt>
   <trkpt lat="53.5381880" lon="-113.4885030">
    <ele>620.7</ele>
    <time>2026-08-23T18:03:20Z</time>
   </trkpt>
   <trkpt lat="53.5381660" lon="-113.4885230">
    <ele>620.7</ele>
    <time>2026-08-23T18:03:21Z</time>
   </trkpt>
   <trkpt lat="53.5381410" lon="-113.4885450">
    <ele>620.7</ele>
    <time>2026-08-23T18:03:22Z</time>
   </trkpt>
   <trkpt lat="53.5381160" lon="-113.4885590">
    <ele>620.7</ele>
    <time>2026-08-23T18:03:23Z</time>
   </trkpt>
   <trkpt lat="53.5380940" lon="-113.4885750">
    <ele>620.7</ele>
    <time>2026-08-23T18:03:24Z</time>
   </trkpt>
   <trkpt lat="53.5380760" lon="-113.4886140">
    <ele>620.7</ele>
    <time>2026-08-23T18:03:25Z</time>
   </trkpt>
   <trkpt lat="53.5380550" lon="-113.4886320">
    <ele>620.7</ele>
    <time>2026-08-23T18:03:26Z</time>
   </trkpt>
   <trkpt lat="53.5380410" lon="-113.4886570">
    <ele>620.7</ele>
    <time>2026-08-23T18:03:27Z</time>
   </trkpt>
   <trkpt lat="53.5380180" lon="-113.4886580">
    <ele>620.6</ele>
    <time>2026-08-23T18:03:28Z</time>
   </trkpt>
   <trkpt lat="53.5380020" lon="-113.4886570">
    <ele>620.6</ele>
    <time>2026-08-23T18:03:29Z</time>
   </trkpt>
   <trkpt lat="53.5379940" lon="-113.4886650">
    <ele>620.6</ele>
    <time>2026-08-23T18:03:30Z</time>
   </trkpt>
   <trkpt lat="53.5379880" lon="-113.4886650">
    <ele>620.6</ele>
    <time>2026-08-23T18:03:31Z</time>
   </trkpt>
   <trkpt lat="53.5379870" lon="-113.4886660">
    <ele>620.6</ele>
    <time>2026-08-23T18:03:32Z</time>
   </trkpt>
   <trkpt lat="53.5379850" lon="-113.4886710">
    <ele>620.6</ele>
    <time>2026-08-23T18:03:33Z</time>
   </trkpt>
   <trkpt lat="53.5379790" lon="-113.4886820">
    <ele>620.6</ele>
    <time>2026-08-23T18:03:34Z</time>
   </trkpt>
   <trkpt lat="53.5379760" lon="-113.4886940">
    <ele>620.6</ele>
    <time>2026-08-23T18:03:35Z</time>
   </trkpt>
   <trkpt lat="53.5379620" lon="-113.4887060">
    <ele>620.6</ele>
    <time>2026-08-23T18:03:36Z</time>
   </trkpt>
   <trkpt lat="53.5379550" lon="-113.4887130">
    <ele>620.6</ele>
    <time>2026-08-23T18:03:37Z</time>
   </trkpt>
   <trkpt lat="53.5379330" lon="-113.4887260">
    <ele>620.6</ele>
    <time>2026-08-23T18:03:38Z</time>
   </trkpt>
   <trkpt lat="53.5379250" lon="-113.4887260">
    <ele>620.6</ele>
    <time>2026-08-23T18:03:39Z</time>
   </trkpt>
   <trkpt lat="53.5379130" lon="-113.4887420">
    <ele>620.6</ele>
    <time>2026-08-23T18:03:40Z</time>
   </trkpt>
   <trkpt lat="53.5378900" lon="-113.4887550">
    <ele>620.7</ele>
    <time>2026-08-23T18:03:41Z</time>
   </trkpt>
   <trkpt lat="53.5378910" lon="-113.4887650">
    <ele>620.7</ele>
    <time>2026-08-23T18:03:42Z</time>
   </trkpt>
   <trkpt lat="53.5378770" lon="-113.4887680">
    <ele>620.7</ele>
    <time>2026-08-23T18:03:43Z</time>
   </trkpt>
   <trkpt lat="53.5378600" lon="-113.4887560">
    <ele>620.7</ele>
    <time>2026-08-23T18:03:44Z</time>
   </trkpt>
   <trkpt lat="53.5378400" lon="-113.4887730">
    <ele>620.7</ele>
    <time>2026-08-23T18:03:45Z</time>
   </trkpt>
   <trkpt lat="53.5378230" lon="-113.4887850">
    <ele>620.7</ele>
    <time>2026-08-23T18:03:46Z</time>
   </trkpt>
   <trkpt lat="53.5378060" lon="-113.4888070">
    <ele>620.7</ele>
    <time>2026-08-23T18:03:47Z</time>
   </trkpt>
   <trkpt lat="53.5377930" lon="-113.4888400">
    <ele>620.8</ele>
    <time>2026-08-23T18:03:48Z</time>
   </trkpt>
   <trkpt lat="53.5377730" lon="-113.4888650">
    <ele>620.8</ele>
    <time>2026-08-23T18:03:49Z</time>
   </trkpt>
   <trkpt lat="53.5377510" lon="-113.4889030">
    <ele>620.9</ele>
    <time>2026-08-23T18:03:50Z</time>
   </trkpt>
   <trkpt lat="53.5377340" lon="-113.4889580">
    <ele>621.0</ele>
    <time>2026-08-23T18:03:51Z</time>
   </trkpt>
   <trkpt lat="53.5377060" lon="-113.4890130">
    <ele>621.1</ele>
    <time>2026-08-23T18:03:52Z</time>
   </trkpt>
   <trkpt lat="53.5376830" lon="-113.4890920">
    <ele>621.3</ele>
    <time>2026-08-23T18:03:53Z</time>
   </trkpt>
   <trkpt lat="53.5376740" lon="-113.4891990">
    <ele>621.6</ele>
    <time>2026-08-23T18:03:54Z</time>
   </trkpt>
   <trkpt lat="53.5376560" lon="-113.4893010">
    <ele>621.9</ele>
    <time>2026-08-23T18:03:55Z</time>
   </trkpt>
   <trkpt lat="53.5376380" lon="-113.4893700">
    <ele>622.1</ele>
    <time>2026-08-23T18:03:56Z</time>
   </trkpt>
   <trkpt lat="53.5376200" lon="-113.4894400">
    <ele>622.3</ele>
    <time>2026-08-23T18:03:57Z</time>
   </trkpt>
   <trkpt lat="53.5376140" lon="-113.4894940">
    <ele>622.4</ele>
    <time>2026-08-23T18:03:58Z</time>
   </trkpt>
   <trkpt lat="53.5375930" lon="-113.4895550">
    <ele>622.5</ele>
    <time>2026-08-23T18:03:59Z</time>
   </trkpt>
   <trkpt lat="53.5375690" lon="-113.4896100">
    <ele>622.5</ele>
    <time>2026-08-23T18:04:00Z</time>
   </trkpt>
   <trkpt lat="53.5375380" lon="-113.4896490">
    <ele>622.4</ele>
    <time>2026-08-23T18:04:01Z</time>
   </trkpt>
   <trkpt lat="53.5375050" lon="-113.4896840">
    <ele>622.4</ele>
    <time>2026-08-23T18:04:02Z</time>
   </trkpt>
   <trkpt lat="53.5374640" lon="-113.4897010">
    <ele>622.3</ele>
    <time>2026-08-23T18:04:03Z</time>
   </trkpt>
   <trkpt lat="53.5374580" lon="-113.4896590">
    <ele>622.2</ele>
    <time>2026-08-23T18:04:04Z</time>
   </trkpt>
   <trkpt lat="53.5374350" lon="-113.4896640">
    <ele>622.2</ele>
    <time>2026-08-23T18:04:05Z</time>
   </trkpt>
   <trkpt lat="53.5374170" lon="-113.4896430">
    <ele>622.1</ele>
    <time>2026-08-23T18:04:06Z</time>
   </trkpt>
   <trkpt lat="53.5373920" lon="-113.4896390">
    <ele>622.0</ele>
    <time>2026-08-23T18:04:07Z</time>
   </trkpt>
   <trkpt lat="53.5373550" lon="-113.4896530">
    <ele>621.9</ele>
    <time>2026-08-23T18:04:08Z</time>
   </trkpt>
   <trkpt lat="53.5373240" lon="-113.4896790">
    <ele>621.8</ele>
    <time>2026-08-23T18:04:09Z</time>
   </trkpt>
   <trkpt lat="53.5372880" lon="-113.4897030">
    <ele>621.7</ele>
    <time>2026-08-23T18:04:10Z</time>
   </trkpt>
   <trkpt lat="53.5372030" lon="-113.4896760">
    <ele>621.4</ele>
    <time>2026-08-23T18:04:11Z</time>
   </trkpt>
   <trkpt lat="53.5371120" lon="-113.4896430">
    <ele>621.2</ele>
    <time>2026-08-23T18:04:12Z</time>
   </trkpt>
   <trkpt lat="53.5370710" lon="-113.4896160">
    <ele>621.1</ele>
    <time>2026-08-23T18:04:13Z</time>
   </trkpt>
   <trkpt lat="53.5370290" lon="-113.4895950">
    <ele>621.0</ele>
    <time>2026-08-23T18:04:14Z</time>
   </trkpt>
   <trkpt lat="53.5369830" lon="-113.4895770">
    <ele>620.9</ele>
    <time>2026-08-23T18:04:15Z</time>
   </trkpt>
   <trkpt lat="53.5369290" lon="-113.4895290">
    <ele>620.8</ele>
    <time>2026-08-23T18:04:16Z</time>
   </trkpt>
   <trkpt lat="53.5368850" lon="-113.4894940">
    <ele>620.7</ele>
    <time>2026-08-23T18:04:17Z</time>
   </trkpt>
   <trkpt lat="53.5368420" lon="-113.4894630">
    <ele>620.6</ele>
    <time>2026-08-23T18:04:18Z</time>
   </trkpt>
   <trkpt lat="53.5367980" lon="-113.4894540">
    <ele>620.5</ele>
    <time>2026-08-23T18:04:19Z</time>
   </trkpt>
   <trkpt lat="53.5367510" lon="-113.4894540">
    <ele>620.4</ele>
    <time>2026-08-23T18:04:20Z</time>
   </trkpt>
   <trkpt lat="53.5367110" lon="-113.4894640">
    <ele>620.3</ele>
    <time>2026-08-23T18:04:21Z</time>
   </trkpt>
   <trkpt lat="53.5366650" lon="-113.4894620">
    <ele>620.1</ele>
    <time>2026-08-23T18:04:22Z</time>
   </trkpt>
   <trkpt lat="53.5366140" lon="-113.4894850">
    <ele>619.9</ele>
    <time>2026-08-23T18:04:23Z</time>
   </trkpt>
   <trkpt lat="53.5365820" lon="-113.4895300">
    <ele>619.8</ele>
    <time>2026-08-23T18:04:24Z</time>
   </trkpt>
   <trkpt lat="53.5365370" lon="-113.4895580">
    <ele>619.7</ele>
    <time>2026-08-23T18:04:25Z</time>
   </trkpt>
   <trkpt lat="53.5364990" lon="-113.4895900">
    <ele>619.6</ele>
    <time>2026-08-23T18:04:26Z</time>
   </trkpt>
   <trkpt lat="53.5364500" lon="-113.4896070">
    <ele>619.5</ele>
    <time>2026-08-23T18:04:27Z</time>
   </trkpt>
   <trkpt lat="53.5364010" lon="-113.4896330">
    <ele>619.5</ele>
    <time>2026-08-23T18:04:28Z</time>
   </trkpt>
   <trkpt lat="53.5363690" lon="-113.4896960">
    <ele>619.5</ele>
    <time>2026-08-23T18:04:29Z</time>
   </trkpt>
   <trkpt lat="53.5363280" lon="-113.4897010">
    <ele>619.5</ele>
    <time>2026-08-23T18:04:30Z</time>
   </trkpt>
   <trkpt lat="53.5362830" lon="-113.4897350">
    <ele>619.5</ele>
    <time>2026-08-23T18:04:31Z</time>
   </trkpt>
   <trkpt lat="53.5362700" lon="-113.4897740">
    <ele>619.6</ele>
    <time>2026-08-23T18:04:32Z</time>
   </trkpt>
   <trkpt lat="53.5362380" lon="-113.4898260">
    <ele>619.7</ele>
    <time>2026-08-23T18:04:33Z</time>
   </trkpt>
   <trkpt lat="53.5362060" lon="-113.4898290">
    <ele>619.8</ele>
    <time>2026-08-23T18:04:34Z</time>
   </trkpt>
   <trkpt lat="53.5361840" lon="-113.4898410">
    <ele>619.8</ele>
    <time>2026-08-23T18:04:35Z</time>
   </trkpt>
   <trkpt lat="53.5361740" lon="-113.4898550">
    <ele>619.9</ele>
    <time>2026-08-23T18:04:36Z</time>
   </trkpt>
   <trkpt lat="53.5361600" lon="-113.4898520">
    <ele>619.9</ele>
    <time>2026-08-23T18:04:37Z</time>
   </trkpt>
   <trkpt lat="53.5361370" lon="-113.4898740">
    <ele>620.0</ele>
    <time>2026-08-23T18:04:38Z</time>
   </trkpt>
   <trkpt lat="53.5361090" lon="-113.4898900">
    <ele>620.1</ele>
    <time>2026-08-23T18:04:39Z</time>
   </trkpt>
   <trkpt lat="53.5360740" lon="-113.4899030">
    <ele>620.2</ele>
    <time>2026-08-23T18:04:40Z</time>
   </trkpt>
   <trkpt lat="53.5360440" lon="-113.4899430">
    <ele>620.3</ele>
    <time>2026-08-23T18:04:41Z</time>
   </trkpt>
   <trkpt lat="53.5360040" lon="-113.4899800">
    <ele>620.4</ele>
    <time>2026-08-23T18:04:42Z</time>
   </trkpt>
   <trkpt lat="53.5359500" lon="-113.4900000">
    <ele>620.5</ele>
    <time>2026-08-23T18:04:43Z</time>
   </trkpt>
   <trkpt lat="53.5359080" lon="-113.4900410">
    <ele>620.7</ele>
    <time>2026-08-23T18:04:44Z</time>
   </trkpt>
   <trkpt lat="53.5358660" lon="-113.4900680">
    <ele>620.7</ele>
    <time>2026-08-23T18:04:45Z</time>
   </trkpt>
   <trkpt lat="53.5358350" lon="-113.4901020">
    <ele>620.8</ele>
    <time>2026-08-23T18:04:46Z</time>
   </trkpt>
   <trkpt lat="53.5357990" lon="-113.4901260">
    <ele>620.9</ele>
    <time>2026-08-23T18:04:47Z</time>
   </trkpt>
   <trkpt lat="53.5357680" lon="-113.4901470">
    <ele>620.9</ele>
    <time>2026-08-23T18:04:48Z</time>
   </trkpt>
   <trkpt lat="53.5357330" lon="-113.4901410">
    <ele>621.0</ele>
    <time>2026-08-23T18:04:49Z</time>
   </trkpt>
   <trkpt lat="53.5357010" lon="-113.4901540">
    <ele>621.0</ele>
    <time>2026-08-23T18:04:50Z</time>
   </trkpt>
   <trkpt lat="53.5356720" lon="-113.4901620">
    <ele>621.1</ele>
    <time>2026-08-23T18:04:51Z</time>
   </trkpt>
   <trkpt lat="53.5356440" lon="-113.4901790">
    <ele>621.1</ele>
    <time>2026-08-23T18:04:52Z</time>
   </trkpt>
   <trkpt lat="53.5356150" lon="-113.4901970">
    <ele>621.2</ele>
    <time>2026-08-23T18:04:53Z</time>
   </trkpt>
   <trkpt lat="53.5355960" lon="-113.4902170">
    <ele>621.2</ele>
    <time>2026-08-23T18:04:54Z</time>
   </trkpt>
   <trkpt lat="53.5355740" lon="-113.4902330">
    <ele>621.3</ele>
    <time>2026-08-23T18:04:55Z</time>
   </trkpt>
   <trkpt lat="53.5355690" lon="-113.4902700">
    <ele>621.3</ele>
    <time>2026-08-23T18:04:56Z</time>
   </trkpt>
   <trkpt lat="53.5355510" lon="-113.4902760">
    <ele>621.3</ele>
    <time>2026-08-23T18:04:57Z</time>
   </trkpt>
   <trkpt lat="53.5355240" lon="-113.4902910">
    <ele>621.4</ele>
    <time>2026-08-23T18:04:58Z</time>
   </trkpt>
   <trkpt lat="53.5354830" lon="-113.4903250">
    <ele>621.4</ele>
    <time>2026-08-23T18:04:59Z</time>
   </trkpt>
   <trkpt lat="53.5354370" lon="-113.4903500">
    <ele>621.5</ele>
    <time>2026-08-23T18:05:00Z</time>
   </trkpt>
   <trkpt lat="53.5353870" lon="-113.4903760">
    <ele>621.5</ele>
    <time>2026-08-23T18:05:01Z</time>
   </trkpt>
   <trkpt lat="53.5353840" lon="-113.4903810">
    <ele>621.5</ele>
    <time>2026-08-23T18:05:02Z</time>
   </trkpt>
   <trkpt lat="53.5353560" lon="-113.4904430">
    <ele>621.6</ele>
    <time>2026-08-23T18:05:04Z</time>
   </trkpt>
   <trkpt lat="53.5353420" lon="-113.4904770">
    <ele>621.6</ele>
    <time>2026-08-23T18:05:05Z</time>
   </trkpt>
   <trkpt lat="53.5352710" lon="-113.4904100">
    <ele>621.6</ele>
    <time>2026-08-23T18:05:06Z</time>
   </trkpt>
   <trkpt lat="53.5352290" lon="-113.4903720">
    <ele>621.6</ele>
    <time>2026-08-23T18:05:07Z</time>
   </trkpt>
   <trkpt lat="53.5351990" lon="-113.4903750">
    <ele>621.6</ele>
    <time>2026-08-23T18:05:08Z</time>
   </trkpt>
   <trkpt lat="53.5351690" lon="-113.4903880">
    <ele>621.6</ele>
    <time>2026-08-23T18:05:09Z</time>
   </trkpt>
   <trkpt lat="53.5351400" lon="-113.4904020">
    <ele>621.6</ele>
    <time>2026-08-23T18:05:10Z</time>
   </trkpt>
   <trkpt lat="53.5351130" lon="-113.4904110">
    <ele>621.6</ele>
    <time>2026-08-23T18:05:11Z</time>
   </trkpt>
   <trkpt lat="53.5350740" lon="-113.4904140">
    <ele>621.5</ele>
    <time>2026-08-23T18:05:12Z</time>
   </trkpt>
   <trkpt lat="53.5350480" lon="-113.4904280">
    <ele>621.5</ele>
    <time>2026-08-23T18:05:13Z</time>
   </trkpt>
   <trkpt lat="53.5350140" lon="-113.4904190">
    <ele>621.5</ele>
    <time>2026-08-23T18:05:14Z</time>
   </trkpt>
   <trkpt lat="53.5349840" lon="-113.4904120">
    <ele>621.4</ele>
    <time>2026-08-23T18:05:15Z</time>
   </trkpt>
   <trkpt lat="53.5349570" lon="-113.4904100">
    <ele>621.4</ele>
    <time>2026-08-23T18:05:16Z</time>
   </trkpt>
   <trkpt lat="53.5349290" lon="-113.4904090">
    <ele>621.4</ele>
    <time>2026-08-23T18:05:17Z</time>
   </trkpt>
   <trkpt lat="53.5348970" lon="-113.4904050">
    <ele>621.3</ele>
    <time>2026-08-23T18:05:18Z</time>
   </trkpt>
   <trkpt lat="53.5348580" lon="-113.4903890">
    <ele>621.3</ele>
    <time>2026-08-23T18:05:19Z</time>
   </trkpt>
   <trkpt lat="53.5348230" lon="-113.4903940">
    <ele>621.2</ele>
    <time>2026-08-23T18:05:20Z</time>
   </trkpt>
   <trkpt lat="53.5347880" lon="-113.4904010">
    <ele>621.2</ele>
    <time>2026-08-23T18:05:21Z</time>
   </trkpt>
   <trkpt lat="53.5347540" lon="-113.4904160">
    <ele>621.2</ele>
    <time>2026-08-23T18:05:22Z</time>
   </trkpt>
   <trkpt lat="53.5347150" lon="-113.4904280">
    <ele>621.2</ele>
    <time>2026-08-23T18:05:23Z</time>
   </trkpt>
   <trkpt lat="53.5346860" lon="-113.4904490">
    <ele>621.2</ele>
    <time>2026-08-23T18:05:24Z</time>
   </trkpt>
   <trkpt lat="53.5346620" lon="-113.4904620">
    <ele>621.3</ele>
    <time>2026-08-23T18:05:25Z</time>
   </trkpt>
   <trkpt lat="53.5346380" lon="-113.4904830">
    <ele>621.3</ele>
    <time>2026-08-23T18:05:26Z</time>
   </trkpt>
   <trkpt lat="53.5346300" lon="-113.4905250">
    <ele>621.4</ele>
    <time>2026-08-23T18:05:27Z</time>
   </trkpt>
   <trkpt lat="53.5346050" lon="-113.4905440">
    <ele>621.4</ele>
    <time>2026-08-23T18:05:28Z</time>
   </trkpt>
   <trkpt lat="53.5345740" lon="-113.4905650">
    <ele>621.5</ele>
    <time>2026-08-23T18:05:29Z</time>
   </trkpt>
   <trkpt lat="53.5345360" lon="-113.4905840">
    <ele>621.6</ele>
    <time>2026-08-23T18:05:30Z</time>
   </trkpt>
   <trkpt lat="53.5345200" lon="-113.4906140">
    <ele>621.6</ele>
    <time>2026-08-23T18:05:31Z</time>
   </trkpt>
   <trkpt lat="53.5345030" lon="-113.4906430">
    <ele>621.7</ele>
    <time>2026-08-23T18:05:32Z</time>
   </trkpt>
   <trkpt lat="53.5344860" lon="-113.4906720">
    <ele>621.7</ele>
    <time>2026-08-23T18:05:33Z</time>
   </trkpt>
   <trkpt lat="53.5344690" lon="-113.4906980">
    <ele>621.8</ele>
    <time>2026-08-23T18:05:34Z</time>
   </trkpt>
   <trkpt lat="53.5344460" lon="-113.4907480">
    <ele>621.8</ele>
    <time>2026-08-23T18:05:35Z</time>
   </trkpt>
   <trkpt lat="53.5344110" lon="-113.4908030">
    <ele>621.9</ele>
    <time>2026-08-23T18:05:36Z</time>
   </trkpt>
   <trkpt lat="53.5343810" lon="-113.4908520">
    <ele>622.0</ele>
    <time>2026-08-23T18:05:37Z</time>
   </trkpt>
   <trkpt lat="53.5343490" lon="-113.4908860">
    <ele>622.0</ele>
    <time>2026-08-23T18:05:38Z</time>
   </trkpt>
   <trkpt lat="53.5343120" lon="-113.4909090">
    <ele>622.1</ele>
    <time>2026-08-23T18:05:39Z</time>
   </trkpt>
   <trkpt lat="53.5342750" lon="-113.4909280">
    <ele>622.1</ele>
    <time>2026-08-23T18:05:40Z</time>
   </trkpt>
   <trkpt lat="53.5342150" lon="-113.4909650">
    <ele>622.1</ele>
    <time>2026-08-23T18:05:41Z</time>
   </trkpt>
   <trkpt lat="53.5341860" lon="-113.4909690">
    <ele>622.1</ele>
    <time>2026-08-23T18:05:42Z</time>
   </trkpt>
   <trkpt lat="53.5341600" lon="-113.4909770">
    <ele>622.1</ele>
    <time>2026-08-23T18:05:43Z</time>
   </trkpt>
   <trkpt lat="53.5341410" lon="-113.4909850">
    <ele>622.1</ele>
    <time>2026-08-23T18:05:44Z</time>
   </trkpt>
   <trkpt lat="53.5341130" lon="-113.4909810">
    <ele>622.0</ele>
    <time>2026-08-23T18:05:45Z</time>
   </trkpt>
   <trkpt lat="53.5340880" lon="-113.4909760">
    <ele>622.0</ele>
    <time>2026-08-23T18:05:46Z</time>
   </trkpt>
   <trkpt lat="53.5340620" lon="-113.4909840">
    <ele>622.0</ele>
    <time>2026-08-23T18:05:47Z</time>
   </trkpt>
   <trkpt lat="53.5340310" lon="-113.4909880">
    <ele>622.0</ele>
    <time>2026-08-23T18:05:48Z</time>
   </trkpt>
   <trkpt lat="53.5340050" lon="-113.4909890">
    <ele>622.0</ele>
    <time>2026-08-23T18:05:49Z</time>
   </trkpt>
   <trkpt lat="53.5339830" lon="-113.4909800">
    <ele>622.0</ele>
    <time>2026-08-23T18:05:50Z</time>
   </trkpt>
   <trkpt lat="53.5339610" lon="-113.4909720">
    <ele>622.0</ele>
    <time>2026-08-23T18:05:51Z</time>
   </trkpt>
   <trkpt lat="53.5339360" lon="-113.4909720">
    <ele>622.0</ele>
    <time>2026-08-23T18:05:52Z</time>
   </trkpt>
   <trkpt lat="53.5339060" lon="-113.4909730">
    <ele>622.0</ele>
    <time>2026-08-23T18:05:53Z</time>
   </trkpt>
   <trkpt lat="53.5338650" lon="-113.4909610">
    <ele>622.0</ele>
    <time>2026-08-23T18:05:54Z</time>
   </trkpt>
   <trkpt lat="53.5338290" lon="-113.4909500">
    <ele>621.9</ele>
    <time>2026-08-23T18:05:55Z</time>
   </trkpt>
   <trkpt lat="53.5337950" lon="-113.4909320">
    <ele>621.9</ele>
    <time>2026-08-23T18:05:56Z</time>
   </trkpt>
   <trkpt lat="53.5337600" lon="-113.4909080">
    <ele>621.8</ele>
    <time>2026-08-23T18:05:57Z</time>
   </trkpt>
   <trkpt lat="53.5337330" lon="-113.4908960">
    <ele>621.8</ele>
    <time>2026-08-23T18:05:58Z</time>
   </trkpt>
   <trkpt lat="53.5337160" lon="-113.4908670">
    <ele>621.7</ele>
    <time>2026-08-23T18:05:59Z</time>
   </trkpt>
   <trkpt lat="53.5336960" lon="-113.4908330">
    <ele>621.7</ele>
    <time>2026-08-23T18:06:00Z</time>
   </trkpt>
   <trkpt lat="53.5336740" lon="-113.4908000">
    <ele>621.7</ele>
    <time>2026-08-23T18:06:01Z</time>
   </trkpt>
   <trkpt lat="53.5336390" lon="-113.4907750">
    <ele>621.6</ele>
    <time>2026-08-23T18:06:02Z</time>
   </trkpt>
   <trkpt lat="53.5336040" lon="-113.4907320">
    <ele>621.5</ele>
    <time>2026-08-23T18:06:03Z</time>
   </trkpt>
   <trkpt lat="53.5335620" lon="-113.4906760">
    <ele>621.4</ele>
    <time>2026-08-23T18:06:04Z</time>
   </trkpt>
   <trkpt lat="53.5335220" lon="-113.4906260">
    <ele>621.3</ele>
    <time>2026-08-23T18:06:05Z</time>
   </trkpt>
   <trkpt lat="53.5334770" lon="-113.4905870">
    <ele>621.2</ele>
    <time>2026-08-23T18:06:06Z</time>
   </trkpt>
   <trkpt lat="53.5334280" lon="-113.4905540">
    <ele>621.1</ele>
    <time>2026-08-23T18:06:07Z</time>
   </trkpt>
   <trkpt lat="53.5333700" lon="-113.4905350">
    <ele>621.0</ele>
    <time>2026-08-23T18:06:08Z</time>
   </trkpt>
   <trkpt lat="53.5333360" lon="-113.4905250">
    <ele>620.9</ele>
    <time>2026-08-23T18:06:09Z</time>
   </trkpt>
   <trkpt lat="53.5332950" lon="-113.4905300">
    <ele>620.8</ele>
    <time>2026-08-23T18:06:10Z</time>
   </trkpt>
   <trkpt lat="53.5332590" lon="-113.4905440">
    <ele>620.8</ele>
    <time>2026-08-23T18:06:11Z</time>
   </trkpt>
   <trkpt lat="53.5332320" lon="-113.4905420">
    <ele>620.7</ele>
    <time>2026-08-23T18:06:12Z</time>
   </trkpt>
   <trkpt lat="53.5332130" lon="-113.4905540">
    <ele>620.7</ele>
    <time>2026-08-23T18:06:13Z</time>
   </trkpt>
   <trkpt lat="53.5331990" lon="-113.4905830">
    <ele>620.7</ele>
    <time>2026-08-23T18:06:14Z</time>
   </trkpt>
   <trkpt lat="53.5332040" lon="-113.4906450">
    <ele>620.6</ele>
    <time>2026-08-23T18:06:15Z</time>
   </trkpt>
   <trkpt lat="53.5332300" lon="-113.4906700">
    <ele>620.6</ele>
    <time>2026-08-23T18:06:17Z</time>
   </trkpt>
   <trkpt lat="53.5332560" lon="-113.4906600">
    <ele>620.6</ele>
    <time>2026-08-23T18:06:18Z</time>
   </trkpt>
   <trkpt lat="53.5332940" lon="-113.4906390">
    <ele>620.6</ele>
    <time>2026-08-23T18:06:19Z</time>
   </trkpt>
   <trkpt lat="53.5333450" lon="-113.4906330">
    <ele>620.6</ele>
    <time>2026-08-23T18:06:20Z</time>
   </trkpt>
   <trkpt lat="53.5333850" lon="-113.4906250">
    <ele>620.6</ele>
    <time>2026-08-23T18:06:21Z</time>
   </trkpt>
   <trkpt lat="53.5334290" lon="-113.4906500">
    <ele>620.6</ele>
    <time>2026-08-23T18:06:22Z</time>
   </trkpt>
   <trkpt lat="53.5334640" lon="-113.4906500">
    <ele>620.6</ele>
    <time>2026-08-23T18:06:23Z</time>
   </trkpt>
   <trkpt lat="53.5334900" lon="-113.4906700">
    <ele>620.6</ele>
    <time>2026-08-23T18:06:24Z</time>
   </trkpt>
   <trkpt lat="53.5335200" lon="-113.4906880">
    <ele>620.6</ele>
    <time>2026-08-23T18:06:25Z</time>
   </trkpt>
   <trkpt lat="53.5335430" lon="-113.4907240">
    <ele>620.6</ele>
    <time>2026-08-23T18:06:26Z</time>
   </trkpt>
   <trkpt lat="53.5335460" lon="-113.4907500">
    <ele>620.6</ele>
    <time>2026-08-23T18:06:27Z</time>
   </trkpt>
   <trkpt lat="53.5335260" lon="-113.4907420">
    <ele>620.7</ele>
    <time>2026-08-23T18:06:28Z</time>
   </trkpt>
   <trkpt lat="53.5335030" lon="-113.4907160">
    <ele>620.7</ele>
    <time>2026-08-23T18:06:29Z</time>
   </trkpt>
   <trkpt lat="53.5334760" lon="-113.4906620">
    <ele>620.7</ele>
    <time>2026-08-23T18:06:30Z</time>
   </trkpt>
   <trkpt lat="53.5334260" lon="-113.4906030">
    <ele>620.8</ele>
    <time>2026-08-23T18:06:31Z</time>
   </trkpt>
   <trkpt lat="53.5333910" lon="-113.4905770">
    <ele>620.8</ele>
    <time>2026-08-23T18:06:32Z</time>
   </trkpt>
   <trkpt lat="53.5333490" lon="-113.4905520">
    <ele>620.9</ele>
    <time>2026-08-23T18:06:33Z</time>
   </trkpt>
   <trkpt lat="53.5333050" lon="-113.4905640">
    <ele>620.9</ele>
    <time>2026-08-23T18:06:34Z</time>
   </trkpt>
   <trkpt lat="53.5332510" lon="-113.4905720">
    <ele>621.0</ele>
    <time>2026-08-23T18:06:35Z</time>
   </trkpt>
   <trkpt lat="53.5332020" lon="-113.4905790">
    <ele>621.1</ele>
    <time>2026-08-23T18:06:36Z</time>
   </trkpt>
   <trkpt lat="53.5331570" lon="-113.4905800">
    <ele>621.1</ele>
    <time>2026-08-23T18:06:37Z</time>
   </trkpt>
   <trkpt lat="53.5331060" lon="-113.4905890">
    <ele>621.2</ele>
    <time>2026-08-23T18:06:38Z</time>
   </trkpt>
   <trkpt lat="53.5330780" lon="-113.4906190">
    <ele>621.2</ele>
    <time>2026-08-23T18:06:39Z</time>
   </trkpt>
   <trkpt lat="53.5330400" lon="-113.4906560">
    <ele>621.3</ele>
    <time>2026-08-23T18:06:40Z</time>
   </trkpt>
   <trkpt lat="53.5329840" lon="-113.4906640">
    <ele>621.3</ele>
    <time>2026-08-23T18:06:41Z</time>
   </trkpt>
   <trkpt lat="53.5329460" lon="-113.4906980">
    <ele>621.4</ele>
    <time>2026-08-23T18:06:42Z</time>
   </trkpt>
   <trkpt lat="53.5329500" lon="-113.4907420">
    <ele>621.4</ele>
    <time>2026-08-23T18:06:43Z</time>
   </trkpt>
   <trkpt lat="53.5329260" lon="-113.4907590">
    <ele>621.4</ele>
    <time>2026-08-23T18:06:44Z</time>
   </trkpt>
   <trkpt lat="53.5329050" lon="-113.4907940">
    <ele>621.5</ele>
    <time>2026-08-23T18:06:45Z</time>
   </trkpt>
   <trkpt lat="53.5328720" lon="-113.4907990">
    <ele>621.5</ele>
    <time>2026-08-23T18:06:46Z</time>
   </trkpt>
   <trkpt lat="53.5328500" lon="-113.4908350">
    <ele>621.6</ele>
    <time>2026-08-23T18:06:47Z</time>
   </trkpt>
   <trkpt lat="53.5328280" lon="-113.4908720">
    <ele>621.6</ele>
    <time>2026-08-23T18:06:48Z</time>
   </trkpt>
   <trkpt lat="53.5327970" lon="-113.4908870">
    <ele>621.6</ele>
    <time>2026-08-23T18:06:49Z</time>
   </trkpt>
   <trkpt lat="53.5327740" lon="-113.4909070">
    <ele>621.6</ele>
    <time>2026-08-23T18:06:50Z</time>
   </trkpt>
   <trkpt lat="53.5327510" lon="-113.4909240">
    <ele>621.7</ele>
    <time>2026-08-23T18:06:51Z</time>
   </trkpt>
   <trkpt lat="53.5327260" lon="-113.4909280">
    <ele>621.7</ele>
    <time>2026-08-23T18:06:52Z</time>
   </trkpt>
   <trkpt lat="53.5326970" lon="-113.4909280">
    <ele>621.7</ele>
    <time>2026-08-23T18:06:53Z</time>
   </trkpt>
   <trkpt lat="53.5326750" lon="-113.4909330">
    <ele>621.7</ele>
    <time>2026-08-23T18:06:54Z</time>
   </trkpt>
   <trkpt lat="53.5326380" lon="-113.4909180">
    <ele>621.7</ele>
    <time>2026-08-23T18:06:55Z</time>
   </trkpt>
   <trkpt lat="53.5326070" lon="-113.4909300">
    <ele>621.7</ele>
    <time>2026-08-23T18:06:56Z</time>
   </trkpt>
   <trkpt lat="53.5325560" lon="-113.4909220">
    <ele>621.8</ele>
    <time>2026-08-23T18:06:57Z</time>
   </trkpt>
   <trkpt lat="53.5324940" lon="-113.4909300">
    <ele>621.8</ele>
    <time>2026-08-23T18:06:58Z</time>
   </trkpt>
   <trkpt lat="53.5324540" lon="-113.4909280">
    <ele>621.8</ele>
    <time>2026-08-23T18:06:59Z</time>
   </trkpt>
   <trkpt lat="53.5324430" lon="-113.4909860">
    <ele>622.0</ele>
    <time>2026-08-23T18:07:00Z</time>
   </trkpt>
   <trkpt lat="53.5324320" lon="-113.4910310">
    <ele>622.1</ele>
    <time>2026-08-23T18:07:01Z</time>
   </trkpt>
   <trkpt lat="53.5324300" lon="-113.4910720">
    <ele>622.1</ele>
    <time>2026-08-23T18:07:02Z</time>
   </trkpt>
   <trkpt lat="53.5324450" lon="-113.4911160">
    <ele>622.2</ele>
    <time>2026-08-23T18:07:03Z</time>
   </trkpt>
   <trkpt lat="53.5324500" lon="-113.4911490">
    <ele>622.2</ele>
    <time>2026-08-23T18:07:04Z</time>
   </trkpt>
   <trkpt lat="53.5324490" lon="-113.4911800">
    <ele>622.2</ele>
    <time>2026-08-23T18:07:05Z</time>
   </trkpt>
   <trkpt lat="53.5324490" lon="-113.4912140">
    <ele>622.2</ele>
    <time>2026-08-23T18:07:06Z</time>
   </trkpt>
   <trkpt lat="53.5324580" lon="-113.4912450">
    <ele>622.2</ele>
    <time>2026-08-23T18:07:07Z</time>
   </trkpt>
   <trkpt lat="53.5324630" lon="-113.4912710">
    <ele>622.2</ele>
    <time>2026-08-23T18:07:08Z</time>
   </trkpt>
   <trkpt lat="53.5324650" lon="-113.4912960">
    <ele>622.2</ele>
    <time>2026-08-23T18:07:09Z</time>
   </trkpt>
   <trkpt lat="53.5324630" lon="-113.4913130">
    <ele>622.2</ele>
    <time>2026-08-23T18:07:10Z</time>
   </trkpt>
   <trkpt lat="53.5324630" lon="-113.4913460">
    <ele>622.2</ele>
    <time>2026-08-23T18:07:11Z</time>
   </trkpt>
   <trkpt lat="53.5324700" lon="-113.4913910">
    <ele>622.2</ele>
    <time>2026-08-23T18:07:12Z</time>
   </trkpt>
   <trkpt lat="53.5324670" lon="-113.4914500">
    <ele>622.2</ele>
    <time>2026-08-23T18:07:13Z</time>
   </trkpt>
   <trkpt lat="53.5324780" lon="-113.4915010">
    <ele>622.2</ele>
    <time>2026-08-23T18:07:14Z</time>
   </trkpt>
   <trkpt lat="53.5324760" lon="-113.4915550">
    <ele>622.2</ele>
    <time>2026-08-23T18:07:15Z</time>
   </trkpt>
   <trkpt lat="53.5324740" lon="-113.4915900">
    <ele>622.2</ele>
    <time>2026-08-23T18:07:16Z</time>
   </trkpt>
   <trkpt lat="53.5324830" lon="-113.4916340">
    <ele>622.2</ele>
    <time>2026-08-23T18:07:17Z</time>
   </trkpt>
   <trkpt lat="53.5324770" lon="-113.4916690">
    <ele>622.2</ele>
    <time>2026-08-23T18:07:18Z</time>
   </trkpt>
   <trkpt lat="53.5324740" lon="-113.4917150">
    <ele>622.3</ele>
    <time>2026-08-23T18:07:19Z</time>
   </trkpt>
   <trkpt lat="53.5324780" lon="-113.4917490">
    <ele>622.3</ele>
    <time>2026-08-23T18:07:20Z</time>
   </trkpt>
   <trkpt lat="53.5324880" lon="-113.4917850">
    <ele>622.3</ele>
    <time>2026-08-23T18:07:21Z</time>
   </trkpt>
   <trkpt lat="53.5324910" lon="-113.4918220">
    <ele>622.3</ele>
    <time>2026-08-23T18:07:22Z</time>
   </trkpt>
   <trkpt lat="53.5324910" lon="-113.4918610">
    <ele>622.3</ele>
    <time>2026-08-23T18:07:23Z</time>
   </trkpt>
   <trkpt lat="53.5324920" lon="-113.4919050">
    <ele>622.3</ele>
    <time>2026-08-23T18:07:24Z</time>
   </trkpt>
   <trkpt lat="53.5324960" lon="-113.4919570">
    <ele>622.3</ele>
    <time>2026-08-23T18:07:25Z</time>
   </trkpt>
   <trkpt lat="53.5325030" lon="-113.4919920">
    <ele>622.3</ele>
    <time>2026-08-23T18:07:26Z</time>
   </trkpt>
   <trkpt lat="53.5325030" lon="-113.4920360">
    <ele>622.3</ele>
    <time>2026-08-23T18:07:27Z</time>
   </trkpt>
   <trkpt lat="53.5325000" lon="-113.4920760">
    <ele>622.3</ele>
    <time>2026-08-23T18:07:28Z</time>
   </trkpt>
   <trkpt lat="53.5324970" lon="-113.4921190">
    <ele>622.3</ele>
    <time>2026-08-23T18:07:29Z</time>
   </trkpt>
   <trkpt lat="53.5324980" lon="-113.4921630">
    <ele>622.3</ele>
    <time>2026-08-23T18:07:30Z</time>
   </trkpt>
   <trkpt lat="53.5324920" lon="-113.4922080">
    <ele>622.3</ele>
    <time>2026-08-23T18:07:31Z</time>
   </trkpt>
   <trkpt lat="53.5324930" lon="-113.4922530">
    <ele>622.3</ele>
    <time>2026-08-23T18:07:32Z</time>
   </trkpt>
   <trkpt lat="53.5324950" lon="-113.4922890">
    <ele>622.3</ele>
    <time>2026-08-23T18:07:33Z</time>
   </trkpt>
   <trkpt lat="53.5324950" lon="-113.4923320">
    <ele>622.3</ele>
    <time>2026-08-23T18:07:34Z</time>
   </trkpt>
   <trkpt lat="53.5324970" lon="-113.4923670">
    <ele>622.3</ele>
    <time>2026-08-23T18:07:35Z</time>
   </trkpt>
   <trkpt lat="53.5324960" lon="-113.4923830">
    <ele>622.3</ele>
    <time>2026-08-23T18:07:36Z</time>
   </trkpt>
   <trkpt lat="53.5324970" lon="-113.4924230">
    <ele>622.3</ele>
    <time>2026-08-23T18:07:37Z</time>
   </trkpt>
   <trkpt lat="53.5324990" lon="-113.4924670">
    <ele>622.4</ele>
    <time>2026-08-23T18:07:38Z</time>
   </trkpt>
   <trkpt lat="53.5324970" lon="-113.4925110">
    <ele>622.4</ele>
    <time>2026-08-23T18:07:39Z</time>
   </trkpt>
   <trkpt lat="53.5324970" lon="-113.4925540">
    <ele>622.4</ele>
    <time>2026-08-23T18:07:40Z</time>
   </trkpt>
   <trkpt lat="53.5324950" lon="-113.4926140">
    <ele>622.4</ele>
    <time>2026-08-23T18:07:41Z</time>
   </trkpt>
   <trkpt lat="53.5324960" lon="-113.4926540">
    <ele>622.4</ele>
    <time>2026-08-23T18:07:42Z</time>
   </trkpt>
   <trkpt lat="53.5324960" lon="-113.4926930">
    <ele>622.5</ele>
    <time>2026-08-23T18:07:43Z</time>
   </trkpt>
   <trkpt lat="53.5324960" lon="-113.4927370">
    <ele>622.5</ele>
    <time>2026-08-23T18:07:44Z</time>
   </trkpt>
   <trkpt lat="53.5324940" lon="-113.4927850">
    <ele>622.5</ele>
    <time>2026-08-23T18:07:45Z</time>
   </trkpt>
   <trkpt lat="53.5324900" lon="-113.4928300">
    <ele>622.6</ele>
    <time>2026-08-23T18:07:46Z</time>
   </trkpt>
   <trkpt lat="53.5324900" lon="-113.4928760">
    <ele>622.6</ele>
    <time>2026-08-23T18:07:47Z</time>
   </trkpt>
   <trkpt lat="53.5324910" lon="-113.4929260">
    <ele>622.6</ele>
    <time>2026-08-23T18:07:48Z</time>
   </trkpt>
   <trkpt lat="53.5324890" lon="-113.4929780">
    <ele>622.7</ele>
    <time>2026-08-23T18:07:49Z</time>
   </trkpt>
   <trkpt lat="53.5324880" lon="-113.4930310">
    <ele>622.7</ele>
    <time>2026-08-23T18:07:50Z</time>
   </trkpt>
   <trkpt lat="53.5324840" lon="-113.4930800">
    <ele>622.7</ele>
    <time>2026-08-23T18:07:51Z</time>
   </trkpt>
   <trkpt lat="53.5324900" lon="-113.4931320">
    <ele>622.8</ele>
    <time>2026-08-23T18:07:52Z</time>
   </trkpt>
   <trkpt lat="53.5324890" lon="-113.4931900">
    <ele>622.8</ele>
    <time>2026-08-23T18:07:53Z</time>
   </trkpt>
   <trkpt lat="53.5324860" lon="-113.4932430">
    <ele>622.8</ele>
    <time>2026-08-23T18:07:54Z</time>
   </trkpt>
   <trkpt lat="53.5324880" lon="-113.4932690">
    <ele>622.9</ele>
    <time>2026-08-23T18:07:55Z</time>
   </trkpt>
   <trkpt lat="53.5324930" lon="-113.4933140">
    <ele>622.9</ele>
    <time>2026-08-23T18:07:56Z</time>
   </trkpt>
   <trkpt lat="53.5324940" lon="-113.4933660">
    <ele>622.9</ele>
    <time>2026-08-23T18:07:57Z</time>
   </trkpt>
   <trkpt lat="53.5324890" lon="-113.4933950">
    <ele>623.0</ele>
    <time>2026-08-23T18:07:58Z</time>
   </trkpt>
   <trkpt lat="53.5324800" lon="-113.4934340">
    <ele>623.0</ele>
    <time>2026-08-23T18:07:59Z</time>
   </trkpt>
   <trkpt lat="53.5324820" lon="-113.4934720">
    <ele>623.0</ele>
    <time>2026-08-23T18:08:00Z</time>
   </trkpt>
   <trkpt lat="53.5324860" lon="-113.4935100">
    <ele>623.0</ele>
    <time>2026-08-23T18:08:01Z</time>
   </trkpt>
   <trkpt lat="53.5324920" lon="-113.4935480">
    <ele>623.0</ele>
    <time>2026-08-23T18:08:02Z</time>
   </trkpt>
   <trkpt lat="53.5325070" lon="-113.4935860">
    <ele>623.1</ele>
    <time>2026-08-23T18:08:03Z</time>
   </trkpt>
   <trkpt lat="53.5325050" lon="-113.4936250">
    <ele>623.1</ele>
    <time>2026-08-23T18:08:04Z</time>
   </trkpt>
   <trkpt lat="53.5325000" lon="-113.4936640">
    <ele>623.1</ele>
    <time>2026-08-23T18:08:05Z</time>
   </trkpt>
   <trkpt lat="53.5324930" lon="-113.4937050">
    <ele>623.1</ele>
    <time>2026-08-23T18:08:06Z</time>
   </trkpt>
   <trkpt lat="53.5324890" lon="-113.4937430">
    <ele>623.1</ele>
    <time>2026-08-23T18:08:07Z</time>
   </trkpt>
   <trkpt lat="53.5324940" lon="-113.4937860">
    <ele>623.1</ele>
    <time>2026-08-23T18:08:08Z</time>
   </trkpt>
   <trkpt lat="53.5325020" lon="-113.4938300">
    <ele>623.2</ele>
    <time>2026-08-23T18:08:09Z</time>
   </trkpt>
   <trkpt lat="53.5325010" lon="-113.4938720">
    <ele>623.2</ele>
    <time>2026-08-23T18:08:10Z</time>
   </trkpt>
   <trkpt lat="53.5324980" lon="-113.4939120">
    <ele>623.2</ele>
    <time>2026-08-23T18:08:11Z</time>
   </trkpt>
   <trkpt lat="53.5324980" lon="-113.4939560">
    <ele>623.2</ele>
    <time>2026-08-23T18:08:12Z</time>
   </trkpt>
   <trkpt lat="53.5324960" lon="-113.4940080">
    <ele>623.3</ele>
    <time>2026-08-23T18:08:13Z</time>
   </trkpt>
   <trkpt lat="53.5324950" lon="-113.4940930">
    <ele>623.3</ele>
    <time>2026-08-23T18:08:14Z</time>
   </trkpt>
   <trkpt lat="53.5324990" lon="-113.4941680">
    <ele>623.3</ele>
    <time>2026-08-23T18:08:15Z</time>
   </trkpt>
   <trkpt lat="53.5325040" lon="-113.4942310">
    <ele>623.3</ele>
    <time>2026-08-23T18:08:16Z</time>
   </trkpt>
   <trkpt lat="53.5325000" lon="-113.4942950">
    <ele>623.4</ele>
    <time>2026-08-23T18:08:17Z</time>
   </trkpt>
   <trkpt lat="53.5325000" lon="-113.4943600">
    <ele>623.4</ele>
    <time>2026-08-23T18:08:18Z</time>
   </trkpt>
   <trkpt lat="53.5325110" lon="-113.4944200">
    <ele>623.4</ele>
    <time>2026-08-23T18:08:19Z</time>
   </trkpt>
   <trkpt lat="53.5325090" lon="-113.4944570">
    <ele>623.4</ele>
    <time>2026-08-23T18:08:20Z</time>
   </trkpt>
   <trkpt lat="53.5325010" lon="-113.4944890">
    <ele>623.4</ele>
    <time>2026-08-23T18:08:21Z</time>
   </trkpt>
   <trkpt lat="53.5325040" lon="-113.4945320">
    <ele>623.4</ele>
    <time>2026-08-23T18:08:22Z</time>
   </trkpt>
   <trkpt lat="53.5325040" lon="-113.4945760">
    <ele>623.4</ele>
    <time>2026-08-23T18:08:23Z</time>
   </trkpt>
   <trkpt lat="53.5324930" lon="-113.4946310">
    <ele>623.5</ele>
    <time>2026-08-23T18:08:24Z</time>
   </trkpt>
   <trkpt lat="53.5324900" lon="-113.4946820">
    <ele>623.5</ele>
    <time>2026-08-23T18:08:25Z</time>
   </trkpt>
   <trkpt lat="53.5324940" lon="-113.4947370">
    <ele>623.4</ele>
    <time>2026-08-23T18:08:26Z</time>
   </trkpt>
   <trkpt lat="53.5325000" lon="-113.4947860">
    <ele>623.4</ele>
    <time>2026-08-23T18:08:27Z</time>
   </trkpt>
   <trkpt lat="53.5325010" lon="-113.4948420">
    <ele>623.5</ele>
    <time>2026-08-23T18:08:28Z</time>
   </trkpt>
   <trkpt lat="53.5325000" lon="-113.4948930">
    <ele>623.5</ele>
    <time>2026-08-23T18:08:29Z</time>
   </trkpt>
   <trkpt lat="53.5324970" lon="-113.4949440">
    <ele>623.5</ele>
    <time>2026-08-23T18:08:30Z</time>
   </trkpt>
   <trkpt lat="53.5324940" lon="-113.4949990">
    <ele>623.6</ele>
    <time>2026-08-23T18:08:31Z</time>
   </trkpt>
   <trkpt lat="53.5324900" lon="-113.4950620">
    <ele>623.6</ele>
    <time>2026-08-23T18:08:32Z</time>
   </trkpt>
   <trkpt lat="53.5324830" lon="-113.4951100">
    <ele>623.6</ele>
    <time>2026-08-23T18:08:33Z</time>
   </trkpt>
   <trkpt lat="53.5324700" lon="-113.4951620">
    <ele>623.7</ele>
    <time>2026-08-23T18:08:34Z</time>
   </trkpt>
   <trkpt lat="53.5324540" lon="-113.4952080">
    <ele>623.7</ele>
    <time>2026-08-23T18:08:35Z</time>
   </trkpt>
   <trkpt lat="53.5324440" lon="-113.4952590">
    <ele>623.8</ele>
    <time>2026-08-23T18:08:36Z</time>
   </trkpt>
   <trkpt lat="53.5324380" lon="-113.4953060">
    <ele>623.8</ele>
    <time>2026-08-23T18:08:37Z</time>
   </trkpt>
   <trkpt lat="53.5324130" lon="-113.4953470">
    <ele>623.8</ele>
    <time>2026-08-23T18:08:38Z</time>
   </trkpt>
   <trkpt lat="53.5324070" lon="-113.4954050">
    <ele>623.9</ele>
    <time>2026-08-23T18:08:39Z</time>
   </trkpt>
   <trkpt lat="53.5324120" lon="-113.4954590">
    <ele>623.9</ele>
    <time>2026-08-23T18:08:40Z</time>
   </trkpt>
   <trkpt lat="53.5324350" lon="-113.4954920">
    <ele>624.0</ele>
    <time>2026-08-23T18:08:41Z</time>
   </trkpt>
   <trkpt lat="53.5324390" lon="-113.4955180">
    <ele>624.0</ele>
    <time>2026-08-23T18:08:42Z</time>
   </trkpt>
   <trkpt lat="53.5324520" lon="-113.4955460">
    <ele>624.0</ele>
    <time>2026-08-23T18:08:43Z</time>
   </trkpt>
   <trkpt lat="53.5324560" lon="-113.4955840">
    <ele>624.0</ele>
    <time>2026-08-23T18:08:44Z</time>
   </trkpt>
   <trkpt lat="53.5324580" lon="-113.4956250">
    <ele>624.1</ele>
    <time>2026-08-23T18:08:45Z</time>
   </trkpt>
   <trkpt lat="53.5324730" lon="-113.4956570">
    <ele>624.1</ele>
    <time>2026-08-23T18:08:46Z</time>
   </trkpt>
   <trkpt lat="53.5324810" lon="-113.4956580">
    <ele>624.1</ele>
    <time>2026-08-23T18:08:47Z</time>
   </trkpt>
   <trkpt lat="53.5325050" lon="-113.4956360">
    <ele>624.1</ele>
    <time>2026-08-23T18:08:48Z</time>
   </trkpt>
   <trkpt lat="53.5325190" lon="-113.4956400">
    <ele>624.2</ele>
    <time>2026-08-23T18:08:49Z</time>
   </trkpt>
   <trkpt lat="53.5325120" lon="-113.4956900">
    <ele>624.2</ele>
    <time>2026-08-23T18:08:50Z</time>
   </trkpt>
   <trkpt lat="53.5325160" lon="-113.4957330">
    <ele>624.2</ele>
    <time>2026-08-23T18:08:51Z</time>
   </trkpt>
   <trkpt lat="53.5325120" lon="-113.4957960">
    <ele>624.2</ele>
    <time>2026-08-23T18:08:52Z</time>
   </trkpt>
   <trkpt lat="53.5324990" lon="-113.4958390">
    <ele>624.2</ele>
    <time>2026-08-23T18:08:53Z</time>
   </trkpt>
   <trkpt lat="53.5325090" lon="-113.4958710">
    <ele>624.2</ele>
    <time>2026-08-23T18:08:54Z</time>
   </trkpt>
   <trkpt lat="53.5325110" lon="-113.4958970">
    <ele>624.2</ele>
    <time>2026-08-23T18:08:55Z</time>
   </trkpt>
   <trkpt lat="53.5325090" lon="-113.4959400">
    <ele>624.2</ele>
    <time>2026-08-23T18:08:56Z</time>
   </trkpt>
   <trkpt lat="53.5325110" lon="-113.4959800">
    <ele>624.2</ele>
    <time>2026-08-23T18:08:57Z</time>
   </trkpt>
   <trkpt lat="53.5325110" lon="-113.4960200">
    <ele>624.2</ele>
    <time>2026-08-23T18:08:58Z</time>
   </trkpt>
   <trkpt lat="53.5325010" lon="-113.4960520">
    <ele>624.2</ele>
    <time>2026-08-23T18:08:59Z</time>
   </trkpt>
   <trkpt lat="53.5324900" lon="-113.4960960">
    <ele>624.2</ele>
    <time>2026-08-23T18:09:00Z</time>
   </trkpt>
   <trkpt lat="53.5324700" lon="-113.4961240">
    <ele>624.2</ele>
    <time>2026-08-23T18:09:01Z</time>
   </trkpt>
   <trkpt lat="53.5324650" lon="-113.4961680">
    <ele>624.2</ele>
    <time>2026-08-23T18:09:02Z</time>
   </trkpt>
   <trkpt lat="53.5324590" lon="-113.4962070">
    <ele>624.2</ele>
    <time>2026-08-23T18:09:03Z</time>
   </trkpt>
   <trkpt lat="53.5324410" lon="-113.4962440">
    <ele>624.2</ele>
    <time>2026-08-23T18:09:04Z</time>
   </trkpt>
   <trkpt lat="53.5324320" lon="-113.4962880">
    <ele>624.2</ele>
    <time>2026-08-23T18:09:05Z</time>
   </trkpt>
   <trkpt lat="53.5324240" lon="-113.4963250">
    <ele>624.2</ele>
    <time>2026-08-23T18:09:06Z</time>
   </trkpt>
   <trkpt lat="53.5324070" lon="-113.4963610">
    <ele>624.2</ele>
    <time>2026-08-23T18:09:07Z</time>
   </trkpt>
   <trkpt lat="53.5324110" lon="-113.4964010">
    <ele>624.2</ele>
    <time>2026-08-23T18:09:08Z</time>
   </trkpt>
   <trkpt lat="53.5324160" lon="-113.4964400">
    <ele>624.3</ele>
    <time>2026-08-23T18:09:09Z</time>
   </trkpt>
   <trkpt lat="53.5324010" lon="-113.4964750">
    <ele>624.3</ele>
    <time>2026-08-23T18:09:10Z</time>
   </trkpt>
   <trkpt lat="53.5323910" lon="-113.4965100">
    <ele>624.3</ele>
    <time>2026-08-23T18:09:11Z</time>
   </trkpt>
   <trkpt lat="53.5323890" lon="-113.4965600">
    <ele>624.3</ele>
    <time>2026-08-23T18:09:12Z</time>
   </trkpt>
   <trkpt lat="53.5323800" lon="-113.4965980">
    <ele>624.3</ele>
    <time>2026-08-23T18:09:13Z</time>
   </trkpt>
   <trkpt lat="53.5323770" lon="-113.4966370">
    <ele>624.3</ele>
    <time>2026-08-23T18:09:14Z</time>
   </trkpt>
   <trkpt lat="53.5323700" lon="-113.4966800">
    <ele>624.3</ele>
    <time>2026-08-23T18:09:15Z</time>
   </trkpt>
   <trkpt lat="53.5323580" lon="-113.4967210">
    <ele>624.3</ele>
    <time>2026-08-23T18:09:16Z</time>
   </trkpt>
   <trkpt lat="53.5323520" lon="-113.4967560">
    <ele>624.3</ele>
    <time>2026-08-23T18:09:17Z</time>
   </trkpt>
   <trkpt lat="53.5323490" lon="-113.4967780">
    <ele>624.3</ele>
    <time>2026-08-23T18:09:18Z</time>
   </trkpt>
   <trkpt lat="53.5323350" lon="-113.4968030">
    <ele>624.3</ele>
    <time>2026-08-23T18:09:19Z</time>
   </trkpt>
   <trkpt lat="53.5323360" lon="-113.4968460">
    <ele>624.3</ele>
    <time>2026-08-23T18:09:20Z</time>
   </trkpt>
   <trkpt lat="53.5323290" lon="-113.4969130">
    <ele>624.3</ele>
    <time>2026-08-23T18:09:21Z</time>
   </trkpt>
   <trkpt lat="53.5323180" lon="-113.4970120">
    <ele>624.3</ele>
    <time>2026-08-23T18:09:22Z</time>
   </trkpt>
   <trkpt lat="53.5323010" lon="-113.4970990">
    <ele>624.4</ele>
    <time>2026-08-23T18:09:23Z</time>
   </trkpt>
   <trkpt lat="53.5323080" lon="-113.4972220">
    <ele>624.4</ele>
    <time>2026-08-23T18:09:24Z</time>
   </trkpt>
   <trkpt lat="53.5323070" lon="-113.4973050">
    <ele>624.4</ele>
    <time>2026-08-23T18:09:25Z</time>
   </trkpt>
   <trkpt lat="53.5323030" lon="-113.4973660">
    <ele>624.4</ele>
    <time>2026-08-23T18:09:26Z</time>
   </trkpt>
   <trkpt lat="53.5323000" lon="-113.4974130">
    <ele>624.4</ele>
    <time>2026-08-23T18:09:27Z</time>
   </trkpt>
   <trkpt lat="53.5322810" lon="-113.4974150">
    <ele>624.4</ele>
    <time>2026-08-23T18:09:28Z</time>
   </trkpt>
   <trkpt lat="53.5322770" lon="-113.4974190">
    <ele>624.4</ele>
    <time>2026-08-23T18:09:29Z</time>
   </trkpt>
   <trkpt lat="53.5322730" lon="-113.4974350">
    <ele>624.4</ele>
    <time>2026-08-23T18:09:30Z</time>
   </trkpt>
   <trkpt lat="53.5322490" lon="-113.4974290">
    <ele>624.4</ele>
    <time>2026-08-23T18:09:31Z</time>
   </trkpt>
   <trkpt lat="53.5322300" lon="-113.4974380">
    <ele>624.4</ele>
    <time>2026-08-23T18:09:32Z</time>
   </trkpt>
   <trkpt lat="53.5322140" lon="-113.4974470">
    <ele>624.4</ele>
    <time>2026-08-23T18:09:33Z</time>
   </trkpt>
   <trkpt lat="53.5322010" lon="-113.4974560">
    <ele>624.4</ele>
    <time>2026-08-23T18:09:34Z</time>
   </trkpt>
   <trkpt lat="53.5322200" lon="-113.4974450">
    <ele>624.4</ele>
    <time>2026-08-23T18:09:35Z</time>
   </trkpt>
   <trkpt lat="53.5322050" lon="-113.4974330">
    <ele>624.4</ele>
    <time>2026-08-23T18:09:36Z</time>
   </trkpt>
   <trkpt lat="53.5321980" lon="-113.4974230">
    <ele>624.4</ele>
    <time>2026-08-23T18:09:37Z</time>
   </trkpt>
   <trkpt lat="53.5321910" lon="-113.4974240">
    <ele>624.4</ele>
    <time>2026-08-23T18:09:38Z</time>
   </trkpt>
   <trkpt lat="53.5321760" lon="-113.4974360">
    <ele>624.4</ele>
    <time>2026-08-23T18:09:39Z</time>
   </trkpt>
   <trkpt lat="53.5321410" lon="-113.4974470">
    <ele>624.4</ele>
    <time>2026-08-23T18:09:40Z</time>
   </trkpt>
   <trkpt lat="53.5321210" lon="-113.4974590">
    <ele>624.4</ele>
    <time>2026-08-23T18:09:41Z</time>
   </trkpt>
   <trkpt lat="53.5321110" lon="-113.4974720">
    <ele>624.4</ele>
    <time>2026-08-23T18:09:42Z</time>
   </trkpt>
   <trkpt lat="53.5320980" lon="-113.4974850">
    <ele>624.4</ele>
    <time>2026-08-23T18:09:43Z</time>
   </trkpt>
   <trkpt lat="53.5321080" lon="-113.4975010">
    <ele>624.4</ele>
    <time>2026-08-23T18:09:44Z</time>
   </trkpt>
   <trkpt lat="53.5320900" lon="-113.4975090">
    <ele>624.4</ele>
    <time>2026-08-23T18:09:45Z</time>
   </trkpt>
   <trkpt lat="53.5320670" lon="-113.4975180">
    <ele>624.4</ele>
    <time>2026-08-23T18:09:46Z</time>
   </trkpt>
   <trkpt lat="53.5320390" lon="-113.4975360">
    <ele>624.4</ele>
    <time>2026-08-23T18:09:47Z</time>
   </trkpt>
   <trkpt lat="53.5320170" lon="-113.4975540">
    <ele>624.4</ele>
    <time>2026-08-23T18:09:48Z</time>
   </trkpt>
   <trkpt lat="53.5319960" lon="-113.4975630">
    <ele>624.4</ele>
    <time>2026-08-23T18:09:49Z</time>
   </trkpt>
   <trkpt lat="53.5319830" lon="-113.4975790">
    <ele>624.4</ele>
    <time>2026-08-23T18:09:50Z</time>
   </trkpt>
   <trkpt lat="53.5319650" lon="-113.4975940">
    <ele>624.4</ele>
    <time>2026-08-23T18:09:51Z</time>
   </trkpt>
   <trkpt lat="53.5319450" lon="-113.4976150">
    <ele>624.4</ele>
    <time>2026-08-23T18:09:52Z</time>
   </trkpt>
   <trkpt lat="53.5319130" lon="-113.4976350">
    <ele>624.4</ele>
    <time>2026-08-23T18:09:53Z</time>
   </trkpt>
   <trkpt lat="53.5319020" lon="-113.4976490">
    <ele>624.4</ele>
    <time>2026-08-23T18:09:54Z</time>
   </trkpt>
   <trkpt lat="53.5318730" lon="-113.4976610">
    <ele>624.4</ele>
    <time>2026-08-23T18:09:55Z</time>
   </trkpt>
   <trkpt lat="53.5318400" lon="-113.4976770">
    <ele>624.4</ele>
    <time>2026-08-23T18:09:56Z</time>
   </trkpt>
   <trkpt lat="53.5318160" lon="-113.4977020">
    <ele>624.4</ele>
    <time>2026-08-23T18:09:57Z</time>
   </trkpt>
   <trkpt lat="53.5317900" lon="-113.4977290">
    <ele>624.4</ele>
    <time>2026-08-23T18:09:58Z</time>
   </trkpt>
   <trkpt lat="53.5317600" lon="-113.4977500">
    <ele>624.4</ele>
    <time>2026-08-23T18:09:59Z</time>
   </trkpt>
   <trkpt lat="53.5317320" lon="-113.4977730">
    <ele>624.5</ele>
    <time>2026-08-23T18:10:00Z</time>
   </trkpt>
   <trkpt lat="53.5317030" lon="-113.4977950">
    <ele>624.5</ele>
    <time>2026-08-23T18:10:01Z</time>
   </trkpt>
   <trkpt lat="53.5316840" lon="-113.4978360">
    <ele>624.5</ele>
    <time>2026-08-23T18:10:02Z</time>
   </trkpt>
   <trkpt lat="53.5316620" lon="-113.4978610">
    <ele>624.5</ele>
    <time>2026-08-23T18:10:03Z</time>
   </trkpt>
   <trkpt lat="53.5316360" lon="-113.4978830">
    <ele>624.5</ele>
    <time>2026-08-23T18:10:04Z</time>
   </trkpt>
   <trkpt lat="53.5316120" lon="-113.4979120">
    <ele>624.5</ele>
    <time>2026-08-23T18:10:05Z</time>
   </trkpt>
   <trkpt lat="53.5315860" lon="-113.4979370">
    <ele>624.6</ele>
    <time>2026-08-23T18:10:06Z</time>
   </trkpt>
   <trkpt lat="53.5315650" lon="-113.4979690">
    <ele>624.6</ele>
    <time>2026-08-23T18:10:07Z</time>
   </trkpt>
   <trkpt lat="53.5315400" lon="-113.4980030">
    <ele>624.6</ele>
    <time>2026-08-23T18:10:08Z</time>
   </trkpt>
   <trkpt lat="53.5315180" lon="-113.4980380">
    <ele>624.6</ele>
    <time>2026-08-23T18:10:09Z</time>
   </trkpt>
   <trkpt lat="53.5314930" lon="-113.4980720">
    <ele>624.6</ele>
    <time>2026-08-23T18:10:10Z</time>
   </trkpt>
   <trkpt lat="53.5314680" lon="-113.4980940">
    <ele>624.6</ele>
    <time>2026-08-23T18:10:11Z</time>
   </trkpt>
   <trkpt lat="53.5314430" lon="-113.4981230">
    <ele>624.7</ele>
    <time>2026-08-23T18:10:12Z</time>
   </trkpt>
   <trkpt lat="53.5314320" lon="-113.4981420">
    <ele>624.7</ele>
    <time>2026-08-23T18:10:13Z</time>
   </trkpt>
   <trkpt lat="53.5314140" lon="-113.4981670">
    <ele>624.7</ele>
    <time>2026-08-23T18:10:14Z</time>
   </trkpt>
   <trkpt lat="53.5313990" lon="-113.4981960">
    <ele>624.7</ele>
    <time>2026-08-23T18:10:15Z</time>
   </trkpt>
   <trkpt lat="53.5313790" lon="-113.4982180">
    <ele>624.7</ele>
    <time>2026-08-23T18:10:16Z</time>
   </trkpt>
   <trkpt lat="53.5313630" lon="-113.4982470">
    <ele>624.8</ele>
    <time>2026-08-23T18:10:17Z</time>
   </trkpt>
   <trkpt lat="53.5313430" lon="-113.4982720">
    <ele>624.8</ele>
    <time>2026-08-23T18:10:18Z</time>
   </trkpt>
   <trkpt lat="53.5313210" lon="-113.4982940">
    <ele>624.8</ele>
    <time>2026-08-23T18:10:19Z</time>
   </trkpt>
   <trkpt lat="53.5312990" lon="-113.4983160">
    <ele>624.8</ele>
    <time>2026-08-23T18:10:20Z</time>
   </trkpt>
   <trkpt lat="53.5312730" lon="-113.4983310">
    <ele>624.8</ele>
    <time>2026-08-23T18:10:21Z</time>
   </trkpt>
   <trkpt lat="53.5312510" lon="-113.4983520">
    <ele>624.9</ele>
    <time>2026-08-23T18:10:22Z</time>
   </trkpt>
   <trkpt lat="53.5312330" lon="-113.4983800">
    <ele>624.9</ele>
    <time>2026-08-23T18:10:23Z</time>
   </trkpt>
   <trkpt lat="53.5312100" lon="-113.4983860">
    <ele>624.9</ele>
    <time>2026-08-23T18:10:24Z</time>
   </trkpt>
   <trkpt lat="53.5311860" lon="-113.4984040">
    <ele>624.9</ele>
    <time>2026-08-23T18:10:25Z</time>
   </trkpt>
   <trkpt lat="53.5311710" lon="-113.4984400">
    <ele>624.9</ele>
    <time>2026-08-23T18:10:26Z</time>
   </trkpt>
   <trkpt lat="53.5311550" lon="-113.4984720">
    <ele>625.0</ele>
    <time>2026-08-23T18:10:27Z</time>
   </trkpt>
   <trkpt lat="53.5311390" lon="-113.4985040">
    <ele>625.0</ele>
    <time>2026-08-23T18:10:28Z</time>
   </trkpt>
   <trkpt lat="53.5311250" lon="-113.4985330">
    <ele>625.0</ele>
    <time>2026-08-23T18:10:29Z</time>
   </trkpt>
   <trkpt lat="53.5311090" lon="-113.4985690">
    <ele>625.0</ele>
    <time>2026-08-23T18:10:30Z</time>
   </trkpt>
   <trkpt lat="53.5310990" lon="-113.4986060">
    <ele>625.1</ele>
    <time>2026-08-23T18:10:31Z</time>
   </trkpt>
   <trkpt lat="53.5310870" lon="-113.4986460">
    <ele>625.1</ele>
    <time>2026-08-23T18:10:32Z</time>
   </trkpt>
   <trkpt lat="53.5310780" lon="-113.4986870">
    <ele>625.1</ele>
    <time>2026-08-23T18:10:33Z</time>
   </trkpt>
   <trkpt lat="53.5310680" lon="-113.4987260">
    <ele>625.2</ele>
    <time>2026-08-23T18:10:34Z</time>
   </trkpt>
   <trkpt lat="53.5310600" lon="-113.4987650">
    <ele>625.2</ele>
    <time>2026-08-23T18:10:35Z</time>
   </trkpt>
   <trkpt lat="53.5310450" lon="-113.4987980">
    <ele>625.2</ele>
    <time>2026-08-23T18:10:36Z</time>
   </trkpt>
   <trkpt lat="53.5310270" lon="-113.4988300">
    <ele>625.2</ele>
    <time>2026-08-23T18:10:37Z</time>
   </trkpt>
   <trkpt lat="53.5310070" lon="-113.4988570">
    <ele>625.3</ele>
    <time>2026-08-23T18:10:38Z</time>
   </trkpt>
   <trkpt lat="53.5309910" lon="-113.4988880">
    <ele>625.3</ele>
    <time>2026-08-23T18:10:39Z</time>
   </trkpt>
   <trkpt lat="53.5309750" lon="-113.4989180">
    <ele>625.4</ele>
    <time>2026-08-23T18:10:40Z</time>
   </trkpt>
   <trkpt lat="53.5309610" lon="-113.4989460">
    <ele>625.4</ele>
    <time>2026-08-23T18:10:41Z</time>
   </trkpt>
   <trkpt lat="53.5309440" lon="-113.4989790">
    <ele>625.5</ele>
    <time>2026-08-23T18:10:42Z</time>
   </trkpt>
   <trkpt lat="53.5309230" lon="-113.4990040">
    <ele>625.5</ele>
    <time>2026-08-23T18:10:43Z</time>
   </trkpt>
   <trkpt lat="53.5309100" lon="-113.4990440">
    <ele>625.5</ele>
    <time>2026-08-23T18:10:44Z</time>
   </trkpt>
   <trkpt lat="53.5308910" lon="-113.4990750">
    <ele>625.6</ele>
    <time>2026-08-23T18:10:45Z</time>
   </trkpt>
   <trkpt lat="53.5308750" lon="-113.4991070">
    <ele>625.6</ele>
    <time>2026-08-23T18:10:46Z</time>
   </trkpt>
   <trkpt lat="53.5308590" lon="-113.4991380">
    <ele>625.7</ele>
    <time>2026-08-23T18:10:47Z</time>
   </trkpt>
   <trkpt lat="53.5308490" lon="-113.4991740">
    <ele>625.7</ele>
    <time>2026-08-23T18:10:48Z</time>
   </trkpt>
   <trkpt lat="53.5308340" lon="-113.4992060">
    <ele>625.7</ele>
    <time>2026-08-23T18:10:49Z</time>
   </trkpt>
   <trkpt lat="53.5308140" lon="-113.4992260">
    <ele>625.8</ele>
    <time>2026-08-23T18:10:50Z</time>
   </trkpt>
   <trkpt lat="53.5307960" lon="-113.4992450">
    <ele>625.8</ele>
    <time>2026-08-23T18:10:51Z</time>
   </trkpt>
   <trkpt lat="53.5307800" lon="-113.4992720">
    <ele>625.9</ele>
    <time>2026-08-23T18:10:52Z</time>
   </trkpt>
   <trkpt lat="53.5307620" lon="-113.4992970">
    <ele>625.9</ele>
    <time>2026-08-23T18:10:53Z</time>
   </trkpt>
   <trkpt lat="53.5307450" lon="-113.4993270">
    <ele>625.9</ele>
    <time>2026-08-23T18:10:54Z</time>
   </trkpt>
   <trkpt lat="53.5307290" lon="-113.4993590">
    <ele>626.0</ele>
    <time>2026-08-23T18:10:55Z</time>
   </trkpt>
   <trkpt lat="53.5307230" lon="-113.4994000">
    <ele>626.0</ele>
    <time>2026-08-23T18:10:56Z</time>
   </trkpt>
   <trkpt lat="53.5307070" lon="-113.4994410">
    <ele>626.0</ele>
    <time>2026-08-23T18:10:57Z</time>
   </trkpt>
   <trkpt lat="53.5306950" lon="-113.4994920">
    <ele>626.1</ele>
    <time>2026-08-23T18:10:58Z</time>
   </trkpt>
   <trkpt lat="53.5306790" lon="-113.4995370">
    <ele>626.1</ele>
    <time>2026-08-23T18:10:59Z</time>
   </trkpt>
   <trkpt lat="53.5306640" lon="-113.4995720">
    <ele>626.1</ele>
    <time>2026-08-23T18:11:00Z</time>
   </trkpt>
   <trkpt lat="53.5306470" lon="-113.4996040">
    <ele>626.1</ele>
    <time>2026-08-23T18:11:01Z</time>
   </trkpt>
   <trkpt lat="53.5306430" lon="-113.4996290">
    <ele>626.2</ele>
    <time>2026-08-23T18:11:02Z</time>
   </trkpt>
   <trkpt lat="53.5306360" lon="-113.4996590">
    <ele>626.2</ele>
    <time>2026-08-23T18:11:03Z</time>
   </trkpt>
   <trkpt lat="53.5306250" lon="-113.4996920">
    <ele>626.2</ele>
    <time>2026-08-23T18:11:04Z</time>
   </trkpt>
   <trkpt lat="53.5306060" lon="-113.4997180">
    <ele>626.2</ele>
    <time>2026-08-23T18:11:05Z</time>
   </trkpt>
   <trkpt lat="53.5305990" lon="-113.4997550">
    <ele>626.2</ele>
    <time>2026-08-23T18:11:06Z</time>
   </trkpt>
   <trkpt lat="53.5305950" lon="-113.4997990">
    <ele>626.2</ele>
    <time>2026-08-23T18:11:07Z</time>
   </trkpt>
   <trkpt lat="53.5305820" lon="-113.4998730">
    <ele>626.2</ele>
    <time>2026-08-23T18:11:08Z</time>
   </trkpt>
   <trkpt lat="53.5305730" lon="-113.4999500">
    <ele>626.2</ele>
    <time>2026-08-23T18:11:09Z</time>
   </trkpt>
   <trkpt lat="53.5305600" lon="-113.5000340">
    <ele>626.3</ele>
    <time>2026-08-23T18:11:10Z</time>
   </trkpt>
   <trkpt lat="53.5305510" lon="-113.5001000">
    <ele>626.3</ele>
    <time>2026-08-23T18:11:11Z</time>
   </trkpt>
   <trkpt lat="53.5305470" lon="-113.5001190">
    <ele>626.3</ele>
    <time>2026-08-23T18:11:12Z</time>
   </trkpt>
   <trkpt lat="53.5305410" lon="-113.5001720">
    <ele>626.3</ele>
    <time>2026-08-23T18:11:13Z</time>
   </trkpt>
   <trkpt lat="53.5305400" lon="-113.5002270">
    <ele>626.4</ele>
    <time>2026-08-23T18:11:14Z</time>
   </trkpt>
   <trkpt lat="53.5305510" lon="-113.5002900">
    <ele>626.4</ele>
    <time>2026-08-23T18:11:15Z</time>
   </trkpt>
   <trkpt lat="53.5305160" lon="-113.5003840">
    <ele>626.4</ele>
    <time>2026-08-23T18:11:16Z</time>
   </trkpt>
   <trkpt lat="53.5305080" lon="-113.5004580">
    <ele>626.5</ele>
    <time>2026-08-23T18:11:17Z</time>
   </trkpt>
   <trkpt lat="53.5304980" lon="-113.5005420">
    <ele>626.5</ele>
    <time>2026-08-23T18:11:18Z</time>
   </trkpt>
   <trkpt lat="53.5304860" lon="-113.5006220">
    <ele>626.5</ele>
    <time>2026-08-23T18:11:19Z</time>
   </trkpt>
   <trkpt lat="53.5304380" lon="-113.5006970">
    <ele>626.6</ele>
    <time>2026-08-23T18:11:20Z</time>
   </trkpt>
   <trkpt lat="53.5303870" lon="-113.5007470">
    <ele>626.6</ele>
    <time>2026-08-23T18:11:21Z</time>
   </trkpt>
   <trkpt lat="53.5303430" lon="-113.5007960">
    <ele>626.6</ele>
    <time>2026-08-23T18:11:22Z</time>
   </trkpt>
   <trkpt lat="53.5302940" lon="-113.5008240">
    <ele>626.7</ele>
    <time>2026-08-23T18:11:23Z</time>
   </trkpt>
   <trkpt lat="53.5302450" lon="-113.5008490">
    <ele>626.7</ele>
    <time>2026-08-23T18:11:24Z</time>
   </trkpt>
   <trkpt lat="53.5301890" lon="-113.5008590">
    <ele>626.7</ele>
    <time>2026-08-23T18:11:25Z</time>
   </trkpt>
   <trkpt lat="53.5301330" lon="-113.5008510">
    <ele>626.7</ele>
    <time>2026-08-23T18:11:26Z</time>
   </trkpt>
   <trkpt lat="53.5300860" lon="-113.5008820">
    <ele>626.8</ele>
    <time>2026-08-23T18:11:27Z</time>
   </trkpt>
   <trkpt lat="53.5300370" lon="-113.5008990">
    <ele>626.8</ele>
    <time>2026-08-23T18:11:28Z</time>
   </trkpt>
   <trkpt lat="53.5299800" lon="-113.5009130">
    <ele>626.9</ele>
    <time>2026-08-23T18:11:29Z</time>
   </trkpt>
   <trkpt lat="53.5299220" lon="-113.5009040">
    <ele>626.9</ele>
    <time>2026-08-23T18:11:30Z</time>
   </trkpt>
   <trkpt lat="53.5298690" lon="-113.5009110">
    <ele>627.0</ele>
    <time>2026-08-23T18:11:31Z</time>
   </trkpt>
   <trkpt lat="53.5298170" lon="-113.5008940">
    <ele>627.0</ele>
    <time>2026-08-23T18:11:32Z</time>
   </trkpt>
   <trkpt lat="53.5297760" lon="-113.5008950">
    <ele>627.0</ele>
    <time>2026-08-23T18:11:33Z</time>
   </trkpt>
   <trkpt lat="53.5297250" lon="-113.5008580">
    <ele>627.0</ele>
    <time>2026-08-23T18:11:34Z</time>
   </trkpt>
   <trkpt lat="53.5296790" lon="-113.5008120">
    <ele>627.0</ele>
    <time>2026-08-23T18:11:35Z</time>
   </trkpt>
   <trkpt lat="53.5296450" lon="-113.5007280">
    <ele>626.9</ele>
    <time>2026-08-23T18:11:36Z</time>
   </trkpt>
   <trkpt lat="53.5296100" lon="-113.5006680">
    <ele>626.8</ele>
    <time>2026-08-23T18:11:37Z</time>
   </trkpt>
   <trkpt lat="53.5295860" lon="-113.5005660">
    <ele>626.7</ele>
    <time>2026-08-23T18:11:38Z</time>
   </trkpt>
   <trkpt lat="53.5295630" lon="-113.5004830">
    <ele>626.6</ele>
    <time>2026-08-23T18:11:39Z</time>
   </trkpt>
   <trkpt lat="53.5295560" lon="-113.5004440">
    <ele>626.6</ele>
    <time>2026-08-23T18:11:40Z</time>
   </trkpt>
   <trkpt lat="53.5293980" lon="-113.5001550">
    <ele>626.3</ele>
    <time>2026-08-23T18:11:41Z</time>
   </trkpt>
   <trkpt lat="53.5293680" lon="-113.5000610">
    <ele>626.3</ele>
    <time>2026-08-23T18:11:42Z</time>
   </trkpt>
   <trkpt lat="53.5293310" lon="-113.4999800">
    <ele>626.2</ele>
    <time>2026-08-23T18:11:43Z</time>
   </trkpt>
   <trkpt lat="53.5292900" lon="-113.4999080">
    <ele>626.0</ele>
    <time>2026-08-23T18:11:44Z</time>
   </trkpt>
   <trkpt lat="53.5292340" lon="-113.4998600">
    <ele>625.8</ele>
    <time>2026-08-23T18:11:45Z</time>
   </trkpt>
   <trkpt lat="53.5291730" lon="-113.4998250">
    <ele>625.5</ele>
    <time>2026-08-23T18:11:46Z</time>
   </trkpt>
   <trkpt lat="53.5291000" lon="-113.4998120">
    <ele>625.2</ele>
    <time>2026-08-23T18:11:47Z</time>
   </trkpt>
   <trkpt lat="53.5290250" lon="-113.4998510">
    <ele>624.8</ele>
    <time>2026-08-23T18:11:48Z</time>
   </trkpt>
   <trkpt lat="53.5289640" lon="-113.4999280">
    <ele>624.4</ele>
    <time>2026-08-23T18:11:49Z</time>
   </trkpt>
   <trkpt lat="53.5289350" lon="-113.5000620">
    <ele>623.9</ele>
    <time>2026-08-23T18:11:50Z</time>
   </trkpt>
   <trkpt lat="53.5289670" lon="-113.5002120">
    <ele>623.4</ele>
    <time>2026-08-23T18:11:51Z</time>
   </trkpt>
   <trkpt lat="53.5290290" lon="-113.5003110">
    <ele>623.2</ele>
    <time>2026-08-23T18:11:52Z</time>
   </trkpt>
   <trkpt lat="53.5290970" lon="-113.5003800">
    <ele>623.1</ele>
    <time>2026-08-23T18:11:53Z</time>
   </trkpt>
   <trkpt lat="53.5291410" lon="-113.5004990">
    <ele>622.9</ele>
    <time>2026-08-23T18:11:54Z</time>
   </trkpt>
   <trkpt lat="53.5291810" lon="-113.5006290">
    <ele>622.7</ele>
    <time>2026-08-23T18:11:55Z</time>
   </trkpt>
   <trkpt lat="53.5292190" lon="-113.5007520">
    <ele>622.6</ele>
    <time>2026-08-23T18:11:56Z</time>
   </trkpt>
   <trkpt lat="53.5292650" lon="-113.5008560">
    <ele>622.5</ele>
    <time>2026-08-23T18:11:57Z</time>
   </trkpt>
   <trkpt lat="53.5293130" lon="-113.5009760">
    <ele>622.6</ele>
    <time>2026-08-23T18:11:58Z</time>
   </trkpt>
   <trkpt lat="53.5293340" lon="-113.5011240">
    <ele>622.7</ele>
    <time>2026-08-23T18:11:59Z</time>
   </trkpt>
   <trkpt lat="53.5293540" lon="-113.5012350">
    <ele>622.8</ele>
    <time>2026-08-23T18:12:00Z</time>
   </trkpt>
   <trkpt lat="53.5293740" lon="-113.5014280">
    <ele>622.8</ele>
    <time>2026-08-23T18:12:01Z</time>
   </trkpt>
   <trkpt lat="53.5294130" lon="-113.5015780">
    <ele>622.8</ele>
    <time>2026-08-23T18:12:02Z</time>
   </trkpt>
   <trkpt lat="53.5295150" lon="-113.5016120">
    <ele>622.8</ele>
    <time>2026-08-23T18:12:03Z</time>
   </trkpt>
   <trkpt lat="53.5296020" lon="-113.5016030">
    <ele>622.8</ele>
    <time>2026-08-23T18:12:04Z</time>
   </trkpt>
   <trkpt lat="53.5296820" lon="-113.5016110">
    <ele>622.8</ele>
    <time>2026-08-23T18:12:05Z</time>
   </trkpt>
   <trkpt lat="53.5297390" lon="-113.5016250">
    <ele>623.0</ele>
    <time>2026-08-23T18:12:06Z</time>
   </trkpt>
   <trkpt lat="53.5297890" lon="-113.5017390">
    <ele>623.5</ele>
    <time>2026-08-23T18:12:07Z</time>
   </trkpt>
   <trkpt lat="53.5298150" lon="-113.5018470">
    <ele>623.9</ele>
    <time>2026-08-23T18:12:08Z</time>
   </trkpt>
   <trkpt lat="53.5298390" lon="-113.5019320">
    <ele>624.2</ele>
    <time>2026-08-23T18:12:09Z</time>
   </trkpt>
   <trkpt lat="53.5298640" lon="-113.5020210">
    <ele>624.5</ele>
    <time>2026-08-23T18:12:10Z</time>
   </trkpt>
   <trkpt lat="53.5298710" lon="-113.5020570">
    <ele>624.6</ele>
    <time>2026-08-23T18:12:11Z</time>
   </trkpt>
   <trkpt lat="53.5298800" lon="-113.5021160">
    <ele>624.7</ele>
    <time>2026-08-23T18:12:12Z</time>
   </trkpt>
   <trkpt lat="53.5298970" lon="-113.5021750">
    <ele>624.8</ele>
    <time>2026-08-23T18:12:13Z</time>
   </trkpt>
   <trkpt lat="53.5299180" lon="-113.5022460">
    <ele>625.0</ele>
    <time>2026-08-23T18:12:14Z</time>
   </trkpt>
   <trkpt lat="53.5299590" lon="-113.5023130">
    <ele>625.1</ele>
    <time>2026-08-23T18:12:15Z</time>
   </trkpt>
   <trkpt lat="53.5300150" lon="-113.5023540">
    <ele>625.2</ele>
    <time>2026-08-23T18:12:16Z</time>
   </trkpt>
   <trkpt lat="53.5300530" lon="-113.5023920">
    <ele>625.2</ele>
    <time>2026-08-23T18:12:17Z</time>
   </trkpt>
   <trkpt lat="53.5300850" lon="-113.5024520">
    <ele>625.3</ele>
    <time>2026-08-23T18:12:18Z</time>
   </trkpt>
   <trkpt lat="53.5301210" lon="-113.5024650">
    <ele>625.4</ele>
    <time>2026-08-23T18:12:19Z</time>
   </trkpt>
   <trkpt lat="53.5301460" lon="-113.5024880">
    <ele>625.4</ele>
    <time>2026-08-23T18:12:20Z</time>
   </trkpt>
   <trkpt lat="53.5301650" lon="-113.5025010">
    <ele>625.5</ele>
    <time>2026-08-23T18:12:21Z</time>
   </trkpt>
   <trkpt lat="53.5301830" lon="-113.5025010">
    <ele>625.5</ele>
    <time>2026-08-23T18:12:22Z</time>
   </trkpt>
   <trkpt lat="53.5302090" lon="-113.5025910">
    <ele>625.6</ele>
    <time>2026-08-23T18:12:23Z</time>
   </trkpt>
   <trkpt lat="53.5302090" lon="-113.5027110">
    <ele>625.6</ele>
    <time>2026-08-23T18:12:24Z</time>
   </trkpt>
   <trkpt lat="53.5302070" lon="-113.5028400">
    <ele>625.6</ele>
    <time>2026-08-23T18:12:25Z</time>
   </trkpt>
   <trkpt lat="53.5302250" lon="-113.5029600">
    <ele>625.7</ele>
    <time>2026-08-23T18:12:26Z</time>
   </trkpt>
   <trkpt lat="53.5302320" lon="-113.5030430">
    <ele>625.7</ele>
    <time>2026-08-23T18:12:27Z</time>
   </trkpt>
   <trkpt lat="53.5302360" lon="-113.5031370">
    <ele>625.8</ele>
    <time>2026-08-23T18:12:28Z</time>
   </trkpt>
   <trkpt lat="53.5302450" lon="-113.5032320">
    <ele>625.8</ele>
    <time>2026-08-23T18:12:29Z</time>
   </trkpt>
   <trkpt lat="53.5302490" lon="-113.5033430">
    <ele>625.9</ele>
    <time>2026-08-23T18:12:30Z</time>
   </trkpt>
   <trkpt lat="53.5302560" lon="-113.5034360">
    <ele>625.9</ele>
    <time>2026-08-23T18:12:31Z</time>
   </trkpt>
   <trkpt lat="53.5302640" lon="-113.5035540">
    <ele>625.9</ele>
    <time>2026-08-23T18:12:32Z</time>
   </trkpt>
   <trkpt lat="53.5302780" lon="-113.5036460">
    <ele>625.9</ele>
    <time>2026-08-23T18:12:33Z</time>
   </trkpt>
   <trkpt lat="53.5302900" lon="-113.5037520">
    <ele>625.9</ele>
    <time>2026-08-23T18:12:34Z</time>
   </trkpt>
   <trkpt lat="53.5303040" lon="-113.5038500">
    <ele>625.8</ele>
    <time>2026-08-23T18:12:35Z</time>
   </trkpt>
   <trkpt lat="53.5303230" lon="-113.5039550">
    <ele>625.7</ele>
    <time>2026-08-23T18:12:36Z</time>
   </trkpt>
   <trkpt lat="53.5303380" lon="-113.5040520">
    <ele>625.6</ele>
    <time>2026-08-23T18:12:37Z</time>
   </trkpt>
   <trkpt lat="53.5303490" lon="-113.5041590">
    <ele>625.5</ele>
    <time>2026-08-23T18:12:38Z</time>
   </trkpt>
   <trkpt lat="53.5303960" lon="-113.5042600">
    <ele>625.4</ele>
    <time>2026-08-23T18:12:39Z</time>
   </trkpt>
   <trkpt lat="53.5304270" lon="-113.5043620">
    <ele>625.4</ele>
    <time>2026-08-23T18:12:40Z</time>
   </trkpt>
   <trkpt lat="53.5304350" lon="-113.5044870">
    <ele>625.3</ele>
    <time>2026-08-23T18:12:41Z</time>
   </trkpt>
   <trkpt lat="53.5304410" lon="-113.5045950">
    <ele>625.2</ele>
    <time>2026-08-23T18:12:42Z</time>
   </trkpt>
   <trkpt lat="53.5304560" lon="-113.5046890">
    <ele>625.1</ele>
    <time>2026-08-23T18:12:43Z</time>
   </trkpt>
   <trkpt lat="53.5304700" lon="-113.5048010">
    <ele>625.0</ele>
    <time>2026-08-23T18:12:44Z</time>
   </trkpt>
   <trkpt lat="53.5304910" lon="-113.5049120">
    <ele>624.8</ele>
    <time>2026-08-23T18:12:45Z</time>
   </trkpt>
   <trkpt lat="53.5305060" lon="-113.5050290">
    <ele>624.7</ele>
    <time>2026-08-23T18:12:46Z</time>
   </trkpt>
   <trkpt lat="53.5305270" lon="-113.5051450">
    <ele>624.5</ele>
    <time>2026-08-23T18:12:47Z</time>
   </trkpt>
   <trkpt lat="53.5305530" lon="-113.5052530">
    <ele>624.3</ele>
    <time>2026-08-23T18:12:48Z</time>
   </trkpt>
   <trkpt lat="53.5305700" lon="-113.5053680">
    <ele>624.0</ele>
    <time>2026-08-23T18:12:49Z</time>
   </trkpt>
   <trkpt lat="53.5305990" lon="-113.5054890">
    <ele>623.8</ele>
    <time>2026-08-23T18:12:50Z</time>
   </trkpt>
   <trkpt lat="53.5306260" lon="-113.5056000">
    <ele>623.6</ele>
    <time>2026-08-23T18:12:51Z</time>
   </trkpt>
   <trkpt lat="53.5306410" lon="-113.5057270">
    <ele>623.4</ele>
    <time>2026-08-23T18:12:52Z</time>
   </trkpt>
   <trkpt lat="53.5306740" lon="-113.5058410">
    <ele>623.2</ele>
    <time>2026-08-23T18:12:53Z</time>
   </trkpt>
   <trkpt lat="53.5306940" lon="-113.5059540">
    <ele>623.0</ele>
    <time>2026-08-23T18:12:54Z</time>
   </trkpt>
   <trkpt lat="53.5307160" lon="-113.5060940">
    <ele>622.8</ele>
    <time>2026-08-23T18:12:55Z</time>
   </trkpt>
   <trkpt lat="53.5307530" lon="-113.5062020">
    <ele>622.7</ele>
    <time>2026-08-23T18:12:56Z</time>
   </trkpt>
   <trkpt lat="53.5307690" lon="-113.5063370">
    <ele>622.7</ele>
    <time>2026-08-23T18:12:57Z</time>
   </trkpt>
   <trkpt lat="53.5308050" lon="-113.5064490">
    <ele>622.6</ele>
    <time>2026-08-23T18:12:58Z</time>
   </trkpt>
   <trkpt lat="53.5308250" lon="-113.5065680">
    <ele>622.6</ele>
    <time>2026-08-23T18:12:59Z</time>
   </trkpt>
   <trkpt lat="53.5308510" lon="-113.5066890">
    <ele>622.6</ele>
    <time>2026-08-23T18:13:00Z</time>
   </trkpt>
   <trkpt lat="53.5308790" lon="-113.5067980">
    <ele>622.6</ele>
    <time>2026-08-23T18:13:01Z</time>
   </trkpt>
   <trkpt lat="53.5309070" lon="-113.5069090">
    <ele>622.6</ele>
    <time>2026-08-23T18:13:02Z</time>
   </trkpt>
   <trkpt lat="53.5309210" lon="-113.5070160">
    <ele>622.7</ele>
    <time>2026-08-23T18:13:03Z</time>
   </trkpt>
   <trkpt lat="53.5309520" lon="-113.5071280">
    <ele>622.7</ele>
    <time>2026-08-23T18:13:04Z</time>
   </trkpt>
   <trkpt lat="53.5309740" lon="-113.5072310">
    <ele>622.7</ele>
    <time>2026-08-23T18:13:05Z</time>
   </trkpt>
   <trkpt lat="53.5310030" lon="-113.5073430">
    <ele>622.7</ele>
    <time>2026-08-23T18:13:06Z</time>
   </trkpt>
   <trkpt lat="53.5310260" lon="-113.5074420">
    <ele>622.7</ele>
    <time>2026-08-23T18:13:07Z</time>
   </trkpt>
   <trkpt lat="53.5310530" lon="-113.5075490">
    <ele>622.8</ele>
    <time>2026-08-23T18:13:08Z</time>
   </trkpt>
   <trkpt lat="53.5310790" lon="-113.5076460">
    <ele>622.8</ele>
    <time>2026-08-23T18:13:09Z</time>
   </trkpt>
   <trkpt lat="53.5311160" lon="-113.5077400">
    <ele>622.8</ele>
    <time>2026-08-23T18:13:10Z</time>
   </trkpt>
   <trkpt lat="53.5311480" lon="-113.5078380">
    <ele>622.8</ele>
    <time>2026-08-23T18:13:11Z</time>
   </trkpt>
   <trkpt lat="53.5311750" lon="-113.5079380">
    <ele>622.8</ele>
    <time>2026-08-23T18:13:12Z</time>
   </trkpt>
   <trkpt lat="53.5312090" lon="-113.5080300">
    <ele>622.9</ele>
    <time>2026-08-23T18:13:13Z</time>
   </trkpt>
   <trkpt lat="53.5312310" lon="-113.5081340">
    <ele>622.9</ele>
    <time>2026-08-23T18:13:14Z</time>
   </trkpt>
   <trkpt lat="53.5312700" lon="-113.5082260">
    <ele>622.9</ele>
    <time>2026-08-23T18:13:15Z</time>
   </trkpt>
   <trkpt lat="53.5312920" lon="-113.5083170">
    <ele>623.0</ele>
    <time>2026-08-23T18:13:16Z</time>
   </trkpt>
   <trkpt lat="53.5313240" lon="-113.5084120">
    <ele>623.0</ele>
    <time>2026-08-23T18:13:17Z</time>
   </trkpt>
   <trkpt lat="53.5313530" lon="-113.5085070">
    <ele>623.1</ele>
    <time>2026-08-23T18:13:18Z</time>
   </trkpt>
   <trkpt lat="53.5313840" lon="-113.5085990">
    <ele>623.2</ele>
    <time>2026-08-23T18:13:19Z</time>
   </trkpt>
   <trkpt lat="53.5314120" lon="-113.5087030">
    <ele>623.3</ele>
    <time>2026-08-23T18:13:20Z</time>
   </trkpt>
   <trkpt lat="53.5314450" lon="-113.5087820">
    <ele>623.4</ele>
    <time>2026-08-23T18:13:21Z</time>
   </trkpt>
   <trkpt lat="53.5314600" lon="-113.5088760">
    <ele>623.5</ele>
    <time>2026-08-23T18:13:22Z</time>
   </trkpt>
   <trkpt lat="53.5315020" lon="-113.5089740">
    <ele>623.6</ele>
    <time>2026-08-23T18:13:23Z</time>
   </trkpt>
   <trkpt lat="53.5315330" lon="-113.5090650">
    <ele>623.7</ele>
    <time>2026-08-23T18:13:24Z</time>
   </trkpt>
   <trkpt lat="53.5315600" lon="-113.5091510">
    <ele>623.8</ele>
    <time>2026-08-23T18:13:25Z</time>
   </trkpt>
   <trkpt lat="53.5315860" lon="-113.5092510">
    <ele>623.9</ele>
    <time>2026-08-23T18:13:26Z</time>
   </trkpt>
   <trkpt lat="53.5316100" lon="-113.5093400">
    <ele>624.0</ele>
    <time>2026-08-23T18:13:27Z</time>
   </trkpt>
   <trkpt lat="53.5316440" lon="-113.5094400">
    <ele>624.2</ele>
    <time>2026-08-23T18:13:28Z</time>
   </trkpt>
   <trkpt lat="53.5316630" lon="-113.5095390">
    <ele>624.3</ele>
    <time>2026-08-23T18:13:29Z</time>
   </trkpt>
   <trkpt lat="53.5316890" lon="-113.5096370">
    <ele>624.4</ele>
    <time>2026-08-23T18:13:30Z</time>
   </trkpt>
   <trkpt lat="53.5317270" lon="-113.5097280">
    <ele>624.5</ele>
    <time>2026-08-23T18:13:31Z</time>
   </trkpt>
   <trkpt lat="53.5317430" lon="-113.5098160">
    <ele>624.5</ele>
    <time>2026-08-23T18:13:32Z</time>
   </trkpt>
   <trkpt lat="53.5317660" lon="-113.5098990">
    <ele>624.5</ele>
    <time>2026-08-23T18:13:33Z</time>
   </trkpt>
   <trkpt lat="53.5317810" lon="-113.5099970">
    <ele>624.5</ele>
    <time>2026-08-23T18:13:34Z</time>
   </trkpt>
   <trkpt lat="53.5318030" lon="-113.5100870">
    <ele>624.5</ele>
    <time>2026-08-23T18:13:35Z</time>
   </trkpt>
   <trkpt lat="53.5318250" lon="-113.5101930">
    <ele>624.5</ele>
    <time>2026-08-23T18:13:36Z</time>
   </trkpt>
   <trkpt lat="53.5318560" lon="-113.5103030">
    <ele>624.4</ele>
    <time>2026-08-23T18:13:37Z</time>
   </trkpt>
   <trkpt lat="53.5318630" lon="-113.5104160">
    <ele>624.4</ele>
    <time>2026-08-23T18:13:38Z</time>
   </trkpt>
   <trkpt lat="53.5318760" lon="-113.5105250">
    <ele>624.3</ele>
    <time>2026-08-23T18:13:39Z</time>
   </trkpt>
   <trkpt lat="53.5318900" lon="-113.5106510">
    <ele>624.2</ele>
    <time>2026-08-23T18:13:40Z</time>
   </trkpt>
   <trkpt lat="53.5319040" lon="-113.5107730">
    <ele>624.1</ele>
    <time>2026-08-23T18:13:41Z</time>
   </trkpt>
   <trkpt lat="53.5319130" lon="-113.5108910">
    <ele>624.0</ele>
    <time>2026-08-23T18:13:42Z</time>
   </trkpt>
   <trkpt lat="53.5319170" lon="-113.5110250">
    <ele>623.9</ele>
    <time>2026-08-23T18:13:43Z</time>
   </trkpt>
   <trkpt lat="53.5319150" lon="-113.5111460">
    <ele>623.7</ele>
    <time>2026-08-23T18:13:44Z</time>
   </trkpt>
   <trkpt lat="53.5319120" lon="-113.5112550">
    <ele>623.7</ele>
    <time>2026-08-23T18:13:45Z</time>
   </trkpt>
   <trkpt lat="53.5319110" lon="-113.5113760">
    <ele>623.6</ele>
    <time>2026-08-23T18:13:46Z</time>
   </trkpt>
   <trkpt lat="53.5319060" lon="-113.5114860">
    <ele>623.5</ele>
    <time>2026-08-23T18:13:47Z</time>
   </trkpt>
   <trkpt lat="53.5319100" lon="-113.5115990">
    <ele>623.5</ele>
    <time>2026-08-23T18:13:48Z</time>
   </trkpt>
   <trkpt lat="53.5319120" lon="-113.5117130">
    <ele>623.4</ele>
    <time>2026-08-23T18:13:49Z</time>
   </trkpt>
   <trkpt lat="53.5319000" lon="-113.5118290">
    <ele>623.3</ele>
    <time>2026-08-23T18:13:50Z</time>
   </trkpt>
   <trkpt lat="53.5319080" lon="-113.5119370">
    <ele>623.2</ele>
    <time>2026-08-23T18:13:51Z</time>
   </trkpt>
   <trkpt lat="53.5319130" lon="-113.5120570">
    <ele>623.1</ele>
    <time>2026-08-23T18:13:52Z</time>
   </trkpt>
   <trkpt lat="53.5319250" lon="-113.5121730">
    <ele>623.0</ele>
    <time>2026-08-23T18:13:53Z</time>
   </trkpt>
   <trkpt lat="53.5319270" lon="-113.5122930">
    <ele>622.9</ele>
    <time>2026-08-23T18:13:54Z</time>
   </trkpt>
   <trkpt lat="53.5319180" lon="-113.5123980">
    <ele>622.8</ele>
    <time>2026-08-23T18:13:55Z</time>
   </trkpt>
   <trkpt lat="53.5319080" lon="-113.5125120">
    <ele>622.7</ele>
    <time>2026-08-23T18:13:56Z</time>
   </trkpt>
   <trkpt lat="53.5319080" lon="-113.5126190">
    <ele>622.6</ele>
    <time>2026-08-23T18:13:57Z</time>
   </trkpt>
   <trkpt lat="53.5319050" lon="-113.5127400">
    <ele>622.6</ele>
    <time>2026-08-23T18:13:58Z</time>
   </trkpt>
   <trkpt lat="53.5319100" lon="-113.5128530">
    <ele>622.5</ele>
    <time>2026-08-23T18:13:59Z</time>
   </trkpt>
   <trkpt lat="53.5319060" lon="-113.5129740">
    <ele>622.5</ele>
    <time>2026-08-23T18:14:00Z</time>
   </trkpt>
   <trkpt lat="53.5319050" lon="-113.5130760">
    <ele>622.4</ele>
    <time>2026-08-23T18:14:01Z</time>
   </trkpt>
   <trkpt lat="53.5318910" lon="-113.5131950">
    <ele>622.4</ele>
    <time>2026-08-23T18:14:02Z</time>
   </trkpt>
   <trkpt lat="53.5318870" lon="-113.5133120">
    <ele>622.4</ele>
    <time>2026-08-23T18:14:03Z</time>
   </trkpt>
   <trkpt lat="53.5318860" lon="-113.5134340">
    <ele>622.3</ele>
    <time>2026-08-23T18:14:04Z</time>
   </trkpt>
   <trkpt lat="53.5318870" lon="-113.5135490">
    <ele>622.3</ele>
    <time>2026-08-23T18:14:05Z</time>
   </trkpt>
   <trkpt lat="53.5318830" lon="-113.5136740">
    <ele>622.3</ele>
    <time>2026-08-23T18:14:06Z</time>
   </trkpt>
   <trkpt lat="53.5318870" lon="-113.5137850">
    <ele>622.3</ele>
    <time>2026-08-23T18:14:07Z</time>
   </trkpt>
   <trkpt lat="53.5318870" lon="-113.5139030">
    <ele>622.3</ele>
    <time>2026-08-23T18:14:08Z</time>
   </trkpt>
   <trkpt lat="53.5318950" lon="-113.5140200">
    <ele>622.3</ele>
    <time>2026-08-23T18:14:09Z</time>
   </trkpt>
   <trkpt lat="53.5318910" lon="-113.5141380">
    <ele>622.3</ele>
    <time>2026-08-23T18:14:10Z</time>
   </trkpt>
   <trkpt lat="53.5318910" lon="-113.5142420">
    <ele>622.3</ele>
    <time>2026-08-23T18:14:11Z</time>
   </trkpt>
   <trkpt lat="53.5318920" lon="-113.5143570">
    <ele>622.3</ele>
    <time>2026-08-23T18:14:12Z</time>
   </trkpt>
   <trkpt lat="53.5318930" lon="-113.5144720">
    <ele>622.4</ele>
    <time>2026-08-23T18:14:13Z</time>
   </trkpt>
   <trkpt lat="53.5318960" lon="-113.5145870">
    <ele>622.4</ele>
    <time>2026-08-23T18:14:14Z</time>
   </trkpt>
   <trkpt lat="53.5319020" lon="-113.5147100">
    <ele>622.5</ele>
    <time>2026-08-23T18:14:15Z</time>
   </trkpt>
   <trkpt lat="53.5319030" lon="-113.5148110">
    <ele>622.5</ele>
    <time>2026-08-23T18:14:16Z</time>
   </trkpt>
   <trkpt lat="53.5319140" lon="-113.5149230">
    <ele>622.5</ele>
    <time>2026-08-23T18:14:17Z</time>
   </trkpt>
   <trkpt lat="53.5319200" lon="-113.5150370">
    <ele>622.6</ele>
    <time>2026-08-23T18:14:18Z</time>
   </trkpt>
   <trkpt lat="53.5319230" lon="-113.5151540">
    <ele>622.6</ele>
    <time>2026-08-23T18:14:19Z</time>
   </trkpt>
   <trkpt lat="53.5319390" lon="-113.5152600">
    <ele>622.6</ele>
    <time>2026-08-23T18:14:20Z</time>
   </trkpt>
   <trkpt lat="53.5319420" lon="-113.5153700">
    <ele>622.7</ele>
    <time>2026-08-23T18:14:21Z</time>
   </trkpt>
   <trkpt lat="53.5319510" lon="-113.5154830">
    <ele>622.7</ele>
    <time>2026-08-23T18:14:22Z</time>
   </trkpt>
   <trkpt lat="53.5319550" lon="-113.5155910">
    <ele>622.7</ele>
    <time>2026-08-23T18:14:23Z</time>
   </trkpt>
   <trkpt lat="53.5319630" lon="-113.5156980">
    <ele>622.8</ele>
    <time>2026-08-23T18:14:24Z</time>
   </trkpt>
   <trkpt lat="53.5319660" lon="-113.5158140">
    <ele>622.8</ele>
    <time>2026-08-23T18:14:25Z</time>
   </trkpt>
   <trkpt lat="53.5319720" lon="-113.5159190">
    <ele>622.8</ele>
    <time>2026-08-23T18:14:26Z</time>
   </trkpt>
   <trkpt lat="53.5319780" lon="-113.5160300">
    <ele>622.9</ele>
    <time>2026-08-23T18:14:27Z</time>
   </trkpt>
   <trkpt lat="53.5319820" lon="-113.5161420">
    <ele>622.9</ele>
    <time>2026-08-23T18:14:28Z</time>
   </trkpt>
   <trkpt lat="53.5319920" lon="-113.5162600">
    <ele>622.9</ele>
    <time>2026-08-23T18:14:29Z</time>
   </trkpt>
   <trkpt lat="53.5319990" lon="-113.5163760">
    <ele>622.9</ele>
    <time>2026-08-23T18:14:30Z</time>
   </trkpt>
   <trkpt lat="53.5320030" lon="-113.5164820">
    <ele>623.0</ele>
    <time>2026-08-23T18:14:31Z</time>
   </trkpt>
   <trkpt lat="53.5320110" lon="-113.5165990">
    <ele>623.0</ele>
    <time>2026-08-23T18:14:32Z</time>
   </trkpt>
   <trkpt lat="53.5320160" lon="-113.5167150">
    <ele>623.0</ele>
    <time>2026-08-23T18:14:33Z</time>
   </trkpt>
   <trkpt lat="53.5320170" lon="-113.5168270">
    <ele>623.0</ele>
    <time>2026-08-23T18:14:34Z</time>
   </trkpt>
   <trkpt lat="53.5320280" lon="-113.5169360">
    <ele>623.0</ele>
    <time>2026-08-23T18:14:35Z</time>
   </trkpt>
   <trkpt lat="53.5320330" lon="-113.5170490">
    <ele>623.0</ele>
    <time>2026-08-23T18:14:36Z</time>
   </trkpt>
   <trkpt lat="53.5320420" lon="-113.5171590">
    <ele>623.1</ele>
    <time>2026-08-23T18:14:37Z</time>
   </trkpt>
   <trkpt lat="53.5320490" lon="-113.5172640">
    <ele>623.2</ele>
    <time>2026-08-23T18:14:38Z</time>
   </trkpt>
   <trkpt lat="53.5320590" lon="-113.5173760">
    <ele>623.2</ele>
    <time>2026-08-23T18:14:39Z</time>
   </trkpt>
   <trkpt lat="53.5320700" lon="-113.5174860">
    <ele>623.3</ele>
    <time>2026-08-23T18:14:40Z</time>
   </trkpt>
   <trkpt lat="53.5320790" lon="-113.5175960">
    <ele>623.4</ele>
    <time>2026-08-23T18:14:41Z</time>
   </trkpt>
   <trkpt lat="53.5320890" lon="-113.5177010">
    <ele>623.4</ele>
    <time>2026-08-23T18:14:42Z</time>
   </trkpt>
   <trkpt lat="53.5320980" lon="-113.5178060">
    <ele>623.4</ele>
    <time>2026-08-23T18:14:43Z</time>
   </trkpt>
   <trkpt lat="53.5321070" lon="-113.5179060">
    <ele>623.5</ele>
    <time>2026-08-23T18:14:44Z</time>
   </trkpt>
   <trkpt lat="53.5321220" lon="-113.5180120">
    <ele>623.5</ele>
    <time>2026-08-23T18:14:45Z</time>
   </trkpt>
   <trkpt lat="53.5321370" lon="-113.5181290">
    <ele>623.5</ele>
    <time>2026-08-23T18:14:46Z</time>
   </trkpt>
   <trkpt lat="53.5321500" lon="-113.5182300">
    <ele>623.6</ele>
    <time>2026-08-23T18:14:47Z</time>
   </trkpt>
   <trkpt lat="53.5321600" lon="-113.5183390">
    <ele>623.6</ele>
    <time>2026-08-23T18:14:48Z</time>
   </trkpt>
   <trkpt lat="53.5321680" lon="-113.5184390">
    <ele>623.7</ele>
    <time>2026-08-23T18:14:49Z</time>
   </trkpt>
   <trkpt lat="53.5321810" lon="-113.5185470">
    <ele>623.7</ele>
    <time>2026-08-23T18:14:50Z</time>
   </trkpt>
   <trkpt lat="53.5321890" lon="-113.5186490">
    <ele>623.7</ele>
    <time>2026-08-23T18:14:51Z</time>
   </trkpt>
   <trkpt lat="53.5322220" lon="-113.5187490">
    <ele>623.7</ele>
    <time>2026-08-23T18:14:52Z</time>
   </trkpt>
   <trkpt lat="53.5322410" lon="-113.5188410">
    <ele>623.7</ele>
    <time>2026-08-23T18:14:53Z</time>
   </trkpt>
   <trkpt lat="53.5322490" lon="-113.5189420">
    <ele>623.7</ele>
    <time>2026-08-23T18:14:54Z</time>
   </trkpt>
   <trkpt lat="53.5322580" lon="-113.5190490">
    <ele>623.6</ele>
    <time>2026-08-23T18:14:55Z</time>
   </trkpt>
   <trkpt lat="53.5322790" lon="-113.5191540">
    <ele>623.6</ele>
    <time>2026-08-23T18:14:56Z</time>
   </trkpt>
   <trkpt lat="53.5322910" lon="-113.5192530">
    <ele>623.6</ele>
    <time>2026-08-23T18:14:57Z</time>
   </trkpt>
   <trkpt lat="53.5323000" lon="-113.5193590">
    <ele>623.6</ele>
    <time>2026-08-23T18:14:58Z</time>
   </trkpt>
   <trkpt lat="53.5323100" lon="-113.5194630">
    <ele>623.6</ele>
    <time>2026-08-23T18:14:59Z</time>
   </trkpt>
   <trkpt lat="53.5323280" lon="-113.5195620">
    <ele>623.5</ele>
    <time>2026-08-23T18:15:00Z</time>
   </trkpt>
   <trkpt lat="53.5323460" lon="-113.5196820">
    <ele>623.5</ele>
    <time>2026-08-23T18:15:01Z</time>
   </trkpt>
   <trkpt lat="53.5323650" lon="-113.5197780">
    <ele>623.5</ele>
    <time>2026-08-23T18:15:02Z</time>
   </trkpt>
   <trkpt lat="53.5323710" lon="-113.5198880">
    <ele>623.4</ele>
    <time>2026-08-23T18:15:03Z</time>
   </trkpt>
   <trkpt lat="53.5323780" lon="-113.5199870">
    <ele>623.4</ele>
    <time>2026-08-23T18:15:04Z</time>
   </trkpt>
   <trkpt lat="53.5323910" lon="-113.5201040">
    <ele>623.3</ele>
    <time>2026-08-23T18:15:05Z</time>
   </trkpt>
   <trkpt lat="53.5323960" lon="-113.5202180">
    <ele>623.3</ele>
    <time>2026-08-23T18:15:06Z</time>
   </trkpt>
   <trkpt lat="53.5324020" lon="-113.5203270">
    <ele>623.2</ele>
    <time>2026-08-23T18:15:07Z</time>
   </trkpt>
   <trkpt lat="53.5324050" lon="-113.5204360">
    <ele>623.2</ele>
    <time>2026-08-23T18:15:08Z</time>
   </trkpt>
   <trkpt lat="53.5324070" lon="-113.5205470">
    <ele>623.2</ele>
    <time>2026-08-23T18:15:09Z</time>
   </trkpt>
   <trkpt lat="53.5324240" lon="-113.5206640">
    <ele>623.2</ele>
    <time>2026-08-23T18:15:10Z</time>
   </trkpt>
   <trkpt lat="53.5324360" lon="-113.5207780">
    <ele>623.1</ele>
    <time>2026-08-23T18:15:11Z</time>
   </trkpt>
   <trkpt lat="53.5324430" lon="-113.5208920">
    <ele>623.1</ele>
    <time>2026-08-23T18:15:12Z</time>
   </trkpt>
   <trkpt lat="53.5324580" lon="-113.5210040">
    <ele>623.1</ele>
    <time>2026-08-23T18:15:13Z</time>
   </trkpt>
   <trkpt lat="53.5324790" lon="-113.5211150">
    <ele>623.2</ele>
    <time>2026-08-23T18:15:14Z</time>
   </trkpt>
   <trkpt lat="53.5324890" lon="-113.5212160">
    <ele>623.2</ele>
    <time>2026-08-23T18:15:15Z</time>
   </trkpt>
   <trkpt lat="53.5324970" lon="-113.5213120">
    <ele>623.2</ele>
    <time>2026-08-23T18:15:16Z</time>
   </trkpt>
   <trkpt lat="53.5325070" lon="-113.5214210">
    <ele>623.2</ele>
    <time>2026-08-23T18:15:17Z</time>
   </trkpt>
   <trkpt lat="53.5325150" lon="-113.5215180">
    <ele>623.3</ele>
    <time>2026-08-23T18:15:18Z</time>
   </trkpt>
   <trkpt lat="53.5325260" lon="-113.5216190">
    <ele>623.3</ele>
    <time>2026-08-23T18:15:19Z</time>
   </trkpt>
   <trkpt lat="53.5325340" lon="-113.5217280">
    <ele>623.4</ele>
    <time>2026-08-23T18:15:20Z</time>
   </trkpt>
   <trkpt lat="53.5325570" lon="-113.5218200">
    <ele>623.4</ele>
    <time>2026-08-23T18:15:21Z</time>
   </trkpt>
   <trkpt lat="53.5325770" lon="-113.5219220">
    <ele>623.5</ele>
    <time>2026-08-23T18:15:22Z</time>
   </trkpt>
   <trkpt lat="53.5325950" lon="-113.5220310">
    <ele>623.5</ele>
    <time>2026-08-23T18:15:23Z</time>
   </trkpt>
   <trkpt lat="53.5326080" lon="-113.5221300">
    <ele>623.5</ele>
    <time>2026-08-23T18:15:24Z</time>
   </trkpt>
   <trkpt lat="53.5326230" lon="-113.5222280">
    <ele>623.6</ele>
    <time>2026-08-23T18:15:25Z</time>
   </trkpt>
   <trkpt lat="53.5326340" lon="-113.5223230">
    <ele>623.6</ele>
    <time>2026-08-23T18:15:26Z</time>
   </trkpt>
   <trkpt lat="53.5326480" lon="-113.5224170">
    <ele>623.6</ele>
    <time>2026-08-23T18:15:27Z</time>
   </trkpt>
   <trkpt lat="53.5326570" lon="-113.5225090">
    <ele>623.7</ele>
    <time>2026-08-23T18:15:28Z</time>
   </trkpt>
   <trkpt lat="53.5326700" lon="-113.5226060">
    <ele>623.7</ele>
    <time>2026-08-23T18:15:29Z</time>
   </trkpt>
   <trkpt lat="53.5326910" lon="-113.5226960">
    <ele>623.7</ele>
    <time>2026-08-23T18:15:30Z</time>
   </trkpt>
   <trkpt lat="53.5327130" lon="-113.5228050">
    <ele>623.7</ele>
    <time>2026-08-23T18:15:31Z</time>
   </trkpt>
   <trkpt lat="53.5327260" lon="-113.5228990">
    <ele>623.8</ele>
    <time>2026-08-23T18:15:32Z</time>
   </trkpt>
   <trkpt lat="53.5327370" lon="-113.5230000">
    <ele>623.8</ele>
    <time>2026-08-23T18:15:33Z</time>
   </trkpt>
   <trkpt lat="53.5327520" lon="-113.5230990">
    <ele>623.8</ele>
    <time>2026-08-23T18:15:34Z</time>
   </trkpt>
   <trkpt lat="53.5327690" lon="-113.5231960">
    <ele>623.8</ele>
    <time>2026-08-23T18:15:35Z</time>
   </trkpt>
   <trkpt lat="53.5327960" lon="-113.5232980">
    <ele>623.8</ele>
    <time>2026-08-23T18:15:36Z</time>
   </trkpt>
   <trkpt lat="53.5328140" lon="-113.5234000">
    <ele>623.8</ele>
    <time>2026-08-23T18:15:37Z</time>
   </trkpt>
   <trkpt lat="53.5328400" lon="-113.5234840">
    <ele>623.9</ele>
    <time>2026-08-23T18:15:38Z</time>
   </trkpt>
   <trkpt lat="53.5328660" lon="-113.5235700">
    <ele>623.9</ele>
    <time>2026-08-23T18:15:39Z</time>
   </trkpt>
   <trkpt lat="53.5328870" lon="-113.5236660">
    <ele>624.0</ele>
    <time>2026-08-23T18:15:40Z</time>
   </trkpt>
   <trkpt lat="53.5329130" lon="-113.5237620">
    <ele>624.1</ele>
    <time>2026-08-23T18:15:41Z</time>
   </trkpt>
   <trkpt lat="53.5329310" lon="-113.5238490">
    <ele>624.1</ele>
    <time>2026-08-23T18:15:42Z</time>
   </trkpt>
   <trkpt lat="53.5329460" lon="-113.5239360">
    <ele>624.2</ele>
    <time>2026-08-23T18:15:43Z</time>
   </trkpt>
   <trkpt lat="53.5329730" lon="-113.5240310">
    <ele>624.2</ele>
    <time>2026-08-23T18:15:44Z</time>
   </trkpt>
   <trkpt lat="53.5329860" lon="-113.5241260">
    <ele>624.3</ele>
    <time>2026-08-23T18:15:45Z</time>
   </trkpt>
   <trkpt lat="53.5329990" lon="-113.5242260">
    <ele>624.3</ele>
    <time>2026-08-23T18:15:46Z</time>
   </trkpt>
   <trkpt lat="53.5330140" lon="-113.5243120">
    <ele>624.3</ele>
    <time>2026-08-23T18:15:47Z</time>
   </trkpt>
   <trkpt lat="53.5330320" lon="-113.5243980">
    <ele>624.4</ele>
    <time>2026-08-23T18:15:48Z</time>
   </trkpt>
   <trkpt lat="53.5330440" lon="-113.5244910">
    <ele>624.4</ele>
    <time>2026-08-23T18:15:49Z</time>
   </trkpt>
   <trkpt lat="53.5330610" lon="-113.5245930">
    <ele>624.4</ele>
    <time>2026-08-23T18:15:50Z</time>
   </trkpt>
   <trkpt lat="53.5330730" lon="-113.5246790">
    <ele>624.5</ele>
    <time>2026-08-23T18:15:51Z</time>
   </trkpt>
   <trkpt lat="53.5330970" lon="-113.5247730">
    <ele>624.5</ele>
    <time>2026-08-23T18:15:52Z</time>
   </trkpt>
   <trkpt lat="53.5331200" lon="-113.5248540">
    <ele>624.5</ele>
    <time>2026-08-23T18:15:53Z</time>
   </trkpt>
   <trkpt lat="53.5331390" lon="-113.5249500">
    <ele>624.6</ele>
    <time>2026-08-23T18:15:54Z</time>
   </trkpt>
   <trkpt lat="53.5331600" lon="-113.5250390">
    <ele>624.6</ele>
    <time>2026-08-23T18:15:55Z</time>
   </trkpt>
   <trkpt lat="53.5331840" lon="-113.5251320">
    <ele>624.7</ele>
    <time>2026-08-23T18:15:56Z</time>
   </trkpt>
   <trkpt lat="53.5332030" lon="-113.5252270">
    <ele>624.7</ele>
    <time>2026-08-23T18:15:57Z</time>
   </trkpt>
   <trkpt lat="53.5332240" lon="-113.5253150">
    <ele>624.7</ele>
    <time>2026-08-23T18:15:58Z</time>
   </trkpt>
   <trkpt lat="53.5332400" lon="-113.5254050">
    <ele>624.7</ele>
    <time>2026-08-23T18:15:59Z</time>
   </trkpt>
   <trkpt lat="53.5332580" lon="-113.5254930">
    <ele>624.8</ele>
    <time>2026-08-23T18:16:00Z</time>
   </trkpt>
   <trkpt lat="53.5332760" lon="-113.5255810">
    <ele>624.8</ele>
    <time>2026-08-23T18:16:01Z</time>
   </trkpt>
   <trkpt lat="53.5332970" lon="-113.5256760">
    <ele>624.8</ele>
    <time>2026-08-23T18:16:02Z</time>
   </trkpt>
   <trkpt lat="53.5333140" lon="-113.5257600">
    <ele>624.8</ele>
    <time>2026-08-23T18:16:03Z</time>
   </trkpt>
   <trkpt lat="53.5333420" lon="-113.5258540">
    <ele>624.8</ele>
    <time>2026-08-23T18:16:04Z</time>
   </trkpt>
   <trkpt lat="53.5333640" lon="-113.5259420">
    <ele>624.9</ele>
    <time>2026-08-23T18:16:05Z</time>
   </trkpt>
   <trkpt lat="53.5333850" lon="-113.5260310">
    <ele>624.9</ele>
    <time>2026-08-23T18:16:06Z</time>
   </trkpt>
   <trkpt lat="53.5333970" lon="-113.5261300">
    <ele>624.9</ele>
    <time>2026-08-23T18:16:07Z</time>
   </trkpt>
   <trkpt lat="53.5334190" lon="-113.5262180">
    <ele>625.0</ele>
    <time>2026-08-23T18:16:08Z</time>
   </trkpt>
   <trkpt lat="53.5334380" lon="-113.5263040">
    <ele>625.0</ele>
    <time>2026-08-23T18:16:09Z</time>
   </trkpt>
   <trkpt lat="53.5334590" lon="-113.5263940">
    <ele>625.0</ele>
    <time>2026-08-23T18:16:10Z</time>
   </trkpt>
   <trkpt lat="53.5334880" lon="-113.5264900">
    <ele>625.0</ele>
    <time>2026-08-23T18:16:11Z</time>
   </trkpt>
   <trkpt lat="53.5335060" lon="-113.5265790">
    <ele>625.1</ele>
    <time>2026-08-23T18:16:12Z</time>
   </trkpt>
   <trkpt lat="53.5335270" lon="-113.5266740">
    <ele>625.1</ele>
    <time>2026-08-23T18:16:13Z</time>
   </trkpt>
   <trkpt lat="53.5335600" lon="-113.5267530">
    <ele>625.1</ele>
    <time>2026-08-23T18:16:14Z</time>
   </trkpt>
   <trkpt lat="53.5335870" lon="-113.5268340">
    <ele>625.1</ele>
    <time>2026-08-23T18:16:15Z</time>
   </trkpt>
   <trkpt lat="53.5336010" lon="-113.5269190">
    <ele>625.1</ele>
    <time>2026-08-23T18:16:16Z</time>
   </trkpt>
   <trkpt lat="53.5336260" lon="-113.5270100">
    <ele>625.1</ele>
    <time>2026-08-23T18:16:17Z</time>
   </trkpt>
   <trkpt lat="53.5336510" lon="-113.5270970">
    <ele>625.1</ele>
    <time>2026-08-23T18:16:18Z</time>
   </trkpt>
   <trkpt lat="53.5336790" lon="-113.5271740">
    <ele>625.0</ele>
    <time>2026-08-23T18:16:19Z</time>
   </trkpt>
   <trkpt lat="53.5337070" lon="-113.5272630">
    <ele>625.0</ele>
    <time>2026-08-23T18:16:20Z</time>
   </trkpt>
   <trkpt lat="53.5337340" lon="-113.5273470">
    <ele>625.0</ele>
    <time>2026-08-23T18:16:21Z</time>
   </trkpt>
   <trkpt lat="53.5337650" lon="-113.5274370">
    <ele>625.0</ele>
    <time>2026-08-23T18:16:22Z</time>
   </trkpt>
   <trkpt lat="53.5337930" lon="-113.5275370">
    <ele>625.0</ele>
    <time>2026-08-23T18:16:23Z</time>
   </trkpt>
   <trkpt lat="53.5338160" lon="-113.5276190">
    <ele>625.0</ele>
    <time>2026-08-23T18:16:24Z</time>
   </trkpt>
   <trkpt lat="53.5338450" lon="-113.5277110">
    <ele>625.0</ele>
    <time>2026-08-23T18:16:25Z</time>
   </trkpt>
   <trkpt lat="53.5338730" lon="-113.5278080">
    <ele>625.0</ele>
    <time>2026-08-23T18:16:26Z</time>
   </trkpt>
   <trkpt lat="53.5339010" lon="-113.5279070">
    <ele>625.0</ele>
    <time>2026-08-23T18:16:27Z</time>
   </trkpt>
   <trkpt lat="53.5339270" lon="-113.5280000">
    <ele>624.9</ele>
    <time>2026-08-23T18:16:28Z</time>
   </trkpt>
   <trkpt lat="53.5339600" lon="-113.5280830">
    <ele>624.9</ele>
    <time>2026-08-23T18:16:29Z</time>
   </trkpt>
   <trkpt lat="53.5339950" lon="-113.5281760">
    <ele>624.9</ele>
    <time>2026-08-23T18:16:30Z</time>
   </trkpt>
   <trkpt lat="53.5340240" lon="-113.5282560">
    <ele>624.9</ele>
    <time>2026-08-23T18:16:31Z</time>
   </trkpt>
   <trkpt lat="53.5340560" lon="-113.5283470">
    <ele>624.9</ele>
    <time>2026-08-23T18:16:32Z</time>
   </trkpt>
   <trkpt lat="53.5340950" lon="-113.5284370">
    <ele>624.9</ele>
    <time>2026-08-23T18:16:33Z</time>
   </trkpt>
   <trkpt lat="53.5341360" lon="-113.5285180">
    <ele>624.9</ele>
    <time>2026-08-23T18:16:34Z</time>
   </trkpt>
   <trkpt lat="53.5341690" lon="-113.5286120">
    <ele>624.9</ele>
    <time>2026-08-23T18:16:35Z</time>
   </trkpt>
   <trkpt lat="53.5342000" lon="-113.5287130">
    <ele>624.9</ele>
    <time>2026-08-23T18:16:36Z</time>
   </trkpt>
   <trkpt lat="53.5342380" lon="-113.5288160">
    <ele>624.9</ele>
    <time>2026-08-23T18:16:37Z</time>
   </trkpt>
   <trkpt lat="53.5342730" lon="-113.5289180">
    <ele>624.9</ele>
    <time>2026-08-23T18:16:38Z</time>
   </trkpt>
   <trkpt lat="53.5343080" lon="-113.5290030">
    <ele>624.8</ele>
    <time>2026-08-23T18:16:39Z</time>
   </trkpt>
   <trkpt lat="53.5343440" lon="-113.5290830">
    <ele>624.8</ele>
    <time>2026-08-23T18:16:40Z</time>
   </trkpt>
   <trkpt lat="53.5343830" lon="-113.5291890">
    <ele>624.8</ele>
    <time>2026-08-23T18:16:41Z</time>
   </trkpt>
   <trkpt lat="53.5344130" lon="-113.5292940">
    <ele>624.8</ele>
    <time>2026-08-23T18:16:42Z</time>
   </trkpt>
   <trkpt lat="53.5344480" lon="-113.5293920">
    <ele>624.8</ele>
    <time>2026-08-23T18:16:43Z</time>
   </trkpt>
   <trkpt lat="53.5344800" lon="-113.5295010">
    <ele>624.8</ele>
    <time>2026-08-23T18:16:44Z</time>
   </trkpt>
   <trkpt lat="53.5345150" lon="-113.5295950">
    <ele>624.8</ele>
    <time>2026-08-23T18:16:45Z</time>
   </trkpt>
   <trkpt lat="53.5345500" lon="-113.5296860">
    <ele>624.8</ele>
    <time>2026-08-23T18:16:46Z</time>
   </trkpt>
   <trkpt lat="53.5345810" lon="-113.5297800">
    <ele>624.8</ele>
    <time>2026-08-23T18:16:47Z</time>
   </trkpt>
   <trkpt lat="53.5346190" lon="-113.5298710">
    <ele>624.8</ele>
    <time>2026-08-23T18:16:48Z</time>
   </trkpt>
   <trkpt lat="53.5346540" lon="-113.5299580">
    <ele>624.8</ele>
    <time>2026-08-23T18:16:49Z</time>
   </trkpt>
   <trkpt lat="53.5346840" lon="-113.5300670">
    <ele>624.8</ele>
    <time>2026-08-23T18:16:50Z</time>
   </trkpt>
   <trkpt lat="53.5347130" lon="-113.5301700">
    <ele>624.8</ele>
    <time>2026-08-23T18:16:51Z</time>
   </trkpt>
   <trkpt lat="53.5347510" lon="-113.5302510">
    <ele>624.8</ele>
    <time>2026-08-23T18:16:52Z</time>
   </trkpt>
   <trkpt lat="53.5347860" lon="-113.5303580">
    <ele>624.8</ele>
    <time>2026-08-23T18:16:53Z</time>
   </trkpt>
   <trkpt lat="53.5348180" lon="-113.5304560">
    <ele>624.8</ele>
    <time>2026-08-23T18:16:54Z</time>
   </trkpt>
   <trkpt lat="53.5348550" lon="-113.5305560">
    <ele>624.9</ele>
    <time>2026-08-23T18:16:55Z</time>
   </trkpt>
   <trkpt lat="53.5348880" lon="-113.5306620">
    <ele>624.9</ele>
    <time>2026-08-23T18:16:56Z</time>
   </trkpt>
   <trkpt lat="53.5349220" lon="-113.5307650">
    <ele>624.9</ele>
    <time>2026-08-23T18:16:57Z</time>
   </trkpt>
   <trkpt lat="53.5349580" lon="-113.5308540">
    <ele>624.9</ele>
    <time>2026-08-23T18:16:58Z</time>
   </trkpt>
   <trkpt lat="53.5349940" lon="-113.5309550">
    <ele>625.0</ele>
    <time>2026-08-23T18:16:59Z</time>
   </trkpt>
   <trkpt lat="53.5350290" lon="-113.5310500">
    <ele>625.0</ele>
    <time>2026-08-23T18:17:00Z</time>
   </trkpt>
   <trkpt lat="53.5350570" lon="-113.5311420">
    <ele>625.0</ele>
    <time>2026-08-23T18:17:01Z</time>
   </trkpt>
   <trkpt lat="53.5350890" lon="-113.5312370">
    <ele>625.0</ele>
    <time>2026-08-23T18:17:02Z</time>
   </trkpt>
   <trkpt lat="53.5351270" lon="-113.5313320">
    <ele>625.1</ele>
    <time>2026-08-23T18:17:03Z</time>
   </trkpt>
   <trkpt lat="53.5351600" lon="-113.5314240">
    <ele>625.1</ele>
    <time>2026-08-23T18:17:04Z</time>
   </trkpt>
   <trkpt lat="53.5352000" lon="-113.5315100">
    <ele>625.1</ele>
    <time>2026-08-23T18:17:05Z</time>
   </trkpt>
   <trkpt lat="53.5352420" lon="-113.5315980">
    <ele>625.1</ele>
    <time>2026-08-23T18:17:06Z</time>
   </trkpt>
   <trkpt lat="53.5352790" lon="-113.5316840">
    <ele>625.1</ele>
    <time>2026-08-23T18:17:07Z</time>
   </trkpt>
   <trkpt lat="53.5353140" lon="-113.5317810">
    <ele>625.2</ele>
    <time>2026-08-23T18:17:08Z</time>
   </trkpt>
   <trkpt lat="53.5353480" lon="-113.5318820">
    <ele>625.2</ele>
    <time>2026-08-23T18:17:09Z</time>
   </trkpt>
   <trkpt lat="53.5353840" lon="-113.5319760">
    <ele>625.2</ele>
    <time>2026-08-23T18:17:10Z</time>
   </trkpt>
   <trkpt lat="53.5354160" lon="-113.5320720">
    <ele>625.2</ele>
    <time>2026-08-23T18:17:11Z</time>
   </trkpt>
   <trkpt lat="53.5354520" lon="-113.5321590">
    <ele>625.3</ele>
    <time>2026-08-23T18:17:12Z</time>
   </trkpt>
   <trkpt lat="53.5354870" lon="-113.5322540">
    <ele>625.3</ele>
    <time>2026-08-23T18:17:13Z</time>
   </trkpt>
   <trkpt lat="53.5355230" lon="-113.5323470">
    <ele>625.3</ele>
    <time>2026-08-23T18:17:14Z</time>
   </trkpt>
   <trkpt lat="53.5355580" lon="-113.5324340">
    <ele>625.2</ele>
    <time>2026-08-23T18:17:15Z</time>
   </trkpt>
   <trkpt lat="53.5355850" lon="-113.5325230">
    <ele>625.2</ele>
    <time>2026-08-23T18:17:16Z</time>
   </trkpt>
   <trkpt lat="53.5356170" lon="-113.5326260">
    <ele>625.1</ele>
    <time>2026-08-23T18:17:17Z</time>
   </trkpt>
   <trkpt lat="53.5356500" lon="-113.5327110">
    <ele>625.1</ele>
    <time>2026-08-23T18:17:18Z</time>
   </trkpt>
   <trkpt lat="53.5356830" lon="-113.5328120">
    <ele>625.1</ele>
    <time>2026-08-23T18:17:19Z</time>
   </trkpt>
   <trkpt lat="53.5357230" lon="-113.5329090">
    <ele>625.0</ele>
    <time>2026-08-23T18:17:20Z</time>
   </trkpt>
   <trkpt lat="53.5357560" lon="-113.5330020">
    <ele>625.0</ele>
    <time>2026-08-23T18:17:21Z</time>
   </trkpt>
   <trkpt lat="53.5357930" lon="-113.5331010">
    <ele>624.9</ele>
    <time>2026-08-23T18:17:22Z</time>
   </trkpt>
   <trkpt lat="53.5358250" lon="-113.5331980">
    <ele>624.9</ele>
    <time>2026-08-23T18:17:23Z</time>
   </trkpt>
   <trkpt lat="53.5358600" lon="-113.5332890">
    <ele>624.9</ele>
    <time>2026-08-23T18:17:24Z</time>
   </trkpt>
   <trkpt lat="53.5358920" lon="-113.5333790">
    <ele>624.9</ele>
    <time>2026-08-23T18:17:25Z</time>
   </trkpt>
   <trkpt lat="53.5359200" lon="-113.5334700">
    <ele>624.9</ele>
    <time>2026-08-23T18:17:26Z</time>
   </trkpt>
   <trkpt lat="53.5359530" lon="-113.5335730">
    <ele>625.0</ele>
    <time>2026-08-23T18:17:27Z</time>
   </trkpt>
   <trkpt lat="53.5359980" lon="-113.5336630">
    <ele>625.0</ele>
    <time>2026-08-23T18:17:28Z</time>
   </trkpt>
   <trkpt lat="53.5360390" lon="-113.5337530">
    <ele>625.1</ele>
    <time>2026-08-23T18:17:29Z</time>
   </trkpt>
   <trkpt lat="53.5360750" lon="-113.5338400">
    <ele>625.2</ele>
    <time>2026-08-23T18:17:30Z</time>
   </trkpt>
   <trkpt lat="53.5361160" lon="-113.5339290">
    <ele>625.2</ele>
    <time>2026-08-23T18:17:31Z</time>
   </trkpt>
   <trkpt lat="53.5361560" lon="-113.5340090">
    <ele>625.3</ele>
    <time>2026-08-23T18:17:32Z</time>
   </trkpt>
   <trkpt lat="53.5361980" lon="-113.5340930">
    <ele>625.3</ele>
    <time>2026-08-23T18:17:33Z</time>
   </trkpt>
   <trkpt lat="53.5362440" lon="-113.5341640">
    <ele>625.3</ele>
    <time>2026-08-23T18:17:34Z</time>
   </trkpt>
   <trkpt lat="53.5362840" lon="-113.5342500">
    <ele>625.3</ele>
    <time>2026-08-23T18:17:35Z</time>
   </trkpt>
   <trkpt lat="53.5363230" lon="-113.5343280">
    <ele>625.4</ele>
    <time>2026-08-23T18:17:36Z</time>
   </trkpt>
   <trkpt lat="53.5363660" lon="-113.5344110">
    <ele>625.4</ele>
    <time>2026-08-23T18:17:37Z</time>
   </trkpt>
   <trkpt lat="53.5364040" lon="-113.5344990">
    <ele>625.4</ele>
    <time>2026-08-23T18:17:38Z</time>
   </trkpt>
   <trkpt lat="53.5364440" lon="-113.5345870">
    <ele>625.5</ele>
    <time>2026-08-23T18:17:39Z</time>
   </trkpt>
   <trkpt lat="53.5364820" lon="-113.5346780">
    <ele>625.5</ele>
    <time>2026-08-23T18:17:40Z</time>
   </trkpt>
   <trkpt lat="53.5365200" lon="-113.5347590">
    <ele>625.5</ele>
    <time>2026-08-23T18:17:41Z</time>
   </trkpt>
   <trkpt lat="53.5365600" lon="-113.5348400">
    <ele>625.6</ele>
    <time>2026-08-23T18:17:42Z</time>
   </trkpt>
   <trkpt lat="53.5366000" lon="-113.5349280">
    <ele>625.6</ele>
    <time>2026-08-23T18:17:43Z</time>
   </trkpt>
   <trkpt lat="53.5366370" lon="-113.5350120">
    <ele>625.6</ele>
    <time>2026-08-23T18:17:44Z</time>
   </trkpt>
   <trkpt lat="53.5366720" lon="-113.5350930">
    <ele>625.6</ele>
    <time>2026-08-23T18:17:45Z</time>
   </trkpt>
   <trkpt lat="53.5367100" lon="-113.5351770">
    <ele>625.6</ele>
    <time>2026-08-23T18:17:46Z</time>
   </trkpt>
   <trkpt lat="53.5367440" lon="-113.5352650">
    <ele>625.6</ele>
    <time>2026-08-23T18:17:47Z</time>
   </trkpt>
   <trkpt lat="53.5367880" lon="-113.5353470">
    <ele>625.6</ele>
    <time>2026-08-23T18:17:48Z</time>
   </trkpt>
   <trkpt lat="53.5368200" lon="-113.5354310">
    <ele>625.6</ele>
    <time>2026-08-23T18:17:49Z</time>
   </trkpt>
   <trkpt lat="53.5368510" lon="-113.5355130">
    <ele>625.6</ele>
    <time>2026-08-23T18:17:50Z</time>
   </trkpt>
   <trkpt lat="53.5368850" lon="-113.5355980">
    <ele>625.7</ele>
    <time>2026-08-23T18:17:51Z</time>
   </trkpt>
   <trkpt lat="53.5369210" lon="-113.5356850">
    <ele>625.7</ele>
    <time>2026-08-23T18:17:52Z</time>
   </trkpt>
   <trkpt lat="53.5369610" lon="-113.5357530">
    <ele>625.7</ele>
    <time>2026-08-23T18:17:53Z</time>
   </trkpt>
   <trkpt lat="53.5370000" lon="-113.5358440">
    <ele>625.7</ele>
    <time>2026-08-23T18:17:54Z</time>
   </trkpt>
   <trkpt lat="53.5370320" lon="-113.5359330">
    <ele>625.8</ele>
    <time>2026-08-23T18:17:55Z</time>
   </trkpt>
   <trkpt lat="53.5370660" lon="-113.5360150">
    <ele>625.8</ele>
    <time>2026-08-23T18:17:56Z</time>
   </trkpt>
   <trkpt lat="53.5371040" lon="-113.5361050">
    <ele>625.8</ele>
    <time>2026-08-23T18:17:57Z</time>
   </trkpt>
   <trkpt lat="53.5371420" lon="-113.5361900">
    <ele>625.8</ele>
    <time>2026-08-23T18:17:58Z</time>
   </trkpt>
   <trkpt lat="53.5371780" lon="-113.5362660">
    <ele>625.8</ele>
    <time>2026-08-23T18:17:59Z</time>
   </trkpt>
   <trkpt lat="53.5372090" lon="-113.5363500">
    <ele>625.8</ele>
    <time>2026-08-23T18:18:00Z</time>
   </trkpt>
   <trkpt lat="53.5372400" lon="-113.5364250">
    <ele>625.8</ele>
    <time>2026-08-23T18:18:01Z</time>
   </trkpt>
   <trkpt lat="53.5372720" lon="-113.5365080">
    <ele>625.8</ele>
    <time>2026-08-23T18:18:02Z</time>
   </trkpt>
   <trkpt lat="53.5373000" lon="-113.5365850">
    <ele>625.8</ele>
    <time>2026-08-23T18:18:03Z</time>
   </trkpt>
   <trkpt lat="53.5373320" lon="-113.5366660">
    <ele>625.7</ele>
    <time>2026-08-23T18:18:04Z</time>
   </trkpt>
   <trkpt lat="53.5373540" lon="-113.5367480">
    <ele>625.7</ele>
    <time>2026-08-23T18:18:05Z</time>
   </trkpt>
   <trkpt lat="53.5373810" lon="-113.5368180">
    <ele>625.6</ele>
    <time>2026-08-23T18:18:06Z</time>
   </trkpt>
   <trkpt lat="53.5374100" lon="-113.5368880">
    <ele>625.5</ele>
    <time>2026-08-23T18:18:07Z</time>
   </trkpt>
   <trkpt lat="53.5374360" lon="-113.5369610">
    <ele>625.4</ele>
    <time>2026-08-23T18:18:08Z</time>
   </trkpt>
   <trkpt lat="53.5374640" lon="-113.5370350">
    <ele>625.3</ele>
    <time>2026-08-23T18:18:09Z</time>
   </trkpt>
   <trkpt lat="53.5374980" lon="-113.5371060">
    <ele>625.2</ele>
    <time>2026-08-23T18:18:10Z</time>
   </trkpt>
   <trkpt lat="53.5375240" lon="-113.5371820">
    <ele>625.1</ele>
    <time>2026-08-23T18:18:11Z</time>
   </trkpt>
   <trkpt lat="53.5375500" lon="-113.5372560">
    <ele>625.0</ele>
    <time>2026-08-23T18:18:12Z</time>
   </trkpt>
   <trkpt lat="53.5375740" lon="-113.5373130">
    <ele>625.0</ele>
    <time>2026-08-23T18:18:13Z</time>
   </trkpt>
   <trkpt lat="53.5375900" lon="-113.5373480">
    <ele>625.0</ele>
    <time>2026-08-23T18:18:14Z</time>
   </trkpt>
   <trkpt lat="53.5375990" lon="-113.5373620">
    <ele>625.0</ele>
    <time>2026-08-23T18:18:15Z</time>
   </trkpt>
   <trkpt lat="53.5375960" lon="-113.5373670">
    <ele>624.9</ele>
    <time>2026-08-23T18:18:16Z</time>
   </trkpt>
   <trkpt lat="53.5375950" lon="-113.5373610">
    <ele>624.9</ele>
    <time>2026-08-23T18:18:17Z</time>
   </trkpt>
   <trkpt lat="53.5375920" lon="-113.5373600">
    <ele>624.9</ele>
    <time>2026-08-23T18:18:18Z</time>
   </trkpt>
   <trkpt lat="53.5375920" lon="-113.5373610">
    <ele>624.9</ele>
    <time>2026-08-23T18:18:19Z</time>
   </trkpt>
   <trkpt lat="53.5375970" lon="-113.5373700">
    <ele>624.9</ele>
    <time>2026-08-23T18:18:20Z</time>
   </trkpt>
   <trkpt lat="53.5376060" lon="-113.5373840">
    <ele>624.9</ele>
    <time>2026-08-23T18:18:21Z</time>
   </trkpt>
   <trkpt lat="53.5376220" lon="-113.5373880">
    <ele>624.9</ele>
    <time>2026-08-23T18:18:22Z</time>
   </trkpt>
   <trkpt lat="53.5376490" lon="-113.5373850">
    <ele>624.9</ele>
    <time>2026-08-23T18:18:23Z</time>
   </trkpt>
   <trkpt lat="53.5376800" lon="-113.5373550">
    <ele>624.9</ele>
    <time>2026-08-23T18:18:24Z</time>
   </trkpt>
   <trkpt lat="53.5377150" lon="-113.5373100">
    <ele>624.9</ele>
    <time>2026-08-23T18:18:25Z</time>
   </trkpt>
   <trkpt lat="53.5377500" lon="-113.5372810">
    <ele>624.9</ele>
    <time>2026-08-23T18:18:26Z</time>
   </trkpt>
   <trkpt lat="53.5377890" lon="-113.5372460">
    <ele>625.0</ele>
    <time>2026-08-23T18:18:27Z</time>
   </trkpt>
   <trkpt lat="53.5378200" lon="-113.5372160">
    <ele>625.1</ele>
    <time>2026-08-23T18:18:28Z</time>
   </trkpt>
   <trkpt lat="53.5378670" lon="-113.5372280">
    <ele>625.4</ele>
    <time>2026-08-23T18:18:29Z</time>
   </trkpt>
   <trkpt lat="53.5379140" lon="-113.5372580">
    <ele>625.9</ele>
    <time>2026-08-23T18:18:30Z</time>
   </trkpt>
   <trkpt lat="53.5379510" lon="-113.5372930">
    <ele>626.4</ele>
    <time>2026-08-23T18:18:31Z</time>
   </trkpt>
   <trkpt lat="53.5379880" lon="-113.5373260">
    <ele>627.1</ele>
    <time>2026-08-23T18:18:32Z</time>
   </trkpt>
   <trkpt lat="53.5380270" lon="-113.5373620">
    <ele>627.3</ele>
    <time>2026-08-23T18:18:33Z</time>
   </trkpt>
   <trkpt lat="53.5380640" lon="-113.5373900">
    <ele>628.0</ele>
    <time>2026-08-23T18:18:34Z</time>
   </trkpt>
   <trkpt lat="53.5380990" lon="-113.5374100">
    <ele>628.6</ele>
    <time>2026-08-23T18:18:35Z</time>
   </trkpt>
   <trkpt lat="53.5381290" lon="-113.5374450">
    <ele>629.2</ele>
    <time>2026-08-23T18:18:36Z</time>
   </trkpt>
   <trkpt lat="53.5381540" lon="-113.5374910">
    <ele>629.5</ele>
    <time>2026-08-23T18:18:37Z</time>
   </trkpt>
   <trkpt lat="53.5381890" lon="-113.5375290">
    <ele>629.8</ele>
    <time>2026-08-23T18:18:38Z</time>
   </trkpt>
   <trkpt lat="53.5382050" lon="-113.5375490">
    <ele>630.2</ele>
    <time>2026-08-23T18:18:39Z</time>
   </trkpt>
   <trkpt lat="53.5382150" lon="-113.5375950">
    <ele>630.2</ele>
    <time>2026-08-23T18:18:40Z</time>
   </trkpt>
   <trkpt lat="53.5382060" lon="-113.5376500">
    <ele>630.2</ele>
    <time>2026-08-23T18:18:41Z</time>
   </trkpt>
   <trkpt lat="53.5381760" lon="-113.5377020">
    <ele>630.2</ele>
    <time>2026-08-23T18:18:42Z</time>
   </trkpt>
   <trkpt lat="53.5381270" lon="-113.5377380">
    <ele>630.3</ele>
    <time>2026-08-23T18:18:43Z</time>
   </trkpt>
   <trkpt lat="53.5380840" lon="-113.5377730">
    <ele>630.3</ele>
    <time>2026-08-23T18:18:44Z</time>
   </trkpt>
   <trkpt lat="53.5380430" lon="-113.5378040">
    <ele>630.2</ele>
    <time>2026-08-23T18:18:45Z</time>
   </trkpt>
   <trkpt lat="53.5379980" lon="-113.5378360">
    <ele>630.2</ele>
    <time>2026-08-23T18:18:46Z</time>
   </trkpt>
   <trkpt lat="53.5379510" lon="-113.5378680">
    <ele>630.2</ele>
    <time>2026-08-23T18:18:47Z</time>
   </trkpt>
   <trkpt lat="53.5379040" lon="-113.5378990">
    <ele>630.2</ele>
    <time>2026-08-23T18:18:48Z</time>
   </trkpt>
   <trkpt lat="53.5378570" lon="-113.5379400">
    <ele>630.3</ele>
    <time>2026-08-23T18:18:49Z</time>
   </trkpt>
   <trkpt lat="53.5378150" lon="-113.5379740">
    <ele>630.3</ele>
    <time>2026-08-23T18:18:50Z</time>
   </trkpt>
   <trkpt lat="53.5377680" lon="-113.5380020">
    <ele>630.3</ele>
    <time>2026-08-23T18:18:51Z</time>
   </trkpt>
   <trkpt lat="53.5377220" lon="-113.5380290">
    <ele>630.3</ele>
    <time>2026-08-23T18:18:52Z</time>
   </trkpt>
   <trkpt lat="53.5376740" lon="-113.5380580">
    <ele>630.4</ele>
    <time>2026-08-23T18:18:53Z</time>
   </trkpt>
   <trkpt lat="53.5376280" lon="-113.5380920">
    <ele>630.4</ele>
    <time>2026-08-23T18:18:54Z</time>
   </trkpt>
   <trkpt lat="53.5375770" lon="-113.5381270">
    <ele>630.4</ele>
    <time>2026-08-23T18:18:55Z</time>
   </trkpt>
   <trkpt lat="53.5375850" lon="-113.5381340">
    <ele>630.4</ele>
    <time>2026-08-23T18:18:56Z</time>
   </trkpt>
   <trkpt lat="53.5375540" lon="-113.5381540">
    <ele>630.5</ele>
    <time>2026-08-23T18:18:57Z</time>
   </trkpt>
   <trkpt lat="53.5375290" lon="-113.5381840">
    <ele>630.5</ele>
    <time>2026-08-23T18:18:58Z</time>
   </trkpt>
   <trkpt lat="53.5375030" lon="-113.5382170">
    <ele>630.5</ele>
    <time>2026-08-23T18:18:59Z</time>
   </trkpt>
   <trkpt lat="53.5374750" lon="-113.5382380">
    <ele>630.5</ele>
    <time>2026-08-23T18:19:00Z</time>
   </trkpt>
   <trkpt lat="53.5372950" lon="-113.5383220">
    <ele>630.6</ele>
    <time>2026-08-23T18:19:01Z</time>
   </trkpt>
   <trkpt lat="53.5372480" lon="-113.5383590">
    <ele>630.7</ele>
    <time>2026-08-23T18:19:02Z</time>
   </trkpt>
   <trkpt lat="53.5371990" lon="-113.5383930">
    <ele>630.7</ele>
    <time>2026-08-23T18:19:03Z</time>
   </trkpt>
   <trkpt lat="53.5371550" lon="-113.5384410">
    <ele>630.7</ele>
    <time>2026-08-23T18:19:04Z</time>
   </trkpt>
   <trkpt lat="53.5371170" lon="-113.5384780">
    <ele>630.8</ele>
    <time>2026-08-23T18:19:05Z</time>
   </trkpt>
   <trkpt lat="53.5370630" lon="-113.5385080">
    <ele>630.8</ele>
    <time>2026-08-23T18:19:06Z</time>
   </trkpt>
   <trkpt lat="53.5370150" lon="-113.5385490">
    <ele>630.8</ele>
    <time>2026-08-23T18:19:07Z</time>
   </trkpt>
   <trkpt lat="53.5369660" lon="-113.5385790">
    <ele>630.8</ele>
    <time>2026-08-23T18:19:08Z</time>
   </trkpt>
   <trkpt lat="53.5369190" lon="-113.5386120">
    <ele>630.9</ele>
    <time>2026-08-23T18:19:09Z</time>
   </trkpt>
   <trkpt lat="53.5368700" lon="-113.5386410">
    <ele>630.9</ele>
    <time>2026-08-23T18:19:10Z</time>
   </trkpt>
   <trkpt lat="53.5368210" lon="-113.5386750">
    <ele>630.9</ele>
    <time>2026-08-23T18:19:11Z</time>
   </trkpt>
   <trkpt lat="53.5367800" lon="-113.5387140">
    <ele>630.9</ele>
    <time>2026-08-23T18:19:12Z</time>
   </trkpt>
   <trkpt lat="53.5367260" lon="-113.5387520">
    <ele>630.9</ele>
    <time>2026-08-23T18:19:13Z</time>
   </trkpt>
   <trkpt lat="53.5366800" lon="-113.5387850">
    <ele>630.9</ele>
    <time>2026-08-23T18:19:14Z</time>
   </trkpt>
   <trkpt lat="53.5366450" lon="-113.5388350">
    <ele>630.8</ele>
    <time>2026-08-23T18:19:15Z</time>
   </trkpt>
   <trkpt lat="53.5365930" lon="-113.5388690">
    <ele>630.8</ele>
    <time>2026-08-23T18:19:16Z</time>
   </trkpt>
   <trkpt lat="53.5365480" lon="-113.5389080">
    <ele>630.8</ele>
    <time>2026-08-23T18:19:17Z</time>
   </trkpt>
   <trkpt lat="53.5365000" lon="-113.5389440">
    <ele>630.7</ele>
    <time>2026-08-23T18:19:18Z</time>
   </trkpt>
   <trkpt lat="53.5364520" lon="-113.5389710">
    <ele>630.7</ele>
    <time>2026-08-23T18:19:19Z</time>
   </trkpt>
   <trkpt lat="53.5364010" lon="-113.5390050">
    <ele>630.7</ele>
    <time>2026-08-23T18:19:20Z</time>
   </trkpt>
   <trkpt lat="53.5363530" lon="-113.5390360">
    <ele>630.6</ele>
    <time>2026-08-23T18:19:21Z</time>
   </trkpt>
   <trkpt lat="53.5362940" lon="-113.5390610">
    <ele>630.6</ele>
    <time>2026-08-23T18:19:22Z</time>
   </trkpt>
   <trkpt lat="53.5362520" lon="-113.5390990">
    <ele>630.5</ele>
    <time>2026-08-23T18:19:23Z</time>
   </trkpt>
   <trkpt lat="53.5362170" lon="-113.5391540">
    <ele>630.5</ele>
    <time>2026-08-23T18:19:24Z</time>
   </trkpt>
   <trkpt lat="53.5361640" lon="-113.5391870">
    <ele>630.4</ele>
    <time>2026-08-23T18:19:25Z</time>
   </trkpt>
   <trkpt lat="53.5361160" lon="-113.5392190">
    <ele>630.4</ele>
    <time>2026-08-23T18:19:26Z</time>
   </trkpt>
   <trkpt lat="53.5360680" lon="-113.5392530">
    <ele>630.3</ele>
    <time>2026-08-23T18:19:27Z</time>
   </trkpt>
   <trkpt lat="53.5360150" lon="-113.5392910">
    <ele>630.2</ele>
    <time>2026-08-23T18:19:28Z</time>
   </trkpt>
   <trkpt lat="53.5360100" lon="-113.5392990">
    <ele>630.2</ele>
    <time>2026-08-23T18:19:29Z</time>
   </trkpt>
   <trkpt lat="53.5359820" lon="-113.5393250">
    <ele>630.2</ele>
    <time>2026-08-23T18:19:30Z</time>
   </trkpt>
   <trkpt lat="53.5358550" lon="-113.5393890">
    <ele>630.1</ele>
    <time>2026-08-23T18:19:31Z</time>
   </trkpt>
   <trkpt lat="53.5358080" lon="-113.5394290">
    <ele>630.0</ele>
    <time>2026-08-23T18:19:32Z</time>
   </trkpt>
   <trkpt lat="53.5357550" lon="-113.5394720">
    <ele>630.0</ele>
    <time>2026-08-23T18:19:33Z</time>
   </trkpt>
   <trkpt lat="53.5357050" lon="-113.5395040">
    <ele>629.9</ele>
    <time>2026-08-23T18:19:34Z</time>
   </trkpt>
   <trkpt lat="53.5356540" lon="-113.5395410">
    <ele>629.9</ele>
    <time>2026-08-23T18:19:35Z</time>
   </trkpt>
   <trkpt lat="53.5356020" lon="-113.5395830">
    <ele>629.9</ele>
    <time>2026-08-23T18:19:36Z</time>
   </trkpt>
   <trkpt lat="53.5354970" lon="-113.5396610">
    <ele>629.8</ele>
    <time>2026-08-23T18:19:37Z</time>
   </trkpt>
   <trkpt lat="53.5354480" lon="-113.5396980">
    <ele>629.7</ele>
    <time>2026-08-23T18:19:38Z</time>
   </trkpt>
   <trkpt lat="53.5353980" lon="-113.5397260">
    <ele>629.7</ele>
    <time>2026-08-23T18:19:39Z</time>
   </trkpt>
   <trkpt lat="53.5353380" lon="-113.5397390">
    <ele>629.5</ele>
    <time>2026-08-23T18:19:40Z</time>
   </trkpt>
   <trkpt lat="53.5352830" lon="-113.5397570">
    <ele>629.4</ele>
    <time>2026-08-23T18:19:41Z</time>
   </trkpt>
   <trkpt lat="53.5352220" lon="-113.5397700">
    <ele>629.3</ele>
    <time>2026-08-23T18:19:42Z</time>
   </trkpt>
   <trkpt lat="53.5351600" lon="-113.5397780">
    <ele>629.2</ele>
    <time>2026-08-23T18:19:43Z</time>
   </trkpt>
   <trkpt lat="53.5351030" lon="-113.5397880">
    <ele>629.1</ele>
    <time>2026-08-23T18:19:44Z</time>
   </trkpt>
   <trkpt lat="53.5350410" lon="-113.5397890">
    <ele>629.0</ele>
    <time>2026-08-23T18:19:45Z</time>
   </trkpt>
   <trkpt lat="53.5349830" lon="-113.5397980">
    <ele>628.9</ele>
    <time>2026-08-23T18:19:46Z</time>
   </trkpt>
   <trkpt lat="53.5349220" lon="-113.5398000">
    <ele>628.8</ele>
    <time>2026-08-23T18:19:47Z</time>
   </trkpt>
   <trkpt lat="53.5348580" lon="-113.5398050">
    <ele>628.7</ele>
    <time>2026-08-23T18:19:48Z</time>
   </trkpt>
   <trkpt lat="53.5347980" lon="-113.5398030">
    <ele>628.7</ele>
    <time>2026-08-23T18:19:49Z</time>
   </trkpt>
   <trkpt lat="53.5347490" lon="-113.5398110">
    <ele>628.6</ele>
    <time>2026-08-23T18:19:50Z</time>
   </trkpt>
   <trkpt lat="53.5346940" lon="-113.5398070">
    <ele>628.6</ele>
    <time>2026-08-23T18:19:51Z</time>
   </trkpt>
   <trkpt lat="53.5346280" lon="-113.5397970">
    <ele>628.5</ele>
    <time>2026-08-23T18:19:52Z</time>
   </trkpt>
   <trkpt lat="53.5345680" lon="-113.5397770">
    <ele>628.5</ele>
    <time>2026-08-23T18:19:53Z</time>
   </trkpt>
   <trkpt lat="53.5344980" lon="-113.5397590">
    <ele>628.4</ele>
    <time>2026-08-23T18:19:54Z</time>
   </trkpt>
   <trkpt lat="53.5344320" lon="-113.5397360">
    <ele>628.3</ele>
    <time>2026-08-23T18:19:55Z</time>
   </trkpt>
   <trkpt lat="53.5343760" lon="-113.5397200">
    <ele>628.3</ele>
    <time>2026-08-23T18:19:56Z</time>
   </trkpt>
   <trkpt lat="53.5343230" lon="-113.5396830">
    <ele>628.3</ele>
    <time>2026-08-23T18:19:57Z</time>
   </trkpt>
   <trkpt lat="53.5342630" lon="-113.5396480">
    <ele>628.3</ele>
    <time>2026-08-23T18:19:58Z</time>
   </trkpt>
   <trkpt lat="53.5342080" lon="-113.5395960">
    <ele>628.2</ele>
    <time>2026-08-23T18:19:59Z</time>
   </trkpt>
   <trkpt lat="53.5341470" lon="-113.5395540">
    <ele>628.2</ele>
    <time>2026-08-23T18:20:00Z</time>
   </trkpt>
   <trkpt lat="53.5340870" lon="-113.5395040">
    <ele>628.1</ele>
    <time>2026-08-23T18:20:01Z</time>
   </trkpt>
   <trkpt lat="53.5340360" lon="-113.5394460">
    <ele>628.1</ele>
    <time>2026-08-23T18:20:02Z</time>
   </trkpt>
   <trkpt lat="53.5339840" lon="-113.5393810">
    <ele>628.1</ele>
    <time>2026-08-23T18:20:03Z</time>
   </trkpt>
   <trkpt lat="53.5339340" lon="-113.5393040">
    <ele>628.0</ele>
    <time>2026-08-23T18:20:04Z</time>
   </trkpt>
   <trkpt lat="53.5338920" lon="-113.5392280">
    <ele>628.0</ele>
    <time>2026-08-23T18:20:05Z</time>
   </trkpt>
   <trkpt lat="53.5338470" lon="-113.5391630">
    <ele>628.0</ele>
    <time>2026-08-23T18:20:06Z</time>
   </trkpt>
   <trkpt lat="53.5338000" lon="-113.5390870">
    <ele>628.0</ele>
    <time>2026-08-23T18:20:07Z</time>
   </trkpt>
   <trkpt lat="53.5337540" lon="-113.5390180">
    <ele>628.0</ele>
    <time>2026-08-23T18:20:08Z</time>
   </trkpt>
   <trkpt lat="53.5337070" lon="-113.5389370">
    <ele>628.0</ele>
    <time>2026-08-23T18:20:09Z</time>
   </trkpt>
   <trkpt lat="53.5336590" lon="-113.5388690">
    <ele>628.0</ele>
    <time>2026-08-23T18:20:10Z</time>
   </trkpt>
   <trkpt lat="53.5336080" lon="-113.5387960">
    <ele>628.1</ele>
    <time>2026-08-23T18:20:11Z</time>
   </trkpt>
   <trkpt lat="53.5335710" lon="-113.5387090">
    <ele>628.1</ele>
    <time>2026-08-23T18:20:12Z</time>
   </trkpt>
   <trkpt lat="53.5335290" lon="-113.5386330">
    <ele>628.2</ele>
    <time>2026-08-23T18:20:13Z</time>
   </trkpt>
   <trkpt lat="53.5334910" lon="-113.5385620">
    <ele>628.4</ele>
    <time>2026-08-23T18:20:14Z</time>
   </trkpt>
   <trkpt lat="53.5334520" lon="-113.5384950">
    <ele>628.5</ele>
    <time>2026-08-23T18:20:15Z</time>
   </trkpt>
   <trkpt lat="53.5334110" lon="-113.5384240">
    <ele>628.7</ele>
    <time>2026-08-23T18:20:16Z</time>
   </trkpt>
   <trkpt lat="53.5333740" lon="-113.5383540">
    <ele>628.9</ele>
    <time>2026-08-23T18:20:17Z</time>
   </trkpt>
   <trkpt lat="53.5333360" lon="-113.5382970">
    <ele>629.1</ele>
    <time>2026-08-23T18:20:18Z</time>
   </trkpt>
   <trkpt lat="53.5332960" lon="-113.5382420">
    <ele>629.3</ele>
    <time>2026-08-23T18:20:19Z</time>
   </trkpt>
   <trkpt lat="53.5332670" lon="-113.5381680">
    <ele>629.5</ele>
    <time>2026-08-23T18:20:20Z</time>
   </trkpt>
   <trkpt lat="53.5332290" lon="-113.5381020">
    <ele>629.8</ele>
    <time>2026-08-23T18:20:21Z</time>
   </trkpt>
   <trkpt lat="53.5332310" lon="-113.5380990">
    <ele>629.8</ele>
    <time>2026-08-23T18:20:22Z</time>
   </trkpt>
   <trkpt lat="53.5332120" lon="-113.5380640">
    <ele>629.9</ele>
    <time>2026-08-23T18:20:24Z</time>
   </trkpt>
   <trkpt lat="53.5331890" lon="-113.5380230">
    <ele>630.1</ele>
    <time>2026-08-23T18:20:25Z</time>
   </trkpt>
   <trkpt lat="53.5331680" lon="-113.5379850">
    <ele>630.3</ele>
    <time>2026-08-23T18:20:26Z</time>
   </trkpt>
   <trkpt lat="53.5331400" lon="-113.5379490">
    <ele>630.4</ele>
    <time>2026-08-23T18:20:27Z</time>
   </trkpt>
   <trkpt lat="53.5331180" lon="-113.5379010">
    <ele>630.6</ele>
    <time>2026-08-23T18:20:28Z</time>
   </trkpt>
   <trkpt lat="53.5329850" lon="-113.5376600">
    <ele>631.7</ele>
    <time>2026-08-23T18:20:29Z</time>
   </trkpt>
   <trkpt lat="53.5329530" lon="-113.5376070">
    <ele>631.9</ele>
    <time>2026-08-23T18:20:30Z</time>
   </trkpt>
   <trkpt lat="53.5329160" lon="-113.5375400">
    <ele>632.2</ele>
    <time>2026-08-23T18:20:31Z</time>
   </trkpt>
   <trkpt lat="53.5328830" lon="-113.5374880">
    <ele>632.5</ele>
    <time>2026-08-23T18:20:32Z</time>
   </trkpt>
   <trkpt lat="53.5328510" lon="-113.5374290">
    <ele>632.7</ele>
    <time>2026-08-23T18:20:33Z</time>
   </trkpt>
   <trkpt lat="53.5328190" lon="-113.5373690">
    <ele>633.0</ele>
    <time>2026-08-23T18:20:34Z</time>
   </trkpt>
   <trkpt lat="53.5327880" lon="-113.5373150">
    <ele>633.3</ele>
    <time>2026-08-23T18:20:35Z</time>
   </trkpt>
   <trkpt lat="53.5327610" lon="-113.5372540">
    <ele>633.6</ele>
    <time>2026-08-23T18:20:36Z</time>
   </trkpt>
   <trkpt lat="53.5327310" lon="-113.5371870">
    <ele>633.8</ele>
    <time>2026-08-23T18:20:37Z</time>
   </trkpt>
   <trkpt lat="53.5326960" lon="-113.5371300">
    <ele>634.1</ele>
    <time>2026-08-23T18:20:38Z</time>
   </trkpt>
   <trkpt lat="53.5326710" lon="-113.5370670">
    <ele>634.3</ele>
    <time>2026-08-23T18:20:39Z</time>
   </trkpt>
   <trkpt lat="53.5326330" lon="-113.5370070">
    <ele>634.6</ele>
    <time>2026-08-23T18:20:40Z</time>
   </trkpt>
   <trkpt lat="53.5326020" lon="-113.5369460">
    <ele>634.8</ele>
    <time>2026-08-23T18:20:41Z</time>
   </trkpt>
   <trkpt lat="53.5325800" lon="-113.5368690">
    <ele>635.0</ele>
    <time>2026-08-23T18:20:42Z</time>
   </trkpt>
   <trkpt lat="53.5325460" lon="-113.5368050">
    <ele>635.2</ele>
    <time>2026-08-23T18:20:43Z</time>
   </trkpt>
   <trkpt lat="53.5325230" lon="-113.5367320">
    <ele>635.4</ele>
    <time>2026-08-23T18:20:44Z</time>
   </trkpt>
   <trkpt lat="53.5325040" lon="-113.5366470">
    <ele>635.6</ele>
    <time>2026-08-23T18:20:45Z</time>
   </trkpt>
   <trkpt lat="53.5324880" lon="-113.5365750">
    <ele>635.8</ele>
    <time>2026-08-23T18:20:46Z</time>
   </trkpt>
   <trkpt lat="53.5324770" lon="-113.5364910">
    <ele>636.0</ele>
    <time>2026-08-23T18:20:47Z</time>
   </trkpt>
   <trkpt lat="53.5324710" lon="-113.5364050">
    <ele>636.3</ele>
    <time>2026-08-23T18:20:48Z</time>
   </trkpt>
   <trkpt lat="53.5324650" lon="-113.5363630">
    <ele>636.5</ele>
    <time>2026-08-23T18:20:49Z</time>
   </trkpt>
   <trkpt lat="53.5324590" lon="-113.5363210">
    <ele>636.6</ele>
    <time>2026-08-23T18:20:50Z</time>
   </trkpt>
   <trkpt lat="53.5324630" lon="-113.5362970">
    <ele>636.7</ele>
    <time>2026-08-23T18:20:51Z</time>
   </trkpt>
   <trkpt lat="53.5324800" lon="-113.5362570">
    <ele>636.8</ele>
    <time>2026-08-23T18:20:52Z</time>
   </trkpt>
   <trkpt lat="53.5324980" lon="-113.5362080">
    <ele>637.0</ele>
    <time>2026-08-23T18:20:53Z</time>
   </trkpt>
   <trkpt lat="53.5324800" lon="-113.5361460">
    <ele>637.2</ele>
    <time>2026-08-23T18:20:54Z</time>
   </trkpt>
   <trkpt lat="53.5324700" lon="-113.5361180">
    <ele>637.3</ele>
    <time>2026-08-23T18:20:55Z</time>
   </trkpt>
   <trkpt lat="53.5324440" lon="-113.5359870">
    <ele>637.6</ele>
    <time>2026-08-23T18:20:56Z</time>
   </trkpt>
   <trkpt lat="53.5324440" lon="-113.5359470">
    <ele>637.6</ele>
    <time>2026-08-23T18:20:57Z</time>
   </trkpt>
   <trkpt lat="53.5324440" lon="-113.5358950">
    <ele>637.7</ele>
    <time>2026-08-23T18:20:58Z</time>
   </trkpt>
   <trkpt lat="53.5324380" lon="-113.5358280">
    <ele>637.8</ele>
    <time>2026-08-23T18:20:59Z</time>
   </trkpt>
   <trkpt lat="53.5324360" lon="-113.5357670">
    <ele>637.9</ele>
    <time>2026-08-23T18:21:00Z</time>
   </trkpt>
   <trkpt lat="53.5324330" lon="-113.5357190">
    <ele>638.1</ele>
    <time>2026-08-23T18:21:01Z</time>
   </trkpt>
   <trkpt lat="53.5324050" lon="-113.5356590">
    <ele>638.6</ele>
    <time>2026-08-23T18:21:02Z</time>
   </trkpt>
   <trkpt lat="53.5324240" lon="-113.5356020">
    <ele>639.0</ele>
    <time>2026-08-23T18:21:03Z</time>
   </trkpt>
   <trkpt lat="53.5324140" lon="-113.5355430">
    <ele>639.3</ele>
    <time>2026-08-23T18:21:04Z</time>
   </trkpt>
   <trkpt lat="53.5323810" lon="-113.5354770">
    <ele>639.9</ele>
    <time>2026-08-23T18:21:05Z</time>
   </trkpt>
   <trkpt lat="53.5323840" lon="-113.5354260">
    <ele>640.2</ele>
    <time>2026-08-23T18:21:06Z</time>
   </trkpt>
   <trkpt lat="53.5323740" lon="-113.5353770">
    <ele>640.5</ele>
    <time>2026-08-23T18:21:07Z</time>
   </trkpt>
   <trkpt lat="53.5323660" lon="-113.5352930">
    <ele>641.0</ele>
    <time>2026-08-23T18:21:08Z</time>
   </trkpt>
   <trkpt lat="53.5323720" lon="-113.5352590">
    <ele>641.2</ele>
    <time>2026-08-23T18:21:09Z</time>
   </trkpt>
   <trkpt lat="53.5323430" lon="-113.5351880">
    <ele>641.8</ele>
    <time>2026-08-23T18:21:10Z</time>
   </trkpt>
   <trkpt lat="53.5323320" lon="-113.5351270">
    <ele>642.2</ele>
    <time>2026-08-23T18:21:11Z</time>
   </trkpt>
   <trkpt lat="53.5323200" lon="-113.5350470">
    <ele>642.7</ele>
    <time>2026-08-23T18:21:12Z</time>
   </trkpt>
   <trkpt lat="53.5323000" lon="-113.5349800">
    <ele>643.2</ele>
    <time>2026-08-23T18:21:13Z</time>
   </trkpt>
   <trkpt lat="53.5322820" lon="-113.5349110">
    <ele>643.7</ele>
    <time>2026-08-23T18:21:14Z</time>
   </trkpt>
   <trkpt lat="53.5322690" lon="-113.5348270">
    <ele>644.3</ele>
    <time>2026-08-23T18:21:15Z</time>
   </trkpt>
   <trkpt lat="53.5322430" lon="-113.5347590">
    <ele>644.8</ele>
    <time>2026-08-23T18:21:16Z</time>
   </trkpt>
   <trkpt lat="53.5322200" lon="-113.5346850">
    <ele>645.4</ele>
    <time>2026-08-23T18:21:17Z</time>
   </trkpt>
   <trkpt lat="53.5322140" lon="-113.5346450">
    <ele>645.6</ele>
    <time>2026-08-23T18:21:18Z</time>
   </trkpt>
   <trkpt lat="53.5322080" lon="-113.5346050">
    <ele>645.9</ele>
    <time>2026-08-23T18:21:19Z</time>
   </trkpt>
   <trkpt lat="53.5321800" lon="-113.5345400">
    <ele>646.4</ele>
    <time>2026-08-23T18:21:20Z</time>
   </trkpt>
   <trkpt lat="53.5321590" lon="-113.5344740">
    <ele>646.9</ele>
    <time>2026-08-23T18:21:21Z</time>
   </trkpt>
   <trkpt lat="53.5321410" lon="-113.5344130">
    <ele>647.3</ele>
    <time>2026-08-23T18:21:22Z</time>
   </trkpt>
   <trkpt lat="53.5321180" lon="-113.5343480">
    <ele>647.7</ele>
    <time>2026-08-23T18:21:23Z</time>
   </trkpt>
   <trkpt lat="53.5321060" lon="-113.5342820">
    <ele>648.1</ele>
    <time>2026-08-23T18:21:24Z</time>
   </trkpt>
   <trkpt lat="53.5320860" lon="-113.5342230">
    <ele>648.5</ele>
    <time>2026-08-23T18:21:25Z</time>
   </trkpt>
   <trkpt lat="53.5320670" lon="-113.5341720">
    <ele>648.8</ele>
    <time>2026-08-23T18:21:26Z</time>
   </trkpt>
   <trkpt lat="53.5320510" lon="-113.5341180">
    <ele>649.1</ele>
    <time>2026-08-23T18:21:27Z</time>
   </trkpt>
   <trkpt lat="53.5320320" lon="-113.5340660">
    <ele>649.4</ele>
    <time>2026-08-23T18:21:28Z</time>
   </trkpt>
   <trkpt lat="53.5320210" lon="-113.5340090">
    <ele>649.8</ele>
    <time>2026-08-23T18:21:29Z</time>
   </trkpt>
   <trkpt lat="53.5320070" lon="-113.5339580">
    <ele>650.1</ele>
    <time>2026-08-23T18:21:30Z</time>
   </trkpt>
   <trkpt lat="53.5319780" lon="-113.5339220">
    <ele>650.4</ele>
    <time>2026-08-23T18:21:31Z</time>
   </trkpt>
   <trkpt lat="53.5319600" lon="-113.5338790">
    <ele>650.6</ele>
    <time>2026-08-23T18:21:32Z</time>
   </trkpt>
   <trkpt lat="53.5319440" lon="-113.5338310">
    <ele>650.9</ele>
    <time>2026-08-23T18:21:33Z</time>
   </trkpt>
   <trkpt lat="53.5319290" lon="-113.5337840">
    <ele>651.2</ele>
    <time>2026-08-23T18:21:34Z</time>
   </trkpt>
   <trkpt lat="53.5319100" lon="-113.5337390">
    <ele>651.5</ele>
    <time>2026-08-23T18:21:35Z</time>
   </trkpt>
   <trkpt lat="53.5318910" lon="-113.5336980">
    <ele>651.7</ele>
    <time>2026-08-23T18:21:36Z</time>
   </trkpt>
   <trkpt lat="53.5318660" lon="-113.5336570">
    <ele>652.0</ele>
    <time>2026-08-23T18:21:37Z</time>
   </trkpt>
   <trkpt lat="53.5318450" lon="-113.5336210">
    <ele>652.2</ele>
    <time>2026-08-23T18:21:38Z</time>
   </trkpt>
   <trkpt lat="53.5318270" lon="-113.5335700">
    <ele>652.5</ele>
    <time>2026-08-23T18:21:39Z</time>
   </trkpt>
   <trkpt lat="53.5318050" lon="-113.5335360">
    <ele>652.8</ele>
    <time>2026-08-23T18:21:40Z</time>
   </trkpt>
   <trkpt lat="53.5317860" lon="-113.5334940">
    <ele>653.0</ele>
    <time>2026-08-23T18:21:41Z</time>
   </trkpt>
   <trkpt lat="53.5317670" lon="-113.5334540">
    <ele>653.3</ele>
    <time>2026-08-23T18:21:42Z</time>
   </trkpt>
   <trkpt lat="53.5317460" lon="-113.5334150">
    <ele>653.6</ele>
    <time>2026-08-23T18:21:43Z</time>
   </trkpt>
   <trkpt lat="53.5317230" lon="-113.5333790">
    <ele>653.8</ele>
    <time>2026-08-23T18:21:44Z</time>
   </trkpt>
   <trkpt lat="53.5316960" lon="-113.5333450">
    <ele>654.1</ele>
    <time>2026-08-23T18:21:45Z</time>
   </trkpt>
   <trkpt lat="53.5316710" lon="-113.5333120">
    <ele>654.3</ele>
    <time>2026-08-23T18:21:46Z</time>
   </trkpt>
   <trkpt lat="53.5316490" lon="-113.5332660">
    <ele>654.6</ele>
    <time>2026-08-23T18:21:47Z</time>
   </trkpt>
   <trkpt lat="53.5316330" lon="-113.5332130">
    <ele>654.9</ele>
    <time>2026-08-23T18:21:48Z</time>
   </trkpt>
   <trkpt lat="53.5316110" lon="-113.5331700">
    <ele>655.2</ele>
    <time>2026-08-23T18:21:49Z</time>
   </trkpt>
   <trkpt lat="53.5315870" lon="-113.5331280">
    <ele>655.4</ele>
    <time>2026-08-23T18:21:50Z</time>
   </trkpt>
   <trkpt lat="53.5315660" lon="-113.5330900">
    <ele>655.7</ele>
    <time>2026-08-23T18:21:51Z</time>
   </trkpt>
   <trkpt lat="53.5315360" lon="-113.5330570">
    <ele>656.0</ele>
    <time>2026-08-23T18:21:52Z</time>
   </trkpt>
   <trkpt lat="53.5315100" lon="-113.5330220">
    <ele>656.2</ele>
    <time>2026-08-23T18:21:53Z</time>
   </trkpt>
   <trkpt lat="53.5314870" lon="-113.5329850">
    <ele>656.5</ele>
    <time>2026-08-23T18:21:54Z</time>
   </trkpt>
   <trkpt lat="53.5314470" lon="-113.5328970">
    <ele>657.0</ele>
    <time>2026-08-23T18:21:55Z</time>
   </trkpt>
   <trkpt lat="53.5314300" lon="-113.5328580">
    <ele>657.3</ele>
    <time>2026-08-23T18:21:56Z</time>
   </trkpt>
   <trkpt lat="53.5314110" lon="-113.5328080">
    <ele>657.6</ele>
    <time>2026-08-23T18:21:57Z</time>
   </trkpt>
   <trkpt lat="53.5313900" lon="-113.5327740">
    <ele>657.8</ele>
    <time>2026-08-23T18:21:58Z</time>
   </trkpt>
   <trkpt lat="53.5313640" lon="-113.5327390">
    <ele>658.1</ele>
    <time>2026-08-23T18:21:59Z</time>
   </trkpt>
   <trkpt lat="53.5313380" lon="-113.5327020">
    <ele>658.4</ele>
    <time>2026-08-23T18:22:00Z</time>
   </trkpt>
   <trkpt lat="53.5313150" lon="-113.5326630">
    <ele>658.7</ele>
    <time>2026-08-23T18:22:01Z</time>
   </trkpt>
   <trkpt lat="53.5312980" lon="-113.5326200">
    <ele>659.0</ele>
    <time>2026-08-23T18:22:02Z</time>
   </trkpt>
   <trkpt lat="53.5312830" lon="-113.5325740">
    <ele>659.3</ele>
    <time>2026-08-23T18:22:03Z</time>
   </trkpt>
   <trkpt lat="53.5312610" lon="-113.5325330">
    <ele>659.6</ele>
    <time>2026-08-23T18:22:04Z</time>
   </trkpt>
   <trkpt lat="53.5312480" lon="-113.5324880">
    <ele>659.8</ele>
    <time>2026-08-23T18:22:05Z</time>
   </trkpt>
   <trkpt lat="53.5312340" lon="-113.5324450">
    <ele>660.1</ele>
    <time>2026-08-23T18:22:06Z</time>
   </trkpt>
   <trkpt lat="53.5312290" lon="-113.5323930">
    <ele>660.4</ele>
    <time>2026-08-23T18:22:07Z</time>
   </trkpt>
   <trkpt lat="53.5312160" lon="-113.5323430">
    <ele>660.7</ele>
    <time>2026-08-23T18:22:08Z</time>
   </trkpt>
   <trkpt lat="53.5312020" lon="-113.5322980">
    <ele>660.9</ele>
    <time>2026-08-23T18:22:09Z</time>
   </trkpt>
   <trkpt lat="53.5311810" lon="-113.5322510">
    <ele>661.3</ele>
    <time>2026-08-23T18:22:10Z</time>
   </trkpt>
   <trkpt lat="53.5311690" lon="-113.5322030">
    <ele>661.5</ele>
    <time>2026-08-23T18:22:11Z</time>
   </trkpt>
   <trkpt lat="53.5311550" lon="-113.5321490">
    <ele>661.8</ele>
    <time>2026-08-23T18:22:12Z</time>
   </trkpt>
   <trkpt lat="53.5311390" lon="-113.5320980">
    <ele>662.1</ele>
    <time>2026-08-23T18:22:13Z</time>
   </trkpt>
   <trkpt lat="53.5311260" lon="-113.5320410">
    <ele>662.4</ele>
    <time>2026-08-23T18:22:14Z</time>
   </trkpt>
   <trkpt lat="53.5311190" lon="-113.5319870">
    <ele>662.7</ele>
    <time>2026-08-23T18:22:15Z</time>
   </trkpt>
   <trkpt lat="53.5311050" lon="-113.5319380">
    <ele>663.0</ele>
    <time>2026-08-23T18:22:16Z</time>
   </trkpt>
   <trkpt lat="53.5310910" lon="-113.5318830">
    <ele>663.3</ele>
    <time>2026-08-23T18:22:17Z</time>
   </trkpt>
   <trkpt lat="53.5310830" lon="-113.5318300">
    <ele>663.5</ele>
    <time>2026-08-23T18:22:18Z</time>
   </trkpt>
   <trkpt lat="53.5310730" lon="-113.5317840">
    <ele>663.7</ele>
    <time>2026-08-23T18:22:19Z</time>
   </trkpt>
   <trkpt lat="53.5310690" lon="-113.5317290">
    <ele>663.9</ele>
    <time>2026-08-23T18:22:20Z</time>
   </trkpt>
   <trkpt lat="53.5310620" lon="-113.5316760">
    <ele>664.2</ele>
    <time>2026-08-23T18:22:21Z</time>
   </trkpt>
   <trkpt lat="53.5310560" lon="-113.5316290">
    <ele>664.3</ele>
    <time>2026-08-23T18:22:22Z</time>
   </trkpt>
   <trkpt lat="53.5310420" lon="-113.5315810">
    <ele>664.5</ele>
    <time>2026-08-23T18:22:23Z</time>
   </trkpt>
   <trkpt lat="53.5310330" lon="-113.5315300">
    <ele>664.7</ele>
    <time>2026-08-23T18:22:24Z</time>
   </trkpt>
   <trkpt lat="53.5310230" lon="-113.5314800">
    <ele>664.9</ele>
    <time>2026-08-23T18:22:25Z</time>
   </trkpt>
   <trkpt lat="53.5310190" lon="-113.5314290">
    <ele>665.0</ele>
    <time>2026-08-23T18:22:26Z</time>
   </trkpt>
   <trkpt lat="53.5310060" lon="-113.5313840">
    <ele>665.1</ele>
    <time>2026-08-23T18:22:27Z</time>
   </trkpt>
   <trkpt lat="53.5309910" lon="-113.5313420">
    <ele>665.2</ele>
    <time>2026-08-23T18:22:28Z</time>
   </trkpt>
   <trkpt lat="53.5309840" lon="-113.5313010">
    <ele>665.3</ele>
    <time>2026-08-23T18:22:29Z</time>
   </trkpt>
   <trkpt lat="53.5309730" lon="-113.5312540">
    <ele>665.4</ele>
    <time>2026-08-23T18:22:30Z</time>
   </trkpt>
   <trkpt lat="53.5309720" lon="-113.5312030">
    <ele>665.5</ele>
    <time>2026-08-23T18:22:31Z</time>
   </trkpt>
   <trkpt lat="53.5309680" lon="-113.5311500">
    <ele>665.5</ele>
    <time>2026-08-23T18:22:32Z</time>
   </trkpt>
   <trkpt lat="53.5309690" lon="-113.5310960">
    <ele>665.6</ele>
    <time>2026-08-23T18:22:33Z</time>
   </trkpt>
   <trkpt lat="53.5309600" lon="-113.5310460">
    <ele>665.6</ele>
    <time>2026-08-23T18:22:34Z</time>
   </trkpt>
   <trkpt lat="53.5309460" lon="-113.5309900">
    <ele>665.7</ele>
    <time>2026-08-23T18:22:35Z</time>
   </trkpt>
   <trkpt lat="53.5309340" lon="-113.5309390">
    <ele>665.7</ele>
    <time>2026-08-23T18:22:36Z</time>
   </trkpt>
   <trkpt lat="53.5309230" lon="-113.5308820">
    <ele>665.8</ele>
    <time>2026-08-23T18:22:37Z</time>
   </trkpt>
   <trkpt lat="53.5309130" lon="-113.5308220">
    <ele>666.0</ele>
    <time>2026-08-23T18:22:38Z</time>
   </trkpt>
   <trkpt lat="53.5309020" lon="-113.5307650">
    <ele>666.1</ele>
    <time>2026-08-23T18:22:39Z</time>
   </trkpt>
   <trkpt lat="53.5309020" lon="-113.5307070">
    <ele>666.2</ele>
    <time>2026-08-23T18:22:40Z</time>
   </trkpt>
   <trkpt lat="53.5309040" lon="-113.5306480">
    <ele>666.3</ele>
    <time>2026-08-23T18:22:41Z</time>
   </trkpt>
   <trkpt lat="53.5308960" lon="-113.5305900">
    <ele>666.4</ele>
    <time>2026-08-23T18:22:42Z</time>
   </trkpt>
   <trkpt lat="53.5308770" lon="-113.5305060">
    <ele>666.5</ele>
    <time>2026-08-23T18:22:43Z</time>
   </trkpt>
   <trkpt lat="53.5308550" lon="-113.5304250">
    <ele>666.6</ele>
    <time>2026-08-23T18:22:44Z</time>
   </trkpt>
   <trkpt lat="53.5308370" lon="-113.5303400">
    <ele>666.6</ele>
    <time>2026-08-23T18:22:45Z</time>
   </trkpt>
   <trkpt lat="53.5308260" lon="-113.5302570">
    <ele>666.6</ele>
    <time>2026-08-23T18:22:46Z</time>
   </trkpt>
   <trkpt lat="53.5308090" lon="-113.5301750">
    <ele>666.7</ele>
    <time>2026-08-23T18:22:47Z</time>
   </trkpt>
   <trkpt lat="53.5308100" lon="-113.5301110">
    <ele>666.7</ele>
    <time>2026-08-23T18:22:48Z</time>
   </trkpt>
   <trkpt lat="53.5308030" lon="-113.5300470">
    <ele>666.7</ele>
    <time>2026-08-23T18:22:49Z</time>
   </trkpt>
   <trkpt lat="53.5307880" lon="-113.5299950">
    <ele>666.7</ele>
    <time>2026-08-23T18:22:50Z</time>
   </trkpt>
   <trkpt lat="53.5307800" lon="-113.5299410">
    <ele>666.7</ele>
    <time>2026-08-23T18:22:51Z</time>
   </trkpt>
   <trkpt lat="53.5307800" lon="-113.5298790">
    <ele>666.7</ele>
    <time>2026-08-23T18:22:52Z</time>
   </trkpt>
   <trkpt lat="53.5307610" lon="-113.5298180">
    <ele>666.8</ele>
    <time>2026-08-23T18:22:53Z</time>
   </trkpt>
   <trkpt lat="53.5307450" lon="-113.5297510">
    <ele>666.8</ele>
    <time>2026-08-23T18:22:54Z</time>
   </trkpt>
   <trkpt lat="53.5307440" lon="-113.5296840">
    <ele>666.8</ele>
    <time>2026-08-23T18:22:55Z</time>
   </trkpt>
   <trkpt lat="53.5307200" lon="-113.5296230">
    <ele>666.8</ele>
    <time>2026-08-23T18:22:56Z</time>
   </trkpt>
   <trkpt lat="53.5306190" lon="-113.5291820">
    <ele>667.0</ele>
    <time>2026-08-23T18:22:57Z</time>
   </trkpt>
   <trkpt lat="53.5306050" lon="-113.5291190">
    <ele>667.1</ele>
    <time>2026-08-23T18:22:58Z</time>
   </trkpt>
   <trkpt lat="53.5305810" lon="-113.5290550">
    <ele>667.1</ele>
    <time>2026-08-23T18:22:59Z</time>
   </trkpt>
   <trkpt lat="53.5305670" lon="-113.5289800">
    <ele>667.1</ele>
    <time>2026-08-23T18:23:00Z</time>
   </trkpt>
   <trkpt lat="53.5305380" lon="-113.5289150">
    <ele>667.2</ele>
    <time>2026-08-23T18:23:01Z</time>
   </trkpt>
   <trkpt lat="53.5305320" lon="-113.5288280">
    <ele>667.2</ele>
    <time>2026-08-23T18:23:02Z</time>
   </trkpt>
   <trkpt lat="53.5305030" lon="-113.5287720">
    <ele>667.2</ele>
    <time>2026-08-23T18:23:03Z</time>
   </trkpt>
   <trkpt lat="53.5304920" lon="-113.5286840">
    <ele>667.3</ele>
    <time>2026-08-23T18:23:04Z</time>
   </trkpt>
   <trkpt lat="53.5304690" lon="-113.5286210">
    <ele>667.3</ele>
    <time>2026-08-23T18:23:05Z</time>
   </trkpt>
   <trkpt lat="53.5304590" lon="-113.5285420">
    <ele>667.4</ele>
    <time>2026-08-23T18:23:06Z</time>
   </trkpt>
   <trkpt lat="53.5304370" lon="-113.5284690">
    <ele>667.4</ele>
    <time>2026-08-23T18:23:07Z</time>
   </trkpt>
   <trkpt lat="53.5304090" lon="-113.5284040">
    <ele>667.5</ele>
    <time>2026-08-23T18:23:08Z</time>
   </trkpt>
   <trkpt lat="53.5304050" lon="-113.5283150">
    <ele>667.5</ele>
    <time>2026-08-23T18:23:09Z</time>
   </trkpt>
   <trkpt lat="53.5303890" lon="-113.5282410">
    <ele>667.5</ele>
    <time>2026-08-23T18:23:10Z</time>
   </trkpt>
   <trkpt lat="53.5303630" lon="-113.5281730">
    <ele>667.6</ele>
    <time>2026-08-23T18:23:11Z</time>
   </trkpt>
   <trkpt lat="53.5303480" lon="-113.5281050">
    <ele>667.6</ele>
    <time>2026-08-23T18:23:12Z</time>
   </trkpt>
   <trkpt lat="53.5303320" lon="-113.5280280">
    <ele>667.6</ele>
    <time>2026-08-23T18:23:13Z</time>
   </trkpt>
   <trkpt lat="53.5303040" lon="-113.5280110">
    <ele>667.7</ele>
    <time>2026-08-23T18:23:14Z</time>
   </trkpt>
   <trkpt lat="53.5303230" lon="-113.5279910">
    <ele>667.7</ele>
    <time>2026-08-23T18:23:15Z</time>
   </trkpt>
   <trkpt lat="53.5302960" lon="-113.5279480">
    <ele>667.7</ele>
    <time>2026-08-23T18:23:16Z</time>
   </trkpt>
   <trkpt lat="53.5302910" lon="-113.5278410">
    <ele>667.7</ele>
    <time>2026-08-23T18:23:17Z</time>
   </trkpt>
   <trkpt lat="53.5302710" lon="-113.5278070">
    <ele>667.8</ele>
    <time>2026-08-23T18:23:18Z</time>
   </trkpt>
   <trkpt lat="53.5302700" lon="-113.5277480">
    <ele>667.8</ele>
    <time>2026-08-23T18:23:19Z</time>
   </trkpt>
   <trkpt lat="53.5302420" lon="-113.5277130">
    <ele>667.8</ele>
    <time>2026-08-23T18:23:20Z</time>
   </trkpt>
   <trkpt lat="53.5302250" lon="-113.5276570">
    <ele>667.8</ele>
    <time>2026-08-23T18:23:21Z</time>
   </trkpt>
   <trkpt lat="53.5302260" lon="-113.5276020">
    <ele>667.8</ele>
    <time>2026-08-23T18:23:22Z</time>
   </trkpt>
   <trkpt lat="53.5302110" lon="-113.5275390">
    <ele>667.8</ele>
    <time>2026-08-23T18:23:23Z</time>
   </trkpt>
   <trkpt lat="53.5301890" lon="-113.5274950">
    <ele>667.8</ele>
    <time>2026-08-23T18:23:24Z</time>
   </trkpt>
   <trkpt lat="53.5301910" lon="-113.5274310">
    <ele>667.8</ele>
    <time>2026-08-23T18:23:25Z</time>
   </trkpt>
   <trkpt lat="53.5301770" lon="-113.5273870">
    <ele>667.9</ele>
    <time>2026-08-23T18:23:26Z</time>
   </trkpt>
   <trkpt lat="53.5301860" lon="-113.5273240">
    <ele>667.9</ele>
    <time>2026-08-23T18:23:27Z</time>
   </trkpt>
   <trkpt lat="53.5301870" lon="-113.5272700">
    <ele>667.9</ele>
    <time>2026-08-23T18:23:28Z</time>
   </trkpt>
   <trkpt lat="53.5301760" lon="-113.5272090">
    <ele>667.9</ele>
    <time>2026-08-23T18:23:29Z</time>
   </trkpt>
   <trkpt lat="53.5301630" lon="-113.5271590">
    <ele>667.9</ele>
    <time>2026-08-23T18:23:30Z</time>
   </trkpt>
   <trkpt lat="53.5301660" lon="-113.5271070">
    <ele>667.9</ele>
    <time>2026-08-23T18:23:31Z</time>
   </trkpt>
   <trkpt lat="53.5301680" lon="-113.5270580">
    <ele>667.9</ele>
    <time>2026-08-23T18:23:32Z</time>
   </trkpt>
   <trkpt lat="53.5301640" lon="-113.5270110">
    <ele>667.9</ele>
    <time>2026-08-23T18:23:33Z</time>
   </trkpt>
   <trkpt lat="53.5301680" lon="-113.5269660">
    <ele>667.9</ele>
    <time>2026-08-23T18:23:34Z</time>
   </trkpt>
   <trkpt lat="53.5301650" lon="-113.5269220">
    <ele>667.9</ele>
    <time>2026-08-23T18:23:35Z</time>
   </trkpt>
   <trkpt lat="53.5301780" lon="-113.5268750">
    <ele>667.9</ele>
    <time>2026-08-23T18:23:36Z</time>
   </trkpt>
   <trkpt lat="53.5301740" lon="-113.5268330">
    <ele>667.9</ele>
    <time>2026-08-23T18:23:37Z</time>
   </trkpt>
   <trkpt lat="53.5301710" lon="-113.5267940">
    <ele>667.9</ele>
    <time>2026-08-23T18:23:38Z</time>
   </trkpt>
   <trkpt lat="53.5301710" lon="-113.5267480">
    <ele>667.9</ele>
    <time>2026-08-23T18:23:39Z</time>
   </trkpt>
   <trkpt lat="53.5301620" lon="-113.5267060">
    <ele>667.8</ele>
    <time>2026-08-23T18:23:40Z</time>
   </trkpt>
   <trkpt lat="53.5301630" lon="-113.5266670">
    <ele>667.8</ele>
    <time>2026-08-23T18:23:41Z</time>
   </trkpt>
   <trkpt lat="53.5301630" lon="-113.5266290">
    <ele>667.8</ele>
    <time>2026-08-23T18:23:42Z</time>
   </trkpt>
   <trkpt lat="53.5301290" lon="-113.5265990">
    <ele>667.8</ele>
    <time>2026-08-23T18:23:43Z</time>
   </trkpt>
   <trkpt lat="53.5301430" lon="-113.5265520">
    <ele>667.8</ele>
    <time>2026-08-23T18:23:44Z</time>
   </trkpt>
   <trkpt lat="53.5301440" lon="-113.5265160">
    <ele>667.8</ele>
    <time>2026-08-23T18:23:45Z</time>
   </trkpt>
   <trkpt lat="53.5298300" lon="-113.5251880">
    <ele>667.3</ele>
    <time>2026-08-23T18:23:46Z</time>
   </trkpt>
   <trkpt lat="53.5298080" lon="-113.5250960">
    <ele>667.3</ele>
    <time>2026-08-23T18:23:47Z</time>
   </trkpt>
   <trkpt lat="53.5297930" lon="-113.5250010">
    <ele>667.3</ele>
    <time>2026-08-23T18:23:48Z</time>
   </trkpt>
   <trkpt lat="53.5297810" lon="-113.5249030">
    <ele>667.2</ele>
    <time>2026-08-23T18:23:49Z</time>
   </trkpt>
   <trkpt lat="53.5297630" lon="-113.5248070">
    <ele>667.2</ele>
    <time>2026-08-23T18:23:50Z</time>
   </trkpt>
   <trkpt lat="53.5297380" lon="-113.5247110">
    <ele>667.2</ele>
    <time>2026-08-23T18:23:51Z</time>
   </trkpt>
   <trkpt lat="53.5297250" lon="-113.5246130">
    <ele>667.2</ele>
    <time>2026-08-23T18:23:52Z</time>
   </trkpt>
   <trkpt lat="53.5297040" lon="-113.5245200">
    <ele>667.2</ele>
    <time>2026-08-23T18:23:53Z</time>
   </trkpt>
   <trkpt lat="53.5296790" lon="-113.5244280">
    <ele>667.2</ele>
    <time>2026-08-23T18:23:54Z</time>
   </trkpt>
   <trkpt lat="53.5296530" lon="-113.5243380">
    <ele>667.2</ele>
    <time>2026-08-23T18:23:55Z</time>
   </trkpt>
   <trkpt lat="53.5296250" lon="-113.5242620">
    <ele>667.2</ele>
    <time>2026-08-23T18:23:56Z</time>
   </trkpt>
   <trkpt lat="53.5296060" lon="-113.5241430">
    <ele>667.3</ele>
    <time>2026-08-23T18:23:57Z</time>
   </trkpt>
   <trkpt lat="53.5295680" lon="-113.5240740">
    <ele>667.3</ele>
    <time>2026-08-23T18:23:58Z</time>
   </trkpt>
   <trkpt lat="53.5295380" lon="-113.5239900">
    <ele>667.4</ele>
    <time>2026-08-23T18:23:59Z</time>
   </trkpt>
   <trkpt lat="53.5295080" lon="-113.5239020">
    <ele>667.4</ele>
    <time>2026-08-23T18:24:00Z</time>
   </trkpt>
   <trkpt lat="53.5294810" lon="-113.5238100">
    <ele>667.5</ele>
    <time>2026-08-23T18:24:01Z</time>
   </trkpt>
   <trkpt lat="53.5294540" lon="-113.5237270">
    <ele>667.6</ele>
    <time>2026-08-23T18:24:02Z</time>
   </trkpt>
   <trkpt lat="53.5294210" lon="-113.5236500">
    <ele>667.6</ele>
    <time>2026-08-23T18:24:03Z</time>
   </trkpt>
   <trkpt lat="53.5293890" lon="-113.5235720">
    <ele>667.7</ele>
    <time>2026-08-23T18:24:04Z</time>
   </trkpt>
   <trkpt lat="53.5293580" lon="-113.5235010">
    <ele>667.7</ele>
    <time>2026-08-23T18:24:05Z</time>
   </trkpt>
   <trkpt lat="53.5294630" lon="-113.5238660">
    <ele>667.9</ele>
    <time>2026-08-23T18:24:06Z</time>
   </trkpt>
   <trkpt lat="53.5294020" lon="-113.5236790">
    <ele>668.0</ele>
    <time>2026-08-23T18:24:07Z</time>
   </trkpt>
   <trkpt lat="53.5293450" lon="-113.5235190">
    <ele>668.1</ele>
    <time>2026-08-23T18:24:08Z</time>
   </trkpt>
   <trkpt lat="53.5294980" lon="-113.5240990">
    <ele>668.3</ele>
    <time>2026-08-23T18:24:09Z</time>
   </trkpt>
   <trkpt lat="53.5294600" lon="-113.5239950">
    <ele>668.3</ele>
    <time>2026-08-23T18:24:10Z</time>
   </trkpt>
   <trkpt lat="53.5294230" lon="-113.5238830">
    <ele>668.4</ele>
    <time>2026-08-23T18:24:11Z</time>
   </trkpt>
   <trkpt lat="53.5293820" lon="-113.5237560">
    <ele>668.4</ele>
    <time>2026-08-23T18:24:12Z</time>
   </trkpt>
   <trkpt lat="53.5293860" lon="-113.5237160">
    <ele>668.5</ele>
    <time>2026-08-23T18:24:13Z</time>
   </trkpt>
   <trkpt lat="53.5293750" lon="-113.5236380">
    <ele>668.5</ele>
    <time>2026-08-23T18:24:14Z</time>
   </trkpt>
   <trkpt lat="53.5293580" lon="-113.5235890">
    <ele>668.5</ele>
    <time>2026-08-23T18:24:15Z</time>
   </trkpt>
   <trkpt lat="53.5292840" lon="-113.5234950">
    <ele>668.6</ele>
    <time>2026-08-23T18:24:16Z</time>
   </trkpt>
   <trkpt lat="53.5293120" lon="-113.5234270">
    <ele>668.7</ele>
    <time>2026-08-23T18:24:17Z</time>
   </trkpt>
   <trkpt lat="53.5292410" lon="-113.5233690">
    <ele>668.7</ele>
    <time>2026-08-23T18:24:18Z</time>
   </trkpt>
   <trkpt lat="53.5292370" lon="-113.5233260">
    <ele>668.7</ele>
    <time>2026-08-23T18:24:19Z</time>
   </trkpt>
   <trkpt lat="53.5292090" lon="-113.5232230">
    <ele>668.8</ele>
    <time>2026-08-23T18:24:20Z</time>
   </trkpt>
   <trkpt lat="53.5292070" lon="-113.5231700">
    <ele>668.8</ele>
    <time>2026-08-23T18:24:21Z</time>
   </trkpt>
   <trkpt lat="53.5291940" lon="-113.5231030">
    <ele>668.8</ele>
    <time>2026-08-23T18:24:22Z</time>
   </trkpt>
   <trkpt lat="53.5291600" lon="-113.5230460">
    <ele>668.9</ele>
    <time>2026-08-23T18:24:23Z</time>
   </trkpt>
   <trkpt lat="53.5291460" lon="-113.5230190">
    <ele>668.9</ele>
    <time>2026-08-23T18:24:24Z</time>
   </trkpt>
   <trkpt lat="53.5291220" lon="-113.5229160">
    <ele>668.9</ele>
    <time>2026-08-23T18:24:25Z</time>
   </trkpt>
   <trkpt lat="53.5291140" lon="-113.5229000">
    <ele>668.9</ele>
    <time>2026-08-23T18:24:26Z</time>
   </trkpt>
   <trkpt lat="53.5291000" lon="-113.5228350">
    <ele>668.9</ele>
    <time>2026-08-23T18:24:27Z</time>
   </trkpt>
   <trkpt lat="53.5290920" lon="-113.5227600">
    <ele>669.0</ele>
    <time>2026-08-23T18:24:28Z</time>
   </trkpt>
   <trkpt lat="53.5290990" lon="-113.5227110">
    <ele>669.0</ele>
    <time>2026-08-23T18:24:29Z</time>
   </trkpt>
   <trkpt lat="53.5290970" lon="-113.5226550">
    <ele>669.0</ele>
    <time>2026-08-23T18:24:30Z</time>
   </trkpt>
   <trkpt lat="53.5290920" lon="-113.5226040">
    <ele>669.0</ele>
    <time>2026-08-23T18:24:31Z</time>
   </trkpt>
   <trkpt lat="53.5290580" lon="-113.5225660">
    <ele>669.0</ele>
    <time>2026-08-23T18:24:32Z</time>
   </trkpt>
   <trkpt lat="53.5290290" lon="-113.5225030">
    <ele>669.1</ele>
    <time>2026-08-23T18:24:33Z</time>
   </trkpt>
   <trkpt lat="53.5290310" lon="-113.5224570">
    <ele>669.1</ele>
    <time>2026-08-23T18:24:34Z</time>
   </trkpt>
   <trkpt lat="53.5290010" lon="-113.5223360">
    <ele>669.1</ele>
    <time>2026-08-23T18:24:35Z</time>
   </trkpt>
   <trkpt lat="53.5290250" lon="-113.5222860">
    <ele>669.1</ele>
    <time>2026-08-23T18:24:36Z</time>
   </trkpt>
   <trkpt lat="53.5290040" lon="-113.5222060">
    <ele>669.2</ele>
    <time>2026-08-23T18:24:37Z</time>
   </trkpt>
   <trkpt lat="53.5289850" lon="-113.5221410">
    <ele>669.2</ele>
    <time>2026-08-23T18:24:38Z</time>
   </trkpt>
   <trkpt lat="53.5289340" lon="-113.5221360">
    <ele>669.2</ele>
    <time>2026-08-23T18:24:39Z</time>
   </trkpt>
   <trkpt lat="53.5284040" lon="-113.5208070">
    <ele>669.7</ele>
    <time>2026-08-23T18:24:40Z</time>
   </trkpt>
   <trkpt lat="53.5283670" lon="-113.5207430">
    <ele>669.7</ele>
    <time>2026-08-23T18:24:41Z</time>
   </trkpt>
   <trkpt lat="53.5283310" lon="-113.5206720">
    <ele>669.7</ele>
    <time>2026-08-23T18:24:42Z</time>
   </trkpt>
   <trkpt lat="53.5282880" lon="-113.5206100">
    <ele>669.7</ele>
    <time>2026-08-23T18:24:43Z</time>
   </trkpt>
   <trkpt lat="53.5282580" lon="-113.5205350">
    <ele>669.7</ele>
    <time>2026-08-23T18:24:44Z</time>
   </trkpt>
   <trkpt lat="53.5282090" lon="-113.5204530">
    <ele>669.7</ele>
    <time>2026-08-23T18:24:45Z</time>
   </trkpt>
   <trkpt lat="53.5281840" lon="-113.5203890">
    <ele>669.7</ele>
    <time>2026-08-23T18:24:46Z</time>
   </trkpt>
   <trkpt lat="53.5281440" lon="-113.5203100">
    <ele>669.8</ele>
    <time>2026-08-23T18:24:47Z</time>
   </trkpt>
   <trkpt lat="53.5281030" lon="-113.5202420">
    <ele>669.7</ele>
    <time>2026-08-23T18:24:48Z</time>
   </trkpt>
   <trkpt lat="53.5280610" lon="-113.5201720">
    <ele>669.7</ele>
    <time>2026-08-23T18:24:49Z</time>
   </trkpt>
   <trkpt lat="53.5280180" lon="-113.5201060">
    <ele>669.7</ele>
    <time>2026-08-23T18:24:50Z</time>
   </trkpt>
   <trkpt lat="53.5279800" lon="-113.5200330">
    <ele>669.7</ele>
    <time>2026-08-23T18:24:51Z</time>
   </trkpt>
   <trkpt lat="53.5279480" lon="-113.5199390">
    <ele>669.7</ele>
    <time>2026-08-23T18:24:52Z</time>
   </trkpt>
   <trkpt lat="53.5279080" lon="-113.5198660">
    <ele>669.6</ele>
    <time>2026-08-23T18:24:53Z</time>
   </trkpt>
   <trkpt lat="53.5278670" lon="-113.5197900">
    <ele>669.6</ele>
    <time>2026-08-23T18:24:54Z</time>
   </trkpt>
   <trkpt lat="53.5278250" lon="-113.5197230">
    <ele>669.6</ele>
    <time>2026-08-23T18:24:55Z</time>
   </trkpt>
   <trkpt lat="53.5277890" lon="-113.5196350">
    <ele>669.6</ele>
    <time>2026-08-23T18:24:56Z</time>
   </trkpt>
   <trkpt lat="53.5277470" lon="-113.5195590">
    <ele>669.5</ele>
    <time>2026-08-23T18:24:57Z</time>
   </trkpt>
   <trkpt lat="53.5277060" lon="-113.5194790">
    <ele>669.5</ele>
    <time>2026-08-23T18:24:58Z</time>
   </trkpt>
   <trkpt lat="53.5276610" lon="-113.5194030">
    <ele>669.5</ele>
    <time>2026-08-23T18:24:59Z</time>
   </trkpt>
   <trkpt lat="53.5276150" lon="-113.5193430">
    <ele>669.4</ele>
    <time>2026-08-23T18:25:00Z</time>
   </trkpt>
   <trkpt lat="53.5275680" lon="-113.5192920">
    <ele>669.4</ele>
    <time>2026-08-23T18:25:01Z</time>
   </trkpt>
   <trkpt lat="53.5275220" lon="-113.5192270">
    <ele>669.3</ele>
    <time>2026-08-23T18:25:02Z</time>
   </trkpt>
   <trkpt lat="53.5274750" lon="-113.5191590">
    <ele>669.3</ele>
    <time>2026-08-23T18:25:03Z</time>
   </trkpt>
   <trkpt lat="53.5274250" lon="-113.5190960">
    <ele>669.2</ele>
    <time>2026-08-23T18:25:04Z</time>
   </trkpt>
   <trkpt lat="53.5273790" lon="-113.5190270">
    <ele>669.2</ele>
    <time>2026-08-23T18:25:05Z</time>
   </trkpt>
   <trkpt lat="53.5273370" lon="-113.5189530">
    <ele>669.1</ele>
    <time>2026-08-23T18:25:06Z</time>
   </trkpt>
   <trkpt lat="53.5272880" lon="-113.5188940">
    <ele>669.1</ele>
    <time>2026-08-23T18:25:07Z</time>
   </trkpt>
   <trkpt lat="53.5272460" lon="-113.5188160">
    <ele>669.1</ele>
    <time>2026-08-23T18:25:08Z</time>
   </trkpt>
   <trkpt lat="53.5272050" lon="-113.5187380">
    <ele>669.0</ele>
    <time>2026-08-23T18:25:09Z</time>
   </trkpt>
   <trkpt lat="53.5271570" lon="-113.5186700">
    <ele>669.0</ele>
    <time>2026-08-23T18:25:10Z</time>
   </trkpt>
   <trkpt lat="53.5271060" lon="-113.5186060">
    <ele>668.9</ele>
    <time>2026-08-23T18:25:11Z</time>
   </trkpt>
   <trkpt lat="53.5270630" lon="-113.5185280">
    <ele>668.9</ele>
    <time>2026-08-23T18:25:12Z</time>
   </trkpt>
   <trkpt lat="53.5270290" lon="-113.5184320">
    <ele>668.8</ele>
    <time>2026-08-23T18:25:13Z</time>
   </trkpt>
   <trkpt lat="53.5269910" lon="-113.5183460">
    <ele>668.7</ele>
    <time>2026-08-23T18:25:14Z</time>
   </trkpt>
   <trkpt lat="53.5269760" lon="-113.5182400">
    <ele>668.6</ele>
    <time>2026-08-23T18:25:15Z</time>
   </trkpt>
   <trkpt lat="53.5269510" lon="-113.5181390">
    <ele>668.5</ele>
    <time>2026-08-23T18:25:16Z</time>
   </trkpt>
   <trkpt lat="53.5269080" lon="-113.5180430">
    <ele>668.4</ele>
    <time>2026-08-23T18:25:17Z</time>
   </trkpt>
   <trkpt lat="53.5268660" lon="-113.5179610">
    <ele>668.4</ele>
    <time>2026-08-23T18:25:18Z</time>
   </trkpt>
   <trkpt lat="53.5268240" lon="-113.5178940">
    <ele>668.3</ele>
    <time>2026-08-23T18:25:19Z</time>
   </trkpt>
   <trkpt lat="53.5267680" lon="-113.5178340">
    <ele>668.3</ele>
    <time>2026-08-23T18:25:20Z</time>
   </trkpt>
   <trkpt lat="53.5267050" lon="-113.5177670">
    <ele>668.3</ele>
    <time>2026-08-23T18:25:21Z</time>
   </trkpt>
   <trkpt lat="53.5266690" lon="-113.5177030">
    <ele>668.3</ele>
    <time>2026-08-23T18:25:22Z</time>
   </trkpt>
   <trkpt lat="53.5266260" lon="-113.5176200">
    <ele>668.2</ele>
    <time>2026-08-23T18:25:23Z</time>
   </trkpt>
   <trkpt lat="53.5265870" lon="-113.5175370">
    <ele>668.1</ele>
    <time>2026-08-23T18:25:24Z</time>
   </trkpt>
   <trkpt lat="53.5265500" lon="-113.5174760">
    <ele>668.0</ele>
    <time>2026-08-23T18:25:25Z</time>
   </trkpt>
   <trkpt lat="53.5265280" lon="-113.5173890">
    <ele>667.8</ele>
    <time>2026-08-23T18:25:26Z</time>
   </trkpt>
   <trkpt lat="53.5264960" lon="-113.5173000">
    <ele>667.7</ele>
    <time>2026-08-23T18:25:27Z</time>
   </trkpt>
   <trkpt lat="53.5264760" lon="-113.5171900">
    <ele>667.7</ele>
    <time>2026-08-23T18:25:28Z</time>
   </trkpt>
   <trkpt lat="53.5264420" lon="-113.5171080">
    <ele>667.7</ele>
    <time>2026-08-23T18:25:29Z</time>
   </trkpt>
   <trkpt lat="53.5264280" lon="-113.5170130">
    <ele>667.8</ele>
    <time>2026-08-23T18:25:30Z</time>
   </trkpt>
   <trkpt lat="53.5264260" lon="-113.5169220">
    <ele>667.9</ele>
    <time>2026-08-23T18:25:31Z</time>
   </trkpt>
   <trkpt lat="53.5264520" lon="-113.5168340">
    <ele>667.3</ele>
    <time>2026-08-23T18:25:32Z</time>
   </trkpt>
   <trkpt lat="53.5265020" lon="-113.5167660">
    <ele>666.8</ele>
    <time>2026-08-23T18:25:33Z</time>
   </trkpt>
   <trkpt lat="53.5265600" lon="-113.5167510">
    <ele>666.4</ele>
    <time>2026-08-23T18:25:34Z</time>
   </trkpt>
   <trkpt lat="53.5265920" lon="-113.5167790">
    <ele>666.1</ele>
    <time>2026-08-23T18:25:35Z</time>
   </trkpt>
   <trkpt lat="53.5266200" lon="-113.5169060">
    <ele>665.4</ele>
    <time>2026-08-23T18:25:36Z</time>
   </trkpt>
   <trkpt lat="53.5266120" lon="-113.5170170">
    <ele>664.8</ele>
    <time>2026-08-23T18:25:37Z</time>
   </trkpt>
   <trkpt lat="53.5265890" lon="-113.5171230">
    <ele>664.1</ele>
    <time>2026-08-23T18:25:38Z</time>
   </trkpt>
   <trkpt lat="53.5265960" lon="-113.5172240">
    <ele>663.4</ele>
    <time>2026-08-23T18:25:39Z</time>
   </trkpt>
   <trkpt lat="53.5266240" lon="-113.5172840">
    <ele>662.9</ele>
    <time>2026-08-23T18:25:40Z</time>
   </trkpt>
   <trkpt lat="53.5266700" lon="-113.5172500">
    <ele>662.2</ele>
    <time>2026-08-23T18:25:41Z</time>
   </trkpt>
   <trkpt lat="53.5266880" lon="-113.5171770">
    <ele>661.6</ele>
    <time>2026-08-23T18:25:42Z</time>
   </trkpt>
   <trkpt lat="53.5267310" lon="-113.5171040">
    <ele>660.9</ele>
    <time>2026-08-23T18:25:43Z</time>
   </trkpt>
   <trkpt lat="53.5267590" lon="-113.5170200">
    <ele>660.2</ele>
    <time>2026-08-23T18:25:44Z</time>
   </trkpt>
   <trkpt lat="53.5267960" lon="-113.5168940">
    <ele>659.2</ele>
    <time>2026-08-23T18:25:45Z</time>
   </trkpt>
   <trkpt lat="53.5268120" lon="-113.5167560">
    <ele>658.3</ele>
    <time>2026-08-23T18:25:46Z</time>
   </trkpt>
   <trkpt lat="53.5267920" lon="-113.5166360">
    <ele>657.5</ele>
    <time>2026-08-23T18:25:47Z</time>
   </trkpt>
   <trkpt lat="53.5267800" lon="-113.5165270">
    <ele>656.9</ele>
    <time>2026-08-23T18:25:48Z</time>
   </trkpt>
   <trkpt lat="53.5267620" lon="-113.5164150">
    <ele>656.2</ele>
    <time>2026-08-23T18:25:49Z</time>
   </trkpt>
   <trkpt lat="53.5267600" lon="-113.5163430">
    <ele>655.8</ele>
    <time>2026-08-23T18:25:50Z</time>
   </trkpt>
   <trkpt lat="53.5267560" lon="-113.5162440">
    <ele>655.2</ele>
    <time>2026-08-23T18:25:51Z</time>
   </trkpt>
   <trkpt lat="53.5267680" lon="-113.5161500">
    <ele>654.7</ele>
    <time>2026-08-23T18:25:52Z</time>
   </trkpt>
   <trkpt lat="53.5267720" lon="-113.5160440">
    <ele>654.2</ele>
    <time>2026-08-23T18:25:53Z</time>
   </trkpt>
   <trkpt lat="53.5267530" lon="-113.5159230">
    <ele>653.7</ele>
    <time>2026-08-23T18:25:54Z</time>
   </trkpt>
   <trkpt lat="53.5267550" lon="-113.5158280">
    <ele>653.3</ele>
    <time>2026-08-23T18:25:55Z</time>
   </trkpt>
   <trkpt lat="53.5267090" lon="-113.5156940">
    <ele>652.7</ele>
    <time>2026-08-23T18:25:56Z</time>
   </trkpt>
   <trkpt lat="53.5266750" lon="-113.5155800">
    <ele>652.1</ele>
    <time>2026-08-23T18:25:57Z</time>
   </trkpt>
   <trkpt lat="53.5266490" lon="-113.5154590">
    <ele>651.5</ele>
    <time>2026-08-23T18:25:58Z</time>
   </trkpt>
   <trkpt lat="53.5266320" lon="-113.5153360">
    <ele>651.0</ele>
    <time>2026-08-23T18:25:59Z</time>
   </trkpt>
   <trkpt lat="53.5266250" lon="-113.5152200">
    <ele>650.4</ele>
    <time>2026-08-23T18:26:00Z</time>
   </trkpt>
   <trkpt lat="53.5266220" lon="-113.5151240">
    <ele>650.0</ele>
    <time>2026-08-23T18:26:01Z</time>
   </trkpt>
   <trkpt lat="53.5266450" lon="-113.5150480">
    <ele>649.5</ele>
    <time>2026-08-23T18:26:02Z</time>
   </trkpt>
   <trkpt lat="53.5267400" lon="-113.5150330">
    <ele>648.9</ele>
    <time>2026-08-23T18:26:03Z</time>
   </trkpt>
   <trkpt lat="53.5268160" lon="-113.5150430">
    <ele>648.5</ele>
    <time>2026-08-23T18:26:04Z</time>
   </trkpt>
   <trkpt lat="53.5268890" lon="-113.5150620">
    <ele>648.1</ele>
    <time>2026-08-23T18:26:05Z</time>
   </trkpt>
   <trkpt lat="53.5269640" lon="-113.5150870">
    <ele>647.7</ele>
    <time>2026-08-23T18:26:06Z</time>
   </trkpt>
   <trkpt lat="53.5270250" lon="-113.5150980">
    <ele>647.3</ele>
    <time>2026-08-23T18:26:07Z</time>
   </trkpt>
   <trkpt lat="53.5270950" lon="-113.5150930">
    <ele>646.8</ele>
    <time>2026-08-23T18:26:08Z</time>
   </trkpt>
   <trkpt lat="53.5271670" lon="-113.5151080">
    <ele>646.2</ele>
    <time>2026-08-23T18:26:09Z</time>
   </trkpt>
   <trkpt lat="53.5272300" lon="-113.5151140">
    <ele>645.5</ele>
    <time>2026-08-23T18:26:10Z</time>
   </trkpt>
   <trkpt lat="53.5272790" lon="-113.5150950">
    <ele>644.8</ele>
    <time>2026-08-23T18:26:11Z</time>
   </trkpt>
   <trkpt lat="53.5273110" lon="-113.5150720">
    <ele>644.3</ele>
    <time>2026-08-23T18:26:12Z</time>
   </trkpt>
   <trkpt lat="53.5273470" lon="-113.5150200">
    <ele>643.7</ele>
    <time>2026-08-23T18:26:13Z</time>
   </trkpt>
   <trkpt lat="53.5273930" lon="-113.5149300">
    <ele>642.6</ele>
    <time>2026-08-23T18:26:14Z</time>
   </trkpt>
   <trkpt lat="53.5274210" lon="-113.5148040">
    <ele>641.4</ele>
    <time>2026-08-23T18:26:15Z</time>
   </trkpt>
   <trkpt lat="53.5274150" lon="-113.5146570">
    <ele>640.2</ele>
    <time>2026-08-23T18:26:16Z</time>
   </trkpt>
   <trkpt lat="53.5273990" lon="-113.5145060">
    <ele>639.2</ele>
    <time>2026-08-23T18:26:17Z</time>
   </trkpt>
   <trkpt lat="53.5274010" lon="-113.5143440">
    <ele>638.4</ele>
    <time>2026-08-23T18:26:18Z</time>
   </trkpt>
   <trkpt lat="53.5273960" lon="-113.5142020">
    <ele>638.1</ele>
    <time>2026-08-23T18:26:19Z</time>
   </trkpt>
   <trkpt lat="53.5273970" lon="-113.5140850">
    <ele>637.6</ele>
    <time>2026-08-23T18:26:20Z</time>
   </trkpt>
   <trkpt lat="53.5273940" lon="-113.5139800">
    <ele>636.9</ele>
    <time>2026-08-23T18:26:21Z</time>
   </trkpt>
   <trkpt lat="53.5273990" lon="-113.5138950">
    <ele>636.4</ele>
    <time>2026-08-23T18:26:22Z</time>
   </trkpt>
   <trkpt lat="53.5273990" lon="-113.5138170">
    <ele>635.9</ele>
    <time>2026-08-23T18:26:23Z</time>
   </trkpt>
   <trkpt lat="53.5274010" lon="-113.5137210">
    <ele>635.2</ele>
    <time>2026-08-23T18:26:24Z</time>
   </trkpt>
   <trkpt lat="53.5273930" lon="-113.5136180">
    <ele>634.5</ele>
    <time>2026-08-23T18:26:25Z</time>
   </trkpt>
   <trkpt lat="53.5274030" lon="-113.5135050">
    <ele>633.7</ele>
    <time>2026-08-23T18:26:26Z</time>
   </trkpt>
   <trkpt lat="53.5274170" lon="-113.5133650">
    <ele>632.5</ele>
    <time>2026-08-23T18:26:27Z</time>
   </trkpt>
   <trkpt lat="53.5274050" lon="-113.5131920">
    <ele>631.1</ele>
    <time>2026-08-23T18:26:28Z</time>
   </trkpt>
   <trkpt lat="53.5274090" lon="-113.5130100">
    <ele>629.7</ele>
    <time>2026-08-23T18:26:29Z</time>
   </trkpt>
   <trkpt lat="53.5274050" lon="-113.5128310">
    <ele>629.4</ele>
    <time>2026-08-23T18:26:30Z</time>
   </trkpt>
   <trkpt lat="53.5273910" lon="-113.5126580">
    <ele>629.0</ele>
    <time>2026-08-23T18:26:31Z</time>
   </trkpt>
   <trkpt lat="53.5273770" lon="-113.5124860">
    <ele>628.6</ele>
    <time>2026-08-23T18:26:32Z</time>
   </trkpt>
   <trkpt lat="53.5273650" lon="-113.5123190">
    <ele>628.3</ele>
    <time>2026-08-23T18:26:33Z</time>
   </trkpt>
   <trkpt lat="53.5273960" lon="-113.5121600">
    <ele>628.0</ele>
    <time>2026-08-23T18:26:34Z</time>
   </trkpt>
   <trkpt lat="53.5274550" lon="-113.5120340">
    <ele>627.8</ele>
    <time>2026-08-23T18:26:35Z</time>
   </trkpt>
   <trkpt lat="53.5275250" lon="-113.5119700">
    <ele>627.6</ele>
    <time>2026-08-23T18:26:36Z</time>
   </trkpt>
   <trkpt lat="53.5276090" lon="-113.5119460">
    <ele>627.4</ele>
    <time>2026-08-23T18:26:37Z</time>
   </trkpt>
   <trkpt lat="53.5277210" lon="-113.5119470">
    <ele>627.2</ele>
    <time>2026-08-23T18:26:38Z</time>
   </trkpt>
   <trkpt lat="53.5278150" lon="-113.5119810">
    <ele>627.0</ele>
    <time>2026-08-23T18:26:39Z</time>
   </trkpt>
   <trkpt lat="53.5279100" lon="-113.5119830">
    <ele>626.8</ele>
    <time>2026-08-23T18:26:40Z</time>
   </trkpt>
   <trkpt lat="53.5279890" lon="-113.5119680">
    <ele>626.8</ele>
    <time>2026-08-23T18:26:42Z</time>
   </trkpt>
   <trkpt lat="53.5280610" lon="-113.5119280">
    <ele>626.7</ele>
    <time>2026-08-23T18:26:43Z</time>
   </trkpt>
   <trkpt lat="53.5281400" lon="-113.5118970">
    <ele>626.7</ele>
    <time>2026-08-23T18:26:44Z</time>
   </trkpt>
   <trkpt lat="53.5282090" lon="-113.5118740">
    <ele>626.7</ele>
    <time>2026-08-23T18:26:45Z</time>
   </trkpt>
   <trkpt lat="53.5282720" lon="-113.5118480">
    <ele>626.7</ele>
    <time>2026-08-23T18:26:46Z</time>
   </trkpt>
   <trkpt lat="53.5283380" lon="-113.5118190">
    <ele>626.7</ele>
    <time>2026-08-23T18:26:47Z</time>
   </trkpt>
   <trkpt lat="53.5284000" lon="-113.5117830">
    <ele>626.6</ele>
    <time>2026-08-23T18:26:48Z</time>
   </trkpt>
   <trkpt lat="53.5284650" lon="-113.5117720">
    <ele>626.5</ele>
    <time>2026-08-23T18:26:49Z</time>
   </trkpt>
   <trkpt lat="53.5285230" lon="-113.5117610">
    <ele>626.4</ele>
    <time>2026-08-23T18:26:50Z</time>
   </trkpt>
   <trkpt lat="53.5285860" lon="-113.5117380">
    <ele>626.1</ele>
    <time>2026-08-23T18:26:51Z</time>
   </trkpt>
   <trkpt lat="53.5286500" lon="-113.5116980">
    <ele>625.9</ele>
    <time>2026-08-23T18:26:52Z</time>
   </trkpt>
   <trkpt lat="53.5287110" lon="-113.5116630">
    <ele>625.6</ele>
    <time>2026-08-23T18:26:53Z</time>
   </trkpt>
   <trkpt lat="53.5287860" lon="-113.5116310">
    <ele>625.4</ele>
    <time>2026-08-23T18:26:54Z</time>
   </trkpt>
   <trkpt lat="53.5288400" lon="-113.5115430">
    <ele>625.2</ele>
    <time>2026-08-23T18:26:55Z</time>
   </trkpt>
   <trkpt lat="53.5289060" lon="-113.5114930">
    <ele>625.0</ele>
    <time>2026-08-23T18:26:56Z</time>
   </trkpt>
   <trkpt lat="53.5289790" lon="-113.5114620">
    <ele>624.9</ele>
    <time>2026-08-23T18:26:57Z</time>
   </trkpt>
   <trkpt lat="53.5290310" lon="-113.5114460">
    <ele>624.9</ele>
    <time>2026-08-23T18:26:58Z</time>
   </trkpt>
   <trkpt lat="53.5290840" lon="-113.5114160">
    <ele>624.8</ele>
    <time>2026-08-23T18:26:59Z</time>
   </trkpt>
   <trkpt lat="53.5291260" lon="-113.5113860">
    <ele>624.8</ele>
    <time>2026-08-23T18:27:00Z</time>
   </trkpt>
   <trkpt lat="53.5291750" lon="-113.5113730">
    <ele>624.8</ele>
    <time>2026-08-23T18:27:01Z</time>
   </trkpt>
   <trkpt lat="53.5292120" lon="-113.5113690">
    <ele>624.8</ele>
    <time>2026-08-23T18:27:02Z</time>
   </trkpt>
   <trkpt lat="53.5292560" lon="-113.5113230">
    <ele>624.7</ele>
    <time>2026-08-23T18:27:03Z</time>
   </trkpt>
   <trkpt lat="53.5292840" lon="-113.5112820">
    <ele>624.7</ele>
    <time>2026-08-23T18:27:04Z</time>
   </trkpt>
   <trkpt lat="53.5293060" lon="-113.5112230">
    <ele>624.7</ele>
    <time>2026-08-23T18:27:05Z</time>
   </trkpt>
   <trkpt lat="53.5293120" lon="-113.5111480">
    <ele>624.7</ele>
    <time>2026-08-23T18:27:06Z</time>
   </trkpt>
   <trkpt lat="53.5293180" lon="-113.5110810">
    <ele>624.7</ele>
    <time>2026-08-23T18:27:07Z</time>
   </trkpt>
   <trkpt lat="53.5293200" lon="-113.5110130">
    <ele>624.6</ele>
    <time>2026-08-23T18:27:08Z</time>
   </trkpt>
   <trkpt lat="53.5293190" lon="-113.5109490">
    <ele>624.6</ele>
    <time>2026-08-23T18:27:09Z</time>
   </trkpt>
   <trkpt lat="53.5293250" lon="-113.5109150">
    <ele>624.6</ele>
    <time>2026-08-23T18:27:10Z</time>
   </trkpt>
   <trkpt lat="53.5293480" lon="-113.5109220">
    <ele>624.6</ele>
    <time>2026-08-23T18:27:11Z</time>
   </trkpt>
   <trkpt lat="53.5293680" lon="-113.5109340">
    <ele>624.6</ele>
    <time>2026-08-23T18:27:12Z</time>
   </trkpt>
   <trkpt lat="53.5293860" lon="-113.5109460">
    <ele>624.6</ele>
    <time>2026-08-23T18:27:13Z</time>
   </trkpt>
   <trkpt lat="53.5293850" lon="-113.5109590">
    <ele>624.6</ele>
    <time>2026-08-23T18:27:14Z</time>
   </trkpt>
   <trkpt lat="53.5293780" lon="-113.5109590">
    <ele>624.6</ele>
    <time>2026-08-23T18:27:15Z</time>
   </trkpt>
   <trkpt lat="53.5293770" lon="-113.5109500">
    <ele>624.6</ele>
    <time>2026-08-23T18:27:16Z</time>
   </trkpt>
   <trkpt lat="53.5293780" lon="-113.5109490">
    <ele>624.6</ele>
    <time>2026-08-23T18:27:17Z</time>
   </trkpt>
   <trkpt lat="53.5293770" lon="-113.5109570">
    <ele>624.6</ele>
    <time>2026-08-23T18:27:18Z</time>
   </trkpt>
   <trkpt lat="53.5293760" lon="-113.5109570">
    <ele>624.6</ele>
    <time>2026-08-23T18:27:19Z</time>
   </trkpt>
   <trkpt lat="53.5293760" lon="-113.5109570">
    <ele>624.6</ele>
    <time>2026-08-23T18:27:20Z</time>
   </trkpt>
   <trkpt lat="53.5293760" lon="-113.5109570">
    <ele>624.6</ele>
    <time>2026-08-23T18:27:21Z</time>
   </trkpt>
   <trkpt lat="53.5293760" lon="-113.5109570">
    <ele>624.6</ele>
    <time>2026-08-23T18:27:22Z</time>
   </trkpt>
   <trkpt lat="53.5293790" lon="-113.5109660">
    <ele>624.6</ele>
    <time>2026-08-23T18:27:23Z</time>
   </trkpt>
   <trkpt lat="53.5293840" lon="-113.5109670">
    <ele>624.6</ele>
    <time>2026-08-23T18:27:24Z</time>
   </trkpt>
   <trkpt lat="53.5293750" lon="-113.5109830">
    <ele>624.6</ele>
    <time>2026-08-23T18:27:25Z</time>
   </trkpt>
   <trkpt lat="53.5293730" lon="-113.5109970">
    <ele>624.6</ele>
    <time>2026-08-23T18:27:26Z</time>
   </trkpt>
   <trkpt lat="53.5293660" lon="-113.5109860">
    <ele>624.6</ele>
    <time>2026-08-23T18:27:27Z</time>
   </trkpt>
   <trkpt lat="53.5293530" lon="-113.5109920">
    <ele>624.6</ele>
    <time>2026-08-23T18:27:28Z</time>
   </trkpt>
   <trkpt lat="53.5293280" lon="-113.5109930">
    <ele>624.6</ele>
    <time>2026-08-23T18:27:29Z</time>
   </trkpt>
   <trkpt lat="53.5293180" lon="-113.5109790">
    <ele>624.6</ele>
    <time>2026-08-23T18:27:30Z</time>
   </trkpt>
   <trkpt lat="53.5293220" lon="-113.5109370">
    <ele>624.6</ele>
    <time>2026-08-23T18:27:31Z</time>
   </trkpt>
   <trkpt lat="53.5293350" lon="-113.5109100">
    <ele>624.6</ele>
    <time>2026-08-23T18:27:32Z</time>
   </trkpt>
   <trkpt lat="53.5293380" lon="-113.5108660">
    <ele>624.6</ele>
    <time>2026-08-23T18:27:33Z</time>
   </trkpt>
   <trkpt lat="53.5293220" lon="-113.5108330">
    <ele>624.6</ele>
    <time>2026-08-23T18:27:34Z</time>
   </trkpt>
   <trkpt lat="53.5292900" lon="-113.5108140">
    <ele>624.6</ele>
    <time>2026-08-23T18:27:35Z</time>
   </trkpt>
   <trkpt lat="53.5292630" lon="-113.5108080">
    <ele>624.6</ele>
    <time>2026-08-23T18:27:36Z</time>
   </trkpt>
   <trkpt lat="53.5292370" lon="-113.5108040">
    <ele>624.6</ele>
    <time>2026-08-23T18:27:37Z</time>
   </trkpt>
   <trkpt lat="53.5292150" lon="-113.5107920">
    <ele>624.6</ele>
    <time>2026-08-23T18:27:38Z</time>
   </trkpt>
   <trkpt lat="53.5291890" lon="-113.5107760">
    <ele>624.6</ele>
    <time>2026-08-23T18:27:39Z</time>
   </trkpt>
   <trkpt lat="53.5291640" lon="-113.5107630">
    <ele>624.6</ele>
    <time>2026-08-23T18:27:40Z</time>
   </trkpt>
   <trkpt lat="53.5291410" lon="-113.5107560">
    <ele>624.6</ele>
    <time>2026-08-23T18:27:41Z</time>
   </trkpt>
   <trkpt lat="53.5291280" lon="-113.5107360">
    <ele>624.6</ele>
    <time>2026-08-23T18:27:42Z</time>
   </trkpt>
   <trkpt lat="53.5291330" lon="-113.5107180">
    <ele>624.6</ele>
    <time>2026-08-23T18:27:43Z</time>
   </trkpt>
   <trkpt lat="53.5291270" lon="-113.5107100">
    <ele>624.6</ele>
    <time>2026-08-23T18:27:44Z</time>
   </trkpt>
   <trkpt lat="53.5291270" lon="-113.5107140">
    <ele>624.6</ele>
    <time>2026-08-23T18:27:45Z</time>
   </trkpt>
   <trkpt lat="53.5291310" lon="-113.5107190">
    <ele>624.6</ele>
    <time>2026-08-23T18:27:46Z</time>
   </trkpt>
   <trkpt lat="53.5291340" lon="-113.5107200">
    <ele>624.6</ele>
    <time>2026-08-23T18:27:47Z</time>
   </trkpt>
   <trkpt lat="53.5291350" lon="-113.5107250">
    <ele>624.6</ele>
    <time>2026-08-23T18:27:48Z</time>
   </trkpt>
   <trkpt lat="53.5291340" lon="-113.5107240">
    <ele>624.6</ele>
    <time>2026-08-23T18:27:49Z</time>
   </trkpt>
   <trkpt lat="53.5291330" lon="-113.5107260">
    <ele>624.6</ele>
    <time>2026-08-23T18:27:50Z</time>
   </trkpt>
   <trkpt lat="53.5291310" lon="-113.5107270">
    <ele>624.6</ele>
    <time>2026-08-23T18:27:51Z</time>
   </trkpt>
   <trkpt lat="53.5291320" lon="-113.5107290">
    <ele>624.6</ele>
    <time>2026-08-23T18:27:52Z</time>
   </trkpt>
   <trkpt lat="53.5291350" lon="-113.5107230">
    <ele>624.6</ele>
    <time>2026-08-23T18:27:53Z</time>
   </trkpt>
   <trkpt lat="53.5291340" lon="-113.5107030">
    <ele>624.6</ele>
    <time>2026-08-23T18:27:54Z</time>
   </trkpt>
   <trkpt lat="53.5291300" lon="-113.5106940">
    <ele>624.6</ele>
    <time>2026-08-23T18:27:55Z</time>
   </trkpt>
   <trkpt lat="53.5291290" lon="-113.5107020">
    <ele>624.6</ele>
    <time>2026-08-23T18:27:56Z</time>
   </trkpt>
   <trkpt lat="53.5291290" lon="-113.5107020">
    <ele>624.6</ele>
    <time>2026-08-23T18:27:57Z</time>
   </trkpt>
   <trkpt lat="53.5291290" lon="-113.5107020">
    <ele>624.6</ele>
    <time>2026-08-23T18:27:58Z</time>
   </trkpt>
   <trkpt lat="53.5291290" lon="-113.5107020">
    <ele>624.6</ele>
    <time>2026-08-23T18:27:59Z</time>
   </trkpt>
   <trkpt lat="53.5291310" lon="-113.5106970">
    <ele>624.6</ele>
    <time>2026-08-23T18:28:00Z</time>
   </trkpt>
   <trkpt lat="53.5291310" lon="-113.5107010">
    <ele>624.6</ele>
    <time>2026-08-23T18:28:01Z</time>
   </trkpt>
   <trkpt lat="53.5291310" lon="-113.5106960">
    <ele>624.6</ele>
    <time>2026-08-23T18:28:02Z</time>
   </trkpt>
   <trkpt lat="53.5291300" lon="-113.5106980">
    <ele>624.6</ele>
    <time>2026-08-23T18:28:03Z</time>
   </trkpt>
   <trkpt lat="53.5291270" lon="-113.5107010">
    <ele>624.6</ele>
    <time>2026-08-23T18:28:04Z</time>
   </trkpt>
   <trkpt lat="53.5291260" lon="-113.5107050">
    <ele>624.6</ele>
    <time>2026-08-23T18:28:05Z</time>
   </trkpt>
   <trkpt lat="53.5291260" lon="-113.5107080">
    <ele>624.6</ele>
    <time>2026-08-23T18:28:06Z</time>
   </trkpt>
   <trkpt lat="53.5291340" lon="-113.5107070">
    <ele>624.6</ele>
    <time>2026-08-23T18:28:07Z</time>
   </trkpt>
   <trkpt lat="53.5291330" lon="-113.5107090">
    <ele>624.6</ele>
    <time>2026-08-23T18:28:08Z</time>
   </trkpt>
   <trkpt lat="53.5291380" lon="-113.5107150">
    <ele>624.6</ele>
    <time>2026-08-23T18:28:09Z</time>
   </trkpt>
   <trkpt lat="53.5291380" lon="-113.5107120">
    <ele>624.6</ele>
    <time>2026-08-23T18:28:10Z</time>
   </trkpt>
   <trkpt lat="53.5291400" lon="-113.5107090">
    <ele>624.6</ele>
    <time>2026-08-23T18:28:11Z</time>
   </trkpt>
   <trkpt lat="53.5291340" lon="-113.5107070">
    <ele>624.6</ele>
    <time>2026-08-23T18:28:12Z</time>
   </trkpt>
   <trkpt lat="53.5291340" lon="-113.5106980">
    <ele>624.6</ele>
    <time>2026-08-23T18:28:13Z</time>
   </trkpt>
   <trkpt lat="53.5291350" lon="-113.5106940">
    <ele>624.6</ele>
    <time>2026-08-23T18:28:14Z</time>
   </trkpt>
   <trkpt lat="53.5291400" lon="-113.5106940">
    <ele>624.6</ele>
    <time>2026-08-23T18:28:15Z</time>
   </trkpt>
   <trkpt lat="53.5291390" lon="-113.5106940">
    <ele>624.6</ele>
    <time>2026-08-23T18:28:16Z</time>
   </trkpt>
   <trkpt lat="53.5291390" lon="-113.5106960">
    <ele>624.6</ele>
    <time>2026-08-23T18:28:17Z</time>
   </trkpt>
   <trkpt lat="53.5291400" lon="-113.5107030">
    <ele>624.6</ele>
    <time>2026-08-23T18:28:18Z</time>
   </trkpt>
   <trkpt lat="53.5291380" lon="-113.5107060">
    <ele>624.6</ele>
    <time>2026-08-23T18:28:19Z</time>
   </trkpt>
   <trkpt lat="53.5291350" lon="-113.5107090">
    <ele>624.6</ele>
    <time>2026-08-23T18:28:20Z</time>
   </trkpt>
   <trkpt lat="53.5291350" lon="-113.5107070">
    <ele>624.6</ele>
    <time>2026-08-23T18:28:21Z</time>
   </trkpt>
   <trkpt lat="53.5291320" lon="-113.5107000">
    <ele>624.6</ele>
    <time>2026-08-23T18:28:22Z</time>
   </trkpt>
   <trkpt lat="53.5291350" lon="-113.5107030">
    <ele>624.6</ele>
    <time>2026-08-23T18:28:23Z</time>
   </trkpt>
   <trkpt lat="53.5291330" lon="-113.5107000">
    <ele>624.5</ele>
    <time>2026-08-23T18:28:24Z</time>
   </trkpt>
   <trkpt lat="53.5291300" lon="-113.5106980">
    <ele>624.5</ele>
    <time>2026-08-23T18:28:25Z</time>
   </trkpt>
   <trkpt lat="53.5291280" lon="-113.5107070">
    <ele>624.5</ele>
    <time>2026-08-23T18:28:26Z</time>
   </trkpt>
   <trkpt lat="53.5291320" lon="-113.5107160">
    <ele>624.5</ele>
    <time>2026-08-23T18:28:27Z</time>
   </trkpt>
   <trkpt lat="53.5291290" lon="-113.5107300">
    <ele>624.5</ele>
    <time>2026-08-23T18:28:28Z</time>
   </trkpt>
   <trkpt lat="53.5291270" lon="-113.5107190">
    <ele>624.5</ele>
    <time>2026-08-23T18:28:29Z</time>
   </trkpt>
   <trkpt lat="53.5291260" lon="-113.5107170">
    <ele>624.5</ele>
    <time>2026-08-23T18:28:30Z</time>
   </trkpt>
   <trkpt lat="53.5291290" lon="-113.5107330">
    <ele>624.5</ele>
    <time>2026-08-23T18:28:31Z</time>
   </trkpt>
   <trkpt lat="53.5291260" lon="-113.5107380">
    <ele>624.5</ele>
    <time>2026-08-23T18:28:32Z</time>
   </trkpt>
   <trkpt lat="53.5291310" lon="-113.5107410">
    <ele>624.5</ele>
    <time>2026-08-23T18:28:33Z</time>
   </trkpt>
   <trkpt lat="53.5291310" lon="-113.5107420">
    <ele>624.5</ele>
    <time>2026-08-23T18:28:34Z</time>
   </trkpt>
   <trkpt lat="53.5291310" lon="-113.5107460">
    <ele>624.5</ele>
    <time>2026-08-23T18:28:35Z</time>
   </trkpt>
   <trkpt lat="53.5291210" lon="-113.5107370">
    <ele>624.5</ele>
    <time>2026-08-23T18:28:36Z</time>
   </trkpt>
   <trkpt lat="53.5291220" lon="-113.5107290">
    <ele>624.5</ele>
    <time>2026-08-23T18:28:37Z</time>
   </trkpt>
   <trkpt lat="53.5291260" lon="-113.5107250">
    <ele>624.5</ele>
    <time>2026-08-23T18:28:38Z</time>
   </trkpt>
   <trkpt lat="53.5291270" lon="-113.5107270">
    <ele>624.5</ele>
    <time>2026-08-23T18:28:39Z</time>
   </trkpt>
   <trkpt lat="53.5291230" lon="-113.5107180">
    <ele>624.5</ele>
    <time>2026-08-23T18:28:40Z</time>
   </trkpt>
   <trkpt lat="53.5291200" lon="-113.5107250">
    <ele>624.5</ele>
    <time>2026-08-23T18:28:41Z</time>
   </trkpt>
   <trkpt lat="53.5291210" lon="-113.5107250">
    <ele>624.5</ele>
    <time>2026-08-23T18:28:42Z</time>
   </trkpt>
   <trkpt lat="53.5291270" lon="-113.5107290">
    <ele>624.5</ele>
    <time>2026-08-23T18:28:43Z</time>
   </trkpt>
   <trkpt lat="53.5291260" lon="-113.5107300">
    <ele>624.5</ele>
    <time>2026-08-23T18:28:44Z</time>
   </trkpt>
   <trkpt lat="53.5291220" lon="-113.5107220">
    <ele>624.5</ele>
    <time>2026-08-23T18:28:45Z</time>
   </trkpt>
   <trkpt lat="53.5291200" lon="-113.5107230">
    <ele>624.5</ele>
    <time>2026-08-23T18:28:46Z</time>
   </trkpt>
   <trkpt lat="53.5291140" lon="-113.5107230">
    <ele>624.5</ele>
    <time>2026-08-23T18:28:47Z</time>
   </trkpt>
   <trkpt lat="53.5291040" lon="-113.5107200">
    <ele>624.5</ele>
    <time>2026-08-23T18:28:48Z</time>
   </trkpt>
   <trkpt lat="53.5291050" lon="-113.5107150">
    <ele>624.5</ele>
    <time>2026-08-23T18:28:49Z</time>
   </trkpt>
   <trkpt lat="53.5291030" lon="-113.5107160">
    <ele>624.5</ele>
    <time>2026-08-23T18:28:50Z</time>
   </trkpt>
   <trkpt lat="53.5291010" lon="-113.5107150">
    <ele>624.5</ele>
    <time>2026-08-23T18:28:51Z</time>
   </trkpt>
   <trkpt lat="53.5290990" lon="-113.5107180">
    <ele>624.5</ele>
    <time>2026-08-23T18:28:52Z</time>
   </trkpt>
   <trkpt lat="53.5291020" lon="-113.5107170">
    <ele>624.5</ele>
    <time>2026-08-23T18:28:53Z</time>
   </trkpt>
   <trkpt lat="53.5291090" lon="-113.5107140">
    <ele>624.5</ele>
    <time>2026-08-23T18:28:54Z</time>
   </trkpt>
   <trkpt lat="53.5291060" lon="-113.5107080">
    <ele>624.5</ele>
    <time>2026-08-23T18:28:55Z</time>
   </trkpt>
   <trkpt lat="53.5290910" lon="-113.5107200">
    <ele>624.5</ele>
    <time>2026-08-23T18:28:56Z</time>
   </trkpt>
   <trkpt lat="53.5290860" lon="-113.5107170">
    <ele>624.5</ele>
    <time>2026-08-23T18:28:57Z</time>
   </trkpt>
   <trkpt lat="53.5290820" lon="-113.5107250">
    <ele>624.5</ele>
    <time>2026-08-23T18:28:58Z</time>
   </trkpt>
   <trkpt lat="53.5290870" lon="-113.5107270">
    <ele>624.5</ele>
    <time>2026-08-23T18:28:59Z</time>
   </trkpt>
   <trkpt lat="53.5290850" lon="-113.5107330">
    <ele>624.5</ele>
    <time>2026-08-23T18:29:00Z</time>
   </trkpt>
   <trkpt lat="53.5290790" lon="-113.5107380">
    <ele>624.5</ele>
    <time>2026-08-23T18:29:01Z</time>
   </trkpt>
   <trkpt lat="53.5290760" lon="-113.5107250">
    <ele>624.5</ele>
    <time>2026-08-23T18:29:02Z</time>
   </trkpt>
   <trkpt lat="53.5290700" lon="-113.5107320">
    <ele>624.5</ele>
    <time>2026-08-23T18:29:03Z</time>
   </trkpt>
   <trkpt lat="53.5290700" lon="-113.5107250">
    <ele>624.5</ele>
    <time>2026-08-23T18:29:04Z</time>
   </trkpt>
   <trkpt lat="53.5290710" lon="-113.5107350">
    <ele>624.5</ele>
    <time>2026-08-23T18:29:05Z</time>
   </trkpt>
   <trkpt lat="53.5290830" lon="-113.5107420">
    <ele>624.5</ele>
    <time>2026-08-23T18:29:06Z</time>
   </trkpt>
   <trkpt lat="53.5290860" lon="-113.5107560">
    <ele>624.5</ele>
    <time>2026-08-23T18:29:07Z</time>
   </trkpt>
   <trkpt lat="53.5290900" lon="-113.5107730">
    <ele>624.5</ele>
    <time>2026-08-23T18:29:08Z</time>
   </trkpt>
   <trkpt lat="53.5290950" lon="-113.5107660">
    <ele>624.5</ele>
    <time>2026-08-23T18:29:09Z</time>
   </trkpt>
   <trkpt lat="53.5291010" lon="-113.5107620">
    <ele>624.5</ele>
    <time>2026-08-23T18:29:10Z</time>
   </trkpt>
   <trkpt lat="53.5291020" lon="-113.5107620">
    <ele>624.5</ele>
    <time>2026-08-23T18:29:11Z</time>
   </trkpt>
   <trkpt lat="53.5291070" lon="-113.5107530">
    <ele>624.5</ele>
    <time>2026-08-23T18:29:12Z</time>
   </trkpt>
   <trkpt lat="53.5291080" lon="-113.5107600">
    <ele>624.5</ele>
    <time>2026-08-23T18:29:13Z</time>
   </trkpt>
   <trkpt lat="53.5291060" lon="-113.5107370">
    <ele>624.5</ele>
    <time>2026-08-23T18:29:14Z</time>
   </trkpt>
   <trkpt lat="53.5291100" lon="-113.5107320">
    <ele>624.5</ele>
    <time>2026-08-23T18:29:15Z</time>
   </trkpt>
   <trkpt lat="53.5291180" lon="-113.5107300">
    <ele>624.5</ele>
    <time>2026-08-23T18:29:16Z</time>
   </trkpt>
   <trkpt lat="53.5291230" lon="-113.5107270">
    <ele>624.5</ele>
    <time>2026-08-23T18:29:17Z</time>
   </trkpt>
   <trkpt lat="53.5291220" lon="-113.5107260">
    <ele>624.5</ele>
    <time>2026-08-23T18:29:18Z</time>
   </trkpt>
   <trkpt lat="53.5291220" lon="-113.5107260">
    <ele>624.5</ele>
    <time>2026-08-23T18:29:19Z</time>
   </trkpt>
   <trkpt lat="53.5291210" lon="-113.5107260">
    <ele>624.5</ele>
    <time>2026-08-23T18:29:20Z</time>
   </trkpt>
   <trkpt lat="53.5291170" lon="-113.5107260">
    <ele>624.5</ele>
    <time>2026-08-23T18:29:21Z</time>
   </trkpt>
   <trkpt lat="53.5291180" lon="-113.5107260">
    <ele>624.5</ele>
    <time>2026-08-23T18:29:22Z</time>
   </trkpt>
   <trkpt lat="53.5291130" lon="-113.5107400">
    <ele>624.5</ele>
    <time>2026-08-23T18:29:23Z</time>
   </trkpt>
   <trkpt lat="53.5291070" lon="-113.5107310">
    <ele>624.5</ele>
    <time>2026-08-23T18:29:24Z</time>
   </trkpt>
   <trkpt lat="53.5290940" lon="-113.5107420">
    <ele>624.5</ele>
    <time>2026-08-23T18:29:25Z</time>
   </trkpt>
   <trkpt lat="53.5290980" lon="-113.5107530">
    <ele>624.5</ele>
    <time>2026-08-23T18:29:26Z</time>
   </trkpt>
   <trkpt lat="53.5290980" lon="-113.5107680">
    <ele>624.5</ele>
    <time>2026-08-23T18:29:27Z</time>
   </trkpt>
   <trkpt lat="53.5291070" lon="-113.5107620">
    <ele>624.5</ele>
    <time>2026-08-23T18:29:28Z</time>
   </trkpt>
   <trkpt lat="53.5291150" lon="-113.5107610">
    <ele>624.5</ele>
    <time>2026-08-23T18:29:29Z</time>
   </trkpt>
   <trkpt lat="53.5291200" lon="-113.5107600">
    <ele>624.5</ele>
    <time>2026-08-23T18:29:30Z</time>
   </trkpt>
   <trkpt lat="53.5291200" lon="-113.5107610">
    <ele>624.5</ele>
    <time>2026-08-23T18:29:31Z</time>
   </trkpt>
   <trkpt lat="53.5291200" lon="-113.5107610">
    <ele>624.5</ele>
    <time>2026-08-23T18:29:32Z</time>
   </trkpt>
   <trkpt lat="53.5291270" lon="-113.5107560">
    <ele>624.5</ele>
    <time>2026-08-23T18:29:33Z</time>
   </trkpt>
   <trkpt lat="53.5291300" lon="-113.5107530">
    <ele>624.5</ele>
    <time>2026-08-23T18:29:34Z</time>
   </trkpt>
   <trkpt lat="53.5291300" lon="-113.5107540">
    <ele>624.5</ele>
    <time>2026-08-23T18:29:35Z</time>
   </trkpt>
   <trkpt lat="53.5291300" lon="-113.5107540">
    <ele>624.5</ele>
    <time>2026-08-23T18:29:36Z</time>
   </trkpt>
   <trkpt lat="53.5291310" lon="-113.5107460">
    <ele>624.5</ele>
    <time>2026-08-23T18:29:37Z</time>
   </trkpt>
   <trkpt lat="53.5291280" lon="-113.5107490">
    <ele>624.5</ele>
    <time>2026-08-23T18:29:38Z</time>
   </trkpt>
   <trkpt lat="53.5291280" lon="-113.5107490">
    <ele>624.5</ele>
    <time>2026-08-23T18:29:39Z</time>
   </trkpt>
   <trkpt lat="53.5291290" lon="-113.5107540">
    <ele>624.5</ele>
    <time>2026-08-23T18:29:40Z</time>
   </trkpt>
   <trkpt lat="53.5291340" lon="-113.5107570">
    <ele>624.5</ele>
    <time>2026-08-23T18:29:41Z</time>
   </trkpt>
   <trkpt lat="53.5291350" lon="-113.5107570">
    <ele>624.5</ele>
    <time>2026-08-23T18:29:42Z</time>
   </trkpt>
   <trkpt lat="53.5291380" lon="-113.5107640">
    <ele>624.5</ele>
    <time>2026-08-23T18:29:43Z</time>
   </trkpt>
   <trkpt lat="53.5291360" lon="-113.5107690">
    <ele>624.5</ele>
    <time>2026-08-23T18:29:44Z</time>
   </trkpt>
   <trkpt lat="53.5291380" lon="-113.5107690">
    <ele>624.5</ele>
    <time>2026-08-23T18:29:45Z</time>
   </trkpt>
   <trkpt lat="53.5291400" lon="-113.5107680">
    <ele>624.5</ele>
    <time>2026-08-23T18:29:46Z</time>
   </trkpt>
   <trkpt lat="53.5291390" lon="-113.5107610">
    <ele>624.5</ele>
    <time>2026-08-23T18:29:47Z</time>
   </trkpt>
   <trkpt lat="53.5291370" lon="-113.5107650">
    <ele>624.5</ele>
    <time>2026-08-23T18:29:48Z</time>
   </trkpt>
   <trkpt lat="53.5291380" lon="-113.5107690">
    <ele>624.5</ele>
    <time>2026-08-23T18:29:49Z</time>
   </trkpt>
   <trkpt lat="53.5291380" lon="-113.5107690">
    <ele>624.5</ele>
    <time>2026-08-23T18:29:50Z</time>
   </trkpt>
   <trkpt lat="53.5291370" lon="-113.5107770">
    <ele>624.5</ele>
    <time>2026-08-23T18:29:51Z</time>
   </trkpt>
   <trkpt lat="53.5291420" lon="-113.5107780">
    <ele>624.5</ele>
    <time>2026-08-23T18:29:52Z</time>
   </trkpt>
   <trkpt lat="53.5291530" lon="-113.5107850">
    <ele>624.5</ele>
    <time>2026-08-23T18:29:53Z</time>
   </trkpt>
   <trkpt lat="53.5291510" lon="-113.5107840">
    <ele>624.5</ele>
    <time>2026-08-23T18:29:54Z</time>
   </trkpt>
   <trkpt lat="53.5291460" lon="-113.5107810">
    <ele>624.5</ele>
    <time>2026-08-23T18:29:55Z</time>
   </trkpt>
   <trkpt lat="53.5291460" lon="-113.5107810">
    <ele>624.5</ele>
    <time>2026-08-23T18:29:56Z</time>
   </trkpt>
   <trkpt lat="53.5291450" lon="-113.5107870">
    <ele>624.5</ele>
    <time>2026-08-23T18:29:57Z</time>
   </trkpt>
   <trkpt lat="53.5291440" lon="-113.5107880">
    <ele>624.5</ele>
    <time>2026-08-23T18:29:58Z</time>
   </trkpt>
   <trkpt lat="53.5291440" lon="-113.5107880">
    <ele>624.5</ele>
    <time>2026-08-23T18:29:59Z</time>
   </trkpt>
   <trkpt lat="53.5291440" lon="-113.5107790">
    <ele>624.5</ele>
    <time>2026-08-23T18:30:00Z</time>
   </trkpt>
   <trkpt lat="53.5291440" lon="-113.5107760">
    <ele>624.5</ele>
    <time>2026-08-23T18:30:01Z</time>
   </trkpt>
   <trkpt lat="53.5291410" lon="-113.5107810">
    <ele>624.5</ele>
    <time>2026-08-23T18:30:02Z</time>
   </trkpt>
   <trkpt lat="53.5291390" lon="-113.5107800">
    <ele>624.5</ele>
    <time>2026-08-23T18:30:03Z</time>
   </trkpt>
   <trkpt lat="53.5291400" lon="-113.5107870">
    <ele>624.5</ele>
    <time>2026-08-23T18:30:04Z</time>
   </trkpt>
   <trkpt lat="53.5291390" lon="-113.5107900">
    <ele>624.5</ele>
    <time>2026-08-23T18:30:05Z</time>
   </trkpt>
   <trkpt lat="53.5291360" lon="-113.5107800">
    <ele>624.5</ele>
    <time>2026-08-23T18:30:06Z</time>
   </trkpt>
   <trkpt lat="53.5291360" lon="-113.5107760">
    <ele>624.5</ele>
    <time>2026-08-23T18:30:07Z</time>
   </trkpt>
   <trkpt lat="53.5291340" lon="-113.5107830">
    <ele>624.5</ele>
    <time>2026-08-23T18:30:08Z</time>
   </trkpt>
   <trkpt lat="53.5291310" lon="-113.5107860">
    <ele>624.5</ele>
    <time>2026-08-23T18:30:09Z</time>
   </trkpt>
   <trkpt lat="53.5291350" lon="-113.5107880">
    <ele>624.5</ele>
    <time>2026-08-23T18:30:10Z</time>
   </trkpt>
   <trkpt lat="53.5291370" lon="-113.5107880">
    <ele>624.5</ele>
    <time>2026-08-23T18:30:11Z</time>
   </trkpt>
   <trkpt lat="53.5291360" lon="-113.5107930">
    <ele>624.5</ele>
    <time>2026-08-23T18:30:12Z</time>
   </trkpt>
   <trkpt lat="53.5291450" lon="-113.5107840">
    <ele>624.5</ele>
    <time>2026-08-23T18:30:13Z</time>
   </trkpt>
   <trkpt lat="53.5291450" lon="-113.5107530">
    <ele>624.5</ele>
    <time>2026-08-23T18:30:14Z</time>
   </trkpt>
   <trkpt lat="53.5291430" lon="-113.5107490">
    <ele>624.5</ele>
    <time>2026-08-23T18:30:15Z</time>
   </trkpt>
   <trkpt lat="53.5291430" lon="-113.5107450">
    <ele>624.5</ele>
    <time>2026-08-23T18:30:16Z</time>
   </trkpt>
   <trkpt lat="53.5291450" lon="-113.5107450">
    <ele>624.5</ele>
    <time>2026-08-23T18:30:17Z</time>
   </trkpt>
   <trkpt lat="53.5291430" lon="-113.5107440">
    <ele>624.5</ele>
    <time>2026-08-23T18:30:18Z</time>
   </trkpt>
   <trkpt lat="53.5291440" lon="-113.5107450">
    <ele>624.5</ele>
    <time>2026-08-23T18:30:19Z</time>
   </trkpt>
   <trkpt lat="53.5291390" lon="-113.5107420">
    <ele>624.5</ele>
    <time>2026-08-23T18:30:20Z</time>
   </trkpt>
   <trkpt lat="53.5291380" lon="-113.5107270">
    <ele>624.5</ele>
    <time>2026-08-23T18:30:21Z</time>
   </trkpt>
   <trkpt lat="53.5291350" lon="-113.5107340">
    <ele>624.5</ele>
    <time>2026-08-23T18:30:22Z</time>
   </trkpt>
   <trkpt lat="53.5291320" lon="-113.5107290">
    <ele>624.5</ele>
    <time>2026-08-23T18:30:23Z</time>
   </trkpt>
   <trkpt lat="53.5291350" lon="-113.5107240">
    <ele>624.5</ele>
    <time>2026-08-23T18:30:24Z</time>
   </trkpt>
   <trkpt lat="53.5291370" lon="-113.5107270">
    <ele>624.5</ele>
    <time>2026-08-23T18:30:25Z</time>
   </trkpt>
   <trkpt lat="53.5291350" lon="-113.5107330">
    <ele>624.5</ele>
    <time>2026-08-23T18:30:26Z</time>
   </trkpt>
   <trkpt lat="53.5291320" lon="-113.5107260">
    <ele>624.5</ele>
    <time>2026-08-23T18:30:27Z</time>
   </trkpt>
   <trkpt lat="53.5291300" lon="-113.5107310">
    <ele>624.5</ele>
    <time>2026-08-23T18:30:28Z</time>
   </trkpt>
   <trkpt lat="53.5291350" lon="-113.5107310">
    <ele>624.5</ele>
    <time>2026-08-23T18:30:29Z</time>
   </trkpt>
   <trkpt lat="53.5291350" lon="-113.5107230">
    <ele>624.5</ele>
    <time>2026-08-23T18:30:30Z</time>
   </trkpt>
   <trkpt lat="53.5291320" lon="-113.5107260">
    <ele>624.5</ele>
    <time>2026-08-23T18:30:31Z</time>
   </trkpt>
   <trkpt lat="53.5291300" lon="-113.5107130">
    <ele>624.5</ele>
    <time>2026-08-23T18:30:32Z</time>
   </trkpt>
   <trkpt lat="53.5291300" lon="-113.5107050">
    <ele>624.5</ele>
    <time>2026-08-23T18:30:33Z</time>
   </trkpt>
   <trkpt lat="53.5291250" lon="-113.5107110">
    <ele>624.5</ele>
    <time>2026-08-23T18:30:34Z</time>
   </trkpt>
   <trkpt lat="53.5291260" lon="-113.5107190">
    <ele>624.5</ele>
    <time>2026-08-23T18:30:35Z</time>
   </trkpt>
   <trkpt lat="53.5291270" lon="-113.5107200">
    <ele>624.5</ele>
    <time>2026-08-23T18:30:36Z</time>
   </trkpt>
   <trkpt lat="53.5291230" lon="-113.5107180">
    <ele>624.5</ele>
    <time>2026-08-23T18:30:37Z</time>
   </trkpt>
   <trkpt lat="53.5291180" lon="-113.5107170">
    <ele>624.5</ele>
    <time>2026-08-23T18:30:38Z</time>
   </trkpt>
   <trkpt lat="53.5291200" lon="-113.5107170">
    <ele>624.5</ele>
    <time>2026-08-23T18:30:39Z</time>
   </trkpt>
   <trkpt lat="53.5291230" lon="-113.5107190">
    <ele>624.5</ele>
    <time>2026-08-23T18:30:40Z</time>
   </trkpt>
   <trkpt lat="53.5291250" lon="-113.5107290">
    <ele>624.5</ele>
    <time>2026-08-23T18:30:41Z</time>
   </trkpt>
   <trkpt lat="53.5291260" lon="-113.5107280">
    <ele>624.5</ele>
    <time>2026-08-23T18:30:42Z</time>
   </trkpt>
   <trkpt lat="53.5291270" lon="-113.5107350">
    <ele>624.5</ele>
    <time>2026-08-23T18:30:43Z</time>
   </trkpt>
   <trkpt lat="53.5291240" lon="-113.5107350">
    <ele>624.5</ele>
    <time>2026-08-23T18:30:44Z</time>
   </trkpt>
   <trkpt lat="53.5291210" lon="-113.5107380">
    <ele>624.5</ele>
    <time>2026-08-23T18:30:45Z</time>
   </trkpt>
   <trkpt lat="53.5291140" lon="-113.5107450">
    <ele>624.5</ele>
    <time>2026-08-23T18:30:46Z</time>
   </trkpt>
   <trkpt lat="53.5291180" lon="-113.5107400">
    <ele>624.5</ele>
    <time>2026-08-23T18:30:47Z</time>
   </trkpt>
   <trkpt lat="53.5291180" lon="-113.5107420">
    <ele>624.5</ele>
    <time>2026-08-23T18:30:48Z</time>
   </trkpt>
   <trkpt lat="53.5291220" lon="-113.5107220">
    <ele>624.5</ele>
    <time>2026-08-23T18:30:49Z</time>
   </trkpt>
   <trkpt lat="53.5291250" lon="-113.5107360">
    <ele>624.5</ele>
    <time>2026-08-23T18:30:50Z</time>
   </trkpt>
   <trkpt lat="53.5291260" lon="-113.5107370">
    <ele>624.5</ele>
    <time>2026-08-23T18:30:51Z</time>
   </trkpt>
   <trkpt lat="53.5291290" lon="-113.5107390">
    <ele>624.5</ele>
    <time>2026-08-23T18:30:52Z</time>
   </trkpt>
   <trkpt lat="53.5291410" lon="-113.5107400">
    <ele>624.5</ele>
    <time>2026-08-23T18:30:53Z</time>
   </trkpt>
   <trkpt lat="53.5291470" lon="-113.5107310">
    <ele>624.4</ele>
    <time>2026-08-23T18:30:54Z</time>
   </trkpt>
   <trkpt lat="53.5291440" lon="-113.5107480">
    <ele>624.4</ele>
    <time>2026-08-23T18:30:55Z</time>
   </trkpt>
   <trkpt lat="53.5291420" lon="-113.5107560">
    <ele>624.4</ele>
    <time>2026-08-23T18:30:56Z</time>
   </trkpt>
   <trkpt lat="53.5291420" lon="-113.5107560">
    <ele>624.4</ele>
    <time>2026-08-23T18:30:57Z</time>
   </trkpt>
   <trkpt lat="53.5291430" lon="-113.5107560">
    <ele>624.4</ele>
    <time>2026-08-23T18:30:58Z</time>
   </trkpt>
   <trkpt lat="53.5291410" lon="-113.5107580">
    <ele>624.4</ele>
    <time>2026-08-23T18:30:59Z</time>
   </trkpt>
   <trkpt lat="53.5291430" lon="-113.5107560">
    <ele>624.4</ele>
    <time>2026-08-23T18:31:00Z</time>
   </trkpt>
   <trkpt lat="53.5291420" lon="-113.5107610">
    <ele>624.4</ele>
    <time>2026-08-23T18:31:01Z</time>
   </trkpt>
   <trkpt lat="53.5291380" lon="-113.5107660">
    <ele>624.4</ele>
    <time>2026-08-23T18:31:02Z</time>
   </trkpt>
   <trkpt lat="53.5291420" lon="-113.5107600">
    <ele>624.4</ele>
    <time>2026-08-23T18:31:03Z</time>
   </trkpt>
   <trkpt lat="53.5291410" lon="-113.5107470">
    <ele>624.4</ele>
    <time>2026-08-23T18:31:04Z</time>
   </trkpt>
   <trkpt lat="53.5291380" lon="-113.5107490">
    <ele>624.4</ele>
    <time>2026-08-23T18:31:05Z</time>
   </trkpt>
   <trkpt lat="53.5291390" lon="-113.5107580">
    <ele>624.4</ele>
    <time>2026-08-23T18:31:06Z</time>
   </trkpt>
   <trkpt lat="53.5291390" lon="-113.5107620">
    <ele>624.4</ele>
    <time>2026-08-23T18:31:07Z</time>
   </trkpt>
   <trkpt lat="53.5291340" lon="-113.5107550">
    <ele>624.4</ele>
    <time>2026-08-23T18:31:08Z</time>
   </trkpt>
   <trkpt lat="53.5291390" lon="-113.5107630">
    <ele>624.4</ele>
    <time>2026-08-23T18:31:09Z</time>
   </trkpt>
   <trkpt lat="53.5291410" lon="-113.5107570">
    <ele>624.4</ele>
    <time>2026-08-23T18:31:10Z</time>
   </trkpt>
   <trkpt lat="53.5291450" lon="-113.5107420">
    <ele>624.4</ele>
    <time>2026-08-23T18:31:11Z</time>
   </trkpt>
   <trkpt lat="53.5291420" lon="-113.5107380">
    <ele>624.4</ele>
    <time>2026-08-23T18:31:12Z</time>
   </trkpt>
   <trkpt lat="53.5291390" lon="-113.5107380">
    <ele>624.4</ele>
    <time>2026-08-23T18:31:13Z</time>
   </trkpt>
   <trkpt lat="53.5291390" lon="-113.5107390">
    <ele>624.4</ele>
    <time>2026-08-23T18:31:14Z</time>
   </trkpt>
   <trkpt lat="53.5291260" lon="-113.5107230">
    <ele>624.4</ele>
    <time>2026-08-23T18:31:15Z</time>
   </trkpt>
   <trkpt lat="53.5291220" lon="-113.5107270">
    <ele>624.4</ele>
    <time>2026-08-23T18:31:16Z</time>
   </trkpt>
   <trkpt lat="53.5291220" lon="-113.5107400">
    <ele>624.4</ele>
    <time>2026-08-23T18:31:17Z</time>
   </trkpt>
   <trkpt lat="53.5291240" lon="-113.5107420">
    <ele>624.4</ele>
    <time>2026-08-23T18:31:18Z</time>
   </trkpt>
   <trkpt lat="53.5291180" lon="-113.5107410">
    <ele>624.4</ele>
    <time>2026-08-23T18:31:19Z</time>
   </trkpt>
   <trkpt lat="53.5291230" lon="-113.5107430">
    <ele>624.4</ele>
    <time>2026-08-23T18:31:20Z</time>
   </trkpt>
   <trkpt lat="53.5291230" lon="-113.5107430">
    <ele>624.4</ele>
    <time>2026-08-23T18:31:21Z</time>
   </trkpt>
   <trkpt lat="53.5291210" lon="-113.5107360">
    <ele>624.4</ele>
    <time>2026-08-23T18:31:22Z</time>
   </trkpt>
   <trkpt lat="53.5291240" lon="-113.5107330">
    <ele>624.4</ele>
    <time>2026-08-23T18:31:23Z</time>
   </trkpt>
   <trkpt lat="53.5291240" lon="-113.5107340">
    <ele>624.4</ele>
    <time>2026-08-23T18:31:24Z</time>
   </trkpt>
   <trkpt lat="53.5291260" lon="-113.5107350">
    <ele>624.4</ele>
    <time>2026-08-23T18:31:25Z</time>
   </trkpt>
   <trkpt lat="53.5291260" lon="-113.5107350">
    <ele>624.4</ele>
    <time>2026-08-23T18:31:26Z</time>
   </trkpt>
   <trkpt lat="53.5291280" lon="-113.5107380">
    <ele>624.4</ele>
    <time>2026-08-23T18:31:27Z</time>
   </trkpt>
   <trkpt lat="53.5291260" lon="-113.5107340">
    <ele>624.4</ele>
    <time>2026-08-23T18:31:28Z</time>
   </trkpt>
   <trkpt lat="53.5291230" lon="-113.5107320">
    <ele>624.4</ele>
    <time>2026-08-23T18:31:29Z</time>
   </trkpt>
   <trkpt lat="53.5291230" lon="-113.5107280">
    <ele>624.4</ele>
    <time>2026-08-23T18:31:30Z</time>
   </trkpt>
   <trkpt lat="53.5291220" lon="-113.5107250">
    <ele>624.4</ele>
    <time>2026-08-23T18:31:31Z</time>
   </trkpt>
   <trkpt lat="53.5291240" lon="-113.5107140">
    <ele>624.4</ele>
    <time>2026-08-23T18:31:32Z</time>
   </trkpt>
   <trkpt lat="53.5291240" lon="-113.5107140">
    <ele>624.4</ele>
    <time>2026-08-23T18:31:33Z</time>
   </trkpt>
   <trkpt lat="53.5291280" lon="-113.5107030">
    <ele>624.4</ele>
    <time>2026-08-23T18:31:34Z</time>
   </trkpt>
   <trkpt lat="53.5291240" lon="-113.5107070">
    <ele>624.4</ele>
    <time>2026-08-23T18:31:35Z</time>
   </trkpt>
   <trkpt lat="53.5291280" lon="-113.5107010">
    <ele>624.4</ele>
    <time>2026-08-23T18:31:36Z</time>
   </trkpt>
   <trkpt lat="53.5291280" lon="-113.5107010">
    <ele>624.4</ele>
    <time>2026-08-23T18:31:37Z</time>
   </trkpt>
   <trkpt lat="53.5291280" lon="-113.5107010">
    <ele>624.4</ele>
    <time>2026-08-23T18:31:38Z</time>
   </trkpt>
   <trkpt lat="53.5291280" lon="-113.5107010">
    <ele>624.4</ele>
    <time>2026-08-23T18:31:39Z</time>
   </trkpt>
   <trkpt lat="53.5291310" lon="-113.5107020">
    <ele>624.4</ele>
    <time>2026-08-23T18:31:40Z</time>
   </trkpt>
   <trkpt lat="53.5291330" lon="-113.5107040">
    <ele>624.4</ele>
    <time>2026-08-23T18:31:41Z</time>
   </trkpt>
   <trkpt lat="53.5291330" lon="-113.5107120">
    <ele>624.4</ele>
    <time>2026-08-23T18:31:42Z</time>
   </trkpt>
   <trkpt lat="53.5291330" lon="-113.5107100">
    <ele>624.4</ele>
    <time>2026-08-23T18:31:43Z</time>
   </trkpt>
   <trkpt lat="53.5291340" lon="-113.5107070">
    <ele>624.4</ele>
    <time>2026-08-23T18:31:44Z</time>
   </trkpt>
   <trkpt lat="53.5291310" lon="-113.5107110">
    <ele>624.4</ele>
    <time>2026-08-23T18:31:45Z</time>
   </trkpt>
   <trkpt lat="53.5291320" lon="-113.5107150">
    <ele>624.4</ele>
    <time>2026-08-23T18:31:46Z</time>
   </trkpt>
   <trkpt lat="53.5291300" lon="-113.5107090">
    <ele>624.4</ele>
    <time>2026-08-23T18:31:47Z</time>
   </trkpt>
   <trkpt lat="53.5291260" lon="-113.5107030">
    <ele>624.4</ele>
    <time>2026-08-23T18:31:48Z</time>
   </trkpt>
   <trkpt lat="53.5291310" lon="-113.5107160">
    <ele>624.4</ele>
    <time>2026-08-23T18:31:49Z</time>
   </trkpt>
   <trkpt lat="53.5291330" lon="-113.5107170">
    <ele>624.4</ele>
    <time>2026-08-23T18:31:50Z</time>
   </trkpt>
   <trkpt lat="53.5291350" lon="-113.5107190">
    <ele>624.4</ele>
    <time>2026-08-23T18:31:51Z</time>
   </trkpt>
   <trkpt lat="53.5291360" lon="-113.5107260">
    <ele>624.4</ele>
    <time>2026-08-23T18:31:52Z</time>
   </trkpt>
   <trkpt lat="53.5291360" lon="-113.5107280">
    <ele>624.4</ele>
    <time>2026-08-23T18:31:53Z</time>
   </trkpt>
   <trkpt lat="53.5291290" lon="-113.5107350">
    <ele>624.4</ele>
    <time>2026-08-23T18:31:54Z</time>
   </trkpt>
   <trkpt lat="53.5291260" lon="-113.5107370">
    <ele>624.4</ele>
    <time>2026-08-23T18:31:55Z</time>
   </trkpt>
   <trkpt lat="53.5291220" lon="-113.5107300">
    <ele>624.4</ele>
    <time>2026-08-23T18:31:56Z</time>
   </trkpt>
   <trkpt lat="53.5291230" lon="-113.5107260">
    <ele>624.4</ele>
    <time>2026-08-23T18:31:57Z</time>
   </trkpt>
   <trkpt lat="53.5291270" lon="-113.5107270">
    <ele>624.4</ele>
    <time>2026-08-23T18:31:58Z</time>
   </trkpt>
   <trkpt lat="53.5291350" lon="-113.5107240">
    <ele>624.4</ele>
    <time>2026-08-23T18:31:59Z</time>
   </trkpt>
   <trkpt lat="53.5291310" lon="-113.5107090">
    <ele>624.4</ele>
    <time>2026-08-23T18:32:00Z</time>
   </trkpt>
   <trkpt lat="53.5291280" lon="-113.5107290">
    <ele>624.4</ele>
    <time>2026-08-23T18:32:01Z</time>
   </trkpt>
   <trkpt lat="53.5291270" lon="-113.5107440">
    <ele>624.4</ele>
    <time>2026-08-23T18:32:02Z</time>
   </trkpt>
   <trkpt lat="53.5291250" lon="-113.5107510">
    <ele>624.4</ele>
    <time>2026-08-23T18:32:03Z</time>
   </trkpt>
   <trkpt lat="53.5291110" lon="-113.5107300">
    <ele>624.4</ele>
    <time>2026-08-23T18:32:04Z</time>
   </trkpt>
   <trkpt lat="53.5291130" lon="-113.5107430">
    <ele>624.4</ele>
    <time>2026-08-23T18:32:05Z</time>
   </trkpt>
   <trkpt lat="53.5291120" lon="-113.5107520">
    <ele>624.4</ele>
    <time>2026-08-23T18:32:06Z</time>
   </trkpt>
   <trkpt lat="53.5291230" lon="-113.5107590">
    <ele>624.4</ele>
    <time>2026-08-23T18:32:07Z</time>
   </trkpt>
   <trkpt lat="53.5291290" lon="-113.5107650">
    <ele>624.4</ele>
    <time>2026-08-23T18:32:08Z</time>
   </trkpt>
   <trkpt lat="53.5291310" lon="-113.5107570">
    <ele>624.4</ele>
    <time>2026-08-23T18:32:09Z</time>
   </trkpt>
   <trkpt lat="53.5291330" lon="-113.5107580">
    <ele>624.4</ele>
    <time>2026-08-23T18:32:10Z</time>
   </trkpt>
   <trkpt lat="53.5291380" lon="-113.5107610">
    <ele>624.4</ele>
    <time>2026-08-23T18:32:11Z</time>
   </trkpt>
   <trkpt lat="53.5291400" lon="-113.5107480">
    <ele>624.4</ele>
    <time>2026-08-23T18:32:12Z</time>
   </trkpt>
   <trkpt lat="53.5291320" lon="-113.5107220">
    <ele>624.4</ele>
    <time>2026-08-23T18:32:13Z</time>
   </trkpt>
   <trkpt lat="53.5291270" lon="-113.5107110">
    <ele>624.4</ele>
    <time>2026-08-23T18:32:14Z</time>
   </trkpt>
   <trkpt lat="53.5291390" lon="-113.5107190">
    <ele>624.4</ele>
    <time>2026-08-23T18:32:15Z</time>
   </trkpt>
   <trkpt lat="53.5291440" lon="-113.5107200">
    <ele>624.4</ele>
    <time>2026-08-23T18:32:16Z</time>
   </trkpt>
   <trkpt lat="53.5291560" lon="-113.5107180">
    <ele>624.4</ele>
    <time>2026-08-23T18:32:17Z</time>
   </trkpt>
   <trkpt lat="53.5291400" lon="-113.5107170">
    <ele>624.4</ele>
    <time>2026-08-23T18:32:18Z</time>
   </trkpt>
   <trkpt lat="53.5291200" lon="-113.5107380">
    <ele>624.4</ele>
    <time>2026-08-23T18:32:19Z</time>
   </trkpt>
   <trkpt lat="53.5291190" lon="-113.5107350">
    <ele>624.4</ele>
    <time>2026-08-23T18:32:20Z</time>
   </trkpt>
   <trkpt lat="53.5291220" lon="-113.5107370">
    <ele>624.4</ele>
    <time>2026-08-23T18:32:21Z</time>
   </trkpt>
   <trkpt lat="53.5291290" lon="-113.5107410">
    <ele>624.4</ele>
    <time>2026-08-23T18:32:22Z</time>
   </trkpt>
   <trkpt lat="53.5291280" lon="-113.5107400">
    <ele>624.4</ele>
    <time>2026-08-23T18:32:23Z</time>
   </trkpt>
   <trkpt lat="53.5291300" lon="-113.5107410">
    <ele>624.4</ele>
    <time>2026-08-23T18:32:24Z</time>
   </trkpt>
   <trkpt lat="53.5291300" lon="-113.5107430">
    <ele>624.4</ele>
    <time>2026-08-23T18:32:25Z</time>
   </trkpt>
   <trkpt lat="53.5291300" lon="-113.5107460">
    <ele>624.4</ele>
    <time>2026-08-23T18:32:26Z</time>
   </trkpt>
   <trkpt lat="53.5291290" lon="-113.5107530">
    <ele>624.4</ele>
    <time>2026-08-23T18:32:27Z</time>
   </trkpt>
   <trkpt lat="53.5291330" lon="-113.5107520">
    <ele>624.4</ele>
    <time>2026-08-23T18:32:28Z</time>
   </trkpt>
  </trkseg>
 </trk>
</gpx>
